﻿<?xml version="1.0" encoding="utf-8"?><gpx creator="Garmin Desktop App" version="1.1" xsi:schemaLocation="http://www.topografix.com/GPX/1/1 http://www.topografix.com/GPX/1/1/gpx.xsd http://www.garmin.com/xmlschemas/WaypointExtension/v1 http://www8.garmin.com/xmlschemas/WaypointExtensionv1.xsd http://www.garmin.com/xmlschemas/TrackPointExtension/v1 http://www.garmin.com/xmlschemas/TrackPointExtensionv1.xsd http://www.garmin.com/xmlschemas/GpxExtensions/v3 http://www8.garmin.com/xmlschemas/GpxExtensionsv3.xsd http://www.garmin.com/xmlschemas/ActivityExtension/v1 http://www8.garmin.com/xmlschemas/ActivityExtensionv1.xsd http://www.garmin.com/xmlschemas/AdventuresExtensions/v1 http://www8.garmin.com/xmlschemas/AdventuresExtensionv1.xsd http://www.garmin.com/xmlschemas/PressureExtension/v1 http://www.garmin.com/xmlschemas/PressureExtensionv1.xsd http://www.garmin.com/xmlschemas/TripExtensions/v1 http://www.garmin.com/xmlschemas/TripExtensionsv1.xsd http://www.garmin.com/xmlschemas/TripMetaDataExtensions/v1 http://www.garmin.com/xmlschemas/TripMetaDataExtensionsv1.xsd http://www.garmin.com/xmlschemas/ViaPointTransportationModeExtensions/v1 http://www.garmin.com/xmlschemas/ViaPointTransportationModeExtensionsv1.xsd http://www.garmin.com/xmlschemas/CreationTimeExtension/v1 http://www.garmin.com/xmlschemas/CreationTimeExtensionsv1.xsd http://www.garmin.com/xmlschemas/AccelerationExtension/v1 http://www.garmin.com/xmlschemas/AccelerationExtensionv1.xsd http://www.garmin.com/xmlschemas/PowerExtension/v1 http://www.garmin.com/xmlschemas/PowerExtensionv1.xsd http://www.garmin.com/xmlschemas/VideoExtension/v1 http://www.garmin.com/xmlschemas/VideoExtensionv1.xsd" xmlns="http://www.topografix.com/GPX/1/1" xmlns:xsi="http://www.w3.org/2001/XMLSchema-instance" xmlns:wptx1="http://www.garmin.com/xmlschemas/WaypointExtension/v1" xmlns:gpxtrx="http://www.garmin.com/xmlschemas/GpxExtensions/v3" xmlns:gpxtpx="http://www.garmin.com/xmlschemas/TrackPointExtension/v1" xmlns:gpxx="http://www.garmin.com/xmlschemas/GpxExtensions/v3" xmlns:trp="http://www.garmin.com/xmlschemas/TripExtensions/v1" xmlns:adv="http://www.garmin.com/xmlschemas/AdventuresExtensions/v1" xmlns:prs="http://www.garmin.com/xmlschemas/PressureExtension/v1" xmlns:tmd="http://www.garmin.com/xmlschemas/TripMetaDataExtensions/v1" xmlns:vptm="http://www.garmin.com/xmlschemas/ViaPointTransportationModeExtensions/v1" xmlns:ctx="http://www.garmin.com/xmlschemas/CreationTimeExtension/v1" xmlns:gpxacc="http://www.garmin.com/xmlschemas/AccelerationExtension/v1" xmlns:gpxpx="http://www.garmin.com/xmlschemas/PowerExtension/v1" xmlns:vidx1="http://www.garmin.com/xmlschemas/VideoExtension/v1">

  <metadata>
    <link href="http://www.garmin.com">
      <text>Garmin International</text>
    </link>
    <time>2021-01-08T13:22:25Z</time>
    <bounds maxlat="43.809738820418715" maxlon="11.943014496937394" minlat="43.706080913543701" minlon="11.876520020887256" />
  </metadata>

  <trk>
    <name>la-verna-e-la-valle-santa</name>
    <extensions>
      <gpxx:TrackExtension>
        <gpxx:DisplayColor>Yellow</gpxx:DisplayColor>
      </gpxx:TrackExtension>
      <gpxtrkx:TrackStatsExtension xmlns:gpxtrkx="http://www.garmin.com/xmlschemas/TrackStatsExtension/v1">
        <gpxtrkx:Distance>20059</gpxtrkx:Distance>
        <gpxtrkx:TotalElapsedTime>23958</gpxtrkx:TotalElapsedTime>
        <gpxtrkx:MovingTime>18087</gpxtrkx:MovingTime>
        <gpxtrkx:StoppedTime>5860</gpxtrkx:StoppedTime>
        <gpxtrkx:MovingSpeed>1</gpxtrkx:MovingSpeed>
        <gpxtrkx:MaxSpeed>3</gpxtrkx:MaxSpeed>
        <gpxtrkx:MaxElevation>1268</gpxtrkx:MaxElevation>
        <gpxtrkx:MinElevation>649</gpxtrkx:MinElevation>
        <gpxtrkx:Ascent>976</gpxtrkx:Ascent>
        <gpxtrkx:Descent>1061</gpxtrkx:Descent>
        <gpxtrkx:AvgAscentRate>0</gpxtrkx:AvgAscentRate>
        <gpxtrkx:MaxAscentRate>0</gpxtrkx:MaxAscentRate>
        <gpxtrkx:AvgDescentRate>0</gpxtrkx:AvgDescentRate>
        <gpxtrkx:MaxDescentRate>-1</gpxtrkx:MaxDescentRate>
      </gpxtrkx:TrackStatsExtension>
    </extensions>
    <trkseg>
      <trkpt lat="43.794076647609472" lon="11.876520020887256">
        <ele>844.17999999999995</ele>
        <time>2016-06-03T08:56:00Z</time>
      </trkpt>
      <trkpt lat="43.794077318161726" lon="11.876528486609459">
        <ele>844.17999999999995</ele>
        <time>2016-06-03T08:56:01Z</time>
      </trkpt>
      <trkpt lat="43.794095339253545" lon="11.876556649804115">
        <ele>847.05999999999995</ele>
        <time>2016-06-03T08:56:05Z</time>
      </trkpt>
      <trkpt lat="43.794105397537351" lon="11.876592608168721">
        <ele>844.17999999999995</ele>
        <time>2016-06-03T08:56:08Z</time>
      </trkpt>
      <trkpt lat="43.794105816632509" lon="11.876603672280908">
        <ele>844.17999999999995</ele>
        <time>2016-06-03T08:56:09Z</time>
      </trkpt>
      <trkpt lat="43.794113779440522" lon="11.876661172136664">
        <ele>844.17999999999995</ele>
        <time>2016-06-03T08:56:13Z</time>
      </trkpt>
      <trkpt lat="43.794114533811808" lon="11.87663703225553">
        <ele>844.65999999999997</ele>
        <time>2016-06-03T08:56:22Z</time>
      </trkpt>
      <trkpt lat="43.794108582660556" lon="11.876628063619137">
        <ele>844.65999999999997</ele>
        <time>2016-06-03T08:56:32Z</time>
      </trkpt>
      <trkpt lat="43.794136075302958" lon="11.876676259562373">
        <ele>844.17999999999995</ele>
        <time>2016-06-03T08:56:42Z</time>
      </trkpt>
      <trkpt lat="43.794187204912305" lon="11.876684138551354">
        <ele>844.17999999999995</ele>
        <time>2016-06-03T08:56:49Z</time>
      </trkpt>
      <trkpt lat="43.79423975944519" lon="11.876720599830151">
        <ele>844.17999999999995</ele>
        <time>2016-06-03T08:56:54Z</time>
      </trkpt>
      <trkpt lat="43.794281836599112" lon="11.876762844622135">
        <ele>843.21000000000004</ele>
        <time>2016-06-03T08:56:58Z</time>
      </trkpt>
      <trkpt lat="43.794428687542677" lon="11.876838197931647">
        <ele>842.25</ele>
        <time>2016-06-03T08:57:12Z</time>
      </trkpt>
      <trkpt lat="43.794516110792756" lon="11.876928387209773">
        <ele>841.76999999999998</ele>
        <time>2016-06-03T08:57:22Z</time>
      </trkpt>
      <trkpt lat="43.794548884034157" lon="11.877059144899249">
        <ele>841.28999999999996</ele>
        <time>2016-06-03T08:57:35Z</time>
      </trkpt>
      <trkpt lat="43.79460034891963" lon="11.87703475356102">
        <ele>841.76999999999998</ele>
        <time>2016-06-03T08:57:49Z</time>
      </trkpt>
      <trkpt lat="43.794621303677559" lon="11.87698588706553">
        <ele>841.76999999999998</ele>
        <time>2016-06-03T08:57:54Z</time>
      </trkpt>
      <trkpt lat="43.79465407691896" lon="11.877126367762685">
        <ele>842.25</ele>
        <time>2016-06-03T08:58:01Z</time>
      </trkpt>
      <trkpt lat="43.794652903452516" lon="11.877361731603742">
        <ele>841.76999999999998</ele>
        <time>2016-06-03T08:58:14Z</time>
      </trkpt>
      <trkpt lat="43.794669583439827" lon="11.877582930028439">
        <ele>841.76999999999998</ele>
        <time>2016-06-03T08:58:27Z</time>
      </trkpt>
      <trkpt lat="43.794661285355687" lon="11.877741934731603">
        <ele>841.76999999999998</ele>
        <time>2016-06-03T08:58:37Z</time>
      </trkpt>
      <trkpt lat="43.794613005593419" lon="11.87787864357233">
        <ele>841.76999999999998</ele>
        <time>2016-06-03T08:58:49Z</time>
      </trkpt>
      <trkpt lat="43.79461258649826" lon="11.877883756533265">
        <ele>841.76999999999998</ele>
        <time>2016-06-03T08:58:51Z</time>
      </trkpt>
      <trkpt lat="43.794561205431819" lon="11.877977885305882">
        <ele>841.28999999999996</ele>
        <time>2016-06-03T08:58:59Z</time>
      </trkpt>
      <trkpt lat="43.794552907347679" lon="11.878012754023075">
        <ele>841.28999999999996</ele>
        <time>2016-06-03T08:59:02Z</time>
      </trkpt>
      <trkpt lat="43.794550141319633" lon="11.878124820068479">
        <ele>841.28999999999996</ele>
        <time>2016-06-03T08:59:14Z</time>
      </trkpt>
      <trkpt lat="43.794555002823472" lon="11.878160107880831">
        <ele>841.28999999999996</ele>
        <time>2016-06-03T08:59:24Z</time>
      </trkpt>
      <trkpt lat="43.794658854603767" lon="11.878253649920225">
        <ele>842.73000000000002</ele>
        <time>2016-06-03T08:59:36Z</time>
      </trkpt>
      <trkpt lat="43.794691124930978" lon="11.878268988803029">
        <ele>844.65999999999997</ele>
        <time>2016-06-03T08:59:46Z</time>
      </trkpt>
      <trkpt lat="43.794708391651511" lon="11.878305785357952">
        <ele>844.17999999999995</ele>
        <time>2016-06-03T08:59:54Z</time>
      </trkpt>
      <trkpt lat="43.794695818796754" lon="11.878329841420054">
        <ele>844.17999999999995</ele>
        <time>2016-06-03T08:59:56Z</time>
      </trkpt>
      <trkpt lat="43.794558271765709" lon="11.878414247184992">
        <ele>845.13999999999999</ele>
        <time>2016-06-03T09:00:08Z</time>
      </trkpt>
      <trkpt lat="43.794454503804445" lon="11.878513153642416">
        <ele>846.58000000000004</ele>
        <time>2016-06-03T09:00:19Z</time>
      </trkpt>
      <trkpt lat="43.79441955126822" lon="11.878549950197339">
        <ele>847.05999999999995</ele>
        <time>2016-06-03T09:00:23Z</time>
      </trkpt>
      <trkpt lat="43.794307401403785" lon="11.878610383719206">
        <ele>848.5</ele>
        <time>2016-06-03T09:00:36Z</time>
      </trkpt>
      <trkpt lat="43.794290469959378" lon="11.878633685410023">
        <ele>848.98000000000002</ele>
        <time>2016-06-03T09:00:38Z</time>
      </trkpt>
      <trkpt lat="43.794185444712639" lon="11.878764191642404">
        <ele>849.94000000000005</ele>
        <time>2016-06-03T09:00:50Z</time>
      </trkpt>
      <trkpt lat="43.794128615409136" lon="11.878841640427709">
        <ele>852.35000000000002</ele>
        <time>2016-06-03T09:00:58Z</time>
      </trkpt>
      <trkpt lat="43.794060219079256" lon="11.878997376188636">
        <ele>851.87</ele>
        <time>2016-06-03T09:01:11Z</time>
      </trkpt>
      <trkpt lat="43.794036079198122" lon="11.879129307344556">
        <ele>854.26999999999998</ele>
        <time>2016-06-03T09:01:21Z</time>
      </trkpt>
      <trkpt lat="43.794088466092944" lon="11.879198709502816">
        <ele>856.19000000000005</ele>
        <time>2016-06-03T09:01:31Z</time>
      </trkpt>
      <trkpt lat="43.79417086020112" lon="11.879164008423686">
        <ele>857.14999999999998</ele>
        <time>2016-06-03T09:01:39Z</time>
      </trkpt>
      <trkpt lat="43.794232634827495" lon="11.879095947369933">
        <ele>857.63</ele>
        <time>2016-06-03T09:01:46Z</time>
      </trkpt>
      <trkpt lat="43.794263061136007" lon="11.879046997055411">
        <ele>857.63</ele>
        <time>2016-06-03T09:01:51Z</time>
      </trkpt>
      <trkpt lat="43.794402368366718" lon="11.878929985687137">
        <ele>860.03999999999996</ele>
        <time>2016-06-03T09:02:05Z</time>
      </trkpt>
      <trkpt lat="43.794520469382405" lon="11.87889059074223">
        <ele>861</ele>
        <time>2016-06-03T09:02:16Z</time>
      </trkpt>
      <trkpt lat="43.794531617313623" lon="11.878891512751579">
        <ele>861</ele>
        <time>2016-06-03T09:02:17Z</time>
      </trkpt>
      <trkpt lat="43.794573694467545" lon="11.878995951265097">
        <ele>861.96000000000004</ele>
        <time>2016-06-03T09:02:25Z</time>
      </trkpt>
      <trkpt lat="43.794570844620466" lon="11.879024030640721">
        <ele>862.44000000000005</ele>
        <time>2016-06-03T09:02:27Z</time>
      </trkpt>
      <trkpt lat="43.794541927054524" lon="11.879107430577278">
        <ele>863.88</ele>
        <time>2016-06-03T09:02:34Z</time>
      </trkpt>
      <trkpt lat="43.794489204883575" lon="11.879170294851065">
        <ele>864.36000000000001</ele>
        <time>2016-06-03T09:02:40Z</time>
      </trkpt>
      <trkpt lat="43.794464310631156" lon="11.879322091117501">
        <ele>865.79999999999995</ele>
        <time>2016-06-03T09:02:51Z</time>
      </trkpt>
      <trkpt lat="43.794456012547016" lon="11.879348997026682">
        <ele>866.28999999999996</ele>
        <time>2016-06-03T09:02:53Z</time>
      </trkpt>
      <trkpt lat="43.794449474662542" lon="11.879511354491115">
        <ele>867.73000000000002</ele>
        <time>2016-06-03T09:03:05Z</time>
      </trkpt>
      <trkpt lat="43.794469591230154" lon="11.879682093858719">
        <ele>869.64999999999998</ele>
        <time>2016-06-03T09:03:18Z</time>
      </trkpt>
      <trkpt lat="43.794481409713626" lon="11.879781670868397">
        <ele>870.61000000000001</ele>
        <time>2016-06-03T09:03:25Z</time>
      </trkpt>
      <trkpt lat="43.794570341706276" lon="11.879864819347858">
        <ele>872.52999999999997</ele>
        <time>2016-06-03T09:03:37Z</time>
      </trkpt>
      <trkpt lat="43.794624740257859" lon="11.879796087741852">
        <ele>873.98000000000002</ele>
        <time>2016-06-03T09:03:47Z</time>
      </trkpt>
      <trkpt lat="43.794690538197756" lon="11.879643956199288">
        <ele>875.89999999999998</ele>
        <time>2016-06-03T09:04:00Z</time>
      </trkpt>
      <trkpt lat="43.794759018346667" lon="11.879553096368909">
        <ele>876.86000000000001</ele>
        <time>2016-06-03T09:04:09Z</time>
      </trkpt>
      <trkpt lat="43.794856499880552" lon="11.879477072507143">
        <ele>878.29999999999995</ele>
        <time>2016-06-03T09:04:20Z</time>
      </trkpt>
      <trkpt lat="43.794949119910598" lon="11.879433821886778">
        <ele>879.74000000000001</ele>
        <time>2016-06-03T09:04:29Z</time>
      </trkpt>
      <trkpt lat="43.79508457146585" lon="11.87939970754087">
        <ele>881.66999999999996</ele>
        <time>2016-06-03T09:04:42Z</time>
      </trkpt>
      <trkpt lat="43.795189093798399" lon="11.879328461363912">
        <ele>883.11000000000001</ele>
        <time>2016-06-03T09:04:53Z</time>
      </trkpt>
      <trkpt lat="43.795296968892217" lon="11.879299376159906">
        <ele>884.07000000000005</ele>
        <time>2016-06-03T09:05:03Z</time>
      </trkpt>
      <trkpt lat="43.795360922813416" lon="11.879249336197972">
        <ele>885.02999999999997</ele>
        <time>2016-06-03T09:05:12Z</time>
      </trkpt>
      <trkpt lat="43.795378608629107" lon="11.879197368398309">
        <ele>885.50999999999999</ele>
        <time>2016-06-03T09:05:17Z</time>
      </trkpt>
      <trkpt lat="43.795437952503562" lon="11.879081027582288">
        <ele>886.47000000000003</ele>
        <time>2016-06-03T09:05:28Z</time>
      </trkpt>
      <trkpt lat="43.795468965545297" lon="11.879005338996649">
        <ele>887.42999999999995</ele>
        <time>2016-06-03T09:05:35Z</time>
      </trkpt>
      <trkpt lat="43.795517832040787" lon="11.878897463902831">
        <ele>888.39999999999998</ele>
        <time>2016-06-03T09:05:44Z</time>
      </trkpt>
      <trkpt lat="43.795544318854809" lon="11.878858655691147">
        <ele>888.88</ele>
        <time>2016-06-03T09:05:48Z</time>
      </trkpt>
      <trkpt lat="43.795578852295876" lon="11.878722701221704">
        <ele>889.84000000000003</ele>
        <time>2016-06-03T09:05:58Z</time>
      </trkpt>
      <trkpt lat="43.795613469555974" lon="11.878617089241743">
        <ele>891.27999999999997</ele>
        <time>2016-06-03T09:06:08Z</time>
      </trkpt>
      <trkpt lat="43.795683961361647" lon="11.878502173349261">
        <ele>893.20000000000005</ele>
        <time>2016-06-03T09:06:20Z</time>
      </trkpt>
      <trkpt lat="43.795748921111226" lon="11.87856319360435">
        <ele>894.63999999999999</ele>
        <time>2016-06-03T09:06:30Z</time>
      </trkpt>
      <trkpt lat="43.795721847563982" lon="11.87868339009583">
        <ele>895.61000000000001</ele>
        <time>2016-06-03T09:06:39Z</time>
      </trkpt>
      <trkpt lat="43.795692846179008" lon="11.878797132521868">
        <ele>897.04999999999995</ele>
        <time>2016-06-03T09:06:49Z</time>
      </trkpt>
      <trkpt lat="43.795676082372665" lon="11.8789008166641">
        <ele>897.52999999999997</ele>
        <time>2016-06-03T09:06:56Z</time>
      </trkpt>
      <trkpt lat="43.795664263889194" lon="11.879039788618684">
        <ele>898.00999999999999</ele>
        <time>2016-06-03T09:07:05Z</time>
      </trkpt>
      <trkpt lat="43.795648338273168" lon="11.879187896847725">
        <ele>899.45000000000005</ele>
        <time>2016-06-03T09:07:16Z</time>
      </trkpt>
      <trkpt lat="43.795624617487192" lon="11.879322342574596">
        <ele>901.37</ele>
        <time>2016-06-03T09:07:26Z</time>
      </trkpt>
      <trkpt lat="43.795625036582351" lon="11.879484113305807">
        <ele>902.33000000000004</ele>
        <time>2016-06-03T09:07:37Z</time>
      </trkpt>
      <trkpt lat="43.795604836195707" lon="11.8796347361058">
        <ele>903.77999999999997</ele>
        <time>2016-06-03T09:07:49Z</time>
      </trkpt>
      <trkpt lat="43.795624785125256" lon="11.879806229844689">
        <ele>905.22000000000003</ele>
        <time>2016-06-03T09:08:02Z</time>
      </trkpt>
      <trkpt lat="43.795658899471164" lon="11.879947800189257">
        <ele>906.65999999999997</ele>
        <time>2016-06-03T09:08:12Z</time>
      </trkpt>
      <trkpt lat="43.795644734054804" lon="11.879992559552193">
        <ele>907.13999999999999</ele>
        <time>2016-06-03T09:08:21Z</time>
      </trkpt>
      <trkpt lat="43.795680524781346" lon="11.880066739395261">
        <ele>907.62</ele>
        <time>2016-06-03T09:08:33Z</time>
      </trkpt>
      <trkpt lat="43.795703239738941" lon="11.880167573690414">
        <ele>909.05999999999995</ele>
        <time>2016-06-03T09:08:43Z</time>
      </trkpt>
      <trkpt lat="43.79571296274662" lon="11.880199341103435">
        <ele>909.53999999999996</ele>
        <time>2016-06-03T09:08:51Z</time>
      </trkpt>
      <trkpt lat="43.795726038515568" lon="11.880342336371541">
        <ele>910.02999999999997</ele>
        <time>2016-06-03T09:09:01Z</time>
      </trkpt>
      <trkpt lat="43.795763337984681" lon="11.88038432970643">
        <ele>911.95000000000005</ele>
        <time>2016-06-03T09:09:11Z</time>
      </trkpt>
      <trkpt lat="43.795774653553963" lon="11.880287602543831">
        <ele>912.90999999999997</ele>
        <time>2016-06-03T09:09:21Z</time>
      </trkpt>
      <trkpt lat="43.795800637453794" lon="11.880150139331818">
        <ele>914.35000000000002</ele>
        <time>2016-06-03T09:09:33Z</time>
      </trkpt>
      <trkpt lat="43.795794099569321" lon="11.880009490996599">
        <ele>916.26999999999998</ele>
        <time>2016-06-03T09:09:43Z</time>
      </trkpt>
      <trkpt lat="43.795823520049453" lon="11.879888121038675">
        <ele>917.24000000000001</ele>
        <time>2016-06-03T09:09:52Z</time>
      </trkpt>
      <trkpt lat="43.795858221128583" lon="11.879745628684759">
        <ele>918.67999999999995</ele>
        <time>2016-06-03T09:10:03Z</time>
      </trkpt>
      <trkpt lat="43.795887222513556" lon="11.879600454121828">
        <ele>920.12</ele>
        <time>2016-06-03T09:10:14Z</time>
      </trkpt>
      <trkpt lat="43.795944890007377" lon="11.87945150770247">
        <ele>921.55999999999995</ele>
        <time>2016-06-03T09:10:26Z</time>
      </trkpt>
      <trkpt lat="43.795991409569979" lon="11.879309434443712">
        <ele>922.51999999999998</ele>
        <time>2016-06-03T09:10:37Z</time>
      </trkpt>
      <trkpt lat="43.796023428440094" lon="11.879178006201982">
        <ele>923.48000000000002</ele>
        <time>2016-06-03T09:10:46Z</time>
      </trkpt>
      <trkpt lat="43.796074725687504" lon="11.879056552425027">
        <ele>924.92999999999995</ele>
        <time>2016-06-03T09:10:56Z</time>
      </trkpt>
      <trkpt lat="43.79609702154994" lon="11.878952784463763">
        <ele>926.85000000000002</ele>
        <time>2016-06-03T09:11:03Z</time>
      </trkpt>
      <trkpt lat="43.796159215271473" lon="11.878797970712185">
        <ele>926.85000000000002</ele>
        <time>2016-06-03T09:11:15Z</time>
      </trkpt>
      <trkpt lat="43.796238508075476" lon="11.878789756447077">
        <ele>928.76999999999998</ele>
        <time>2016-06-03T09:11:26Z</time>
      </trkpt>
      <trkpt lat="43.796226689592004" lon="11.878931745886803">
        <ele>929.73000000000002</ele>
        <time>2016-06-03T09:11:37Z</time>
      </trkpt>
      <trkpt lat="43.796214619651437" lon="11.878977846354246">
        <ele>930.21000000000004</ele>
        <time>2016-06-03T09:11:40Z</time>
      </trkpt>
      <trkpt lat="43.796203304082155" lon="11.879014139994979">
        <ele>930.69000000000005</ele>
        <time>2016-06-03T09:11:43Z</time>
      </trkpt>
      <trkpt lat="43.7961888872087" lon="11.879164427518845">
        <ele>931.64999999999998</ele>
        <time>2016-06-03T09:11:54Z</time>
      </trkpt>
      <trkpt lat="43.796207495033741" lon="11.879320330917835">
        <ele>933.10000000000002</ele>
        <time>2016-06-03T09:12:06Z</time>
      </trkpt>
      <trkpt lat="43.796225432306528" lon="11.87944027595222">
        <ele>934.05999999999995</ele>
        <time>2016-06-03T09:12:16Z</time>
      </trkpt>
      <trkpt lat="43.79622501321137" lon="11.879556113854051">
        <ele>935.5</ele>
        <time>2016-06-03T09:12:25Z</time>
      </trkpt>
      <trkpt lat="43.796215793117881" lon="11.879718722775578">
        <ele>936.94000000000005</ele>
        <time>2016-06-03T09:12:35Z</time>
      </trkpt>
      <trkpt lat="43.796219816431403" lon="11.87973590567708">
        <ele>936.94000000000005</ele>
        <time>2016-06-03T09:12:36Z</time>
      </trkpt>
      <trkpt lat="43.796239094808698" lon="11.879901280626655">
        <ele>937.89999999999998</ele>
        <time>2016-06-03T09:12:48Z</time>
      </trkpt>
      <trkpt lat="43.79624311812222" lon="11.880045449361205">
        <ele>939.35000000000002</ele>
        <time>2016-06-03T09:13:00Z</time>
      </trkpt>
      <trkpt lat="43.796246722340584" lon="11.880111750215292">
        <ele>940.30999999999995</ele>
        <time>2016-06-03T09:13:05Z</time>
      </trkpt>
      <trkpt lat="43.796256193891168" lon="11.880231946706772">
        <ele>941.26999999999998</ele>
        <time>2016-06-03T09:13:14Z</time>
      </trkpt>
      <trkpt lat="43.796250158920884" lon="11.880287015810609">
        <ele>942.23000000000002</ele>
        <time>2016-06-03T09:13:18Z</time>
      </trkpt>
      <trkpt lat="43.796225264668465" lon="11.880451049655676">
        <ele>942.71000000000004</ele>
        <time>2016-06-03T09:13:29Z</time>
      </trkpt>
      <trkpt lat="43.796220906078815" lon="11.880598654970527">
        <ele>944.14999999999998</ele>
        <time>2016-06-03T09:13:42Z</time>
      </trkpt>
      <trkpt lat="43.796198526397347" lon="11.880565211176872">
        <ele>943.66999999999996</ele>
        <time>2016-06-03T09:13:51Z</time>
      </trkpt>
      <trkpt lat="43.796156281605363" lon="11.880525480955839">
        <ele>943.66999999999996</ele>
        <time>2016-06-03T09:14:19Z</time>
      </trkpt>
      <trkpt lat="43.796173548325896" lon="11.880522044375539">
        <ele>944.14999999999998</ele>
        <time>2016-06-03T09:14:30Z</time>
      </trkpt>
      <trkpt lat="43.796169776469469" lon="11.880583483725786">
        <ele>943.66999999999996</ele>
        <time>2016-06-03T09:14:45Z</time>
      </trkpt>
      <trkpt lat="43.796179331839085" lon="11.880601588636637">
        <ele>944.14999999999998</ele>
        <time>2016-06-03T09:14:58Z</time>
      </trkpt>
      <trkpt lat="43.79621235653758" lon="11.880589853972197">
        <ele>944.14999999999998</ele>
        <time>2016-06-03T09:15:12Z</time>
      </trkpt>
      <trkpt lat="43.796246889978647" lon="11.880476530641317">
        <ele>944.14999999999998</ele>
        <time>2016-06-03T09:15:22Z</time>
      </trkpt>
      <trkpt lat="43.796271197497845" lon="11.880394220352173">
        <ele>945.11000000000001</ele>
        <time>2016-06-03T09:15:32Z</time>
      </trkpt>
      <trkpt lat="43.796319309622049" lon="11.880268407985568">
        <ele>946.55999999999995</ele>
        <time>2016-06-03T09:15:42Z</time>
      </trkpt>
      <trkpt lat="43.796366583555937" lon="11.880123149603605">
        <ele>948</ele>
        <time>2016-06-03T09:15:52Z</time>
      </trkpt>
      <trkpt lat="43.796401955187321" lon="11.879983255639672">
        <ele>949.44000000000005</ele>
        <time>2016-06-03T09:16:03Z</time>
      </trkpt>
      <trkpt lat="43.796419138088822" lon="11.879842523485422">
        <ele>950.88</ele>
        <time>2016-06-03T09:16:14Z</time>
      </trkpt>
      <trkpt lat="43.796451576054096" lon="11.879688464105129">
        <ele>951.84000000000003</ele>
        <time>2016-06-03T09:16:26Z</time>
      </trkpt>
      <trkpt lat="43.796461131423712" lon="11.879599532112479">
        <ele>952.79999999999995</ele>
        <time>2016-06-03T09:16:37Z</time>
      </trkpt>
      <trkpt lat="43.796467501670122" lon="11.87944270670414">
        <ele>954.25</ele>
        <time>2016-06-03T09:16:49Z</time>
      </trkpt>
      <trkpt lat="43.796489965170622" lon="11.879359222948551">
        <ele>954.73000000000002</ele>
        <time>2016-06-03T09:16:59Z</time>
      </trkpt>
      <trkpt lat="43.79649524576962" lon="11.879351092502475">
        <ele>955.21000000000004</ele>
        <time>2016-06-03T09:17:00Z</time>
      </trkpt>
      <trkpt lat="43.796555260196328" lon="11.879213796928525">
        <ele>956.16999999999996</ele>
        <time>2016-06-03T09:17:12Z</time>
      </trkpt>
      <trkpt lat="43.7966188788414" lon="11.8790786806494">
        <ele>957.61000000000001</ele>
        <time>2016-06-03T09:17:24Z</time>
      </trkpt>
      <trkpt lat="43.796671349555254" lon="11.878944151103497">
        <ele>959.04999999999995</ele>
        <time>2016-06-03T09:17:35Z</time>
      </trkpt>
      <trkpt lat="43.796730106696486" lon="11.878803335130215">
        <ele>960.49000000000001</ele>
        <time>2016-06-03T09:17:47Z</time>
      </trkpt>
      <trkpt lat="43.796768831089139" lon="11.878765029832721">
        <ele>960.49000000000001</ele>
        <time>2016-06-03T09:17:52Z</time>
      </trkpt>
      <trkpt lat="43.796899756416678" lon="11.878703674301505">
        <ele>962.41999999999996</ele>
        <time>2016-06-03T09:18:06Z</time>
      </trkpt>
      <trkpt lat="43.796959854662418" lon="11.87868095934391">
        <ele>962.89999999999998</ele>
        <time>2016-06-03T09:18:12Z</time>
      </trkpt>
      <trkpt lat="43.797055408358574" lon="11.878654388710856">
        <ele>964.34000000000003</ele>
        <time>2016-06-03T09:18:22Z</time>
      </trkpt>
      <trkpt lat="43.797137970104814" lon="11.878631673753262">
        <ele>965.29999999999995</ele>
        <time>2016-06-03T09:18:32Z</time>
      </trkpt>
      <trkpt lat="43.797163367271423" lon="11.878609880805016">
        <ele>965.77999999999997</ele>
        <time>2016-06-03T09:18:35Z</time>
      </trkpt>
      <trkpt lat="43.797222375869751" lon="11.878604684025049">
        <ele>966.25999999999999</ele>
        <time>2016-06-03T09:18:41Z</time>
      </trkpt>
      <trkpt lat="43.797326562926173" lon="11.87856269069016">
        <ele>967.70000000000005</ele>
        <time>2016-06-03T09:18:51Z</time>
      </trkpt>
      <trkpt lat="43.797396719455719" lon="11.878564450889826">
        <ele>968.66999999999996</ele>
        <time>2016-06-03T09:19:00Z</time>
      </trkpt>
      <trkpt lat="43.797412225976586" lon="11.878558583557606">
        <ele>969.14999999999998</ele>
        <time>2016-06-03T09:19:02Z</time>
      </trkpt>
      <trkpt lat="43.797477437183261" lon="11.878521787002683">
        <ele>970.11000000000001</ele>
        <time>2016-06-03T09:19:11Z</time>
      </trkpt>
      <trkpt lat="43.797494620084763" lon="11.878512399271131">
        <ele>970.59000000000003</ele>
        <time>2016-06-03T09:19:13Z</time>
      </trkpt>
      <trkpt lat="43.797525214031339" lon="11.878484403714538">
        <ele>970.59000000000003</ele>
        <time>2016-06-03T09:19:17Z</time>
      </trkpt>
      <trkpt lat="43.797612385824323" lon="11.878383234143257">
        <ele>972.02999999999997</ele>
        <time>2016-06-03T09:19:29Z</time>
      </trkpt>
      <trkpt lat="43.797652954235673" lon="11.878238646313548">
        <ele>973.47000000000003</ele>
        <time>2016-06-03T09:19:41Z</time>
      </trkpt>
      <trkpt lat="43.797675250098109" lon="11.878094226121902">
        <ele>974.90999999999997</ele>
        <time>2016-06-03T09:19:52Z</time>
      </trkpt>
      <trkpt lat="43.797684051096439" lon="11.878051226958632">
        <ele>975.38999999999999</ele>
        <time>2016-06-03T09:19:56Z</time>
      </trkpt>
      <trkpt lat="43.797707352787256" lon="11.877911500632763">
        <ele>976.36000000000001</ele>
        <time>2016-06-03T09:20:06Z</time>
      </trkpt>
      <trkpt lat="43.797731911763549" lon="11.877748975530267">
        <ele>977.79999999999995</ele>
        <time>2016-06-03T09:20:18Z</time>
      </trkpt>
      <trkpt lat="43.797806929796934" lon="11.877601034939289">
        <ele>979.72000000000003</ele>
        <time>2016-06-03T09:20:31Z</time>
      </trkpt>
      <trkpt lat="43.797841966152191" lon="11.877559460699558">
        <ele>980.67999999999995</ele>
        <time>2016-06-03T09:20:43Z</time>
      </trkpt>
      <trkpt lat="43.79796895198524" lon="11.877627437934279">
        <ele>982.12</ele>
        <time>2016-06-03T09:20:56Z</time>
      </trkpt>
      <trkpt lat="43.79796358756721" lon="11.877772277221084">
        <ele>983.57000000000005</ele>
        <time>2016-06-03T09:21:07Z</time>
      </trkpt>
      <trkpt lat="43.798021087422967" lon="11.877970173954964">
        <ele>983.09000000000003</ele>
        <time>2016-06-03T09:21:21Z</time>
      </trkpt>
      <trkpt lat="43.798030894249678" lon="11.878011412918568">
        <ele>985.00999999999999</ele>
        <time>2016-06-03T09:21:25Z</time>
      </trkpt>
      <trkpt lat="43.798096356913447" lon="11.87810436822474">
        <ele>985.49000000000001</ele>
        <time>2016-06-03T09:21:39Z</time>
      </trkpt>
      <trkpt lat="43.798101805150509" lon="11.878129094839096">
        <ele>985.49000000000001</ele>
        <time>2016-06-03T09:21:41Z</time>
      </trkpt>
      <trkpt lat="43.798129884526134" lon="11.878178799524903">
        <ele>987.40999999999997</ele>
        <time>2016-06-03T09:21:45Z</time>
      </trkpt>
      <trkpt lat="43.798190485686064" lon="11.878290446475148">
        <ele>987.88999999999999</ele>
        <time>2016-06-03T09:21:56Z</time>
      </trkpt>
      <trkpt lat="43.798184618353844" lon="11.87840586528182">
        <ele>988.85000000000002</ele>
        <time>2016-06-03T09:22:06Z</time>
      </trkpt>
      <trkpt lat="43.798197023570538" lon="11.878436794504523">
        <ele>988.85000000000002</ele>
        <time>2016-06-03T09:22:20Z</time>
      </trkpt>
      <trkpt lat="43.798146396875381" lon="11.878603091463447">
        <ele>990.29999999999995</ele>
        <time>2016-06-03T09:22:31Z</time>
      </trkpt>
      <trkpt lat="43.798062158748507" lon="11.878695292398334">
        <ele>991.74000000000001</ele>
        <time>2016-06-03T09:22:42Z</time>
      </trkpt>
      <trkpt lat="43.797929137945175" lon="11.878780955448747">
        <ele>992.70000000000005</ele>
        <time>2016-06-03T09:22:52Z</time>
      </trkpt>
      <trkpt lat="43.797853952273726" lon="11.878882627934217">
        <ele>994.13999999999999</ele>
        <time>2016-06-03T09:23:04Z</time>
      </trkpt>
      <trkpt lat="43.797799805179238" lon="11.87899511307478">
        <ele>995.58000000000004</ele>
        <time>2016-06-03T09:23:16Z</time>
      </trkpt>
      <trkpt lat="43.797699473798275" lon="11.879139617085457">
        <ele>996.53999999999996</ele>
        <time>2016-06-03T09:23:28Z</time>
      </trkpt>
      <trkpt lat="43.797589084133506" lon="11.879241792485118">
        <ele>997.99000000000001</ele>
        <time>2016-06-03T09:23:43Z</time>
      </trkpt>
      <trkpt lat="43.797577600926161" lon="11.879321755841374">
        <ele>998.47000000000003</ele>
        <time>2016-06-03T09:23:50Z</time>
      </trkpt>
      <trkpt lat="43.79753309302032" lon="11.879428206011653">
        <ele>999.42999999999995</ele>
        <time>2016-06-03T09:24:03Z</time>
      </trkpt>
      <trkpt lat="43.797554718330503" lon="11.879621827974916">
        <ele>999.42999999999995</ele>
        <time>2016-06-03T09:24:17Z</time>
      </trkpt>
      <trkpt lat="43.797582797706127" lon="11.879800697788596">
        <ele>999.42999999999995</ele>
        <time>2016-06-03T09:24:30Z</time>
      </trkpt>
      <trkpt lat="43.797588665038347" lon="11.879941849038005">
        <ele>999.42999999999995</ele>
        <time>2016-06-03T09:24:41Z</time>
      </trkpt>
      <trkpt lat="43.797580869868398" lon="11.880060788244009">
        <ele>998.95000000000005</ele>
        <time>2016-06-03T09:24:53Z</time>
      </trkpt>
      <trkpt lat="43.797627389431" lon="11.880281399935484">
        <ele>999.42999999999995</ele>
        <time>2016-06-03T09:25:05Z</time>
      </trkpt>
      <trkpt lat="43.797709783539176" lon="11.880404613912106">
        <ele>999.90999999999997</ele>
        <time>2016-06-03T09:25:16Z</time>
      </trkpt>
      <trkpt lat="43.797723697498441" lon="11.880428502336144">
        <ele>1000.39</ele>
        <time>2016-06-03T09:25:18Z</time>
      </trkpt>
      <trkpt lat="43.797777090221643" lon="11.880473345518112">
        <ele>1000.39</ele>
        <time>2016-06-03T09:25:23Z</time>
      </trkpt>
      <trkpt lat="43.797853114083409" lon="11.880581388249993">
        <ele>1001.35</ele>
        <time>2016-06-03T09:25:36Z</time>
      </trkpt>
      <trkpt lat="43.797924024984241" lon="11.880677277222276">
        <ele>1003.27</ele>
        <time>2016-06-03T09:25:49Z</time>
      </trkpt>
      <trkpt lat="43.798086130991578" lon="11.880777692422271">
        <ele>1004.23</ele>
        <time>2016-06-03T09:26:03Z</time>
      </trkpt>
      <trkpt lat="43.798201130703092" lon="11.880903840065002">
        <ele>1005.2</ele>
        <time>2016-06-03T09:26:15Z</time>
      </trkpt>
      <trkpt lat="43.798301378265023" lon="11.880997130647302">
        <ele>1006.64</ele>
        <time>2016-06-03T09:26:28Z</time>
      </trkpt>
      <trkpt lat="43.79845317453146" lon="11.881065778434277">
        <ele>1007.12</ele>
        <time>2016-06-03T09:26:42Z</time>
      </trkpt>
      <trkpt lat="43.798568090423942" lon="11.881178179755807">
        <ele>1007.12</ele>
        <time>2016-06-03T09:26:56Z</time>
      </trkpt>
      <trkpt lat="43.798620058223605" lon="11.881233835592866">
        <ele>1008.08</ele>
        <time>2016-06-03T09:27:03Z</time>
      </trkpt>
      <trkpt lat="43.798681078478694" lon="11.88127264380455">
        <ele>1009.52</ele>
        <time>2016-06-03T09:27:15Z</time>
      </trkpt>
      <trkpt lat="43.798620142042637" lon="11.881207013502717">
        <ele>1010.48</ele>
        <time>2016-06-03T09:27:25Z</time>
      </trkpt>
      <trkpt lat="43.798539843410254" lon="11.881094444543123">
        <ele>1010.96</ele>
        <time>2016-06-03T09:27:37Z</time>
      </trkpt>
      <trkpt lat="43.798442026600242" lon="11.880976678803563">
        <ele>1012.41</ele>
        <time>2016-06-03T09:27:50Z</time>
      </trkpt>
      <trkpt lat="43.798375893384218" lon="11.880956813693047">
        <ele>1012.41</ele>
        <time>2016-06-03T09:28:01Z</time>
      </trkpt>
      <trkpt lat="43.798299198970199" lon="11.880797976627946">
        <ele>1014.33</ele>
        <time>2016-06-03T09:28:14Z</time>
      </trkpt>
      <trkpt lat="43.798251925036311" lon="11.880679288879037">
        <ele>1016.25</ele>
        <time>2016-06-03T09:28:24Z</time>
      </trkpt>
      <trkpt lat="43.79820154979825" lon="11.880548279732466">
        <ele>1018.17</ele>
        <time>2016-06-03T09:28:37Z</time>
      </trkpt>
      <trkpt lat="43.798190653324127" lon="11.880414253100753">
        <ele>1019.62</ele>
        <time>2016-06-03T09:28:49Z</time>
      </trkpt>
      <trkpt lat="43.798239268362522" lon="11.880266480147839">
        <ele>1021.0599999999999</ele>
        <time>2016-06-03T09:29:01Z</time>
      </trkpt>
      <trkpt lat="43.798341443762183" lon="11.880170674994588">
        <ele>1022.5</ele>
        <time>2016-06-03T09:29:13Z</time>
      </trkpt>
      <trkpt lat="43.798451581969857" lon="11.880195653066039">
        <ele>1023.9400000000001</ele>
        <time>2016-06-03T09:29:26Z</time>
      </trkpt>
      <trkpt lat="43.79852743819356" lon="11.880213506519794">
        <ele>1024.4200000000001</ele>
        <time>2016-06-03T09:29:34Z</time>
      </trkpt>
      <trkpt lat="43.798594577237964" lon="11.880302019417286">
        <ele>1025.3800000000001</ele>
        <time>2016-06-03T09:29:41Z</time>
      </trkpt>
      <trkpt lat="43.798676384612918" lon="11.880443086847663">
        <ele>1026.3399999999999</ele>
        <time>2016-06-03T09:29:53Z</time>
      </trkpt>
      <trkpt lat="43.798727430403233" lon="11.880517853423953">
        <ele>1027.3099999999999</ele>
        <time>2016-06-03T09:30:04Z</time>
      </trkpt>
      <trkpt lat="43.798749893903732" lon="11.880529671907425">
        <ele>1027.3099999999999</ele>
        <time>2016-06-03T09:30:13Z</time>
      </trkpt>
      <trkpt lat="43.798805549740791" lon="11.880537131801248">
        <ele>1027.79</ele>
        <time>2016-06-03T09:30:23Z</time>
      </trkpt>
      <trkpt lat="43.798814350739121" lon="11.880542160943151">
        <ele>1027.79</ele>
        <time>2016-06-03T09:30:24Z</time>
      </trkpt>
      <trkpt lat="43.798881908878684" lon="11.880603348836303">
        <ele>1029.23</ele>
        <time>2016-06-03T09:30:35Z</time>
      </trkpt>
      <trkpt lat="43.798877550289035" lon="11.880632685497403">
        <ele>1029.23</ele>
        <time>2016-06-03T09:30:47Z</time>
      </trkpt>
      <trkpt lat="43.798841508105397" lon="11.880598906427622">
        <ele>1028.75</ele>
        <time>2016-06-03T09:30:59Z</time>
      </trkpt>
      <trkpt lat="43.798856427893043" lon="11.880581639707088">
        <ele>1028.75</ele>
        <time>2016-06-03T09:31:22Z</time>
      </trkpt>
      <trkpt lat="43.79887830466032" lon="11.88061298802495">
        <ele>1028.75</ele>
        <time>2016-06-03T09:31:38Z</time>
      </trkpt>
      <trkpt lat="43.798880819231272" lon="11.880662776529789">
        <ele>1028.75</ele>
        <time>2016-06-03T09:32:03Z</time>
      </trkpt>
      <trkpt lat="43.798855924978852" lon="11.880635116249323">
        <ele>1028.75</ele>
        <time>2016-06-03T09:32:19Z</time>
      </trkpt>
      <trkpt lat="43.798855505883694" lon="11.880618436262012">
        <ele>1029.23</ele>
        <time>2016-06-03T09:32:41Z</time>
      </trkpt>
      <trkpt lat="43.798849051818252" lon="11.880624471232295">
        <ele>1029.23</ele>
        <time>2016-06-03T09:33:00Z</time>
      </trkpt>
      <trkpt lat="43.798860367387533" lon="11.880598906427622">
        <ele>1029.23</ele>
        <time>2016-06-03T09:33:20Z</time>
      </trkpt>
      <trkpt lat="43.798889452591538" lon="11.880592620000243">
        <ele>1029.23</ele>
        <time>2016-06-03T09:33:36Z</time>
      </trkpt>
      <trkpt lat="43.798876376822591" lon="11.880589770153165">
        <ele>1029.71</ele>
        <time>2016-06-03T09:33:57Z</time>
      </trkpt>
      <trkpt lat="43.798862714320421" lon="11.880577113479376">
        <ele>1030.1900000000001</ele>
        <time>2016-06-03T09:34:14Z</time>
      </trkpt>
      <trkpt lat="43.79887537099421" lon="11.880568396300077">
        <ele>1030.1900000000001</ele>
        <time>2016-06-03T09:34:36Z</time>
      </trkpt>
      <trkpt lat="43.79887729883194" lon="11.880588680505753">
        <ele>1030.1900000000001</ele>
        <time>2016-06-03T09:35:01Z</time>
      </trkpt>
      <trkpt lat="43.798852488398552" lon="11.880583735182881">
        <ele>1030.6700000000001</ele>
        <time>2016-06-03T09:35:26Z</time>
      </trkpt>
      <trkpt lat="43.798889871686697" lon="11.8805948831141">
        <ele>1031.1500000000001</ele>
        <time>2016-06-03T09:35:51Z</time>
      </trkpt>
      <trkpt lat="43.798865899443626" lon="11.880608461797237">
        <ele>1031.1500000000001</ele>
        <time>2016-06-03T09:36:05Z</time>
      </trkpt>
      <trkpt lat="43.798867408186197" lon="11.880624387413263">
        <ele>1031.6300000000001</ele>
        <time>2016-06-03T09:36:18Z</time>
      </trkpt>
      <trkpt lat="43.798838574439287" lon="11.880625728517771">
        <ele>1032.1099999999999</ele>
        <time>2016-06-03T09:36:38Z</time>
      </trkpt>
      <trkpt lat="43.798849806189537" lon="11.880592117086053">
        <ele>1032.1099999999999</ele>
        <time>2016-06-03T09:36:44Z</time>
      </trkpt>
      <trkpt lat="43.798858607187867" lon="11.880723293870687">
        <ele>1033.0699999999999</ele>
        <time>2016-06-03T09:37:00Z</time>
      </trkpt>
      <trkpt lat="43.798796078190207" lon="11.880754139274359">
        <ele>1033.0699999999999</ele>
        <time>2016-06-03T09:37:10Z</time>
      </trkpt>
      <trkpt lat="43.79879767075181" lon="11.880755983293056">
        <ele>1033.0699999999999</ele>
        <time>2016-06-03T09:37:11Z</time>
      </trkpt>
      <trkpt lat="43.798832204192877" lon="11.880804011598229">
        <ele>1033.0699999999999</ele>
        <time>2016-06-03T09:37:15Z</time>
      </trkpt>
      <trkpt lat="43.798885680735111" lon="11.880856147035956">
        <ele>1034.04</ele>
        <time>2016-06-03T09:37:27Z</time>
      </trkpt>
      <trkpt lat="43.798863301053643" lon="11.880871737375855">
        <ele>1034.04</ele>
        <time>2016-06-03T09:37:37Z</time>
      </trkpt>
      <trkpt lat="43.798915185034275" lon="11.880991430953145">
        <ele>1034.04</ele>
        <time>2016-06-03T09:37:47Z</time>
      </trkpt>
      <trkpt lat="43.799074441194534" lon="11.881079357117414">
        <ele>1034.04</ele>
        <time>2016-06-03T09:38:00Z</time>
      </trkpt>
      <trkpt lat="43.799177454784513" lon="11.881151776760817">
        <ele>1034.52</ele>
        <time>2016-06-03T09:38:11Z</time>
      </trkpt>
      <trkpt lat="43.799274601042271" lon="11.881247749552131">
        <ele>1034.04</ele>
        <time>2016-06-03T09:38:22Z</time>
      </trkpt>
      <trkpt lat="43.799391193315387" lon="11.881358725950122">
        <ele>1033.55</ele>
        <time>2016-06-03T09:38:33Z</time>
      </trkpt>
      <trkpt lat="43.799509713426232" lon="11.881463583558798">
        <ele>1033.0699999999999</ele>
        <time>2016-06-03T09:38:44Z</time>
      </trkpt>
      <trkpt lat="43.799571739509702" lon="11.88159903511405">
        <ele>1033.0699999999999</ele>
        <time>2016-06-03T09:38:54Z</time>
      </trkpt>
      <trkpt lat="43.79962538369" lon="11.8817691039294">
        <ele>1033.0699999999999</ele>
        <time>2016-06-03T09:39:07Z</time>
      </trkpt>
      <trkpt lat="43.799693360924721" lon="11.881843283772469">
        <ele>1032.5899999999999</ele>
        <time>2016-06-03T09:39:17Z</time>
      </trkpt>
      <trkpt lat="43.799726217985153" lon="11.881912099197507">
        <ele>1032.5899999999999</ele>
        <time>2016-06-03T09:39:28Z</time>
      </trkpt>
      <trkpt lat="43.799835769459605" lon="11.881889970973134">
        <ele>1032.1099999999999</ele>
        <time>2016-06-03T09:39:40Z</time>
      </trkpt>
      <trkpt lat="43.799942303448915" lon="11.882006730884314">
        <ele>1032.1099999999999</ele>
        <time>2016-06-03T09:39:51Z</time>
      </trkpt>
      <trkpt lat="43.800063002854586" lon="11.882067918777466">
        <ele>1030.6700000000001</ele>
        <time>2016-06-03T09:40:00Z</time>
      </trkpt>
      <trkpt lat="43.800047831609845" lon="11.882123155519366">
        <ele>1030.6700000000001</ele>
        <time>2016-06-03T09:40:04Z</time>
      </trkpt>
      <trkpt lat="43.799927635118365" lon="11.882255086675286">
        <ele>1030.1900000000001</ele>
        <time>2016-06-03T09:40:16Z</time>
      </trkpt>
      <trkpt lat="43.799830488860607" lon="11.882308647036552">
        <ele>1029.71</ele>
        <time>2016-06-03T09:40:29Z</time>
      </trkpt>
      <trkpt lat="43.799749603495002" lon="11.882407469674945">
        <ele>1029.23</ele>
        <time>2016-06-03T09:40:45Z</time>
      </trkpt>
      <trkpt lat="43.799569308757782" lon="11.882552225142717">
        <ele>1028.75</ele>
        <time>2016-06-03T09:40:57Z</time>
      </trkpt>
      <trkpt lat="43.799511808902025" lon="11.882580975070596">
        <ele>1028.27</ele>
        <time>2016-06-03T09:41:03Z</time>
      </trkpt>
      <trkpt lat="43.799384236335754" lon="11.882594469934702">
        <ele>1027.79</ele>
        <time>2016-06-03T09:41:14Z</time>
      </trkpt>
      <trkpt lat="43.799307122826576" lon="11.882579131051898">
        <ele>1027.79</ele>
        <time>2016-06-03T09:41:28Z</time>
      </trkpt>
      <trkpt lat="43.799322545528412" lon="11.882609724998474">
        <ele>1027.3099999999999</ele>
        <time>2016-06-03T09:41:45Z</time>
      </trkpt>
      <trkpt lat="43.799343667924404" lon="11.882594302296638">
        <ele>1028.27</ele>
        <time>2016-06-03T09:41:48Z</time>
      </trkpt>
      <trkpt lat="43.799505941569805" lon="11.882513416931033">
        <ele>1028.27</ele>
        <time>2016-06-03T09:41:58Z</time>
      </trkpt>
      <trkpt lat="43.799669137224555" lon="11.882400093600154">
        <ele>1029.23</ele>
        <time>2016-06-03T09:42:11Z</time>
      </trkpt>
      <trkpt lat="43.799733594059944" lon="11.882378971204162">
        <ele>1029.23</ele>
        <time>2016-06-03T09:42:18Z</time>
      </trkpt>
      <trkpt lat="43.799833171069622" lon="11.882286015897989">
        <ele>1029.71</ele>
        <time>2016-06-03T09:42:28Z</time>
      </trkpt>
      <trkpt lat="43.799927635118365" lon="11.882129106670618">
        <ele>1030.6700000000001</ele>
        <time>2016-06-03T09:42:42Z</time>
      </trkpt>
      <trkpt lat="43.800038527697325" lon="11.882006395608187">
        <ele>1031.1500000000001</ele>
        <time>2016-06-03T09:42:53Z</time>
      </trkpt>
      <trkpt lat="43.800158472731709" lon="11.882049227133393">
        <ele>1033.55</ele>
        <time>2016-06-03T09:43:08Z</time>
      </trkpt>
      <trkpt lat="43.800230976194143" lon="11.882047969847918">
        <ele>1037.8800000000001</ele>
        <time>2016-06-03T09:43:22Z</time>
      </trkpt>
      <trkpt lat="43.800317561253905" lon="11.882022153586149">
        <ele>1038.8399999999999</ele>
        <time>2016-06-03T09:43:36Z</time>
      </trkpt>
      <trkpt lat="43.800387885421515" lon="11.881989212706685">
        <ele>1041.73</ele>
        <time>2016-06-03T09:43:51Z</time>
      </trkpt>
      <trkpt lat="43.80048343911767" lon="11.88200312666595">
        <ele>1044.1300000000001</ele>
        <time>2016-06-03T09:44:04Z</time>
      </trkpt>
      <trkpt lat="43.800471955910325" lon="11.882051238790154">
        <ele>1044.6099999999999</ele>
        <time>2016-06-03T09:44:18Z</time>
      </trkpt>
      <trkpt lat="43.800435578450561" lon="11.88216338865459">
        <ele>1045.0899999999999</ele>
        <time>2016-06-03T09:44:29Z</time>
      </trkpt>
      <trkpt lat="43.800408840179443" lon="11.882323734462261">
        <ele>1046.05</ele>
        <time>2016-06-03T09:44:42Z</time>
      </trkpt>
      <trkpt lat="43.800368858501315" lon="11.882435716688633">
        <ele>1047.01</ele>
        <time>2016-06-03T09:44:53Z</time>
      </trkpt>
      <trkpt lat="43.800324015319347" lon="11.882584998384118">
        <ele>1047.97</ele>
        <time>2016-06-03T09:45:05Z</time>
      </trkpt>
      <trkpt lat="43.800286715850234" lon="11.882670829072595">
        <ele>1048.9400000000001</ele>
        <time>2016-06-03T09:45:13Z</time>
      </trkpt>
      <trkpt lat="43.800256289541721" lon="11.882823714986444">
        <ele>1050.8599999999999</ele>
        <time>2016-06-03T09:45:28Z</time>
      </trkpt>
      <trkpt lat="43.800348406657577" lon="11.882974924519658">
        <ele>1053.26</ele>
        <time>2016-06-03T09:45:44Z</time>
      </trkpt>
      <trkpt lat="43.800386879593134" lon="11.883082548156381">
        <ele>1055.6700000000001</ele>
        <time>2016-06-03T09:45:57Z</time>
      </trkpt>
      <trkpt lat="43.800454689189792" lon="11.883207773789763">
        <ele>1057.5899999999999</ele>
        <time>2016-06-03T09:46:10Z</time>
      </trkpt>
      <trkpt lat="43.800529958680272" lon="11.883299723267555">
        <ele>1058.55</ele>
        <time>2016-06-03T09:46:21Z</time>
      </trkpt>
      <trkpt lat="43.800644371658564" lon="11.883315229788423">
        <ele>1060.47</ele>
        <time>2016-06-03T09:46:34Z</time>
      </trkpt>
      <trkpt lat="43.800697093829513" lon="11.883382704108953">
        <ele>1062.3900000000001</ele>
        <time>2016-06-03T09:46:47Z</time>
      </trkpt>
      <trkpt lat="43.80069893784821" lon="11.883379351347685">
        <ele>1062.3900000000001</ele>
        <time>2016-06-03T09:46:48Z</time>
      </trkpt>
      <trkpt lat="43.80076490342617" lon="11.883479431271553">
        <ele>1063.8399999999999</ele>
        <time>2016-06-03T09:47:01Z</time>
      </trkpt>
      <trkpt lat="43.800856852903962" lon="11.883546989411116">
        <ele>1064.8</ele>
        <time>2016-06-03T09:47:09Z</time>
      </trkpt>
      <trkpt lat="43.800990879535675" lon="11.883663916960359">
        <ele>1065.28</ele>
        <time>2016-06-03T09:47:22Z</time>
      </trkpt>
      <trkpt lat="43.801102442666888" lon="11.883754106238484">
        <ele>1065.76</ele>
        <time>2016-06-03T09:47:30Z</time>
      </trkpt>
      <trkpt lat="43.801233703270555" lon="11.883802134543657">
        <ele>1067.2</ele>
        <time>2016-06-03T09:47:41Z</time>
      </trkpt>
      <trkpt lat="43.801305033266544" lon="11.883927779272199">
        <ele>1068.6400000000001</ele>
        <time>2016-06-03T09:47:53Z</time>
      </trkpt>
      <trkpt lat="43.801297824829817" lon="11.884107822552323">
        <ele>1069.1199999999999</ele>
        <time>2016-06-03T09:48:04Z</time>
      </trkpt>
      <trkpt lat="43.801326071843505" lon="11.884215110912919">
        <ele>1070.0799999999999</ele>
        <time>2016-06-03T09:48:13Z</time>
      </trkpt>
      <trkpt lat="43.801347948610783" lon="11.884307311847806">
        <ele>1071.53</ele>
        <time>2016-06-03T09:48:21Z</time>
      </trkpt>
      <trkpt lat="43.801353229209781" lon="11.8844233173877">
        <ele>1073.45</ele>
        <time>2016-06-03T09:48:33Z</time>
      </trkpt>
      <trkpt lat="43.801373345777392" lon="11.884560864418745">
        <ele>1075.8499999999999</ele>
        <time>2016-06-03T09:48:46Z</time>
      </trkpt>
      <trkpt lat="43.801401173695922" lon="11.884677791967988">
        <ele>1077.78</ele>
        <time>2016-06-03T09:48:58Z</time>
      </trkpt>
      <trkpt lat="43.80136052146554" lon="11.884827660396695">
        <ele>1077.29</ele>
        <time>2016-06-03T09:49:10Z</time>
      </trkpt>
      <trkpt lat="43.80133998580277" lon="11.884978367015719">
        <ele>1078.26</ele>
        <time>2016-06-03T09:49:22Z</time>
      </trkpt>
      <trkpt lat="43.801388684660196" lon="11.885160002857447">
        <ele>1080.1800000000001</ele>
        <time>2016-06-03T09:49:38Z</time>
      </trkpt>
      <trkpt lat="43.801423888653517" lon="11.885260920971632">
        <ele>1082.0999999999999</ele>
        <time>2016-06-03T09:49:49Z</time>
      </trkpt>
      <trkpt lat="43.801439395174384" lon="11.885361755266786">
        <ele>1084.02</ele>
        <time>2016-06-03T09:50:01Z</time>
      </trkpt>
      <trkpt lat="43.801492787897587" lon="11.885405424982309">
        <ele>1085.47</ele>
        <time>2016-06-03T09:50:12Z</time>
      </trkpt>
      <trkpt lat="43.801552299410105" lon="11.885419255122542">
        <ele>1087.8699999999999</ele>
        <time>2016-06-03T09:50:24Z</time>
      </trkpt>
      <trkpt lat="43.801599321886897" lon="11.885428056120872">
        <ele>1089.79</ele>
        <time>2016-06-03T09:50:35Z</time>
      </trkpt>
      <trkpt lat="43.801670232787728" lon="11.885494692251086">
        <ele>1091.71</ele>
        <time>2016-06-03T09:50:47Z</time>
      </trkpt>
      <trkpt lat="43.801742736250162" lon="11.885594855993986">
        <ele>1093.6400000000001</ele>
        <time>2016-06-03T09:51:00Z</time>
      </trkpt>
      <trkpt lat="43.801746340468526" lon="11.885668113827705">
        <ele>1094.5999999999999</ele>
        <time>2016-06-03T09:51:10Z</time>
      </trkpt>
      <trkpt lat="43.801831500604749" lon="11.885698037222028">
        <ele>1096.52</ele>
        <time>2016-06-03T09:51:21Z</time>
      </trkpt>
      <trkpt lat="43.801891095936298" lon="11.885783784091473">
        <ele>1097.96</ele>
        <time>2016-06-03T09:51:32Z</time>
      </trkpt>
      <trkpt lat="43.801971729844809" lon="11.885897777974606">
        <ele>1096.52</ele>
        <time>2016-06-03T09:51:45Z</time>
      </trkpt>
      <trkpt lat="43.802083460614085" lon="11.885966258123517">
        <ele>1097</ele>
        <time>2016-06-03T09:52:00Z</time>
      </trkpt>
      <trkpt lat="43.802168117836118" lon="11.886073295027018">
        <ele>1095.5599999999999</ele>
        <time>2016-06-03T09:52:11Z</time>
      </trkpt>
      <trkpt lat="43.802231652662158" lon="11.886172369122505">
        <ele>1096.04</ele>
        <time>2016-06-03T09:52:22Z</time>
      </trkpt>
      <trkpt lat="43.802288481965661" lon="11.886267755180597">
        <ele>1097.48</ele>
        <time>2016-06-03T09:52:33Z</time>
      </trkpt>
      <trkpt lat="43.802342126145959" lon="11.886341013014317">
        <ele>1097.96</ele>
        <time>2016-06-03T09:52:42Z</time>
      </trkpt>
      <trkpt lat="43.802402559667826" lon="11.886437069624662">
        <ele>1098.4400000000001</ele>
        <time>2016-06-03T09:52:53Z</time>
      </trkpt>
      <trkpt lat="43.802465088665485" lon="11.886537568643689">
        <ele>1099.4000000000001</ele>
        <time>2016-06-03T09:53:03Z</time>
      </trkpt>
      <trkpt lat="43.802528288215399" lon="11.886684084311128">
        <ele>1100.8499999999999</ele>
        <time>2016-06-03T09:53:16Z</time>
      </trkpt>
      <trkpt lat="43.802581764757633" lon="11.886786930263042">
        <ele>1102.29</ele>
        <time>2016-06-03T09:53:29Z</time>
      </trkpt>
      <trkpt lat="43.802626524120569" lon="11.886948114261031">
        <ele>1104.21</ele>
        <time>2016-06-03T09:53:42Z</time>
      </trkpt>
      <trkpt lat="43.802645383402705" lon="11.887062611058354">
        <ele>1106.1300000000001</ele>
        <time>2016-06-03T09:53:54Z</time>
      </trkpt>
      <trkpt lat="43.802697854116559" lon="11.887153051793575">
        <ele>1107.5799999999999</ele>
        <time>2016-06-03T09:54:06Z</time>
      </trkpt>
      <trkpt lat="43.80279659293592" lon="11.887208204716444">
        <ele>1106.6099999999999</ele>
        <time>2016-06-03T09:54:16Z</time>
      </trkpt>
      <trkpt lat="43.8028200622648" lon="11.887219939380884">
        <ele>1106.6099999999999</ele>
        <time>2016-06-03T09:54:18Z</time>
      </trkpt>
      <trkpt lat="43.80292659625411" lon="11.887278193607926">
        <ele>1105.6500000000001</ele>
        <time>2016-06-03T09:54:29Z</time>
      </trkpt>
      <trkpt lat="43.803030280396342" lon="11.887337956577539">
        <ele>1106.1300000000001</ele>
        <time>2016-06-03T09:54:39Z</time>
      </trkpt>
      <trkpt lat="43.803134802728891" lon="11.887401910498738">
        <ele>1105.6500000000001</ele>
        <time>2016-06-03T09:54:51Z</time>
      </trkpt>
      <trkpt lat="43.803233373910189" lon="11.887455387040973">
        <ele>1106.6099999999999</ele>
        <time>2016-06-03T09:55:01Z</time>
      </trkpt>
      <trkpt lat="43.803390534594655" lon="11.887535182759166">
        <ele>1107.5799999999999</ele>
        <time>2016-06-03T09:55:14Z</time>
      </trkpt>
      <trkpt lat="43.803498996421695" lon="11.887599974870682">
        <ele>1108.0599999999999</ele>
        <time>2016-06-03T09:55:25Z</time>
      </trkpt>
      <trkpt lat="43.803609553724527" lon="11.887596370652318">
        <ele>1109.02</ele>
        <time>2016-06-03T09:55:38Z</time>
      </trkpt>
      <trkpt lat="43.80373670719564" lon="11.887491345405579">
        <ele>1108.0599999999999</ele>
        <time>2016-06-03T09:55:51Z</time>
      </trkpt>
      <trkpt lat="43.803791021928191" lon="11.887513725087047">
        <ele>1107.0999999999999</ele>
        <time>2016-06-03T09:55:55Z</time>
      </trkpt>
      <trkpt lat="43.803911888971925" lon="11.887581869959831">
        <ele>1107.0999999999999</ele>
        <time>2016-06-03T09:56:06Z</time>
      </trkpt>
      <trkpt lat="43.804009454324841" lon="11.887631909921765">
        <ele>1107.0999999999999</ele>
        <time>2016-06-03T09:56:17Z</time>
      </trkpt>
      <trkpt lat="43.804113641381264" lon="11.887618582695723">
        <ele>1107.0999999999999</ele>
        <time>2016-06-03T09:56:26Z</time>
      </trkpt>
      <trkpt lat="43.804253116250038" lon="11.887599807232618">
        <ele>1108.54</ele>
        <time>2016-06-03T09:56:39Z</time>
      </trkpt>
      <trkpt lat="43.804390244185925" lon="11.887602573260665">
        <ele>1108.54</ele>
        <time>2016-06-03T09:56:52Z</time>
      </trkpt>
      <trkpt lat="43.804466435685754" lon="11.887750430032611">
        <ele>1108.54</ele>
        <time>2016-06-03T09:57:02Z</time>
      </trkpt>
      <trkpt lat="43.804428884759545" lon="11.887877164408565">
        <ele>1109.02</ele>
        <time>2016-06-03T09:57:09Z</time>
      </trkpt>
      <trkpt lat="43.804395357146859" lon="11.888008844107389">
        <ele>1110.46</ele>
        <time>2016-06-03T09:57:20Z</time>
      </trkpt>
      <trkpt lat="43.804387645795941" lon="11.888138260692358">
        <ele>1112.8599999999999</ele>
        <time>2016-06-03T09:57:32Z</time>
      </trkpt>
      <trkpt lat="43.804425531998277" lon="11.888198107481003">
        <ele>1115.27</ele>
        <time>2016-06-03T09:57:45Z</time>
      </trkpt>
      <trkpt lat="43.804432153701782" lon="11.888264156877995">
        <ele>1116.71</ele>
        <time>2016-06-03T09:57:55Z</time>
      </trkpt>
      <trkpt lat="43.804457299411297" lon="11.888388125225902">
        <ele>1118.6300000000001</ele>
        <time>2016-06-03T09:58:06Z</time>
      </trkpt>
      <trkpt lat="43.804550841450691" lon="11.888459790498018">
        <ele>1119.5899999999999</ele>
        <time>2016-06-03T09:58:18Z</time>
      </trkpt>
      <trkpt lat="43.804654944688082" lon="11.888498598709702">
        <ele>1119.5899999999999</ele>
        <time>2016-06-03T09:58:27Z</time>
      </trkpt>
      <trkpt lat="43.804753012955189" lon="11.888525085523725">
        <ele>1120.55</ele>
        <time>2016-06-03T09:58:38Z</time>
      </trkpt>
      <trkpt lat="43.804836748167872" lon="11.888501197099686">
        <ele>1122</ele>
        <time>2016-06-03T09:58:48Z</time>
      </trkpt>
      <trkpt lat="43.804920818656683" lon="11.888469345867634">
        <ele>1122.48</ele>
        <time>2016-06-03T09:58:59Z</time>
      </trkpt>
      <trkpt lat="43.805053839460015" lon="11.888388460502028">
        <ele>1120.55</ele>
        <time>2016-06-03T09:59:13Z</time>
      </trkpt>
      <trkpt lat="43.805132294073701" lon="11.888295505195856">
        <ele>1119.5899999999999</ele>
        <time>2016-06-03T09:59:24Z</time>
      </trkpt>
      <trkpt lat="43.805142771452665" lon="11.88828787766397">
        <ele>1119.1099999999999</ele>
        <time>2016-06-03T09:59:25Z</time>
      </trkpt>
      <trkpt lat="43.805308816954494" lon="11.88825024291873">
        <ele>1117.1900000000001</ele>
        <time>2016-06-03T09:59:39Z</time>
      </trkpt>
      <trkpt lat="43.805428091436625" lon="11.888281926512718">
        <ele>1115.27</ele>
        <time>2016-06-03T09:59:50Z</time>
      </trkpt>
      <trkpt lat="43.805432450026274" lon="11.888456186279655">
        <ele>1115.75</ele>
        <time>2016-06-03T10:00:01Z</time>
      </trkpt>
      <trkpt lat="43.805415350943804" lon="11.888508321717381">
        <ele>1116.23</ele>
        <time>2016-06-03T10:00:06Z</time>
      </trkpt>
      <trkpt lat="43.8053482118994" lon="11.888741087168455">
        <ele>1115.27</ele>
        <time>2016-06-03T10:00:16Z</time>
      </trkpt>
      <trkpt lat="43.805328933522105" lon="11.888850135728717">
        <ele>1115.27</ele>
        <time>2016-06-03T10:00:25Z</time>
      </trkpt>
      <trkpt lat="43.805313091725111" lon="11.88900763168931">
        <ele>1116.23</ele>
        <time>2016-06-03T10:00:37Z</time>
      </trkpt>
      <trkpt lat="43.805296998471022" lon="11.889129756018519">
        <ele>1117.1900000000001</ele>
        <time>2016-06-03T10:00:49Z</time>
      </trkpt>
      <trkpt lat="43.805286772549152" lon="11.889271326363087">
        <ele>1118.6300000000001</ele>
        <time>2016-06-03T10:01:00Z</time>
      </trkpt>
      <trkpt lat="43.805247461423278" lon="11.889482717961073">
        <ele>1119.5899999999999</ele>
        <time>2016-06-03T10:01:13Z</time>
      </trkpt>
      <trkpt lat="43.805285012349486" lon="11.889636274427176">
        <ele>1121.52</ele>
        <time>2016-06-03T10:01:25Z</time>
      </trkpt>
      <trkpt lat="43.805272607132792" lon="11.889753369614482">
        <ele>1121.52</ele>
        <time>2016-06-03T10:01:34Z</time>
      </trkpt>
      <trkpt lat="43.805260872468352" lon="11.889930898323655">
        <ele>1121.52</ele>
        <time>2016-06-03T10:01:47Z</time>
      </trkpt>
      <trkpt lat="43.805278893560171" lon="11.889969119802117">
        <ele>1123.4400000000001</ele>
        <time>2016-06-03T10:01:52Z</time>
      </trkpt>
      <trkpt lat="43.805343098938465" lon="11.890070205554366">
        <ele>1124.4000000000001</ele>
        <time>2016-06-03T10:02:01Z</time>
      </trkpt>
      <trkpt lat="43.805441586300731" lon="11.890184869989753">
        <ele>1124.8800000000001</ele>
        <time>2016-06-03T10:02:13Z</time>
      </trkpt>
      <trkpt lat="43.805448962375522" lon="11.890193922445178">
        <ele>1124.8800000000001</ele>
        <time>2016-06-03T10:02:14Z</time>
      </trkpt>
      <trkpt lat="43.805507132783532" lon="11.890308586880565">
        <ele>1123.4400000000001</ele>
        <time>2016-06-03T10:02:25Z</time>
      </trkpt>
      <trkpt lat="43.805554825812578" lon="11.890429370105267">
        <ele>1122.48</ele>
        <time>2016-06-03T10:02:36Z</time>
      </trkpt>
      <trkpt lat="43.805666975677013" lon="11.890506567433476">
        <ele>1122.48</ele>
        <time>2016-06-03T10:02:47Z</time>
      </trkpt>
      <trkpt lat="43.805794715881348" lon="11.890541100874543">
        <ele>1122</ele>
        <time>2016-06-03T10:02:59Z</time>
      </trkpt>
      <trkpt lat="43.805846851319075" lon="11.890659956261516">
        <ele>1119.5899999999999</ele>
        <time>2016-06-03T10:03:11Z</time>
      </trkpt>
      <trkpt lat="43.805873086676002" lon="11.890778308734298">
        <ele>1119.5899999999999</ele>
        <time>2016-06-03T10:03:24Z</time>
      </trkpt>
      <trkpt lat="43.805892448872328" lon="11.890822984278202">
        <ele>1120.0699999999999</ele>
        <time>2016-06-03T10:03:37Z</time>
      </trkpt>
      <trkpt lat="43.805932262912393" lon="11.890929434448481">
        <ele>1122</ele>
        <time>2016-06-03T10:03:50Z</time>
      </trkpt>
      <trkpt lat="43.805997222661972" lon="11.89102272503078">
        <ele>1124.4000000000001</ele>
        <time>2016-06-03T10:04:02Z</time>
      </trkpt>
      <trkpt lat="43.806112892925739" lon="11.89111215993762">
        <ele>1127.28</ele>
        <time>2016-06-03T10:04:14Z</time>
      </trkpt>
      <trkpt lat="43.80613636225462" lon="11.891276948153973">
        <ele>1129.21</ele>
        <time>2016-06-03T10:04:27Z</time>
      </trkpt>
      <trkpt lat="43.806201657280326" lon="11.891347272321582">
        <ele>1131.1300000000001</ele>
        <time>2016-06-03T10:04:39Z</time>
      </trkpt>
      <trkpt lat="43.806254547089338" lon="11.89141902141273">
        <ele>1134.01</ele>
        <time>2016-06-03T10:04:53Z</time>
      </trkpt>
      <trkpt lat="43.806320847943425" lon="11.891446681693196">
        <ele>1136.4200000000001</ele>
        <time>2016-06-03T10:05:06Z</time>
      </trkpt>
      <trkpt lat="43.806370552629232" lon="11.891419440507889">
        <ele>1139.3</ele>
        <time>2016-06-03T10:05:20Z</time>
      </trkpt>
      <trkpt lat="43.806404918432236" lon="11.891426481306553">
        <ele>1142.1800000000001</ele>
        <time>2016-06-03T10:05:29Z</time>
      </trkpt>
      <trkpt lat="43.806452695280313" lon="11.89141072332859">
        <ele>1142.6600000000001</ele>
        <time>2016-06-03T10:05:40Z</time>
      </trkpt>
      <trkpt lat="43.806517319753766" lon="11.891448441892862">
        <ele>1143.6300000000001</ele>
        <time>2016-06-03T10:05:51Z</time>
      </trkpt>
      <trkpt lat="43.806569119915366" lon="11.891457578167319">
        <ele>1144.1099999999999</ele>
        <time>2016-06-03T10:06:00Z</time>
      </trkpt>
      <trkpt lat="43.806638438254595" lon="11.891419524326921">
        <ele>1145.55</ele>
        <time>2016-06-03T10:06:08Z</time>
      </trkpt>
      <trkpt lat="43.806746229529381" lon="11.891389852389693">
        <ele>1146.99</ele>
        <time>2016-06-03T10:06:19Z</time>
      </trkpt>
      <trkpt lat="43.806833904236555" lon="11.891403431072831">
        <ele>1148.4300000000001</ele>
        <time>2016-06-03T10:06:30Z</time>
      </trkpt>
      <trkpt lat="43.806933984160423" lon="11.891408963128924">
        <ele>1150.3499999999999</ele>
        <time>2016-06-03T10:06:40Z</time>
      </trkpt>
      <trkpt lat="43.807017551735044" lon="11.891450621187687">
        <ele>1152.76</ele>
        <time>2016-06-03T10:06:53Z</time>
      </trkpt>
      <trkpt lat="43.807089300826192" lon="11.891456907615066">
        <ele>1153.72</ele>
        <time>2016-06-03T10:07:04Z</time>
      </trkpt>
      <trkpt lat="43.80716398358345" lon="11.891524717211723">
        <ele>1155.6400000000001</ele>
        <time>2016-06-03T10:07:14Z</time>
      </trkpt>
      <trkpt lat="43.807245455682278" lon="11.891567716374993">
        <ele>1157.5599999999999</ele>
        <time>2016-06-03T10:07:24Z</time>
      </trkpt>
      <trkpt lat="43.807300860062242" lon="11.891623623669147">
        <ele>1159.49</ele>
        <time>2016-06-03T10:07:35Z</time>
      </trkpt>
      <trkpt lat="43.807342182844877" lon="11.89165941439569">
        <ele>1160.45</ele>
        <time>2016-06-03T10:07:48Z</time>
      </trkpt>
      <trkpt lat="43.807441424578428" lon="11.891642063856125">
        <ele>1160.9300000000001</ele>
        <time>2016-06-03T10:08:02Z</time>
      </trkpt>
      <trkpt lat="43.807409489527345" lon="11.891659162938595">
        <ele>1160.9300000000001</ele>
        <time>2016-06-03T10:08:20Z</time>
      </trkpt>
      <trkpt lat="43.807381661608815" lon="11.891675507649779">
        <ele>1161.4100000000001</ele>
        <time>2016-06-03T10:08:35Z</time>
      </trkpt>
      <trkpt lat="43.807428684085608" lon="11.891743903979659">
        <ele>1163.3299999999999</ele>
        <time>2016-06-03T10:08:51Z</time>
      </trkpt>
      <trkpt lat="43.807477718219161" lon="11.891813222318888">
        <ele>1165.26</ele>
        <time>2016-06-03T10:09:02Z</time>
      </trkpt>
      <trkpt lat="43.807528596371412" lon="11.891873152926564">
        <ele>1166.7</ele>
        <time>2016-06-03T10:09:12Z</time>
      </trkpt>
      <trkpt lat="43.807549551129341" lon="11.89192864112556">
        <ele>1167.6600000000001</ele>
        <time>2016-06-03T10:09:20Z</time>
      </trkpt>
      <trkpt lat="43.807627586647868" lon="11.891966694965959">
        <ele>1169.0999999999999</ele>
        <time>2016-06-03T10:09:29Z</time>
      </trkpt>
      <trkpt lat="43.80767310038209" lon="11.892019165679812">
        <ele>1170.54</ele>
        <time>2016-06-03T10:09:39Z</time>
      </trkpt>
      <trkpt lat="43.807725319638848" lon="11.892100218683481">
        <ele>1172.47</ele>
        <time>2016-06-03T10:09:49Z</time>
      </trkpt>
      <trkpt lat="43.807785585522652" lon="11.892118407413363">
        <ele>1174.8699999999999</ele>
        <time>2016-06-03T10:10:01Z</time>
      </trkpt>
      <trkpt lat="43.807818191125989" lon="11.892192838713527">
        <ele>1176.79</ele>
        <time>2016-06-03T10:10:12Z</time>
      </trkpt>
      <trkpt lat="43.807858005166054" lon="11.892204405739903">
        <ele>1178.71</ele>
        <time>2016-06-03T10:10:23Z</time>
      </trkpt>
      <trkpt lat="43.80794039927423" lon="11.892233993858099">
        <ele>1181.5999999999999</ele>
        <time>2016-06-03T10:10:36Z</time>
      </trkpt>
      <trkpt lat="43.808023883029819" lon="11.892294008284807">
        <ele>1184</ele>
        <time>2016-06-03T10:10:50Z</time>
      </trkpt>
      <trkpt lat="43.808076437562704" lon="11.892282189801335">
        <ele>1185.9200000000001</ele>
        <time>2016-06-03T10:11:02Z</time>
      </trkpt>
      <trkpt lat="43.808141062036157" lon="11.892247991636395">
        <ele>1187.8499999999999</ele>
        <time>2016-06-03T10:11:14Z</time>
      </trkpt>
      <trkpt lat="43.808220187202096" lon="11.892210273072124">
        <ele>1189.77</ele>
        <time>2016-06-03T10:11:25Z</time>
      </trkpt>
      <trkpt lat="43.808336025103927" lon="11.892270958051085">
        <ele>1191.6900000000001</ele>
        <time>2016-06-03T10:11:37Z</time>
      </trkpt>
      <trkpt lat="43.808411462232471" lon="11.892361147329211">
        <ele>1194.0899999999999</ele>
        <time>2016-06-03T10:11:50Z</time>
      </trkpt>
      <trkpt lat="43.808460244908929" lon="11.892394926398993">
        <ele>1196.5</ele>
        <time>2016-06-03T10:12:02Z</time>
      </trkpt>
      <trkpt lat="43.80851648747921" lon="11.892444798722863">
        <ele>1198.4200000000001</ele>
        <time>2016-06-03T10:12:13Z</time>
      </trkpt>
      <trkpt lat="43.808644311502576" lon="11.89249156974256">
        <ele>1199.3800000000001</ele>
        <time>2016-06-03T10:12:26Z</time>
      </trkpt>
      <trkpt lat="43.808716144412756" lon="11.892493078485131">
        <ele>1199.8599999999999</ele>
        <time>2016-06-03T10:12:37Z</time>
      </trkpt>
      <trkpt lat="43.808809602633119" lon="11.8924774043262">
        <ele>1201.79</ele>
        <time>2016-06-03T10:12:49Z</time>
      </trkpt>
      <trkpt lat="43.808876909315586" lon="11.892448654398322">
        <ele>1203.23</ele>
        <time>2016-06-03T10:13:01Z</time>
      </trkpt>
      <trkpt lat="43.808904066681862" lon="11.892418144270778">
        <ele>1203.71</ele>
        <time>2016-06-03T10:13:16Z</time>
      </trkpt>
      <trkpt lat="43.808842543512583" lon="11.892475225031376">
        <ele>1204.1900000000001</ele>
        <time>2016-06-03T10:13:32Z</time>
      </trkpt>
      <trkpt lat="43.808862827718258" lon="11.892486121505499">
        <ele>1203.23</ele>
        <time>2016-06-03T10:13:51Z</time>
      </trkpt>
      <trkpt lat="43.80884874612093" lon="11.892606988549232">
        <ele>1203.23</ele>
        <time>2016-06-03T10:14:00Z</time>
      </trkpt>
      <trkpt lat="43.80881697870791" lon="11.892734142020345">
        <ele>1204.6700000000001</ele>
        <time>2016-06-03T10:14:12Z</time>
      </trkpt>
      <trkpt lat="43.808682784438133" lon="11.892853751778603">
        <ele>1206.5899999999999</ele>
        <time>2016-06-03T10:14:25Z</time>
      </trkpt>
      <trkpt lat="43.808612124994397" lon="11.892938995733857">
        <ele>1208.03</ele>
        <time>2016-06-03T10:14:37Z</time>
      </trkpt>
      <trkpt lat="43.808569461107254" lon="11.893024323508143">
        <ele>1207.0699999999999</ele>
        <time>2016-06-03T10:14:44Z</time>
      </trkpt>
      <trkpt lat="43.808558480814099" lon="11.893117697909474">
        <ele>1208.51</ele>
        <time>2016-06-03T10:14:55Z</time>
      </trkpt>
      <trkpt lat="43.808524450287223" lon="11.893255077302456">
        <ele>1209.96</ele>
        <time>2016-06-03T10:15:08Z</time>
      </trkpt>
      <trkpt lat="43.808524534106255" lon="11.893355073407292">
        <ele>1210.9200000000001</ele>
        <time>2016-06-03T10:15:16Z</time>
      </trkpt>
      <trkpt lat="43.808547919616103" lon="11.89347761683166">
        <ele>1210.9200000000001</ele>
        <time>2016-06-03T10:15:24Z</time>
      </trkpt>
      <trkpt lat="43.808534424751997" lon="11.893632262945175">
        <ele>1211.4000000000001</ele>
        <time>2016-06-03T10:15:35Z</time>
      </trkpt>
      <trkpt lat="43.80852478556335" lon="11.893770648166537">
        <ele>1211.8800000000001</ele>
        <time>2016-06-03T10:15:44Z</time>
      </trkpt>
      <trkpt lat="43.808529982343316" lon="11.893910123035312">
        <ele>1213.3199999999999</ele>
        <time>2016-06-03T10:15:55Z</time>
      </trkpt>
      <trkpt lat="43.808488408103585" lon="11.894001569598913">
        <ele>1213.3199999999999</ele>
        <time>2016-06-03T10:16:13Z</time>
      </trkpt>
      <trkpt lat="43.808448677882552" lon="11.89408790320158">
        <ele>1213.3199999999999</ele>
        <time>2016-06-03T10:16:35Z</time>
      </trkpt>
      <trkpt lat="43.808443481102586" lon="11.894138948991895">
        <ele>1213.8</ele>
        <time>2016-06-03T10:16:57Z</time>
      </trkpt>
      <trkpt lat="43.808444822207093" lon="11.894179014489055">
        <ele>1214.28</ele>
        <time>2016-06-03T10:17:02Z</time>
      </trkpt>
      <trkpt lat="43.80837818607688" lon="11.894283955916762">
        <ele>1215.72</ele>
        <time>2016-06-03T10:17:14Z</time>
      </trkpt>
      <trkpt lat="43.808256899937987" lon="11.894385628402233">
        <ele>1216.6900000000001</ele>
        <time>2016-06-03T10:17:27Z</time>
      </trkpt>
      <trkpt lat="43.808193365111947" lon="11.894406834617257">
        <ele>1217.6500000000001</ele>
        <time>2016-06-03T10:17:39Z</time>
      </trkpt>
      <trkpt lat="43.80809236317873" lon="11.894412282854319">
        <ele>1218.6099999999999</ele>
        <time>2016-06-03T10:17:49Z</time>
      </trkpt>
      <trkpt lat="43.807993456721306" lon="11.89439962618053">
        <ele>1220.53</ele>
        <time>2016-06-03T10:18:01Z</time>
      </trkpt>
      <trkpt lat="43.807862112298608" lon="11.894432064145803">
        <ele>1222.45</ele>
        <time>2016-06-03T10:18:13Z</time>
      </trkpt>
      <trkpt lat="43.807781981304288" lon="11.894501717761159">
        <ele>1224.3800000000001</ele>
        <time>2016-06-03T10:18:24Z</time>
      </trkpt>
      <trkpt lat="43.807696318253875" lon="11.894634068012238">
        <ele>1226.3</ele>
        <time>2016-06-03T10:18:37Z</time>
      </trkpt>
      <trkpt lat="43.807697994634509" lon="11.89478418789804">
        <ele>1227.74</ele>
        <time>2016-06-03T10:18:50Z</time>
      </trkpt>
      <trkpt lat="43.807723391801119" lon="11.894869180396199">
        <ele>1230.1400000000001</ele>
        <time>2016-06-03T10:19:02Z</time>
      </trkpt>
      <trkpt lat="43.80776597186923" lon="11.89493422396481">
        <ele>1231.5899999999999</ele>
        <time>2016-06-03T10:19:13Z</time>
      </trkpt>
      <trkpt lat="43.807890610769391" lon="11.895046876743436">
        <ele>1231.1099999999999</ele>
        <time>2016-06-03T10:19:25Z</time>
      </trkpt>
      <trkpt lat="43.807962527498603" lon="11.895181238651276">
        <ele>1231.1099999999999</ele>
        <time>2016-06-03T10:19:37Z</time>
      </trkpt>
      <trkpt lat="43.808005107566714" lon="11.895301602780819">
        <ele>1231.5899999999999</ele>
        <time>2016-06-03T10:19:45Z</time>
      </trkpt>
      <trkpt lat="43.808037377893925" lon="11.895444933325052">
        <ele>1228.7</ele>
        <time>2016-06-03T10:19:57Z</time>
      </trkpt>
      <trkpt lat="43.808046681806445" lon="11.89556110650301">
        <ele>1226.3</ele>
        <time>2016-06-03T10:20:05Z</time>
      </trkpt>
      <trkpt lat="43.808067468926311" lon="11.895642494782805">
        <ele>1225.3399999999999</ele>
        <time>2016-06-03T10:20:10Z</time>
      </trkpt>
      <trkpt lat="43.808087250217795" lon="11.89575313590467">
        <ele>1224.3800000000001</ele>
        <time>2016-06-03T10:20:17Z</time>
      </trkpt>
      <trkpt lat="43.808106696233153" lon="11.895930077880621">
        <ele>1222.45</ele>
        <time>2016-06-03T10:20:29Z</time>
      </trkpt>
      <trkpt lat="43.80815883167088" lon="11.896076593548059">
        <ele>1219.5699999999999</ele>
        <time>2016-06-03T10:20:40Z</time>
      </trkpt>
      <trkpt lat="43.808166040107608" lon="11.896246913820505">
        <ele>1216.6900000000001</ele>
        <time>2016-06-03T10:20:53Z</time>
      </trkpt>
      <trkpt lat="43.808173332363367" lon="11.896267784759402">
        <ele>1216.21</ele>
        <time>2016-06-03T10:20:55Z</time>
      </trkpt>
      <trkpt lat="43.808216750621796" lon="11.896387729793787">
        <ele>1214.76</ele>
        <time>2016-06-03T10:21:05Z</time>
      </trkpt>
      <trkpt lat="43.808204345405102" lon="11.896533658728004">
        <ele>1212.3599999999999</ele>
        <time>2016-06-03T10:21:15Z</time>
      </trkpt>
      <trkpt lat="43.808204345405102" lon="11.896548662334681">
        <ele>1212.3599999999999</ele>
        <time>2016-06-03T10:21:16Z</time>
      </trkpt>
      <trkpt lat="43.808191521093249" lon="11.896698530763388">
        <ele>1211.4000000000001</ele>
        <time>2016-06-03T10:21:26Z</time>
      </trkpt>
      <trkpt lat="43.808188838884234" lon="11.896847812458873">
        <ele>1210.9200000000001</ele>
        <time>2016-06-03T10:21:35Z</time>
      </trkpt>
      <trkpt lat="43.808182887732983" lon="11.89703531563282">
        <ele>1210.9200000000001</ele>
        <time>2016-06-03T10:21:45Z</time>
      </trkpt>
      <trkpt lat="43.808135529980063" lon="11.897189961746335">
        <ele>1209.48</ele>
        <time>2016-06-03T10:21:56Z</time>
      </trkpt>
      <trkpt lat="43.808081299066544" lon="11.897274367511272">
        <ele>1209.48</ele>
        <time>2016-06-03T10:22:04Z</time>
      </trkpt>
      <trkpt lat="43.807990355417132" lon="11.897357683628798">
        <ele>1209</ele>
        <time>2016-06-03T10:22:14Z</time>
      </trkpt>
      <trkpt lat="43.807915505021811" lon="11.897519705817103">
        <ele>1207.55</ele>
        <time>2016-06-03T10:22:27Z</time>
      </trkpt>
      <trkpt lat="43.807915588840842" lon="11.897538229823112">
        <ele>1207.55</ele>
        <time>2016-06-03T10:22:28Z</time>
      </trkpt>
      <trkpt lat="43.807921288534999" lon="11.897630430757999">
        <ele>1205.6300000000001</ele>
        <time>2016-06-03T10:22:34Z</time>
      </trkpt>
      <trkpt lat="43.808005861938" lon="11.897808881476521">
        <ele>1204.1900000000001</ele>
        <time>2016-06-03T10:22:49Z</time>
      </trkpt>
      <trkpt lat="43.808090519160032" lon="11.897921115159988">
        <ele>1203.71</ele>
        <time>2016-06-03T10:23:01Z</time>
      </trkpt>
      <trkpt lat="43.808146342635155" lon="11.897952798753977">
        <ele>1203.23</ele>
        <time>2016-06-03T10:23:06Z</time>
      </trkpt>
      <trkpt lat="43.808266706764698" lon="11.898016836494207">
        <ele>1200.8199999999999</ele>
        <time>2016-06-03T10:23:19Z</time>
      </trkpt>
      <trkpt lat="43.808422777801752" lon="11.898050867021084">
        <ele>1197.9400000000001</ele>
        <time>2016-06-03T10:23:31Z</time>
      </trkpt>
      <trkpt lat="43.808480193838477" lon="11.898140888661146">
        <ele>1195.54</ele>
        <time>2016-06-03T10:23:41Z</time>
      </trkpt>
      <trkpt lat="43.808575831353664" lon="11.898274915292859">
        <ele>1193.1300000000001</ele>
        <time>2016-06-03T10:23:52Z</time>
      </trkpt>
      <trkpt lat="43.808638947084546" lon="11.898360997438431">
        <ele>1191.21</ele>
        <time>2016-06-03T10:24:01Z</time>
      </trkpt>
      <trkpt lat="43.808672139421105" lon="11.898376671597362">
        <ele>1191.21</ele>
        <time>2016-06-03T10:24:04Z</time>
      </trkpt>
      <trkpt lat="43.808716647326946" lon="11.898473734036088">
        <ele>1189.77</ele>
        <time>2016-06-03T10:24:11Z</time>
      </trkpt>
      <trkpt lat="43.808846566826105" lon="11.898660399019718">
        <ele>1188.3299999999999</ele>
        <time>2016-06-03T10:24:23Z</time>
      </trkpt>
      <trkpt lat="43.808883363381028" lon="11.898735417053103">
        <ele>1188.3299999999999</ele>
        <time>2016-06-03T10:24:28Z</time>
      </trkpt>
      <trkpt lat="43.808920243754983" lon="11.898810770362616">
        <ele>1187.8499999999999</ele>
        <time>2016-06-03T10:24:33Z</time>
      </trkpt>
      <trkpt lat="43.808987466618419" lon="11.89901378005743">
        <ele>1185.9200000000001</ele>
        <time>2016-06-03T10:24:46Z</time>
      </trkpt>
      <trkpt lat="43.80900464951992" lon="11.899076057597995">
        <ele>1185.9200000000001</ele>
        <time>2016-06-03T10:24:50Z</time>
      </trkpt>
      <trkpt lat="43.809055360034108" lon="11.899195834994316">
        <ele>1185.4400000000001</ele>
        <time>2016-06-03T10:24:57Z</time>
      </trkpt>
      <trkpt lat="43.809114452451468" lon="11.899390127509832">
        <ele>1184</ele>
        <time>2016-06-03T10:25:09Z</time>
      </trkpt>
      <trkpt lat="43.809110093861818" lon="11.899569164961576">
        <ele>1181.1199999999999</ele>
        <time>2016-06-03T10:25:22Z</time>
      </trkpt>
      <trkpt lat="43.809141861274838" lon="11.899726912379265">
        <ele>1177.75</ele>
        <time>2016-06-03T10:25:34Z</time>
      </trkpt>
      <trkpt lat="43.809182262048125" lon="11.899859011173248">
        <ele>1176.79</ele>
        <time>2016-06-03T10:25:43Z</time>
      </trkpt>
      <trkpt lat="43.809182848781347" lon="11.900034192949533">
        <ele>1174.3900000000001</ele>
        <time>2016-06-03T10:25:55Z</time>
      </trkpt>
      <trkpt lat="43.809154685586691" lon="11.900050453841686">
        <ele>1174.8699999999999</ele>
        <time>2016-06-03T10:26:13Z</time>
      </trkpt>
      <trkpt lat="43.809079751372337" lon="11.900093117728829">
        <ele>1174.3900000000001</ele>
        <time>2016-06-03T10:26:37Z</time>
      </trkpt>
      <trkpt lat="43.809081260114908" lon="11.900172242894769">
        <ele>1174.3900000000001</ele>
        <time>2016-06-03T10:27:05Z</time>
      </trkpt>
      <trkpt lat="43.809134988114238" lon="11.90018892288208">
        <ele>1174.3900000000001</ele>
        <time>2016-06-03T10:27:22Z</time>
      </trkpt>
      <trkpt lat="43.80918737500906" lon="11.900091608986259">
        <ele>1173.9100000000001</ele>
        <time>2016-06-03T10:27:42Z</time>
      </trkpt>
      <trkpt lat="43.809208162128925" lon="11.900085154920816">
        <ele>1173.9100000000001</ele>
        <time>2016-06-03T10:28:02Z</time>
      </trkpt>
      <trkpt lat="43.809165246784687" lon="11.900092447176576">
        <ele>1173.4300000000001</ele>
        <time>2016-06-03T10:28:14Z</time>
      </trkpt>
      <trkpt lat="43.809141023084521" lon="11.900069564580917">
        <ele>1172.95</ele>
        <time>2016-06-03T10:28:29Z</time>
      </trkpt>
      <trkpt lat="43.809172958135605" lon="11.900004521012306">
        <ele>1172.95</ele>
        <time>2016-06-03T10:28:53Z</time>
      </trkpt>
      <trkpt lat="43.80920791067183" lon="11.900047855451703">
        <ele>1172.95</ele>
        <time>2016-06-03T10:29:19Z</time>
      </trkpt>
      <trkpt lat="43.809271194040775" lon="11.899984572082758">
        <ele>1173.4300000000001</ele>
        <time>2016-06-03T10:29:45Z</time>
      </trkpt>
      <trkpt lat="43.809281252324581" lon="11.899991109967232">
        <ele>1173.9100000000001</ele>
        <time>2016-06-03T10:30:11Z</time>
      </trkpt>
      <trkpt lat="43.809186201542616" lon="11.900050202384591">
        <ele>1174.3900000000001</ele>
        <time>2016-06-03T10:30:24Z</time>
      </trkpt>
      <trkpt lat="43.80911554209888" lon="11.9001205265522">
        <ele>1174.8699999999999</ele>
        <time>2016-06-03T10:30:40Z</time>
      </trkpt>
      <trkpt lat="43.809086456894875" lon="11.900160759687424">
        <ele>1174.8699999999999</ele>
        <time>2016-06-03T10:30:56Z</time>
      </trkpt>
      <trkpt lat="43.80913364700973" lon="11.900117676705122">
        <ele>1174.8699999999999</ele>
        <time>2016-06-03T10:31:10Z</time>
      </trkpt>
      <trkpt lat="43.809176646173" lon="11.900225970894098">
        <ele>1174.8699999999999</ele>
        <time>2016-06-03T10:31:26Z</time>
      </trkpt>
      <trkpt lat="43.809177065268159" lon="11.900299061089754">
        <ele>1174.3900000000001</ele>
        <time>2016-06-03T10:31:31Z</time>
      </trkpt>
      <trkpt lat="43.809170192107558" lon="11.900352789089084">
        <ele>1173.9100000000001</ele>
        <time>2016-06-03T10:31:36Z</time>
      </trkpt>
      <trkpt lat="43.809161055833101" lon="11.900569377467036">
        <ele>1173.9100000000001</ele>
        <time>2016-06-03T10:31:49Z</time>
      </trkpt>
      <trkpt lat="43.809101460501552" lon="11.900720754638314">
        <ele>1172.95</ele>
        <time>2016-06-03T10:31:59Z</time>
      </trkpt>
      <trkpt lat="43.809057790786028" lon="11.900889649987221">
        <ele>1172.47</ele>
        <time>2016-06-03T10:32:10Z</time>
      </trkpt>
      <trkpt lat="43.808998027816415" lon="11.900993082672358">
        <ele>1171.98</ele>
        <time>2016-06-03T10:32:20Z</time>
      </trkpt>
      <trkpt lat="43.808975564315915" lon="11.901019066572189">
        <ele>1171.98</ele>
        <time>2016-06-03T10:32:23Z</time>
      </trkpt>
      <trkpt lat="43.808939438313246" lon="11.901110680773854">
        <ele>1171.5</ele>
        <time>2016-06-03T10:32:29Z</time>
      </trkpt>
      <trkpt lat="43.808866683393717" lon="11.901304721832275">
        <ele>1170.54</ele>
        <time>2016-06-03T10:32:41Z</time>
      </trkpt>
      <trkpt lat="43.808809602633119" lon="11.901462636888027">
        <ele>1170.0599999999999</ele>
        <time>2016-06-03T10:32:50Z</time>
      </trkpt>
      <trkpt lat="43.808769201859832" lon="11.90155953168869">
        <ele>1169.5799999999999</ele>
        <time>2016-06-03T10:33:00Z</time>
      </trkpt>
      <trkpt lat="43.808739613741636" lon="11.901622731238604">
        <ele>1169.5799999999999</ele>
        <time>2016-06-03T10:33:12Z</time>
      </trkpt>
      <trkpt lat="43.808738021180034" lon="11.901792464777827">
        <ele>1169.5799999999999</ele>
        <time>2016-06-03T10:33:22Z</time>
      </trkpt>
      <trkpt lat="43.808709438890219" lon="11.901969993487">
        <ele>1169.5799999999999</ele>
        <time>2016-06-03T10:33:33Z</time>
      </trkpt>
      <trkpt lat="43.808717234060168" lon="11.902027744799852">
        <ele>1169.0999999999999</ele>
        <time>2016-06-03T10:33:36Z</time>
      </trkpt>
      <trkpt lat="43.808802561834455" lon="11.902191611006856">
        <ele>1168.6199999999999</ele>
        <time>2016-06-03T10:33:47Z</time>
      </trkpt>
      <trkpt lat="43.808868108317256" lon="11.902274005115032">
        <ele>1168.6199999999999</ele>
        <time>2016-06-03T10:33:54Z</time>
      </trkpt>
      <trkpt lat="43.808963494375348" lon="11.902381042018533">
        <ele>1167.6600000000001</ele>
        <time>2016-06-03T10:34:07Z</time>
      </trkpt>
      <trkpt lat="43.808913873508573" lon="11.90245027653873">
        <ele>1168.1400000000001</ele>
        <time>2016-06-03T10:34:19Z</time>
      </trkpt>
      <trkpt lat="43.808913035318255" lon="11.902505932375789">
        <ele>1168.1400000000001</ele>
        <time>2016-06-03T10:34:26Z</time>
      </trkpt>
      <trkpt lat="43.808914292603731" lon="11.902711037546396">
        <ele>1167.6600000000001</ele>
        <time>2016-06-03T10:34:38Z</time>
      </trkpt>
      <trkpt lat="43.808853188529611" lon="11.902859397232533">
        <ele>1166.7</ele>
        <time>2016-06-03T10:34:49Z</time>
      </trkpt>
      <trkpt lat="43.808793090283871" lon="11.903045307844877">
        <ele>1166.7</ele>
        <time>2016-06-03T10:35:02Z</time>
      </trkpt>
      <trkpt lat="43.808692339807749" lon="11.903208419680595">
        <ele>1165.74</ele>
        <time>2016-06-03T10:35:14Z</time>
      </trkpt>
      <trkpt lat="43.808508357033134" lon="11.903380332514644">
        <ele>1165.26</ele>
        <time>2016-06-03T10:35:26Z</time>
      </trkpt>
      <trkpt lat="43.808371648192406" lon="11.903507569804788">
        <ele>1164.77</ele>
        <time>2016-06-03T10:35:38Z</time>
      </trkpt>
      <trkpt lat="43.80825505591929" lon="11.903553251177073">
        <ele>1163.8099999999999</ele>
        <time>2016-06-03T10:35:50Z</time>
      </trkpt>
      <trkpt lat="43.808188000693917" lon="11.903589460998774">
        <ele>1163.8099999999999</ele>
        <time>2016-06-03T10:35:59Z</time>
      </trkpt>
      <trkpt lat="43.808173332363367" lon="11.903610918670893">
        <ele>1163.3299999999999</ele>
        <time>2016-06-03T10:36:01Z</time>
      </trkpt>
      <trkpt lat="43.80813586525619" lon="11.903737233951688">
        <ele>1163.8099999999999</ele>
        <time>2016-06-03T10:36:07Z</time>
      </trkpt>
      <trkpt lat="43.808152796700597" lon="11.903856927528977">
        <ele>1163.3299999999999</ele>
        <time>2016-06-03T10:36:14Z</time>
      </trkpt>
      <trkpt lat="43.808199567720294" lon="11.903968490660191">
        <ele>1163.3299999999999</ele>
        <time>2016-06-03T10:36:23Z</time>
      </trkpt>
      <trkpt lat="43.80829906091094" lon="11.90399925224483">
        <ele>1162.8499999999999</ele>
        <time>2016-06-03T10:36:34Z</time>
      </trkpt>
      <trkpt lat="43.80839872173965" lon="11.903941752389073">
        <ele>1162.3699999999999</ele>
        <time>2016-06-03T10:36:46Z</time>
      </trkpt>
      <trkpt lat="43.808587146922946" lon="11.903861369937658">
        <ele>1161.8900000000001</ele>
        <time>2016-06-03T10:36:59Z</time>
      </trkpt>
      <trkpt lat="43.808669038116932" lon="11.903864806517959">
        <ele>1161.8900000000001</ele>
        <time>2016-06-03T10:37:05Z</time>
      </trkpt>
      <trkpt lat="43.808847907930613" lon="11.903858855366707">
        <ele>1160.45</ele>
        <time>2016-06-03T10:37:15Z</time>
      </trkpt>
      <trkpt lat="43.808906665071845" lon="11.90385852009058">
        <ele>1160.45</ele>
        <time>2016-06-03T10:37:19Z</time>
      </trkpt>
      <trkpt lat="43.80904907360673" lon="11.903885342180729">
        <ele>1159.97</ele>
        <time>2016-06-03T10:37:32Z</time>
      </trkpt>
      <trkpt lat="43.809150494635105" lon="11.903891209512949">
        <ele>1159.49</ele>
        <time>2016-06-03T10:37:41Z</time>
      </trkpt>
      <trkpt lat="43.809207072481513" lon="11.9038937240839">
        <ele>1159.49</ele>
        <time>2016-06-03T10:37:47Z</time>
      </trkpt>
      <trkpt lat="43.809350486844778" lon="11.903895316645503">
        <ele>1159.01</ele>
        <time>2016-06-03T10:38:00Z</time>
      </trkpt>
      <trkpt lat="43.809492392465472" lon="11.903971591964364">
        <ele>1158.05</ele>
        <time>2016-06-03T10:38:12Z</time>
      </trkpt>
      <trkpt lat="43.809557352215052" lon="11.904014423489571">
        <ele>1157.5599999999999</ele>
        <time>2016-06-03T10:38:22Z</time>
      </trkpt>
      <trkpt lat="43.809582162648439" lon="11.904037473723292">
        <ele>1158.05</ele>
        <time>2016-06-03T10:38:41Z</time>
      </trkpt>
      <trkpt lat="43.809611415490508" lon="11.904111988842487">
        <ele>1158.05</ele>
        <time>2016-06-03T10:38:57Z</time>
      </trkpt>
      <trkpt lat="43.809623150154948" lon="11.904143588617444">
        <ele>1158.05</ele>
        <time>2016-06-03T10:38:59Z</time>
      </trkpt>
      <trkpt lat="43.809649050235748" lon="11.904327906668186">
        <ele>1157.0799999999999</ele>
        <time>2016-06-03T10:39:08Z</time>
      </trkpt>
      <trkpt lat="43.809662712737918" lon="11.904370989650488">
        <ele>1157.0799999999999</ele>
        <time>2016-06-03T10:39:11Z</time>
      </trkpt>
      <trkpt lat="43.809618288651109" lon="11.904609203338623">
        <ele>1156.5999999999999</ele>
        <time>2016-06-03T10:39:25Z</time>
      </trkpt>
      <trkpt lat="43.809532877057791" lon="11.904782122001052">
        <ele>1155.6400000000001</ele>
        <time>2016-06-03T10:39:36Z</time>
      </trkpt>
      <trkpt lat="43.809478897601366" lon="11.904871473088861">
        <ele>1155.6400000000001</ele>
        <time>2016-06-03T10:39:42Z</time>
      </trkpt>
      <trkpt lat="43.809451907873154" lon="11.904899133369327">
        <ele>1155.6400000000001</ele>
        <time>2016-06-03T10:39:44Z</time>
      </trkpt>
      <trkpt lat="43.809331711381674" lon="11.905090073123574">
        <ele>1155.1600000000001</ele>
        <time>2016-06-03T10:39:56Z</time>
      </trkpt>
      <trkpt lat="43.809291729703546" lon="11.905286628752947">
        <ele>1155.1600000000001</ele>
        <time>2016-06-03T10:40:07Z</time>
      </trkpt>
      <trkpt lat="43.809306314215064" lon="11.905466420575976">
        <ele>1154.6800000000001</ele>
        <time>2016-06-03T10:40:18Z</time>
      </trkpt>
      <trkpt lat="43.809312600642443" lon="11.905481591820717">
        <ele>1154.2</ele>
        <time>2016-06-03T10:40:19Z</time>
      </trkpt>
      <trkpt lat="43.809344451874495" lon="11.905659539625049">
        <ele>1154.2</ele>
        <time>2016-06-03T10:40:30Z</time>
      </trkpt>
      <trkpt lat="43.809346882626414" lon="11.905734222382307">
        <ele>1153.72</ele>
        <time>2016-06-03T10:40:36Z</time>
      </trkpt>
      <trkpt lat="43.809344870969653" lon="11.905798176303506">
        <ele>1153.72</ele>
        <time>2016-06-03T10:40:40Z</time>
      </trkpt>
      <trkpt lat="43.809337578713894" lon="11.905889706686139">
        <ele>1153.24</ele>
        <time>2016-06-03T10:40:45Z</time>
      </trkpt>
      <trkpt lat="43.809347553178668" lon="11.905942680314183">
        <ele>1153.24</ele>
        <time>2016-06-03T10:40:48Z</time>
      </trkpt>
      <trkpt lat="43.809389127418399" lon="11.906040916219354">
        <ele>1153.24</ele>
        <time>2016-06-03T10:40:53Z</time>
      </trkpt>
      <trkpt lat="43.809486776590347" lon="11.906199166551232">
        <ele>1152.76</ele>
        <time>2016-06-03T10:41:03Z</time>
      </trkpt>
      <trkpt lat="43.809516448527575" lon="11.906324308365583">
        <ele>1152.76</ele>
        <time>2016-06-03T10:41:11Z</time>
      </trkpt>
      <trkpt lat="43.809547377750278" lon="11.906401002779603">
        <ele>1152.28</ele>
        <time>2016-06-03T10:41:15Z</time>
      </trkpt>
      <trkpt lat="43.809634717181325" lon="11.906580710783601">
        <ele>1151.3199999999999</ele>
        <time>2016-06-03T10:41:26Z</time>
      </trkpt>
      <trkpt lat="43.809664053842425" lon="11.906726052984595">
        <ele>1151.3199999999999</ele>
        <time>2016-06-03T10:41:36Z</time>
      </trkpt>
      <trkpt lat="43.809682158753276" lon="11.906862175092101">
        <ele>1150.8399999999999</ele>
        <time>2016-06-03T10:41:47Z</time>
      </trkpt>
      <trkpt lat="43.809700263664126" lon="11.907021179795265">
        <ele>1150.8399999999999</ele>
        <time>2016-06-03T10:41:58Z</time>
      </trkpt>
      <trkpt lat="43.809735970571637" lon="11.907191332429647">
        <ele>1150.8399999999999</ele>
        <time>2016-06-03T10:42:09Z</time>
      </trkpt>
      <trkpt lat="43.809738820418715" lon="11.907491907477379">
        <ele>1149.8699999999999</ele>
        <time>2016-06-03T10:42:23Z</time>
      </trkpt>
      <trkpt lat="43.809677381068468" lon="11.907582096755505">
        <ele>1149.8699999999999</ele>
        <time>2016-06-03T10:42:31Z</time>
      </trkpt>
      <trkpt lat="43.809550311416388" lon="11.907603722065687">
        <ele>1149.8699999999999</ele>
        <time>2016-06-03T10:42:44Z</time>
      </trkpt>
      <trkpt lat="43.809503372758627" lon="11.907517053186893">
        <ele>1149.3900000000001</ele>
        <time>2016-06-03T10:42:51Z</time>
      </trkpt>
      <trkpt lat="43.809497002512217" lon="11.907503725960851">
        <ele>1149.3900000000001</ele>
        <time>2016-06-03T10:42:52Z</time>
      </trkpt>
      <trkpt lat="43.809481076896191" lon="11.907476652413607">
        <ele>1149.3900000000001</ele>
        <time>2016-06-03T10:42:54Z</time>
      </trkpt>
      <trkpt lat="43.809410082176328" lon="11.907384116202593">
        <ele>1148.9100000000001</ele>
        <time>2016-06-03T10:43:02Z</time>
      </trkpt>
      <trkpt lat="43.809307822957635" lon="11.90724078565836">
        <ele>1148.4300000000001</ele>
        <time>2016-06-03T10:43:11Z</time>
      </trkpt>
      <trkpt lat="43.809203468263149" lon="11.907115643844008">
        <ele>1147.95</ele>
        <time>2016-06-03T10:43:20Z</time>
      </trkpt>
      <trkpt lat="43.809192655608058" lon="11.90710156224668">
        <ele>1147.95</ele>
        <time>2016-06-03T10:43:21Z</time>
      </trkpt>
      <trkpt lat="43.809078326448798" lon="11.906963679939508">
        <ele>1147.47</ele>
        <time>2016-06-03T10:43:32Z</time>
      </trkpt>
      <trkpt lat="43.808950753882527" lon="11.906842980533838">
        <ele>1146.51</ele>
        <time>2016-06-03T10:43:44Z</time>
      </trkpt>
      <trkpt lat="43.808845393359661" lon="11.906756144016981">
        <ele>1146.51</ele>
        <time>2016-06-03T10:43:55Z</time>
      </trkpt>
      <trkpt lat="43.80872854962945" lon="11.906638629734516">
        <ele>1146.03</ele>
        <time>2016-06-03T10:44:07Z</time>
      </trkpt>
      <trkpt lat="43.80856585688889" lon="11.906606527045369">
        <ele>1145.55</ele>
        <time>2016-06-03T10:44:15Z</time>
      </trkpt>
      <trkpt lat="43.808377264067531" lon="11.906578028574586">
        <ele>1145.0699999999999</ele>
        <time>2016-06-03T10:44:28Z</time>
      </trkpt>
      <trkpt lat="43.808272071182728" lon="11.906559588387609">
        <ele>1144.5899999999999</ele>
        <time>2016-06-03T10:44:38Z</time>
      </trkpt>
      <trkpt lat="43.808185402303934" lon="11.90659579820931">
        <ele>1144.1099999999999</ele>
        <time>2016-06-03T10:44:46Z</time>
      </trkpt>
      <trkpt lat="43.808057326823473" lon="11.906646173447371">
        <ele>1143.6300000000001</ele>
        <time>2016-06-03T10:44:57Z</time>
      </trkpt>
      <trkpt lat="43.808036204427481" lon="11.906683053821325">
        <ele>1143.1400000000001</ele>
        <time>2016-06-03T10:45:00Z</time>
      </trkpt>
      <trkpt lat="43.808004101738334" lon="11.906739631667733">
        <ele>1143.6300000000001</ele>
        <time>2016-06-03T10:45:04Z</time>
      </trkpt>
      <trkpt lat="43.807962443679571" lon="11.9070262927562">
        <ele>1142.6600000000001</ele>
        <time>2016-06-03T10:45:21Z</time>
      </trkpt>
      <trkpt lat="43.807928077876568" lon="11.907279174774885">
        <ele>1142.1800000000001</ele>
        <time>2016-06-03T10:45:35Z</time>
      </trkpt>
      <trkpt lat="43.807916427031159" lon="11.907307170331478">
        <ele>1142.1800000000001</ele>
        <time>2016-06-03T10:45:37Z</time>
      </trkpt>
      <trkpt lat="43.807872505858541" lon="11.907388726249337">
        <ele>1141.7</ele>
        <time>2016-06-03T10:45:42Z</time>
      </trkpt>
      <trkpt lat="43.807760523632169" lon="11.907565416768193">
        <ele>1141.7</ele>
        <time>2016-06-03T10:45:55Z</time>
      </trkpt>
      <trkpt lat="43.807660611346364" lon="11.907695923000574">
        <ele>1141.7</ele>
        <time>2016-06-03T10:46:07Z</time>
      </trkpt>
      <trkpt lat="43.807593639940023" lon="11.907795751467347">
        <ele>1140.74</ele>
        <time>2016-06-03T10:46:17Z</time>
      </trkpt>
      <trkpt lat="43.807571846991777" lon="11.907818801701069">
        <ele>1140.74</ele>
        <time>2016-06-03T10:46:19Z</time>
      </trkpt>
      <trkpt lat="43.807437904179096" lon="11.907932795584202">
        <ele>1141.22</ele>
        <time>2016-06-03T10:46:31Z</time>
      </trkpt>
      <trkpt lat="43.807288035750389" lon="11.908072354272008">
        <ele>1140.74</ele>
        <time>2016-06-03T10:46:43Z</time>
      </trkpt>
      <trkpt lat="43.807141268625855" lon="11.908209482207894">
        <ele>1140.26</ele>
        <time>2016-06-03T10:46:56Z</time>
      </trkpt>
      <trkpt lat="43.807112518697977" lon="11.908237393945456">
        <ele>1139.78</ele>
        <time>2016-06-03T10:46:59Z</time>
      </trkpt>
      <trkpt lat="43.807058706879616" lon="11.908331187441945">
        <ele>1139.78</ele>
        <time>2016-06-03T10:47:10Z</time>
      </trkpt>
      <trkpt lat="43.807102628052235" lon="11.908375360071659">
        <ele>1140.26</ele>
        <time>2016-06-03T10:47:23Z</time>
      </trkpt>
      <trkpt lat="43.807050827890635" lon="11.908261114731431">
        <ele>1140.26</ele>
        <time>2016-06-03T10:47:38Z</time>
      </trkpt>
      <trkpt lat="43.806869694963098" lon="11.908050645142794">
        <ele>1140.26</ele>
        <time>2016-06-03T10:47:49Z</time>
      </trkpt>
      <trkpt lat="43.806832144036889" lon="11.907968251034617">
        <ele>1140.26</ele>
        <time>2016-06-03T10:48:01Z</time>
      </trkpt>
      <trkpt lat="43.80680825561285" lon="11.90814234316349">
        <ele>1141.22</ele>
        <time>2016-06-03T10:48:13Z</time>
      </trkpt>
      <trkpt lat="43.806758718565106" lon="11.908375611528754">
        <ele>1142.1800000000001</ele>
        <time>2016-06-03T10:48:25Z</time>
      </trkpt>
      <trkpt lat="43.806716054677963" lon="11.908463034778833">
        <ele>1142.1800000000001</ele>
        <time>2016-06-03T10:48:36Z</time>
      </trkpt>
      <trkpt lat="43.806659812107682" lon="11.908472590148449">
        <ele>1142.6600000000001</ele>
        <time>2016-06-03T10:48:55Z</time>
      </trkpt>
      <trkpt lat="43.806545063853264" lon="11.90856110304594">
        <ele>1143.1400000000001</ele>
        <time>2016-06-03T10:49:06Z</time>
      </trkpt>
      <trkpt lat="43.806512709707022" lon="11.908589601516724">
        <ele>1143.6300000000001</ele>
        <time>2016-06-03T10:49:11Z</time>
      </trkpt>
      <trkpt lat="43.806403912603855" lon="11.908693369477987">
        <ele>1146.51</ele>
        <time>2016-06-03T10:49:24Z</time>
      </trkpt>
      <trkpt lat="43.806397626176476" lon="11.908703092485666">
        <ele>1146.51</ele>
        <time>2016-06-03T10:49:25Z</time>
      </trkpt>
      <trkpt lat="43.806315399706364" lon="11.908815996721387">
        <ele>1148.4300000000001</ele>
        <time>2016-06-03T10:49:37Z</time>
      </trkpt>
      <trkpt lat="43.806262006983161" lon="11.908861761912704">
        <ele>1148.9100000000001</ele>
        <time>2016-06-03T10:49:43Z</time>
      </trkpt>
      <trkpt lat="43.806110881268978" lon="11.908954884856939">
        <ele>1150.3499999999999</ele>
        <time>2016-06-03T10:49:56Z</time>
      </trkpt>
      <trkpt lat="43.80597710609436" lon="11.909051947295666">
        <ele>1151.3199999999999</ele>
        <time>2016-06-03T10:50:08Z</time>
      </trkpt>
      <trkpt lat="43.805920863524079" lon="11.909141130745411">
        <ele>1152.76</ele>
        <time>2016-06-03T10:50:19Z</time>
      </trkpt>
      <trkpt lat="43.805862860754132" lon="11.909200558438897">
        <ele>1155.1600000000001</ele>
        <time>2016-06-03T10:50:32Z</time>
      </trkpt>
      <trkpt lat="43.805785579606891" lon="11.909285550937057">
        <ele>1157.5599999999999</ele>
        <time>2016-06-03T10:50:44Z</time>
      </trkpt>
      <trkpt lat="43.805751884356141" lon="11.90935512073338">
        <ele>1158.53</ele>
        <time>2016-06-03T10:50:52Z</time>
      </trkpt>
      <trkpt lat="43.805720871314406" lon="11.90940105356276">
        <ele>1159.49</ele>
        <time>2016-06-03T10:50:57Z</time>
      </trkpt>
      <trkpt lat="43.805638058111072" lon="11.909491326659918">
        <ele>1159.49</ele>
        <time>2016-06-03T10:51:09Z</time>
      </trkpt>
      <trkpt lat="43.805527752265334" lon="11.909614205360413">
        <ele>1159.49</ele>
        <time>2016-06-03T10:51:23Z</time>
      </trkpt>
      <trkpt lat="43.805427672341466" lon="11.909647900611162">
        <ele>1159.49</ele>
        <time>2016-06-03T10:51:34Z</time>
      </trkpt>
      <trkpt lat="43.805302111431956" lon="11.909707076847553">
        <ele>1159.01</ele>
        <time>2016-06-03T10:51:46Z</time>
      </trkpt>
      <trkpt lat="43.805232625454664" lon="11.909698359668255">
        <ele>1159.01</ele>
        <time>2016-06-03T10:52:01Z</time>
      </trkpt>
      <trkpt lat="43.805145537480712" lon="11.909770024940372">
        <ele>1159.97</ele>
        <time>2016-06-03T10:52:14Z</time>
      </trkpt>
      <trkpt lat="43.8050701841712" lon="11.909816963598132">
        <ele>1160.45</ele>
        <time>2016-06-03T10:52:24Z</time>
      </trkpt>
      <trkpt lat="43.80498418584466" lon="11.909888964146376">
        <ele>1162.3699999999999</ele>
        <time>2016-06-03T10:52:38Z</time>
      </trkpt>
      <trkpt lat="43.804903635755181" lon="11.909970100969076">
        <ele>1164.77</ele>
        <time>2016-06-03T10:52:53Z</time>
      </trkpt>
      <trkpt lat="43.804825013503432" lon="11.910102451220155">
        <ele>1167.1800000000001</ele>
        <time>2016-06-03T10:53:08Z</time>
      </trkpt>
      <trkpt lat="43.804819984361529" lon="11.910172440111637">
        <ele>1169.5799999999999</ele>
        <time>2016-06-03T10:53:20Z</time>
      </trkpt>
      <trkpt lat="43.804742619395256" lon="11.910222396254539">
        <ele>1172.47</ele>
        <time>2016-06-03T10:53:35Z</time>
      </trkpt>
      <trkpt lat="43.804686376824975" lon="11.910240333527327">
        <ele>1175.3499999999999</ele>
        <time>2016-06-03T10:53:43Z</time>
      </trkpt>
      <trkpt lat="43.804576909169555" lon="11.910322057083249">
        <ele>1175.8299999999999</ele>
        <time>2016-06-03T10:53:58Z</time>
      </trkpt>
      <trkpt lat="43.804476913064718" lon="11.910376623272896">
        <ele>1176.3099999999999</ele>
        <time>2016-06-03T10:54:09Z</time>
      </trkpt>
      <trkpt lat="43.804354453459382" lon="11.910431357100606">
        <ele>1177.27</ele>
        <time>2016-06-03T10:54:21Z</time>
      </trkpt>
      <trkpt lat="43.80429963581264" lon="11.910529593005776">
        <ele>1178.23</ele>
        <time>2016-06-03T10:54:33Z</time>
      </trkpt>
      <trkpt lat="43.804194778203964" lon="11.910674767568707">
        <ele>1180.1600000000001</ele>
        <time>2016-06-03T10:54:47Z</time>
      </trkpt>
      <trkpt lat="43.804250014945865" lon="11.910823965445161">
        <ele>1182.0799999999999</ele>
        <time>2016-06-03T10:55:00Z</time>
      </trkpt>
      <trkpt lat="43.804241130128503" lon="11.910921949893236">
        <ele>1183.52</ele>
        <time>2016-06-03T10:55:10Z</time>
      </trkpt>
      <trkpt lat="43.804151443764567" lon="11.910954220220447">
        <ele>1184.48</ele>
        <time>2016-06-03T10:55:21Z</time>
      </trkpt>
      <trkpt lat="43.804074581712484" lon="11.910927649587393">
        <ele>1186.4000000000001</ele>
        <time>2016-06-03T10:55:33Z</time>
      </trkpt>
      <trkpt lat="43.803877104073763" lon="11.910933433100581">
        <ele>1187.3699999999999</ele>
        <time>2016-06-03T10:55:48Z</time>
      </trkpt>
      <trkpt lat="43.803758751600981" lon="11.910906275734305">
        <ele>1188.8099999999999</ele>
        <time>2016-06-03T10:55:59Z</time>
      </trkpt>
      <trkpt lat="43.803652301430702" lon="11.910869898274541">
        <ele>1191.21</ele>
        <time>2016-06-03T10:56:13Z</time>
      </trkpt>
      <trkpt lat="43.803573930636048" lon="11.910808039829135">
        <ele>1192.6500000000001</ele>
        <time>2016-06-03T10:56:26Z</time>
      </trkpt>
      <trkpt lat="43.803458260372281" lon="11.910650040954351">
        <ele>1194.0899999999999</ele>
        <time>2016-06-03T10:56:41Z</time>
      </trkpt>
      <trkpt lat="43.803383409976959" lon="11.910567143931985">
        <ele>1196.02</ele>
        <time>2016-06-03T10:56:53Z</time>
      </trkpt>
      <trkpt lat="43.803312918171287" lon="11.910514840856194">
        <ele>1197.46</ele>
        <time>2016-06-03T10:57:09Z</time>
      </trkpt>
      <trkpt lat="43.803265895694494" lon="11.910467818379402">
        <ele>1196.98</ele>
        <time>2016-06-03T10:57:26Z</time>
      </trkpt>
      <trkpt lat="43.803425822407007" lon="11.9105922896415">
        <ele>1197.9400000000001</ele>
        <time>2016-06-03T10:57:58Z</time>
      </trkpt>
      <trkpt lat="43.803395396098495" lon="11.910529509186745">
        <ele>1197.9400000000001</ele>
        <time>2016-06-03T10:58:15Z</time>
      </trkpt>
      <trkpt lat="43.803340578451753" lon="11.910468237474561">
        <ele>1198.4200000000001</ele>
        <time>2016-06-03T10:58:35Z</time>
      </trkpt>
      <trkpt lat="43.803254663944244" lon="11.910313926637173">
        <ele>1199.8599999999999</ele>
        <time>2016-06-03T10:58:58Z</time>
      </trkpt>
      <trkpt lat="43.803221806883812" lon="11.910349298268557">
        <ele>1200.3399999999999</ele>
        <time>2016-06-03T10:59:07Z</time>
      </trkpt>
      <trkpt lat="43.803172437474132" lon="11.91039489582181">
        <ele>1202.75</ele>
        <time>2016-06-03T10:59:19Z</time>
      </trkpt>
      <trkpt lat="43.803146369755268" lon="11.91045843064785">
        <ele>1205.1500000000001</ele>
        <time>2016-06-03T10:59:30Z</time>
      </trkpt>
      <trkpt lat="43.803073363378644" lon="11.910480642691255">
        <ele>1208.03</ele>
        <time>2016-06-03T10:59:42Z</time>
      </trkpt>
      <trkpt lat="43.802942354232073" lon="11.910504614934325">
        <ele>1210.4400000000001</ele>
        <time>2016-06-03T10:59:56Z</time>
      </trkpt>
      <trkpt lat="43.802890554070473" lon="11.910555325448513">
        <ele>1211.8800000000001</ele>
        <time>2016-06-03T11:00:06Z</time>
      </trkpt>
      <trkpt lat="43.802835568785667" lon="11.910620536655188">
        <ele>1213.8</ele>
        <time>2016-06-03T11:00:16Z</time>
      </trkpt>
      <trkpt lat="43.802805142477155" lon="11.910686753690243">
        <ele>1216.6900000000001</ele>
        <time>2016-06-03T11:00:29Z</time>
      </trkpt>
      <trkpt lat="43.802726184949279" lon="11.910756826400757">
        <ele>1219.5699999999999</ele>
        <time>2016-06-03T11:00:41Z</time>
      </trkpt>
      <trkpt lat="43.802617890760303" lon="11.910782642662525">
        <ele>1220.53</ele>
        <time>2016-06-03T11:00:53Z</time>
      </trkpt>
      <trkpt lat="43.802533401176333" lon="11.910820528864861">
        <ele>1221.49</ele>
        <time>2016-06-03T11:01:03Z</time>
      </trkpt>
      <trkpt lat="43.802434159442782" lon="11.910901581868529">
        <ele>1222.9300000000001</ele>
        <time>2016-06-03T11:01:16Z</time>
      </trkpt>
      <trkpt lat="43.802420161664486" lon="11.910923961549997">
        <ele>1223.9000000000001</ele>
        <time>2016-06-03T11:01:19Z</time>
      </trkpt>
      <trkpt lat="43.802351346239448" lon="11.911008283495903">
        <ele>1226.3</ele>
        <time>2016-06-03T11:01:30Z</time>
      </trkpt>
      <trkpt lat="43.802287140861154" lon="11.911097802221775">
        <ele>1228.7</ele>
        <time>2016-06-03T11:01:43Z</time>
      </trkpt>
      <trkpt lat="43.802205752581358" lon="11.911202827468514">
        <ele>1231.1099999999999</ele>
        <time>2016-06-03T11:01:57Z</time>
      </trkpt>
      <trkpt lat="43.802135176956654" lon="11.911303577944636">
        <ele>1233.51</ele>
        <time>2016-06-03T11:02:11Z</time>
      </trkpt>
      <trkpt lat="43.802089998498559" lon="11.911370297893882">
        <ele>1235.9100000000001</ele>
        <time>2016-06-03T11:02:25Z</time>
      </trkpt>
      <trkpt lat="43.802161579951644" lon="11.911365520209074">
        <ele>1235.4300000000001</ele>
        <time>2016-06-03T11:02:40Z</time>
      </trkpt>
      <trkpt lat="43.802308514714241" lon="11.911283964291215">
        <ele>1234.95</ele>
        <time>2016-06-03T11:02:51Z</time>
      </trkpt>
      <trkpt lat="43.80242083221674" lon="11.911332495510578">
        <ele>1235.9100000000001</ele>
        <time>2016-06-03T11:03:04Z</time>
      </trkpt>
      <trkpt lat="43.802512949332595" lon="11.911435509100556">
        <ele>1237.3499999999999</ele>
        <time>2016-06-03T11:03:15Z</time>
      </trkpt>
      <trkpt lat="43.802546979859471" lon="11.911480687558651">
        <ele>1237.8299999999999</ele>
        <time>2016-06-03T11:03:27Z</time>
      </trkpt>
      <trkpt lat="43.802562905475497" lon="11.91151974722743">
        <ele>1237.8299999999999</ele>
        <time>2016-06-03T11:03:40Z</time>
      </trkpt>
      <trkpt lat="43.802657872438431" lon="11.91161647439003">
        <ele>1238.8</ele>
        <time>2016-06-03T11:03:52Z</time>
      </trkpt>
      <trkpt lat="43.802770609036088" lon="11.911777658388019">
        <ele>1240.24</ele>
        <time>2016-06-03T11:04:06Z</time>
      </trkpt>
      <trkpt lat="43.802813524380326" lon="11.911964071914554">
        <ele>1240.24</ele>
        <time>2016-06-03T11:04:18Z</time>
      </trkpt>
      <trkpt lat="43.802862307056785" lon="11.912058619782329">
        <ele>1238.8</ele>
        <time>2016-06-03T11:04:26Z</time>
      </trkpt>
      <trkpt lat="43.802927518263459" lon="11.912197340279818">
        <ele>1236.8699999999999</ele>
        <time>2016-06-03T11:04:37Z</time>
      </trkpt>
      <trkpt lat="43.803011337295175" lon="11.912251152098179">
        <ele>1233.99</ele>
        <time>2016-06-03T11:04:49Z</time>
      </trkpt>
      <trkpt lat="43.803154584020376" lon="11.912393812090158">
        <ele>1232.55</ele>
        <time>2016-06-03T11:05:03Z</time>
      </trkpt>
      <trkpt lat="43.803165061399341" lon="11.912466734647751">
        <ele>1233.03</ele>
        <time>2016-06-03T11:05:13Z</time>
      </trkpt>
      <trkpt lat="43.803153075277805" lon="11.91247159615159">
        <ele>1233.51</ele>
        <time>2016-06-03T11:05:16Z</time>
      </trkpt>
      <trkpt lat="43.803059197962284" lon="11.912497747689486">
        <ele>1234.95</ele>
        <time>2016-06-03T11:05:27Z</time>
      </trkpt>
      <trkpt lat="43.80299256183207" lon="11.912486935034394">
        <ele>1236.8699999999999</ele>
        <time>2016-06-03T11:05:37Z</time>
      </trkpt>
      <trkpt lat="43.802918633446097" lon="11.912483330816031">
        <ele>1240.24</ele>
        <time>2016-06-03T11:05:50Z</time>
      </trkpt>
      <trkpt lat="43.802819140255451" lon="11.912441086024046">
        <ele>1241.2</ele>
        <time>2016-06-03T11:06:04Z</time>
      </trkpt>
      <trkpt lat="43.80277463234961" lon="11.912412084639072">
        <ele>1243.5999999999999</ele>
        <time>2016-06-03T11:06:20Z</time>
      </trkpt>
      <trkpt lat="43.802758287638426" lon="11.912377383559942">
        <ele>1243.1199999999999</ele>
        <time>2016-06-03T11:06:42Z</time>
      </trkpt>
      <trkpt lat="43.802738254889846" lon="11.912389621138573">
        <ele>1245.04</ele>
        <time>2016-06-03T11:06:57Z</time>
      </trkpt>
      <trkpt lat="43.802634654566646" lon="11.912341257557273">
        <ele>1246.97</ele>
        <time>2016-06-03T11:07:10Z</time>
      </trkpt>
      <trkpt lat="43.802576400339603" lon="11.912308065220714">
        <ele>1248.8900000000001</ele>
        <time>2016-06-03T11:07:22Z</time>
      </trkpt>
      <trkpt lat="43.802486546337605" lon="11.91227856092155">
        <ele>1250.8099999999999</ele>
        <time>2016-06-03T11:07:33Z</time>
      </trkpt>
      <trkpt lat="43.802409516647458" lon="11.912289541214705">
        <ele>1251.29</ele>
        <time>2016-06-03T11:07:43Z</time>
      </trkpt>
      <trkpt lat="43.802319830283523" lon="11.912305131554604">
        <ele>1251.77</ele>
        <time>2016-06-03T11:07:53Z</time>
      </trkpt>
      <trkpt lat="43.802244896069169" lon="11.91230395808816">
        <ele>1251.29</ele>
        <time>2016-06-03T11:08:02Z</time>
      </trkpt>
      <trkpt lat="43.802144732326269" lon="11.912287445738912">
        <ele>1250.8099999999999</ele>
        <time>2016-06-03T11:08:12Z</time>
      </trkpt>
      <trkpt lat="43.802130986005068" lon="11.912286356091499">
        <ele>1250.8099999999999</ele>
        <time>2016-06-03T11:08:14Z</time>
      </trkpt>
      <trkpt lat="43.802024535834789" lon="11.912269927561283">
        <ele>1251.29</ele>
        <time>2016-06-03T11:08:25Z</time>
      </trkpt>
      <trkpt lat="43.801920851692557" lon="11.91225953400135">
        <ele>1252.74</ele>
        <time>2016-06-03T11:08:37Z</time>
      </trkpt>
      <trkpt lat="43.801909619942307" lon="11.912260707467794">
        <ele>1252.74</ele>
        <time>2016-06-03T11:08:38Z</time>
      </trkpt>
      <trkpt lat="43.801762936636806" lon="11.912254588678479">
        <ele>1254.6600000000001</ele>
        <time>2016-06-03T11:08:50Z</time>
      </trkpt>
      <trkpt lat="43.801659755408764" lon="11.912236735224724">
        <ele>1255.6199999999999</ele>
        <time>2016-06-03T11:09:01Z</time>
      </trkpt>
      <trkpt lat="43.801557496190071" lon="11.912205470725894">
        <ele>1255.1400000000001</ele>
        <time>2016-06-03T11:09:14Z</time>
      </trkpt>
      <trkpt lat="43.801452219486237" lon="11.912205303087831">
        <ele>1253.7</ele>
        <time>2016-06-03T11:09:24Z</time>
      </trkpt>
      <trkpt lat="43.801405448466539" lon="11.912197340279818">
        <ele>1252.74</ele>
        <time>2016-06-03T11:09:29Z</time>
      </trkpt>
      <trkpt lat="43.801285922527313" lon="11.912144282832742">
        <ele>1252.25</ele>
        <time>2016-06-03T11:09:42Z</time>
      </trkpt>
      <trkpt lat="43.801250131800771" lon="11.912147467955947">
        <ele>1252.25</ele>
        <time>2016-06-03T11:09:46Z</time>
      </trkpt>
      <trkpt lat="43.801222303882241" lon="11.91215006634593">
        <ele>1252.25</ele>
        <time>2016-06-03T11:09:48Z</time>
      </trkpt>
      <trkpt lat="43.801095569506288" lon="11.912153419107199">
        <ele>1253.22</ele>
        <time>2016-06-03T11:09:57Z</time>
      </trkpt>
      <trkpt lat="43.801000770181417" lon="11.912202956154943">
        <ele>1253.7</ele>
        <time>2016-06-03T11:10:07Z</time>
      </trkpt>
      <trkpt lat="43.800899684429169" lon="11.912193149328232">
        <ele>1254.6600000000001</ele>
        <time>2016-06-03T11:10:17Z</time>
      </trkpt>
      <trkpt lat="43.800788121297956" lon="11.91221795976162">
        <ele>1255.1400000000001</ele>
        <time>2016-06-03T11:10:28Z</time>
      </trkpt>
      <trkpt lat="43.800676893442869" lon="11.912265820428729">
        <ele>1257.0599999999999</ele>
        <time>2016-06-03T11:10:41Z</time>
      </trkpt>
      <trkpt lat="43.800589134916663" lon="11.912307562306523">
        <ele>1258.02</ele>
        <time>2016-06-03T11:10:52Z</time>
      </trkpt>
      <trkpt lat="43.800505483523011" lon="11.91238459199667">
        <ele>1258.98</ele>
        <time>2016-06-03T11:11:02Z</time>
      </trkpt>
      <trkpt lat="43.800419149920344" lon="11.912385178729892">
        <ele>1259.9400000000001</ele>
        <time>2016-06-03T11:11:11Z</time>
      </trkpt>
      <trkpt lat="43.800388891249895" lon="11.912399008870125">
        <ele>1260.4300000000001</ele>
        <time>2016-06-03T11:11:15Z</time>
      </trkpt>
      <trkpt lat="43.800228545442224" lon="11.912404792383313">
        <ele>1260.9100000000001</ele>
        <time>2016-06-03T11:11:29Z</time>
      </trkpt>
      <trkpt lat="43.800113378092647" lon="11.912373946979642">
        <ele>1260.9100000000001</ele>
        <time>2016-06-03T11:11:43Z</time>
      </trkpt>
      <trkpt lat="43.80001924932003" lon="11.912304209545255">
        <ele>1262.3499999999999</ele>
        <time>2016-06-03T11:11:55Z</time>
      </trkpt>
      <trkpt lat="43.799882791936398" lon="11.912259617820382">
        <ele>1264.27</ele>
        <time>2016-06-03T11:12:09Z</time>
      </trkpt>
      <trkpt lat="43.799796374514699" lon="11.912204883992672">
        <ele>1266.1900000000001</ele>
        <time>2016-06-03T11:12:23Z</time>
      </trkpt>
      <trkpt lat="43.799746334552765" lon="11.912246961146593">
        <ele>1266.6700000000001</ele>
        <time>2016-06-03T11:12:30Z</time>
      </trkpt>
      <trkpt lat="43.799712639302015" lon="11.91231032833457">
        <ele>1266.6700000000001</ele>
        <time>2016-06-03T11:12:36Z</time>
      </trkpt>
      <trkpt lat="43.799615576863289" lon="11.91238509491086">
        <ele>1267.1600000000001</ele>
        <time>2016-06-03T11:12:47Z</time>
      </trkpt>
      <trkpt lat="43.799522873014212" lon="11.912448043003678">
        <ele>1267.1600000000001</ele>
        <time>2016-06-03T11:12:58Z</time>
      </trkpt>
      <trkpt lat="43.799427319318056" lon="11.912537226453424">
        <ele>1266.6700000000001</ele>
        <time>2016-06-03T11:13:09Z</time>
      </trkpt>
      <trkpt lat="43.79931022413075" lon="11.91262012347579">
        <ele>1265.71</ele>
        <time>2016-06-03T11:13:20Z</time>
      </trkpt>
      <trkpt lat="43.799292370676994" lon="11.912638144567609">
        <ele>1266.1900000000001</ele>
        <time>2016-06-03T11:13:31Z</time>
      </trkpt>
      <trkpt lat="43.799188518896699" lon="11.912683323025703">
        <ele>1265.71</ele>
        <time>2016-06-03T11:13:39Z</time>
      </trkpt>
      <trkpt lat="43.79906496964395" lon="11.912742499262094">
        <ele>1264.75</ele>
        <time>2016-06-03T11:13:50Z</time>
      </trkpt>
      <trkpt lat="43.798988107591867" lon="11.912798574194312">
        <ele>1264.27</ele>
        <time>2016-06-03T11:14:01Z</time>
      </trkpt>
      <trkpt lat="43.798982743173838" lon="11.912777032703161">
        <ele>1264.27</ele>
        <time>2016-06-03T11:14:22Z</time>
      </trkpt>
      <trkpt lat="43.798894230276346" lon="11.912878789007664">
        <ele>1265.71</ele>
        <time>2016-06-03T11:14:35Z</time>
      </trkpt>
      <trkpt lat="43.798851734027267" lon="11.912935702130198">
        <ele>1266.1900000000001</ele>
        <time>2016-06-03T11:14:49Z</time>
      </trkpt>
      <trkpt lat="43.798851650208235" lon="11.912933019921184">
        <ele>1266.1900000000001</ele>
        <time>2016-06-03T11:15:08Z</time>
      </trkpt>
      <trkpt lat="43.798790294677019" lon="11.912971492856741">
        <ele>1266.1900000000001</ele>
        <time>2016-06-03T11:15:16Z</time>
      </trkpt>
      <trkpt lat="43.798684095963836" lon="11.912993034347892">
        <ele>1266.6700000000001</ele>
        <time>2016-06-03T11:15:26Z</time>
      </trkpt>
      <trkpt lat="43.798656687140465" lon="11.913014575839043">
        <ele>1266.6700000000001</ele>
        <time>2016-06-03T11:15:29Z</time>
      </trkpt>
      <trkpt lat="43.798556858673692" lon="11.91310384310782">
        <ele>1266.1900000000001</ele>
        <time>2016-06-03T11:15:42Z</time>
      </trkpt>
      <trkpt lat="43.798464993014932" lon="11.913112560287118">
        <ele>1263.3099999999999</ele>
        <time>2016-06-03T11:15:53Z</time>
      </trkpt>
      <trkpt lat="43.798350244760513" lon="11.913116248324513">
        <ele>1259.9400000000001</ele>
        <time>2016-06-03T11:16:03Z</time>
      </trkpt>
      <trkpt lat="43.798243459314108" lon="11.913084480911493">
        <ele>1256.5799999999999</ele>
        <time>2016-06-03T11:16:13Z</time>
      </trkpt>
      <trkpt lat="43.798211021348834" lon="11.912986496463418">
        <ele>1254.6600000000001</ele>
        <time>2016-06-03T11:16:24Z</time>
      </trkpt>
      <trkpt lat="43.798225773498416" lon="11.912898486480117">
        <ele>1252.74</ele>
        <time>2016-06-03T11:16:30Z</time>
      </trkpt>
      <trkpt lat="43.798248572275043" lon="11.912760017439723">
        <ele>1250.3299999999999</ele>
        <time>2016-06-03T11:16:40Z</time>
      </trkpt>
      <trkpt lat="43.798194592818618" lon="11.912751635536551">
        <ele>1248.4100000000001</ele>
        <time>2016-06-03T11:16:46Z</time>
      </trkpt>
      <trkpt lat="43.798154192045331" lon="11.912689190357924">
        <ele>1245.53</ele>
        <time>2016-06-03T11:16:56Z</time>
      </trkpt>
      <trkpt lat="43.798090573400259" lon="11.912675946950912">
        <ele>1242.6400000000001</ele>
        <time>2016-06-03T11:17:07Z</time>
      </trkpt>
      <trkpt lat="43.79804665222764" lon="11.912602270022035">
        <ele>1239.76</ele>
        <time>2016-06-03T11:17:16Z</time>
      </trkpt>
      <trkpt lat="43.797974484041333" lon="11.912572178989649">
        <ele>1237.3499999999999</ele>
        <time>2016-06-03T11:17:26Z</time>
      </trkpt>
      <trkpt lat="43.797920253127813" lon="11.912505878135562">
        <ele>1233.99</ele>
        <time>2016-06-03T11:17:33Z</time>
      </trkpt>
      <trkpt lat="43.797867530956864" lon="11.912446701899171">
        <ele>1231.1099999999999</ele>
        <time>2016-06-03T11:17:43Z</time>
      </trkpt>
      <trkpt lat="43.79786292091012" lon="11.912403367459774">
        <ele>1230.1400000000001</ele>
        <time>2016-06-03T11:17:48Z</time>
      </trkpt>
      <trkpt lat="43.797848168760538" lon="11.912398925051093">
        <ele>1229.6600000000001</ele>
        <time>2016-06-03T11:18:00Z</time>
      </trkpt>
      <trkpt lat="43.79778471775353" lon="11.912373024970293">
        <ele>1228.7</ele>
        <time>2016-06-03T11:18:12Z</time>
      </trkpt>
      <trkpt lat="43.797787986695766" lon="11.912343353033066">
        <ele>1228.7</ele>
        <time>2016-06-03T11:18:23Z</time>
      </trkpt>
      <trkpt lat="43.797755716368556" lon="11.91231669858098">
        <ele>1228.7</ele>
        <time>2016-06-03T11:18:46Z</time>
      </trkpt>
      <trkpt lat="43.797795027494431" lon="11.912306305021048">
        <ele>1228.22</ele>
        <time>2016-06-03T11:19:06Z</time>
      </trkpt>
      <trkpt lat="43.797815814614296" lon="11.912287194281816">
        <ele>1228.22</ele>
        <time>2016-06-03T11:19:21Z</time>
      </trkpt>
      <trkpt lat="43.797907344996929" lon="11.912277303636074">
        <ele>1228.7</ele>
        <time>2016-06-03T11:19:44Z</time>
      </trkpt>
      <trkpt lat="43.797872057184577" lon="11.912286607548594">
        <ele>1228.7</ele>
        <time>2016-06-03T11:20:11Z</time>
      </trkpt>
      <trkpt lat="43.797845402732491" lon="11.91225316375494">
        <ele>1228.7</ele>
        <time>2016-06-03T11:20:35Z</time>
      </trkpt>
      <trkpt lat="43.797715315595269" lon="11.912125172093511">
        <ele>1225.3399999999999</ele>
        <time>2016-06-03T11:20:46Z</time>
      </trkpt>
      <trkpt lat="43.797716740518808" lon="11.912106899544597">
        <ele>1225.3399999999999</ele>
        <time>2016-06-03T11:20:47Z</time>
      </trkpt>
      <trkpt lat="43.797781197354198" lon="11.912038000300527">
        <ele>1222.45</ele>
        <time>2016-06-03T11:20:58Z</time>
      </trkpt>
      <trkpt lat="43.797717662528157" lon="11.912030791863799">
        <ele>1220.05</ele>
        <time>2016-06-03T11:21:09Z</time>
      </trkpt>
      <trkpt lat="43.797684386372566" lon="11.911963066086173">
        <ele>1217.1700000000001</ele>
        <time>2016-06-03T11:21:20Z</time>
      </trkpt>
      <trkpt lat="43.797770300880075" lon="11.91189986653626">
        <ele>1214.76</ele>
        <time>2016-06-03T11:21:30Z</time>
      </trkpt>
      <trkpt lat="43.797814305871725" lon="11.911834822967649">
        <ele>1211.8800000000001</ele>
        <time>2016-06-03T11:21:41Z</time>
      </trkpt>
      <trkpt lat="43.797784298658371" lon="11.911755781620741">
        <ele>1209.48</ele>
        <time>2016-06-03T11:21:52Z</time>
      </trkpt>
      <trkpt lat="43.797702575102448" lon="11.911664586514235">
        <ele>1206.5899999999999</ele>
        <time>2016-06-03T11:22:03Z</time>
      </trkpt>
      <trkpt lat="43.797670472413301" lon="11.911594178527594">
        <ele>1203.71</ele>
        <time>2016-06-03T11:22:14Z</time>
      </trkpt>
      <trkpt lat="43.797618336975574" lon="11.911553358659148">
        <ele>1200.8199999999999</ele>
        <time>2016-06-03T11:22:24Z</time>
      </trkpt>
      <trkpt lat="43.797577852383256" lon="11.911503653973341">
        <ele>1198.4200000000001</ele>
        <time>2016-06-03T11:22:30Z</time>
      </trkpt>
      <trkpt lat="43.797509204596281" lon="11.911479346454144">
        <ele>1196.5</ele>
        <time>2016-06-03T11:22:42Z</time>
      </trkpt>
      <trkpt lat="43.797487830743194" lon="11.911469120532274">
        <ele>1196.02</ele>
        <time>2016-06-03T11:22:46Z</time>
      </trkpt>
      <trkpt lat="43.797471653670073" lon="11.911389073356986">
        <ele>1192.6500000000001</ele>
        <time>2016-06-03T11:22:55Z</time>
      </trkpt>
      <trkpt lat="43.797438042238355" lon="11.911297710612416">
        <ele>1189.77</ele>
        <time>2016-06-03T11:23:05Z</time>
      </trkpt>
      <trkpt lat="43.797410884872079" lon="11.911273235455155">
        <ele>1188.3299999999999</ele>
        <time>2016-06-03T11:23:08Z</time>
      </trkpt>
      <trkpt lat="43.797399736940861" lon="11.911192182451487">
        <ele>1186.4000000000001</ele>
        <time>2016-06-03T11:23:14Z</time>
      </trkpt>
      <trkpt lat="43.797351960092783" lon="11.911093024536967">
        <ele>1182.5599999999999</ele>
        <time>2016-06-03T11:23:24Z</time>
      </trkpt>
      <trkpt lat="43.797308541834354" lon="11.911112470552325">
        <ele>1179.6700000000001</ele>
        <time>2016-06-03T11:23:32Z</time>
      </trkpt>
      <trkpt lat="43.797218604013324" lon="11.91109805367887">
        <ele>1177.27</ele>
        <time>2016-06-03T11:23:41Z</time>
      </trkpt>
      <trkpt lat="43.797138975933194" lon="11.911150356754661">
        <ele>1173.9100000000001</ele>
        <time>2016-06-03T11:23:52Z</time>
      </trkpt>
      <trkpt lat="43.79711190238595" lon="11.911076679825783">
        <ele>1170.54</ele>
        <time>2016-06-03T11:24:03Z</time>
      </trkpt>
      <trkpt lat="43.797061946243048" lon="11.911024795845151">
        <ele>1168.6199999999999</ele>
        <time>2016-06-03T11:24:13Z</time>
      </trkpt>
      <trkpt lat="43.7970523070544" lon="11.910944245755672">
        <ele>1165.74</ele>
        <time>2016-06-03T11:24:25Z</time>
      </trkpt>
      <trkpt lat="43.796971254050732" lon="11.91089378669858">
        <ele>1162.8499999999999</ele>
        <time>2016-06-03T11:24:37Z</time>
      </trkpt>
      <trkpt lat="43.797074435278773" lon="11.910786833614111">
        <ele>1160.9300000000001</ele>
        <time>2016-06-03T11:24:48Z</time>
      </trkpt>
      <trkpt lat="43.797029843553901" lon="11.910831844434142">
        <ele>1160.9300000000001</ele>
        <time>2016-06-03T11:25:00Z</time>
      </trkpt>
      <trkpt lat="43.796931188553572" lon="11.910897810012102">
        <ele>1161.4100000000001</ele>
        <time>2016-06-03T11:25:12Z</time>
      </trkpt>
      <trkpt lat="43.796925991773605" lon="11.910891188308597">
        <ele>1161.4100000000001</ele>
        <time>2016-06-03T11:25:25Z</time>
      </trkpt>
      <trkpt lat="43.796819793060422" lon="11.910922955721617">
        <ele>1160.9300000000001</ele>
        <time>2016-06-03T11:25:36Z</time>
      </trkpt>
      <trkpt lat="43.79675961099565" lon="11.910936618223786">
        <ele>1162.3699999999999</ele>
        <time>2016-06-03T11:25:42Z</time>
      </trkpt>
      <trkpt lat="43.796674618497491" lon="11.910998141393065">
        <ele>1162.3699999999999</ele>
        <time>2016-06-03T11:25:50Z</time>
      </trkpt>
      <trkpt lat="43.796487366780639" lon="11.911023957654834">
        <ele>1163.3299999999999</ele>
        <time>2016-06-03T11:26:03Z</time>
      </trkpt>
      <trkpt lat="43.796405056491494" lon="11.911051953211427">
        <ele>1163.3299999999999</ele>
        <time>2016-06-03T11:26:10Z</time>
      </trkpt>
      <trkpt lat="43.796259127557278" lon="11.911101490259171">
        <ele>1164.29</ele>
        <time>2016-06-03T11:26:22Z</time>
      </trkpt>
      <trkpt lat="43.796253176406026" lon="11.911109704524279">
        <ele>1164.29</ele>
        <time>2016-06-03T11:26:23Z</time>
      </trkpt>
      <trkpt lat="43.796260887756944" lon="11.91114884801209">
        <ele>1164.29</ele>
        <time>2016-06-03T11:26:31Z</time>
      </trkpt>
      <trkpt lat="43.796301791444421" lon="11.911326795816422">
        <ele>1164.77</ele>
        <time>2016-06-03T11:26:44Z</time>
      </trkpt>
      <trkpt lat="43.796349316835403" lon="11.911531398072839">
        <ele>1165.74</ele>
        <time>2016-06-03T11:26:56Z</time>
      </trkpt>
      <trkpt lat="43.79638141952455" lon="11.911721164360642">
        <ele>1165.74</ele>
        <time>2016-06-03T11:27:07Z</time>
      </trkpt>
      <trkpt lat="43.796414779499173" lon="11.911983015015721">
        <ele>1165.74</ele>
        <time>2016-06-03T11:27:20Z</time>
      </trkpt>
      <trkpt lat="43.796475296840072" lon="11.912095667794347">
        <ele>1166.7</ele>
        <time>2016-06-03T11:27:31Z</time>
      </trkpt>
      <trkpt lat="43.79654947668314" lon="11.912222653627396">
        <ele>1167.1800000000001</ele>
        <time>2016-06-03T11:27:44Z</time>
      </trkpt>
      <trkpt lat="43.796634385362267" lon="11.912358105182648">
        <ele>1167.6600000000001</ele>
        <time>2016-06-03T11:27:57Z</time>
      </trkpt>
      <trkpt lat="43.796716695651412" lon="11.912586009129882">
        <ele>1167.6600000000001</ele>
        <time>2016-06-03T11:28:09Z</time>
      </trkpt>
      <trkpt lat="43.796738991513848" lon="11.912799831479788">
        <ele>1167.6600000000001</ele>
        <time>2016-06-03T11:28:22Z</time>
      </trkpt>
      <trkpt lat="43.796753324568272" lon="11.913001248613">
        <ele>1168.1400000000001</ele>
        <time>2016-06-03T11:28:35Z</time>
      </trkpt>
      <trkpt lat="43.796769166365266" lon="11.913203923031688">
        <ele>1168.6199999999999</ele>
        <time>2016-06-03T11:28:47Z</time>
      </trkpt>
      <trkpt lat="43.796807639300823" lon="11.913393940776587">
        <ele>1169.0999999999999</ele>
        <time>2016-06-03T11:28:59Z</time>
      </trkpt>
      <trkpt lat="43.796862876042724" lon="11.913593346253037">
        <ele>1169.5799999999999</ele>
        <time>2016-06-03T11:29:10Z</time>
      </trkpt>
      <trkpt lat="43.796964716166258" lon="11.913696527481079">
        <ele>1170.54</ele>
        <time>2016-06-03T11:29:22Z</time>
      </trkpt>
      <trkpt lat="43.797065550461411" lon="11.913804486393929">
        <ele>1171.02</ele>
        <time>2016-06-03T11:29:33Z</time>
      </trkpt>
      <trkpt lat="43.797158757224679" lon="11.913832984864712">
        <ele>1171.5</ele>
        <time>2016-06-03T11:29:43Z</time>
      </trkpt>
      <trkpt lat="43.797325221821666" lon="11.913779592141509">
        <ele>1171.98</ele>
        <time>2016-06-03T11:29:57Z</time>
      </trkpt>
      <trkpt lat="43.797464864328504" lon="11.913944547995925">
        <ele>1172.47</ele>
        <time>2016-06-03T11:30:09Z</time>
      </trkpt>
      <trkpt lat="43.797505851835012" lon="11.914160465821624">
        <ele>1172.47</ele>
        <time>2016-06-03T11:30:19Z</time>
      </trkpt>
      <trkpt lat="43.797516245394945" lon="11.914340676739812">
        <ele>1172.95</ele>
        <time>2016-06-03T11:30:29Z</time>
      </trkpt>
      <trkpt lat="43.797510378062725" lon="11.914377892389894">
        <ele>1173.4300000000001</ele>
        <time>2016-06-03T11:30:33Z</time>
      </trkpt>
      <trkpt lat="43.797498978674412" lon="11.914600683376193">
        <ele>1173.9100000000001</ele>
        <time>2016-06-03T11:30:45Z</time>
      </trkpt>
      <trkpt lat="43.797466373071074" lon="11.914815846830606">
        <ele>1174.8699999999999</ele>
        <time>2016-06-03T11:30:57Z</time>
      </trkpt>
      <trkpt lat="43.797444915398955" lon="11.914916094392538">
        <ele>1174.8699999999999</ele>
        <time>2016-06-03T11:31:08Z</time>
      </trkpt>
      <trkpt lat="43.797434773296118" lon="11.914943335577846">
        <ele>1174.8699999999999</ele>
        <time>2016-06-03T11:31:20Z</time>
      </trkpt>
      <trkpt lat="43.797426894307137" lon="11.915011731907725">
        <ele>1176.3099999999999</ele>
        <time>2016-06-03T11:31:31Z</time>
      </trkpt>
      <trkpt lat="43.797419350594282" lon="11.915048863738775">
        <ele>1177.27</ele>
        <time>2016-06-03T11:31:46Z</time>
      </trkpt>
      <trkpt lat="43.797362772747874" lon="11.915118601173162">
        <ele>1179.6700000000001</ele>
        <time>2016-06-03T11:31:57Z</time>
      </trkpt>
      <trkpt lat="43.797325808554888" lon="11.915168724954128">
        <ele>1180.6400000000001</ele>
        <time>2016-06-03T11:32:04Z</time>
      </trkpt>
      <trkpt lat="43.797329245135188" lon="11.915197391062975">
        <ele>1182.0799999999999</ele>
        <time>2016-06-03T11:32:06Z</time>
      </trkpt>
      <trkpt lat="43.797333855181932" lon="11.915298141539097">
        <ele>1183.04</ele>
        <time>2016-06-03T11:32:16Z</time>
      </trkpt>
      <trkpt lat="43.797311894595623" lon="11.915377015247941">
        <ele>1185.4400000000001</ele>
        <time>2016-06-03T11:32:27Z</time>
      </trkpt>
      <trkpt lat="43.797295801341534" lon="11.915460079908371">
        <ele>1187.8499999999999</ele>
        <time>2016-06-03T11:32:37Z</time>
      </trkpt>
      <trkpt lat="43.797264704480767" lon="11.915531074628234">
        <ele>1189.77</ele>
        <time>2016-06-03T11:32:48Z</time>
      </trkpt>
      <trkpt lat="43.797240983694792" lon="11.915659736841917">
        <ele>1191.21</ele>
        <time>2016-06-03T11:33:01Z</time>
      </trkpt>
      <trkpt lat="43.797164373099804" lon="11.915760152041912">
        <ele>1192.1700000000001</ele>
        <time>2016-06-03T11:33:16Z</time>
      </trkpt>
      <trkpt lat="43.79708306863904" lon="11.915848329663277">
        <ele>1193.1300000000001</ele>
        <time>2016-06-03T11:33:28Z</time>
      </trkpt>
      <trkpt lat="43.797037554904819" lon="11.915912199765444">
        <ele>1193.1300000000001</ele>
        <time>2016-06-03T11:33:39Z</time>
      </trkpt>
      <trkpt lat="43.797030430287123" lon="11.915916474536061">
        <ele>1195.0599999999999</ele>
        <time>2016-06-03T11:33:41Z</time>
      </trkpt>
      <trkpt lat="43.79701173864305" lon="11.916013788431883">
        <ele>1197.46</ele>
        <time>2016-06-03T11:33:54Z</time>
      </trkpt>
      <trkpt lat="43.796967985108495" lon="11.916104983538389">
        <ele>1199.8599999999999</ele>
        <time>2016-06-03T11:34:06Z</time>
      </trkpt>
      <trkpt lat="43.796937139704823" lon="11.91616072319448">
        <ele>1198.9000000000001</ele>
        <time>2016-06-03T11:34:18Z</time>
      </trkpt>
      <trkpt lat="43.796824738383293" lon="11.91618125885725">
        <ele>1200.3399999999999</ele>
        <time>2016-06-03T11:34:31Z</time>
      </trkpt>
      <trkpt lat="43.796710660681129" lon="11.916205650195479">
        <ele>1201.79</ele>
        <time>2016-06-03T11:34:43Z</time>
      </trkpt>
      <trkpt lat="43.796592811122537" lon="11.916255103424191">
        <ele>1202.75</ele>
        <time>2016-06-03T11:34:56Z</time>
      </trkpt>
      <trkpt lat="43.796573281288147" lon="11.916268765926361">
        <ele>1202.75</ele>
        <time>2016-06-03T11:34:58Z</time>
      </trkpt>
      <trkpt lat="43.796475464478135" lon="11.916311681270599">
        <ele>1203.23</ele>
        <time>2016-06-03T11:35:11Z</time>
      </trkpt>
      <trkpt lat="43.796425256878138" lon="11.9163219910115">
        <ele>1203.23</ele>
        <time>2016-06-03T11:35:21Z</time>
      </trkpt>
      <trkpt lat="43.796334397047758" lon="11.916381837800145">
        <ele>1203.23</ele>
        <time>2016-06-03T11:35:31Z</time>
      </trkpt>
      <trkpt lat="43.796249991282821" lon="11.916429614648223">
        <ele>1203.23</ele>
        <time>2016-06-03T11:35:42Z</time>
      </trkpt>
      <trkpt lat="43.796110348775983" lon="11.916514271870255">
        <ele>1200.8199999999999</ele>
        <time>2016-06-03T11:35:56Z</time>
      </trkpt>
      <trkpt lat="43.79605159163475" lon="11.916633965447545">
        <ele>1201.3</ele>
        <time>2016-06-03T11:36:08Z</time>
      </trkpt>
      <trkpt lat="43.795964084565639" lon="11.916767908260226">
        <ele>1199.8599999999999</ele>
        <time>2016-06-03T11:36:22Z</time>
      </trkpt>
      <trkpt lat="43.795917229726911" lon="11.9169264100492">
        <ele>1199.3800000000001</ele>
        <time>2016-06-03T11:36:35Z</time>
      </trkpt>
      <trkpt lat="43.79581949673593" lon="11.917107794433832">
        <ele>1199.3800000000001</ele>
        <time>2016-06-03T11:36:49Z</time>
      </trkpt>
      <trkpt lat="43.79576476290822" lon="11.917248610407114">
        <ele>1198.4200000000001</ele>
        <time>2016-06-03T11:37:00Z</time>
      </trkpt>
      <trkpt lat="43.79573835991323" lon="11.917338129132986">
        <ele>1198.9000000000001</ele>
        <time>2016-06-03T11:37:06Z</time>
      </trkpt>
      <trkpt lat="43.79563475959003" lon="11.917475089430809">
        <ele>1197.46</ele>
        <time>2016-06-03T11:37:16Z</time>
      </trkpt>
      <trkpt lat="43.795513221994042" lon="11.917619341984391">
        <ele>1195.54</ele>
        <time>2016-06-03T11:37:27Z</time>
      </trkpt>
      <trkpt lat="43.79544323310256" lon="11.917846826836467">
        <ele>1193.6099999999999</ele>
        <time>2016-06-03T11:37:39Z</time>
      </trkpt>
      <trkpt lat="43.795390175655484" lon="11.91796132363379">
        <ele>1192.6500000000001</ele>
        <time>2016-06-03T11:37:49Z</time>
      </trkpt>
      <trkpt lat="43.795252125710249" lon="11.91794129088521">
        <ele>1190.25</ele>
        <time>2016-06-03T11:38:01Z</time>
      </trkpt>
      <trkpt lat="43.795213652774692" lon="11.917925784364343">
        <ele>1189.29</ele>
        <time>2016-06-03T11:38:04Z</time>
      </trkpt>
      <trkpt lat="43.795096976682544" lon="11.917878342792392">
        <ele>1187.8499999999999</ele>
        <time>2016-06-03T11:38:16Z</time>
      </trkpt>
      <trkpt lat="43.794985916465521" lon="11.917922347784042">
        <ele>1186.8800000000001</ele>
        <time>2016-06-03T11:38:28Z</time>
      </trkpt>
      <trkpt lat="43.794972253963351" lon="11.917926454916596">
        <ele>1186.4000000000001</ele>
        <time>2016-06-03T11:38:29Z</time>
      </trkpt>
      <trkpt lat="43.794808387756348" lon="11.918008178472519">
        <ele>1184.48</ele>
        <time>2016-06-03T11:38:44Z</time>
      </trkpt>
      <trkpt lat="43.794738734140992" lon="11.918052267283201">
        <ele>1184.48</ele>
        <time>2016-06-03T11:38:50Z</time>
      </trkpt>
      <trkpt lat="43.794687688350677" lon="11.91809669137001">
        <ele>1184</ele>
        <time>2016-06-03T11:38:55Z</time>
      </trkpt>
      <trkpt lat="43.794567408040166" lon="11.918218983337283">
        <ele>1185.4400000000001</ele>
        <time>2016-06-03T11:39:11Z</time>
      </trkpt>
      <trkpt lat="43.794554583728313" lon="11.918233148753643">
        <ele>1185.9200000000001</ele>
        <time>2016-06-03T11:39:13Z</time>
      </trkpt>
      <trkpt lat="43.794459030032158" lon="11.918322667479515">
        <ele>1184.96</ele>
        <time>2016-06-03T11:39:27Z</time>
      </trkpt>
      <trkpt lat="43.794387197121978" lon="11.91849390976131">
        <ele>1183.04</ele>
        <time>2016-06-03T11:39:40Z</time>
      </trkpt>
      <trkpt lat="43.794322991743684" lon="11.918630534783006">
        <ele>1181.5999999999999</ele>
        <time>2016-06-03T11:39:51Z</time>
      </trkpt>
      <trkpt lat="43.794314861297607" lon="11.918659871444106">
        <ele>1180.6400000000001</ele>
        <time>2016-06-03T11:39:53Z</time>
      </trkpt>
      <trkpt lat="43.794240262359381" lon="11.918849470093846">
        <ele>1179.1900000000001</ele>
        <time>2016-06-03T11:40:06Z</time>
      </trkpt>
      <trkpt lat="43.794182930141687" lon="11.919051641598344">
        <ele>1178.71</ele>
        <time>2016-06-03T11:40:19Z</time>
      </trkpt>
      <trkpt lat="43.794162813574076" lon="11.919261859729886">
        <ele>1177.75</ele>
        <time>2016-06-03T11:40:32Z</time>
      </trkpt>
      <trkpt lat="43.794155521318316" lon="11.919468306005001">
        <ele>1177.27</ele>
        <time>2016-06-03T11:40:45Z</time>
      </trkpt>
      <trkpt lat="43.794135991483927" lon="11.919626472517848">
        <ele>1176.79</ele>
        <time>2016-06-03T11:40:55Z</time>
      </trkpt>
      <trkpt lat="43.794128950685263" lon="11.919762091711164">
        <ele>1177.27</ele>
        <time>2016-06-03T11:41:04Z</time>
      </trkpt>
      <trkpt lat="43.794126687571406" lon="11.919863177463412">
        <ele>1178.23</ele>
        <time>2016-06-03T11:41:10Z</time>
      </trkpt>
      <trkpt lat="43.794146133586764" lon="11.920047327876091">
        <ele>1179.1900000000001</ele>
        <time>2016-06-03T11:41:22Z</time>
      </trkpt>
      <trkpt lat="43.794177230447531" lon="11.920227287337184">
        <ele>1180.6400000000001</ele>
        <time>2016-06-03T11:41:34Z</time>
      </trkpt>
      <trkpt lat="43.794202459976077" lon="11.920360727235675">
        <ele>1180.1600000000001</ele>
        <time>2016-06-03T11:41:44Z</time>
      </trkpt>
      <trkpt lat="43.794185528531671" lon="11.920544374734163">
        <ele>1180.6400000000001</ele>
        <time>2016-06-03T11:41:56Z</time>
      </trkpt>
      <trkpt lat="43.794185612350702" lon="11.920721735805273">
        <ele>1182.0799999999999</ele>
        <time>2016-06-03T11:42:07Z</time>
      </trkpt>
      <trkpt lat="43.794172452762723" lon="11.920775631442666">
        <ele>1184</ele>
        <time>2016-06-03T11:42:12Z</time>
      </trkpt>
      <trkpt lat="43.794174967333674" lon="11.920818630605936">
        <ele>1182.0799999999999</ele>
        <time>2016-06-03T11:42:18Z</time>
      </trkpt>
      <trkpt lat="43.794183013960719" lon="11.920946035534143">
        <ele>1180.6400000000001</ele>
        <time>2016-06-03T11:42:31Z</time>
      </trkpt>
      <trkpt lat="43.794180834665895" lon="11.921172430738807">
        <ele>1178.71</ele>
        <time>2016-06-03T11:42:43Z</time>
      </trkpt>
      <trkpt lat="43.79416985437274" lon="11.921315509825945">
        <ele>1176.79</ele>
        <time>2016-06-03T11:42:53Z</time>
      </trkpt>
      <trkpt lat="43.794149402529001" lon="11.921472251415253">
        <ele>1173.4300000000001</ele>
        <time>2016-06-03T11:43:05Z</time>
      </trkpt>
      <trkpt lat="43.794144876301289" lon="11.92156788893044">
        <ele>1171.5</ele>
        <time>2016-06-03T11:43:14Z</time>
      </trkpt>
      <trkpt lat="43.794136075302958" lon="11.921568224206567">
        <ele>1171.5</ele>
        <time>2016-06-03T11:43:27Z</time>
      </trkpt>
      <trkpt lat="43.79410925321281" lon="11.921626562252641">
        <ele>1170.54</ele>
        <time>2016-06-03T11:43:41Z</time>
      </trkpt>
      <trkpt lat="43.794048149138689" lon="11.921691689640284">
        <ele>1170.54</ele>
        <time>2016-06-03T11:43:54Z</time>
      </trkpt>
      <trkpt lat="43.794060638174415" lon="11.921696551144123">
        <ele>1170.54</ele>
        <time>2016-06-03T11:44:11Z</time>
      </trkpt>
      <trkpt lat="43.794019231572747" lon="11.921685067936778">
        <ele>1170.54</ele>
        <time>2016-06-03T11:44:28Z</time>
      </trkpt>
      <trkpt lat="43.794050328433514" lon="11.921715242788196">
        <ele>1171.02</ele>
        <time>2016-06-03T11:44:46Z</time>
      </trkpt>
      <trkpt lat="43.794067930430174" lon="11.921730162575841">
        <ele>1170.54</ele>
        <time>2016-06-03T11:45:00Z</time>
      </trkpt>
      <trkpt lat="43.794048903509974" lon="11.921679619699717">
        <ele>1171.02</ele>
        <time>2016-06-03T11:45:26Z</time>
      </trkpt>
      <trkpt lat="43.794080168008804" lon="11.921702586114407">
        <ele>1171.02</ele>
        <time>2016-06-03T11:45:49Z</time>
      </trkpt>
      <trkpt lat="43.794166836887598" lon="11.921691270545125">
        <ele>1171.02</ele>
        <time>2016-06-03T11:46:11Z</time>
      </trkpt>
      <trkpt lat="43.794109588488936" lon="11.921753799542785">
        <ele>1171.5</ele>
        <time>2016-06-03T11:46:43Z</time>
      </trkpt>
      <trkpt lat="43.794158035889268" lon="11.921715578064322">
        <ele>1171.5</ele>
        <time>2016-06-03T11:47:14Z</time>
      </trkpt>
      <trkpt lat="43.794089471921325" lon="11.921660425141454">
        <ele>1172.95</ele>
        <time>2016-06-03T11:47:31Z</time>
      </trkpt>
      <trkpt lat="43.794039348140359" lon="11.921697892248631">
        <ele>1171.98</ele>
        <time>2016-06-03T11:48:01Z</time>
      </trkpt>
      <trkpt lat="43.794012945145369" lon="11.921770479530096">
        <ele>1171.98</ele>
        <time>2016-06-03T11:48:25Z</time>
      </trkpt>
      <trkpt lat="43.794083604589105" lon="11.921737790107727">
        <ele>1172.47</ele>
        <time>2016-06-03T11:48:51Z</time>
      </trkpt>
      <trkpt lat="43.794099697843194" lon="11.921711135655642">
        <ele>1172.47</ele>
        <time>2016-06-03T11:49:15Z</time>
      </trkpt>
      <trkpt lat="43.794100452214479" lon="11.921726390719414">
        <ele>1172.95</ele>
        <time>2016-06-03T11:49:44Z</time>
      </trkpt>
      <trkpt lat="43.794079665094614" lon="11.921729575842619">
        <ele>1173.9100000000001</ele>
        <time>2016-06-03T11:50:11Z</time>
      </trkpt>
      <trkpt lat="43.794121742248535" lon="11.921710465103388">
        <ele>1174.3900000000001</ele>
        <time>2016-06-03T11:50:38Z</time>
      </trkpt>
      <trkpt lat="43.794108079746366" lon="11.921697724610567">
        <ele>1174.8699999999999</ele>
        <time>2016-06-03T11:51:08Z</time>
      </trkpt>
      <trkpt lat="43.794077318161726" lon="11.921749021857977">
        <ele>1174.8699999999999</ele>
        <time>2016-06-03T11:51:37Z</time>
      </trkpt>
      <trkpt lat="43.794088214635849" lon="11.921749105677009">
        <ele>1175.3499999999999</ele>
        <time>2016-06-03T11:52:05Z</time>
      </trkpt>
      <trkpt lat="43.794093411415815" lon="11.921730581671">
        <ele>1175.8299999999999</ele>
        <time>2016-06-03T11:52:31Z</time>
      </trkpt>
      <trkpt lat="43.79410782828927" lon="11.921705268323421">
        <ele>1176.3099999999999</ele>
        <time>2016-06-03T11:53:00Z</time>
      </trkpt>
      <trkpt lat="43.794102966785431" lon="11.921689594164491">
        <ele>1176.3099999999999</ele>
        <time>2016-06-03T11:53:27Z</time>
      </trkpt>
      <trkpt lat="43.794101625680923" lon="11.92167735658586">
        <ele>1176.79</ele>
        <time>2016-06-03T11:53:55Z</time>
      </trkpt>
      <trkpt lat="43.794134398922324" lon="11.921710716560483">
        <ele>1177.75</ele>
        <time>2016-06-03T11:54:28Z</time>
      </trkpt>
      <trkpt lat="43.7941131927073" lon="11.921691773459315">
        <ele>1177.75</ele>
        <time>2016-06-03T11:54:56Z</time>
      </trkpt>
      <trkpt lat="43.794181505218148" lon="11.921723876148462">
        <ele>1178.23</ele>
        <time>2016-06-03T11:55:20Z</time>
      </trkpt>
      <trkpt lat="43.794186618179083" lon="11.921753464266658">
        <ele>1178.23</ele>
        <time>2016-06-03T11:55:44Z</time>
      </trkpt>
      <trkpt lat="43.794182175770402" lon="11.921731838956475">
        <ele>1178.23</ele>
        <time>2016-06-03T11:56:07Z</time>
      </trkpt>
      <trkpt lat="43.794145798310637" lon="11.921710716560483">
        <ele>1178.71</ele>
        <time>2016-06-03T11:56:26Z</time>
      </trkpt>
      <trkpt lat="43.794131800532341" lon="11.921740220859647">
        <ele>1178.71</ele>
        <time>2016-06-03T11:56:56Z</time>
      </trkpt>
      <trkpt lat="43.794136829674244" lon="11.921723540872335">
        <ele>1179.1900000000001</ele>
        <time>2016-06-03T11:57:20Z</time>
      </trkpt>
      <trkpt lat="43.79409802146256" lon="11.921682637184858">
        <ele>1179.6700000000001</ele>
        <time>2016-06-03T11:57:50Z</time>
      </trkpt>
      <trkpt lat="43.794093914330006" lon="11.921702921390533">
        <ele>1179.6700000000001</ele>
        <time>2016-06-03T11:58:12Z</time>
      </trkpt>
      <trkpt lat="43.794088214635849" lon="11.921739717945457">
        <ele>1179.6700000000001</ele>
        <time>2016-06-03T11:58:43Z</time>
      </trkpt>
      <trkpt lat="43.794068684801459" lon="11.921712728217244">
        <ele>1180.6400000000001</ele>
        <time>2016-06-03T11:59:01Z</time>
      </trkpt>
      <trkpt lat="43.794032307341695" lon="11.921680457890034">
        <ele>1181.1199999999999</ele>
        <time>2016-06-03T11:59:15Z</time>
      </trkpt>
      <trkpt lat="43.794017136096954" lon="11.921642739325762">
        <ele>1181.1199999999999</ele>
        <time>2016-06-03T11:59:33Z</time>
      </trkpt>
      <trkpt lat="43.794073630124331" lon="11.921642906963825">
        <ele>1181.1199999999999</ele>
        <time>2016-06-03T11:59:49Z</time>
      </trkpt>
      <trkpt lat="43.79407019354403" lon="11.921661095693707">
        <ele>1181.5999999999999</ele>
        <time>2016-06-03T12:00:07Z</time>
      </trkpt>
      <trkpt lat="43.794024679809809" lon="11.921680876985192">
        <ele>1181.1199999999999</ele>
        <time>2016-06-03T12:00:29Z</time>
      </trkpt>
      <trkpt lat="43.794023841619492" lon="11.921687079593539">
        <ele>1181.5999999999999</ele>
        <time>2016-06-03T12:00:45Z</time>
      </trkpt>
      <trkpt lat="43.794010849669576" lon="11.921729659661651">
        <ele>1182.0799999999999</ele>
        <time>2016-06-03T12:01:08Z</time>
      </trkpt>
      <trkpt lat="43.794004311785102" lon="11.921735191717744">
        <ele>1182.0799999999999</ele>
        <time>2016-06-03T12:01:25Z</time>
      </trkpt>
      <trkpt lat="43.794013867154717" lon="11.92168565467">
        <ele>1182.0799999999999</ele>
        <time>2016-06-03T12:01:39Z</time>
      </trkpt>
      <trkpt lat="43.794000707566738" lon="11.921676602214575">
        <ele>1182.0799999999999</ele>
        <time>2016-06-03T12:01:52Z</time>
      </trkpt>
      <trkpt lat="43.793945387005806" lon="11.921559339389205">
        <ele>1183.52</ele>
        <time>2016-06-03T12:02:04Z</time>
      </trkpt>
      <trkpt lat="43.793860729783773" lon="11.921489685773849">
        <ele>1184.48</ele>
        <time>2016-06-03T12:02:17Z</time>
      </trkpt>
      <trkpt lat="43.793827285990119" lon="11.921388348564506">
        <ele>1186.4000000000001</ele>
        <time>2016-06-03T12:02:29Z</time>
      </trkpt>
      <trkpt lat="43.793784538283944" lon="11.921302517876029">
        <ele>1187.8499999999999</ele>
        <time>2016-06-03T12:02:41Z</time>
      </trkpt>
      <trkpt lat="43.793722428381443" lon="11.921196905896068">
        <ele>1189.29</ele>
        <time>2016-06-03T12:02:53Z</time>
      </trkpt>
      <trkpt lat="43.793685799464583" lon="11.921120043843985">
        <ele>1190.25</ele>
        <time>2016-06-03T12:03:04Z</time>
      </trkpt>
      <trkpt lat="43.793628215789795" lon="11.920962044969201">
        <ele>1191.21</ele>
        <time>2016-06-03T12:03:19Z</time>
      </trkpt>
      <trkpt lat="43.7935796007514" lon="11.920841094106436">
        <ele>1193.1300000000001</ele>
        <time>2016-06-03T12:03:33Z</time>
      </trkpt>
      <trkpt lat="43.793484717607498" lon="11.920769177377224">
        <ele>1194.0899999999999</ele>
        <time>2016-06-03T12:03:46Z</time>
      </trkpt>
      <trkpt lat="43.793388241901994" lon="11.920693824067712">
        <ele>1195.0599999999999</ele>
        <time>2016-06-03T12:03:56Z</time>
      </trkpt>
      <trkpt lat="43.793294867500663" lon="11.920648645609617">
        <ele>1196.5</ele>
        <time>2016-06-03T12:04:08Z</time>
      </trkpt>
      <trkpt lat="43.793217586353421" lon="11.920634480193257">
        <ele>1198.4200000000001</ele>
        <time>2016-06-03T12:04:19Z</time>
      </trkpt>
      <trkpt lat="43.793154135346413" lon="11.920571196824312">
        <ele>1200.8199999999999</ele>
        <time>2016-06-03T12:04:32Z</time>
      </trkpt>
      <trkpt lat="43.793175760656595" lon="11.920414622873068">
        <ele>1202.27</ele>
        <time>2016-06-03T12:04:44Z</time>
      </trkpt>
      <trkpt lat="43.793203588575125" lon="11.920289061963558">
        <ele>1201.79</ele>
        <time>2016-06-03T12:04:54Z</time>
      </trkpt>
      <trkpt lat="43.793176179751754" lon="11.920167608186603">
        <ele>1200.3399999999999</ele>
        <time>2016-06-03T12:05:07Z</time>
      </trkpt>
      <trkpt lat="43.793158829212189" lon="11.92008588463068">
        <ele>1199.3800000000001</ele>
        <time>2016-06-03T12:05:13Z</time>
      </trkpt>
      <trkpt lat="43.793129241093993" lon="11.919932747259736">
        <ele>1197.9400000000001</ele>
        <time>2016-06-03T12:05:25Z</time>
      </trkpt>
      <trkpt lat="43.79309588111937" lon="11.919757900759578">
        <ele>1197.9400000000001</ele>
        <time>2016-06-03T12:05:38Z</time>
      </trkpt>
      <trkpt lat="43.793057575821877" lon="11.919592777267098">
        <ele>1196.5</ele>
        <time>2016-06-03T12:05:49Z</time>
      </trkpt>
      <trkpt lat="43.792990269139409" lon="11.91941742785275">
        <ele>1196.5</ele>
        <time>2016-06-03T12:06:00Z</time>
      </trkpt>
      <trkpt lat="43.792972415685654" lon="11.919376356527209">
        <ele>1196.02</ele>
        <time>2016-06-03T12:06:04Z</time>
      </trkpt>
      <trkpt lat="43.792947186157107" lon="11.919349618256092">
        <ele>1196.02</ele>
        <time>2016-06-03T12:06:07Z</time>
      </trkpt>
      <trkpt lat="43.792831683531404" lon="11.91921466961503">
        <ele>1196.5</ele>
        <time>2016-06-03T12:06:22Z</time>
      </trkpt>
      <trkpt lat="43.792711151763797" lon="11.919143255800009">
        <ele>1196.98</ele>
        <time>2016-06-03T12:06:34Z</time>
      </trkpt>
      <trkpt lat="43.792594559490681" lon="11.91911400295794">
        <ele>1197.46</ele>
        <time>2016-06-03T12:06:45Z</time>
      </trkpt>
      <trkpt lat="43.792507806792855" lon="11.919076703488827">
        <ele>1196.98</ele>
        <time>2016-06-03T12:06:55Z</time>
      </trkpt>
      <trkpt lat="43.792462041601539" lon="11.918980898335576">
        <ele>1196.98</ele>
        <time>2016-06-03T12:07:04Z</time>
      </trkpt>
      <trkpt lat="43.792349053546786" lon="11.918876292183995">
        <ele>1194.5799999999999</ele>
        <time>2016-06-03T12:07:16Z</time>
      </trkpt>
      <trkpt lat="43.792252745479345" lon="11.918787946924567">
        <ele>1192.6500000000001</ele>
        <time>2016-06-03T12:07:26Z</time>
      </trkpt>
      <trkpt lat="43.792202454060316" lon="11.918733632192016">
        <ele>1191.21</ele>
        <time>2016-06-03T12:07:30Z</time>
      </trkpt>
      <trkpt lat="43.792123245075345" lon="11.918676802888513">
        <ele>1191.21</ele>
        <time>2016-06-03T12:07:40Z</time>
      </trkpt>
      <trkpt lat="43.792094746604562" lon="11.918668756261468">
        <ele>1190.73</ele>
        <time>2016-06-03T12:07:42Z</time>
      </trkpt>
      <trkpt lat="43.791977986693382" lon="11.918624583631754">
        <ele>1189.29</ele>
        <time>2016-06-03T12:07:56Z</time>
      </trkpt>
      <trkpt lat="43.791908165439963" lon="11.918598767369986">
        <ele>1187.8499999999999</ele>
        <time>2016-06-03T12:08:06Z</time>
      </trkpt>
      <trkpt lat="43.791796853765845" lon="11.918613603338599">
        <ele>1185.9200000000001</ele>
        <time>2016-06-03T12:08:17Z</time>
      </trkpt>
      <trkpt lat="43.791729966178536" lon="11.918632294982672">
        <ele>1185.9200000000001</ele>
        <time>2016-06-03T12:08:27Z</time>
      </trkpt>
      <trkpt lat="43.791628796607256" lon="11.918697003275156">
        <ele>1186.4000000000001</ele>
        <time>2016-06-03T12:08:38Z</time>
      </trkpt>
      <trkpt lat="43.791588060557842" lon="11.918755760416389">
        <ele>1186.8800000000001</ele>
        <time>2016-06-03T12:08:44Z</time>
      </trkpt>
      <trkpt lat="43.791512539610267" lon="11.918848883360624">
        <ele>1186.8800000000001</ele>
        <time>2016-06-03T12:08:54Z</time>
      </trkpt>
      <trkpt lat="43.79139787517488" lon="11.918997410684824">
        <ele>1185.9200000000001</ele>
        <time>2016-06-03T12:09:07Z</time>
      </trkpt>
      <trkpt lat="43.791276756674051" lon="11.919069830328226">
        <ele>1184.96</ele>
        <time>2016-06-03T12:09:19Z</time>
      </trkpt>
      <trkpt lat="43.791216742247343" lon="11.919204695150256">
        <ele>1183.04</ele>
        <time>2016-06-03T12:09:31Z</time>
      </trkpt>
      <trkpt lat="43.791197715327144" lon="11.919344337657094">
        <ele>1180.1600000000001</ele>
        <time>2016-06-03T12:09:43Z</time>
      </trkpt>
      <trkpt lat="43.79117164760828" lon="11.919472580775619">
        <ele>1177.75</ele>
        <time>2016-06-03T12:09:55Z</time>
      </trkpt>
      <trkpt lat="43.791164942085743" lon="11.919579533860087">
        <ele>1174.8699999999999</ele>
        <time>2016-06-03T12:10:05Z</time>
      </trkpt>
      <trkpt lat="43.791138036176562" lon="11.919663101434708">
        <ele>1173.4300000000001</ele>
        <time>2016-06-03T12:10:14Z</time>
      </trkpt>
      <trkpt lat="43.791047595441341" lon="11.919691096991301">
        <ele>1171.02</ele>
        <time>2016-06-03T12:10:22Z</time>
      </trkpt>
      <trkpt lat="43.791001830250025" lon="11.91967056132853">
        <ele>1170.0599999999999</ele>
        <time>2016-06-03T12:10:27Z</time>
      </trkpt>
      <trkpt lat="43.79094148054719" lon="11.919599231332541">
        <ele>1169.0999999999999</ele>
        <time>2016-06-03T12:10:35Z</time>
      </trkpt>
      <trkpt lat="43.790849279612303" lon="11.919493200257421">
        <ele>1166.7</ele>
        <time>2016-06-03T12:10:46Z</time>
      </trkpt>
      <trkpt lat="43.79078658297658" lon="11.919362274929881">
        <ele>1163.8099999999999</ele>
        <time>2016-06-03T12:10:57Z</time>
      </trkpt>
      <trkpt lat="43.790775686502457" lon="11.919342745095491">
        <ele>1163.8099999999999</ele>
        <time>2016-06-03T12:10:59Z</time>
      </trkpt>
      <trkpt lat="43.790752300992608" lon="11.919199917465448">
        <ele>1160.9300000000001</ele>
        <time>2016-06-03T12:11:09Z</time>
      </trkpt>
      <trkpt lat="43.790724640712142" lon="11.919152475893497">
        <ele>1159.49</ele>
        <time>2016-06-03T12:11:14Z</time>
      </trkpt>
      <trkpt lat="43.790671331807971" lon="11.918982909992337">
        <ele>1157.5599999999999</ele>
        <time>2016-06-03T12:11:26Z</time>
      </trkpt>
      <trkpt lat="43.79063855856657" lon="11.918855588883162">
        <ele>1156.5999999999999</ele>
        <time>2016-06-03T12:11:36Z</time>
      </trkpt>
      <trkpt lat="43.790574939921498" lon="11.918751988559961">
        <ele>1155.6400000000001</ele>
        <time>2016-06-03T12:11:48Z</time>
      </trkpt>
      <trkpt lat="43.790509477257729" lon="11.918584434315562">
        <ele>1153.72</ele>
        <time>2016-06-03T12:12:00Z</time>
      </trkpt>
      <trkpt lat="43.790400847792625" lon="11.918584769591689">
        <ele>1153.24</ele>
        <time>2016-06-03T12:12:10Z</time>
      </trkpt>
      <trkpt lat="43.790311496704817" lon="11.918588038533926">
        <ele>1152.76</ele>
        <time>2016-06-03T12:12:18Z</time>
      </trkpt>
      <trkpt lat="43.79018216393888" lon="11.918644532561302">
        <ele>1152.28</ele>
        <time>2016-06-03T12:12:29Z</time>
      </trkpt>
      <trkpt lat="43.790097925812006" lon="11.918634558096528">
        <ele>1151.3199999999999</ele>
        <time>2016-06-03T12:12:35Z</time>
      </trkpt>
      <trkpt lat="43.790075210854411" lon="11.918631875887513">
        <ele>1151.3199999999999</ele>
        <time>2016-06-03T12:12:37Z</time>
      </trkpt>
      <trkpt lat="43.790052831172943" lon="11.918646544218063">
        <ele>1150.8399999999999</ele>
        <time>2016-06-03T12:12:39Z</time>
      </trkpt>
      <trkpt lat="43.789919642731547" lon="11.918637324124575">
        <ele>1148.9100000000001</ele>
        <time>2016-06-03T12:12:50Z</time>
      </trkpt>
      <trkpt lat="43.789758961647749" lon="11.91870111040771">
        <ele>1148.4300000000001</ele>
        <time>2016-06-03T12:13:04Z</time>
      </trkpt>
      <trkpt lat="43.789697354659438" lon="11.918725753203034">
        <ele>1147.95</ele>
        <time>2016-06-03T12:13:09Z</time>
      </trkpt>
      <trkpt lat="43.789588222280145" lon="11.9187499769032">
        <ele>1147.95</ele>
        <time>2016-06-03T12:13:20Z</time>
      </trkpt>
      <trkpt lat="43.78943650983274" lon="11.918827760964632">
        <ele>1147.47</ele>
        <time>2016-06-03T12:13:33Z</time>
      </trkpt>
      <trkpt lat="43.789327796548605" lon="11.918893810361624">
        <ele>1147.47</ele>
        <time>2016-06-03T12:13:44Z</time>
      </trkpt>
      <trkpt lat="43.789250012487173" lon="11.919003445655107">
        <ele>1146.51</ele>
        <time>2016-06-03T12:13:55Z</time>
      </trkpt>
      <trkpt lat="43.789156805723906" lon="11.919029261916876">
        <ele>1146.03</ele>
        <time>2016-06-03T12:14:04Z</time>
      </trkpt>
      <trkpt lat="43.789090923964977" lon="11.919073099270463">
        <ele>1145.55</ele>
        <time>2016-06-03T12:14:11Z</time>
      </trkpt>
      <trkpt lat="43.788994699716568" lon="11.919230343773961">
        <ele>1145.55</ele>
        <time>2016-06-03T12:14:24Z</time>
      </trkpt>
      <trkpt lat="43.788977013900876" lon="11.919247694313526">
        <ele>1142.6600000000001</ele>
        <time>2016-06-03T12:14:26Z</time>
      </trkpt>
      <trkpt lat="43.78883795812726" lon="11.919312905520201">
        <ele>1141.7</ele>
        <time>2016-06-03T12:14:39Z</time>
      </trkpt>
      <trkpt lat="43.788746260106564" lon="11.919336458668113">
        <ele>1138.8199999999999</ele>
        <time>2016-06-03T12:14:49Z</time>
      </trkpt>
      <trkpt lat="43.788650287315249" lon="11.919348193332553">
        <ele>1136.9000000000001</ele>
        <time>2016-06-03T12:15:00Z</time>
      </trkpt>
      <trkpt lat="43.788628075271845" lon="11.91935489885509">
        <ele>1135.9400000000001</ele>
        <time>2016-06-03T12:15:02Z</time>
      </trkpt>
      <trkpt lat="43.788603516295552" lon="11.919351797550917">
        <ele>1135.45</ele>
        <time>2016-06-03T12:15:04Z</time>
      </trkpt>
      <trkpt lat="43.78850712440908" lon="11.919385828077793">
        <ele>1134.01</ele>
        <time>2016-06-03T12:15:16Z</time>
      </trkpt>
      <trkpt lat="43.788415342569351" lon="11.919423462823033">
        <ele>1134.01</ele>
        <time>2016-06-03T12:15:28Z</time>
      </trkpt>
      <trkpt lat="43.788356082513928" lon="11.919432180002332">
        <ele>1129.6900000000001</ele>
        <time>2016-06-03T12:15:33Z</time>
      </trkpt>
      <trkpt lat="43.78834443166852" lon="11.919436119496822">
        <ele>1129.6900000000001</ele>
        <time>2016-06-03T12:15:34Z</time>
      </trkpt>
      <trkpt lat="43.788233539089561" lon="11.919427486136556">
        <ele>1128.73</ele>
        <time>2016-06-03T12:15:45Z</time>
      </trkpt>
      <trkpt lat="43.788157515227795" lon="11.91942430101335">
        <ele>1128.24</ele>
        <time>2016-06-03T12:15:51Z</time>
      </trkpt>
      <trkpt lat="43.788062799721956" lon="11.919447518885136">
        <ele>1126.8</ele>
        <time>2016-06-03T12:16:02Z</time>
      </trkpt>
      <trkpt lat="43.788001863285899" lon="11.919555561617017">
        <ele>1125.3599999999999</ele>
        <time>2016-06-03T12:16:14Z</time>
      </trkpt>
      <trkpt lat="43.787946794182062" lon="11.919683469459414">
        <ele>1122</ele>
        <time>2016-06-03T12:16:23Z</time>
      </trkpt>
      <trkpt lat="43.787918547168374" lon="11.919733760878444">
        <ele>1121.03</ele>
        <time>2016-06-03T12:16:27Z</time>
      </trkpt>
      <trkpt lat="43.787901028990746" lon="11.919770389795303">
        <ele>1120.55</ele>
        <time>2016-06-03T12:16:29Z</time>
      </trkpt>
      <trkpt lat="43.787847049534321" lon="11.919826380908489">
        <ele>1119.1099999999999</ele>
        <time>2016-06-03T12:16:34Z</time>
      </trkpt>
      <trkpt lat="43.787713861092925" lon="11.919922353699803">
        <ele>1115.75</ele>
        <time>2016-06-03T12:16:45Z</time>
      </trkpt>
      <trkpt lat="43.787601962685585" lon="11.920022098347545">
        <ele>1112.8599999999999</ele>
        <time>2016-06-03T12:16:56Z</time>
      </trkpt>
      <trkpt lat="43.78747908398509" lon="11.920062080025673">
        <ele>1109.98</ele>
        <time>2016-06-03T12:17:06Z</time>
      </trkpt>
      <trkpt lat="43.787371292710304" lon="11.920151179656386">
        <ele>1107.0999999999999</ele>
        <time>2016-06-03T12:17:17Z</time>
      </trkpt>
      <trkpt lat="43.787273475900292" lon="11.920257546007633">
        <ele>1105.1700000000001</ele>
        <time>2016-06-03T12:17:28Z</time>
      </trkpt>
      <trkpt lat="43.787186052650213" lon="11.920378245413303">
        <ele>1105.1700000000001</ele>
        <time>2016-06-03T12:17:38Z</time>
      </trkpt>
      <trkpt lat="43.787080775946379" lon="11.92055594176054">
        <ele>1104.6900000000001</ele>
        <time>2016-06-03T12:17:51Z</time>
      </trkpt>
      <trkpt lat="43.787001483142376" lon="11.920711509883404">
        <ele>1104.21</ele>
        <time>2016-06-03T12:18:02Z</time>
      </trkpt>
      <trkpt lat="43.786973236128688" lon="11.920786360278726">
        <ele>1104.21</ele>
        <time>2016-06-03T12:18:08Z</time>
      </trkpt>
      <trkpt lat="43.786901235580444" lon="11.920910496264696">
        <ele>1104.21</ele>
        <time>2016-06-03T12:18:19Z</time>
      </trkpt>
      <trkpt lat="43.786880448460579" lon="11.920990459620953">
        <ele>1104.21</ele>
        <time>2016-06-03T12:18:25Z</time>
      </trkpt>
      <trkpt lat="43.78679939545691" lon="11.9211036991328">
        <ele>1104.21</ele>
        <time>2016-06-03T12:18:36Z</time>
      </trkpt>
      <trkpt lat="43.786719515919685" lon="11.921188775449991">
        <ele>1104.21</ele>
        <time>2016-06-03T12:18:46Z</time>
      </trkpt>
      <trkpt lat="43.786671152338386" lon="11.921224566176534">
        <ele>1103.73</ele>
        <time>2016-06-03T12:18:51Z</time>
      </trkpt>
      <trkpt lat="43.786567635834217" lon="11.921313079074025">
        <ele>1102.77</ele>
        <time>2016-06-03T12:19:03Z</time>
      </trkpt>
      <trkpt lat="43.786467975005507" lon="11.921432269737124">
        <ele>1100.8499999999999</ele>
        <time>2016-06-03T12:19:14Z</time>
      </trkpt>
      <trkpt lat="43.786364123225212" lon="11.921520950272679">
        <ele>1098.4400000000001</ele>
        <time>2016-06-03T12:19:25Z</time>
      </trkpt>
      <trkpt lat="43.786244681105018" lon="11.921602338552475">
        <ele>1096.52</ele>
        <time>2016-06-03T12:19:37Z</time>
      </trkpt>
      <trkpt lat="43.786092130467296" lon="11.921707279980183">
        <ele>1094.5999999999999</ele>
        <time>2016-06-03T12:19:52Z</time>
      </trkpt>
      <trkpt lat="43.786014262586832" lon="11.921771401539445">
        <ele>1093.6400000000001</ele>
        <time>2016-06-03T12:20:00Z</time>
      </trkpt>
      <trkpt lat="43.78592181019485" lon="11.921916911378503">
        <ele>1093.1600000000001</ele>
        <time>2016-06-03T12:20:13Z</time>
      </trkpt>
      <trkpt lat="43.785818880423903" lon="11.922074155882001">
        <ele>1092.6800000000001</ele>
        <time>2016-06-03T12:20:24Z</time>
      </trkpt>
      <trkpt lat="43.785770684480667" lon="11.922154789790511">
        <ele>1091.71</ele>
        <time>2016-06-03T12:20:31Z</time>
      </trkpt>
      <trkpt lat="43.785703545436263" lon="11.922190999612212">
        <ele>1091.23</ele>
        <time>2016-06-03T12:20:37Z</time>
      </trkpt>
      <trkpt lat="43.785547642037272" lon="11.922313878312707">
        <ele>1089.79</ele>
        <time>2016-06-03T12:20:52Z</time>
      </trkpt>
      <trkpt lat="43.785446137189865" lon="11.922372719272971">
        <ele>1089.3099999999999</ele>
        <time>2016-06-03T12:21:03Z</time>
      </trkpt>
      <trkpt lat="43.785334909334779" lon="11.922415299341083">
        <ele>1089.79</ele>
        <time>2016-06-03T12:21:15Z</time>
      </trkpt>
      <trkpt lat="43.785258717834949" lon="11.922455616295338">
        <ele>1089.79</ele>
        <time>2016-06-03T12:21:22Z</time>
      </trkpt>
      <trkpt lat="43.785145729780197" lon="11.922474559396505">
        <ele>1089.3099999999999</ele>
        <time>2016-06-03T12:21:33Z</time>
      </trkpt>
      <trkpt lat="43.785024527460337" lon="11.922508925199509">
        <ele>1089.79</ele>
        <time>2016-06-03T12:21:44Z</time>
      </trkpt>
      <trkpt lat="43.7848917581141" lon="11.922526527196169">
        <ele>1089.79</ele>
        <time>2016-06-03T12:21:55Z</time>
      </trkpt>
      <trkpt lat="43.784737279638648" lon="11.922526694834232">
        <ele>1086.4300000000001</ele>
        <time>2016-06-03T12:22:06Z</time>
      </trkpt>
      <trkpt lat="43.784620184451342" lon="11.922510098665953">
        <ele>1083.0599999999999</ele>
        <time>2016-06-03T12:22:16Z</time>
      </trkpt>
      <trkpt lat="43.78460543230176" lon="11.922512529417872">
        <ele>1083.0599999999999</ele>
        <time>2016-06-03T12:22:17Z</time>
      </trkpt>
      <trkpt lat="43.784476518630981" lon="11.922610932961106">
        <ele>1081.6199999999999</ele>
        <time>2016-06-03T12:22:30Z</time>
      </trkpt>
      <trkpt lat="43.784360680729151" lon="11.922711851075292">
        <ele>1080.6600000000001</ele>
        <time>2016-06-03T12:22:42Z</time>
      </trkpt>
      <trkpt lat="43.784254146739841" lon="11.922805057838559">
        <ele>1080.1800000000001</ele>
        <time>2016-06-03T12:22:53Z</time>
      </trkpt>
      <trkpt lat="43.784223049879074" lon="11.922901785001159">
        <ele>1080.1800000000001</ele>
        <time>2016-06-03T12:23:03Z</time>
      </trkpt>
      <trkpt lat="43.784199832007289" lon="11.922884099185467">
        <ele>1079.7</ele>
        <time>2016-06-03T12:23:18Z</time>
      </trkpt>
      <trkpt lat="43.784185498952866" lon="11.922882674261928">
        <ele>1079.7</ele>
        <time>2016-06-03T12:23:39Z</time>
      </trkpt>
      <trkpt lat="43.784153060987592" lon="11.922873537987471">
        <ele>1079.7</ele>
        <time>2016-06-03T12:23:51Z</time>
      </trkpt>
      <trkpt lat="43.784166807308793" lon="11.922895414754748">
        <ele>1079.7</ele>
        <time>2016-06-03T12:24:04Z</time>
      </trkpt>
      <trkpt lat="43.784163873642683" lon="11.922885272651911">
        <ele>1079.22</ele>
        <time>2016-06-03T12:24:14Z</time>
      </trkpt>
      <trkpt lat="43.784175105392933" lon="11.922879070043564">
        <ele>1078.74</ele>
        <time>2016-06-03T12:24:25Z</time>
      </trkpt>
      <trkpt lat="43.784165633842349" lon="11.922864904627204">
        <ele>1078.74</ele>
        <time>2016-06-03T12:24:46Z</time>
      </trkpt>
      <trkpt lat="43.78414174541831" lon="11.92285736091435">
        <ele>1078.74</ele>
        <time>2016-06-03T12:25:11Z</time>
      </trkpt>
      <trkpt lat="43.784139566123486" lon="11.92288426682353">
        <ele>1078.74</ele>
        <time>2016-06-03T12:25:39Z</time>
      </trkpt>
      <trkpt lat="43.784140404313803" lon="11.92287739366293">
        <ele>1078.26</ele>
        <time>2016-06-03T12:26:13Z</time>
      </trkpt>
      <trkpt lat="43.784131268039346" lon="11.922892984002829">
        <ele>1078.26</ele>
        <time>2016-06-03T12:26:42Z</time>
      </trkpt>
      <trkpt lat="43.784131268039346" lon="11.922896755859256">
        <ele>1078.26</ele>
        <time>2016-06-03T12:26:57Z</time>
      </trkpt>
      <trkpt lat="43.784120371565223" lon="11.92288032732904">
        <ele>1078.26</ele>
        <time>2016-06-03T12:27:23Z</time>
      </trkpt>
      <trkpt lat="43.784143337979913" lon="11.922868508845568">
        <ele>1079.22</ele>
        <time>2016-06-03T12:27:49Z</time>
      </trkpt>
      <trkpt lat="43.784139733761549" lon="11.922863982617855">
        <ele>1077.78</ele>
        <time>2016-06-03T12:28:12Z</time>
      </trkpt>
      <trkpt lat="43.784133195877075" lon="11.922867586836219">
        <ele>1078.26</ele>
        <time>2016-06-03T12:28:39Z</time>
      </trkpt>
      <trkpt lat="43.784164125099778" lon="11.922892732545733">
        <ele>1078.26</ele>
        <time>2016-06-03T12:29:05Z</time>
      </trkpt>
      <trkpt lat="43.78418818116188" lon="11.922871610149741">
        <ele>1078.26</ele>
        <time>2016-06-03T12:29:29Z</time>
      </trkpt>
      <trkpt lat="43.784201256930828" lon="11.922876639291644">
        <ele>1078.26</ele>
        <time>2016-06-03T12:29:53Z</time>
      </trkpt>
      <trkpt lat="43.784184912219644" lon="11.922850990667939">
        <ele>1078.26</ele>
        <time>2016-06-03T12:30:18Z</time>
      </trkpt>
      <trkpt lat="43.784122969955206" lon="11.922859875485301">
        <ele>1078.26</ele>
        <time>2016-06-03T12:30:48Z</time>
      </trkpt>
      <trkpt lat="43.784119365736842" lon="11.922871023416519">
        <ele>1078.26</ele>
        <time>2016-06-03T12:31:15Z</time>
      </trkpt>
      <trkpt lat="43.784138057380915" lon="11.922874879091978">
        <ele>1078.26</ele>
        <time>2016-06-03T12:31:41Z</time>
      </trkpt>
      <trkpt lat="43.784166220575571" lon="11.922861635684967">
        <ele>1078.26</ele>
        <time>2016-06-03T12:32:01Z</time>
      </trkpt>
      <trkpt lat="43.784173680469394" lon="11.92284713499248">
        <ele>1078.26</ele>
        <time>2016-06-03T12:32:27Z</time>
      </trkpt>
      <trkpt lat="43.784162951633334" lon="11.92284663207829">
        <ele>1078.26</ele>
        <time>2016-06-03T12:32:58Z</time>
      </trkpt>
      <trkpt lat="43.784191366285086" lon="11.922873705625534">
        <ele>1078.26</ele>
        <time>2016-06-03T12:33:25Z</time>
      </trkpt>
      <trkpt lat="43.78417351283133" lon="11.922860881313682">
        <ele>1079.7</ele>
        <time>2016-06-03T12:33:52Z</time>
      </trkpt>
      <trkpt lat="43.784193210303783" lon="11.922870688140392">
        <ele>1078.26</ele>
        <time>2016-06-03T12:34:17Z</time>
      </trkpt>
      <trkpt lat="43.784225145354867" lon="11.922873202711344">
        <ele>1078.74</ele>
        <time>2016-06-03T12:34:43Z</time>
      </trkpt>
      <trkpt lat="43.784216260537505" lon="11.922866832464933">
        <ele>1078.74</ele>
        <time>2016-06-03T12:35:00Z</time>
      </trkpt>
      <trkpt lat="43.784199915826321" lon="11.922860881313682">
        <ele>1078.74</ele>
        <time>2016-06-03T12:35:27Z</time>
      </trkpt>
      <trkpt lat="43.784192372113466" lon="11.922847805544734">
        <ele>1078.74</ele>
        <time>2016-06-03T12:35:56Z</time>
      </trkpt>
      <trkpt lat="43.784189941361547" lon="11.922822911292315">
        <ele>1079.22</ele>
        <time>2016-06-03T12:36:29Z</time>
      </trkpt>
      <trkpt lat="43.78419354557991" lon="11.922845710068941">
        <ele>1079.22</ele>
        <time>2016-06-03T12:36:55Z</time>
      </trkpt>
      <trkpt lat="43.784177033230662" lon="11.922880578786135">
        <ele>1079.22</ele>
        <time>2016-06-03T12:37:23Z</time>
      </trkpt>
      <trkpt lat="43.784147277474403" lon="11.922901533544064">
        <ele>1080.6600000000001</ele>
        <time>2016-06-03T12:37:54Z</time>
      </trkpt>
      <trkpt lat="43.784141410142183" lon="11.92290379665792">
        <ele>1079.22</ele>
        <time>2016-06-03T12:38:18Z</time>
      </trkpt>
      <trkpt lat="43.784129591658711" lon="11.922884434461594">
        <ele>1079.22</ele>
        <time>2016-06-03T12:38:46Z</time>
      </trkpt>
      <trkpt lat="43.784149372950196" lon="11.922882758080959">
        <ele>1079.22</ele>
        <time>2016-06-03T12:39:18Z</time>
      </trkpt>
      <trkpt lat="43.7841612752527" lon="11.92287596873939">
        <ele>1079.22</ele>
        <time>2016-06-03T12:39:42Z</time>
      </trkpt>
      <trkpt lat="43.784165717661381" lon="11.922881668433547">
        <ele>1080.1800000000001</ele>
        <time>2016-06-03T12:39:49Z</time>
      </trkpt>
      <trkpt lat="43.78413587808609" lon="11.922876387834549">
        <ele>1080.6600000000001</ele>
        <time>2016-06-03T12:39:56Z</time>
      </trkpt>
      <trkpt lat="43.784127747640014" lon="11.922876052558422">
        <ele>1080.1800000000001</ele>
        <time>2016-06-03T12:40:09Z</time>
      </trkpt>
      <trkpt lat="43.784131687134504" lon="11.922857109457254">
        <ele>1080.1800000000001</ele>
        <time>2016-06-03T12:40:18Z</time>
      </trkpt>
      <trkpt lat="43.784068906679749" lon="11.922870939597487">
        <ele>1079.22</ele>
        <time>2016-06-03T12:40:30Z</time>
      </trkpt>
      <trkpt lat="43.783963127061725" lon="11.922926846891642">
        <ele>1078.26</ele>
        <time>2016-06-03T12:40:42Z</time>
      </trkpt>
      <trkpt lat="43.783898334950209" lon="11.922950483858585">
        <ele>1078.26</ele>
        <time>2016-06-03T12:40:52Z</time>
      </trkpt>
      <trkpt lat="43.783781994134188" lon="11.922979401424527">
        <ele>1077.78</ele>
        <time>2016-06-03T12:41:04Z</time>
      </trkpt>
      <trkpt lat="43.783714771270752" lon="11.922954758629203">
        <ele>1077.78</ele>
        <time>2016-06-03T12:41:11Z</time>
      </trkpt>
      <trkpt lat="43.783611757680774" lon="11.922858702018857">
        <ele>1077.78</ele>
        <time>2016-06-03T12:41:22Z</time>
      </trkpt>
      <trkpt lat="43.783537410199642" lon="11.922789132222533">
        <ele>1077.29</ele>
        <time>2016-06-03T12:41:32Z</time>
      </trkpt>
      <trkpt lat="43.783460212871432" lon="11.922743283212185">
        <ele>1077.29</ele>
        <time>2016-06-03T12:41:42Z</time>
      </trkpt>
      <trkpt lat="43.783468091860414" lon="11.922730877995491">
        <ele>1078.74</ele>
        <time>2016-06-03T12:41:56Z</time>
      </trkpt>
      <trkpt lat="43.783488543704152" lon="11.922655357047915">
        <ele>1076.8099999999999</ele>
        <time>2016-06-03T12:42:06Z</time>
      </trkpt>
      <trkpt lat="43.783439174294472" lon="11.922673881053925">
        <ele>1077.29</ele>
        <time>2016-06-03T12:42:13Z</time>
      </trkpt>
      <trkpt lat="43.783425763249397" lon="11.922667510807514">
        <ele>1077.29</ele>
        <time>2016-06-03T12:42:14Z</time>
      </trkpt>
      <trkpt lat="43.783336998894811" lon="11.922546308487654">
        <ele>1076.3299999999999</ele>
        <time>2016-06-03T12:42:25Z</time>
      </trkpt>
      <trkpt lat="43.783266507089138" lon="11.922477828338742">
        <ele>1075.8499999999999</ele>
        <time>2016-06-03T12:42:35Z</time>
      </trkpt>
      <trkpt lat="43.783144215121865" lon="11.922430051490664">
        <ele>1074.8900000000001</ele>
        <time>2016-06-03T12:42:45Z</time>
      </trkpt>
      <trkpt lat="43.783027622848749" lon="11.92243373952806">
        <ele>1074.4100000000001</ele>
        <time>2016-06-03T12:42:56Z</time>
      </trkpt>
      <trkpt lat="43.782916897907853" lon="11.922409683465958">
        <ele>1073.9300000000001</ele>
        <time>2016-06-03T12:43:06Z</time>
      </trkpt>
      <trkpt lat="43.78280877135694" lon="11.922359056770802">
        <ele>1072.97</ele>
        <time>2016-06-03T12:43:16Z</time>
      </trkpt>
      <trkpt lat="43.782739033922553" lon="11.922295102849603">
        <ele>1072.49</ele>
        <time>2016-06-03T12:43:26Z</time>
      </trkpt>
      <trkpt lat="43.782628728076816" lon="11.922166524454951">
        <ele>1071.53</ele>
        <time>2016-06-03T12:43:37Z</time>
      </trkpt>
      <trkpt lat="43.782491851598024" lon="11.92208044230938">
        <ele>1070.0799999999999</ele>
        <time>2016-06-03T12:43:48Z</time>
      </trkpt>
      <trkpt lat="43.782376516610384" lon="11.922049848362803">
        <ele>1069.5999999999999</ele>
        <time>2016-06-03T12:43:58Z</time>
      </trkpt>
      <trkpt lat="43.782324213534594" lon="11.922073401510715">
        <ele>1067.2</ele>
        <time>2016-06-03T12:44:03Z</time>
      </trkpt>
      <trkpt lat="43.782254811376333" lon="11.922090165317059">
        <ele>1066.72</ele>
        <time>2016-06-03T12:44:11Z</time>
      </trkpt>
      <trkpt lat="43.782149702310562" lon="11.922127967700362">
        <ele>1062.3900000000001</ele>
        <time>2016-06-03T12:44:21Z</time>
      </trkpt>
      <trkpt lat="43.782139895483851" lon="11.922130817547441">
        <ele>1062.3900000000001</ele>
        <time>2016-06-03T12:44:22Z</time>
      </trkpt>
      <trkpt lat="43.782063787803054" lon="11.922125034034252">
        <ele>1060.95</ele>
        <time>2016-06-03T12:44:28Z</time>
      </trkpt>
      <trkpt lat="43.782038642093539" lon="11.922104498371482">
        <ele>1060.47</ele>
        <time>2016-06-03T12:44:30Z</time>
      </trkpt>
      <trkpt lat="43.781979884952307" lon="11.92197147756815">
        <ele>1057.5899999999999</ele>
        <time>2016-06-03T12:44:39Z</time>
      </trkpt>
      <trkpt lat="43.781944261863828" lon="11.921968124806881">
        <ele>1056.6300000000001</ele>
        <time>2016-06-03T12:44:42Z</time>
      </trkpt>
      <trkpt lat="43.781933197751641" lon="11.921971812844276">
        <ele>1056.1500000000001</ele>
        <time>2016-06-03T12:44:43Z</time>
      </trkpt>
      <trkpt lat="43.781926156952977" lon="11.921976339071989">
        <ele>1056.1500000000001</ele>
        <time>2016-06-03T12:44:44Z</time>
      </trkpt>
      <trkpt lat="43.781915428116918" lon="11.921984050422907">
        <ele>1055.6700000000001</ele>
        <time>2016-06-03T12:44:45Z</time>
      </trkpt>
      <trkpt lat="43.78190578892827" lon="11.921993270516396">
        <ele>1055.6700000000001</ele>
        <time>2016-06-03T12:44:46Z</time>
      </trkpt>
      <trkpt lat="43.781890952959657" lon="11.922007519751787">
        <ele>1054.7</ele>
        <time>2016-06-03T12:44:48Z</time>
      </trkpt>
      <trkpt lat="43.781797159463167" lon="11.922110449522734">
        <ele>1052.78</ele>
        <time>2016-06-03T12:44:59Z</time>
      </trkpt>
      <trkpt lat="43.781702360138297" lon="11.922163171693683">
        <ele>1050.8599999999999</ele>
        <time>2016-06-03T12:45:08Z</time>
      </trkpt>
      <trkpt lat="43.781590210273862" lon="11.922127632424235">
        <ele>1047.49</ele>
        <time>2016-06-03T12:45:17Z</time>
      </trkpt>
      <trkpt lat="43.781498847529292" lon="11.922048591077328">
        <ele>1045.0899999999999</ele>
        <time>2016-06-03T12:45:26Z</time>
      </trkpt>
      <trkpt lat="43.78137563355267" lon="11.921949684619904">
        <ele>1042.6900000000001</ele>
        <time>2016-06-03T12:45:37Z</time>
      </trkpt>
      <trkpt lat="43.781279744580388" lon="11.921942895278335">
        <ele>1040.76</ele>
        <time>2016-06-03T12:45:48Z</time>
      </trkpt>
      <trkpt lat="43.781170696020126" lon="11.921875504776835">
        <ele>1038.8399999999999</ele>
        <time>2016-06-03T12:45:56Z</time>
      </trkpt>
      <trkpt lat="43.78104479983449" lon="11.921820770949125">
        <ele>1035.48</ele>
        <time>2016-06-03T12:46:07Z</time>
      </trkpt>
      <trkpt lat="43.780929297208786" lon="11.921757739037275">
        <ele>1032.5899999999999</ele>
        <time>2016-06-03T12:46:18Z</time>
      </trkpt>
      <trkpt lat="43.780799964442849" lon="11.921755475923419">
        <ele>1030.1900000000001</ele>
        <time>2016-06-03T12:46:30Z</time>
      </trkpt>
      <trkpt lat="43.780676079913974" lon="11.921801324933767">
        <ele>1026.8299999999999</ele>
        <time>2016-06-03T12:46:43Z</time>
      </trkpt>
      <trkpt lat="43.780562756583095" lon="11.921848515048623">
        <ele>1023.46</ele>
        <time>2016-06-03T12:46:53Z</time>
      </trkpt>
      <trkpt lat="43.780536437407136" lon="11.921849604696035">
        <ele>1022.98</ele>
        <time>2016-06-03T12:46:55Z</time>
      </trkpt>
      <trkpt lat="43.780421689152718" lon="11.921820770949125">
        <ele>1020.1</ele>
        <time>2016-06-03T12:47:04Z</time>
      </trkpt>
      <trkpt lat="43.780335858464241" lon="11.921741981059313">
        <ele>1016.73</ele>
        <time>2016-06-03T12:47:14Z</time>
      </trkpt>
      <trkpt lat="43.780259499326348" lon="11.921660425141454">
        <ele>1013.85</ele>
        <time>2016-06-03T12:47:23Z</time>
      </trkpt>
      <trkpt lat="43.780168974772096" lon="11.921606613323092">
        <ele>1012.41</ele>
        <time>2016-06-03T12:47:30Z</time>
      </trkpt>
      <trkpt lat="43.780159670859575" lon="11.921599572524428">
        <ele>1011.9299999999999</ele>
        <time>2016-06-03T12:47:31Z</time>
      </trkpt>
      <trkpt lat="43.78009588457644" lon="11.921585239470005">
        <ele>1010.96</ele>
        <time>2016-06-03T12:47:37Z</time>
      </trkpt>
      <trkpt lat="43.780080461874604" lon="11.921575265005231">
        <ele>1010.96</ele>
        <time>2016-06-03T12:47:38Z</time>
      </trkpt>
      <trkpt lat="43.779977448284626" lon="11.921475017443299">
        <ele>1009.52</ele>
        <time>2016-06-03T12:47:49Z</time>
      </trkpt>
      <trkpt lat="43.779913494363427" lon="11.921417685225606">
        <ele>1009.04</ele>
        <time>2016-06-03T12:47:55Z</time>
      </trkpt>
      <trkpt lat="43.779808888211846" lon="11.921435119584203">
        <ele>1008.5599999999999</ele>
        <time>2016-06-03T12:48:06Z</time>
      </trkpt>
      <trkpt lat="43.779736803844571" lon="11.921430006623268">
        <ele>1007.6</ele>
        <time>2016-06-03T12:48:13Z</time>
      </trkpt>
      <trkpt lat="43.779606129974127" lon="11.92145112901926">
        <ele>1006.16</ele>
        <time>2016-06-03T12:48:24Z</time>
      </trkpt>
      <trkpt lat="43.779495572671294" lon="11.921458085998893">
        <ele>1003.27</ele>
        <time>2016-06-03T12:48:33Z</time>
      </trkpt>
      <trkpt lat="43.779484592378139" lon="11.921451631933451">
        <ele>1002.79</ele>
        <time>2016-06-03T12:48:34Z</time>
      </trkpt>
      <trkpt lat="43.77939666621387" lon="11.921361442655325">
        <ele>1000.39</ele>
        <time>2016-06-03T12:48:43Z</time>
      </trkpt>
      <trkpt lat="43.779355008155107" lon="11.921274941414595">
        <ele>998.95000000000005</ele>
        <time>2016-06-03T12:48:51Z</time>
      </trkpt>
      <trkpt lat="43.779344195500016" lon="11.921262871474028">
        <ele>998.95000000000005</ele>
        <time>2016-06-03T12:48:52Z</time>
      </trkpt>
      <trkpt lat="43.779251156374812" lon="11.921244515106082">
        <ele>997.50999999999999</ele>
        <time>2016-06-03T12:49:02Z</time>
      </trkpt>
      <trkpt lat="43.779268423095345" lon="11.921262117102742">
        <ele>997.50999999999999</ele>
        <time>2016-06-03T12:49:11Z</time>
      </trkpt>
      <trkpt lat="43.779302118346095" lon="11.921164719387889">
        <ele>997.50999999999999</ele>
        <time>2016-06-03T12:49:19Z</time>
      </trkpt>
      <trkpt lat="43.779274541884661" lon="11.921120211482048">
        <ele>996.53999999999996</ele>
        <time>2016-06-03T12:49:23Z</time>
      </trkpt>
      <trkpt lat="43.779287114739418" lon="11.921065393835306">
        <ele>996.05999999999995</ele>
        <time>2016-06-03T12:49:32Z</time>
      </trkpt>
      <trkpt lat="43.779279906302691" lon="11.9210484623909">
        <ele>996.05999999999995</ele>
        <time>2016-06-03T12:49:37Z</time>
      </trkpt>
      <trkpt lat="43.779268255457282" lon="11.921039493754506">
        <ele>996.05999999999995</ele>
        <time>2016-06-03T12:49:38Z</time>
      </trkpt>
      <trkpt lat="43.779261549934745" lon="11.921023149043322">
        <ele>995.58000000000004</ele>
        <time>2016-06-03T12:49:39Z</time>
      </trkpt>
      <trkpt lat="43.779229698702693" lon="11.920849056914449">
        <ele>994.13999999999999</ele>
        <time>2016-06-03T12:49:50Z</time>
      </trkpt>
      <trkpt lat="43.779278062283993" lon="11.920727351680398">
        <ele>992.22000000000003</ele>
        <time>2016-06-03T12:49:58Z</time>
      </trkpt>
      <trkpt lat="43.779296418651938" lon="11.920642359182239">
        <ele>991.25999999999999</ele>
        <time>2016-06-03T12:50:03Z</time>
      </trkpt>
      <trkpt lat="43.779288707301021" lon="11.920445552095771">
        <ele>988.85000000000002</ele>
        <time>2016-06-03T12:50:14Z</time>
      </trkpt>
      <trkpt lat="43.779239840805531" lon="11.920278165489435">
        <ele>986.92999999999995</ele>
        <time>2016-06-03T12:50:26Z</time>
      </trkpt>
      <trkpt lat="43.779239505529404" lon="11.920257043093443">
        <ele>986.92999999999995</ele>
        <time>2016-06-03T12:50:27Z</time>
      </trkpt>
      <trkpt lat="43.779234979301691" lon="11.920236591249704">
        <ele>986.45000000000005</ele>
        <time>2016-06-03T12:50:28Z</time>
      </trkpt>
      <trkpt lat="43.779172115027905" lon="11.920036096125841">
        <ele>985.97000000000003</ele>
        <time>2016-06-03T12:50:40Z</time>
      </trkpt>
      <trkpt lat="43.779139593243599" lon="11.919865272939205">
        <ele>984.52999999999997</ele>
        <time>2016-06-03T12:50:52Z</time>
      </trkpt>
      <trkpt lat="43.779107155278325" lon="11.919716326519847">
        <ele>981.63999999999999</ele>
        <time>2016-06-03T12:51:04Z</time>
      </trkpt>
      <trkpt lat="43.779083685949445" lon="11.919622197747231">
        <ele>979.72000000000003</ele>
        <time>2016-06-03T12:51:10Z</time>
      </trkpt>
      <trkpt lat="43.779010344296694" lon="11.919593531638384">
        <ele>979.72000000000003</ele>
        <time>2016-06-03T12:51:22Z</time>
      </trkpt>
      <trkpt lat="43.778981510549784" lon="11.919592022895813">
        <ele>979.24000000000001</ele>
        <time>2016-06-03T12:51:31Z</time>
      </trkpt>
      <trkpt lat="43.778903391212225" lon="11.919684559106827">
        <ele>976.84000000000003</ele>
        <time>2016-06-03T12:51:42Z</time>
      </trkpt>
      <trkpt lat="43.778889644891024" lon="11.919721690937877">
        <ele>976.36000000000001</ele>
        <time>2016-06-03T12:51:45Z</time>
      </trkpt>
      <trkpt lat="43.778846561908722" lon="11.919858986511827">
        <ele>973.95000000000005</ele>
        <time>2016-06-03T12:51:57Z</time>
      </trkpt>
      <trkpt lat="43.778842790052295" lon="11.91987625323236">
        <ele>973.47000000000003</ele>
        <time>2016-06-03T12:51:59Z</time>
      </trkpt>
      <trkpt lat="43.778784200549126" lon="11.919956048950553">
        <ele>971.54999999999995</ele>
        <time>2016-06-03T12:52:08Z</time>
      </trkpt>
      <trkpt lat="43.778725443407893" lon="11.920087309554219">
        <ele>969.14999999999998</ele>
        <time>2016-06-03T12:52:19Z</time>
      </trkpt>
      <trkpt lat="43.778711445629597" lon="11.920111449435353">
        <ele>968.66999999999996</ele>
        <time>2016-06-03T12:52:22Z</time>
      </trkpt>
      <trkpt lat="43.77869451418519" lon="11.920130895450711">
        <ele>968.17999999999995</ele>
        <time>2016-06-03T12:52:23Z</time>
      </trkpt>
      <trkpt lat="43.778588818386197" lon="11.920260228216648">
        <ele>965.77999999999997</ele>
        <time>2016-06-03T12:52:33Z</time>
      </trkpt>
      <trkpt lat="43.778478931635618" lon="11.920344633981586">
        <ele>962.89999999999998</ele>
        <time>2016-06-03T12:52:45Z</time>
      </trkpt>
      <trkpt lat="43.778398549184203" lon="11.92040154710412">
        <ele>961.46000000000004</ele>
        <time>2016-06-03T12:52:53Z</time>
      </trkpt>
      <trkpt lat="43.778385808691382" lon="11.920415628701448">
        <ele>960.98000000000002</ele>
        <time>2016-06-03T12:52:54Z</time>
      </trkpt>
      <trkpt lat="43.778370721265674" lon="11.920420993119478">
        <ele>960.98000000000002</ele>
        <time>2016-06-03T12:52:55Z</time>
      </trkpt>
      <trkpt lat="43.778356891125441" lon="11.920427950099111">
        <ele>960.49000000000001</ele>
        <time>2016-06-03T12:52:56Z</time>
      </trkpt>
      <trkpt lat="43.778248261660337" lon="11.920484276488423">
        <ele>958.09000000000003</ele>
        <time>2016-06-03T12:53:06Z</time>
      </trkpt>
      <trkpt lat="43.778235772624612" lon="11.920486120507121">
        <ele>958.09000000000003</ele>
        <time>2016-06-03T12:53:07Z</time>
      </trkpt>
      <trkpt lat="43.778115073218942" lon="11.920428620651364">
        <ele>954.73000000000002</ele>
        <time>2016-06-03T12:53:17Z</time>
      </trkpt>
      <trkpt lat="43.777990099042654" lon="11.920375395566225">
        <ele>951.84000000000003</ele>
        <time>2016-06-03T12:53:30Z</time>
      </trkpt>
      <trkpt lat="43.777912147343159" lon="11.920421160757542">
        <ele>950.39999999999998</ele>
        <time>2016-06-03T12:53:39Z</time>
      </trkpt>
      <trkpt lat="43.777854815125465" lon="11.920504812151194">
        <ele>949.44000000000005</ele>
        <time>2016-06-03T12:53:53Z</time>
      </trkpt>
      <trkpt lat="43.777791447937489" lon="11.920638671144843">
        <ele>948</ele>
        <time>2016-06-03T12:54:03Z</time>
      </trkpt>
      <trkpt lat="43.777768313884735" lon="11.920745959505439">
        <ele>946.07000000000005</ele>
        <time>2016-06-03T12:54:13Z</time>
      </trkpt>
      <trkpt lat="43.777739899232984" lon="11.920841513201594">
        <ele>945.11000000000001</ele>
        <time>2016-06-03T12:54:20Z</time>
      </trkpt>
      <trkpt lat="43.77771626226604" lon="11.920871436595917">
        <ele>944.63</ele>
        <time>2016-06-03T12:54:22Z</time>
      </trkpt>
      <trkpt lat="43.777588438242674" lon="11.920894486829638">
        <ele>942.71000000000004</ele>
        <time>2016-06-03T12:54:32Z</time>
      </trkpt>
      <trkpt lat="43.777474695816636" lon="11.920833047479391">
        <ele>939.83000000000004</ele>
        <time>2016-06-03T12:54:43Z</time>
      </trkpt>
      <trkpt lat="43.777455249801278" lon="11.920801280066371">
        <ele>939.35000000000002</ele>
        <time>2016-06-03T12:54:45Z</time>
      </trkpt>
      <trkpt lat="43.777422392740846" lon="11.920726429671049">
        <ele>938.86000000000001</ele>
        <time>2016-06-03T12:54:49Z</time>
      </trkpt>
      <trkpt lat="43.777400264516473" lon="11.920648561790586">
        <ele>938.38</ele>
        <time>2016-06-03T12:54:53Z</time>
      </trkpt>
      <trkpt lat="43.777379561215639" lon="11.920583518221974">
        <ele>936.94000000000005</ele>
        <time>2016-06-03T12:55:05Z</time>
      </trkpt>
      <trkpt lat="43.777383919805288" lon="11.920566251501441">
        <ele>935.98000000000002</ele>
        <time>2016-06-03T12:55:14Z</time>
      </trkpt>
      <trkpt lat="43.777411496266723" lon="11.920540686696768">
        <ele>935.98000000000002</ele>
        <time>2016-06-03T12:55:37Z</time>
      </trkpt>
      <trkpt lat="43.777396492660046" lon="11.920532723888755">
        <ele>935.98000000000002</ele>
        <time>2016-06-03T12:56:06Z</time>
      </trkpt>
      <trkpt lat="43.777386015281081" lon="11.920555355027318">
        <ele>935.98000000000002</ele>
        <time>2016-06-03T12:56:38Z</time>
      </trkpt>
      <trkpt lat="43.777408981695771" lon="11.920582596212626">
        <ele>936.94000000000005</ele>
        <time>2016-06-03T12:56:51Z</time>
      </trkpt>
      <trkpt lat="43.777411412447691" lon="11.920613273978233">
        <ele>936.94000000000005</ele>
        <time>2016-06-03T12:57:02Z</time>
      </trkpt>
      <trkpt lat="43.777399510145187" lon="11.920521073043346">
        <ele>936.46000000000004</ele>
        <time>2016-06-03T12:57:20Z</time>
      </trkpt>
      <trkpt lat="43.777396911755204" lon="11.920357625931501">
        <ele>933.10000000000002</ele>
        <time>2016-06-03T12:57:34Z</time>
      </trkpt>
      <trkpt lat="43.777326252311468" lon="11.920171212404966">
        <ele>930.21000000000004</ele>
        <time>2016-06-03T12:57:48Z</time>
      </trkpt>
      <trkpt lat="43.777232961729169" lon="11.920098122209311">
        <ele>927.33000000000004</ele>
        <time>2016-06-03T12:57:59Z</time>
      </trkpt>
      <trkpt lat="43.777117123827338" lon="11.920073479413986">
        <ele>923.96000000000004</ele>
        <time>2016-06-03T12:58:09Z</time>
      </trkpt>
      <trkpt lat="43.777095079421997" lon="11.920052440837026">
        <ele>923</ele>
        <time>2016-06-03T12:58:12Z</time>
      </trkpt>
      <trkpt lat="43.777033975347877" lon="11.920011453330517">
        <ele>921.08000000000004</ele>
        <time>2016-06-03T12:58:19Z</time>
      </trkpt>
      <trkpt lat="43.777022156864405" lon="11.920004328712821">
        <ele>921.08000000000004</ele>
        <time>2016-06-03T12:58:20Z</time>
      </trkpt>
      <trkpt lat="43.777011260390282" lon="11.919999551028013">
        <ele>920.60000000000002</ele>
        <time>2016-06-03T12:58:21Z</time>
      </trkpt>
      <trkpt lat="43.77692174166441" lon="11.919962670654058">
        <ele>919.15999999999997</ele>
        <time>2016-06-03T12:58:30Z</time>
      </trkpt>
      <trkpt lat="43.776834066957235" lon="11.919983038678765">
        <ele>915.78999999999996</ele>
        <time>2016-06-03T12:58:39Z</time>
      </trkpt>
      <trkpt lat="43.776750667020679" lon="11.919976668432355">
        <ele>912.42999999999995</ele>
        <time>2016-06-03T12:58:50Z</time>
      </trkpt>
      <trkpt lat="43.77675368450582" lon="11.919819759204984">
        <ele>910.02999999999997</ele>
        <time>2016-06-03T12:59:02Z</time>
      </trkpt>
      <trkpt lat="43.776670368388295" lon="11.919809281826019">
        <ele>909.05999999999995</ele>
        <time>2016-06-03T12:59:12Z</time>
      </trkpt>
      <trkpt lat="43.77662954851985" lon="11.919830488041043">
        <ele>909.05999999999995</ele>
        <time>2016-06-03T12:59:16Z</time>
      </trkpt>
      <trkpt lat="43.776614209637046" lon="11.919843228533864">
        <ele>905.70000000000005</ele>
        <time>2016-06-03T12:59:20Z</time>
      </trkpt>
      <trkpt lat="43.77656115218997" lon="11.919852197170258">
        <ele>903.77999999999997</ele>
        <time>2016-06-03T12:59:26Z</time>
      </trkpt>
      <trkpt lat="43.776546232402325" lon="11.919851442798972">
        <ele>903.29999999999995</ele>
        <time>2016-06-03T12:59:27Z</time>
      </trkpt>
      <trkpt lat="43.776440788060427" lon="11.919784471392632">
        <ele>900.88999999999999</ele>
        <time>2016-06-03T12:59:36Z</time>
      </trkpt>
      <trkpt lat="43.776379348710179" lon="11.91974138841033">
        <ele>899.45000000000005</ele>
        <time>2016-06-03T12:59:41Z</time>
      </trkpt>
      <trkpt lat="43.776275999844074" lon="11.919703334569931">
        <ele>896.57000000000005</ele>
        <time>2016-06-03T12:59:52Z</time>
      </trkpt>
      <trkpt lat="43.776140967383981" lon="11.919636446982622">
        <ele>893.20000000000005</ele>
        <time>2016-06-03T13:00:04Z</time>
      </trkpt>
      <trkpt lat="43.776087155565619" lon="11.919592525810003">
        <ele>891.27999999999997</ele>
        <time>2016-06-03T13:00:09Z</time>
      </trkpt>
      <trkpt lat="43.775976179167628" lon="11.919601997360587">
        <ele>888.88</ele>
        <time>2016-06-03T13:00:20Z</time>
      </trkpt>
      <trkpt lat="43.775956314057112" lon="11.919697131961584">
        <ele>887.42999999999995</ele>
        <time>2016-06-03T13:00:28Z</time>
      </trkpt>
      <trkpt lat="43.775958828628063" lon="11.919857896864414">
        <ele>885.99000000000001</ele>
        <time>2016-06-03T13:00:39Z</time>
      </trkpt>
      <trkpt lat="43.77598556689918" lon="11.919992929324508">
        <ele>883.59000000000003</ele>
        <time>2016-06-03T13:00:50Z</time>
      </trkpt>
      <trkpt lat="43.775945333763957" lon="11.920056631788611">
        <ele>882.63</ele>
        <time>2016-06-03T13:00:56Z</time>
      </trkpt>
      <trkpt lat="43.775933096185327" lon="11.920057386159897">
        <ele>882.63</ele>
        <time>2016-06-03T13:00:57Z</time>
      </trkpt>
      <trkpt lat="43.775825221091509" lon="11.920037856325507">
        <ele>879.25999999999999</ele>
        <time>2016-06-03T13:01:06Z</time>
      </trkpt>
      <trkpt lat="43.775793369859457" lon="11.920018158853054">
        <ele>878.29999999999995</ele>
        <time>2016-06-03T13:01:09Z</time>
      </trkpt>
      <trkpt lat="43.775741988793015" lon="11.919999718666077">
        <ele>877.34000000000003</ele>
        <time>2016-06-03T13:01:13Z</time>
      </trkpt>
      <trkpt lat="43.775661773979664" lon="11.919888909906149">
        <ele>875.41999999999996</ele>
        <time>2016-06-03T13:01:24Z</time>
      </trkpt>
      <trkpt lat="43.775600418448448" lon="11.919775251299143">
        <ele>873.00999999999999</ele>
        <time>2016-06-03T13:01:35Z</time>
      </trkpt>
      <trkpt lat="43.775560855865479" lon="11.919757062569261">
        <ele>872.52999999999997</ele>
        <time>2016-06-03T13:01:38Z</time>
      </trkpt>
      <trkpt lat="43.775384500622749" lon="11.919680619612336">
        <ele>870.61000000000001</ele>
        <time>2016-06-03T13:01:51Z</time>
      </trkpt>
      <trkpt lat="43.775253323838115" lon="11.919667962938547">
        <ele>870.61000000000001</ele>
        <time>2016-06-03T13:02:02Z</time>
      </trkpt>
      <trkpt lat="43.775106472894549" lon="11.919672740623355">
        <ele>870.61000000000001</ele>
        <time>2016-06-03T13:02:14Z</time>
      </trkpt>
      <trkpt lat="43.774987449869514" lon="11.919672405347228">
        <ele>870.61000000000001</ele>
        <time>2016-06-03T13:02:24Z</time>
      </trkpt>
      <trkpt lat="43.774973200634122" lon="11.91967056132853">
        <ele>870.61000000000001</ele>
        <time>2016-06-03T13:02:25Z</time>
      </trkpt>
      <trkpt lat="43.774905893951654" lon="11.919643403962255">
        <ele>863.88</ele>
        <time>2016-06-03T13:02:30Z</time>
      </trkpt>
      <trkpt lat="43.77489298582077" lon="11.919635022059083">
        <ele>863.88</ele>
        <time>2016-06-03T13:02:31Z</time>
      </trkpt>
      <trkpt lat="43.774830289185047" lon="11.919466629624367">
        <ele>861.96000000000004</ele>
        <time>2016-06-03T13:02:42Z</time>
      </trkpt>
      <trkpt lat="43.774755857884884" lon="11.919339392334223">
        <ele>860.51999999999998</ele>
        <time>2016-06-03T13:02:53Z</time>
      </trkpt>
      <trkpt lat="43.774682348594069" lon="11.9192248955369">
        <ele>858.59000000000003</ele>
        <time>2016-06-03T13:03:01Z</time>
      </trkpt>
      <trkpt lat="43.774621412158012" lon="11.919097993522882">
        <ele>856.66999999999996</ele>
        <time>2016-06-03T13:03:13Z</time>
      </trkpt>
      <trkpt lat="43.774583945050836" lon="11.919039487838745">
        <ele>855.71000000000004</ele>
        <time>2016-06-03T13:03:18Z</time>
      </trkpt>
      <trkpt lat="43.774568689987063" lon="11.918951980769634">
        <ele>854.75</ele>
        <time>2016-06-03T13:03:22Z</time>
      </trkpt>
      <trkpt lat="43.774499706923962" lon="11.918789874762297">
        <ele>852.35000000000002</ele>
        <time>2016-06-03T13:03:34Z</time>
      </trkpt>
      <trkpt lat="43.774437848478556" lon="11.918713683262467">
        <ele>850.89999999999998</ele>
        <time>2016-06-03T13:03:42Z</time>
      </trkpt>
      <trkpt lat="43.7743457313627" lon="11.918665068224072">
        <ele>848.5</ele>
        <time>2016-06-03T13:03:54Z</time>
      </trkpt>
      <trkpt lat="43.774283034726977" lon="11.91864151507616">
        <ele>845.13999999999999</ele>
        <time>2016-06-03T13:04:08Z</time>
      </trkpt>
      <trkpt lat="43.774272557348013" lon="11.91863807849586">
        <ele>844.65999999999997</ele>
        <time>2016-06-03T13:04:10Z</time>
      </trkpt>
      <trkpt lat="43.774173567071557" lon="11.91854914650321">
        <ele>841.28999999999996</ele>
        <time>2016-06-03T13:04:21Z</time>
      </trkpt>
      <trkpt lat="43.774095866829157" lon="11.918494328856468">
        <ele>838.40999999999997</ele>
        <time>2016-06-03T13:04:31Z</time>
      </trkpt>
      <trkpt lat="43.77402076497674" lon="11.918470608070493">
        <ele>836.48000000000002</ele>
        <time>2016-06-03T13:04:40Z</time>
      </trkpt>
      <trkpt lat="43.773972736671567" lon="11.918468177318573">
        <ele>835.51999999999998</ele>
        <time>2016-06-03T13:04:45Z</time>
      </trkpt>
      <trkpt lat="43.773845918476582" lon="11.91847488284111">
        <ele>833.60000000000002</ele>
        <time>2016-06-03T13:04:59Z</time>
      </trkpt>
      <trkpt lat="43.773727482184768" lon="11.918521234765649">
        <ele>832.15999999999997</ele>
        <time>2016-06-03T13:05:10Z</time>
      </trkpt>
      <trkpt lat="43.773572836071253" lon="11.918507572263479">
        <ele>828.78999999999996</ele>
        <time>2016-06-03T13:05:23Z</time>
      </trkpt>
      <trkpt lat="43.773478036746383" lon="11.918400786817074">
        <ele>827.35000000000002</ele>
        <time>2016-06-03T13:05:33Z</time>
      </trkpt>
      <trkpt lat="43.773363875225186" lon="11.91823692061007">
        <ele>826.87</ele>
        <time>2016-06-03T13:05:46Z</time>
      </trkpt>
      <trkpt lat="43.773374268785119" lon="11.918233819305897">
        <ele>826.38999999999999</ele>
        <time>2016-06-03T13:05:57Z</time>
      </trkpt>
      <trkpt lat="43.773363959044218" lon="11.918236585333943">
        <ele>826.87</ele>
        <time>2016-06-03T13:06:07Z</time>
      </trkpt>
      <trkpt lat="43.773374687880278" lon="11.918168440461159">
        <ele>826.87</ele>
        <time>2016-06-03T13:06:19Z</time>
      </trkpt>
      <trkpt lat="43.773344596847892" lon="11.918187802657485">
        <ele>826.87</ele>
        <time>2016-06-03T13:06:37Z</time>
      </trkpt>
      <trkpt lat="43.773402431979775" lon="11.918123010545969">
        <ele>826.87</ele>
        <time>2016-06-03T13:06:49Z</time>
      </trkpt>
      <trkpt lat="43.773404527455568" lon="11.91811035387218">
        <ele>826.87</ele>
        <time>2016-06-03T13:07:02Z</time>
      </trkpt>
      <trkpt lat="43.773400923237205" lon="11.918039275333285">
        <ele>827.35000000000002</ele>
        <time>2016-06-03T13:07:20Z</time>
      </trkpt>
      <trkpt lat="43.773429673165083" lon="11.917967358604074">
        <ele>827.35000000000002</ele>
        <time>2016-06-03T13:07:31Z</time>
      </trkpt>
      <trkpt lat="43.773422297090292" lon="11.917944811284542">
        <ele>827.35000000000002</ele>
        <time>2016-06-03T13:07:45Z</time>
      </trkpt>
      <trkpt lat="43.773449789732695" lon="11.917909104377031">
        <ele>827.35000000000002</ele>
        <time>2016-06-03T13:08:14Z</time>
      </trkpt>
      <trkpt lat="43.773458674550056" lon="11.917893430218101">
        <ele>827.83000000000004</ele>
        <time>2016-06-03T13:08:16Z</time>
      </trkpt>
      <trkpt lat="43.773503182455897" lon="11.917763091623783">
        <ele>828.78999999999996</ele>
        <time>2016-06-03T13:08:28Z</time>
      </trkpt>
      <trkpt lat="43.773501254618168" lon="11.917788991704583">
        <ele>828.78999999999996</ele>
        <time>2016-06-03T13:08:37Z</time>
      </trkpt>
      <trkpt lat="43.773452136665583" lon="11.917978087440133">
        <ele>827.83000000000004</ele>
        <time>2016-06-03T13:08:49Z</time>
      </trkpt>
      <trkpt lat="43.773397067561746" lon="11.918167266994715">
        <ele>826.87</ele>
        <time>2016-06-03T13:09:03Z</time>
      </trkpt>
      <trkpt lat="43.773325653746724" lon="11.918266676366329">
        <ele>826.38999999999999</ele>
        <time>2016-06-03T13:09:14Z</time>
      </trkpt>
      <trkpt lat="43.773215766996145" lon="11.918359128758311">
        <ele>825.90999999999997</ele>
        <time>2016-06-03T13:09:25Z</time>
      </trkpt>
      <trkpt lat="43.77319497987628" lon="11.918376898393035">
        <ele>825.90999999999997</ele>
        <time>2016-06-03T13:09:27Z</time>
      </trkpt>
      <trkpt lat="43.773135552182794" lon="11.918424842879176">
        <ele>825.42999999999995</ele>
        <time>2016-06-03T13:09:32Z</time>
      </trkpt>
      <trkpt lat="43.772989371791482" lon="11.918538082391024">
        <ele>823.50999999999999</ele>
        <time>2016-06-03T13:09:46Z</time>
      </trkpt>
      <trkpt lat="43.772912928834558" lon="11.918672695755959">
        <ele>822.05999999999995</ele>
        <time>2016-06-03T13:09:56Z</time>
      </trkpt>
      <trkpt lat="43.772843694314361" lon="11.918754335492849">
        <ele>820.62</ele>
        <time>2016-06-03T13:10:06Z</time>
      </trkpt>
      <trkpt lat="43.772778734564781" lon="11.918838741257787">
        <ele>819.17999999999995</ele>
        <time>2016-06-03T13:10:14Z</time>
      </trkpt>
      <trkpt lat="43.772723581641912" lon="11.918877884745598">
        <ele>817.74000000000001</ele>
        <time>2016-06-03T13:10:19Z</time>
      </trkpt>
      <trkpt lat="43.772586453706026" lon="11.918998919427395">
        <ele>814.37</ele>
        <time>2016-06-03T13:10:30Z</time>
      </trkpt>
      <trkpt lat="43.772469023242593" lon="11.919082319363952">
        <ele>811.49000000000001</ele>
        <time>2016-06-03T13:10:42Z</time>
      </trkpt>
      <trkpt lat="43.77242686226964" lon="11.919066561385989">
        <ele>810.52999999999997</ele>
        <time>2016-06-03T13:10:46Z</time>
      </trkpt>
      <trkpt lat="43.772293254733086" lon="11.918931948021054">
        <ele>807.15999999999997</ele>
        <time>2016-06-03T13:10:58Z</time>
      </trkpt>
      <trkpt lat="43.772288225591183" lon="11.918920716270804">
        <ele>806.67999999999995</ele>
        <time>2016-06-03T13:10:59Z</time>
      </trkpt>
      <trkpt lat="43.772250255569816" lon="11.918880818411708">
        <ele>805.72000000000003</ele>
        <time>2016-06-03T13:11:03Z</time>
      </trkpt>
      <trkpt lat="43.772185295820236" lon="11.918856594711542">
        <ele>804.27999999999997</ele>
        <time>2016-06-03T13:11:08Z</time>
      </trkpt>
      <trkpt lat="43.772017154842615" lon="11.918866652995348">
        <ele>800.91999999999996</ele>
        <time>2016-06-03T13:11:19Z</time>
      </trkpt>
      <trkpt lat="43.77198907546699" lon="11.918877381831408">
        <ele>800.44000000000005</ele>
        <time>2016-06-03T13:11:22Z</time>
      </trkpt>
      <trkpt lat="43.771923948079348" lon="11.918994979932904">
        <ele>797.07000000000005</ele>
        <time>2016-06-03T13:11:35Z</time>
      </trkpt>
      <trkpt lat="43.771854545921087" lon="11.919164964929223">
        <ele>795.14999999999998</ele>
        <time>2016-06-03T13:11:47Z</time>
      </trkpt>
      <trkpt lat="43.771711466833949" lon="11.919243838638067">
        <ele>792.25999999999999</ele>
        <time>2016-06-03T13:12:00Z</time>
      </trkpt>
      <trkpt lat="43.771598814055324" lon="11.919327070936561">
        <ele>790.34000000000003</ele>
        <time>2016-06-03T13:12:11Z</time>
      </trkpt>
      <trkpt lat="43.771422542631626" lon="11.919431425631046">
        <ele>787.46000000000004</ele>
        <time>2016-06-03T13:12:26Z</time>
      </trkpt>
      <trkpt lat="43.771357918158174" lon="11.919422037899494">
        <ele>786.01999999999998</ele>
        <time>2016-06-03T13:12:31Z</time>
      </trkpt>
      <trkpt lat="43.771183909848332" lon="11.919411728158593">
        <ele>783.61000000000001</ele>
        <time>2016-06-03T13:12:45Z</time>
      </trkpt>
      <trkpt lat="43.771172175183892" lon="11.91944869235158">
        <ele>783.61000000000001</ele>
        <time>2016-06-03T13:12:55Z</time>
      </trkpt>
      <trkpt lat="43.771116938441992" lon="11.919431760907173">
        <ele>783.13</ele>
        <time>2016-06-03T13:13:05Z</time>
      </trkpt>
      <trkpt lat="43.770985677838326" lon="11.91943846642971">
        <ele>781.21000000000004</ele>
        <time>2016-06-03T13:13:16Z</time>
      </trkpt>
      <trkpt lat="43.770842850208282" lon="11.919398484751582">
        <ele>779.28999999999996</ele>
        <time>2016-06-03T13:13:28Z</time>
      </trkpt>
      <trkpt lat="43.770855590701103" lon="11.919382559135556">
        <ele>779.28999999999996</ele>
        <time>2016-06-03T13:13:38Z</time>
      </trkpt>
      <trkpt lat="43.770763892680407" lon="11.91931483335793">
        <ele>778.32000000000005</ele>
        <time>2016-06-03T13:13:49Z</time>
      </trkpt>
      <trkpt lat="43.770642774179578" lon="11.919195223599672">
        <ele>776.88</ele>
        <time>2016-06-03T13:14:01Z</time>
      </trkpt>
      <trkpt lat="43.770600026473403" lon="11.919156331568956">
        <ele>776.39999999999998</ele>
        <time>2016-06-03T13:14:05Z</time>
      </trkpt>
      <trkpt lat="43.770474130287766" lon="11.919080642983317">
        <ele>774.96000000000004</ele>
        <time>2016-06-03T13:14:16Z</time>
      </trkpt>
      <trkpt lat="43.770340019837022" lon="11.919001685455441">
        <ele>773.03999999999996</ele>
        <time>2016-06-03T13:14:27Z</time>
      </trkpt>
      <trkpt lat="43.770216051489115" lon="11.918907556682825">
        <ele>771.11000000000001</ele>
        <time>2016-06-03T13:14:38Z</time>
      </trkpt>
      <trkpt lat="43.77015377394855" lon="11.918845279142261">
        <ele>770.14999999999998</ele>
        <time>2016-06-03T13:14:45Z</time>
      </trkpt>
      <trkpt lat="43.770045563578606" lon="11.918803369626403">
        <ele>769.19000000000005</ele>
        <time>2016-06-03T13:14:57Z</time>
      </trkpt>
      <trkpt lat="43.770035253837705" lon="11.918808147311211">
        <ele>768.71000000000004</ele>
        <time>2016-06-03T13:14:58Z</time>
      </trkpt>
      <trkpt lat="43.769866609945893" lon="11.918819295242429">
        <ele>768.23000000000002</ele>
        <time>2016-06-03T13:15:12Z</time>
      </trkpt>
      <trkpt lat="43.769786646589637" lon="11.918801022693515">
        <ele>767.75</ele>
        <time>2016-06-03T13:15:22Z</time>
      </trkpt>
      <trkpt lat="43.769705258309841" lon="11.918757604435086">
        <ele>766.78999999999996</ele>
        <time>2016-06-03T13:15:34Z</time>
      </trkpt>
      <trkpt lat="43.769722525030375" lon="11.918751820921898">
        <ele>766.78999999999996</ele>
        <time>2016-06-03T13:15:39Z</time>
      </trkpt>
      <trkpt lat="43.769628647714853" lon="11.918601030483842">
        <ele>765.83000000000004</ele>
        <time>2016-06-03T13:15:51Z</time>
      </trkpt>
      <trkpt lat="43.769706515595317" lon="11.918595414608717">
        <ele>765.83000000000004</ele>
        <time>2016-06-03T13:16:02Z</time>
      </trkpt>
      <trkpt lat="43.769714226946235" lon="11.918603712692857">
        <ele>765.83000000000004</ele>
        <time>2016-06-03T13:16:11Z</time>
      </trkpt>
      <trkpt lat="43.769716573879123" lon="11.918640257790685">
        <ele>765.35000000000002</ele>
        <time>2016-06-03T13:16:24Z</time>
      </trkpt>
      <trkpt lat="43.769711963832378" lon="11.918642437085509">
        <ele>765.35000000000002</ele>
        <time>2016-06-03T13:16:41Z</time>
      </trkpt>
      <trkpt lat="43.769698468968272" lon="11.918648974969983">
        <ele>765.35000000000002</ele>
        <time>2016-06-03T13:16:54Z</time>
      </trkpt>
      <trkpt lat="43.769695786759257" lon="11.918637407943606">
        <ele>765.35000000000002</ele>
        <time>2016-06-03T13:17:21Z</time>
      </trkpt>
      <trkpt lat="43.769695870578289" lon="11.918646711856127">
        <ele>765.35000000000002</ele>
        <time>2016-06-03T13:17:41Z</time>
      </trkpt>
      <trkpt lat="43.769678771495819" lon="11.918624499812722">
        <ele>765.35000000000002</ele>
        <time>2016-06-03T13:18:00Z</time>
      </trkpt>
      <trkpt lat="43.769685393199325" lon="11.918635312467813">
        <ele>765.83000000000004</ele>
        <time>2016-06-03T13:18:16Z</time>
      </trkpt>
      <trkpt lat="43.769704671576619" lon="11.918642604723573">
        <ele>765.35000000000002</ele>
        <time>2016-06-03T13:18:44Z</time>
      </trkpt>
      <trkpt lat="43.769708359614015" lon="11.918642101809382">
        <ele>765.35000000000002</ele>
        <time>2016-06-03T13:19:04Z</time>
      </trkpt>
      <trkpt lat="43.769710203632712" lon="11.918653165921569">
        <ele>765.35000000000002</ele>
        <time>2016-06-03T13:19:29Z</time>
      </trkpt>
      <trkpt lat="43.769715651869774" lon="11.918664816766977">
        <ele>765.83000000000004</ele>
        <time>2016-06-03T13:19:59Z</time>
      </trkpt>
      <trkpt lat="43.769708862528205" lon="11.918659871444106">
        <ele>765.35000000000002</ele>
        <time>2016-06-03T13:20:29Z</time>
      </trkpt>
      <trkpt lat="43.769722022116184" lon="11.918664984405041">
        <ele>765.35000000000002</ele>
        <time>2016-06-03T13:20:52Z</time>
      </trkpt>
      <trkpt lat="43.769708191975951" lon="11.91866104491055">
        <ele>765.83000000000004</ele>
        <time>2016-06-03T13:21:18Z</time>
      </trkpt>
      <trkpt lat="43.76970668323338" lon="11.918683676049113">
        <ele>765.83000000000004</ele>
        <time>2016-06-03T13:21:36Z</time>
      </trkpt>
      <trkpt lat="43.7697091139853" lon="11.918718963861465">
        <ele>765.83000000000004</ele>
        <time>2016-06-03T13:22:02Z</time>
      </trkpt>
      <trkpt lat="43.769709868356586" lon="11.918716449290514">
        <ele>765.83000000000004</ele>
        <time>2016-06-03T13:22:20Z</time>
      </trkpt>
      <trkpt lat="43.769685896113515" lon="11.918704630807042">
        <ele>765.83000000000004</ele>
        <time>2016-06-03T13:22:46Z</time>
      </trkpt>
      <trkpt lat="43.769693104550242" lon="11.918628187850118">
        <ele>765.35000000000002</ele>
        <time>2016-06-03T13:23:15Z</time>
      </trkpt>
      <trkpt lat="43.769684219732881" lon="11.918664062395692">
        <ele>765.83000000000004</ele>
        <time>2016-06-03T13:23:41Z</time>
      </trkpt>
      <trkpt lat="43.76969394274056" lon="11.918689291924238">
        <ele>765.83000000000004</ele>
        <time>2016-06-03T13:24:01Z</time>
      </trkpt>
      <trkpt lat="43.769696792587638" lon="11.918712425976992">
        <ele>765.83000000000004</ele>
        <time>2016-06-03T13:24:26Z</time>
      </trkpt>
      <trkpt lat="43.769702408462763" lon="11.918698428198695">
        <ele>765.83000000000004</ele>
        <time>2016-06-03T13:24:54Z</time>
      </trkpt>
      <trkpt lat="43.76971447840333" lon="11.918704211711884">
        <ele>765.83000000000004</ele>
        <time>2016-06-03T13:25:17Z</time>
      </trkpt>
      <trkpt lat="43.769709952175617" lon="11.918709576129913">
        <ele>765.83000000000004</ele>
        <time>2016-06-03T13:25:43Z</time>
      </trkpt>
      <trkpt lat="43.769700396806002" lon="11.918730111792684">
        <ele>765.83000000000004</ele>
        <time>2016-06-03T13:26:12Z</time>
      </trkpt>
      <trkpt lat="43.769706431776285" lon="11.918749725446105">
        <ele>765.83000000000004</ele>
        <time>2016-06-03T13:26:35Z</time>
      </trkpt>
      <trkpt lat="43.76970031298697" lon="11.918759448453784">
        <ele>766.30999999999995</ele>
        <time>2016-06-03T13:26:58Z</time>
      </trkpt>
      <trkpt lat="43.769720094278455" lon="11.918682083487511">
        <ele>766.30999999999995</ele>
        <time>2016-06-03T13:27:21Z</time>
      </trkpt>
      <trkpt lat="43.769688997417688" lon="11.918644364923239">
        <ele>766.30999999999995</ele>
        <time>2016-06-03T13:27:46Z</time>
      </trkpt>
      <trkpt lat="43.769692685455084" lon="11.918640593066812">
        <ele>766.30999999999995</ele>
        <time>2016-06-03T13:28:11Z</time>
      </trkpt>
      <trkpt lat="43.769699139520526" lon="11.918651238083839">
        <ele>766.30999999999995</ele>
        <time>2016-06-03T13:28:33Z</time>
      </trkpt>
      <trkpt lat="43.769703162834048" lon="11.918644951656461">
        <ele>766.30999999999995</ele>
        <time>2016-06-03T13:28:55Z</time>
      </trkpt>
      <trkpt lat="43.769708024337888" lon="11.918651657178998">
        <ele>766.30999999999995</ele>
        <time>2016-06-03T13:29:18Z</time>
      </trkpt>
      <trkpt lat="43.769703414291143" lon="11.918658027425408">
        <ele>766.30999999999995</ele>
        <time>2016-06-03T13:29:45Z</time>
      </trkpt>
      <trkpt lat="43.769699726253748" lon="11.918668001890182">
        <ele>766.30999999999995</ele>
        <time>2016-06-03T13:30:10Z</time>
      </trkpt>
      <trkpt lat="43.769709030166268" lon="11.918637324124575">
        <ele>766.30999999999995</ele>
        <time>2016-06-03T13:30:34Z</time>
      </trkpt>
      <trkpt lat="43.769703665748239" lon="11.918665068224072">
        <ele>766.78999999999996</ele>
        <time>2016-06-03T13:30:57Z</time>
      </trkpt>
      <trkpt lat="43.76973258331418" lon="11.918672192841768">
        <ele>766.30999999999995</ele>
        <time>2016-06-03T13:31:24Z</time>
      </trkpt>
      <trkpt lat="43.76975454390049" lon="11.918645035475492">
        <ele>766.30999999999995</ele>
        <time>2016-06-03T13:31:50Z</time>
      </trkpt>
      <trkpt lat="43.769734594970942" lon="11.918642017990351">
        <ele>766.30999999999995</ele>
        <time>2016-06-03T13:32:18Z</time>
      </trkpt>
      <trkpt lat="43.769726548343897" lon="11.918653249740601">
        <ele>766.30999999999995</ele>
        <time>2016-06-03T13:32:45Z</time>
      </trkpt>
      <trkpt lat="43.76970081590116" lon="11.918677473440766">
        <ele>766.30999999999995</ele>
        <time>2016-06-03T13:33:11Z</time>
      </trkpt>
      <trkpt lat="43.769720597192645" lon="11.918675294145942">
        <ele>766.30999999999995</ele>
        <time>2016-06-03T13:33:36Z</time>
      </trkpt>
      <trkpt lat="43.769762171432376" lon="11.918639754876494">
        <ele>766.78999999999996</ele>
        <time>2016-06-03T13:34:04Z</time>
      </trkpt>
      <trkpt lat="43.769727218896151" lon="11.918599521741271">
        <ele>766.30999999999995</ele>
        <time>2016-06-03T13:34:19Z</time>
      </trkpt>
      <trkpt lat="43.769699223339558" lon="11.918582255020738">
        <ele>766.30999999999995</ele>
        <time>2016-06-03T13:34:33Z</time>
      </trkpt>
      <trkpt lat="43.769710790365934" lon="11.918579740449786">
        <ele>766.30999999999995</ele>
        <time>2016-06-03T13:34:46Z</time>
      </trkpt>
      <trkpt lat="43.769711796194315" lon="11.918591056019068">
        <ele>766.30999999999995</ele>
        <time>2016-06-03T13:35:03Z</time>
      </trkpt>
      <trkpt lat="43.769706431776285" lon="11.918575381860137">
        <ele>766.30999999999995</ele>
        <time>2016-06-03T13:35:23Z</time>
      </trkpt>
      <trkpt lat="43.769688159227371" lon="11.918596671894193">
        <ele>766.78999999999996</ele>
        <time>2016-06-03T13:35:33Z</time>
      </trkpt>
      <trkpt lat="43.769688326865435" lon="11.91859851591289">
        <ele>766.78999999999996</ele>
        <time>2016-06-03T13:35:47Z</time>
      </trkpt>
      <trkpt lat="43.769654799252748" lon="11.918586865067482">
        <ele>766.78999999999996</ele>
        <time>2016-06-03T13:35:59Z</time>
      </trkpt>
      <trkpt lat="43.769555557519197" lon="11.918620811775327">
        <ele>766.78999999999996</ele>
        <time>2016-06-03T13:36:09Z</time>
      </trkpt>
      <trkpt lat="43.769408958032727" lon="11.918617459014058">
        <ele>766.30999999999995</ele>
        <time>2016-06-03T13:36:24Z</time>
      </trkpt>
      <trkpt lat="43.7693827226758" lon="11.918604634702206">
        <ele>765.83000000000004</ele>
        <time>2016-06-03T13:36:35Z</time>
      </trkpt>
      <trkpt lat="43.769395630806684" lon="11.918607652187347">
        <ele>765.83000000000004</ele>
        <time>2016-06-03T13:36:47Z</time>
      </trkpt>
      <trkpt lat="43.769400659948587" lon="11.918593067675829">
        <ele>766.30999999999995</ele>
        <time>2016-06-03T13:36:58Z</time>
      </trkpt>
      <trkpt lat="43.769426560029387" lon="11.918578064069152">
        <ele>766.30999999999995</ele>
        <time>2016-06-03T13:37:07Z</time>
      </trkpt>
      <trkpt lat="43.769445838406682" lon="11.918617291375995">
        <ele>766.30999999999995</ele>
        <time>2016-06-03T13:37:20Z</time>
      </trkpt>
      <trkpt lat="43.769474504515529" lon="11.91858334466815">
        <ele>766.30999999999995</ele>
        <time>2016-06-03T13:37:33Z</time>
      </trkpt>
      <trkpt lat="43.769460003823042" lon="11.918599354103208">
        <ele>766.30999999999995</ele>
        <time>2016-06-03T13:37:44Z</time>
      </trkpt>
      <trkpt lat="43.769467966631055" lon="11.918576303869486">
        <ele>766.78999999999996</ele>
        <time>2016-06-03T13:37:57Z</time>
      </trkpt>
      <trkpt lat="43.769488418474793" lon="11.918613100424409">
        <ele>766.30999999999995</ele>
        <time>2016-06-03T13:38:08Z</time>
      </trkpt>
      <trkpt lat="43.76945405267179" lon="11.918623577803373">
        <ele>766.30999999999995</ele>
        <time>2016-06-03T13:38:17Z</time>
      </trkpt>
      <trkpt lat="43.769384818151593" lon="11.918583679944277">
        <ele>766.30999999999995</ele>
        <time>2016-06-03T13:38:26Z</time>
      </trkpt>
      <trkpt lat="43.769223382696509" lon="11.91847731359303">
        <ele>765.83000000000004</ele>
        <time>2016-06-03T13:38:40Z</time>
      </trkpt>
      <trkpt lat="43.769074939191341" lon="11.918412353843451">
        <ele>764.87</ele>
        <time>2016-06-03T13:38:55Z</time>
      </trkpt>
      <trkpt lat="43.768954742699862" lon="11.918362565338612">
        <ele>765.35000000000002</ele>
        <time>2016-06-03T13:39:07Z</time>
      </trkpt>
      <trkpt lat="43.768904116004705" lon="11.918304897844791">
        <ele>765.35000000000002</ele>
        <time>2016-06-03T13:39:17Z</time>
      </trkpt>
      <trkpt lat="43.768911827355623" lon="11.918347394093871">
        <ele>765.35000000000002</ele>
        <time>2016-06-03T13:39:36Z</time>
      </trkpt>
      <trkpt lat="43.7689751945436" lon="11.918371701613069">
        <ele>765.35000000000002</ele>
        <time>2016-06-03T13:39:54Z</time>
      </trkpt>
      <trkpt lat="43.769080974161625" lon="11.918407408520579">
        <ele>765.35000000000002</ele>
        <time>2016-06-03T13:40:06Z</time>
      </trkpt>
      <trkpt lat="43.769150292500854" lon="11.918420400470495">
        <ele>765.35000000000002</ele>
        <time>2016-06-03T13:40:13Z</time>
      </trkpt>
      <trkpt lat="43.769321953877807" lon="11.918494161218405">
        <ele>765.83000000000004</ele>
        <time>2016-06-03T13:40:25Z</time>
      </trkpt>
      <trkpt lat="43.769431421533227" lon="11.918578399345279">
        <ele>765.83000000000004</ele>
        <time>2016-06-03T13:40:37Z</time>
      </trkpt>
      <trkpt lat="43.769494034349918" lon="11.918518217280507">
        <ele>765.35000000000002</ele>
        <time>2016-06-03T13:40:47Z</time>
      </trkpt>
      <trkpt lat="43.769489172846079" lon="11.918488629162312">
        <ele>765.35000000000002</ele>
        <time>2016-06-03T13:40:49Z</time>
      </trkpt>
      <trkpt lat="43.769449526444077" lon="11.918385615572333">
        <ele>764.38999999999999</ele>
        <time>2016-06-03T13:40:56Z</time>
      </trkpt>
      <trkpt lat="43.769351793453097" lon="11.91814748570323">
        <ele>762.46000000000004</ele>
        <time>2016-06-03T13:41:12Z</time>
      </trkpt>
      <trkpt lat="43.769267136231065" lon="11.917923437431455">
        <ele>760.53999999999996</ele>
        <time>2016-06-03T13:41:27Z</time>
      </trkpt>
      <trkpt lat="43.769171917811036" lon="11.917671142145991">
        <ele>758.13999999999999</ele>
        <time>2016-06-03T13:41:43Z</time>
      </trkpt>
      <trkpt lat="43.769066641107202" lon="11.917503504082561">
        <ele>756.69000000000005</ele>
        <time>2016-06-03T13:41:56Z</time>
      </trkpt>
      <trkpt lat="43.768971338868141" lon="11.917352881282568">
        <ele>755.25</ele>
        <time>2016-06-03T13:42:08Z</time>
      </trkpt>
      <trkpt lat="43.768861116841435" lon="11.917199324816465">
        <ele>753.80999999999995</ele>
        <time>2016-06-03T13:42:20Z</time>
      </trkpt>
      <trkpt lat="43.768755923956633" lon="11.917005283758044">
        <ele>751.88999999999999</ele>
        <time>2016-06-03T13:42:34Z</time>
      </trkpt>
      <trkpt lat="43.768697753548622" lon="11.916763968765736">
        <ele>749.49000000000001</ele>
        <time>2016-06-03T13:42:49Z</time>
      </trkpt>
      <trkpt lat="43.768660621717572" lon="11.916617285460234">
        <ele>748.51999999999998</ele>
        <time>2016-06-03T13:43:00Z</time>
      </trkpt>
      <trkpt lat="43.768595075234771" lon="11.916390638798475">
        <ele>746.60000000000002</ele>
        <time>2016-06-03T13:43:15Z</time>
      </trkpt>
      <trkpt lat="43.768502455204725" lon="11.916200118139386">
        <ele>745.15999999999997</ele>
        <time>2016-06-03T13:43:29Z</time>
      </trkpt>
      <trkpt lat="43.768453085795045" lon="11.916152089834213">
        <ele>743.72000000000003</ele>
        <time>2016-06-03T13:43:34Z</time>
      </trkpt>
      <trkpt lat="43.768318556249142" lon="11.916114874184132">
        <ele>742.27999999999997</ele>
        <time>2016-06-03T13:43:47Z</time>
      </trkpt>
      <trkpt lat="43.768143206834793" lon="11.916196346282959">
        <ele>740.35000000000002</ele>
        <time>2016-06-03T13:44:01Z</time>
      </trkpt>
      <trkpt lat="43.767977245151997" lon="11.916271280497313">
        <ele>738.42999999999995</ele>
        <time>2016-06-03T13:44:15Z</time>
      </trkpt>
      <trkpt lat="43.767894012853503" lon="11.916293827816844">
        <ele>737.95000000000005</ele>
        <time>2016-06-03T13:44:27Z</time>
      </trkpt>
      <trkpt lat="43.767908597365022" lon="11.916201207786798">
        <ele>738.42999999999995</ele>
        <time>2016-06-03T13:44:40Z</time>
      </trkpt>
      <trkpt lat="43.767893090844154" lon="11.916153682395816">
        <ele>737.47000000000003</ele>
        <time>2016-06-03T13:44:52Z</time>
      </trkpt>
      <trkpt lat="43.767882529646158" lon="11.916136248037219">
        <ele>736.02999999999997</ele>
        <time>2016-06-03T13:44:54Z</time>
      </trkpt>
      <trkpt lat="43.76778731122613" lon="11.91613482311368">
        <ele>733.62</ele>
        <time>2016-06-03T13:45:06Z</time>
      </trkpt>
      <trkpt lat="43.767776330932975" lon="11.916046980768442">
        <ele>732.17999999999995</ele>
        <time>2016-06-03T13:45:16Z</time>
      </trkpt>
      <trkpt lat="43.767766440287232" lon="11.91598629578948">
        <ele>731.22000000000003</ele>
        <time>2016-06-03T13:45:22Z</time>
      </trkpt>
      <trkpt lat="43.767742216587067" lon="11.915811030194163">
        <ele>727.37</ele>
        <time>2016-06-03T13:45:34Z</time>
      </trkpt>
      <trkpt lat="43.767772559076548" lon="11.915710950270295">
        <ele>725.45000000000005</ele>
        <time>2016-06-03T13:45:42Z</time>
      </trkpt>
      <trkpt lat="43.76780248247087" lon="11.915621431544423">
        <ele>723.52999999999997</ele>
        <time>2016-06-03T13:45:50Z</time>
      </trkpt>
      <trkpt lat="43.767847996205091" lon="11.915477178990841">
        <ele>721.13</ele>
        <time>2016-06-03T13:46:01Z</time>
      </trkpt>
      <trkpt lat="43.767914799973369" lon="11.915365532040596">
        <ele>718.24000000000001</ele>
        <time>2016-06-03T13:46:11Z</time>
      </trkpt>
      <trkpt lat="43.767957463860512" lon="11.915272995829582">
        <ele>715.84000000000003</ele>
        <time>2016-06-03T13:46:19Z</time>
      </trkpt>
      <trkpt lat="43.768058130517602" lon="11.915133101865649">
        <ele>712.95000000000005</ele>
        <time>2016-06-03T13:46:32Z</time>
      </trkpt>
      <trkpt lat="43.7680927477777" lon="11.915059424936771">
        <ele>711.50999999999999</ele>
        <time>2016-06-03T13:46:43Z</time>
      </trkpt>
      <trkpt lat="43.768089478835464" lon="11.915045091882348">
        <ele>711.50999999999999</ele>
        <time>2016-06-03T13:46:44Z</time>
      </trkpt>
      <trkpt lat="43.768083108589053" lon="11.914881309494376">
        <ele>708.14999999999998</ele>
        <time>2016-06-03T13:46:55Z</time>
      </trkpt>
      <trkpt lat="43.768046060577035" lon="11.91475004889071">
        <ele>705.75</ele>
        <time>2016-06-03T13:47:05Z</time>
      </trkpt>
      <trkpt lat="43.767981771379709" lon="11.91461325623095">
        <ele>703.34000000000003</ele>
        <time>2016-06-03T13:47:16Z</time>
      </trkpt>
      <trkpt lat="43.767926869913936" lon="11.914501441642642">
        <ele>699.98000000000002</ele>
        <time>2016-06-03T13:47:27Z</time>
      </trkpt>
      <trkpt lat="43.767867526039481" lon="11.914386861026287">
        <ele>698.04999999999995</ele>
        <time>2016-06-03T13:47:37Z</time>
      </trkpt>
      <trkpt lat="43.767760153859854" lon="11.914213607087731">
        <ele>696.61000000000001</ele>
        <time>2016-06-03T13:47:50Z</time>
      </trkpt>
      <trkpt lat="43.767733415588737" lon="11.914187874644995">
        <ele>696.13</ele>
        <time>2016-06-03T13:48:01Z</time>
      </trkpt>
      <trkpt lat="43.767674658447504" lon="11.91405275836587">
        <ele>694.69000000000005</ele>
        <time>2016-06-03T13:48:14Z</time>
      </trkpt>
      <trkpt lat="43.767629312351346" lon="11.913921497762203">
        <ele>691.80999999999995</ele>
        <time>2016-06-03T13:48:23Z</time>
      </trkpt>
      <trkpt lat="43.767641549929976" lon="11.913774060085416">
        <ele>688.44000000000005</ele>
        <time>2016-06-03T13:48:32Z</time>
      </trkpt>
      <trkpt lat="43.767619673162699" lon="11.913716224953532">
        <ele>687</ele>
        <time>2016-06-03T13:48:35Z</time>
      </trkpt>
      <trkpt lat="43.767520263791084" lon="11.91352310590446">
        <ele>683.63</ele>
        <time>2016-06-03T13:48:48Z</time>
      </trkpt>
      <trkpt lat="43.767457650974393" lon="11.913344487547874">
        <ele>680.75</ele>
        <time>2016-06-03T13:48:59Z</time>
      </trkpt>
      <trkpt lat="43.767455304041505" lon="11.913157403469086">
        <ele>677.87</ele>
        <time>2016-06-03T13:49:10Z</time>
      </trkpt>
      <trkpt lat="43.767455723136663" lon="11.913140807300806">
        <ele>677.38999999999999</ele>
        <time>2016-06-03T13:49:11Z</time>
      </trkpt>
      <trkpt lat="43.767509534955025" lon="11.91305941902101">
        <ele>674.5</ele>
        <time>2016-06-03T13:49:19Z</time>
      </trkpt>
      <trkpt lat="43.767530908808112" lon="11.913058245554566">
        <ele>673.53999999999996</ele>
        <time>2016-06-03T13:49:21Z</time>
      </trkpt>
      <trkpt lat="43.767574578523636" lon="11.913067046552896">
        <ele>672.10000000000002</ele>
        <time>2016-06-03T13:49:25Z</time>
      </trkpt>
      <trkpt lat="43.767653284594417" lon="11.91303494386375">
        <ele>669.22000000000003</ele>
        <time>2016-06-03T13:49:34Z</time>
      </trkpt>
      <trkpt lat="43.767664600163698" lon="11.913024550303817">
        <ele>668.73000000000002</ele>
        <time>2016-06-03T13:49:35Z</time>
      </trkpt>
      <trkpt lat="43.767750011757016" lon="11.912880716845393">
        <ele>666.33000000000004</ele>
        <time>2016-06-03T13:49:46Z</time>
      </trkpt>
      <trkpt lat="43.76784497871995" lon="11.912698158994317">
        <ele>665.37</ele>
        <time>2016-06-03T13:50:00Z</time>
      </trkpt>
      <trkpt lat="43.767935922369361" lon="11.912552062422037">
        <ele>663.45000000000005</ele>
        <time>2016-06-03T13:50:12Z</time>
      </trkpt>
      <trkpt lat="43.768048575147986" lon="11.91252775490284">
        <ele>660.55999999999995</ele>
        <time>2016-06-03T13:50:23Z</time>
      </trkpt>
      <trkpt lat="43.768073720857501" lon="11.91252532415092">
        <ele>659.60000000000002</ele>
        <time>2016-06-03T13:50:25Z</time>
      </trkpt>
      <trkpt lat="43.768126526847482" lon="11.912491042166948">
        <ele>659.12</ele>
        <time>2016-06-03T13:50:32Z</time>
      </trkpt>
      <trkpt lat="43.768132561817765" lon="11.912452485412359">
        <ele>658.63999999999999</ele>
        <time>2016-06-03T13:50:35Z</time>
      </trkpt>
      <trkpt lat="43.768085455521941" lon="11.91226095892489">
        <ele>656.72000000000003</ele>
        <time>2016-06-03T13:50:49Z</time>
      </trkpt>
      <trkpt lat="43.767990907654166" lon="11.912134392186999">
        <ele>656.72000000000003</ele>
        <time>2016-06-03T13:51:02Z</time>
      </trkpt>
      <trkpt lat="43.767983028665185" lon="11.912116371095181">
        <ele>656.72000000000003</ele>
        <time>2016-06-03T13:51:04Z</time>
      </trkpt>
      <trkpt lat="43.767971629276872" lon="11.912077395245433">
        <ele>656.72000000000003</ele>
        <time>2016-06-03T13:51:06Z</time>
      </trkpt>
      <trkpt lat="43.767975904047489" lon="11.911910679191351">
        <ele>655.27999999999997</ele>
        <time>2016-06-03T13:51:18Z</time>
      </trkpt>
      <trkpt lat="43.767986549064517" lon="11.911843121051788">
        <ele>655.27999999999997</ele>
        <time>2016-06-03T13:51:24Z</time>
      </trkpt>
      <trkpt lat="43.768051508814096" lon="11.911750584840775">
        <ele>652.38999999999999</ele>
        <time>2016-06-03T13:51:34Z</time>
      </trkpt>
      <trkpt lat="43.768099620938301" lon="11.911711441352963">
        <ele>650.47000000000003</ele>
        <time>2016-06-03T13:51:44Z</time>
      </trkpt>
      <trkpt lat="43.768075397238135" lon="11.911626616492867">
        <ele>649.99000000000001</ele>
        <time>2016-06-03T13:51:51Z</time>
      </trkpt>
      <trkpt lat="43.768053269013762" lon="11.911635752767324">
        <ele>649.99000000000001</ele>
        <time>2016-06-03T13:52:02Z</time>
      </trkpt>
      <trkpt lat="43.767967773601413" lon="11.911619240418077">
        <ele>649.50999999999999</ele>
        <time>2016-06-03T13:52:15Z</time>
      </trkpt>
      <trkpt lat="43.767901053652167" lon="11.911644637584686">
        <ele>649.50999999999999</ele>
        <time>2016-06-03T13:52:22Z</time>
      </trkpt>
      <trkpt lat="43.76785134896636" lon="11.911599794402719">
        <ele>650.47000000000003</ele>
        <time>2016-06-03T13:52:32Z</time>
      </trkpt>
      <trkpt lat="43.767804997041821" lon="11.911529218778014">
        <ele>652.38999999999999</ele>
        <time>2016-06-03T13:52:44Z</time>
      </trkpt>
      <trkpt lat="43.767764931544662" lon="11.911467360332608">
        <ele>654.79999999999995</ele>
        <time>2016-06-03T13:52:57Z</time>
      </trkpt>
      <trkpt lat="43.767701731994748" lon="11.911423858255148">
        <ele>657.20000000000005</ele>
        <time>2016-06-03T13:53:10Z</time>
      </trkpt>
      <trkpt lat="43.767609782516956" lon="11.911353282630444">
        <ele>659.12</ele>
        <time>2016-06-03T13:53:25Z</time>
      </trkpt>
      <trkpt lat="43.767602238804102" lon="11.911314893513918">
        <ele>659.12</ele>
        <time>2016-06-03T13:53:43Z</time>
      </trkpt>
      <trkpt lat="43.767554210498929" lon="11.911231661215425">
        <ele>662.00999999999999</ele>
        <time>2016-06-03T13:53:59Z</time>
      </trkpt>
      <trkpt lat="43.767628474161029" lon="11.911168545484543">
        <ele>664.40999999999997</ele>
        <time>2016-06-03T13:54:14Z</time>
      </trkpt>
      <trkpt lat="43.767731823027134" lon="11.911147255450487">
        <ele>667.28999999999996</ele>
        <time>2016-06-03T13:54:31Z</time>
      </trkpt>
      <trkpt lat="43.767850510776043" lon="11.911136526614428">
        <ele>669.70000000000005</ele>
        <time>2016-06-03T13:54:47Z</time>
      </trkpt>
      <trkpt lat="43.767910273745656" lon="11.911095455288887">
        <ele>672.10000000000002</ele>
        <time>2016-06-03T13:55:01Z</time>
      </trkpt>
      <trkpt lat="43.767947154119611" lon="11.911032674834132">
        <ele>673.53999999999996</ele>
        <time>2016-06-03T13:55:13Z</time>
      </trkpt>
      <trkpt lat="43.767969449982047" lon="11.910861264914274">
        <ele>674.98000000000002</ele>
        <time>2016-06-03T13:55:27Z</time>
      </trkpt>
      <trkpt lat="43.767966013401747" lon="11.910738721489906">
        <ele>676.90999999999997</ele>
        <time>2016-06-03T13:55:43Z</time>
      </trkpt>
      <trkpt lat="43.767960229888558" lon="11.910626320168376">
        <ele>678.35000000000002</ele>
        <time>2016-06-03T13:55:55Z</time>
      </trkpt>
      <trkpt lat="43.768027788028121" lon="11.910569993779063">
        <ele>680.26999999999998</ele>
        <time>2016-06-03T13:56:07Z</time>
      </trkpt>
      <trkpt lat="43.768095094710588" lon="11.910535041242838">
        <ele>682.19000000000005</ele>
        <time>2016-06-03T13:56:18Z</time>
      </trkpt>
      <trkpt lat="43.768154941499233" lon="11.910457173362374">
        <ele>684.12</ele>
        <time>2016-06-03T13:56:32Z</time>
      </trkpt>
      <trkpt lat="43.768198192119598" lon="11.910367403179407">
        <ele>685.55999999999995</ele>
        <time>2016-06-03T13:56:44Z</time>
      </trkpt>
      <trkpt lat="43.768236413598061" lon="11.910274783149362">
        <ele>686.51999999999998</ele>
        <time>2016-06-03T13:56:57Z</time>
      </trkpt>
      <trkpt lat="43.768246807157993" lon="11.910255756229162">
        <ele>687.96000000000004</ele>
        <time>2016-06-03T13:57:01Z</time>
      </trkpt>
      <trkpt lat="43.768278742209077" lon="11.910100691020489">
        <ele>690.36000000000001</ele>
        <time>2016-06-03T13:57:16Z</time>
      </trkpt>
      <trkpt lat="43.768293578177691" lon="11.910001365467906">
        <ele>692.28999999999996</ele>
        <time>2016-06-03T13:57:28Z</time>
      </trkpt>
      <trkpt lat="43.76834386959672" lon="11.909897765144706">
        <ele>694.21000000000004</ele>
        <time>2016-06-03T13:57:42Z</time>
      </trkpt>
      <trkpt lat="43.768384018912911" lon="11.909807156771421">
        <ele>696.61000000000001</ele>
        <time>2016-06-03T13:57:55Z</time>
      </trkpt>
      <trkpt lat="43.768413439393044" lon="11.909745633602142">
        <ele>698.52999999999997</ele>
        <time>2016-06-03T13:58:07Z</time>
      </trkpt>
      <trkpt lat="43.768450152128935" lon="11.909680087119341">
        <ele>700.46000000000004</ele>
        <time>2016-06-03T13:58:19Z</time>
      </trkpt>
      <trkpt lat="43.768497761338949" lon="11.909600542858243">
        <ele>702.86000000000001</ele>
        <time>2016-06-03T13:58:33Z</time>
      </trkpt>
      <trkpt lat="43.768550315871835" lon="11.909539438784122">
        <ele>705.25999999999999</ele>
        <time>2016-06-03T13:58:46Z</time>
      </trkpt>
      <trkpt lat="43.768548471853137" lon="11.909496188163757">
        <ele>707.19000000000005</ele>
        <time>2016-06-03T13:58:56Z</time>
      </trkpt>
      <trkpt lat="43.768557859584689" lon="11.909467354416847">
        <ele>708.63</ele>
        <time>2016-06-03T13:59:05Z</time>
      </trkpt>
      <trkpt lat="43.768588621169329" lon="11.909359395503998">
        <ele>711.02999999999997</ele>
        <time>2016-06-03T13:59:18Z</time>
      </trkpt>
      <trkpt lat="43.768630027770996" lon="11.909266607835889">
        <ele>713.44000000000005</ele>
        <time>2016-06-03T13:59:32Z</time>
      </trkpt>
      <trkpt lat="43.768678307533264" lon="11.909163007512689">
        <ele>715.36000000000001</ele>
        <time>2016-06-03T13:59:47Z</time>
      </trkpt>
      <trkpt lat="43.768709236755967" lon="11.909081535413861">
        <ele>717.75999999999999</ele>
        <time>2016-06-03T14:00:01Z</time>
      </trkpt>
      <trkpt lat="43.768758103251457" lon="11.908994195982814">
        <ele>719.67999999999995</ele>
        <time>2016-06-03T14:00:13Z</time>
      </trkpt>
      <trkpt lat="43.768803114071488" lon="11.908908365294337">
        <ele>722.09000000000003</ele>
        <time>2016-06-03T14:00:27Z</time>
      </trkpt>
      <trkpt lat="43.768821051344275" lon="11.908793617039919">
        <ele>724.00999999999999</ele>
        <time>2016-06-03T14:00:41Z</time>
      </trkpt>
      <trkpt lat="43.768810071051121" lon="11.908768052235246">
        <ele>724.00999999999999</ele>
        <time>2016-06-03T14:00:54Z</time>
      </trkpt>
      <trkpt lat="43.768782494589686" lon="11.908710971474648">
        <ele>724.97000000000003</ele>
        <time>2016-06-03T14:01:05Z</time>
      </trkpt>
      <trkpt lat="43.768765395507216" lon="11.908687418326735">
        <ele>725.45000000000005</ele>
        <time>2016-06-03T14:01:17Z</time>
      </trkpt>
      <trkpt lat="43.768680738285184" lon="11.908619357272983">
        <ele>727.37</ele>
        <time>2016-06-03T14:01:31Z</time>
      </trkpt>
      <trkpt lat="43.768620807677507" lon="11.908560851588845">
        <ele>728.82000000000005</ele>
        <time>2016-06-03T14:01:42Z</time>
      </trkpt>
      <trkpt lat="43.768565906211734" lon="11.908468818292022">
        <ele>730.74000000000001</ele>
        <time>2016-06-03T14:01:55Z</time>
      </trkpt>
      <trkpt lat="43.768521314486861" lon="11.908354740589857">
        <ele>732.17999999999995</ele>
        <time>2016-06-03T14:02:08Z</time>
      </trkpt>
      <trkpt lat="43.7684709392488" lon="11.908287517726421">
        <ele>733.62</ele>
        <time>2016-06-03T14:02:19Z</time>
      </trkpt>
      <trkpt lat="43.768446883186698" lon="11.908173188567162">
        <ele>736.02999999999997</ele>
        <time>2016-06-03T14:02:33Z</time>
      </trkpt>
      <trkpt lat="43.768426431342959" lon="11.908063804730773">
        <ele>737.95000000000005</ele>
        <time>2016-06-03T14:02:46Z</time>
      </trkpt>
      <trkpt lat="43.768417295068502" lon="11.907959701493382">
        <ele>739.38999999999999</ele>
        <time>2016-06-03T14:02:58Z</time>
      </trkpt>
      <trkpt lat="43.768435064703226" lon="11.90781737677753">
        <ele>741.78999999999996</ele>
        <time>2016-06-03T14:03:12Z</time>
      </trkpt>
      <trkpt lat="43.76848409883678" lon="11.907715788111091">
        <ele>744.20000000000005</ele>
        <time>2016-06-03T14:03:26Z</time>
      </trkpt>
      <trkpt lat="43.768516955897212" lon="11.907659294083714">
        <ele>746.60000000000002</ele>
        <time>2016-06-03T14:03:38Z</time>
      </trkpt>
      <trkpt lat="43.768524248152971" lon="11.907592490315437">
        <ele>748.51999999999998</ele>
        <time>2016-06-03T14:03:49Z</time>
      </trkpt>
      <trkpt lat="43.768517291173339" lon="11.907495846971869">
        <ele>750.45000000000005</ele>
        <time>2016-06-03T14:04:02Z</time>
      </trkpt>
      <trkpt lat="43.768540676683187" lon="11.907381601631641">
        <ele>751.40999999999997</ele>
        <time>2016-06-03T14:04:14Z</time>
      </trkpt>
      <trkpt lat="43.768530953675508" lon="11.907279342412949">
        <ele>751.88999999999999</ele>
        <time>2016-06-03T14:04:24Z</time>
      </trkpt>
      <trkpt lat="43.768514022231102" lon="11.90719778649509">
        <ele>752.85000000000002</ele>
        <time>2016-06-03T14:04:35Z</time>
      </trkpt>
      <trkpt lat="43.768500695005059" lon="11.907139951363206">
        <ele>753.80999999999995</ele>
        <time>2016-06-03T14:04:44Z</time>
      </trkpt>
      <trkpt lat="43.768442859873176" lon="11.907144980505109">
        <ele>754.28999999999996</ele>
        <time>2016-06-03T14:04:57Z</time>
      </trkpt>
      <trkpt lat="43.768377229571342" lon="11.907110530883074">
        <ele>755.73000000000002</ele>
        <time>2016-06-03T14:05:09Z</time>
      </trkpt>
      <trkpt lat="43.768280167132616" lon="11.907068705186248">
        <ele>757.65999999999997</ele>
        <time>2016-06-03T14:05:23Z</time>
      </trkpt>
      <trkpt lat="43.768215291202068" lon="11.907068705186248">
        <ele>758.62</ele>
        <time>2016-06-03T14:05:34Z</time>
      </trkpt>
      <trkpt lat="43.768127532675862" lon="11.907043727114797">
        <ele>761.01999999999998</ele>
        <time>2016-06-03T14:05:48Z</time>
      </trkpt>
      <trkpt lat="43.768107751384377" lon="11.907045068219304">
        <ele>761.01999999999998</ele>
        <time>2016-06-03T14:05:50Z</time>
      </trkpt>
      <trkpt lat="43.768045054748654" lon="11.907027550041676">
        <ele>762.94000000000005</ele>
        <time>2016-06-03T14:06:02Z</time>
      </trkpt>
      <trkpt lat="43.767982861027122" lon="11.9070003926754">
        <ele>764.38999999999999</ele>
        <time>2016-06-03T14:06:15Z</time>
      </trkpt>
      <trkpt lat="43.767983196303248" lon="11.906978348270059">
        <ele>763.41999999999996</ele>
        <time>2016-06-03T14:06:27Z</time>
      </trkpt>
      <trkpt lat="43.767967270687222" lon="11.907001230865717">
        <ele>764.87</ele>
        <time>2016-06-03T14:06:45Z</time>
      </trkpt>
      <trkpt lat="43.767909100279212" lon="11.906930403783917">
        <ele>766.78999999999996</ele>
        <time>2016-06-03T14:06:58Z</time>
      </trkpt>
      <trkpt lat="43.767855707556009" lon="11.906848009675741">
        <ele>768.71000000000004</ele>
        <time>2016-06-03T14:07:11Z</time>
      </trkpt>
      <trkpt lat="43.767784042283893" lon="11.90676243044436">
        <ele>770.63</ele>
        <time>2016-06-03T14:07:25Z</time>
      </trkpt>
      <trkpt lat="43.767706761136651" lon="11.906679952517152">
        <ele>772.08000000000004</ele>
        <time>2016-06-03T14:07:38Z</time>
      </trkpt>
      <trkpt lat="43.76763978973031" lon="11.906605688855052">
        <ele>773.51999999999998</ele>
        <time>2016-06-03T14:07:49Z</time>
      </trkpt>
      <trkpt lat="43.767582708969712" lon="11.906538549810648">
        <ele>774.48000000000002</ele>
        <time>2016-06-03T14:08:00Z</time>
      </trkpt>
      <trkpt lat="43.76752495765686" lon="11.906434446573257">
        <ele>775.44000000000005</ele>
        <time>2016-06-03T14:08:14Z</time>
      </trkpt>
      <trkpt lat="43.767460417002439" lon="11.906332103535533">
        <ele>776.88</ele>
        <time>2016-06-03T14:08:27Z</time>
      </trkpt>
      <trkpt lat="43.767439043149352" lon="11.90629773773253">
        <ele>777.36000000000001</ele>
        <time>2016-06-03T14:08:31Z</time>
      </trkpt>
      <trkpt lat="43.767406856641173" lon="11.906220372766256">
        <ele>778.80999999999995</ele>
        <time>2016-06-03T14:08:42Z</time>
      </trkpt>
      <trkpt lat="43.767359917983413" lon="11.906168153509498">
        <ele>780.73000000000002</ele>
        <time>2016-06-03T14:08:54Z</time>
      </trkpt>
      <trkpt lat="43.767311973497272" lon="11.906137559562922">
        <ele>782.64999999999998</ele>
        <time>2016-06-03T14:09:05Z</time>
      </trkpt>
      <trkpt lat="43.767269812524319" lon="11.906133955344558">
        <ele>784.57000000000005</ele>
        <time>2016-06-03T14:09:15Z</time>
      </trkpt>
      <trkpt lat="43.76725229434669" lon="11.906135715544224">
        <ele>785.52999999999997</ele>
        <time>2016-06-03T14:09:27Z</time>
      </trkpt>
      <trkpt lat="43.767255060374737" lon="11.906136553734541">
        <ele>785.52999999999997</ele>
        <time>2016-06-03T14:09:44Z</time>
      </trkpt>
      <trkpt lat="43.767256904393435" lon="11.90613160841167">
        <ele>785.52999999999997</ele>
        <time>2016-06-03T14:10:06Z</time>
      </trkpt>
      <trkpt lat="43.767242571339011" lon="11.906121633946896">
        <ele>785.04999999999995</ele>
        <time>2016-06-03T14:10:22Z</time>
      </trkpt>
      <trkpt lat="43.767226142808795" lon="11.906113419681787">
        <ele>786.01999999999998</ele>
        <time>2016-06-03T14:10:31Z</time>
      </trkpt>
      <trkpt lat="43.767181718721986" lon="11.906046867370605">
        <ele>787.94000000000005</ele>
        <time>2016-06-03T14:10:42Z</time>
      </trkpt>
      <trkpt lat="43.767143664881587" lon="11.905998503789306">
        <ele>789.86000000000001</ele>
        <time>2016-06-03T14:10:53Z</time>
      </trkpt>
      <trkpt lat="43.767094211652875" lon="11.90591661259532">
        <ele>791.77999999999997</ele>
        <time>2016-06-03T14:11:05Z</time>
      </trkpt>
      <trkpt lat="43.767047692090273" lon="11.90586288459599">
        <ele>793.22000000000003</ele>
        <time>2016-06-03T14:11:16Z</time>
      </trkpt>
      <trkpt lat="43.766969153657556" lon="11.90583354793489">
        <ele>794.66999999999996</ele>
        <time>2016-06-03T14:11:28Z</time>
      </trkpt>
      <trkpt lat="43.766934033483267" lon="11.905781663954258">
        <ele>795.63</ele>
        <time>2016-06-03T14:11:39Z</time>
      </trkpt>
      <trkpt lat="43.766872761771083" lon="11.905714860185981">
        <ele>797.54999999999995</ele>
        <time>2016-06-03T14:11:53Z</time>
      </trkpt>
      <trkpt lat="43.766840910539031" lon="11.905672615393996">
        <ele>798.50999999999999</ele>
        <time>2016-06-03T14:12:04Z</time>
      </trkpt>
      <trkpt lat="43.766839820891619" lon="11.905664401128888">
        <ele>798.99000000000001</ele>
        <time>2016-06-03T14:12:22Z</time>
      </trkpt>
      <trkpt lat="43.766811322420835" lon="11.905552251264453">
        <ele>800.91999999999996</ele>
        <time>2016-06-03T14:12:34Z</time>
      </trkpt>
      <trkpt lat="43.766778968274593" lon="11.905479663982987">
        <ele>802.36000000000001</ele>
        <time>2016-06-03T14:12:44Z</time>
      </trkpt>
      <trkpt lat="43.766739489510655" lon="11.905394503846765">
        <ele>803.79999999999995</ele>
        <time>2016-06-03T14:12:55Z</time>
      </trkpt>
      <trkpt lat="43.766714595258236" lon="11.905332310125232">
        <ele>805.24000000000001</ele>
        <time>2016-06-03T14:13:06Z</time>
      </trkpt>
      <trkpt lat="43.766679977998137" lon="11.90526382997632">
        <ele>806.67999999999995</ele>
        <time>2016-06-03T14:13:17Z</time>
      </trkpt>
      <trkpt lat="43.766629602760077" lon="11.905222255736589">
        <ele>808.61000000000001</ele>
        <time>2016-06-03T14:13:31Z</time>
      </trkpt>
      <trkpt lat="43.766577048227191" lon="11.905169952660799">
        <ele>810.52999999999997</ele>
        <time>2016-06-03T14:13:43Z</time>
      </trkpt>
      <trkpt lat="43.76652910374105" lon="11.905133575201035">
        <ele>812.45000000000005</ele>
        <time>2016-06-03T14:13:54Z</time>
      </trkpt>
      <trkpt lat="43.766516363248229" lon="11.905141873285174">
        <ele>811.97000000000003</ele>
        <time>2016-06-03T14:14:05Z</time>
      </trkpt>
      <trkpt lat="43.766538994386792" lon="11.905143717303872">
        <ele>812.45000000000005</ele>
        <time>2016-06-03T14:14:23Z</time>
      </trkpt>
      <trkpt lat="43.766511753201485" lon="11.905136257410049">
        <ele>812.92999999999995</ele>
        <time>2016-06-03T14:14:39Z</time>
      </trkpt>
      <trkpt lat="43.766467580571771" lon="11.905071213841438">
        <ele>814.85000000000002</ele>
        <time>2016-06-03T14:14:51Z</time>
      </trkpt>
      <trkpt lat="43.766427431255579" lon="11.905007259920239">
        <ele>816.77999999999997</ele>
        <time>2016-06-03T14:15:04Z</time>
      </trkpt>
      <trkpt lat="43.766426593065262" lon="11.904988316819072">
        <ele>816.29999999999995</ele>
        <time>2016-06-03T14:15:17Z</time>
      </trkpt>
      <trkpt lat="43.766430281102657" lon="11.904964679852128">
        <ele>816.29999999999995</ele>
        <time>2016-06-03T14:15:37Z</time>
      </trkpt>
      <trkpt lat="43.766434052959085" lon="11.904969708994031">
        <ele>816.29999999999995</ele>
        <time>2016-06-03T14:15:40Z</time>
      </trkpt>
      <trkpt lat="43.766449810937047" lon="11.904972475022078">
        <ele>817.25999999999999</ele>
        <time>2016-06-03T14:15:48Z</time>
      </trkpt>
      <trkpt lat="43.766430867835879" lon="11.904980940744281">
        <ele>817.25999999999999</ele>
        <time>2016-06-03T14:16:03Z</time>
      </trkpt>
      <trkpt lat="43.766427766531706" lon="11.904941378161311">
        <ele>816.77999999999997</ele>
        <time>2016-06-03T14:16:19Z</time>
      </trkpt>
      <trkpt lat="43.766415612772107" lon="11.904948418959975">
        <ele>816.77999999999997</ele>
        <time>2016-06-03T14:16:44Z</time>
      </trkpt>
      <trkpt lat="43.766407063230872" lon="11.904964596033096">
        <ele>817.25999999999999</ele>
        <time>2016-06-03T14:17:11Z</time>
      </trkpt>
      <trkpt lat="43.766411757096648" lon="11.90499946475029">
        <ele>817.25999999999999</ele>
        <time>2016-06-03T14:17:27Z</time>
      </trkpt>
      <trkpt lat="43.766408991068602" lon="11.904956717044115">
        <ele>817.74000000000001</ele>
        <time>2016-06-03T14:17:46Z</time>
      </trkpt>
      <trkpt lat="43.766402285546064" lon="11.904874490574002">
        <ele>818.70000000000005</ele>
        <time>2016-06-03T14:17:57Z</time>
      </trkpt>
      <trkpt lat="43.766359956935048" lon="11.904753539711237">
        <ele>820.13999999999999</ele>
        <time>2016-06-03T14:18:10Z</time>
      </trkpt>
      <trkpt lat="43.766314191743731" lon="11.904641138389707">
        <ele>822.05999999999995</ele>
        <time>2016-06-03T14:18:23Z</time>
      </trkpt>
      <trkpt lat="43.766257781535387" lon="11.904584476724267">
        <ele>823.50999999999999</ele>
        <time>2016-06-03T14:18:36Z</time>
      </trkpt>
      <trkpt lat="43.766190139576793" lon="11.904538543894887">
        <ele>825.42999999999995</ele>
        <time>2016-06-03T14:18:47Z</time>
      </trkpt>
      <trkpt lat="43.766133729368448" lon="11.904532173648477">
        <ele>827.35000000000002</ele>
        <time>2016-06-03T14:18:59Z</time>
      </trkpt>
      <trkpt lat="43.766047982499003" lon="11.904504178091884">
        <ele>829.26999999999998</ele>
        <time>2016-06-03T14:19:15Z</time>
      </trkpt>
      <trkpt lat="43.766050999984145" lon="11.904539968818426">
        <ele>829.75999999999999</ele>
        <time>2016-06-03T14:19:29Z</time>
      </trkpt>
      <trkpt lat="43.765981597825885" lon="11.904498059302568">
        <ele>831.20000000000005</ele>
        <time>2016-06-03T14:19:41Z</time>
      </trkpt>
      <trkpt lat="43.765919571742415" lon="11.904477858915925">
        <ele>832.63999999999999</ele>
        <time>2016-06-03T14:19:51Z</time>
      </trkpt>
      <trkpt lat="43.765874728560448" lon="11.904472410678864">
        <ele>833.60000000000002</ele>
        <time>2016-06-03T14:20:04Z</time>
      </trkpt>
      <trkpt lat="43.765846313908696" lon="11.904454389587045">
        <ele>833.60000000000002</ele>
        <time>2016-06-03T14:20:15Z</time>
      </trkpt>
      <trkpt lat="43.765810523182154" lon="11.904482133686543">
        <ele>834.55999999999995</ele>
        <time>2016-06-03T14:20:32Z</time>
      </trkpt>
      <trkpt lat="43.765768948942423" lon="11.9044981431216">
        <ele>835.51999999999998</ele>
        <time>2016-06-03T14:20:37Z</time>
      </trkpt>
      <trkpt lat="43.76570038497448" lon="11.904520355165005">
        <ele>835.51999999999998</ele>
        <time>2016-06-03T14:20:45Z</time>
      </trkpt>
      <trkpt lat="43.765626288950443" lon="11.904487246647477">
        <ele>836.96000000000004</ele>
        <time>2016-06-03T14:20:56Z</time>
      </trkpt>
      <trkpt lat="43.765565268695354" lon="11.904482133686543">
        <ele>837.92999999999995</ele>
        <time>2016-06-03T14:21:07Z</time>
      </trkpt>
      <trkpt lat="43.765493519604206" lon="11.904470147565007">
        <ele>839.37</ele>
        <time>2016-06-03T14:21:19Z</time>
      </trkpt>
      <trkpt lat="43.765433169901371" lon="11.904446175321937">
        <ele>841.28999999999996</ele>
        <time>2016-06-03T14:21:33Z</time>
      </trkpt>
      <trkpt lat="43.76537055708468" lon="11.904443744570017">
        <ele>842.73000000000002</ele>
        <time>2016-06-03T14:21:44Z</time>
      </trkpt>
      <trkpt lat="43.765317415818572" lon="11.904473248869181">
        <ele>843.21000000000004</ele>
        <time>2016-06-03T14:21:56Z</time>
      </trkpt>
      <trkpt lat="43.765307357534766" lon="11.904464112594724">
        <ele>843.21000000000004</ele>
        <time>2016-06-03T14:22:13Z</time>
      </trkpt>
      <trkpt lat="43.765295790508389" lon="11.904452126473188">
        <ele>843.69000000000005</ele>
        <time>2016-06-03T14:22:26Z</time>
      </trkpt>
      <trkpt lat="43.765235273167491" lon="11.904410636052489">
        <ele>845.13999999999999</ele>
        <time>2016-06-03T14:22:37Z</time>
      </trkpt>
      <trkpt lat="43.765183137729764" lon="11.904358919709921">
        <ele>847.05999999999995</ele>
        <time>2016-06-03T14:22:47Z</time>
      </trkpt>
      <trkpt lat="43.765145251527429" lon="11.904308963567019">
        <ele>848.5</ele>
        <time>2016-06-03T14:22:58Z</time>
      </trkpt>
      <trkpt lat="43.765149191021919" lon="11.904297228902578">
        <ele>848.5</ele>
        <time>2016-06-03T14:23:12Z</time>
      </trkpt>
      <trkpt lat="43.765121027827263" lon="11.904248781502247">
        <ele>847.53999999999996</ele>
        <time>2016-06-03T14:23:17Z</time>
      </trkpt>
      <trkpt lat="43.765099570155144" lon="11.904225312173367">
        <ele>848.98000000000002</ele>
        <time>2016-06-03T14:23:26Z</time>
      </trkpt>
      <trkpt lat="43.765060342848301" lon="11.904165213927627">
        <ele>848.98000000000002</ele>
        <time>2016-06-03T14:23:32Z</time>
      </trkpt>
      <trkpt lat="43.764940816909075" lon="11.904023224487901">
        <ele>848.98000000000002</ele>
        <time>2016-06-03T14:23:47Z</time>
      </trkpt>
      <trkpt lat="43.764913156628609" lon="11.903912164270878">
        <ele>849.46000000000004</ele>
        <time>2016-06-03T14:23:55Z</time>
      </trkpt>
      <trkpt lat="43.764964956790209" lon="11.903785932809114">
        <ele>851.38</ele>
        <time>2016-06-03T14:24:05Z</time>
      </trkpt>
      <trkpt lat="43.765004770830274" lon="11.903658444061875">
        <ele>853.78999999999996</ele>
        <time>2016-06-03T14:24:18Z</time>
      </trkpt>
      <trkpt lat="43.765006447210908" lon="11.903648637235165">
        <ele>853.78999999999996</ele>
        <time>2016-06-03T14:24:19Z</time>
      </trkpt>
      <trkpt lat="43.765009716153145" lon="11.903533972799778">
        <ele>855.23000000000002</ele>
        <time>2016-06-03T14:24:31Z</time>
      </trkpt>
      <trkpt lat="43.764991108328104" lon="11.903526932001114">
        <ele>855.23000000000002</ele>
        <time>2016-06-03T14:24:42Z</time>
      </trkpt>
      <trkpt lat="43.764983732253313" lon="11.903465827926993">
        <ele>856.19000000000005</ele>
        <time>2016-06-03T14:24:59Z</time>
      </trkpt>
      <trkpt lat="43.76496939919889" lon="11.903407489880919">
        <ele>856.66999999999996</ele>
        <time>2016-06-03T14:25:04Z</time>
      </trkpt>
      <trkpt lat="43.764978284016252" lon="11.903385864570737">
        <ele>857.14999999999998</ele>
        <time>2016-06-03T14:25:13Z</time>
      </trkpt>
      <trkpt lat="43.764969985932112" lon="11.903329202905297">
        <ele>857.63</ele>
        <time>2016-06-03T14:25:17Z</time>
      </trkpt>
      <trkpt lat="43.764942493289709" lon="11.903170952573419">
        <ele>859.08000000000004</ele>
        <time>2016-06-03T14:25:29Z</time>
      </trkpt>
      <trkpt lat="43.764974176883698" lon="11.902991915121675">
        <ele>861</ele>
        <time>2016-06-03T14:25:42Z</time>
      </trkpt>
      <trkpt lat="43.76503243111074" lon="11.90285000950098">
        <ele>862.91999999999996</ele>
        <time>2016-06-03T14:25:54Z</time>
      </trkpt>
      <trkpt lat="43.765108287334442" lon="11.90276401117444">
        <ele>864.36000000000001</ele>
        <time>2016-06-03T14:26:06Z</time>
      </trkpt>
      <trkpt lat="43.765185652300715" lon="11.902666445821524">
        <ele>865.79999999999995</ele>
        <time>2016-06-03T14:26:18Z</time>
      </trkpt>
      <trkpt lat="43.765221359208226" lon="11.902656219899654">
        <ele>866.28999999999996</ele>
        <time>2016-06-03T14:26:29Z</time>
      </trkpt>
      <trkpt lat="43.765230663120747" lon="11.902665439993143">
        <ele>867.25</ele>
        <time>2016-06-03T14:26:39Z</time>
      </trkpt>
      <trkpt lat="43.765240469947457" lon="11.902671223506331">
        <ele>867.25</ele>
        <time>2016-06-03T14:26:42Z</time>
      </trkpt>
      <trkpt lat="43.765303753316402" lon="11.902701146900654">
        <ele>868.69000000000005</ele>
        <time>2016-06-03T14:26:53Z</time>
      </trkpt>
      <trkpt lat="43.765323702245951" lon="11.902685975655913">
        <ele>868.69000000000005</ele>
        <time>2016-06-03T14:27:05Z</time>
      </trkpt>
      <trkpt lat="43.765318840742111" lon="11.9026521127671">
        <ele>868.69000000000005</ele>
        <time>2016-06-03T14:27:24Z</time>
      </trkpt>
      <trkpt lat="43.765333760529757" lon="11.902623195201159">
        <ele>869.16999999999996</ele>
        <time>2016-06-03T14:27:33Z</time>
      </trkpt>
      <trkpt lat="43.7653314974159" lon="11.902642976492643">
        <ele>868.69000000000005</ele>
        <time>2016-06-03T14:27:43Z</time>
      </trkpt>
      <trkpt lat="43.765350775793195" lon="11.902647921815515">
        <ele>868.69000000000005</ele>
        <time>2016-06-03T14:27:56Z</time>
      </trkpt>
      <trkpt lat="43.76530853100121" lon="11.902687065303326">
        <ele>868.69000000000005</ele>
        <time>2016-06-03T14:28:09Z</time>
      </trkpt>
      <trkpt lat="43.765319008380175" lon="11.902688322588801">
        <ele>868.69000000000005</ele>
        <time>2016-06-03T14:28:29Z</time>
      </trkpt>
      <trkpt lat="43.76529436558485" lon="11.902677929028869">
        <ele>868.69000000000005</ele>
        <time>2016-06-03T14:28:39Z</time>
      </trkpt>
      <trkpt lat="43.765285145491362" lon="11.902667786926031">
        <ele>869.16999999999996</ele>
        <time>2016-06-03T14:28:57Z</time>
      </trkpt>
      <trkpt lat="43.765292102470994" lon="11.902634343132377">
        <ele>869.16999999999996</ele>
        <time>2016-06-03T14:29:02Z</time>
      </trkpt>
      <trkpt lat="43.76529436558485" lon="11.902609616518021">
        <ele>869.16999999999996</ele>
        <time>2016-06-03T14:29:04Z</time>
      </trkpt>
      <trkpt lat="43.765342645347118" lon="11.902503333985806">
        <ele>871.57000000000005</ele>
        <time>2016-06-03T14:29:15Z</time>
      </trkpt>
      <trkpt lat="43.76537449657917" lon="11.902440302073956">
        <ele>873.00999999999999</ele>
        <time>2016-06-03T14:29:24Z</time>
      </trkpt>
      <trkpt lat="43.765387907624245" lon="11.902397722005844">
        <ele>873.5</ele>
        <time>2016-06-03T14:29:40Z</time>
      </trkpt>
      <trkpt lat="43.765375167131424" lon="11.902296552434564">
        <ele>873.98000000000002</ele>
        <time>2016-06-03T14:29:50Z</time>
      </trkpt>
      <trkpt lat="43.765391428023577" lon="11.902252715080976">
        <ele>874.46000000000004</ele>
        <time>2016-06-03T14:30:00Z</time>
      </trkpt>
      <trkpt lat="43.765380783006549" lon="11.902229078114033">
        <ele>874.46000000000004</ele>
        <time>2016-06-03T14:30:03Z</time>
      </trkpt>
      <trkpt lat="43.76536225900054" lon="11.902168896049261">
        <ele>874.94000000000005</ele>
        <time>2016-06-03T14:30:16Z</time>
      </trkpt>
      <trkpt lat="43.765326635912061" lon="11.902058254927397">
        <ele>875.41999999999996</ele>
        <time>2016-06-03T14:30:25Z</time>
      </trkpt>
      <trkpt lat="43.765312135219574" lon="11.901898328214884">
        <ele>875.89999999999998</ele>
        <time>2016-06-03T14:30:36Z</time>
      </trkpt>
      <trkpt lat="43.765318254008889" lon="11.901829009875655">
        <ele>875.89999999999998</ele>
        <time>2016-06-03T14:30:45Z</time>
      </trkpt>
      <trkpt lat="43.765314565971494" lon="11.901828087866306">
        <ele>875.41999999999996</ele>
        <time>2016-06-03T14:30:53Z</time>
      </trkpt>
      <trkpt lat="43.765298472717404" lon="11.901691965758801">
        <ele>875.89999999999998</ele>
        <time>2016-06-03T14:31:04Z</time>
      </trkpt>
      <trkpt lat="43.765262681990862" lon="11.901588700711727">
        <ele>875.41999999999996</ele>
        <time>2016-06-03T14:31:13Z</time>
      </trkpt>
      <trkpt lat="43.765200823545456" lon="11.90149406902492">
        <ele>874.94000000000005</ele>
        <time>2016-06-03T14:31:25Z</time>
      </trkpt>
      <trkpt lat="43.765119770541787" lon="11.901321737095714">
        <ele>875.41999999999996</ele>
        <time>2016-06-03T14:31:40Z</time>
      </trkpt>
      <trkpt lat="43.765073083341122" lon="11.901256693527102">
        <ele>875.41999999999996</ele>
        <time>2016-06-03T14:31:46Z</time>
      </trkpt>
      <trkpt lat="43.764940230175853" lon="11.90121796913445">
        <ele>876.38</ele>
        <time>2016-06-03T14:32:00Z</time>
      </trkpt>
      <trkpt lat="43.764809053391218" lon="11.901226853951812">
        <ele>877.82000000000005</ele>
        <time>2016-06-03T14:32:13Z</time>
      </trkpt>
      <trkpt lat="43.764748200774193" lon="11.901223249733448">
        <ele>878.29999999999995</ele>
        <time>2016-06-03T14:32:19Z</time>
      </trkpt>
      <trkpt lat="43.764689695090055" lon="11.901201456785202">
        <ele>878.29999999999995</ele>
        <time>2016-06-03T14:32:25Z</time>
      </trkpt>
      <trkpt lat="43.764577629044652" lon="11.901080505922437">
        <ele>879.74000000000001</ele>
        <time>2016-06-03T14:32:38Z</time>
      </trkpt>
      <trkpt lat="43.764496659860015" lon="11.900968607515097">
        <ele>880.71000000000004</ele>
        <time>2016-06-03T14:32:50Z</time>
      </trkpt>
      <trkpt lat="43.764417031779885" lon="11.900883950293064">
        <ele>882.14999999999998</ele>
        <time>2016-06-03T14:33:02Z</time>
      </trkpt>
      <trkpt lat="43.764412254095078" lon="11.900882022455335">
        <ele>882.63</ele>
        <time>2016-06-03T14:33:03Z</time>
      </trkpt>
      <trkpt lat="43.764371182769537" lon="11.900847153738141">
        <ele>882.63</ele>
        <time>2016-06-03T14:33:14Z</time>
      </trkpt>
      <trkpt lat="43.764343354851007" lon="11.900825947523117">
        <ele>883.11000000000001</ele>
        <time>2016-06-03T14:33:18Z</time>
      </trkpt>
      <trkpt lat="43.764217291027308" lon="11.900767609477043">
        <ele>885.02999999999997</ele>
        <time>2016-06-03T14:33:32Z</time>
      </trkpt>
      <trkpt lat="43.76409525051713" lon="11.900737853720784">
        <ele>885.99000000000001</ele>
        <time>2016-06-03T14:33:45Z</time>
      </trkpt>
      <trkpt lat="43.763999864459038" lon="11.900720084086061">
        <ele>887.90999999999997</ele>
        <time>2016-06-03T14:33:55Z</time>
      </trkpt>
      <trkpt lat="43.763901544734836" lon="11.90070147626102">
        <ele>889.36000000000001</ele>
        <time>2016-06-03T14:34:05Z</time>
      </trkpt>
      <trkpt lat="43.763802303001285" lon="11.900666691362858">
        <ele>890.79999999999995</ele>
        <time>2016-06-03T14:34:16Z</time>
      </trkpt>
      <trkpt lat="43.763693002983928" lon="11.900590751320124">
        <ele>891.75999999999999</ele>
        <time>2016-06-03T14:34:28Z</time>
      </trkpt>
      <trkpt lat="43.763584541156888" lon="11.900467621162534">
        <ele>892.72000000000003</ele>
        <time>2016-06-03T14:34:41Z</time>
      </trkpt>
      <trkpt lat="43.763493681326509" lon="11.900355722755194">
        <ele>893.67999999999995</ele>
        <time>2016-06-03T14:34:52Z</time>
      </trkpt>
      <trkpt lat="43.763398043811321" lon="11.900253044441342">
        <ele>895.12</ele>
        <time>2016-06-03T14:35:03Z</time>
      </trkpt>
      <trkpt lat="43.763358732685447" lon="11.900061601772904">
        <ele>896.09000000000003</ele>
        <time>2016-06-03T14:35:17Z</time>
      </trkpt>
      <trkpt lat="43.763377005234361" lon="11.899879211559892">
        <ele>898.00999999999999</ele>
        <time>2016-06-03T14:35:30Z</time>
      </trkpt>
      <trkpt lat="43.763384046033025" lon="11.899677207693458">
        <ele>898.49000000000001</ele>
        <time>2016-06-03T14:35:43Z</time>
      </trkpt>
      <trkpt lat="43.763389578089118" lon="11.899601854383945">
        <ele>898.49000000000001</ele>
        <time>2016-06-03T14:35:48Z</time>
      </trkpt>
      <trkpt lat="43.763364683836699" lon="11.89943547360599">
        <ele>899.45000000000005</ele>
        <time>2016-06-03T14:36:00Z</time>
      </trkpt>
      <trkpt lat="43.763251360505819" lon="11.89934503287077">
        <ele>899.92999999999995</ele>
        <time>2016-06-03T14:36:12Z</time>
      </trkpt>
      <trkpt lat="43.763117585331202" lon="11.899326173588634">
        <ele>900.88999999999999</ele>
        <time>2016-06-03T14:36:24Z</time>
      </trkpt>
      <trkpt lat="43.763070646673441" lon="11.899313600733876">
        <ele>900.88999999999999</ele>
        <time>2016-06-03T14:36:28Z</time>
      </trkpt>
      <trkpt lat="43.762942655012012" lon="11.899198014289141">
        <ele>901.85000000000002</ele>
        <time>2016-06-03T14:36:41Z</time>
      </trkpt>
      <trkpt lat="43.762854225933552" lon="11.899021826684475">
        <ele>902.33000000000004</ele>
        <time>2016-06-03T14:36:54Z</time>
      </trkpt>
      <trkpt lat="43.762777615338564" lon="11.898844884708524">
        <ele>903.29999999999995</ele>
        <time>2016-06-03T14:37:07Z</time>
      </trkpt>
      <trkpt lat="43.762714583426714" lon="11.898689735680819">
        <ele>904.25999999999999</ele>
        <time>2016-06-03T14:37:19Z</time>
      </trkpt>
      <trkpt lat="43.762651802971959" lon="11.898558642715216">
        <ele>905.22000000000003</ele>
        <time>2016-06-03T14:37:30Z</time>
      </trkpt>
      <trkpt lat="43.76259564422071" lon="11.898416737094522">
        <ele>906.65999999999997</ele>
        <time>2016-06-03T14:37:42Z</time>
      </trkpt>
      <trkpt lat="43.762544682249427" lon="11.898295199498534">
        <ele>908.10000000000002</ele>
        <time>2016-06-03T14:37:53Z</time>
      </trkpt>
      <trkpt lat="43.762509226799011" lon="11.898150444030762">
        <ele>910.02999999999997</ele>
        <time>2016-06-03T14:38:04Z</time>
      </trkpt>
      <trkpt lat="43.762521632015705" lon="11.898096883669496">
        <ele>910.50999999999999</ele>
        <time>2016-06-03T14:38:08Z</time>
      </trkpt>
      <trkpt lat="43.762585418298841" lon="11.897961096838117">
        <ele>911.47000000000003</ele>
        <time>2016-06-03T14:38:20Z</time>
      </trkpt>
      <trkpt lat="43.762631099671125" lon="11.897892113775015">
        <ele>912.42999999999995</ele>
        <time>2016-06-03T14:38:27Z</time>
      </trkpt>
      <trkpt lat="43.76271684654057" lon="11.897818688303232">
        <ele>913.38999999999999</ele>
        <time>2016-06-03T14:38:38Z</time>
      </trkpt>
      <trkpt lat="43.762769820168614" lon="11.897730594500899">
        <ele>914.83000000000004</ele>
        <time>2016-06-03T14:38:48Z</time>
      </trkpt>
      <trkpt lat="43.762825895100832" lon="11.897637136280537">
        <ele>915.78999999999996</ele>
        <time>2016-06-03T14:38:58Z</time>
      </trkpt>
      <trkpt lat="43.762915078550577" lon="11.897551557049155">
        <ele>917.24000000000001</ele>
        <time>2016-06-03T14:39:10Z</time>
      </trkpt>
      <trkpt lat="43.76301683485508" lon="11.897484669461846">
        <ele>918.67999999999995</ele>
        <time>2016-06-03T14:39:22Z</time>
      </trkpt>
      <trkpt lat="43.763093948364258" lon="11.897356677800417">
        <ele>920.12</ele>
        <time>2016-06-03T14:39:35Z</time>
      </trkpt>
      <trkpt lat="43.763126637786627" lon="11.897239498794079">
        <ele>921.08000000000004</ele>
        <time>2016-06-03T14:39:45Z</time>
      </trkpt>
      <trkpt lat="43.763144072145224" lon="11.897126762196422">
        <ele>922.51999999999998</ele>
        <time>2016-06-03T14:39:55Z</time>
      </trkpt>
      <trkpt lat="43.763159830123186" lon="11.897003715857863">
        <ele>924.45000000000005</ele>
        <time>2016-06-03T14:40:06Z</time>
      </trkpt>
      <trkpt lat="43.763150358572602" lon="11.896864576265216">
        <ele>925.40999999999997</ele>
        <time>2016-06-03T14:40:17Z</time>
      </trkpt>
      <trkpt lat="43.763114986941218" lon="11.896824510768056">
        <ele>925.88999999999999</ele>
        <time>2016-06-03T14:40:25Z</time>
      </trkpt>
      <trkpt lat="43.763112723827362" lon="11.896819649264216">
        <ele>925.88999999999999</ele>
        <time>2016-06-03T14:40:28Z</time>
      </trkpt>
      <trkpt lat="43.763083219528198" lon="11.896779583767056">
        <ele>927.33000000000004</ele>
        <time>2016-06-03T14:40:37Z</time>
      </trkpt>
      <trkpt lat="43.763000573962927" lon="11.896704230457544">
        <ele>929.25</ele>
        <time>2016-06-03T14:40:49Z</time>
      </trkpt>
      <trkpt lat="43.762916000559926" lon="11.896681096404791">
        <ele>930.69000000000005</ele>
        <time>2016-06-03T14:40:59Z</time>
      </trkpt>
      <trkpt lat="43.762822961434722" lon="11.896634744480252">
        <ele>931.64999999999998</ele>
        <time>2016-06-03T14:41:10Z</time>
      </trkpt>
      <trkpt lat="43.762727491557598" lon="11.896557547152042">
        <ele>933.58000000000004</ele>
        <time>2016-06-03T14:41:22Z</time>
      </trkpt>
      <trkpt lat="43.762649456039071" lon="11.896475739777088">
        <ele>934.53999999999996</ele>
        <time>2016-06-03T14:41:33Z</time>
      </trkpt>
      <trkpt lat="43.762587094679475" lon="11.896368116140366">
        <ele>935.98000000000002</ele>
        <time>2016-06-03T14:41:45Z</time>
      </trkpt>
      <trkpt lat="43.762580305337906" lon="11.896363170817494">
        <ele>935.98000000000002</ele>
        <time>2016-06-03T14:41:46Z</time>
      </trkpt>
      <trkpt lat="43.762539317831397" lon="11.896344060078263">
        <ele>935.98000000000002</ele>
        <time>2016-06-03T14:41:51Z</time>
      </trkpt>
      <trkpt lat="43.762504197657108" lon="11.896332409232855">
        <ele>937.41999999999996</ele>
        <time>2016-06-03T14:41:55Z</time>
      </trkpt>
      <trkpt lat="43.762447368353605" lon="11.896363170817494">
        <ele>938.38</ele>
        <time>2016-06-03T14:42:01Z</time>
      </trkpt>
      <trkpt lat="43.762332117184997" lon="11.896417569369078">
        <ele>939.83000000000004</ele>
        <time>2016-06-03T14:42:13Z</time>
      </trkpt>
      <trkpt lat="43.762233462184668" lon="11.89640449360013">
        <ele>940.30999999999995</ele>
        <time>2016-06-03T14:42:23Z</time>
      </trkpt>
      <trkpt lat="43.762090969830751" lon="11.896398290991783">
        <ele>941.26999999999998</ele>
        <time>2016-06-03T14:42:39Z</time>
      </trkpt>
      <trkpt lat="43.762003881856799" lon="11.896413043141365">
        <ele>943.19000000000005</ele>
        <time>2016-06-03T14:42:49Z</time>
      </trkpt>
      <trkpt lat="43.761903550475836" lon="11.8964440561831">
        <ele>945.11000000000001</ele>
        <time>2016-06-03T14:42:59Z</time>
      </trkpt>
      <trkpt lat="43.761777486652136" lon="11.896386723965406">
        <ele>946.07000000000005</ele>
        <time>2016-06-03T14:43:11Z</time>
      </trkpt>
      <trkpt lat="43.761671539396048" lon="11.896230652928352">
        <ele>946.55999999999995</ele>
        <time>2016-06-03T14:43:24Z</time>
      </trkpt>
      <trkpt lat="43.761615129187703" lon="11.896087825298309">
        <ele>947.03999999999996</ele>
        <time>2016-06-03T14:43:34Z</time>
      </trkpt>
      <trkpt lat="43.761539105325937" lon="11.895913649350405">
        <ele>948</ele>
        <time>2016-06-03T14:43:46Z</time>
      </trkpt>
      <trkpt lat="43.761489735916257" lon="11.895779119804502">
        <ele>949.44000000000005</ele>
        <time>2016-06-03T14:43:56Z</time>
      </trkpt>
      <trkpt lat="43.761453023180366" lon="11.895725140348077">
        <ele>949.91999999999996</ele>
        <time>2016-06-03T14:44:01Z</time>
      </trkpt>
      <trkpt lat="43.761389655992389" lon="11.895709382370114">
        <ele>950.88</ele>
        <time>2016-06-03T14:44:08Z</time>
      </trkpt>
      <trkpt lat="43.761268453672528" lon="11.895733773708344">
        <ele>952.79999999999995</ele>
        <time>2016-06-03T14:44:21Z</time>
      </trkpt>
      <trkpt lat="43.761186730116606" lon="11.895736455917358">
        <ele>954.73000000000002</ele>
        <time>2016-06-03T14:44:30Z</time>
      </trkpt>
      <trkpt lat="43.76113316975534" lon="11.895759338513017">
        <ele>955.69000000000005</ele>
        <time>2016-06-03T14:44:37Z</time>
      </trkpt>
      <trkpt lat="43.761061420664191" lon="11.895793788135052">
        <ele>957.13</ele>
        <time>2016-06-03T14:44:46Z</time>
      </trkpt>
      <trkpt lat="43.760981373488903" lon="11.895892694592476">
        <ele>958.57000000000005</ele>
        <time>2016-06-03T14:44:57Z</time>
      </trkpt>
      <trkpt lat="43.76091817393899" lon="11.895929407328367">
        <ele>959.04999999999995</ele>
        <time>2016-06-03T14:45:03Z</time>
      </trkpt>
      <trkpt lat="43.760874671861529" lon="11.895934687927365">
        <ele>959.52999999999997</ele>
        <time>2016-06-03T14:45:08Z</time>
      </trkpt>
      <trkpt lat="43.760833097621799" lon="11.896030325442553">
        <ele>960.49000000000001</ele>
        <time>2016-06-03T14:45:19Z</time>
      </trkpt>
      <trkpt lat="43.76078431494534" lon="11.89613526687026">
        <ele>961.46000000000004</ele>
        <time>2016-06-03T14:45:30Z</time>
      </trkpt>
      <trkpt lat="43.760705860331655" lon="11.896237777546048">
        <ele>962.41999999999996</ele>
        <time>2016-06-03T14:45:41Z</time>
      </trkpt>
      <trkpt lat="43.760582143440843" lon="11.896415809169412">
        <ele>962.89999999999998</ele>
        <time>2016-06-03T14:45:56Z</time>
      </trkpt>
      <trkpt lat="43.760547274723649" lon="11.896483283489943">
        <ele>963.38</ele>
        <time>2016-06-03T14:46:01Z</time>
      </trkpt>
      <trkpt lat="43.760487763211131" lon="11.896632565185428">
        <ele>963.86000000000001</ele>
        <time>2016-06-03T14:46:14Z</time>
      </trkpt>
      <trkpt lat="43.760469323024154" lon="11.896738177165389">
        <ele>964.82000000000005</ele>
        <time>2016-06-03T14:46:21Z</time>
      </trkpt>
      <trkpt lat="43.760438226163387" lon="11.896927943453193">
        <ele>966.25999999999999</ele>
        <time>2016-06-03T14:46:35Z</time>
      </trkpt>
      <trkpt lat="43.760388940572739" lon="11.897112261503935">
        <ele>967.70000000000005</ele>
        <time>2016-06-03T14:46:48Z</time>
      </trkpt>
      <trkpt lat="43.760344265028834" lon="11.897142687812448">
        <ele>968.17999999999995</ele>
        <time>2016-06-03T14:46:53Z</time>
      </trkpt>
      <trkpt lat="43.760157013311982" lon="11.897117961198092">
        <ele>968.66999999999996</ele>
        <time>2016-06-03T14:47:08Z</time>
      </trkpt>
      <trkpt lat="43.760109487921" lon="11.897092061117291">
        <ele>969.14999999999998</ele>
        <time>2016-06-03T14:47:12Z</time>
      </trkpt>
      <trkpt lat="43.760023405775428" lon="11.897076135501266">
        <ele>970.11000000000001</ele>
        <time>2016-06-03T14:47:20Z</time>
      </trkpt>
      <trkpt lat="43.759905472397804" lon="11.897014696151018">
        <ele>971.54999999999995</ele>
        <time>2016-06-03T14:47:32Z</time>
      </trkpt>
      <trkpt lat="43.759847804903984" lon="11.896944791078568">
        <ele>971.54999999999995</ele>
        <time>2016-06-03T14:47:38Z</time>
      </trkpt>
      <trkpt lat="43.759741187095642" lon="11.896818308159709">
        <ele>972.99000000000001</ele>
        <time>2016-06-03T14:47:51Z</time>
      </trkpt>
      <trkpt lat="43.759637167677283" lon="11.896692495793104">
        <ele>973.95000000000005</ele>
        <time>2016-06-03T14:48:03Z</time>
      </trkpt>
      <trkpt lat="43.759558126330376" lon="11.896518655121326">
        <ele>974.42999999999995</ele>
        <time>2016-06-03T14:48:16Z</time>
      </trkpt>
      <trkpt lat="43.759532645344734" lon="11.8964215926826">
        <ele>974.90999999999997</ele>
        <time>2016-06-03T14:48:25Z</time>
      </trkpt>
      <trkpt lat="43.759451424703002" lon="11.896253116428852">
        <ele>975.38999999999999</ele>
        <time>2016-06-03T14:48:38Z</time>
      </trkpt>
      <trkpt lat="43.759357547387481" lon="11.896131662651896">
        <ele>975.88</ele>
        <time>2016-06-03T14:48:50Z</time>
      </trkpt>
      <trkpt lat="43.759233914315701" lon="11.896133171394467">
        <ele>976.36000000000001</ele>
        <time>2016-06-03T14:49:02Z</time>
      </trkpt>
      <trkpt lat="43.759135846048594" lon="11.896245069801807">
        <ele>977.32000000000005</ele>
        <time>2016-06-03T14:49:14Z</time>
      </trkpt>
      <trkpt lat="43.759115226566792" lon="11.896237945184112">
        <ele>977.79999999999995</ele>
        <time>2016-06-03T14:49:26Z</time>
      </trkpt>
      <trkpt lat="43.759042890742421" lon="11.896272310987115">
        <ele>977.79999999999995</ele>
        <time>2016-06-03T14:49:37Z</time>
      </trkpt>
      <trkpt lat="43.758919592946768" lon="11.896276166662574">
        <ele>977.79999999999995</ele>
        <time>2016-06-03T14:49:47Z</time>
      </trkpt>
      <trkpt lat="43.758839378133416" lon="11.896265437826514">
        <ele>977.79999999999995</ele>
        <time>2016-06-03T14:49:59Z</time>
      </trkpt>
      <trkpt lat="43.75883468426764" lon="11.896239705383778">
        <ele>977.79999999999995</ele>
        <time>2016-06-03T14:50:12Z</time>
      </trkpt>
      <trkpt lat="43.758850861340761" lon="11.896263426169753">
        <ele>977.32000000000005</ele>
        <time>2016-06-03T14:50:23Z</time>
      </trkpt>
      <trkpt lat="43.758824206888676" lon="11.896386640146375">
        <ele>977.79999999999995</ele>
        <time>2016-06-03T14:50:35Z</time>
      </trkpt>
      <trkpt lat="43.758773412555456" lon="11.896603396162391">
        <ele>978.75999999999999</ele>
        <time>2016-06-03T14:50:50Z</time>
      </trkpt>
      <trkpt lat="43.75872328877449" lon="11.896715210750699">
        <ele>979.24000000000001</ele>
        <time>2016-06-03T14:51:00Z</time>
      </trkpt>
      <trkpt lat="43.758634692057967" lon="11.896883435547352">
        <ele>979.72000000000003</ele>
        <time>2016-06-03T14:51:13Z</time>
      </trkpt>
      <trkpt lat="43.758565122261643" lon="11.897090552374721">
        <ele>978.75999999999999</ele>
        <time>2016-06-03T14:51:27Z</time>
      </trkpt>
      <trkpt lat="43.758497815579176" lon="11.897219549864531">
        <ele>977.79999999999995</ele>
        <time>2016-06-03T14:51:37Z</time>
      </trkpt>
      <trkpt lat="43.75844769179821" lon="11.897346032783389">
        <ele>977.32000000000005</ele>
        <time>2016-06-03T14:51:49Z</time>
      </trkpt>
      <trkpt lat="43.758372673764825" lon="11.897516353055835">
        <ele>978.27999999999997</ele>
        <time>2016-06-03T14:52:02Z</time>
      </trkpt>
      <trkpt lat="43.758280724287033" lon="11.897686924785376">
        <ele>976.36000000000001</ele>
        <time>2016-06-03T14:52:16Z</time>
      </trkpt>
      <trkpt lat="43.758204029873013" lon="11.89783176407218">
        <ele>973.47000000000003</ele>
        <time>2016-06-03T14:52:28Z</time>
      </trkpt>
      <trkpt lat="43.758159605786204" lon="11.897905608639121">
        <ele>972.99000000000001</ele>
        <time>2016-06-03T14:52:35Z</time>
      </trkpt>
      <trkpt lat="43.758031949400902" lon="11.898077270016074">
        <ele>972.02999999999997</ele>
        <time>2016-06-03T14:52:49Z</time>
      </trkpt>
      <trkpt lat="43.75790337100625" lon="11.898222863674164">
        <ele>971.54999999999995</ele>
        <time>2016-06-03T14:53:03Z</time>
      </trkpt>
      <trkpt lat="43.757770350202918" lon="11.898335432633758">
        <ele>968.66999999999996</ele>
        <time>2016-06-03T14:53:15Z</time>
      </trkpt>
      <trkpt lat="43.757671779021621" lon="11.898495107889175">
        <ele>966.25999999999999</ele>
        <time>2016-06-03T14:53:27Z</time>
      </trkpt>
      <trkpt lat="43.757624002173543" lon="11.898627290502191">
        <ele>963.38</ele>
        <time>2016-06-03T14:53:37Z</time>
      </trkpt>
      <trkpt lat="43.757538674399257" lon="11.89878948032856">
        <ele>960.49000000000001</ele>
        <time>2016-06-03T14:53:48Z</time>
      </trkpt>
      <trkpt lat="43.757427698001266" lon="11.898990394547582">
        <ele>958.09000000000003</ele>
        <time>2016-06-03T14:54:01Z</time>
      </trkpt>
      <trkpt lat="43.757409006357193" lon="11.899019395932555">
        <ele>957.61000000000001</ele>
        <time>2016-06-03T14:54:03Z</time>
      </trkpt>
      <trkpt lat="43.7573844473809" lon="11.899076057597995">
        <ele>957.13</ele>
        <time>2016-06-03T14:54:07Z</time>
      </trkpt>
      <trkpt lat="43.757295850664377" lon="11.899252915754914">
        <ele>955.21000000000004</ele>
        <time>2016-06-03T14:54:19Z</time>
      </trkpt>
      <trkpt lat="43.757275147363544" lon="11.899310164153576">
        <ele>955.21000000000004</ele>
        <time>2016-06-03T14:54:23Z</time>
      </trkpt>
      <trkpt lat="43.757205912843347" lon="11.899411417543888">
        <ele>955.21000000000004</ele>
        <time>2016-06-03T14:54:32Z</time>
      </trkpt>
      <trkpt lat="43.757152855396271" lon="11.899566818028688">
        <ele>955.21000000000004</ele>
        <time>2016-06-03T14:54:42Z</time>
      </trkpt>
      <trkpt lat="43.757022516801953" lon="11.899780975654721">
        <ele>955.21000000000004</ele>
        <time>2016-06-03T14:54:57Z</time>
      </trkpt>
      <trkpt lat="43.756891340017319" lon="11.899980129674077">
        <ele>954.73000000000002</ele>
        <time>2016-06-03T14:55:12Z</time>
      </trkpt>
      <trkpt lat="43.756778100505471" lon="11.900130668655038">
        <ele>954.73000000000002</ele>
        <time>2016-06-03T14:55:25Z</time>
      </trkpt>
      <trkpt lat="43.756693946197629" lon="11.900294618681073">
        <ele>955.69000000000005</ele>
        <time>2016-06-03T14:55:37Z</time>
      </trkpt>
      <trkpt lat="43.756665447726846" lon="11.900334851816297">
        <ele>955.69000000000005</ele>
        <time>2016-06-03T14:55:49Z</time>
      </trkpt>
      <trkpt lat="43.756667291745543" lon="11.900326469913125">
        <ele>955.69000000000005</ele>
        <time>2016-06-03T14:56:06Z</time>
      </trkpt>
      <trkpt lat="43.756618341431022" lon="11.900403834879398">
        <ele>955.69000000000005</ele>
        <time>2016-06-03T14:56:16Z</time>
      </trkpt>
      <trkpt lat="43.756536534056067" lon="11.90050944685936">
        <ele>955.69000000000005</ele>
        <time>2016-06-03T14:56:27Z</time>
      </trkpt>
      <trkpt lat="43.756456570699811" lon="11.900604497641325">
        <ele>955.21000000000004</ele>
        <time>2016-06-03T14:56:37Z</time>
      </trkpt>
      <trkpt lat="43.756368895992637" lon="11.900643557310104">
        <ele>955.21000000000004</ele>
        <time>2016-06-03T14:56:46Z</time>
      </trkpt>
      <trkpt lat="43.756260015070438" lon="11.900732321664691">
        <ele>954.25</ele>
        <time>2016-06-03T14:56:57Z</time>
      </trkpt>
      <trkpt lat="43.7561652995646" lon="11.900854697450995">
        <ele>953.27999999999997</ele>
        <time>2016-06-03T14:57:07Z</time>
      </trkpt>
      <trkpt lat="43.756044181063771" lon="11.900992579758167">
        <ele>951.36000000000001</ele>
        <time>2016-06-03T14:57:20Z</time>
      </trkpt>
      <trkpt lat="43.755923146381974" lon="11.901080505922437">
        <ele>949.91999999999996</ele>
        <time>2016-06-03T14:57:31Z</time>
      </trkpt>
      <trkpt lat="43.755793059244752" lon="11.901098191738129">
        <ele>947.03999999999996</ele>
        <time>2016-06-03T14:57:42Z</time>
      </trkpt>
      <trkpt lat="43.75568401068449" lon="11.901163402944803">
        <ele>944.63</ele>
        <time>2016-06-03T14:57:53Z</time>
      </trkpt>
      <trkpt lat="43.755581667646766" lon="11.901199696585536">
        <ele>941.75</ele>
        <time>2016-06-03T14:58:04Z</time>
      </trkpt>
      <trkpt lat="43.755535902455449" lon="11.901212437078357">
        <ele>940.78999999999996</ele>
        <time>2016-06-03T14:58:08Z</time>
      </trkpt>
      <trkpt lat="43.755372874438763" lon="11.90129223279655">
        <ele>936.94000000000005</ele>
        <time>2016-06-03T14:58:21Z</time>
      </trkpt>
      <trkpt lat="43.755255192518234" lon="11.901353923603892">
        <ele>935.01999999999998</ele>
        <time>2016-06-03T14:58:30Z</time>
      </trkpt>
      <trkpt lat="43.755134912207723" lon="11.901436820626259">
        <ele>932.62</ele>
        <time>2016-06-03T14:58:40Z</time>
      </trkpt>
      <trkpt lat="43.755050506442785" lon="11.901515275239944">
        <ele>930.69000000000005</ele>
        <time>2016-06-03T14:58:51Z</time>
      </trkpt>
      <trkpt lat="43.755068862810731" lon="11.901549305766821">
        <ele>930.69000000000005</ele>
        <time>2016-06-03T14:59:02Z</time>
      </trkpt>
      <trkpt lat="43.755085626617074" lon="11.901555759832263">
        <ele>930.69000000000005</ele>
        <time>2016-06-03T14:59:13Z</time>
      </trkpt>
      <trkpt lat="43.755132565274835" lon="11.901583587750793">
        <ele>930.21000000000004</ele>
        <time>2016-06-03T14:59:17Z</time>
      </trkpt>
      <trkpt lat="43.755261898040771" lon="11.90162306651473">
        <ele>930.69000000000005</ele>
        <time>2016-06-03T14:59:30Z</time>
      </trkpt>
      <trkpt lat="43.755361223593354" lon="11.90160253085196">
        <ele>931.16999999999996</ele>
        <time>2016-06-03T14:59:38Z</time>
      </trkpt>
      <trkpt lat="43.75539961270988" lon="11.9016073923558">
        <ele>931.16999999999996</ele>
        <time>2016-06-03T14:59:42Z</time>
      </trkpt>
      <trkpt lat="43.755482928827405" lon="11.901629436761141">
        <ele>930.69000000000005</ele>
        <time>2016-06-03T14:59:51Z</time>
      </trkpt>
      <trkpt lat="43.755507906898856" lon="11.901659946888685">
        <ele>930.69000000000005</ele>
        <time>2016-06-03T14:59:54Z</time>
      </trkpt>
      <trkpt lat="43.755522994324565" lon="11.9016850925982">
        <ele>930.69000000000005</ele>
        <time>2016-06-03T14:59:56Z</time>
      </trkpt>
      <trkpt lat="43.75558577477932" lon="11.901778466999531">
        <ele>931.16999999999996</ele>
        <time>2016-06-03T15:00:04Z</time>
      </trkpt>
      <trkpt lat="43.755669593811035" lon="11.901962030678988">
        <ele>932.13999999999999</ele>
        <time>2016-06-03T15:00:18Z</time>
      </trkpt>
      <trkpt lat="43.755740923807025" lon="11.902090525254607">
        <ele>934.05999999999995</ele>
        <time>2016-06-03T15:00:29Z</time>
      </trkpt>
      <trkpt lat="43.755768081173301" lon="11.902222204953432">
        <ele>934.53999999999996</ele>
        <time>2016-06-03T15:00:39Z</time>
      </trkpt>
      <trkpt lat="43.755805967375636" lon="11.902328403666615">
        <ele>934.53999999999996</ele>
        <time>2016-06-03T15:00:46Z</time>
      </trkpt>
      <trkpt lat="43.75582180917263" lon="11.902441224083304">
        <ele>932.62</ele>
        <time>2016-06-03T15:00:52Z</time>
      </trkpt>
      <trkpt lat="43.7558320350945" lon="11.902564689517021">
        <ele>931.64999999999998</ele>
        <time>2016-06-03T15:00:59Z</time>
      </trkpt>
      <trkpt lat="43.755863718688488" lon="11.902769040316343">
        <ele>930.69000000000005</ele>
        <time>2016-06-03T15:01:12Z</time>
      </trkpt>
      <trkpt lat="43.75591903924942" lon="11.902958806604147">
        <ele>929.25</ele>
        <time>2016-06-03T15:01:24Z</time>
      </trkpt>
      <trkpt lat="43.755930857732892" lon="11.903001386672258">
        <ele>929.25</ele>
        <time>2016-06-03T15:01:27Z</time>
      </trkpt>
      <trkpt lat="43.755961954593658" lon="11.9030527677387">
        <ele>929.25</ele>
        <time>2016-06-03T15:01:31Z</time>
      </trkpt>
      <trkpt lat="43.756061363965273" lon="11.903255358338356">
        <ele>927.33000000000004</ele>
        <time>2016-06-03T15:01:45Z</time>
      </trkpt>
      <trkpt lat="43.756109895184636" lon="11.903463816270232">
        <ele>925.40999999999997</ele>
        <time>2016-06-03T15:01:58Z</time>
      </trkpt>
      <trkpt lat="43.756183823570609" lon="11.903614439070225">
        <ele>923.96000000000004</ele>
        <time>2016-06-03T15:02:10Z</time>
      </trkpt>
      <trkpt lat="43.756242664530873" lon="11.90369532443583">
        <ele>923.96000000000004</ele>
        <time>2016-06-03T15:02:20Z</time>
      </trkpt>
      <trkpt lat="43.756312401965261" lon="11.903707813471556">
        <ele>924.45000000000005</ele>
        <time>2016-06-03T15:02:25Z</time>
      </trkpt>
      <trkpt lat="43.75642279163003" lon="11.903890622779727">
        <ele>924.45000000000005</ele>
        <time>2016-06-03T15:02:39Z</time>
      </trkpt>
      <trkpt lat="43.756553297862411" lon="11.904056835919619">
        <ele>922.51999999999998</ele>
        <time>2016-06-03T15:02:53Z</time>
      </trkpt>
      <trkpt lat="43.756652791053057" lon="11.904138810932636">
        <ele>921.08000000000004</ele>
        <time>2016-06-03T15:03:02Z</time>
      </trkpt>
      <trkpt lat="43.75668472610414" lon="11.904198154807091">
        <ele>919.63999999999999</ele>
        <time>2016-06-03T15:03:06Z</time>
      </trkpt>
      <trkpt lat="43.756727138534188" lon="11.904296139255166">
        <ele>917.72000000000003</ele>
        <time>2016-06-03T15:03:13Z</time>
      </trkpt>
      <trkpt lat="43.756732083857059" lon="11.904378868639469">
        <ele>916.26999999999998</ele>
        <time>2016-06-03T15:03:18Z</time>
      </trkpt>
      <trkpt lat="43.756785057485104" lon="11.904511386528611">
        <ele>913.87</ele>
        <time>2016-06-03T15:03:27Z</time>
      </trkpt>
      <trkpt lat="43.756807688623667" lon="11.904675755649805">
        <ele>911.95000000000005</ele>
        <time>2016-06-03T15:03:38Z</time>
      </trkpt>
      <trkpt lat="43.756839456036687" lon="11.904742559418082">
        <ele>910.50999999999999</ele>
        <time>2016-06-03T15:03:47Z</time>
      </trkpt>
      <trkpt lat="43.756841886788607" lon="11.904742978513241">
        <ele>910.50999999999999</ele>
        <time>2016-06-03T15:04:04Z</time>
      </trkpt>
      <trkpt lat="43.756857560947537" lon="11.904737865552306">
        <ele>910.50999999999999</ele>
        <time>2016-06-03T15:04:23Z</time>
      </trkpt>
      <trkpt lat="43.756856052204967" lon="11.904795616865158">
        <ele>910.02999999999997</ele>
        <time>2016-06-03T15:04:33Z</time>
      </trkpt>
      <trkpt lat="43.756841300055385" lon="11.904869209975004">
        <ele>909.05999999999995</ele>
        <time>2016-06-03T15:04:38Z</time>
      </trkpt>
      <trkpt lat="43.756859740242362" lon="11.904933666810393">
        <ele>908.10000000000002</ele>
        <time>2016-06-03T15:04:47Z</time>
      </trkpt>
      <trkpt lat="43.756874492391944" lon="11.904960656538606">
        <ele>907.62</ele>
        <time>2016-06-03T15:04:49Z</time>
      </trkpt>
      <trkpt lat="43.756886143237352" lon="11.904974402859807">
        <ele>907.13999999999999</ele>
        <time>2016-06-03T15:04:50Z</time>
      </trkpt>
      <trkpt lat="43.756925286725163" lon="11.905009355396032">
        <ele>906.17999999999995</ele>
        <time>2016-06-03T15:04:54Z</time>
      </trkpt>
      <trkpt lat="43.756978008896112" lon="11.905137347057462">
        <ele>903.77999999999997</ele>
        <time>2016-06-03T15:05:05Z</time>
      </trkpt>
      <trkpt lat="43.756990665569901" lon="11.905311103910208">
        <ele>900.88999999999999</ele>
        <time>2016-06-03T15:05:15Z</time>
      </trkpt>
      <trkpt lat="43.75692218542099" lon="11.90549248829484">
        <ele>898.49000000000001</ele>
        <time>2016-06-03T15:05:26Z</time>
      </trkpt>
      <trkpt lat="43.756794612854719" lon="11.905545126646757">
        <ele>896.09000000000003</ele>
        <time>2016-06-03T15:05:37Z</time>
      </trkpt>
      <trkpt lat="43.756785141304135" lon="11.905550071969628">
        <ele>896.09000000000003</ele>
        <time>2016-06-03T15:05:38Z</time>
      </trkpt>
      <trkpt lat="43.75667198561132" lon="11.905683344230056">
        <ele>893.67999999999995</ele>
        <time>2016-06-03T15:05:51Z</time>
      </trkpt>
      <trkpt lat="43.756566122174263" lon="11.905815610662103">
        <ele>892.24000000000001</ele>
        <time>2016-06-03T15:06:03Z</time>
      </trkpt>
      <trkpt lat="43.756551034748554" lon="11.905864058062434">
        <ele>892.24000000000001</ele>
        <time>2016-06-03T15:06:06Z</time>
      </trkpt>
      <trkpt lat="43.756528990343213" lon="11.90599380992353">
        <ele>890.32000000000005</ele>
        <time>2016-06-03T15:06:14Z</time>
      </trkpt>
      <trkpt lat="43.756512142717838" lon="11.906050555408001">
        <ele>889.84000000000003</ele>
        <time>2016-06-03T15:06:23Z</time>
      </trkpt>
      <trkpt lat="43.756443159654737" lon="11.9061179459095">
        <ele>886.95000000000005</ele>
        <time>2016-06-03T15:06:35Z</time>
      </trkpt>
      <trkpt lat="43.756389012560248" lon="11.906205452978611">
        <ele>884.54999999999995</ele>
        <time>2016-06-03T15:06:46Z</time>
      </trkpt>
      <trkpt lat="43.756312904879451" lon="11.906330930069089">
        <ele>882.63</ele>
        <time>2016-06-03T15:06:56Z</time>
      </trkpt>
      <trkpt lat="43.756247609853745" lon="11.906408965587616">
        <ele>881.19000000000005</ele>
        <time>2016-06-03T15:07:06Z</time>
      </trkpt>
      <trkpt lat="43.756281388923526" lon="11.906497478485107">
        <ele>879.25999999999999</ele>
        <time>2016-06-03T15:07:13Z</time>
      </trkpt>
      <trkpt lat="43.756397981196642" lon="11.906579621136189">
        <ele>876.86000000000001</ele>
        <time>2016-06-03T15:07:25Z</time>
      </trkpt>
      <trkpt lat="43.756403680890799" lon="11.906588673591614">
        <ele>877.34000000000003</ele>
        <time>2016-06-03T15:07:26Z</time>
      </trkpt>
      <trkpt lat="43.756441315636039" lon="11.906748181208968">
        <ele>874.94000000000005</ele>
        <time>2016-06-03T15:07:39Z</time>
      </trkpt>
      <trkpt lat="43.756439052522182" lon="11.90681230276823">
        <ele>873.5</ele>
        <time>2016-06-03T15:07:43Z</time>
      </trkpt>
      <trkpt lat="43.75642329454422" lon="11.906866114586592">
        <ele>872.04999999999995</ele>
        <time>2016-06-03T15:07:47Z</time>
      </trkpt>
      <trkpt lat="43.756410973146558" lon="11.907022604718804">
        <ele>870.13</ele>
        <time>2016-06-03T15:07:59Z</time>
      </trkpt>
      <trkpt lat="43.756397981196642" lon="11.907050851732492">
        <ele>870.61000000000001</ele>
        <time>2016-06-03T15:08:01Z</time>
      </trkpt>
      <trkpt lat="43.756382642313838" lon="11.907060407102108">
        <ele>869.64999999999998</ele>
        <time>2016-06-03T15:08:09Z</time>
      </trkpt>
      <trkpt lat="43.75639102421701" lon="11.90707222558558">
        <ele>870.13</ele>
        <time>2016-06-03T15:08:18Z</time>
      </trkpt>
      <trkpt lat="43.756297565996647" lon="11.907054539769888">
        <ele>868.21000000000004</ele>
        <time>2016-06-03T15:08:30Z</time>
      </trkpt>
      <trkpt lat="43.756271582096815" lon="11.907013049349189">
        <ele>867.73000000000002</ele>
        <time>2016-06-03T15:08:33Z</time>
      </trkpt>
      <trkpt lat="43.756173010915518" lon="11.906876591965556">
        <ele>865.32000000000005</ele>
        <time>2016-06-03T15:08:46Z</time>
      </trkpt>
      <trkpt lat="43.756065890192986" lon="11.906862510368228">
        <ele>864.36000000000001</ele>
        <time>2016-06-03T15:08:56Z</time>
      </trkpt>
      <trkpt lat="43.755902945995331" lon="11.906799310818315">
        <ele>861.48000000000002</ele>
        <time>2016-06-03T15:09:10Z</time>
      </trkpt>
      <trkpt lat="43.755775289610028" lon="11.906739380210638">
        <ele>861.96000000000004</ele>
        <time>2016-06-03T15:09:21Z</time>
      </trkpt>
      <trkpt lat="43.755653332918882" lon="11.906675007194281">
        <ele>860.03999999999996</ele>
        <time>2016-06-03T15:09:34Z</time>
      </trkpt>
      <trkpt lat="43.755620643496513" lon="11.906648436561227">
        <ele>859.08000000000004</ele>
        <time>2016-06-03T15:09:37Z</time>
      </trkpt>
      <trkpt lat="43.75557160936296" lon="11.906514409929514">
        <ele>856.19000000000005</ele>
        <time>2016-06-03T15:09:49Z</time>
      </trkpt>
      <trkpt lat="43.755540093407035" lon="11.906519690528512">
        <ele>855.23000000000002</ele>
        <time>2016-06-03T15:09:53Z</time>
      </trkpt>
      <trkpt lat="43.755490556359291" lon="11.90656260587275">
        <ele>853.78999999999996</ele>
        <time>2016-06-03T15:09:59Z</time>
      </trkpt>
      <trkpt lat="43.755400450900197" lon="11.906659165397286">
        <ele>850.89999999999998</ele>
        <time>2016-06-03T15:10:10Z</time>
      </trkpt>
      <trkpt lat="43.755313865840435" lon="11.906655058264732">
        <ele>848.5</ele>
        <time>2016-06-03T15:10:18Z</time>
      </trkpt>
      <trkpt lat="43.755252929404378" lon="11.906475685536861">
        <ele>845.62</ele>
        <time>2016-06-03T15:10:30Z</time>
      </trkpt>
      <trkpt lat="43.755222167819738" lon="11.906369738280773">
        <ele>844.65999999999997</ele>
        <time>2016-06-03T15:10:37Z</time>
      </trkpt>
      <trkpt lat="43.755156621336937" lon="11.906216768547893">
        <ele>842.25</ele>
        <time>2016-06-03T15:10:48Z</time>
      </trkpt>
      <trkpt lat="43.755133235827088" lon="11.906131105497479">
        <ele>841.28999999999996</ele>
        <time>2016-06-03T15:10:53Z</time>
      </trkpt>
      <trkpt lat="43.755112029612064" lon="11.906032701954246">
        <ele>840.33000000000004</ele>
        <time>2016-06-03T15:11:01Z</time>
      </trkpt>
      <trkpt lat="43.755001975223422" lon="11.90602021291852">
        <ele>840.80999999999995</ele>
        <time>2016-06-03T15:11:12Z</time>
      </trkpt>
      <trkpt lat="43.754884377121925" lon="11.905952654778957">
        <ele>841.28999999999996</ele>
        <time>2016-06-03T15:11:23Z</time>
      </trkpt>
      <trkpt lat="43.754859901964664" lon="11.905917702242732">
        <ele>840.80999999999995</ele>
        <time>2016-06-03T15:11:26Z</time>
      </trkpt>
      <trkpt lat="43.754802821204066" lon="11.905745202675462">
        <ele>838.88999999999999</ele>
        <time>2016-06-03T15:11:38Z</time>
      </trkpt>
      <trkpt lat="43.754731072112918" lon="11.905735395848751">
        <ele>838.88999999999999</ele>
        <time>2016-06-03T15:11:46Z</time>
      </trkpt>
      <trkpt lat="43.75470232218504" lon="11.905743358656764">
        <ele>838.88999999999999</ele>
        <time>2016-06-03T15:11:49Z</time>
      </trkpt>
      <trkpt lat="43.754555890336633" lon="11.905730618163943">
        <ele>836.96000000000004</ele>
        <time>2016-06-03T15:12:03Z</time>
      </trkpt>
      <trkpt lat="43.754437202587724" lon="11.905665071681142">
        <ele>835.51999999999998</ele>
        <time>2016-06-03T15:12:14Z</time>
      </trkpt>
      <trkpt lat="43.754318011924624" lon="11.905612936243415">
        <ele>835.03999999999996</ele>
        <time>2016-06-03T15:12:24Z</time>
      </trkpt>
      <trkpt lat="43.754217009991407" lon="11.905577229335904">
        <ele>833.60000000000002</ele>
        <time>2016-06-03T15:12:38Z</time>
      </trkpt>
      <trkpt lat="43.754037218168378" lon="11.905490476638079">
        <ele>831.67999999999995</ele>
        <time>2016-06-03T15:12:52Z</time>
      </trkpt>
      <trkpt lat="43.753847954794765" lon="11.905466336756945">
        <ele>830.72000000000003</ele>
        <time>2016-06-03T15:13:07Z</time>
      </trkpt>
      <trkpt lat="43.753833202645183" lon="11.905470192432404">
        <ele>830.24000000000001</ele>
        <time>2016-06-03T15:13:08Z</time>
      </trkpt>
      <trkpt lat="43.753662714734674" lon="11.905422415584326">
        <ele>827.83000000000004</ele>
        <time>2016-06-03T15:13:22Z</time>
      </trkpt>
      <trkpt lat="43.753570849075913" lon="11.905451500788331">
        <ele>826.38999999999999</ele>
        <time>2016-06-03T15:13:31Z</time>
      </trkpt>
      <trkpt lat="43.753401869907975" lon="11.905494499951601">
        <ele>825.42999999999995</ele>
        <time>2016-06-03T15:13:45Z</time>
      </trkpt>
      <trkpt lat="43.753390219062567" lon="11.905494080856442">
        <ele>824.95000000000005</ele>
        <time>2016-06-03T15:13:46Z</time>
      </trkpt>
      <trkpt lat="43.75321495346725" lon="11.905570020899177">
        <ele>823.99000000000001</ele>
        <time>2016-06-03T15:14:02Z</time>
      </trkpt>
      <trkpt lat="43.753069862723351" lon="11.905646715313196">
        <ele>824.47000000000003</ele>
        <time>2016-06-03T15:14:15Z</time>
      </trkpt>
      <trkpt lat="43.753059133887291" lon="11.90564202144742">
        <ele>824.47000000000003</ele>
        <time>2016-06-03T15:14:16Z</time>
      </trkpt>
      <trkpt lat="43.753027701750398" lon="11.905650068074465">
        <ele>823.99000000000001</ele>
        <time>2016-06-03T15:14:19Z</time>
      </trkpt>
      <trkpt lat="43.752844221889973" lon="11.9056102540344">
        <ele>821.58000000000004</ele>
        <time>2016-06-03T15:14:34Z</time>
      </trkpt>
      <trkpt lat="43.752722349017859" lon="11.905553760007024">
        <ele>819.17999999999995</ele>
        <time>2016-06-03T15:14:45Z</time>
      </trkpt>
      <trkpt lat="43.752621514722705" lon="11.905468935146928">
        <ele>816.29999999999995</ele>
        <time>2016-06-03T15:14:55Z</time>
      </trkpt>
      <trkpt lat="43.752623945474625" lon="11.905477065593004">
        <ele>815.82000000000005</ele>
        <time>2016-06-03T15:15:06Z</time>
      </trkpt>
      <trkpt lat="43.752639451995492" lon="11.905461810529232">
        <ele>815.82000000000005</ele>
        <time>2016-06-03T15:15:27Z</time>
      </trkpt>
      <trkpt lat="43.752624532207847" lon="11.905432809144258">
        <ele>815.82000000000005</ele>
        <time>2016-06-03T15:15:43Z</time>
      </trkpt>
      <trkpt lat="43.752566864714026" lon="11.90540749579668">
        <ele>814.37</ele>
        <time>2016-06-03T15:15:54Z</time>
      </trkpt>
      <trkpt lat="43.752461588010192" lon="11.905418643727899">
        <ele>811.49000000000001</ele>
        <time>2016-06-03T15:16:04Z</time>
      </trkpt>
      <trkpt lat="43.752371482551098" lon="11.905472874641418">
        <ele>808.61000000000001</ele>
        <time>2016-06-03T15:16:14Z</time>
      </trkpt>
      <trkpt lat="43.752264864742756" lon="11.905559711158276">
        <ele>805.72000000000003</ele>
        <time>2016-06-03T15:16:25Z</time>
      </trkpt>
      <trkpt lat="43.752224212512374" lon="11.905615534633398">
        <ele>804.27999999999997</ele>
        <time>2016-06-03T15:16:30Z</time>
      </trkpt>
      <trkpt lat="43.752105860039592" lon="11.905667083337903">
        <ele>801.39999999999998</ele>
        <time>2016-06-03T15:16:42Z</time>
      </trkpt>
      <trkpt lat="43.751995805650949" lon="11.905619390308857">
        <ele>798.99000000000001</ele>
        <time>2016-06-03T15:16:52Z</time>
      </trkpt>
      <trkpt lat="43.751985495910048" lon="11.905612265691161">
        <ele>798.99000000000001</ele>
        <time>2016-06-03T15:16:53Z</time>
      </trkpt>
      <trkpt lat="43.751912489533424" lon="11.905556442216039">
        <ele>796.59000000000003</ele>
        <time>2016-06-03T15:17:01Z</time>
      </trkpt>
      <trkpt lat="43.751819115132093" lon="11.905505731701851">
        <ele>794.19000000000005</ele>
        <time>2016-06-03T15:17:13Z</time>
      </trkpt>
      <trkpt lat="43.751711323857307" lon="11.905529955402017">
        <ele>792.25999999999999</ele>
        <time>2016-06-03T15:17:24Z</time>
      </trkpt>
      <trkpt lat="43.751651896163821" lon="11.905517717823386">
        <ele>791.29999999999995</ele>
        <time>2016-06-03T15:17:29Z</time>
      </trkpt>
      <trkpt lat="43.751534800976515" lon="11.905563063919544">
        <ele>789.38</ele>
        <time>2016-06-03T15:17:40Z</time>
      </trkpt>
      <trkpt lat="43.751425752416253" lon="11.905616456642747">
        <ele>786.98000000000002</ele>
        <time>2016-06-03T15:17:52Z</time>
      </trkpt>
      <trkpt lat="43.751327265053988" lon="11.905727852135897">
        <ele>785.04999999999995</ele>
        <time>2016-06-03T15:18:04Z</time>
      </trkpt>
      <trkpt lat="43.751256940886378" lon="11.905895322561264">
        <ele>784.57000000000005</ele>
        <time>2016-06-03T15:18:17Z</time>
      </trkpt>
      <trkpt lat="43.751210169866681" lon="11.906076204031706">
        <ele>782.16999999999996</ele>
        <time>2016-06-03T15:18:29Z</time>
      </trkpt>
      <trkpt lat="43.751131044700742" lon="11.906159520149231">
        <ele>781.21000000000004</ele>
        <time>2016-06-03T15:18:40Z</time>
      </trkpt>
      <trkpt lat="43.75109969638288" lon="11.906167650595307">
        <ele>780.25</ele>
        <time>2016-06-03T15:18:54Z</time>
      </trkpt>
      <trkpt lat="43.751045297831297" lon="11.906183324754238">
        <ele>778.80999999999995</ele>
        <time>2016-06-03T15:19:06Z</time>
      </trkpt>
      <trkpt lat="43.750992491841316" lon="11.906203106045723">
        <ele>777.84000000000003</ele>
        <time>2016-06-03T15:19:15Z</time>
      </trkpt>
      <trkpt lat="43.75091060064733" lon="11.906204782426357">
        <ele>775.44000000000005</ele>
        <time>2016-06-03T15:19:26Z</time>
      </trkpt>
      <trkpt lat="43.750799121335149" lon="11.906193047761917">
        <ele>772.55999999999995</ele>
        <time>2016-06-03T15:19:39Z</time>
      </trkpt>
      <trkpt lat="43.750711781904101" lon="11.906221881508827">
        <ele>770.14999999999998</ele>
        <time>2016-06-03T15:19:50Z</time>
      </trkpt>
      <trkpt lat="43.750647576525807" lon="11.906212493777275">
        <ele>769.19000000000005</ele>
        <time>2016-06-03T15:19:57Z</time>
      </trkpt>
      <trkpt lat="43.750517657026649" lon="11.906192963942885">
        <ele>769.19000000000005</ele>
        <time>2016-06-03T15:20:10Z</time>
      </trkpt>
      <trkpt lat="43.750498294830322" lon="11.906194975599647">
        <ele>765.83000000000004</ele>
        <time>2016-06-03T15:20:12Z</time>
      </trkpt>
      <trkpt lat="43.750489912927151" lon="11.906196987256408">
        <ele>765.83000000000004</ele>
        <time>2016-06-03T15:20:13Z</time>
      </trkpt>
      <trkpt lat="43.750473652034998" lon="11.906202854588628">
        <ele>765.35000000000002</ele>
        <time>2016-06-03T15:20:15Z</time>
      </trkpt>
      <trkpt lat="43.750353790819645" lon="11.906197406351566">
        <ele>762.46000000000004</ele>
        <time>2016-06-03T15:20:28Z</time>
      </trkpt>
      <trkpt lat="43.750326046720147" lon="11.906115682795644">
        <ele>761.5</ele>
        <time>2016-06-03T15:20:39Z</time>
      </trkpt>
      <trkpt lat="43.750327136367559" lon="11.906096488237381">
        <ele>761.5</ele>
        <time>2016-06-03T15:20:59Z</time>
      </trkpt>
      <trkpt lat="43.7503164075315" lon="11.90606857649982">
        <ele>761.5</ele>
        <time>2016-06-03T15:21:16Z</time>
      </trkpt>
      <trkpt lat="43.75028807669878" lon="11.906023984774947">
        <ele>760.05999999999995</ele>
        <time>2016-06-03T15:21:34Z</time>
      </trkpt>
      <trkpt lat="43.750211801379919" lon="11.905889706686139">
        <ele>759.10000000000002</ele>
        <time>2016-06-03T15:21:47Z</time>
      </trkpt>
      <trkpt lat="43.750206353142858" lon="11.905878307297826">
        <ele>758.62</ele>
        <time>2016-06-03T15:21:48Z</time>
      </trkpt>
      <trkpt lat="43.750141309574246" lon="11.905788369476795">
        <ele>758.13999999999999</ele>
        <time>2016-06-03T15:22:00Z</time>
      </trkpt>
      <trkpt lat="43.750110631808639" lon="11.905760541558266">
        <ele>758.62</ele>
        <time>2016-06-03T15:22:10Z</time>
      </trkpt>
      <trkpt lat="43.750095376744866" lon="11.905757775530219">
        <ele>758.13999999999999</ele>
        <time>2016-06-03T15:22:12Z</time>
      </trkpt>
      <trkpt lat="43.750011725351214" lon="11.905691223219037">
        <ele>757.17999999999995</ele>
        <time>2016-06-03T15:22:25Z</time>
      </trkpt>
      <trkpt lat="43.750007199123502" lon="11.905655851587653">
        <ele>757.17999999999995</ele>
        <time>2016-06-03T15:22:36Z</time>
      </trkpt>
      <trkpt lat="43.750025136396289" lon="11.905651912093163">
        <ele>757.17999999999995</ele>
        <time>2016-06-03T15:22:55Z</time>
      </trkpt>
      <trkpt lat="43.75005841255188" lon="11.905576139688492">
        <ele>760.05999999999995</ele>
        <time>2016-06-03T15:23:12Z</time>
      </trkpt>
      <trkpt lat="43.750119768083096" lon="11.905577061697841">
        <ele>759.58000000000004</ele>
        <time>2016-06-03T15:23:30Z</time>
      </trkpt>
      <trkpt lat="43.750053215771914" lon="11.905691893771291">
        <ele>760.53999999999996</ele>
        <time>2016-06-03T15:23:43Z</time>
      </trkpt>
      <trkpt lat="43.750100489705801" lon="11.905588041990995">
        <ele>762.46000000000004</ele>
        <time>2016-06-03T15:23:59Z</time>
      </trkpt>
      <trkpt lat="43.750040894374251" lon="11.905649229884148">
        <ele>761.98000000000002</ele>
        <time>2016-06-03T15:24:20Z</time>
      </trkpt>
      <trkpt lat="43.750078026205301" lon="11.90563322044909">
        <ele>761.98000000000002</ele>
        <time>2016-06-03T15:24:34Z</time>
      </trkpt>
      <trkpt lat="43.750078026205301" lon="11.905630957335234">
        <ele>761.5</ele>
        <time>2016-06-03T15:24:58Z</time>
      </trkpt>
      <trkpt lat="43.750101076439023" lon="11.905615450814366">
        <ele>761.01999999999998</ele>
        <time>2016-06-03T15:25:23Z</time>
      </trkpt>
      <trkpt lat="43.750094203278422" lon="11.905639003962278">
        <ele>761.01999999999998</ele>
        <time>2016-06-03T15:25:46Z</time>
      </trkpt>
      <trkpt lat="43.750032763928175" lon="11.905694911256433">
        <ele>760.53999999999996</ele>
        <time>2016-06-03T15:26:08Z</time>
      </trkpt>
      <trkpt lat="43.750053970143199" lon="11.905655348673463">
        <ele>761.01999999999998</ele>
        <time>2016-06-03T15:26:28Z</time>
      </trkpt>
      <trkpt lat="43.750095795840025" lon="11.905647721141577">
        <ele>761.01999999999998</ele>
        <time>2016-06-03T15:26:47Z</time>
      </trkpt>
      <trkpt lat="43.750108033418655" lon="11.905611427500844">
        <ele>761.01999999999998</ele>
        <time>2016-06-03T15:27:06Z</time>
      </trkpt>
      <trkpt lat="43.750112056732178" lon="11.90560488961637">
        <ele>761.01999999999998</ele>
        <time>2016-06-03T15:27:31Z</time>
      </trkpt>
      <trkpt lat="43.75006134621799" lon="11.905658030882478">
        <ele>761.01999999999998</ele>
        <time>2016-06-03T15:27:50Z</time>
      </trkpt>
      <trkpt lat="43.750014826655388" lon="11.90570798702538">
        <ele>761.01999999999998</ele>
        <time>2016-06-03T15:28:10Z</time>
      </trkpt>
      <trkpt lat="43.750015832483768" lon="11.905722403898835">
        <ele>761.01999999999998</ele>
        <time>2016-06-03T15:28:31Z</time>
      </trkpt>
      <trkpt lat="43.75003594905138" lon="11.905677141621709">
        <ele>761.01999999999998</ele>
        <time>2016-06-03T15:28:49Z</time>
      </trkpt>
      <trkpt lat="43.750037793070078" lon="11.90569331869483">
        <ele>761.01999999999998</ele>
        <time>2016-06-03T15:29:11Z</time>
      </trkpt>
      <trkpt lat="43.750004936009645" lon="11.905726511031389">
        <ele>760.53999999999996</ele>
        <time>2016-06-03T15:29:36Z</time>
      </trkpt>
      <trkpt lat="43.750044833868742" lon="11.905667502433062">
        <ele>760.53999999999996</ele>
        <time>2016-06-03T15:29:56Z</time>
      </trkpt>
      <trkpt lat="43.750071991235018" lon="11.905629029497504">
        <ele>760.53999999999996</ele>
        <time>2016-06-03T15:30:17Z</time>
      </trkpt>
      <trkpt lat="43.750061932951212" lon="11.905569937080145">
        <ele>761.01999999999998</ele>
        <time>2016-06-03T15:30:41Z</time>
      </trkpt>
      <trkpt lat="43.750102836638689" lon="11.905596926808357">
        <ele>760.53999999999996</ele>
        <time>2016-06-03T15:31:03Z</time>
      </trkpt>
      <trkpt lat="43.750115074217319" lon="11.905621653422713">
        <ele>760.53999999999996</ele>
        <time>2016-06-03T15:31:21Z</time>
      </trkpt>
      <trkpt lat="43.750099064782262" lon="11.905658869072795">
        <ele>760.53999999999996</ele>
        <time>2016-06-03T15:31:41Z</time>
      </trkpt>
      <trkpt lat="43.750087665393949" lon="11.905653001740575">
        <ele>760.53999999999996</ele>
        <time>2016-06-03T15:32:03Z</time>
      </trkpt>
      <trkpt lat="43.750096885487437" lon="11.905641937628388">
        <ele>760.53999999999996</ele>
        <time>2016-06-03T15:32:25Z</time>
      </trkpt>
      <trkpt lat="43.750071404501796" lon="11.905614528805017">
        <ele>760.05999999999995</ele>
        <time>2016-06-03T15:32:44Z</time>
      </trkpt>
      <trkpt lat="43.750049276277423" lon="11.905644871294498">
        <ele>760.05999999999995</ele>
        <time>2016-06-03T15:33:07Z</time>
      </trkpt>
      <trkpt lat="43.750062771141529" lon="11.905623162165284">
        <ele>760.05999999999995</ele>
        <time>2016-06-03T15:33:26Z</time>
      </trkpt>
      <trkpt lat="43.750035278499126" lon="11.905646128579974">
        <ele>759.58000000000004</ele>
        <time>2016-06-03T15:33:51Z</time>
      </trkpt>
      <trkpt lat="43.75003351829946" lon="11.905606482177973">
        <ele>759.58000000000004</ele>
        <time>2016-06-03T15:34:10Z</time>
      </trkpt>
      <trkpt lat="43.750088252127171" lon="11.905621737241745">
        <ele>759.58000000000004</ele>
        <time>2016-06-03T15:34:31Z</time>
      </trkpt>
      <trkpt lat="43.750104764476418" lon="11.905597597360611">
        <ele>760.05999999999995</ele>
        <time>2016-06-03T15:34:53Z</time>
      </trkpt>
      <trkpt lat="43.75008481554687" lon="11.905621904879808">
        <ele>760.05999999999995</ele>
        <time>2016-06-03T15:35:10Z</time>
      </trkpt>
      <trkpt lat="43.749939808622003" lon="11.906096655875444">
        <ele>750.92999999999995</ele>
        <time>2016-06-04T07:14:02Z</time>
      </trkpt>
      <trkpt lat="43.749947687610984" lon="11.90610864199698">
        <ele>750.92999999999995</ele>
        <time>2016-06-04T07:14:03Z</time>
      </trkpt>
      <trkpt lat="43.75003544613719" lon="11.906244428828359">
        <ele>749.97000000000003</ele>
        <time>2016-06-04T07:14:16Z</time>
      </trkpt>
      <trkpt lat="43.750106524676085" lon="11.906460849568248">
        <ele>748.51999999999998</ele>
        <time>2016-06-04T07:14:31Z</time>
      </trkpt>
      <trkpt lat="43.750107446685433" lon="11.906660590320826">
        <ele>746.60000000000002</ele>
        <time>2016-06-04T07:14:44Z</time>
      </trkpt>
      <trkpt lat="43.750105099752545" lon="11.906711803749204">
        <ele>746.12</ele>
        <time>2016-06-04T07:14:57Z</time>
      </trkpt>
      <trkpt lat="43.750119265168905" lon="11.90676586702466">
        <ele>745.63999999999999</ele>
        <time>2016-06-04T07:15:08Z</time>
      </trkpt>
      <trkpt lat="43.750110296532512" lon="11.906848177313805">
        <ele>744.20000000000005</ele>
        <time>2016-06-04T07:15:20Z</time>
      </trkpt>
      <trkpt lat="43.750100322067738" lon="11.906982958316803">
        <ele>742.75999999999999</ele>
        <time>2016-06-04T07:15:31Z</time>
      </trkpt>
      <trkpt lat="43.750132927671075" lon="11.907171634957194">
        <ele>739.87</ele>
        <time>2016-06-04T07:15:44Z</time>
      </trkpt>
      <trkpt lat="43.750173831358552" lon="11.907282192260027">
        <ele>737.95000000000005</ele>
        <time>2016-06-04T07:15:53Z</time>
      </trkpt>
      <trkpt lat="43.750194953754544" lon="11.907421248033643">
        <ele>736.02999999999997</ele>
        <time>2016-06-04T07:16:03Z</time>
      </trkpt>
      <trkpt lat="43.750199479982257" lon="11.907475227490067">
        <ele>736.02999999999997</ele>
        <time>2016-06-04T07:16:13Z</time>
      </trkpt>
      <trkpt lat="43.750175256282091" lon="11.907466426491737">
        <ele>735.54999999999995</ele>
        <time>2016-06-04T07:16:23Z</time>
      </trkpt>
      <trkpt lat="43.750144075602293" lon="11.907468857243657">
        <ele>736.02999999999997</ele>
        <time>2016-06-04T07:16:36Z</time>
      </trkpt>
      <trkpt lat="43.750149859115481" lon="11.907505821436644">
        <ele>735.54999999999995</ele>
        <time>2016-06-04T07:16:50Z</time>
      </trkpt>
      <trkpt lat="43.750151703134179" lon="11.907563908025622">
        <ele>736.02999999999997</ele>
        <time>2016-06-04T07:16:53Z</time>
      </trkpt>
      <trkpt lat="43.750152541324496" lon="11.907775634899735">
        <ele>735.54999999999995</ele>
        <time>2016-06-04T07:17:07Z</time>
      </trkpt>
      <trkpt lat="43.750156480818987" lon="11.907793655991554">
        <ele>735.54999999999995</ele>
        <time>2016-06-04T07:17:08Z</time>
      </trkpt>
      <trkpt lat="43.750212891027331" lon="11.907978057861328">
        <ele>735.07000000000005</ele>
        <time>2016-06-04T07:17:20Z</time>
      </trkpt>
      <trkpt lat="43.750170897692442" lon="11.908042514696717">
        <ele>735.07000000000005</ele>
        <time>2016-06-04T07:17:25Z</time>
      </trkpt>
      <trkpt lat="43.750078110024333" lon="11.908191293478012">
        <ele>736.50999999999999</ele>
        <time>2016-06-04T07:17:38Z</time>
      </trkpt>
      <trkpt lat="43.750000325962901" lon="11.908312244340777">
        <ele>737.95000000000005</ele>
        <time>2016-06-04T07:17:49Z</time>
      </trkpt>
      <trkpt lat="43.749896893277764" lon="11.908418023958802">
        <ele>738.90999999999997</ele>
        <time>2016-06-04T07:18:00Z</time>
      </trkpt>
      <trkpt lat="43.749793712049723" lon="11.908504776656628">
        <ele>739.38999999999999</ele>
        <time>2016-06-04T07:18:10Z</time>
      </trkpt>
      <trkpt lat="43.749697236344218" lon="11.90860846079886">
        <ele>739.38999999999999</ele>
        <time>2016-06-04T07:18:21Z</time>
      </trkpt>
      <trkpt lat="43.749617272987962" lon="11.908767884597182">
        <ele>737.95000000000005</ele>
        <time>2016-06-04T07:18:33Z</time>
      </trkpt>
      <trkpt lat="43.749485341832042" lon="11.908812811598182">
        <ele>736.99000000000001</ele>
        <time>2016-06-04T07:18:43Z</time>
      </trkpt>
      <trkpt lat="43.749389117583632" lon="11.908864360302687">
        <ele>736.50999999999999</ele>
        <time>2016-06-04T07:18:54Z</time>
      </trkpt>
      <trkpt lat="43.749350812286139" lon="11.908918172121048">
        <ele>736.99000000000001</ele>
        <time>2016-06-04T07:18:59Z</time>
      </trkpt>
      <trkpt lat="43.749271938577294" lon="11.909002829343081">
        <ele>737.95000000000005</ele>
        <time>2016-06-04T07:19:09Z</time>
      </trkpt>
      <trkpt lat="43.749222317710519" lon="11.90904482267797">
        <ele>738.42999999999995</ele>
        <time>2016-06-04T07:19:14Z</time>
      </trkpt>
      <trkpt lat="43.74909876845777" lon="11.909149512648582">
        <ele>738.42999999999995</ele>
        <time>2016-06-04T07:19:25Z</time>
      </trkpt>
      <trkpt lat="43.749009920284152" lon="11.909265602007508">
        <ele>738.90999999999997</ele>
        <time>2016-06-04T07:19:37Z</time>
      </trkpt>
      <trkpt lat="43.748916881158948" lon="11.909407759085298">
        <ele>740.35000000000002</ele>
        <time>2016-06-04T07:19:50Z</time>
      </trkpt>
      <trkpt lat="43.74888813123107" lon="11.90949241630733">
        <ele>741.30999999999995</ele>
        <time>2016-06-04T07:20:02Z</time>
      </trkpt>
      <trkpt lat="43.748878911137581" lon="11.909481687471271">
        <ele>739.87</ele>
        <time>2016-06-04T07:20:11Z</time>
      </trkpt>
      <trkpt lat="43.748856447637081" lon="11.909473221749067">
        <ele>739.87</ele>
        <time>2016-06-04T07:20:32Z</time>
      </trkpt>
      <trkpt lat="43.748854855075479" lon="11.909479172900319">
        <ele>740.83000000000004</ele>
        <time>2016-06-04T07:20:45Z</time>
      </trkpt>
      <trkpt lat="43.748878911137581" lon="11.90952024422586">
        <ele>740.83000000000004</ele>
        <time>2016-06-04T07:21:01Z</time>
      </trkpt>
      <trkpt lat="43.748874049633741" lon="11.909581683576107">
        <ele>740.35000000000002</ele>
        <time>2016-06-04T07:21:14Z</time>
      </trkpt>
      <trkpt lat="43.748928867280483" lon="11.909695090726018">
        <ele>737.95000000000005</ele>
        <time>2016-06-04T07:21:26Z</time>
      </trkpt>
      <trkpt lat="43.749036071822047" lon="11.909833224490285">
        <ele>736.50999999999999</ele>
        <time>2016-06-04T07:21:38Z</time>
      </trkpt>
      <trkpt lat="43.749125506728888" lon="11.909974124282598">
        <ele>734.58000000000004</ele>
        <time>2016-06-04T07:21:50Z</time>
      </trkpt>
      <trkpt lat="43.749139755964279" lon="11.910013854503632">
        <ele>735.07000000000005</ele>
        <time>2016-06-04T07:21:54Z</time>
      </trkpt>
      <trkpt lat="43.749232459813356" lon="11.910125501453876">
        <ele>733.13999999999999</ele>
        <time>2016-06-04T07:22:05Z</time>
      </trkpt>
      <trkpt lat="43.749320553615689" lon="11.910214768722653">
        <ele>733.13999999999999</ele>
        <time>2016-06-04T07:22:16Z</time>
      </trkpt>
      <trkpt lat="43.749387441202998" lon="11.910329852253199">
        <ele>733.13999999999999</ele>
        <time>2016-06-04T07:22:26Z</time>
      </trkpt>
      <trkpt lat="43.749435972422361" lon="11.910398416221142">
        <ele>733.62</ele>
        <time>2016-06-04T07:22:32Z</time>
      </trkpt>
      <trkpt lat="43.7494598608464" lon="11.910431021824479">
        <ele>733.62</ele>
        <time>2016-06-04T07:22:35Z</time>
      </trkpt>
      <trkpt lat="43.749494226649404" lon="11.910620369017124">
        <ele>734.58000000000004</ele>
        <time>2016-06-04T07:22:48Z</time>
      </trkpt>
      <trkpt lat="43.749504452571273" lon="11.910677365958691">
        <ele>735.07000000000005</ele>
        <time>2016-06-04T07:22:52Z</time>
      </trkpt>
      <trkpt lat="43.749558683484793" lon="11.910791276022792">
        <ele>735.54999999999995</ele>
        <time>2016-06-04T07:23:04Z</time>
      </trkpt>
      <trkpt lat="43.749592546373606" lon="11.910845842212439">
        <ele>735.07000000000005</ele>
        <time>2016-06-04T07:23:15Z</time>
      </trkpt>
      <trkpt lat="43.749667648226023" lon="11.910924715921283">
        <ele>733.62</ele>
        <time>2016-06-04T07:23:25Z</time>
      </trkpt>
      <trkpt lat="43.749787760898471" lon="11.911019934341311">
        <ele>730.74000000000001</ele>
        <time>2016-06-04T07:23:37Z</time>
      </trkpt>
      <trkpt lat="43.749867221340537" lon="11.91118991933763">
        <ele>729.77999999999997</ele>
        <time>2016-06-04T07:23:49Z</time>
      </trkpt>
      <trkpt lat="43.749975599348545" lon="11.911350851878524">
        <ele>728.34000000000003</ele>
        <time>2016-06-04T07:24:01Z</time>
      </trkpt>
      <trkpt lat="43.750060759484768" lon="11.911570876836777">
        <ele>724.97000000000003</ele>
        <time>2016-06-04T07:24:16Z</time>
      </trkpt>
      <trkpt lat="43.750144159421325" lon="11.911794673651457">
        <ele>723.04999999999995</ele>
        <time>2016-06-04T07:24:29Z</time>
      </trkpt>
      <trkpt lat="43.750123037025332" lon="11.912006987258792">
        <ele>721.61000000000001</ele>
        <time>2016-06-04T07:24:41Z</time>
      </trkpt>
      <trkpt lat="43.750093532726169" lon="11.912049651145935">
        <ele>721.61000000000001</ele>
        <time>2016-06-04T07:24:45Z</time>
      </trkpt>
      <trkpt lat="43.749984987080097" lon="11.912230951711535">
        <ele>722.09000000000003</ele>
        <time>2016-06-04T07:25:00Z</time>
      </trkpt>
      <trkpt lat="43.74998071230948" lon="11.912286356091499">
        <ele>722.57000000000005</ele>
        <time>2016-06-04T07:25:04Z</time>
      </trkpt>
      <trkpt lat="43.7499416526407" lon="11.912479558959603">
        <ele>722.57000000000005</ele>
        <time>2016-06-04T07:25:16Z</time>
      </trkpt>
      <trkpt lat="43.749941317364573" lon="11.912694051861763">
        <ele>721.61000000000001</ele>
        <time>2016-06-04T07:25:29Z</time>
      </trkpt>
      <trkpt lat="43.749998146668077" lon="11.912918938323855">
        <ele>719.67999999999995</ele>
        <time>2016-06-04T07:25:43Z</time>
      </trkpt>
      <trkpt lat="43.750033266842365" lon="11.913120103999972">
        <ele>719.67999999999995</ele>
        <time>2016-06-04T07:25:55Z</time>
      </trkpt>
      <trkpt lat="43.750015078112483" lon="11.913310289382935">
        <ele>719.67999999999995</ele>
        <time>2016-06-04T07:26:08Z</time>
      </trkpt>
      <trkpt lat="43.749971156939864" lon="11.91349477507174">
        <ele>720.15999999999997</ele>
        <time>2016-06-04T07:26:22Z</time>
      </trkpt>
      <trkpt lat="43.749935617670417" lon="11.913636596873403">
        <ele>721.13</ele>
        <time>2016-06-04T07:26:34Z</time>
      </trkpt>
      <trkpt lat="43.749892367050052" lon="11.91381580196321">
        <ele>722.09000000000003</ele>
        <time>2016-06-04T07:26:48Z</time>
      </trkpt>
      <trkpt lat="43.749869149178267" lon="11.913949241861701">
        <ele>723.52999999999997</ele>
        <time>2016-06-04T07:26:59Z</time>
      </trkpt>
      <trkpt lat="43.749858839437366" lon="11.914087207987905">
        <ele>724.00999999999999</ele>
        <time>2016-06-04T07:27:09Z</time>
      </trkpt>
      <trkpt lat="43.749849703162909" lon="11.914235819131136">
        <ele>724.49000000000001</ele>
        <time>2016-06-04T07:27:20Z</time>
      </trkpt>
      <trkpt lat="43.749848529696465" lon="11.914248391985893">
        <ele>724.49000000000001</ele>
        <time>2016-06-04T07:27:21Z</time>
      </trkpt>
      <trkpt lat="43.749858839437366" lon="11.914451736956835">
        <ele>725.92999999999995</ele>
        <time>2016-06-04T07:27:34Z</time>
      </trkpt>
      <trkpt lat="43.749817349016666" lon="11.914642006158829">
        <ele>726.88999999999999</ele>
        <time>2016-06-04T07:27:47Z</time>
      </trkpt>
      <trkpt lat="43.749772338196635" lon="11.914768991991878">
        <ele>727.37</ele>
        <time>2016-06-04T07:27:56Z</time>
      </trkpt>
      <trkpt lat="43.749709473922849" lon="11.914885165169835">
        <ele>727.86000000000001</ele>
        <time>2016-06-04T07:28:06Z</time>
      </trkpt>
      <trkpt lat="43.749639401212335" lon="11.915058000013232">
        <ele>727.86000000000001</ele>
        <time>2016-06-04T07:28:18Z</time>
      </trkpt>
      <trkpt lat="43.74962062574923" lon="11.915269894525409">
        <ele>727.86000000000001</ele>
        <time>2016-06-04T07:28:30Z</time>
      </trkpt>
      <trkpt lat="43.749567316845059" lon="11.915436945855618">
        <ele>726.40999999999997</ele>
        <time>2016-06-04T07:28:43Z</time>
      </trkpt>
      <trkpt lat="43.749558515846729" lon="11.91546100191772">
        <ele>725.92999999999995</ele>
        <time>2016-06-04T07:28:45Z</time>
      </trkpt>
      <trkpt lat="43.749541416764259" lon="11.91552990116179">
        <ele>724.97000000000003</ele>
        <time>2016-06-04T07:28:50Z</time>
      </trkpt>
      <trkpt lat="43.749501435086131" lon="11.915755122900009">
        <ele>722.09000000000003</ele>
        <time>2016-06-04T07:29:03Z</time>
      </trkpt>
      <trkpt lat="43.749469248577952" lon="11.915868781507015">
        <ele>721.13</ele>
        <time>2016-06-04T07:29:10Z</time>
      </trkpt>
      <trkpt lat="43.749388195574284" lon="11.916036251932383">
        <ele>718.72000000000003</ele>
        <time>2016-06-04T07:29:23Z</time>
      </trkpt>
      <trkpt lat="43.7493269238621" lon="11.916215876117349">
        <ele>716.79999999999995</ele>
        <time>2016-06-04T07:29:35Z</time>
      </trkpt>
      <trkpt lat="43.749286774545908" lon="11.916390135884285">
        <ele>715.36000000000001</ele>
        <time>2016-06-04T07:29:46Z</time>
      </trkpt>
      <trkpt lat="43.749269172549248" lon="11.91645341925323">
        <ele>714.88</ele>
        <time>2016-06-04T07:29:50Z</time>
      </trkpt>
      <trkpt lat="43.749168170616031" lon="11.91657705232501">
        <ele>712.47000000000003</ele>
        <time>2016-06-04T07:30:02Z</time>
      </trkpt>
      <trkpt lat="43.749089632183313" lon="11.916645113378763">
        <ele>710.54999999999995</ele>
        <time>2016-06-04T07:30:10Z</time>
      </trkpt>
      <trkpt lat="43.749069096520543" lon="11.916675288230181">
        <ele>710.54999999999995</ele>
        <time>2016-06-04T07:30:19Z</time>
      </trkpt>
      <trkpt lat="43.749051997438073" lon="11.91671627573669">
        <ele>710.07000000000005</ele>
        <time>2016-06-04T07:30:35Z</time>
      </trkpt>
      <trkpt lat="43.74904059804976" lon="11.916755586862564">
        <ele>709.59000000000003</ele>
        <time>2016-06-04T07:30:45Z</time>
      </trkpt>
      <trkpt lat="43.749033976346254" lon="11.916861198842525">
        <ele>708.63</ele>
        <time>2016-06-04T07:30:51Z</time>
      </trkpt>
      <trkpt lat="43.749115448445082" lon="11.916999416425824">
        <ele>706.71000000000004</ele>
        <time>2016-06-04T07:31:02Z</time>
      </trkpt>
      <trkpt lat="43.749251235276461" lon="11.91715800203383">
        <ele>705.25999999999999</ele>
        <time>2016-06-04T07:31:16Z</time>
      </trkpt>
      <trkpt lat="43.749258108437061" lon="11.917172838002443">
        <ele>704.77999999999997</ele>
        <time>2016-06-04T07:31:17Z</time>
      </trkpt>
      <trkpt lat="43.749233968555927" lon="11.917418679222465">
        <ele>702.86000000000001</ele>
        <time>2016-06-04T07:31:32Z</time>
      </trkpt>
      <trkpt lat="43.749208906665444" lon="11.917448854073882">
        <ele>702.38</ele>
        <time>2016-06-04T07:31:35Z</time>
      </trkpt>
      <trkpt lat="43.74908602796495" lon="11.91753325983882">
        <ele>700.94000000000005</ele>
        <time>2016-06-04T07:31:46Z</time>
      </trkpt>
      <trkpt lat="43.74892920255661" lon="11.917565949261189">
        <ele>699.01999999999998</ele>
        <time>2016-06-04T07:31:59Z</time>
      </trkpt>
      <trkpt lat="43.74887203797698" lon="11.917574666440487">
        <ele>698.04999999999995</ele>
        <time>2016-06-04T07:32:03Z</time>
      </trkpt>
      <trkpt lat="43.748860638588667" lon="11.917575085535645">
        <ele>698.04999999999995</ele>
        <time>2016-06-04T07:32:04Z</time>
      </trkpt>
      <trkpt lat="43.748731892555952" lon="11.91751666367054">
        <ele>694.69000000000005</ele>
        <time>2016-06-04T07:32:16Z</time>
      </trkpt>
      <trkpt lat="43.748666262254119" lon="11.917518759146333">
        <ele>693.25</ele>
        <time>2016-06-04T07:32:22Z</time>
      </trkpt>
      <trkpt lat="43.748555369675159" lon="11.91757776774466">
        <ele>690.84000000000003</ele>
        <time>2016-06-04T07:32:32Z</time>
      </trkpt>
      <trkpt lat="43.748432993888855" lon="11.917690169066191">
        <ele>687.48000000000002</ele>
        <time>2016-06-04T07:32:44Z</time>
      </trkpt>
      <trkpt lat="43.748391838744283" lon="11.917733671143651">
        <ele>686.51999999999998</ele>
        <time>2016-06-04T07:32:48Z</time>
      </trkpt>
      <trkpt lat="43.748317994177341" lon="11.917801480740309">
        <ele>685.08000000000004</ele>
        <time>2016-06-04T07:32:55Z</time>
      </trkpt>
      <trkpt lat="43.748186901211739" lon="11.91790365613997">
        <ele>682.19000000000005</ele>
        <time>2016-06-04T07:33:08Z</time>
      </trkpt>
      <trkpt lat="43.748071063309908" lon="11.917991330847144">
        <ele>679.78999999999996</ele>
        <time>2016-06-04T07:33:19Z</time>
      </trkpt>
      <trkpt lat="43.747958997264504" lon="11.918123262003064">
        <ele>678.35000000000002</ele>
        <time>2016-06-04T07:33:30Z</time>
      </trkpt>
      <trkpt lat="43.74787081964314" lon="11.91826868802309">
        <ele>675.94000000000005</ele>
        <time>2016-06-04T07:33:41Z</time>
      </trkpt>
      <trkpt lat="43.747782558202744" lon="11.918430123478174">
        <ele>673.05999999999995</ele>
        <time>2016-06-04T07:33:54Z</time>
      </trkpt>
      <trkpt lat="43.747664708644152" lon="11.918551493436098">
        <ele>670.17999999999995</ele>
        <time>2016-06-04T07:34:06Z</time>
      </trkpt>
      <trkpt lat="43.747647190466523" lon="11.918566161766648">
        <ele>669.22000000000003</ele>
        <time>2016-06-04T07:34:08Z</time>
      </trkpt>
      <trkpt lat="43.747624810785055" lon="11.918581249192357">
        <ele>668.73000000000002</ele>
        <time>2016-06-04T07:34:11Z</time>
      </trkpt>
      <trkpt lat="43.747548200190067" lon="11.918709157034755">
        <ele>666.80999999999995</ele>
        <time>2016-06-04T07:34:23Z</time>
      </trkpt>
      <trkpt lat="43.747536800801754" lon="11.918789120391011">
        <ele>666.33000000000004</ele>
        <time>2016-06-04T07:34:33Z</time>
      </trkpt>
      <trkpt lat="43.74755079858005" lon="11.918792808428407">
        <ele>666.33000000000004</ele>
        <time>2016-06-04T07:34:46Z</time>
      </trkpt>
      <trkpt lat="43.747508469969034" lon="11.918802363798022">
        <ele>665.85000000000002</ele>
        <time>2016-06-04T07:35:01Z</time>
      </trkpt>
      <trkpt lat="43.747515175491571" lon="11.918804794549942">
        <ele>665.85000000000002</ele>
        <time>2016-06-04T07:35:31Z</time>
      </trkpt>
      <trkpt lat="43.747493382543325" lon="11.918780403211713">
        <ele>666.33000000000004</ele>
        <time>2016-06-04T07:35:55Z</time>
      </trkpt>
      <trkpt lat="43.747482402250171" lon="11.918811080977321">
        <ele>665.85000000000002</ele>
        <time>2016-06-04T07:36:20Z</time>
      </trkpt>
      <trkpt lat="43.747494053095579" lon="11.91880127415061">
        <ele>666.33000000000004</ele>
        <time>2016-06-04T07:36:49Z</time>
      </trkpt>
      <trkpt lat="43.747488521039486" lon="11.918817199766636">
        <ele>666.33000000000004</ele>
        <time>2016-06-04T07:37:18Z</time>
      </trkpt>
      <trkpt lat="43.747478043660522" lon="11.91882667131722">
        <ele>666.33000000000004</ele>
        <time>2016-06-04T07:37:43Z</time>
      </trkpt>
      <trkpt lat="43.747474690899253" lon="11.918817954137921">
        <ele>666.33000000000004</ele>
        <time>2016-06-04T07:38:11Z</time>
      </trkpt>
      <trkpt lat="43.747477876022458" lon="11.918798759579659">
        <ele>666.33000000000004</ele>
        <time>2016-06-04T07:38:29Z</time>
      </trkpt>
      <trkpt lat="43.74749606475234" lon="11.918791886419058">
        <ele>666.33000000000004</ele>
        <time>2016-06-04T07:38:49Z</time>
      </trkpt>
      <trkpt lat="43.747480642050505" lon="11.918865730985999">
        <ele>666.33000000000004</ele>
        <time>2016-06-04T07:39:11Z</time>
      </trkpt>
      <trkpt lat="43.747430769726634" lon="11.919033620506525">
        <ele>664.40999999999997</ele>
        <time>2016-06-04T07:39:25Z</time>
      </trkpt>
      <trkpt lat="43.747382489964366" lon="11.919172676280141">
        <ele>662.97000000000003</ele>
        <time>2016-06-04T07:39:36Z</time>
      </trkpt>
      <trkpt lat="43.747365726158023" lon="11.919320784509182">
        <ele>660.55999999999995</ele>
        <time>2016-06-04T07:39:47Z</time>
      </trkpt>
      <trkpt lat="43.74735189601779" lon="11.919526141136885">
        <ele>657.67999999999995</ele>
        <time>2016-06-04T07:40:02Z</time>
      </trkpt>
      <trkpt lat="43.747342256829143" lon="11.919711716473103">
        <ele>654.79999999999995</ele>
        <time>2016-06-04T07:40:15Z</time>
      </trkpt>
      <trkpt lat="43.747321553528309" lon="11.919789249077439">
        <ele>653.83000000000004</ele>
        <time>2016-06-04T07:40:21Z</time>
      </trkpt>
      <trkpt lat="43.747254917398095" lon="11.919960910454392">
        <ele>650.47000000000003</ele>
        <time>2016-06-04T07:40:35Z</time>
      </trkpt>
      <trkpt lat="43.747188281267881" lon="11.920157130807638">
        <ele>647.59000000000003</ele>
        <time>2016-06-04T07:40:49Z</time>
      </trkpt>
      <trkpt lat="43.747101863846183" lon="11.920359134674072">
        <ele>644.22000000000003</ele>
        <time>2016-06-04T07:41:04Z</time>
      </trkpt>
      <trkpt lat="43.747086776420474" lon="11.920412862673402">
        <ele>643.25999999999999</ele>
        <time>2016-06-04T07:41:10Z</time>
      </trkpt>
      <trkpt lat="43.747091218829155" lon="11.920471535995603">
        <ele>642.29999999999995</ele>
        <time>2016-06-04T07:41:14Z</time>
      </trkpt>
      <trkpt lat="43.747074035927653" lon="11.920544039458036">
        <ele>641.34000000000003</ele>
        <time>2016-06-04T07:41:25Z</time>
      </trkpt>
      <trkpt lat="43.747077388688922" lon="11.920582512393594">
        <ele>640.86000000000001</ele>
        <time>2016-06-04T07:41:35Z</time>
      </trkpt>
      <trkpt lat="43.747104126960039" lon="11.920652333647013">
        <ele>638.45000000000005</ele>
        <time>2016-06-04T07:41:44Z</time>
      </trkpt>
      <trkpt lat="43.747125249356031" lon="11.920735565945506">
        <ele>636.04999999999995</ele>
        <time>2016-06-04T07:41:57Z</time>
      </trkpt>
      <trkpt lat="43.747127512469888" lon="11.920830365270376">
        <ele>633.64999999999998</ele>
        <time>2016-06-04T07:42:10Z</time>
      </trkpt>
      <trkpt lat="43.747082836925983" lon="11.920930277556181">
        <ele>631.24000000000001</ele>
        <time>2016-06-04T07:42:22Z</time>
      </trkpt>
      <trkpt lat="43.747039083391428" lon="11.921044187620282">
        <ele>628.84000000000003</ele>
        <time>2016-06-04T07:42:36Z</time>
      </trkpt>
      <trkpt lat="43.746993988752365" lon="11.921143010258675">
        <ele>626.44000000000005</ele>
        <time>2016-06-04T07:42:47Z</time>
      </trkpt>
      <trkpt lat="43.746992731466889" lon="11.921172849833965">
        <ele>625.96000000000004</ele>
        <time>2016-06-04T07:42:52Z</time>
      </trkpt>
      <trkpt lat="43.746996922418475" lon="11.921210903674364">
        <ele>624.99000000000001</ele>
        <time>2016-06-04T07:42:55Z</time>
      </trkpt>
      <trkpt lat="43.746967753395438" lon="11.921400083228946">
        <ele>622.11000000000001</ele>
        <time>2016-06-04T07:43:09Z</time>
      </trkpt>
      <trkpt lat="43.746936991810799" lon="11.921483231708407">
        <ele>620.19000000000005</ele>
        <time>2016-06-04T07:43:20Z</time>
      </trkpt>
      <trkpt lat="43.7468730378896" lon="11.921635866165161">
        <ele>617.29999999999995</ele>
        <time>2016-06-04T07:43:34Z</time>
      </trkpt>
      <trkpt lat="43.746817633509636" lon="11.921740975230932">
        <ele>616.34000000000003</ele>
        <time>2016-06-04T07:43:45Z</time>
      </trkpt>
      <trkpt lat="43.746726689860225" lon="11.921835606917739">
        <ele>614.41999999999996</ele>
        <time>2016-06-04T07:43:58Z</time>
      </trkpt>
      <trkpt lat="43.746674638241529" lon="11.921914480626583">
        <ele>612.01999999999998</ele>
        <time>2016-06-04T07:44:09Z</time>
      </trkpt>
      <trkpt lat="43.746602386236191" lon="11.922001149505377">
        <ele>608.64999999999998</ele>
        <time>2016-06-04T07:44:19Z</time>
      </trkpt>
      <trkpt lat="43.746550166979432" lon="11.922087986022234">
        <ele>607.21000000000004</ele>
        <time>2016-06-04T07:44:28Z</time>
      </trkpt>
      <trkpt lat="43.746435837820172" lon="11.922140121459961">
        <ele>604.80999999999995</ele>
        <time>2016-06-04T07:44:41Z</time>
      </trkpt>
      <trkpt lat="43.746487805619836" lon="11.922203069552779">
        <ele>603.36000000000001</ele>
        <time>2016-06-04T07:44:52Z</time>
      </trkpt>
      <trkpt lat="43.746549412608147" lon="11.922232657670975">
        <ele>601.91999999999996</ele>
        <time>2016-06-04T07:45:03Z</time>
      </trkpt>
      <trkpt lat="43.746561398729682" lon="11.922229807823896">
        <ele>601.91999999999996</ele>
        <time>2016-06-04T07:45:26Z</time>
      </trkpt>
      <trkpt lat="43.746582353487611" lon="11.922234166413546">
        <ele>601.91999999999996</ele>
        <time>2016-06-04T07:45:46Z</time>
      </trkpt>
      <trkpt lat="43.746617389842868" lon="11.922225868329406">
        <ele>600</ele>
        <time>2016-06-04T07:45:58Z</time>
      </trkpt>
      <trkpt lat="43.746682265773416" lon="11.922272387892008">
        <ele>597.60000000000002</ele>
        <time>2016-06-04T07:46:10Z</time>
      </trkpt>
      <trkpt lat="43.746599787846208" lon="11.922377496957779">
        <ele>595.19000000000005</ele>
        <time>2016-06-04T07:46:22Z</time>
      </trkpt>
      <trkpt lat="43.746526530012488" lon="11.922454107552767">
        <ele>591.83000000000004</ele>
        <time>2016-06-04T07:46:36Z</time>
      </trkpt>
      <trkpt lat="43.746479256078601" lon="11.922527365386486">
        <ele>589.42999999999995</ele>
        <time>2016-06-04T07:46:48Z</time>
      </trkpt>
      <trkpt lat="43.746463749557734" lon="11.922594336792827">
        <ele>587.5</ele>
        <time>2016-06-04T07:46:57Z</time>
      </trkpt>
      <trkpt lat="43.746436256915331" lon="11.922650914639235">
        <ele>585.10000000000002</ele>
        <time>2016-06-04T07:47:08Z</time>
      </trkpt>
      <trkpt lat="43.746456289663911" lon="11.922725345939398">
        <ele>582.22000000000003</ele>
        <time>2016-06-04T07:47:20Z</time>
      </trkpt>
      <trkpt lat="43.746482441201806" lon="11.922737415879965">
        <ele>581.25</ele>
        <time>2016-06-04T07:47:34Z</time>
      </trkpt>
      <trkpt lat="43.746494678780437" lon="11.922753257676959">
        <ele>581.73000000000002</ele>
        <time>2016-06-04T07:47:49Z</time>
      </trkpt>
      <trkpt lat="43.746489398181438" lon="11.922768093645573">
        <ele>581.25</ele>
        <time>2016-06-04T07:48:05Z</time>
      </trkpt>
      <trkpt lat="43.746526027098298" lon="11.922772116959095">
        <ele>581.25</ele>
        <time>2016-06-04T07:48:33Z</time>
      </trkpt>
      <trkpt lat="43.746507335454226" lon="11.922764740884304">
        <ele>581.25</ele>
        <time>2016-06-04T07:48:50Z</time>
      </trkpt>
      <trkpt lat="43.746491661295295" lon="11.92276993766427">
        <ele>581.25</ele>
        <time>2016-06-04T07:49:16Z</time>
      </trkpt>
      <trkpt lat="43.746484955772758" lon="11.922768261283636">
        <ele>581.25</ele>
        <time>2016-06-04T07:49:33Z</time>
      </trkpt>
      <trkpt lat="43.746488057076931" lon="11.922716042026877">
        <ele>581.25</ele>
        <time>2016-06-04T07:49:56Z</time>
      </trkpt>
      <trkpt lat="43.746478669345379" lon="11.92278653383255">
        <ele>581.25</ele>
        <time>2016-06-04T07:50:17Z</time>
      </trkpt>
      <trkpt lat="43.746487302705646" lon="11.922784019261599">
        <ele>581.25</ele>
        <time>2016-06-04T07:50:35Z</time>
      </trkpt>
      <trkpt lat="43.746534660458565" lon="11.922812182456255">
        <ele>579.80999999999995</ele>
        <time>2016-06-04T07:50:47Z</time>
      </trkpt>
      <trkpt lat="43.746611773967743" lon="11.9228530023247">
        <ele>577.88999999999999</ele>
        <time>2016-06-04T07:50:59Z</time>
      </trkpt>
      <trkpt lat="43.746746638789773" lon="11.922876471653581">
        <ele>575.49000000000001</ele>
        <time>2016-06-04T07:51:15Z</time>
      </trkpt>
      <trkpt lat="43.74682517722249" lon="11.922876387834549">
        <ele>573.08000000000004</ele>
        <time>2016-06-04T07:51:28Z</time>
      </trkpt>
      <trkpt lat="43.746879072859883" lon="11.922899018973112">
        <ele>571.15999999999997</ele>
        <time>2016-06-04T07:51:40Z</time>
      </trkpt>
      <trkpt lat="43.7469282746315" lon="11.922937072813511">
        <ele>569.24000000000001</ele>
        <time>2016-06-04T07:51:52Z</time>
      </trkpt>
      <trkpt lat="43.746991138905287" lon="11.92295853048563">
        <ele>567.32000000000005</ele>
        <time>2016-06-04T07:52:02Z</time>
      </trkpt>
      <trkpt lat="43.74705383554101" lon="11.922955932095647">
        <ele>565.38999999999999</ele>
        <time>2016-06-04T07:52:14Z</time>
      </trkpt>
      <trkpt lat="43.747119549661875" lon="11.922939587384462">
        <ele>562.99000000000001</ele>
        <time>2016-06-04T07:52:26Z</time>
      </trkpt>
      <trkpt lat="43.747148551046848" lon="11.922974037006497">
        <ele>562.02999999999997</ele>
        <time>2016-06-04T07:52:38Z</time>
      </trkpt>
      <trkpt lat="43.747143018990755" lon="11.923003373667598">
        <ele>562.02999999999997</ele>
        <time>2016-06-04T07:52:52Z</time>
      </trkpt>
      <trkpt lat="43.747113849967718" lon="11.923059783875942">
        <ele>562.02999999999997</ele>
        <time>2016-06-04T07:53:08Z</time>
      </trkpt>
      <trkpt lat="43.747022822499275" lon="11.92309875972569">
        <ele>561.07000000000005</ele>
        <time>2016-06-04T07:53:16Z</time>
      </trkpt>
      <trkpt lat="43.746902626007795" lon="11.923178303986788">
        <ele>558.65999999999997</ele>
        <time>2016-06-04T07:53:28Z</time>
      </trkpt>
      <trkpt lat="43.746770359575748" lon="11.923275114968419">
        <ele>556.25999999999999</ele>
        <time>2016-06-04T07:53:42Z</time>
      </trkpt>
      <trkpt lat="43.74667514115572" lon="11.923318197950721">
        <ele>554.82000000000005</ele>
        <time>2016-06-04T07:53:52Z</time>
      </trkpt>
      <trkpt lat="43.746583359315991" lon="11.923322137445211">
        <ele>553.38</ele>
        <time>2016-06-04T07:54:03Z</time>
      </trkpt>
      <trkpt lat="43.746559051796794" lon="11.923380056396127">
        <ele>551.45000000000005</ele>
        <time>2016-06-04T07:54:12Z</time>
      </trkpt>
      <trkpt lat="43.746599201112986" lon="11.923396904021502">
        <ele>551.45000000000005</ele>
        <time>2016-06-04T07:54:16Z</time>
      </trkpt>
      <trkpt lat="43.746682265773416" lon="11.923382403329015">
        <ele>551.45000000000005</ele>
        <time>2016-06-04T07:54:24Z</time>
      </trkpt>
      <trkpt lat="43.746810760349035" lon="11.923348205164075">
        <ele>551.45000000000005</ele>
        <time>2016-06-04T07:54:38Z</time>
      </trkpt>
      <trkpt lat="43.746927687898278" lon="11.923304367810488">
        <ele>550.97000000000003</ele>
        <time>2016-06-04T07:54:50Z</time>
      </trkpt>
      <trkpt lat="43.746960125863552" lon="11.923299003392458">
        <ele>550.97000000000003</ele>
        <time>2016-06-04T07:54:53Z</time>
      </trkpt>
      <trkpt lat="43.747029779478908" lon="11.92332842387259">
        <ele>550.97000000000003</ele>
        <time>2016-06-04T07:54:58Z</time>
      </trkpt>
      <trkpt lat="43.74709733761847" lon="11.923584910109639">
        <ele>550.97000000000003</ele>
        <time>2016-06-04T07:55:14Z</time>
      </trkpt>
      <trkpt lat="43.747117035090923" lon="11.92382781766355">
        <ele>549.52999999999997</ele>
        <time>2016-06-04T07:55:30Z</time>
      </trkpt>
      <trkpt lat="43.747049393132329" lon="11.92395974881947">
        <ele>548.57000000000005</ele>
        <time>2016-06-04T07:55:41Z</time>
      </trkpt>
      <trkpt lat="43.746936907991767" lon="11.92395924590528">
        <ele>547.61000000000001</ele>
        <time>2016-06-04T07:55:51Z</time>
      </trkpt>
      <trkpt lat="43.746885778382421" lon="11.923935441300273">
        <ele>547.61000000000001</ele>
        <time>2016-06-04T07:56:02Z</time>
      </trkpt>
      <trkpt lat="43.746905559673905" lon="11.923927562311292">
        <ele>547.13</ele>
        <time>2016-06-04T07:56:11Z</time>
      </trkpt>
      <trkpt lat="43.746906733140349" lon="11.923927143216133">
        <ele>546.64999999999998</ele>
        <time>2016-06-04T07:56:25Z</time>
      </trkpt>
      <trkpt lat="43.746914947405457" lon="11.923930495977402">
        <ele>546.64999999999998</ele>
        <time>2016-06-04T07:56:47Z</time>
      </trkpt>
      <trkpt lat="43.74689944088459" lon="11.92394457757473">
        <ele>546.64999999999998</ele>
        <time>2016-06-04T07:57:15Z</time>
      </trkpt>
      <trkpt lat="43.746930453926325" lon="11.923970812931657">
        <ele>546.64999999999998</ele>
        <time>2016-06-04T07:57:40Z</time>
      </trkpt>
      <trkpt lat="43.746907655149698" lon="11.923969471827149">
        <ele>547.13</ele>
        <time>2016-06-04T07:58:04Z</time>
      </trkpt>
      <trkpt lat="43.746905140578747" lon="11.923949103802443">
        <ele>547.13</ele>
        <time>2016-06-04T07:58:22Z</time>
      </trkpt>
      <trkpt lat="43.746905811131001" lon="11.923957820981741">
        <ele>547.13</ele>
        <time>2016-06-04T07:58:42Z</time>
      </trkpt>
      <trkpt lat="43.746932130306959" lon="11.923961089923978">
        <ele>547.13</ele>
        <time>2016-06-04T07:59:00Z</time>
      </trkpt>
      <trkpt lat="43.746940093114972" lon="11.923996042460203">
        <ele>547.61000000000001</ele>
        <time>2016-06-04T07:59:19Z</time>
      </trkpt>
      <trkpt lat="43.746942020952702" lon="11.92401054315269">
        <ele>547.61000000000001</ele>
        <time>2016-06-04T07:59:43Z</time>
      </trkpt>
      <trkpt lat="43.746952330693603" lon="11.92402127198875">
        <ele>547.61000000000001</ele>
        <time>2016-06-04T08:00:03Z</time>
      </trkpt>
      <trkpt lat="43.746955012902617" lon="11.924033677205443">
        <ele>548.09000000000003</ele>
        <time>2016-06-04T08:00:19Z</time>
      </trkpt>
      <trkpt lat="43.74697370454669" lon="11.924023199826479">
        <ele>548.09000000000003</ele>
        <time>2016-06-04T08:00:42Z</time>
      </trkpt>
      <trkpt lat="43.746941350400448" lon="11.924016578122973">
        <ele>548.09000000000003</ele>
        <time>2016-06-04T08:01:04Z</time>
      </trkpt>
      <trkpt lat="43.746921988204122" lon="11.923992857336998">
        <ele>548.57000000000005</ele>
        <time>2016-06-04T08:01:26Z</time>
      </trkpt>
      <trkpt lat="43.746939254924655" lon="11.924001574516296">
        <ele>548.57000000000005</ele>
        <time>2016-06-04T08:01:45Z</time>
      </trkpt>
      <trkpt lat="43.746898015961051" lon="11.923970393836498">
        <ele>548.57000000000005</ele>
        <time>2016-06-04T08:02:04Z</time>
      </trkpt>
      <trkpt lat="43.746882174164057" lon="11.923941811546683">
        <ele>549.04999999999995</ele>
        <time>2016-06-04T08:02:26Z</time>
      </trkpt>
      <trkpt lat="43.746877480298281" lon="11.923926472663879">
        <ele>549.04999999999995</ele>
        <time>2016-06-04T08:02:46Z</time>
      </trkpt>
      <trkpt lat="43.746853759512305" lon="11.92391918040812">
        <ele>549.52999999999997</ele>
        <time>2016-06-04T08:03:03Z</time>
      </trkpt>
      <trkpt lat="43.74687697738409" lon="11.923925383016467">
        <ele>549.52999999999997</ele>
        <time>2016-06-04T08:03:21Z</time>
      </trkpt>
      <trkpt lat="43.746897513046861" lon="11.923974752426147">
        <ele>549.52999999999997</ele>
        <time>2016-06-04T08:03:45Z</time>
      </trkpt>
      <trkpt lat="43.746923329308629" lon="11.923986067995429">
        <ele>549.52999999999997</ele>
        <time>2016-06-04T08:04:09Z</time>
      </trkpt>
      <trkpt lat="43.746952163055539" lon="11.92398221231997">
        <ele>549.52999999999997</ele>
        <time>2016-06-04T08:04:32Z</time>
      </trkpt>
      <trkpt lat="43.746964149177074" lon="11.923999227583408">
        <ele>550.00999999999999</ele>
        <time>2016-06-04T08:04:49Z</time>
      </trkpt>
      <trkpt lat="43.74699030071497" lon="11.924022948369384">
        <ele>550.00999999999999</ele>
        <time>2016-06-04T08:05:10Z</time>
      </trkpt>
      <trkpt lat="43.747013350948691" lon="11.924012554809451">
        <ele>550.00999999999999</ele>
        <time>2016-06-04T08:05:29Z</time>
      </trkpt>
      <trkpt lat="43.747027851641178" lon="11.924013560637832">
        <ele>550.49000000000001</ele>
        <time>2016-06-04T08:05:45Z</time>
      </trkpt>
      <trkpt lat="43.747006393969059" lon="11.924022361636162">
        <ele>550.49000000000001</ele>
        <time>2016-06-04T08:06:00Z</time>
      </trkpt>
      <trkpt lat="43.746992731466889" lon="11.924053961411119">
        <ele>550.49000000000001</ele>
        <time>2016-06-04T08:06:16Z</time>
      </trkpt>
      <trkpt lat="43.747002705931664" lon="11.924064438790083">
        <ele>550.49000000000001</ele>
        <time>2016-06-04T08:06:36Z</time>
      </trkpt>
      <trkpt lat="43.747023744508624" lon="11.924089584499598">
        <ele>550.97000000000003</ele>
        <time>2016-06-04T08:06:50Z</time>
      </trkpt>
      <trkpt lat="43.747046208009124" lon="11.92409167997539">
        <ele>551.45000000000005</ele>
        <time>2016-06-04T08:07:17Z</time>
      </trkpt>
      <trkpt lat="43.747029695659876" lon="11.92409654147923">
        <ele>551.92999999999995</ele>
        <time>2016-06-04T08:07:39Z</time>
      </trkpt>
      <trkpt lat="43.747015697881579" lon="11.924071395769715">
        <ele>551.92999999999995</ele>
        <time>2016-06-04T08:08:05Z</time>
      </trkpt>
      <trkpt lat="43.74699030071497" lon="11.924054799601436">
        <ele>552.40999999999997</ele>
        <time>2016-06-04T08:08:27Z</time>
      </trkpt>
      <trkpt lat="43.746961299329996" lon="11.92405697889626">
        <ele>552.89999999999998</ele>
        <time>2016-06-04T08:08:57Z</time>
      </trkpt>
      <trkpt lat="43.746990887448192" lon="11.92405697889626">
        <ele>553.38</ele>
        <time>2016-06-04T08:09:18Z</time>
      </trkpt>
      <trkpt lat="43.746981667354703" lon="11.92401054315269">
        <ele>553.38</ele>
        <time>2016-06-04T08:09:46Z</time>
      </trkpt>
      <trkpt lat="43.74700496904552" lon="11.924029989168048">
        <ele>553.86000000000001</ele>
        <time>2016-06-04T08:10:18Z</time>
      </trkpt>
      <trkpt lat="43.746997006237507" lon="11.924017500132322">
        <ele>553.86000000000001</ele>
        <time>2016-06-04T08:10:49Z</time>
      </trkpt>
      <trkpt lat="43.747015697881579" lon="11.924052285030484">
        <ele>554.34000000000003</ele>
        <time>2016-06-04T08:11:15Z</time>
      </trkpt>
      <trkpt lat="43.747014608234167" lon="11.924075502902269">
        <ele>554.82000000000005</ele>
        <time>2016-06-04T08:11:42Z</time>
      </trkpt>
      <trkpt lat="43.747009830549359" lon="11.924102827906609">
        <ele>555.29999999999995</ele>
        <time>2016-06-04T08:12:09Z</time>
      </trkpt>
      <trkpt lat="43.746993150562048" lon="11.924122776836157">
        <ele>555.77999999999997</ele>
        <time>2016-06-04T08:12:34Z</time>
      </trkpt>
      <trkpt lat="43.746997257694602" lon="11.92411070689559">
        <ele>556.25999999999999</ele>
        <time>2016-06-04T08:12:57Z</time>
      </trkpt>
      <trkpt lat="43.746974291279912" lon="11.924115316942334">
        <ele>556.74000000000001</ele>
        <time>2016-06-04T08:13:28Z</time>
      </trkpt>
      <trkpt lat="43.746960880234838" lon="11.924134930595756">
        <ele>557.22000000000003</ele>
        <time>2016-06-04T08:13:54Z</time>
      </trkpt>
      <trkpt lat="43.746959203854203" lon="11.924140462651849">
        <ele>557.70000000000005</ele>
        <time>2016-06-04T08:14:26Z</time>
      </trkpt>
      <trkpt lat="43.746972950175405" lon="11.924148425459862">
        <ele>558.17999999999995</ele>
        <time>2016-06-04T08:14:49Z</time>
      </trkpt>
      <trkpt lat="43.746988791972399" lon="11.924147419631481">
        <ele>558.65999999999997</ele>
        <time>2016-06-04T08:15:10Z</time>
      </trkpt>
      <trkpt lat="43.747009914368391" lon="11.924185305833817">
        <ele>559.13999999999999</ele>
        <time>2016-06-04T08:15:39Z</time>
      </trkpt>
      <trkpt lat="43.747029695659876" lon="11.924124956130981">
        <ele>560.11000000000001</ele>
        <time>2016-06-04T08:16:07Z</time>
      </trkpt>
      <trkpt lat="43.746999939903617" lon="11.924053961411119">
        <ele>560.59000000000003</ele>
        <time>2016-06-04T08:16:36Z</time>
      </trkpt>
      <trkpt lat="43.746971692889929" lon="11.923969639465213">
        <ele>560.59000000000003</ele>
        <time>2016-06-04T08:17:01Z</time>
      </trkpt>
      <trkpt lat="43.746944200247526" lon="11.923981038853526">
        <ele>560.59000000000003</ele>
        <time>2016-06-04T08:17:35Z</time>
      </trkpt>
      <trkpt lat="43.746941769495606" lon="11.924006436020136">
        <ele>560.59000000000003</ele>
        <time>2016-06-04T08:18:00Z</time>
      </trkpt>
      <trkpt lat="43.746960125863552" lon="11.924013141542673">
        <ele>561.07000000000005</ele>
        <time>2016-06-04T08:18:33Z</time>
      </trkpt>
      <trkpt lat="43.746973620727658" lon="11.924014650285244">
        <ele>561.07000000000005</ele>
        <time>2016-06-04T08:18:56Z</time>
      </trkpt>
      <trkpt lat="43.746956856921315" lon="11.924003669992089">
        <ele>561.07000000000005</ele>
        <time>2016-06-04T08:19:29Z</time>
      </trkpt>
      <trkpt lat="43.746974375098944" lon="11.924006938934326">
        <ele>561.07000000000005</ele>
        <time>2016-06-04T08:19:58Z</time>
      </trkpt>
      <trkpt lat="43.746976805850863" lon="11.924006519839168">
        <ele>561.54999999999995</ele>
        <time>2016-06-04T08:20:26Z</time>
      </trkpt>
      <trkpt lat="43.746967585757375" lon="11.923998221755028">
        <ele>561.54999999999995</ele>
        <time>2016-06-04T08:20:51Z</time>
      </trkpt>
      <trkpt lat="43.746969513595104" lon="11.924005849286914">
        <ele>561.54999999999995</ele>
        <time>2016-06-04T08:21:20Z</time>
      </trkpt>
      <trkpt lat="43.746970435604453" lon="11.924007944762707">
        <ele>561.54999999999995</ele>
        <time>2016-06-04T08:21:52Z</time>
      </trkpt>
      <trkpt lat="43.746932130306959" lon="11.924002831801772">
        <ele>561.54999999999995</ele>
        <time>2016-06-04T08:22:16Z</time>
      </trkpt>
      <trkpt lat="43.746942020952702" lon="11.923958491533995">
        <ele>561.54999999999995</ele>
        <time>2016-06-04T08:22:43Z</time>
      </trkpt>
      <trkpt lat="43.746936991810799" lon="11.923960251733661">
        <ele>561.54999999999995</ele>
        <time>2016-06-04T08:23:05Z</time>
      </trkpt>
      <trkpt lat="43.746931962668896" lon="11.923971734941006">
        <ele>561.54999999999995</ele>
        <time>2016-06-04T08:23:21Z</time>
      </trkpt>
      <trkpt lat="43.746930789202452" lon="11.9239616766572">
        <ele>561.54999999999995</ele>
        <time>2016-06-04T08:23:49Z</time>
      </trkpt>
      <trkpt lat="43.746944619342685" lon="11.923936866223812">
        <ele>561.54999999999995</ele>
        <time>2016-06-04T08:24:22Z</time>
      </trkpt>
      <trkpt lat="43.746932465583086" lon="11.92395287565887">
        <ele>561.07000000000005</ele>
        <time>2016-06-04T08:24:43Z</time>
      </trkpt>
      <trkpt lat="43.746911929920316" lon="11.923949439078569">
        <ele>562.02999999999997</ele>
        <time>2016-06-04T08:24:53Z</time>
      </trkpt>
      <trkpt lat="43.746935650706291" lon="11.923937788233161">
        <ele>562.02999999999997</ele>
        <time>2016-06-04T08:25:06Z</time>
      </trkpt>
      <trkpt lat="43.746937662363052" lon="11.92394214682281">
        <ele>562.02999999999997</ele>
        <time>2016-06-04T08:25:16Z</time>
      </trkpt>
      <trkpt lat="43.746913438662887" lon="11.923966454342008">
        <ele>562.02999999999997</ele>
        <time>2016-06-04T08:25:37Z</time>
      </trkpt>
      <trkpt lat="43.746922994032502" lon="11.923971483483911">
        <ele>562.02999999999997</ele>
        <time>2016-06-04T08:25:39Z</time>
      </trkpt>
      <trkpt lat="43.746900614351034" lon="11.924004508182406">
        <ele>561.54999999999995</ele>
        <time>2016-06-04T08:25:46Z</time>
      </trkpt>
      <trkpt lat="43.746859040111303" lon="11.923998976126313">
        <ele>561.54999999999995</ele>
        <time>2016-06-04T08:25:50Z</time>
      </trkpt>
      <trkpt lat="43.746788213029504" lon="11.924021523445845">
        <ele>561.07000000000005</ele>
        <time>2016-06-04T08:26:01Z</time>
      </trkpt>
      <trkpt lat="43.746621161699295" lon="11.923998054116964">
        <ele>560.11000000000001</ele>
        <time>2016-06-04T08:26:15Z</time>
      </trkpt>
      <trkpt lat="43.746465425938368" lon="11.923988582566381">
        <ele>559.13999999999999</ele>
        <time>2016-06-04T08:26:28Z</time>
      </trkpt>
      <trkpt lat="43.746317904442549" lon="11.923997970297933">
        <ele>559.13999999999999</ele>
        <time>2016-06-04T08:26:41Z</time>
      </trkpt>
      <trkpt lat="43.746192343533039" lon="11.92402177490294">
        <ele>558.65999999999997</ele>
        <time>2016-06-04T08:26:52Z</time>
      </trkpt>
      <trkpt lat="43.746058652177453" lon="11.924094278365374">
        <ele>558.65999999999997</ele>
        <time>2016-06-04T08:27:05Z</time>
      </trkpt>
      <trkpt lat="43.745920350775123" lon="11.924245320260525">
        <ele>558.65999999999997</ele>
        <time>2016-06-04T08:27:19Z</time>
      </trkpt>
      <trkpt lat="43.745847260579467" lon="11.924426537007093">
        <ele>558.65999999999997</ele>
        <time>2016-06-04T08:27:32Z</time>
      </trkpt>
      <trkpt lat="43.745826641097665" lon="11.924446234479547">
        <ele>558.17999999999995</ele>
        <time>2016-06-04T08:27:44Z</time>
      </trkpt>
      <trkpt lat="43.74582932330668" lon="11.924458052963018">
        <ele>558.17999999999995</ele>
        <time>2016-06-04T08:27:53Z</time>
      </trkpt>
      <trkpt lat="43.745828317478299" lon="11.924711270257831">
        <ele>559.13999999999999</ele>
        <time>2016-06-04T08:28:08Z</time>
      </trkpt>
      <trkpt lat="43.745813397690654" lon="11.924934312701225">
        <ele>559.13999999999999</ele>
        <time>2016-06-04T08:28:21Z</time>
      </trkpt>
      <trkpt lat="43.745810966938734" lon="11.925197504460812">
        <ele>558.65999999999997</ele>
        <time>2016-06-04T08:28:36Z</time>
      </trkpt>
      <trkpt lat="43.74580149538815" lon="11.925446949899197">
        <ele>559.13999999999999</ele>
        <time>2016-06-04T08:28:51Z</time>
      </trkpt>
      <trkpt lat="43.745807865634561" lon="11.925669321790338">
        <ele>559.62</ele>
        <time>2016-06-04T08:29:04Z</time>
      </trkpt>
      <trkpt lat="43.745795460417867" lon="11.925980458036065">
        <ele>560.11000000000001</ele>
        <time>2016-06-04T08:29:21Z</time>
      </trkpt>
      <trkpt lat="43.745759334415197" lon="11.926085567101836">
        <ele>560.11000000000001</ele>
        <time>2016-06-04T08:29:31Z</time>
      </trkpt>
      <trkpt lat="43.745769811794162" lon="11.926056146621704">
        <ele>559.62</ele>
        <time>2016-06-04T08:29:42Z</time>
      </trkpt>
      <trkpt lat="43.74574676156044" lon="11.92608380690217">
        <ele>558.65999999999997</ele>
        <time>2016-06-04T08:29:47Z</time>
      </trkpt>
      <trkpt lat="43.745621703565121" lon="11.926121022552252">
        <ele>556.25999999999999</ele>
        <time>2016-06-04T08:30:00Z</time>
      </trkpt>
      <trkpt lat="43.745575686916709" lon="11.926102750003338">
        <ele>555.29999999999995</ele>
        <time>2016-06-04T08:30:12Z</time>
      </trkpt>
      <trkpt lat="43.745573339983821" lon="11.926047680899501">
        <ele>555.29999999999995</ele>
        <time>2016-06-04T08:30:32Z</time>
      </trkpt>
      <trkpt lat="43.745575854554772" lon="11.926033431664109">
        <ele>555.29999999999995</ele>
        <time>2016-06-04T08:30:46Z</time>
      </trkpt>
      <trkpt lat="43.745566215366125" lon="11.926044747233391">
        <ele>554.82000000000005</ele>
        <time>2016-06-04T08:31:04Z</time>
      </trkpt>
      <trkpt lat="43.745590941980481" lon="11.926050027832389">
        <ele>554.82000000000005</ele>
        <time>2016-06-04T08:31:18Z</time>
      </trkpt>
      <trkpt lat="43.745578536763787" lon="11.926069976761937">
        <ele>554.82000000000005</ele>
        <time>2016-06-04T08:31:27Z</time>
      </trkpt>
      <trkpt lat="43.745564958080649" lon="11.926097888499498">
        <ele>554.34000000000003</ele>
        <time>2016-06-04T08:31:39Z</time>
      </trkpt>
      <trkpt lat="43.745575938373804" lon="11.926116412505507">
        <ele>554.34000000000003</ele>
        <time>2016-06-04T08:31:58Z</time>
      </trkpt>
      <trkpt lat="43.745556073263288" lon="11.92612144164741">
        <ele>554.34000000000003</ele>
        <time>2016-06-04T08:32:11Z</time>
      </trkpt>
      <trkpt lat="43.745542326942086" lon="11.926149101927876">
        <ele>554.82000000000005</ele>
        <time>2016-06-04T08:32:22Z</time>
      </trkpt>
      <trkpt lat="43.745549200102687" lon="11.926103588193655">
        <ele>554.82000000000005</ele>
        <time>2016-06-04T08:32:32Z</time>
      </trkpt>
      <trkpt lat="43.745575100183487" lon="11.926044998690486">
        <ele>554.34000000000003</ele>
        <time>2016-06-04T08:32:46Z</time>
      </trkpt>
      <trkpt lat="43.745536291971803" lon="11.926079615950584">
        <ele>554.82000000000005</ele>
        <time>2016-06-04T08:32:59Z</time>
      </trkpt>
      <trkpt lat="43.745418777689338" lon="11.926093110814691">
        <ele>555.77999999999997</ele>
        <time>2016-06-04T08:33:12Z</time>
      </trkpt>
      <trkpt lat="43.745332527905703" lon="11.926137367263436">
        <ele>555.77999999999997</ele>
        <time>2016-06-04T08:33:19Z</time>
      </trkpt>
      <trkpt lat="43.745302185416222" lon="11.926156729459763">
        <ele>556.25999999999999</ele>
        <time>2016-06-04T08:33:22Z</time>
      </trkpt>
      <trkpt lat="43.74519850127399" lon="11.926170475780964">
        <ele>557.22000000000003</ele>
        <time>2016-06-04T08:33:31Z</time>
      </trkpt>
      <trkpt lat="43.745079729706049" lon="11.926132254302502">
        <ele>558.17999999999995</ele>
        <time>2016-06-04T08:33:43Z</time>
      </trkpt>
      <trkpt lat="43.745050560683012" lon="11.926023624837399">
        <ele>557.70000000000005</ele>
        <time>2016-06-04T08:33:55Z</time>
      </trkpt>
      <trkpt lat="43.745033293962479" lon="11.925912480801344">
        <ele>558.17999999999995</ele>
        <time>2016-06-04T08:34:04Z</time>
      </trkpt>
      <trkpt lat="43.744975626468658" lon="11.925750374794006">
        <ele>559.13999999999999</ele>
        <time>2016-06-04T08:34:15Z</time>
      </trkpt>
      <trkpt lat="43.744894238188863" lon="11.92565037868917">
        <ele>561.54999999999995</ele>
        <time>2016-06-04T08:34:26Z</time>
      </trkpt>
      <trkpt lat="43.744836989790201" lon="11.925570415332913">
        <ele>563.47000000000003</ele>
        <time>2016-06-04T08:34:37Z</time>
      </trkpt>
      <trkpt lat="43.744777226820588" lon="11.925487015396357">
        <ele>565.87</ele>
        <time>2016-06-04T08:34:49Z</time>
      </trkpt>
      <trkpt lat="43.744743699207902" lon="11.925406213849783">
        <ele>567.79999999999995</ele>
        <time>2016-06-04T08:35:00Z</time>
      </trkpt>
      <trkpt lat="43.74469424597919" lon="11.925340835005045">
        <ele>569.72000000000003</ele>
        <time>2016-06-04T08:35:09Z</time>
      </trkpt>
      <trkpt lat="43.744612438604236" lon="11.925268331542611">
        <ele>572.12</ele>
        <time>2016-06-04T08:35:23Z</time>
      </trkpt>
      <trkpt lat="43.744516298174858" lon="11.925217285752296">
        <ele>573.55999999999995</ele>
        <time>2016-06-04T08:35:33Z</time>
      </trkpt>
      <trkpt lat="43.74443038366735" lon="11.925179148092866">
        <ele>573.55999999999995</ele>
        <time>2016-06-04T08:35:43Z</time>
      </trkpt>
      <trkpt lat="43.744365340098739" lon="11.92504646256566">
        <ele>573.55999999999995</ele>
        <time>2016-06-04T08:35:56Z</time>
      </trkpt>
      <trkpt lat="43.744263919070363" lon="11.925037829205394">
        <ele>575.00999999999999</ele>
        <time>2016-06-04T08:36:08Z</time>
      </trkpt>
      <trkpt lat="43.744203234091401" lon="11.925092395395041">
        <ele>576.92999999999995</ele>
        <time>2016-06-04T08:36:19Z</time>
      </trkpt>
      <trkpt lat="43.744142213836312" lon="11.925146039575338">
        <ele>579.33000000000004</ele>
        <time>2016-06-04T08:36:31Z</time>
      </trkpt>
      <trkpt lat="43.744122935459018" lon="11.925234636291862">
        <ele>581.25</ele>
        <time>2016-06-04T08:36:42Z</time>
      </trkpt>
      <trkpt lat="43.744125869125128" lon="11.925322059541941">
        <ele>582.70000000000005</ele>
        <time>2016-06-04T08:36:53Z</time>
      </trkpt>
      <trkpt lat="43.744174735620618" lon="11.92538358271122">
        <ele>584.62</ele>
        <time>2016-06-04T08:37:03Z</time>
      </trkpt>
      <trkpt lat="43.744171047583222" lon="11.925451643764973">
        <ele>586.53999999999996</ele>
        <time>2016-06-04T08:37:14Z</time>
      </trkpt>
      <trkpt lat="43.744114050641656" lon="11.925505120307207">
        <ele>588.46000000000004</ele>
        <time>2016-06-04T08:37:27Z</time>
      </trkpt>
      <trkpt lat="43.744071638211608" lon="11.925544431433082">
        <ele>590.87</ele>
        <time>2016-06-04T08:37:40Z</time>
      </trkpt>
      <trkpt lat="43.744001314043999" lon="11.925587765872478">
        <ele>593.75</ele>
        <time>2016-06-04T08:37:55Z</time>
      </trkpt>
      <trkpt lat="43.743962841108441" lon="11.925595812499523">
        <ele>595.66999999999996</ele>
        <time>2016-06-04T08:38:07Z</time>
      </trkpt>
      <trkpt lat="43.743888577446342" lon="11.925573935732245">
        <ele>597.60000000000002</ele>
        <time>2016-06-04T08:38:19Z</time>
      </trkpt>
      <trkpt lat="43.743811547756195" lon="11.925535714253783">
        <ele>600.48000000000002</ele>
        <time>2016-06-04T08:38:33Z</time>
      </trkpt>
      <trkpt lat="43.743771146982908" lon="11.925478717312217">
        <ele>602.39999999999998</ele>
        <time>2016-06-04T08:38:44Z</time>
      </trkpt>
      <trkpt lat="43.743735691532493" lon="11.925477627664804">
        <ele>604.33000000000004</ele>
        <time>2016-06-04T08:38:56Z</time>
      </trkpt>
      <trkpt lat="43.743701158091426" lon="11.925553902983665">
        <ele>605.76999999999998</ele>
        <time>2016-06-04T08:39:07Z</time>
      </trkpt>
      <trkpt lat="43.743634354323149" lon="11.925598913803697">
        <ele>607.69000000000005</ele>
        <time>2016-06-04T08:39:17Z</time>
      </trkpt>
      <trkpt lat="43.743614070117474" lon="11.925589274615049">
        <ele>608.16999999999996</ele>
        <time>2016-06-04T08:39:19Z</time>
      </trkpt>
      <trkpt lat="43.743551205843687" lon="11.925477124750614">
        <ele>610.09000000000003</ele>
        <time>2016-06-04T08:39:33Z</time>
      </trkpt>
      <trkpt lat="43.743498902767897" lon="11.925408812239766">
        <ele>611.53999999999996</ele>
        <time>2016-06-04T08:39:44Z</time>
      </trkpt>
      <trkpt lat="43.74341944232583" lon="11.925335889682174">
        <ele>614.41999999999996</ele>
        <time>2016-06-04T08:39:57Z</time>
      </trkpt>
      <trkpt lat="43.743336126208305" lon="11.925327088683844">
        <ele>615.38</ele>
        <time>2016-06-04T08:40:07Z</time>
      </trkpt>
      <trkpt lat="43.743347190320492" lon="11.92544661462307">
        <ele>616.82000000000005</ele>
        <time>2016-06-04T08:40:18Z</time>
      </trkpt>
      <trkpt lat="43.743319865316153" lon="11.925553986802697">
        <ele>617.77999999999997</ele>
        <time>2016-06-04T08:40:28Z</time>
      </trkpt>
      <trkpt lat="43.743275860324502" lon="11.925617102533579">
        <ele>619.23000000000002</ele>
        <time>2016-06-04T08:40:37Z</time>
      </trkpt>
      <trkpt lat="43.743216767907143" lon="11.925593884661794">
        <ele>621.14999999999998</ele>
        <time>2016-06-04T08:40:49Z</time>
      </trkpt>
      <trkpt lat="43.743183072656393" lon="11.925535798072815">
        <ele>623.07000000000005</ele>
        <time>2016-06-04T08:40:59Z</time>
      </trkpt>
      <trkpt lat="43.743121214210987" lon="11.925469245761633">
        <ele>624.99000000000001</ele>
        <time>2016-06-04T08:41:10Z</time>
      </trkpt>
      <trkpt lat="43.743118615821004" lon="11.925463294610381">
        <ele>624.99000000000001</ele>
        <time>2016-06-04T08:41:11Z</time>
      </trkpt>
      <trkpt lat="43.743057176470757" lon="11.925414428114891">
        <ele>626.91999999999996</ele>
        <time>2016-06-04T08:41:22Z</time>
      </trkpt>
      <trkpt lat="43.743004119023681" lon="11.925361873582006">
        <ele>628.36000000000001</ele>
        <time>2016-06-04T08:41:32Z</time>
      </trkpt>
      <trkpt lat="43.742968160659075" lon="11.92531468346715">
        <ele>630.27999999999997</ele>
        <time>2016-06-04T08:41:42Z</time>
      </trkpt>
      <trkpt lat="43.742934465408325" lon="11.925207059830427">
        <ele>632.20000000000005</ele>
        <time>2016-06-04T08:41:54Z</time>
      </trkpt>
      <trkpt lat="43.742903871461749" lon="11.925114188343287">
        <ele>634.61000000000001</ele>
        <time>2016-06-04T08:42:06Z</time>
      </trkpt>
      <trkpt lat="43.742860285565257" lon="11.925058616325259">
        <ele>636.04999999999995</ele>
        <time>2016-06-04T08:42:17Z</time>
      </trkpt>
      <trkpt lat="43.742822147905827" lon="11.925117541104555">
        <ele>638.45000000000005</ele>
        <time>2016-06-04T08:42:27Z</time>
      </trkpt>
      <trkpt lat="43.742820555344224" lon="11.925112511962652">
        <ele>638.45000000000005</ele>
        <time>2016-06-04T08:42:41Z</time>
      </trkpt>
      <trkpt lat="43.742816699668765" lon="11.925134975463152">
        <ele>638.45000000000005</ele>
        <time>2016-06-04T08:43:07Z</time>
      </trkpt>
      <trkpt lat="43.742816280573606" lon="11.925113350152969">
        <ele>637.97000000000003</ele>
        <time>2016-06-04T08:43:23Z</time>
      </trkpt>
      <trkpt lat="43.742836816236377" lon="11.925099017098546">
        <ele>638.45000000000005</ele>
        <time>2016-06-04T08:43:39Z</time>
      </trkpt>
      <trkpt lat="43.742817956954241" lon="11.925107399001718">
        <ele>638.45000000000005</ele>
        <time>2016-06-04T08:43:59Z</time>
      </trkpt>
      <trkpt lat="43.742822064086795" lon="11.925122402608395">
        <ele>638.45000000000005</ele>
        <time>2016-06-04T08:44:15Z</time>
      </trkpt>
      <trkpt lat="43.74281058087945" lon="11.925193062052131">
        <ele>638.92999999999995</ele>
        <time>2016-06-04T08:44:26Z</time>
      </trkpt>
      <trkpt lat="43.742770850658417" lon="11.925271768122911">
        <ele>640.38</ele>
        <time>2016-06-04T08:44:36Z</time>
      </trkpt>
      <trkpt lat="43.742739669978619" lon="11.925371931865811">
        <ele>641.82000000000005</ele>
        <time>2016-06-04T08:44:46Z</time>
      </trkpt>
      <trkpt lat="43.742726761847734" lon="11.925472095608711">
        <ele>643.25999999999999</ele>
        <time>2016-06-04T08:44:57Z</time>
      </trkpt>
      <trkpt lat="43.742717625573277" lon="11.925589861348271">
        <ele>645.17999999999995</ele>
        <time>2016-06-04T08:45:07Z</time>
      </trkpt>
      <trkpt lat="43.742716116830707" lon="11.925682900473475">
        <ele>646.62</ele>
        <time>2016-06-04T08:45:18Z</time>
      </trkpt>
      <trkpt lat="43.742742352187634" lon="11.92579647526145">
        <ele>648.07000000000005</ele>
        <time>2016-06-04T08:45:29Z</time>
      </trkpt>
      <trkpt lat="43.742738161236048" lon="11.925953971222043">
        <ele>647.59000000000003</ele>
        <time>2016-06-04T08:45:40Z</time>
      </trkpt>
      <trkpt lat="43.742730785161257" lon="11.926077017560601">
        <ele>649.02999999999997</ele>
        <time>2016-06-04T08:45:51Z</time>
      </trkpt>
      <trkpt lat="43.742667837068439" lon="11.926088919863105">
        <ele>650.47000000000003</ele>
        <time>2016-06-04T08:46:01Z</time>
      </trkpt>
      <trkpt lat="43.74262391589582" lon="11.925967885181308">
        <ele>651.90999999999997</ele>
        <time>2016-06-04T08:46:14Z</time>
      </trkpt>
      <trkpt lat="43.742581754922867" lon="11.925849951803684">
        <ele>654.30999999999995</ele>
        <time>2016-06-04T08:46:26Z</time>
      </trkpt>
      <trkpt lat="43.742552753537893" lon="11.925741573795676">
        <ele>655.27999999999997</ele>
        <time>2016-06-04T08:46:34Z</time>
      </trkpt>
      <trkpt lat="43.74253892339766" lon="11.925680553540587">
        <ele>654.79999999999995</ele>
        <time>2016-06-04T08:46:46Z</time>
      </trkpt>
      <trkpt lat="43.742543701082468" lon="11.925647780299187">
        <ele>655.27999999999997</ele>
        <time>2016-06-04T08:47:07Z</time>
      </trkpt>
      <trkpt lat="43.742541940882802" lon="11.925649121403694">
        <ele>655.27999999999997</ele>
        <time>2016-06-04T08:47:19Z</time>
      </trkpt>
      <trkpt lat="43.742563566192985" lon="11.925667142495513">
        <ele>655.27999999999997</ele>
        <time>2016-06-04T08:47:40Z</time>
      </trkpt>
      <trkpt lat="43.7425247579813" lon="11.925667142495513">
        <ele>654.79999999999995</ele>
        <time>2016-06-04T08:47:58Z</time>
      </trkpt>
      <trkpt lat="43.742538588121533" lon="11.925686839967966">
        <ele>654.30999999999995</ele>
        <time>2016-06-04T08:48:12Z</time>
      </trkpt>
      <trkpt lat="43.742537163197994" lon="11.925697149708867">
        <ele>654.79999999999995</ele>
        <time>2016-06-04T08:48:36Z</time>
      </trkpt>
      <trkpt lat="43.742538085207343" lon="11.925660604611039">
        <ele>654.30999999999995</ele>
        <time>2016-06-04T08:49:00Z</time>
      </trkpt>
      <trkpt lat="43.74251008965075" lon="11.925632357597351">
        <ele>654.30999999999995</ele>
        <time>2016-06-04T08:49:17Z</time>
      </trkpt>
      <trkpt lat="43.742421576753259" lon="11.925547113642097">
        <ele>653.35000000000002</ele>
        <time>2016-06-04T08:49:29Z</time>
      </trkpt>
      <trkpt lat="43.742349157109857" lon="11.925451057031751">
        <ele>654.30999999999995</ele>
        <time>2016-06-04T08:49:40Z</time>
      </trkpt>
      <trkpt lat="43.742296937853098" lon="11.925345445051789">
        <ele>656.24000000000001</ele>
        <time>2016-06-04T08:49:52Z</time>
      </trkpt>
      <trkpt lat="43.742251759395003" lon="11.92524578422308">
        <ele>658.15999999999997</ele>
        <time>2016-06-04T08:50:03Z</time>
      </trkpt>
      <trkpt lat="43.742200126871467" lon="11.925176465883851">
        <ele>662.00999999999999</ele>
        <time>2016-06-04T08:50:14Z</time>
      </trkpt>
      <trkpt lat="43.742153104394674" lon="11.925039840862155">
        <ele>662.00999999999999</ele>
        <time>2016-06-04T08:50:26Z</time>
      </trkpt>
      <trkpt lat="43.74214505776763" lon="11.924920482560992">
        <ele>662.97000000000003</ele>
        <time>2016-06-04T08:50:35Z</time>
      </trkpt>
      <trkpt lat="43.742145309224725" lon="11.924818139523268">
        <ele>663.45000000000005</ele>
        <time>2016-06-04T08:50:41Z</time>
      </trkpt>
      <trkpt lat="43.742111613973975" lon="11.92475032992661">
        <ele>663.92999999999995</ele>
        <time>2016-06-04T08:50:46Z</time>
      </trkpt>
      <trkpt lat="43.741999799385667" lon="11.924658799543977">
        <ele>663.92999999999995</ele>
        <time>2016-06-04T08:50:58Z</time>
      </trkpt>
      <trkpt lat="43.741896450519562" lon="11.924559976905584">
        <ele>663.45000000000005</ele>
        <time>2016-06-04T08:51:09Z</time>
      </trkpt>
      <trkpt lat="43.741854792460799" lon="11.924566850066185">
        <ele>663.92999999999995</ele>
        <time>2016-06-04T08:51:13Z</time>
      </trkpt>
      <trkpt lat="43.74181036837399" lon="11.924647819250822">
        <ele>664.88999999999999</ele>
        <time>2016-06-04T08:51:21Z</time>
      </trkpt>
      <trkpt lat="43.741828389465809" lon="11.924772039055824">
        <ele>666.33000000000004</ele>
        <time>2016-06-04T08:51:32Z</time>
      </trkpt>
      <trkpt lat="43.741822019219398" lon="11.924774721264839">
        <ele>666.33000000000004</ele>
        <time>2016-06-04T08:51:40Z</time>
      </trkpt>
      <trkpt lat="43.741831490769982" lon="11.924777906388044">
        <ele>666.33000000000004</ele>
        <time>2016-06-04T08:51:42Z</time>
      </trkpt>
      <trkpt lat="43.741874154657125" lon="11.924902545288205">
        <ele>669.22000000000003</ele>
        <time>2016-06-04T08:51:54Z</time>
      </trkpt>
      <trkpt lat="43.74187683686614" lon="11.924937078729272">
        <ele>670.17999999999995</ele>
        <time>2016-06-04T08:51:57Z</time>
      </trkpt>
      <trkpt lat="43.741874489933252" lon="11.925054676830769">
        <ele>672.10000000000002</ele>
        <time>2016-06-04T08:52:07Z</time>
      </trkpt>
      <trkpt lat="43.741879351437092" lon="11.925160372629762">
        <ele>674.01999999999998</ele>
        <time>2016-06-04T08:52:17Z</time>
      </trkpt>
      <trkpt lat="43.741886559873819" lon="11.925273444503546">
        <ele>675.94000000000005</ele>
        <time>2016-06-04T08:52:28Z</time>
      </trkpt>
      <trkpt lat="43.741878848522902" lon="11.925363969057798">
        <ele>677.38999999999999</ele>
        <time>2016-06-04T08:52:37Z</time>
      </trkpt>
      <trkpt lat="43.741833502426744" lon="11.925474777817726">
        <ele>679.78999999999996</ele>
        <time>2016-06-04T08:52:49Z</time>
      </trkpt>
      <trkpt lat="43.741822605952621" lon="11.925483327358961">
        <ele>679.78999999999996</ele>
        <time>2016-06-04T08:52:51Z</time>
      </trkpt>
      <trkpt lat="43.741782959550619" lon="11.92556974478066">
        <ele>682.19000000000005</ele>
        <time>2016-06-04T08:53:01Z</time>
      </trkpt>
      <trkpt lat="43.741784049198031" lon="11.925580222159624">
        <ele>682.19000000000005</ele>
        <time>2016-06-04T08:53:02Z</time>
      </trkpt>
      <trkpt lat="43.741763094440103" lon="11.925666555762291">
        <ele>684.60000000000002</ele>
        <time>2016-06-04T08:53:12Z</time>
      </trkpt>
      <trkpt lat="43.741761082783341" lon="11.925764372572303">
        <ele>686.51999999999998</ele>
        <time>2016-06-04T08:53:23Z</time>
      </trkpt>
      <trkpt lat="43.741789078339934" lon="11.925860429182649">
        <ele>688.44000000000005</ele>
        <time>2016-06-04T08:53:35Z</time>
      </trkpt>
      <trkpt lat="43.74180106446147" lon="11.925940476357937">
        <ele>690.84000000000003</ele>
        <time>2016-06-04T08:53:45Z</time>
      </trkpt>
      <trkpt lat="43.741809194907546" lon="11.926031922921538">
        <ele>692.76999999999998</ele>
        <time>2016-06-04T08:53:57Z</time>
      </trkpt>
      <trkpt lat="43.741776756942272" lon="11.926088416948915">
        <ele>695.16999999999996</ele>
        <time>2016-06-04T08:54:08Z</time>
      </trkpt>
      <trkpt lat="43.741716239601374" lon="11.926139546558261">
        <ele>697.09000000000003</ele>
        <time>2016-06-04T08:54:19Z</time>
      </trkpt>
      <trkpt lat="43.741685226559639" lon="11.92614977248013">
        <ele>698.52999999999997</ele>
        <time>2016-06-04T08:54:25Z</time>
      </trkpt>
      <trkpt lat="43.741661924868822" lon="11.926198219880462">
        <ele>700.94000000000005</ele>
        <time>2016-06-04T08:54:36Z</time>
      </trkpt>
      <trkpt lat="43.741678353399038" lon="11.926293605938554">
        <ele>703.82000000000005</ele>
        <time>2016-06-04T08:54:51Z</time>
      </trkpt>
      <trkpt lat="43.741704924032092" lon="11.926351021975279">
        <ele>706.23000000000002</ele>
        <time>2016-06-04T08:55:05Z</time>
      </trkpt>
      <trkpt lat="43.741751359775662" lon="11.926370216533542">
        <ele>708.14999999999998</ele>
        <time>2016-06-04T08:55:15Z</time>
      </trkpt>
      <trkpt lat="43.741791592910886" lon="11.926454035565257">
        <ele>710.54999999999995</ele>
        <time>2016-06-04T08:55:26Z</time>
      </trkpt>
      <trkpt lat="43.741733338683844" lon="11.926532071083784">
        <ele>712.47000000000003</ele>
        <time>2016-06-04T08:55:38Z</time>
      </trkpt>
      <trkpt lat="43.741670558229089" lon="11.926581021398306">
        <ele>714.39999999999998</ele>
        <time>2016-06-04T08:55:50Z</time>
      </trkpt>
      <trkpt lat="43.741703247651458" lon="11.92665059119463">
        <ele>716.79999999999995</ele>
        <time>2016-06-04T08:56:04Z</time>
      </trkpt>
      <trkpt lat="43.741760496050119" lon="11.926720999181271">
        <ele>720.64999999999998</ele>
        <time>2016-06-04T08:56:17Z</time>
      </trkpt>
      <trkpt lat="43.74174976721406" lon="11.926844716072083">
        <ele>721.61000000000001</ele>
        <time>2016-06-04T08:56:31Z</time>
      </trkpt>
      <trkpt lat="43.741763094440103" lon="11.926925266161561">
        <ele>723.52999999999997</ele>
        <time>2016-06-04T08:56:43Z</time>
      </trkpt>
      <trkpt lat="43.741744235157967" lon="11.92701755091548">
        <ele>725.45000000000005</ele>
        <time>2016-06-04T08:56:54Z</time>
      </trkpt>
      <trkpt lat="43.741661924868822" lon="11.927076894789934">
        <ele>726.88999999999999</ele>
        <time>2016-06-04T08:57:05Z</time>
      </trkpt>
      <trkpt lat="43.741619847714901" lon="11.927117798477411">
        <ele>728.82000000000005</ele>
        <time>2016-06-04T08:57:15Z</time>
      </trkpt>
      <trkpt lat="43.741557318717241" lon="11.927171358838677">
        <ele>730.74000000000001</ele>
        <time>2016-06-04T08:57:27Z</time>
      </trkpt>
      <trkpt lat="43.741482803598046" lon="11.92717831581831">
        <ele>733.13999999999999</ele>
        <time>2016-06-04T08:57:39Z</time>
      </trkpt>
      <trkpt lat="43.741433434188366" lon="11.927089300006628">
        <ele>735.54999999999995</ele>
        <time>2016-06-04T08:57:52Z</time>
      </trkpt>
      <trkpt lat="43.741393787786365" lon="11.927054515108466">
        <ele>737.95000000000005</ele>
        <time>2016-06-04T08:58:03Z</time>
      </trkpt>
      <trkpt lat="43.741343328729272" lon="11.926991734653711">
        <ele>740.83000000000004</ele>
        <time>2016-06-04T08:58:15Z</time>
      </trkpt>
      <trkpt lat="43.741287756711245" lon="11.92705032415688">
        <ele>742.27999999999997</ele>
        <time>2016-06-04T08:58:28Z</time>
      </trkpt>
      <trkpt lat="43.741241740062833" lon="11.927107153460383">
        <ele>744.20000000000005</ele>
        <time>2016-06-04T08:58:40Z</time>
      </trkpt>
      <trkpt lat="43.741226820275187" lon="11.927190469577909">
        <ele>746.60000000000002</ele>
        <time>2016-06-04T08:58:53Z</time>
      </trkpt>
      <trkpt lat="43.741257665678859" lon="11.927267499268055">
        <ele>749.49000000000001</ele>
        <time>2016-06-04T08:59:07Z</time>
      </trkpt>
      <trkpt lat="43.741267304867506" lon="11.927344780415297">
        <ele>751.40999999999997</ele>
        <time>2016-06-04T08:59:19Z</time>
      </trkpt>
      <trkpt lat="43.741246098652482" lon="11.927402196452022">
        <ele>753.80999999999995</ele>
        <time>2016-06-04T08:59:30Z</time>
      </trkpt>
      <trkpt lat="43.741210559383035" lon="11.927466485649347">
        <ele>755.73000000000002</ele>
        <time>2016-06-04T08:59:42Z</time>
      </trkpt>
      <trkpt lat="43.74113948084414" lon="11.927506970241666">
        <ele>758.62</ele>
        <time>2016-06-04T08:59:56Z</time>
      </trkpt>
      <trkpt lat="43.74107644893229" lon="11.927539240568876">
        <ele>761.01999999999998</ele>
        <time>2016-06-04T09:00:10Z</time>
      </trkpt>
      <trkpt lat="43.741038059815764" lon="11.927547119557858">
        <ele>764.38999999999999</ele>
        <time>2016-06-04T09:00:20Z</time>
      </trkpt>
      <trkpt lat="43.741050213575363" lon="11.927629765123129">
        <ele>765.35000000000002</ele>
        <time>2016-06-04T09:00:33Z</time>
      </trkpt>
      <trkpt lat="43.741071252152324" lon="11.927699083462358">
        <ele>767.75</ele>
        <time>2016-06-04T09:00:47Z</time>
      </trkpt>
      <trkpt lat="43.74109011143446" lon="11.92777493968606">
        <ele>770.14999999999998</ele>
        <time>2016-06-04T09:01:01Z</time>
      </trkpt>
      <trkpt lat="43.741078628227115" lon="11.927849873900414">
        <ele>772.08000000000004</ele>
        <time>2016-06-04T09:01:13Z</time>
      </trkpt>
      <trkpt lat="43.741009058430791" lon="11.927899830043316">
        <ele>774.48000000000002</ele>
        <time>2016-06-04T09:01:27Z</time>
      </trkpt>
      <trkpt lat="43.740963879972696" lon="11.92784040234983">
        <ele>776.39999999999998</ele>
        <time>2016-06-04T09:01:38Z</time>
      </trkpt>
      <trkpt lat="43.740905206650496" lon="11.927804946899414">
        <ele>778.80999999999995</ele>
        <time>2016-06-04T09:01:50Z</time>
      </trkpt>
      <trkpt lat="43.740820130333304" lon="11.927769742906094">
        <ele>781.21000000000004</ele>
        <time>2016-06-04T09:02:05Z</time>
      </trkpt>
      <trkpt lat="43.740761121734977" lon="11.927747698500752">
        <ele>783.61000000000001</ele>
        <time>2016-06-04T09:02:18Z</time>
      </trkpt>
      <trkpt lat="43.740684175863862" lon="11.927725151181221">
        <ele>785.52999999999997</ele>
        <time>2016-06-04T09:02:30Z</time>
      </trkpt>
      <trkpt lat="43.740596417337656" lon="11.927729845046997">
        <ele>788.41999999999996</ele>
        <time>2016-06-04T09:02:46Z</time>
      </trkpt>
      <trkpt lat="43.740528356283903" lon="11.927726408466697">
        <ele>790.82000000000005</ele>
        <time>2016-06-04T09:02:59Z</time>
      </trkpt>
      <trkpt lat="43.74045342206955" lon="11.927724312990904">
        <ele>793.22000000000003</ele>
        <time>2016-06-04T09:03:12Z</time>
      </trkpt>
      <trkpt lat="43.740359880030155" lon="11.927750296890736">
        <ele>795.63</ele>
        <time>2016-06-04T09:03:26Z</time>
      </trkpt>
      <trkpt lat="43.740295339375734" lon="11.927786255255342">
        <ele>797.54999999999995</ele>
        <time>2016-06-04T09:03:38Z</time>
      </trkpt>
      <trkpt lat="43.740216717123985" lon="11.92780721001327">
        <ele>799.95000000000005</ele>
        <time>2016-06-04T09:03:51Z</time>
      </trkpt>
      <trkpt lat="43.740206742659211" lon="11.927815089002252">
        <ele>799.95000000000005</ele>
        <time>2016-06-04T09:03:53Z</time>
      </trkpt>
      <trkpt lat="43.740128455683589" lon="11.927858088165522">
        <ele>800.91999999999996</ele>
        <time>2016-06-04T09:04:03Z</time>
      </trkpt>
      <trkpt lat="43.740054611116648" lon="11.927915839478374">
        <ele>801.88</ele>
        <time>2016-06-04T09:04:14Z</time>
      </trkpt>
      <trkpt lat="43.739962242543697" lon="11.927999323233962">
        <ele>804.27999999999997</ele>
        <time>2016-06-04T09:04:27Z</time>
      </trkpt>
      <trkpt lat="43.739894600585103" lon="11.928063612431288">
        <ele>806.20000000000005</ele>
        <time>2016-06-04T09:04:38Z</time>
      </trkpt>
      <trkpt lat="43.73982704244554" lon="11.928104516118765">
        <ele>808.13</ele>
        <time>2016-06-04T09:04:50Z</time>
      </trkpt>
      <trkpt lat="43.739774655550718" lon="11.928218090906739">
        <ele>810.52999999999997</ele>
        <time>2016-06-04T09:05:05Z</time>
      </trkpt>
      <trkpt lat="43.739765686914325" lon="11.928317165002227">
        <ele>811.97000000000003</ele>
        <time>2016-06-04T09:05:15Z</time>
      </trkpt>
      <trkpt lat="43.739750599488616" lon="11.928418334573507">
        <ele>813.40999999999997</ele>
        <time>2016-06-04T09:05:27Z</time>
      </trkpt>
      <trkpt lat="43.739663008600473" lon="11.928417244926095">
        <ele>814.85000000000002</ele>
        <time>2016-06-04T09:05:37Z</time>
      </trkpt>
      <trkpt lat="43.739588493481278" lon="11.928412299603224">
        <ele>817.25999999999999</ele>
        <time>2016-06-04T09:05:49Z</time>
      </trkpt>
      <trkpt lat="43.739526299759746" lon="11.928384723141789">
        <ele>819.17999999999995</ele>
        <time>2016-06-04T09:06:00Z</time>
      </trkpt>
      <trkpt lat="43.739463267847896" lon="11.928378771990538">
        <ele>821.58000000000004</ele>
        <time>2016-06-04T09:06:12Z</time>
      </trkpt>
      <trkpt lat="43.739415826275945" lon="11.928391261026263">
        <ele>824.95000000000005</ele>
        <time>2016-06-04T09:06:23Z</time>
      </trkpt>
      <trkpt lat="43.73935841023922" lon="11.928421184420586">
        <ele>825.90999999999997</ele>
        <time>2016-06-04T09:06:34Z</time>
      </trkpt>
      <trkpt lat="43.739296803250909" lon="11.928456891328096">
        <ele>827.35000000000002</ele>
        <time>2016-06-04T09:06:46Z</time>
      </trkpt>
      <trkpt lat="43.739231256768107" lon="11.92847759462893">
        <ele>829.26999999999998</ele>
        <time>2016-06-04T09:06:56Z</time>
      </trkpt>
      <trkpt lat="43.739163111895323" lon="11.928514810279012">
        <ele>830.72000000000003</ele>
        <time>2016-06-04T09:07:06Z</time>
      </trkpt>
      <trkpt lat="43.739101672545075" lon="11.928593264892697">
        <ele>831.20000000000005</ele>
        <time>2016-06-04T09:07:17Z</time>
      </trkpt>
      <trkpt lat="43.739028666168451" lon="11.928673731163144">
        <ele>832.15999999999997</ele>
        <time>2016-06-04T09:07:29Z</time>
      </trkpt>
      <trkpt lat="43.738943003118038" lon="11.928784288465977">
        <ele>834.08000000000004</ele>
        <time>2016-06-04T09:07:42Z</time>
      </trkpt>
      <trkpt lat="43.738935710862279" lon="11.928791915997863">
        <ele>834.08000000000004</ele>
        <time>2016-06-04T09:07:43Z</time>
      </trkpt>
      <trkpt lat="43.738874858245254" lon="11.928899791091681">
        <ele>836</ele>
        <time>2016-06-04T09:07:55Z</time>
      </trkpt>
      <trkpt lat="43.738803779706359" lon="11.928998194634914">
        <ele>838.88999999999999</ele>
        <time>2016-06-04T09:08:08Z</time>
      </trkpt>
      <trkpt lat="43.738743681460619" lon="11.929018059745431">
        <ele>840.33000000000004</ele>
        <time>2016-06-04T09:08:19Z</time>
      </trkpt>
      <trkpt lat="43.738685678690672" lon="11.929109506309032">
        <ele>842.73000000000002</ele>
        <time>2016-06-04T09:08:31Z</time>
      </trkpt>
      <trkpt lat="43.738641338422894" lon="11.929182093590498">
        <ele>845.13999999999999</ele>
        <time>2016-06-04T09:08:43Z</time>
      </trkpt>
      <trkpt lat="43.738560285419226" lon="11.929176226258278">
        <ele>847.05999999999995</ele>
        <time>2016-06-04T09:08:55Z</time>
      </trkpt>
      <trkpt lat="43.738540420308709" lon="11.929100621491671">
        <ele>849.46000000000004</ele>
        <time>2016-06-04T09:09:07Z</time>
      </trkpt>
      <trkpt lat="43.738500606268644" lon="11.929087545722723">
        <ele>851.38</ele>
        <time>2016-06-04T09:09:17Z</time>
      </trkpt>
      <trkpt lat="43.738446375355124" lon="11.929143955931067">
        <ele>853.78999999999996</ele>
        <time>2016-06-04T09:09:31Z</time>
      </trkpt>
      <trkpt lat="43.738403460010886" lon="11.929234396666288">
        <ele>856.19000000000005</ele>
        <time>2016-06-04T09:09:45Z</time>
      </trkpt>
      <trkpt lat="43.738360377028584" lon="11.929246634244919">
        <ele>859.55999999999995</ele>
        <time>2016-06-04T09:09:54Z</time>
      </trkpt>
      <trkpt lat="43.738353252410889" lon="11.929247388616204">
        <ele>858.59000000000003</ele>
        <time>2016-06-04T09:09:55Z</time>
      </trkpt>
      <trkpt lat="43.738302625715733" lon="11.929225344210863">
        <ele>860.51999999999998</ele>
        <time>2016-06-04T09:10:08Z</time>
      </trkpt>
      <trkpt lat="43.738275552168489" lon="11.929298266768456">
        <ele>862.44000000000005</ele>
        <time>2016-06-04T09:10:19Z</time>
      </trkpt>
      <trkpt lat="43.738241354003549" lon="11.929274294525385">
        <ele>864.36000000000001</ele>
        <time>2016-06-04T09:10:29Z</time>
      </trkpt>
      <trkpt lat="43.738202294334769" lon="11.929284771904349">
        <ele>865.79999999999995</ele>
        <time>2016-06-04T09:10:39Z</time>
      </trkpt>
      <trkpt lat="43.738153092563152" lon="11.929348558187485">
        <ele>867.73000000000002</ele>
        <time>2016-06-04T09:10:51Z</time>
      </trkpt>
      <trkpt lat="43.738111015409231" lon="11.929385270923376">
        <ele>869.64999999999998</ele>
        <time>2016-06-04T09:11:02Z</time>
      </trkpt>
      <trkpt lat="43.7380694411695" lon="11.929456349462271">
        <ele>871.09000000000003</ele>
        <time>2016-06-04T09:11:13Z</time>
      </trkpt>
      <trkpt lat="43.737996770069003" lon="11.929523823782802">
        <ele>873.00999999999999</ele>
        <time>2016-06-04T09:11:24Z</time>
      </trkpt>
      <trkpt lat="43.737934408709407" lon="11.92957503721118">
        <ele>874.46000000000004</ele>
        <time>2016-06-04T09:11:33Z</time>
      </trkpt>
      <trkpt lat="43.737896271049976" lon="11.929565062746406">
        <ele>875.41999999999996</ele>
        <time>2016-06-04T09:11:38Z</time>
      </trkpt>
      <trkpt lat="43.737802980467677" lon="11.929546454921365">
        <ele>875.89999999999998</ele>
        <time>2016-06-04T09:11:48Z</time>
      </trkpt>
      <trkpt lat="43.737717652693391" lon="11.929549388587475">
        <ele>875.41999999999996</ele>
        <time>2016-06-04T09:11:57Z</time>
      </trkpt>
      <trkpt lat="43.737621596083045" lon="11.929519716650248">
        <ele>875.41999999999996</ele>
        <time>2016-06-04T09:12:09Z</time>
      </trkpt>
      <trkpt lat="43.737584967166185" lon="11.929486775770783">
        <ele>879.25999999999999</ele>
        <time>2016-06-04T09:12:16Z</time>
      </trkpt>
      <trkpt lat="43.737577926367521" lon="11.929485015571117">
        <ele>878.77999999999997</ele>
        <time>2016-06-04T09:12:17Z</time>
      </trkpt>
      <trkpt lat="43.737522354349494" lon="11.929501025006175">
        <ele>879.74000000000001</ele>
        <time>2016-06-04T09:12:26Z</time>
      </trkpt>
      <trkpt lat="43.737429147586226" lon="11.929489877074957">
        <ele>881.19000000000005</ele>
        <time>2016-06-04T09:12:38Z</time>
      </trkpt>
      <trkpt lat="43.737343735992908" lon="11.929502114653587">
        <ele>883.59000000000003</ele>
        <time>2016-06-04T09:12:50Z</time>
      </trkpt>
      <trkpt lat="43.737301155924797" lon="11.929514603689313">
        <ele>884.07000000000005</ele>
        <time>2016-06-04T09:12:58Z</time>
      </trkpt>
      <trkpt lat="43.737233933061361" lon="11.929550813511014">
        <ele>885.99000000000001</ele>
        <time>2016-06-04T09:13:08Z</time>
      </trkpt>
      <trkpt lat="43.737163608893752" lon="11.929471604526043">
        <ele>887.90999999999997</ele>
        <time>2016-06-04T09:13:20Z</time>
      </trkpt>
      <trkpt lat="43.737089177593589" lon="11.929392898455262">
        <ele>887.90999999999997</ele>
        <time>2016-06-04T09:13:32Z</time>
      </trkpt>
      <trkpt lat="43.737002592533827" lon="11.92942843772471">
        <ele>888.39999999999998</ele>
        <time>2016-06-04T09:13:41Z</time>
      </trkpt>
      <trkpt lat="43.736880635842681" lon="11.9294289406389">
        <ele>888.88</ele>
        <time>2016-06-04T09:13:53Z</time>
      </trkpt>
      <trkpt lat="43.736797152087092" lon="11.929425084963441">
        <ele>890.32000000000005</ele>
        <time>2016-06-04T09:14:02Z</time>
      </trkpt>
      <trkpt lat="43.736678212881088" lon="11.929427934810519">
        <ele>891.27999999999997</ele>
        <time>2016-06-04T09:14:13Z</time>
      </trkpt>
      <trkpt lat="43.736561201512814" lon="11.929385690018535">
        <ele>891.27999999999997</ele>
        <time>2016-06-04T09:14:23Z</time>
      </trkpt>
      <trkpt lat="43.736428432166576" lon="11.929347552359104">
        <ele>890.79999999999995</ele>
        <time>2016-06-04T09:14:34Z</time>
      </trkpt>
      <trkpt lat="43.736299853771925" lon="11.929330537095666">
        <ele>889.84000000000003</ele>
        <time>2016-06-04T09:14:44Z</time>
      </trkpt>
      <trkpt lat="43.73618577606976" lon="11.929249064996839">
        <ele>889.84000000000003</ele>
        <time>2016-06-04T09:14:54Z</time>
      </trkpt>
      <trkpt lat="43.736109416931868" lon="11.929166670888662">
        <ele>890.79999999999995</ele>
        <time>2016-06-04T09:15:03Z</time>
      </trkpt>
      <trkpt lat="43.736003385856748" lon="11.929049575701356">
        <ele>892.24000000000001</ele>
        <time>2016-06-04T09:15:16Z</time>
      </trkpt>
      <trkpt lat="43.735968098044395" lon="11.928953938186169">
        <ele>893.67999999999995</ele>
        <time>2016-06-04T09:15:26Z</time>
      </trkpt>
      <trkpt lat="43.735918896272779" lon="11.928884200751781">
        <ele>894.63999999999999</ele>
        <time>2016-06-04T09:15:36Z</time>
      </trkpt>
      <trkpt lat="43.735893331468105" lon="11.928858552128077">
        <ele>895.12</ele>
        <time>2016-06-04T09:15:40Z</time>
      </trkpt>
      <trkpt lat="43.735868772491813" lon="11.92875905893743">
        <ele>895.12</ele>
        <time>2016-06-04T09:15:47Z</time>
      </trkpt>
      <trkpt lat="43.735813619568944" lon="11.928659901022911">
        <ele>897.52999999999997</ele>
        <time>2016-06-04T09:15:57Z</time>
      </trkpt>
      <trkpt lat="43.735805070027709" lon="11.928639365360141">
        <ele>896.57000000000005</ele>
        <time>2016-06-04T09:15:59Z</time>
      </trkpt>
      <trkpt lat="43.735758466646075" lon="11.92854356020689">
        <ele>897.52999999999997</ele>
        <time>2016-06-04T09:16:10Z</time>
      </trkpt>
      <trkpt lat="43.735712114721537" lon="11.928481701761484">
        <ele>899.92999999999995</ele>
        <time>2016-06-04T09:16:21Z</time>
      </trkpt>
      <trkpt lat="43.735642628744245" lon="11.928401486948133">
        <ele>900.88999999999999</ele>
        <time>2016-06-04T09:16:31Z</time>
      </trkpt>
      <trkpt lat="43.735582362860441" lon="11.928314147517085">
        <ele>902.33000000000004</ele>
        <time>2016-06-04T09:16:41Z</time>
      </trkpt>
      <trkpt lat="43.735522599890828" lon="11.928247343748808">
        <ele>904.25999999999999</ele>
        <time>2016-06-04T09:16:52Z</time>
      </trkpt>
      <trkpt lat="43.735474906861782" lon="11.928146509453654">
        <ele>905.70000000000005</ele>
        <time>2016-06-04T09:17:02Z</time>
      </trkpt>
      <trkpt lat="43.735427632927895" lon="11.928063025698066">
        <ele>907.62</ele>
        <time>2016-06-04T09:17:13Z</time>
      </trkpt>
      <trkpt lat="43.735369713976979" lon="11.927997563034296">
        <ele>909.05999999999995</ele>
        <time>2016-06-04T09:17:23Z</time>
      </trkpt>
      <trkpt lat="43.735329648479819" lon="11.927934614941478">
        <ele>910.99000000000001</ele>
        <time>2016-06-04T09:17:33Z</time>
      </trkpt>
      <trkpt lat="43.735275669023395" lon="11.927865631878376">
        <ele>912.90999999999997</ele>
        <time>2016-06-04T09:17:44Z</time>
      </trkpt>
      <trkpt lat="43.735197633504868" lon="11.927805617451668">
        <ele>914.83000000000004</ele>
        <time>2016-06-04T09:17:57Z</time>
      </trkpt>
      <trkpt lat="43.735145246610045" lon="11.92780033685267">
        <ele>916.75</ele>
        <time>2016-06-04T09:18:06Z</time>
      </trkpt>
      <trkpt lat="43.735103085637093" lon="11.927780555561185">
        <ele>917.72000000000003</ele>
        <time>2016-06-04T09:18:12Z</time>
      </trkpt>
      <trkpt lat="43.735108366236091" lon="11.92767670378089">
        <ele>920.12</ele>
        <time>2016-06-04T09:18:23Z</time>
      </trkpt>
      <trkpt lat="43.73504382558167" lon="11.927638398483396">
        <ele>921.55999999999995</ele>
        <time>2016-06-04T09:18:36Z</time>
      </trkpt>
      <trkpt lat="43.734967634081841" lon="11.927614929154515">
        <ele>924.45000000000005</ele>
        <time>2016-06-04T09:18:47Z</time>
      </trkpt>
      <trkpt lat="43.734907871112227" lon="11.927575869485736">
        <ele>925.88999999999999</ele>
        <time>2016-06-04T09:18:57Z</time>
      </trkpt>
      <trkpt lat="43.734817765653133" lon="11.92753404378891">
        <ele>927.33000000000004</ele>
        <time>2016-06-04T09:19:09Z</time>
      </trkpt>
      <trkpt lat="43.734716512262821" lon="11.927502024918795">
        <ele>928.76999999999998</ele>
        <time>2016-06-04T09:19:20Z</time>
      </trkpt>
      <trkpt lat="43.734619952738285" lon="11.927506299689412">
        <ele>930.21000000000004</ele>
        <time>2016-06-04T09:19:31Z</time>
      </trkpt>
      <trkpt lat="43.734522135928273" lon="11.927505042403936">
        <ele>931.64999999999998</ele>
        <time>2016-06-04T09:19:42Z</time>
      </trkpt>
      <trkpt lat="43.734467402100563" lon="11.927503701299429">
        <ele>933.10000000000002</ele>
        <time>2016-06-04T09:19:53Z</time>
      </trkpt>
      <trkpt lat="43.734409064054489" lon="11.92744854837656">
        <ele>933.58000000000004</ele>
        <time>2016-06-04T09:20:04Z</time>
      </trkpt>
      <trkpt lat="43.734332621097565" lon="11.927401777356863">
        <ele>935.5</ele>
        <time>2016-06-04T09:20:14Z</time>
      </trkpt>
      <trkpt lat="43.734255423769355" lon="11.927352827042341">
        <ele>936.94000000000005</ele>
        <time>2016-06-04T09:20:24Z</time>
      </trkpt>
      <trkpt lat="43.734169760718942" lon="11.92735081538558">
        <ele>938.38</ele>
        <time>2016-06-04T09:20:34Z</time>
      </trkpt>
      <trkpt lat="43.734103040769696" lon="11.92727655172348">
        <ele>940.78999999999996</ele>
        <time>2016-06-04T09:20:46Z</time>
      </trkpt>
      <trkpt lat="43.73405241407454" lon="11.927255345508456">
        <ele>942.71000000000004</ele>
        <time>2016-06-04T09:20:56Z</time>
      </trkpt>
      <trkpt lat="43.734037075191736" lon="11.927259787917137">
        <ele>943.19000000000005</ele>
        <time>2016-06-04T09:20:59Z</time>
      </trkpt>
      <trkpt lat="43.733956944197416" lon="11.927268169820309">
        <ele>944.14999999999998</ele>
        <time>2016-06-04T09:21:11Z</time>
      </trkpt>
      <trkpt lat="43.733935486525297" lon="11.92727261222899">
        <ele>944.14999999999998</ele>
        <time>2016-06-04T09:21:13Z</time>
      </trkpt>
      <trkpt lat="43.73381151817739" lon="11.927280994132161">
        <ele>944.63</ele>
        <time>2016-06-04T09:21:25Z</time>
      </trkpt>
      <trkpt lat="43.733712444081903" lon="11.927299266681075">
        <ele>946.07000000000005</ele>
        <time>2016-06-04T09:21:36Z</time>
      </trkpt>
      <trkpt lat="43.7335882242769" lon="11.927296333014965">
        <ele>947.51999999999998</ele>
        <time>2016-06-04T09:21:48Z</time>
      </trkpt>
      <trkpt lat="43.733500633388758" lon="11.927261967211962">
        <ele>948.48000000000002</ele>
        <time>2016-06-04T09:21:57Z</time>
      </trkpt>
      <trkpt lat="43.733429973945022" lon="11.927241683006287">
        <ele>949.44000000000005</ele>
        <time>2016-06-04T09:22:04Z</time>
      </trkpt>
      <trkpt lat="43.733309525996447" lon="11.927222572267056">
        <ele>949.44000000000005</ele>
        <time>2016-06-04T09:22:15Z</time>
      </trkpt>
      <trkpt lat="43.733226461336017" lon="11.927201952785254">
        <ele>949.91999999999996</ele>
        <time>2016-06-04T09:22:27Z</time>
      </trkpt>
      <trkpt lat="43.73314549215138" lon="11.927192816510797">
        <ele>950.39999999999998</ele>
        <time>2016-06-04T09:22:37Z</time>
      </trkpt>
      <trkpt lat="43.733032336458564" lon="11.927182925865054">
        <ele>950.39999999999998</ele>
        <time>2016-06-04T09:22:48Z</time>
      </trkpt>
      <trkpt lat="43.732911134138703" lon="11.927178231999278">
        <ele>950.39999999999998</ele>
        <time>2016-06-04T09:22:59Z</time>
      </trkpt>
      <trkpt lat="43.732808707281947" lon="11.927201366052032">
        <ele>951.36000000000001</ele>
        <time>2016-06-04T09:23:08Z</time>
      </trkpt>
      <trkpt lat="43.732706364244223" lon="11.927208071574569">
        <ele>952.32000000000005</ele>
        <time>2016-06-04T09:23:19Z</time>
      </trkpt>
      <trkpt lat="43.732605529949069" lon="11.927200946956873">
        <ele>954.25</ele>
        <time>2016-06-04T09:23:31Z</time>
      </trkpt>
      <trkpt lat="43.732528248801827" lon="11.927184015512466">
        <ele>955.69000000000005</ele>
        <time>2016-06-04T09:23:41Z</time>
      </trkpt>
      <trkpt lat="43.73243554495275" lon="11.927135149016976">
        <ele>958.09000000000003</ele>
        <time>2016-06-04T09:23:53Z</time>
      </trkpt>
      <trkpt lat="43.732379134744406" lon="11.92717052064836">
        <ele>960.00999999999999</ele>
        <time>2016-06-04T09:24:04Z</time>
      </trkpt>
      <trkpt lat="43.732296237722039" lon="11.927178902551532">
        <ele>962.41999999999996</ele>
        <time>2016-06-04T09:24:17Z</time>
      </trkpt>
      <trkpt lat="43.732219878584146" lon="11.92717638798058">
        <ele>964.82000000000005</ele>
        <time>2016-06-04T09:24:29Z</time>
      </trkpt>
      <trkpt lat="43.732170341536403" lon="11.927191559225321">
        <ele>966.25999999999999</ele>
        <time>2016-06-04T09:24:38Z</time>
      </trkpt>
      <trkpt lat="43.732097586616874" lon="11.927155684679747">
        <ele>968.17999999999995</ele>
        <time>2016-06-04T09:24:49Z</time>
      </trkpt>
      <trkpt lat="43.732041511684656" lon="11.927077481523156">
        <ele>971.07000000000005</ele>
        <time>2016-06-04T09:25:03Z</time>
      </trkpt>
      <trkpt lat="43.731986023485661" lon="11.927100112661719">
        <ele>972.99000000000001</ele>
        <time>2016-06-04T09:25:15Z</time>
      </trkpt>
      <trkpt lat="43.731920309364796" lon="11.927115367725492">
        <ele>975.38999999999999</ele>
        <time>2016-06-04T09:25:26Z</time>
      </trkpt>
      <trkpt lat="43.7318682577461" lon="11.92709575407207">
        <ele>977.79999999999995</ele>
        <time>2016-06-04T09:25:36Z</time>
      </trkpt>
      <trkpt lat="43.731809668242931" lon="11.927045462653041">
        <ele>979.72000000000003</ele>
        <time>2016-06-04T09:25:49Z</time>
      </trkpt>
      <trkpt lat="43.731750994920731" lon="11.92701025865972">
        <ele>981.63999999999999</ele>
        <time>2016-06-04T09:26:00Z</time>
      </trkpt>
      <trkpt lat="43.731688717380166" lon="11.926997853443027">
        <ele>983.57000000000005</ele>
        <time>2016-06-04T09:26:12Z</time>
      </trkpt>
      <trkpt lat="43.731601713225245" lon="11.927000116556883">
        <ele>985.49000000000001</ele>
        <time>2016-06-04T09:26:23Z</time>
      </trkpt>
      <trkpt lat="43.73151496052742" lon="11.926930127665401">
        <ele>985.97000000000003</ele>
        <time>2016-06-04T09:26:35Z</time>
      </trkpt>
      <trkpt lat="43.731460478156805" lon="11.926896935328841">
        <ele>985.97000000000003</ele>
        <time>2016-06-04T09:26:41Z</time>
      </trkpt>
      <trkpt lat="43.731337767094374" lon="11.926916129887104">
        <ele>985.00999999999999</ele>
        <time>2016-06-04T09:26:51Z</time>
      </trkpt>
      <trkpt lat="43.731166692450643" lon="11.926905233412981">
        <ele>985.97000000000003</ele>
        <time>2016-06-04T09:27:05Z</time>
      </trkpt>
      <trkpt lat="43.731089411303401" lon="11.926860306411982">
        <ele>986.92999999999995</ele>
        <time>2016-06-04T09:27:14Z</time>
      </trkpt>
      <trkpt lat="43.731009615585208" lon="11.926828287541866">
        <ele>987.88999999999999</ele>
        <time>2016-06-04T09:27:22Z</time>
      </trkpt>
      <trkpt lat="43.730978686362505" lon="11.926817391067743">
        <ele>987.88999999999999</ele>
        <time>2016-06-04T09:27:25Z</time>
      </trkpt>
      <trkpt lat="43.730866955593228" lon="11.926758801564574">
        <ele>988.85000000000002</ele>
        <time>2016-06-04T09:27:35Z</time>
      </trkpt>
      <trkpt lat="43.730765534564853" lon="11.926689734682441">
        <ele>989.33000000000004</ele>
        <time>2016-06-04T09:27:46Z</time>
      </trkpt>
      <trkpt lat="43.730627568438649" lon="11.926634833216667">
        <ele>990.29999999999995</ele>
        <time>2016-06-04T09:27:59Z</time>
      </trkpt>
      <trkpt lat="43.730521788820624" lon="11.926609687507153">
        <ele>991.25999999999999</ele>
        <time>2016-06-04T09:28:10Z</time>
      </trkpt>
      <trkpt lat="43.730498738586903" lon="11.926614968106151">
        <ele>991.74000000000001</ele>
        <time>2016-06-04T09:28:12Z</time>
      </trkpt>
      <trkpt lat="43.730385666713119" lon="11.926629468798637">
        <ele>993.17999999999995</ele>
        <time>2016-06-04T09:28:24Z</time>
      </trkpt>
      <trkpt lat="43.730256333947182" lon="11.926646651700139">
        <ele>993.65999999999997</ele>
        <time>2016-06-04T09:28:36Z</time>
      </trkpt>
      <trkpt lat="43.730247113853693" lon="11.926644640043378">
        <ele>993.65999999999997</ele>
        <time>2016-06-04T09:28:37Z</time>
      </trkpt>
      <trkpt lat="43.730105208232999" lon="11.92663692869246">
        <ele>993.65999999999997</ele>
        <time>2016-06-04T09:28:49Z</time>
      </trkpt>
      <trkpt lat="43.72993279248476" lon="11.926586804911494">
        <ele>993.65999999999997</ele>
        <time>2016-06-04T09:29:03Z</time>
      </trkpt>
      <trkpt lat="43.729859869927168" lon="11.926576746627688">
        <ele>993.65999999999997</ele>
        <time>2016-06-04T09:29:10Z</time>
      </trkpt>
      <trkpt lat="43.72970363125205" lon="11.926539279520512">
        <ele>993.65999999999997</ele>
        <time>2016-06-04T09:29:23Z</time>
      </trkpt>
      <trkpt lat="43.72954286634922" lon="11.926515307277441">
        <ele>993.65999999999997</ele>
        <time>2016-06-04T09:29:37Z</time>
      </trkpt>
      <trkpt lat="43.72938402928412" lon="11.926536094397306">
        <ele>993.65999999999997</ele>
        <time>2016-06-04T09:29:51Z</time>
      </trkpt>
      <trkpt lat="43.72937573119998" lon="11.926539866253734">
        <ele>993.65999999999997</ele>
        <time>2016-06-04T09:29:52Z</time>
      </trkpt>
      <trkpt lat="43.729356452822685" lon="11.926555037498474">
        <ele>993.65999999999997</ele>
        <time>2016-06-04T09:29:54Z</time>
      </trkpt>
      <trkpt lat="43.729216055944562" lon="11.926572052761912">
        <ele>993.65999999999997</ele>
        <time>2016-06-04T09:30:07Z</time>
      </trkpt>
      <trkpt lat="43.729121927171946" lon="11.926580183207989">
        <ele>994.13999999999999</ele>
        <time>2016-06-04T09:30:16Z</time>
      </trkpt>
      <trkpt lat="43.729042382910848" lon="11.926602898165584">
        <ele>994.13999999999999</ele>
        <time>2016-06-04T09:30:22Z</time>
      </trkpt>
      <trkpt lat="43.728921264410019" lon="11.926635671406984">
        <ele>995.58000000000004</ele>
        <time>2016-06-04T09:30:33Z</time>
      </trkpt>
      <trkpt lat="43.728825962170959" lon="11.926662996411324">
        <ele>995.58000000000004</ele>
        <time>2016-06-04T09:30:42Z</time>
      </trkpt>
      <trkpt lat="43.728703418746591" lon="11.926655620336533">
        <ele>996.05999999999995</ele>
        <time>2016-06-04T09:30:53Z</time>
      </trkpt>
      <trkpt lat="43.728589843958616" lon="11.926709599792957">
        <ele>996.53999999999996</ele>
        <time>2016-06-04T09:31:05Z</time>
      </trkpt>
      <trkpt lat="43.72848398052156" lon="11.926777828484774">
        <ele>996.53999999999996</ele>
        <time>2016-06-04T09:31:16Z</time>
      </trkpt>
      <trkpt lat="43.728414997458458" lon="11.92684605717659">
        <ele>997.01999999999998</ele>
        <time>2016-06-04T09:31:24Z</time>
      </trkpt>
      <trkpt lat="43.728323969990015" lon="11.92693498916924">
        <ele>997.99000000000001</ele>
        <time>2016-06-04T09:31:34Z</time>
      </trkpt>
      <trkpt lat="43.728225398808718" lon="11.927031464874744">
        <ele>998.95000000000005</ele>
        <time>2016-06-04T09:31:46Z</time>
      </trkpt>
      <trkpt lat="43.728197989985347" lon="11.927048312500119">
        <ele>999.42999999999995</ele>
        <time>2016-06-04T09:31:49Z</time>
      </trkpt>
      <trkpt lat="43.728089444339275" lon="11.927126348018646">
        <ele>1000.39</ele>
        <time>2016-06-04T09:32:01Z</time>
      </trkpt>
      <trkpt lat="43.728073602542281" lon="11.92713774740696">
        <ele>1000.39</ele>
        <time>2016-06-04T09:32:03Z</time>
      </trkpt>
      <trkpt lat="43.728003781288862" lon="11.92722232080996">
        <ele>1001.35</ele>
        <time>2016-06-04T09:32:12Z</time>
      </trkpt>
      <trkpt lat="43.727915268391371" lon="11.927304631099105">
        <ele>1001.83</ele>
        <time>2016-06-04T09:32:22Z</time>
      </trkpt>
      <trkpt lat="43.727789707481861" lon="11.927334135398269">
        <ele>1001.83</ele>
        <time>2016-06-04T09:32:33Z</time>
      </trkpt>
      <trkpt lat="43.72764403000474" lon="11.927310833707452">
        <ele>999.90999999999997</ele>
        <time>2016-06-04T09:32:47Z</time>
      </trkpt>
      <trkpt lat="43.727495754137635" lon="11.927313515916467">
        <ele>999.42999999999995</ele>
        <time>2016-06-04T09:33:00Z</time>
      </trkpt>
      <trkpt lat="43.727407911792397" lon="11.927297674119473">
        <ele>998.47000000000003</ele>
        <time>2016-06-04T09:33:07Z</time>
      </trkpt>
      <trkpt lat="43.727361811324954" lon="11.927319131791592">
        <ele>998.47000000000003</ele>
        <time>2016-06-04T09:33:18Z</time>
      </trkpt>
      <trkpt lat="43.727297941222787" lon="11.927363472059369">
        <ele>997.99000000000001</ele>
        <time>2016-06-04T09:33:30Z</time>
      </trkpt>
      <trkpt lat="43.727287799119949" lon="11.927363304421306">
        <ele>997.99000000000001</ele>
        <time>2016-06-04T09:33:39Z</time>
      </trkpt>
      <trkpt lat="43.727283105254173" lon="11.92733027972281">
        <ele>997.50999999999999</ele>
        <time>2016-06-04T09:33:55Z</time>
      </trkpt>
      <trkpt lat="43.727287631481886" lon="11.92736447788775">
        <ele>997.01999999999998</ele>
        <time>2016-06-04T09:34:03Z</time>
      </trkpt>
      <trkpt lat="43.727273298427463" lon="11.927392138168216">
        <ele>996.53999999999996</ele>
        <time>2016-06-04T09:34:23Z</time>
      </trkpt>
      <trkpt lat="43.727258965373039" lon="11.927374619990587">
        <ele>997.01999999999998</ele>
        <time>2016-06-04T09:34:54Z</time>
      </trkpt>
      <trkpt lat="43.727263659238815" lon="11.927387109026313">
        <ele>997.01999999999998</ele>
        <time>2016-06-04T09:35:20Z</time>
      </trkpt>
      <trkpt lat="43.727272041141987" lon="11.92739624530077">
        <ele>997.50999999999999</ele>
        <time>2016-06-04T09:35:43Z</time>
      </trkpt>
      <trkpt lat="43.727269191294909" lon="11.927371853962541">
        <ele>997.99000000000001</ele>
        <time>2016-06-04T09:36:05Z</time>
      </trkpt>
      <trkpt lat="43.727259384468198" lon="11.927354671061039">
        <ele>997.50999999999999</ele>
        <time>2016-06-04T09:36:25Z</time>
      </trkpt>
      <trkpt lat="43.727252678945661" lon="11.927342265844345">
        <ele>998.47000000000003</ele>
        <time>2016-06-04T09:36:53Z</time>
      </trkpt>
      <trkpt lat="43.727262150496244" lon="11.927409488707781">
        <ele>997.99000000000001</ele>
        <time>2016-06-04T09:37:15Z</time>
      </trkpt>
      <trkpt lat="43.727245135232806" lon="11.927433125674725">
        <ele>997.99000000000001</ele>
        <time>2016-06-04T09:37:38Z</time>
      </trkpt>
      <trkpt lat="43.727235328406096" lon="11.927424911409616">
        <ele>998.47000000000003</ele>
        <time>2016-06-04T09:38:04Z</time>
      </trkpt>
      <trkpt lat="43.727253852412105" lon="11.927407644689083">
        <ele>998.95000000000005</ele>
        <time>2016-06-04T09:38:33Z</time>
      </trkpt>
      <trkpt lat="43.727244045585394" lon="11.927393982186913">
        <ele>998.95000000000005</ele>
        <time>2016-06-04T09:39:02Z</time>
      </trkpt>
      <trkpt lat="43.727237926796079" lon="11.927394904196262">
        <ele>999.42999999999995</ele>
        <time>2016-06-04T09:39:32Z</time>
      </trkpt>
      <trkpt lat="43.727246727794409" lon="11.927381996065378">
        <ele>999.90999999999997</ele>
        <time>2016-06-04T09:39:43Z</time>
      </trkpt>
      <trkpt lat="43.727250751107931" lon="11.927356012165546">
        <ele>999.90999999999997</ele>
        <time>2016-06-04T09:39:54Z</time>
      </trkpt>
      <trkpt lat="43.727248487994075" lon="11.927367495372891">
        <ele>999.42999999999995</ele>
        <time>2016-06-04T09:40:11Z</time>
      </trkpt>
      <trkpt lat="43.727242201566696" lon="11.927389539778233">
        <ele>1000.39</ele>
        <time>2016-06-04T09:40:22Z</time>
      </trkpt>
      <trkpt lat="43.727236334234476" lon="11.927332123741508">
        <ele>1000.39</ele>
        <time>2016-06-04T09:40:34Z</time>
      </trkpt>
      <trkpt lat="43.727250751107931" lon="11.927330782637">
        <ele>1001.35</ele>
        <time>2016-06-04T09:40:46Z</time>
      </trkpt>
      <trkpt lat="43.727232562378049" lon="11.927403453737497">
        <ele>1000.87</ele>
        <time>2016-06-04T09:40:57Z</time>
      </trkpt>
      <trkpt lat="43.727131728082895" lon="11.92744511179626">
        <ele>1000.87</ele>
        <time>2016-06-04T09:41:07Z</time>
      </trkpt>
      <trkpt lat="43.727051094174385" lon="11.927520716562867">
        <ele>1000.39</ele>
        <time>2016-06-04T09:41:17Z</time>
      </trkpt>
      <trkpt lat="43.726904578506947" lon="11.927604032680392">
        <ele>1001.35</ele>
        <time>2016-06-04T09:41:31Z</time>
      </trkpt>
      <trkpt lat="43.726875241845846" lon="11.92762054502964">
        <ele>1001.35</ele>
        <time>2016-06-04T09:41:34Z</time>
      </trkpt>
      <trkpt lat="43.726810198277235" lon="11.927650049328804">
        <ele>1001.35</ele>
        <time>2016-06-04T09:41:40Z</time>
      </trkpt>
      <trkpt lat="43.726695869117975" lon="11.927702771499753">
        <ele>1000.87</ele>
        <time>2016-06-04T09:41:51Z</time>
      </trkpt>
      <trkpt lat="43.726534685119987" lon="11.92772414535284">
        <ele>1000.39</ele>
        <time>2016-06-04T09:42:04Z</time>
      </trkpt>
      <trkpt lat="43.726423876360059" lon="11.927720289677382">
        <ele>1000.39</ele>
        <time>2016-06-04T09:42:14Z</time>
      </trkpt>
      <trkpt lat="43.726275851950049" lon="11.927774352952838">
        <ele>1000.87</ele>
        <time>2016-06-04T09:42:26Z</time>
      </trkpt>
      <trkpt lat="43.72617862187326" lon="11.927864709869027">
        <ele>1001.35</ele>
        <time>2016-06-04T09:42:36Z</time>
      </trkpt>
      <trkpt lat="43.726085918024182" lon="11.927967220544815">
        <ele>1002.79</ele>
        <time>2016-06-04T09:42:47Z</time>
      </trkpt>
      <trkpt lat="43.726065130904317" lon="11.927992450073361">
        <ele>1003.27</ele>
        <time>2016-06-04T09:42:50Z</time>
      </trkpt>
      <trkpt lat="43.726040907204151" lon="11.928010890260339">
        <ele>1003.75</ele>
        <time>2016-06-04T09:42:53Z</time>
      </trkpt>
      <trkpt lat="43.725972091779113" lon="11.928050201386213">
        <ele>1005.2</ele>
        <time>2016-06-04T09:43:03Z</time>
      </trkpt>
      <trkpt lat="43.725945604965091" lon="11.928081382066011">
        <ele>1006.16</ele>
        <time>2016-06-04T09:43:07Z</time>
      </trkpt>
      <trkpt lat="43.725860780104995" lon="11.928123123943806">
        <ele>1007.6</ele>
        <time>2016-06-04T09:43:17Z</time>
      </trkpt>
      <trkpt lat="43.725750977173448" lon="11.928142653778195">
        <ele>1009.04</ele>
        <time>2016-06-04T09:43:28Z</time>
      </trkpt>
      <trkpt lat="43.72566313482821" lon="11.928147096186876">
        <ele>1010</ele>
        <time>2016-06-04T09:43:39Z</time>
      </trkpt>
      <trkpt lat="43.725659111514688" lon="11.928149778395891">
        <ele>1009.52</ele>
        <time>2016-06-04T09:43:42Z</time>
      </trkpt>
      <trkpt lat="43.725495496764779" lon="11.92813603207469">
        <ele>1008.5599999999999</ele>
        <time>2016-06-04T09:43:55Z</time>
      </trkpt>
      <trkpt lat="43.725436320528388" lon="11.928122285753489">
        <ele>1008.08</ele>
        <time>2016-06-04T09:44:00Z</time>
      </trkpt>
      <trkpt lat="43.725264156237245" lon="11.928079035133123">
        <ele>1006.16</ele>
        <time>2016-06-04T09:44:14Z</time>
      </trkpt>
      <trkpt lat="43.725148485973477" lon="11.928049866110086">
        <ele>1005.6799999999999</ele>
        <time>2016-06-04T09:44:24Z</time>
      </trkpt>
      <trkpt lat="43.725020242854953" lon="11.928002005442977">
        <ele>1004.72</ele>
        <time>2016-06-04T09:44:35Z</time>
      </trkpt>
      <trkpt lat="43.724886300042272" lon="11.927932351827621">
        <ele>1005.2</ele>
        <time>2016-06-04T09:44:47Z</time>
      </trkpt>
      <trkpt lat="43.724873894825578" lon="11.92793034017086">
        <ele>1005.2</ele>
        <time>2016-06-04T09:44:48Z</time>
      </trkpt>
      <trkpt lat="43.724703993648291" lon="11.927933190017939">
        <ele>1005.6799999999999</ele>
        <time>2016-06-04T09:45:02Z</time>
      </trkpt>
      <trkpt lat="43.724642051383853" lon="11.927950624376535">
        <ele>1006.16</ele>
        <time>2016-06-04T09:45:07Z</time>
      </trkpt>
      <trkpt lat="43.724608775228262" lon="11.927959509193897">
        <ele>1006.64</ele>
        <time>2016-06-04T09:45:10Z</time>
      </trkpt>
      <trkpt lat="43.724539373070002" lon="11.928022122010589">
        <ele>1007.6</ele>
        <time>2016-06-04T09:45:22Z</time>
      </trkpt>
      <trkpt lat="43.724509030580521" lon="11.928053637966514">
        <ele>1008.08</ele>
        <time>2016-06-04T09:45:33Z</time>
      </trkpt>
      <trkpt lat="43.724472569301724" lon="11.928103258833289">
        <ele>1008.08</ele>
        <time>2016-06-04T09:45:46Z</time>
      </trkpt>
      <trkpt lat="43.724363436922431" lon="11.928226724267006">
        <ele>1008.5599999999999</ele>
        <time>2016-06-04T09:45:59Z</time>
      </trkpt>
      <trkpt lat="43.724270733073354" lon="11.928304675966501">
        <ele>1010</ele>
        <time>2016-06-04T09:46:11Z</time>
      </trkpt>
      <trkpt lat="43.72422756627202" lon="11.928241476416588">
        <ele>1010.96</ele>
        <time>2016-06-04T09:46:22Z</time>
      </trkpt>
      <trkpt lat="43.724182052537799" lon="11.928201159462333">
        <ele>1012.89</ele>
        <time>2016-06-04T09:46:32Z</time>
      </trkpt>
      <trkpt lat="43.724176436662674" lon="11.928198896348476">
        <ele>1012.89</ele>
        <time>2016-06-04T09:46:33Z</time>
      </trkpt>
      <trkpt lat="43.724161013960838" lon="11.928183557465672">
        <ele>1012.89</ele>
        <time>2016-06-04T09:46:35Z</time>
      </trkpt>
      <trkpt lat="43.724149782210588" lon="11.928181797266006">
        <ele>1012.89</ele>
        <time>2016-06-04T09:46:45Z</time>
      </trkpt>
      <trkpt lat="43.724151290953159" lon="11.928179701790214">
        <ele>1012.89</ele>
        <time>2016-06-04T09:47:02Z</time>
      </trkpt>
      <trkpt lat="43.724188255146146" lon="11.928196046501398">
        <ele>1012.89</ele>
        <time>2016-06-04T09:47:13Z</time>
      </trkpt>
      <trkpt lat="43.724218010902405" lon="11.928208870813251">
        <ele>1012.41</ele>
        <time>2016-06-04T09:47:23Z</time>
      </trkpt>
      <trkpt lat="43.724249610677361" lon="11.928238207474351">
        <ele>1010.96</ele>
        <time>2016-06-04T09:47:36Z</time>
      </trkpt>
      <trkpt lat="43.724256651476026" lon="11.928281793370843">
        <ele>1009.52</ele>
        <time>2016-06-04T09:47:41Z</time>
      </trkpt>
      <trkpt lat="43.724156068637967" lon="11.928347088396549">
        <ele>1008.08</ele>
        <time>2016-06-04T09:47:50Z</time>
      </trkpt>
      <trkpt lat="43.724006870761514" lon="11.928379023447633">
        <ele>1007.12</ele>
        <time>2016-06-04T09:48:02Z</time>
      </trkpt>
      <trkpt lat="43.72395733371377" lon="11.928385645151138">
        <ele>1007.12</ele>
        <time>2016-06-04T09:48:06Z</time>
      </trkpt>
      <trkpt lat="43.72387426905334" lon="11.928415317088366">
        <ele>1006.64</ele>
        <time>2016-06-04T09:48:13Z</time>
      </trkpt>
      <trkpt lat="43.723803861066699" lon="11.928442222997546">
        <ele>1006.16</ele>
        <time>2016-06-04T09:48:19Z</time>
      </trkpt>
      <trkpt lat="43.723675450310111" lon="11.928513133898377">
        <ele>1005.6799999999999</ele>
        <time>2016-06-04T09:48:30Z</time>
      </trkpt>
      <trkpt lat="43.723547710105777" lon="11.928552864119411">
        <ele>1005.2</ele>
        <time>2016-06-04T09:48:41Z</time>
      </trkpt>
      <trkpt lat="43.723489539697766" lon="11.928566945716739">
        <ele>1003.27</ele>
        <time>2016-06-04T09:48:54Z</time>
      </trkpt>
      <trkpt lat="43.72336951084435" lon="11.928658559918404">
        <ele>1001.35</ele>
        <time>2016-06-04T09:49:07Z</time>
      </trkpt>
      <trkpt lat="43.723267586901784" lon="11.928746988996863">
        <ele>999.90999999999997</ele>
        <time>2016-06-04T09:49:18Z</time>
      </trkpt>
      <trkpt lat="43.723245207220316" lon="11.92876098677516">
        <ele>999.42999999999995</ele>
        <time>2016-06-04T09:49:20Z</time>
      </trkpt>
      <trkpt lat="43.723119730129838" lon="11.928882440552115">
        <ele>997.50999999999999</ele>
        <time>2016-06-04T09:49:32Z</time>
      </trkpt>
      <trkpt lat="43.723038760945201" lon="11.928948825225234">
        <ele>996.53999999999996</ele>
        <time>2016-06-04T09:49:41Z</time>
      </trkpt>
      <trkpt lat="43.722996935248375" lon="11.928983442485332">
        <ele>996.05999999999995</ele>
        <time>2016-06-04T09:49:50Z</time>
      </trkpt>
      <trkpt lat="43.722959468141198" lon="11.929083690047264">
        <ele>995.58000000000004</ele>
        <time>2016-06-04T09:50:00Z</time>
      </trkpt>
      <trkpt lat="43.722913702949882" lon="11.92921444773674">
        <ele>995.10000000000002</ele>
        <time>2016-06-04T09:50:09Z</time>
      </trkpt>
      <trkpt lat="43.722882773727179" lon="11.929296338930726">
        <ele>994.62</ele>
        <time>2016-06-04T09:50:16Z</time>
      </trkpt>
      <trkpt lat="43.722797697409987" lon="11.929430617019534">
        <ele>994.13999999999999</ele>
        <time>2016-06-04T09:50:28Z</time>
      </trkpt>
      <trkpt lat="43.722720164805651" lon="11.929549723863602">
        <ele>994.62</ele>
        <time>2016-06-04T09:50:40Z</time>
      </trkpt>
      <trkpt lat="43.722664592787623" lon="11.929620215669274">
        <ele>994.62</ele>
        <time>2016-06-04T09:50:50Z</time>
      </trkpt>
      <trkpt lat="43.722557555884123" lon="11.929755164310336">
        <ele>995.10000000000002</ele>
        <time>2016-06-04T09:51:04Z</time>
      </trkpt>
      <trkpt lat="43.722521178424358" lon="11.929846275597811">
        <ele>995.58000000000004</ele>
        <time>2016-06-04T09:51:13Z</time>
      </trkpt>
      <trkpt lat="43.722454961389303" lon="11.929931184276938">
        <ele>996.05999999999995</ele>
        <time>2016-06-04T09:51:24Z</time>
      </trkpt>
      <trkpt lat="43.722356054931879" lon="11.93004903383553">
        <ele>996.53999999999996</ele>
        <time>2016-06-04T09:51:37Z</time>
      </trkpt>
      <trkpt lat="43.722324203699827" lon="11.930081890895963">
        <ele>996.53999999999996</ele>
        <time>2016-06-04T09:51:51Z</time>
      </trkpt>
      <trkpt lat="43.722317581996322" lon="11.930080214515328">
        <ele>996.53999999999996</ele>
        <time>2016-06-04T09:51:54Z</time>
      </trkpt>
      <trkpt lat="43.722321605309844" lon="11.93007736466825">
        <ele>997.99000000000001</ele>
        <time>2016-06-04T09:52:14Z</time>
      </trkpt>
      <trkpt lat="43.722293190658092" lon="11.930084070190787">
        <ele>997.01999999999998</ele>
        <time>2016-06-04T09:52:23Z</time>
      </trkpt>
      <trkpt lat="43.722315486520529" lon="11.930117765441537">
        <ele>996.05999999999995</ele>
        <time>2016-06-04T09:52:37Z</time>
      </trkpt>
      <trkpt lat="43.722212556749582" lon="11.930240644142032">
        <ele>995.10000000000002</ele>
        <time>2016-06-04T09:52:49Z</time>
      </trkpt>
      <trkpt lat="43.722175089642406" lon="11.930284146219492">
        <ele>995.10000000000002</ele>
        <time>2016-06-04T09:52:56Z</time>
      </trkpt>
      <trkpt lat="43.722143406048417" lon="11.930331084877253">
        <ele>994.62</ele>
        <time>2016-06-04T09:53:01Z</time>
      </trkpt>
      <trkpt lat="43.722054893150926" lon="11.93046729080379">
        <ele>995.10000000000002</ele>
        <time>2016-06-04T09:53:13Z</time>
      </trkpt>
      <trkpt lat="43.721964871510863" lon="11.930614896118641">
        <ele>995.58000000000004</ele>
        <time>2016-06-04T09:53:25Z</time>
      </trkpt>
      <trkpt lat="43.721889769658446" lon="11.930721262469888">
        <ele>996.05999999999995</ele>
        <time>2016-06-04T09:53:36Z</time>
      </trkpt>
      <trkpt lat="43.721812404692173" lon="11.930846488103271">
        <ele>997.01999999999998</ele>
        <time>2016-06-04T09:53:49Z</time>
      </trkpt>
      <trkpt lat="43.721734285354614" lon="11.931002223864198">
        <ele>998.47000000000003</ele>
        <time>2016-06-04T09:54:02Z</time>
      </trkpt>
      <trkpt lat="43.721674773842096" lon="11.931076655164361">
        <ele>999.42999999999995</ele>
        <time>2016-06-04T09:54:12Z</time>
      </trkpt>
      <trkpt lat="43.721627667546272" lon="11.931190062314272">
        <ele>999.90999999999997</ele>
        <time>2016-06-04T09:54:28Z</time>
      </trkpt>
      <trkpt lat="43.721573101356626" lon="11.931345043703914">
        <ele>1001.35</ele>
        <time>2016-06-04T09:54:40Z</time>
      </trkpt>
      <trkpt lat="43.721518283709884" lon="11.931462725624442">
        <ele>1003.27</ele>
        <time>2016-06-04T09:54:51Z</time>
      </trkpt>
      <trkpt lat="43.721460029482841" lon="11.931571438908577">
        <ele>1004.23</ele>
        <time>2016-06-04T09:55:02Z</time>
      </trkpt>
      <trkpt lat="43.721362296491861" lon="11.931734718382359">
        <ele>1004.72</ele>
        <time>2016-06-04T09:55:16Z</time>
      </trkpt>
      <trkpt lat="43.721354166045785" lon="11.931786183267832">
        <ele>1004.72</ele>
        <time>2016-06-04T09:55:24Z</time>
      </trkpt>
      <trkpt lat="43.721332708373666" lon="11.931810071691871">
        <ele>1004.72</ele>
        <time>2016-06-04T09:55:32Z</time>
      </trkpt>
      <trkpt lat="43.721198597922921" lon="11.93188919685781">
        <ele>1005.6799999999999</ele>
        <time>2016-06-04T09:55:43Z</time>
      </trkpt>
      <trkpt lat="43.721072701737285" lon="11.931983074173331">
        <ele>1006.64</ele>
        <time>2016-06-04T09:55:57Z</time>
      </trkpt>
      <trkpt lat="43.720970023423433" lon="11.932010902091861">
        <ele>1007.6</ele>
        <time>2016-06-04T09:56:07Z</time>
      </trkpt>
      <trkpt lat="43.720892239362001" lon="11.93204702809453">
        <ele>1009.04</ele>
        <time>2016-06-04T09:56:16Z</time>
      </trkpt>
      <trkpt lat="43.72075485996902" lon="11.932114753872156">
        <ele>1009.52</ele>
        <time>2016-06-04T09:56:30Z</time>
      </trkpt>
      <trkpt lat="43.72064690105617" lon="11.932186502963305">
        <ele>1010.96</ele>
        <time>2016-06-04T09:56:42Z</time>
      </trkpt>
      <trkpt lat="43.720616558566689" lon="11.932200584560633">
        <ele>1011.4400000000001</ele>
        <time>2016-06-04T09:56:45Z</time>
      </trkpt>
      <trkpt lat="43.720505498349667" lon="11.9322678912431">
        <ele>1012.89</ele>
        <time>2016-06-04T09:56:57Z</time>
      </trkpt>
      <trkpt lat="43.720489488914609" lon="11.932274512946606">
        <ele>1013.37</ele>
        <time>2016-06-04T09:56:59Z</time>
      </trkpt>
      <trkpt lat="43.720464762300253" lon="11.93227862007916">
        <ele>1013.37</ele>
        <time>2016-06-04T09:57:01Z</time>
      </trkpt>
      <trkpt lat="43.720339201390743" lon="11.932265544310212">
        <ele>1013.85</ele>
        <time>2016-06-04T09:57:14Z</time>
      </trkpt>
      <trkpt lat="43.720293520018458" lon="11.932236542925239">
        <ele>1013.85</ele>
        <time>2016-06-04T09:57:21Z</time>
      </trkpt>
      <trkpt lat="43.720269799232483" lon="11.932221120223403">
        <ele>1016.25</ele>
        <time>2016-06-04T09:57:23Z</time>
      </trkpt>
      <trkpt lat="43.720187656581402" lon="11.932154567912221">
        <ele>1017.21</ele>
        <time>2016-06-04T09:57:34Z</time>
      </trkpt>
      <trkpt lat="43.720099814236164" lon="11.932055996730924">
        <ele>1018.65</ele>
        <time>2016-06-04T09:57:45Z</time>
      </trkpt>
      <trkpt lat="43.720008786767721" lon="11.931965555995703">
        <ele>1019.62</ele>
        <time>2016-06-04T09:57:56Z</time>
      </trkpt>
      <trkpt lat="43.719990430399776" lon="11.931958682835102">
        <ele>1019.62</ele>
        <time>2016-06-04T09:57:58Z</time>
      </trkpt>
      <trkpt lat="43.719871826469898" lon="11.931956000626087">
        <ele>1021.0599999999999</ele>
        <time>2016-06-04T09:58:10Z</time>
      </trkpt>
      <trkpt lat="43.719766801223159" lon="11.931992210447788">
        <ele>1022.02</ele>
        <time>2016-06-04T09:58:21Z</time>
      </trkpt>
      <trkpt lat="43.719686586409807" lon="11.93208415992558">
        <ele>1022.5</ele>
        <time>2016-06-04T09:58:31Z</time>
      </trkpt>
      <trkpt lat="43.719653226435184" lon="11.932112155482173">
        <ele>1022.02</ele>
        <time>2016-06-04T09:58:35Z</time>
      </trkpt>
      <trkpt lat="43.719585333019495" lon="11.932159848511219">
        <ele>1022.02</ele>
        <time>2016-06-04T09:58:42Z</time>
      </trkpt>
      <trkpt lat="43.719522720202804" lon="11.932218689471483">
        <ele>1022.5</ele>
        <time>2016-06-04T09:58:53Z</time>
      </trkpt>
      <trkpt lat="43.71951861307025" lon="11.932229166850448">
        <ele>1022.5</ele>
        <time>2016-06-04T09:58:57Z</time>
      </trkpt>
      <trkpt lat="43.719492126256227" lon="11.932303262874484">
        <ele>1022.5</ele>
        <time>2016-06-04T09:59:07Z</time>
      </trkpt>
      <trkpt lat="43.719417778775096" lon="11.932265125215054">
        <ele>1022.5</ele>
        <time>2016-06-04T09:59:15Z</time>
      </trkpt>
      <trkpt lat="43.719379976391792" lon="11.932210642844439">
        <ele>1022.5</ele>
        <time>2016-06-04T09:59:25Z</time>
      </trkpt>
      <trkpt lat="43.719362625852227" lon="11.932213995605707">
        <ele>1022.5</ele>
        <time>2016-06-04T09:59:37Z</time>
      </trkpt>
      <trkpt lat="43.719289368018508" lon="11.932131936773658">
        <ele>1022.5</ele>
        <time>2016-06-04T09:59:49Z</time>
      </trkpt>
      <trkpt lat="43.719305545091629" lon="11.932167392224073">
        <ele>1022.98</ele>
        <time>2016-06-04T10:00:04Z</time>
      </trkpt>
      <trkpt lat="43.719236729666591" lon="11.932162279263139">
        <ele>1022.98</ele>
        <time>2016-06-04T10:00:14Z</time>
      </trkpt>
      <trkpt lat="43.719192389398813" lon="11.932169822975993">
        <ele>1022.98</ele>
        <time>2016-06-04T10:00:25Z</time>
      </trkpt>
      <trkpt lat="43.719167076051235" lon="11.932181557640433">
        <ele>1022.5</ele>
        <time>2016-06-04T10:00:34Z</time>
      </trkpt>
      <trkpt lat="43.719064146280289" lon="11.932229334488511">
        <ele>1022.98</ele>
        <time>2016-06-04T10:00:50Z</time>
      </trkpt>
      <trkpt lat="43.719050483778119" lon="11.932240817695856">
        <ele>1024.9000000000001</ele>
        <time>2016-06-04T10:00:53Z</time>
      </trkpt>
      <trkpt lat="43.718947134912014" lon="11.932284319773316">
        <ele>1027.3099999999999</ele>
        <time>2016-06-04T10:01:05Z</time>
      </trkpt>
      <trkpt lat="43.718898771330714" lon="11.932346345856786">
        <ele>1029.23</ele>
        <time>2016-06-04T10:01:16Z</time>
      </trkpt>
      <trkpt lat="43.718898100778461" lon="11.932464865967631">
        <ele>1030.6700000000001</ele>
        <time>2016-06-04T10:01:29Z</time>
      </trkpt>
      <trkpt lat="43.718892484903336" lon="11.932533262297511">
        <ele>1031.6300000000001</ele>
        <time>2016-06-04T10:01:35Z</time>
      </trkpt>
      <trkpt lat="43.7188804987818" lon="11.932616829872131">
        <ele>1032.5899999999999</ele>
        <time>2016-06-04T10:01:45Z</time>
      </trkpt>
      <trkpt lat="43.718854850158095" lon="11.932677263393998">
        <ele>1034.52</ele>
        <time>2016-06-04T10:01:56Z</time>
      </trkpt>
      <trkpt lat="43.718825848773122" lon="11.932759154587984">
        <ele>1035.48</ele>
        <time>2016-06-04T10:02:07Z</time>
      </trkpt>
      <trkpt lat="43.718773629516363" lon="11.932869208976626">
        <ele>1037.8800000000001</ele>
        <time>2016-06-04T10:02:21Z</time>
      </trkpt>
      <trkpt lat="43.718715291470289" lon="11.932939197868109">
        <ele>1040.28</ele>
        <time>2016-06-04T10:02:34Z</time>
      </trkpt>
      <trkpt lat="43.718655612319708" lon="11.932977586984634">
        <ele>1041.73</ele>
        <time>2016-06-04T10:02:45Z</time>
      </trkpt>
      <trkpt lat="43.718602219596505" lon="11.933014551177621">
        <ele>1043.1700000000001</ele>
        <time>2016-06-04T10:02:56Z</time>
      </trkpt>
      <trkpt lat="43.718507839366794" lon="11.932981861755252">
        <ele>1044.6099999999999</ele>
        <time>2016-06-04T10:03:09Z</time>
      </trkpt>
      <trkpt lat="43.718426199629903" lon="11.932960906997323">
        <ele>1046.05</ele>
        <time>2016-06-04T10:03:20Z</time>
      </trkpt>
      <trkpt lat="43.718342548236251" lon="11.932993931695819">
        <ele>1047.97</ele>
        <time>2016-06-04T10:03:34Z</time>
      </trkpt>
      <trkpt lat="43.718274990096688" lon="11.933049252256751">
        <ele>1049.4200000000001</ele>
        <time>2016-06-04T10:03:47Z</time>
      </trkpt>
      <trkpt lat="43.71821204200387" lon="11.933062495663762">
        <ele>1050.3800000000001</ele>
        <time>2016-06-04T10:04:00Z</time>
      </trkpt>
      <trkpt lat="43.718131575733423" lon="11.933015557006001">
        <ele>1052.3</ele>
        <time>2016-06-04T10:04:14Z</time>
      </trkpt>
      <trkpt lat="43.718040464445949" lon="11.932989154011011">
        <ele>1054.22</ele>
        <time>2016-06-04T10:04:26Z</time>
      </trkpt>
      <trkpt lat="43.717967206612229" lon="11.93297490477562">
        <ele>1056.1500000000001</ele>
        <time>2016-06-04T10:04:40Z</time>
      </trkpt>
      <trkpt lat="43.717899648472667" lon="11.932959733530879">
        <ele>1058.0699999999999</ele>
        <time>2016-06-04T10:04:53Z</time>
      </trkpt>
      <trkpt lat="43.717854889109731" lon="11.932973312214017">
        <ele>1059.51</ele>
        <time>2016-06-04T10:05:04Z</time>
      </trkpt>
      <trkpt lat="43.717780876904726" lon="11.932992758229375">
        <ele>1059.99</ele>
        <time>2016-06-04T10:05:16Z</time>
      </trkpt>
      <trkpt lat="43.717750953510404" lon="11.933079930022359">
        <ele>1062.3900000000001</ele>
        <time>2016-06-04T10:05:31Z</time>
      </trkpt>
      <trkpt lat="43.717697728425264" lon="11.933107171207666">
        <ele>1063.8399999999999</ele>
        <time>2016-06-04T10:05:44Z</time>
      </trkpt>
      <trkpt lat="43.717674678191543" lon="11.933125108480453">
        <ele>1064.3199999999999</ele>
        <time>2016-06-04T10:06:03Z</time>
      </trkpt>
      <trkpt lat="43.717576442286372" lon="11.933131730183959">
        <ele>1066.24</ele>
        <time>2016-06-04T10:06:16Z</time>
      </trkpt>
      <trkpt lat="43.717509554699063" lon="11.933137932792306">
        <ele>1067.6800000000001</ele>
        <time>2016-06-04T10:06:28Z</time>
      </trkpt>
      <trkpt lat="43.717415425926447" lon="11.933110188692808">
        <ele>1068.6400000000001</ele>
        <time>2016-06-04T10:06:40Z</time>
      </trkpt>
      <trkpt lat="43.717353483662009" lon="11.93305553868413">
        <ele>1069.1199999999999</ele>
        <time>2016-06-04T10:06:52Z</time>
      </trkpt>
      <trkpt lat="43.717279219999909" lon="11.932969372719526">
        <ele>1070.0799999999999</ele>
        <time>2016-06-04T10:07:06Z</time>
      </trkpt>
      <trkpt lat="43.71721769683063" lon="11.932850014418364">
        <ele>1071.05</ele>
        <time>2016-06-04T10:07:19Z</time>
      </trkpt>
      <trkpt lat="43.717113006860018" lon="11.932752365246415">
        <ele>1072.49</ele>
        <time>2016-06-04T10:07:33Z</time>
      </trkpt>
      <trkpt lat="43.717023488134146" lon="11.932668378576636">
        <ele>1072.97</ele>
        <time>2016-06-04T10:07:48Z</time>
      </trkpt>
      <trkpt lat="43.716946709901094" lon="11.932624205946922">
        <ele>1073.9300000000001</ele>
        <time>2016-06-04T10:08:00Z</time>
      </trkpt>
      <trkpt lat="43.716849312186241" lon="11.932584056630731">
        <ele>1074.8900000000001</ele>
        <time>2016-06-04T10:08:13Z</time>
      </trkpt>
      <trkpt lat="43.716779910027981" lon="11.932528233155608">
        <ele>1075.3699999999999</ele>
        <time>2016-06-04T10:08:27Z</time>
      </trkpt>
      <trkpt lat="43.716733306646347" lon="11.932439804077148">
        <ele>1075.8499999999999</ele>
        <time>2016-06-04T10:08:39Z</time>
      </trkpt>
      <trkpt lat="43.716663401573896" lon="11.932321954518557">
        <ele>1076.3299999999999</ele>
        <time>2016-06-04T10:08:51Z</time>
      </trkpt>
      <trkpt lat="43.716646637767553" lon="11.932178204879165">
        <ele>1076.8099999999999</ele>
        <time>2016-06-04T10:09:02Z</time>
      </trkpt>
      <trkpt lat="43.716584527865052" lon="11.932067647576332">
        <ele>1078.26</ele>
        <time>2016-06-04T10:09:14Z</time>
      </trkpt>
      <trkpt lat="43.716507498174906" lon="11.932055577635765">
        <ele>1079.22</ele>
        <time>2016-06-04T10:09:26Z</time>
      </trkpt>
      <trkpt lat="43.716386966407299" lon="11.932002939283848">
        <ele>1080.1800000000001</ele>
        <time>2016-06-04T10:09:38Z</time>
      </trkpt>
      <trkpt lat="43.716273978352547" lon="11.931933788582683">
        <ele>1081.1400000000001</ele>
        <time>2016-06-04T10:09:52Z</time>
      </trkpt>
      <trkpt lat="43.716127630323172" lon="11.931857261806726">
        <ele>1081.1400000000001</ele>
        <time>2016-06-04T10:10:06Z</time>
      </trkpt>
      <trkpt lat="43.716059569269419" lon="11.931830942630768">
        <ele>1082.0999999999999</ele>
        <time>2016-06-04T10:10:18Z</time>
      </trkpt>
      <trkpt lat="43.71595848351717" lon="11.931755421683192">
        <ele>1083.0599999999999</ele>
        <time>2016-06-04T10:10:31Z</time>
      </trkpt>
      <trkpt lat="43.715875670313835" lon="11.931691551581025">
        <ele>1084.5</ele>
        <time>2016-06-04T10:10:42Z</time>
      </trkpt>
      <trkpt lat="43.71578891761601" lon="11.931605720892549">
        <ele>1084.99</ele>
        <time>2016-06-04T10:10:53Z</time>
      </trkpt>
      <trkpt lat="43.715709121897817" lon="11.931577390059829">
        <ele>1085.95</ele>
        <time>2016-06-04T10:11:06Z</time>
      </trkpt>
      <trkpt lat="43.715689508244395" lon="11.931456355378032">
        <ele>1086.9100000000001</ele>
        <time>2016-06-04T10:11:15Z</time>
      </trkpt>
      <trkpt lat="43.715635109692812" lon="11.931407069787383">
        <ele>1087.8699999999999</ele>
        <time>2016-06-04T10:11:27Z</time>
      </trkpt>
      <trkpt lat="43.715539807453752" lon="11.931330123916268">
        <ele>1088.8299999999999</ele>
        <time>2016-06-04T10:11:40Z</time>
      </trkpt>
      <trkpt lat="43.71546596288681" lon="11.931271282956004">
        <ele>1090.27</ele>
        <time>2016-06-04T10:11:52Z</time>
      </trkpt>
      <trkpt lat="43.71539362706244" lon="11.93127010948956">
        <ele>1092.2</ele>
        <time>2016-06-04T10:12:05Z</time>
      </trkpt>
      <trkpt lat="43.715331684798002" lon="11.931239767000079">
        <ele>1093.6400000000001</ele>
        <time>2016-06-04T10:12:17Z</time>
      </trkpt>
      <trkpt lat="43.715263372287154" lon="11.931231804192066">
        <ele>1093.6400000000001</ele>
        <time>2016-06-04T10:12:28Z</time>
      </trkpt>
      <trkpt lat="43.71518449857831" lon="11.93119240924716">
        <ele>1094.5999999999999</ele>
        <time>2016-06-04T10:12:40Z</time>
      </trkpt>
      <trkpt lat="43.715121299028397" lon="11.931154271587729">
        <ele>1096.04</ele>
        <time>2016-06-04T10:12:52Z</time>
      </trkpt>
      <trkpt lat="43.715063463896513" lon="11.931133149191737">
        <ele>1097.48</ele>
        <time>2016-06-04T10:13:04Z</time>
      </trkpt>
      <trkpt lat="43.715005964040756" lon="11.93107221275568">
        <ele>1098.9200000000001</ele>
        <time>2016-06-04T10:13:17Z</time>
      </trkpt>
      <trkpt lat="43.714961791411042" lon="11.931045642122626">
        <ele>1099.4000000000001</ele>
        <time>2016-06-04T10:13:32Z</time>
      </trkpt>
      <trkpt lat="43.714939244091511" lon="11.930998535826802">
        <ele>1100.8499999999999</ele>
        <time>2016-06-04T10:13:42Z</time>
      </trkpt>
      <trkpt lat="43.714898675680161" lon="11.930991327390075">
        <ele>1102.29</ele>
        <time>2016-06-04T10:13:54Z</time>
      </trkpt>
      <trkpt lat="43.714807648211718" lon="11.931005073711276">
        <ele>1103.73</ele>
        <time>2016-06-04T10:14:06Z</time>
      </trkpt>
      <trkpt lat="43.71470857411623" lon="11.931025860831141">
        <ele>1105.6500000000001</ele>
        <time>2016-06-04T10:14:23Z</time>
      </trkpt>
      <trkpt lat="43.714662222191691" lon="11.931062070652843">
        <ele>1106.1300000000001</ele>
        <time>2016-06-04T10:14:32Z</time>
      </trkpt>
      <trkpt lat="43.714573960751295" lon="11.931039774790406">
        <ele>1106.1300000000001</ele>
        <time>2016-06-04T10:14:43Z</time>
      </trkpt>
      <trkpt lat="43.714490812271833" lon="11.931072799488902">
        <ele>1106.1300000000001</ele>
        <time>2016-06-04T10:14:55Z</time>
      </trkpt>
      <trkpt lat="43.714463235810399" lon="11.931134909391403">
        <ele>1107.0999999999999</ele>
        <time>2016-06-04T10:15:08Z</time>
      </trkpt>
      <trkpt lat="43.714438509196043" lon="11.931150248274207">
        <ele>1107.0999999999999</ele>
        <time>2016-06-04T10:15:22Z</time>
      </trkpt>
      <trkpt lat="43.714404981583357" lon="11.931123677641153">
        <ele>1107.0999999999999</ele>
        <time>2016-06-04T10:15:39Z</time>
      </trkpt>
      <trkpt lat="43.714361311867833" lon="11.931046564131975">
        <ele>1106.1300000000001</ele>
        <time>2016-06-04T10:15:51Z</time>
      </trkpt>
      <trkpt lat="43.714333400130272" lon="11.930999541655183">
        <ele>1104.6900000000001</ele>
        <time>2016-06-04T10:15:58Z</time>
      </trkpt>
      <trkpt lat="43.714309679344296" lon="11.930872723460197">
        <ele>1101.8099999999999</ele>
        <time>2016-06-04T10:16:09Z</time>
      </trkpt>
      <trkpt lat="43.714297609403729" lon="11.930857049301267">
        <ele>1101.8099999999999</ele>
        <time>2016-06-04T10:16:13Z</time>
      </trkpt>
      <trkpt lat="43.714267099276185" lon="11.930779181420803">
        <ele>1101.3299999999999</ele>
        <time>2016-06-04T10:16:22Z</time>
      </trkpt>
      <trkpt lat="43.714261902496219" lon="11.930747833102942">
        <ele>1099.4000000000001</ele>
        <time>2016-06-04T10:16:25Z</time>
      </trkpt>
      <trkpt lat="43.71422921307385" lon="11.930713299661875">
        <ele>1098.4400000000001</ele>
        <time>2016-06-04T10:16:30Z</time>
      </trkpt>
      <trkpt lat="43.714205240830779" lon="11.930663930252194">
        <ele>1097.96</ele>
        <time>2016-06-04T10:16:35Z</time>
      </trkpt>
      <trkpt lat="43.714213203638792" lon="11.930516073480248">
        <ele>1095.5599999999999</ele>
        <time>2016-06-04T10:16:47Z</time>
      </trkpt>
      <trkpt lat="43.714176239445806" lon="11.9303890876472">
        <ele>1093.1600000000001</ele>
        <time>2016-06-04T10:16:59Z</time>
      </trkpt>
      <trkpt lat="43.714170204475522" lon="11.930260928347707">
        <ele>1091.23</ele>
        <time>2016-06-04T10:17:10Z</time>
      </trkpt>
      <trkpt lat="43.714110106229782" lon="11.930185910314322">
        <ele>1088.3499999999999</ele>
        <time>2016-06-04T10:17:23Z</time>
      </trkpt>
      <trkpt lat="43.714070627465844" lon="11.930137211456895">
        <ele>1087.8699999999999</ele>
        <time>2016-06-04T10:17:39Z</time>
      </trkpt>
      <trkpt lat="43.714010277763009" lon="11.930149113759398">
        <ele>1085.47</ele>
        <time>2016-06-04T10:17:49Z</time>
      </trkpt>
      <trkpt lat="43.713957723230124" lon="11.930123632773757">
        <ele>1083.0599999999999</ele>
        <time>2016-06-04T10:18:00Z</time>
      </trkpt>
      <trkpt lat="43.713931990787387" lon="11.930013578385115">
        <ele>1082.0999999999999</ele>
        <time>2016-06-04T10:18:11Z</time>
      </trkpt>
      <trkpt lat="43.713912293314934" lon="11.929972255602479">
        <ele>1081.6199999999999</ele>
        <time>2016-06-04T10:18:21Z</time>
      </trkpt>
      <trkpt lat="43.713908437639475" lon="11.929905703291297">
        <ele>1080.1800000000001</ele>
        <time>2016-06-04T10:18:31Z</time>
      </trkpt>
      <trkpt lat="43.713902654126287" lon="11.929889861494303">
        <ele>1080.1800000000001</ele>
        <time>2016-06-04T10:18:35Z</time>
      </trkpt>
      <trkpt lat="43.71386862359941" lon="11.929777711629868">
        <ele>1079.7</ele>
        <time>2016-06-04T10:18:45Z</time>
      </trkpt>
      <trkpt lat="43.71381975710392" lon="11.929657934233546">
        <ele>1080.6600000000001</ele>
        <time>2016-06-04T10:18:57Z</time>
      </trkpt>
      <trkpt lat="43.713783547282219" lon="11.92961267195642">
        <ele>1080.6600000000001</ele>
        <time>2016-06-04T10:19:09Z</time>
      </trkpt>
      <trkpt lat="43.713730573654175" lon="11.929566403850913">
        <ele>1081.6199999999999</ele>
        <time>2016-06-04T10:19:22Z</time>
      </trkpt>
      <trkpt lat="43.713686820119619" lon="11.929536899551749">
        <ele>1080.1800000000001</ele>
        <time>2016-06-04T10:19:35Z</time>
      </trkpt>
      <trkpt lat="43.713666452094913" lon="11.929428605362773">
        <ele>1078.74</ele>
        <time>2016-06-04T10:19:48Z</time>
      </trkpt>
      <trkpt lat="43.713677348569036" lon="11.929328944534063">
        <ele>1077.29</ele>
        <time>2016-06-04T10:20:03Z</time>
      </trkpt>
      <trkpt lat="43.71370148845017" lon="11.929266750812531">
        <ele>1076.8099999999999</ele>
        <time>2016-06-04T10:20:17Z</time>
      </trkpt>
      <trkpt lat="43.713729400187731" lon="11.929227020591497">
        <ele>1075.8499999999999</ele>
        <time>2016-06-04T10:20:26Z</time>
      </trkpt>
      <trkpt lat="43.713768878951669" lon="11.929214615374804">
        <ele>1075.3699999999999</ele>
        <time>2016-06-04T10:20:41Z</time>
      </trkpt>
      <trkpt lat="43.7137137260288" lon="11.92918511107564">
        <ele>1073.9300000000001</ele>
        <time>2016-06-04T10:20:55Z</time>
      </trkpt>
      <trkpt lat="43.713694112375379" lon="11.929125180467963">
        <ele>1073.45</ele>
        <time>2016-06-04T10:21:09Z</time>
      </trkpt>
      <trkpt lat="43.713672151789069" lon="11.929132556542754">
        <ele>1073.9300000000001</ele>
        <time>2016-06-04T10:21:13Z</time>
      </trkpt>
      <trkpt lat="43.713646251708269" lon="11.929135071113706">
        <ele>1073.45</ele>
        <time>2016-06-04T10:21:26Z</time>
      </trkpt>
      <trkpt lat="43.713657734915614" lon="11.929076230153441">
        <ele>1072.97</ele>
        <time>2016-06-04T10:21:44Z</time>
      </trkpt>
      <trkpt lat="43.713635355234146" lon="11.929074386134744">
        <ele>1073.45</ele>
        <time>2016-06-04T10:22:07Z</time>
      </trkpt>
      <trkpt lat="43.713656477630138" lon="11.929042115807533">
        <ele>1073.9300000000001</ele>
        <time>2016-06-04T10:22:25Z</time>
      </trkpt>
      <trkpt lat="43.713623117655516" lon="11.929072458297014">
        <ele>1073.9300000000001</ele>
        <time>2016-06-04T10:22:40Z</time>
      </trkpt>
      <trkpt lat="43.713610544800758" lon="11.929093999788165">
        <ele>1073.9300000000001</ele>
        <time>2016-06-04T10:22:54Z</time>
      </trkpt>
      <trkpt lat="43.713579531759024" lon="11.929161977022886">
        <ele>1074.8900000000001</ele>
        <time>2016-06-04T10:23:16Z</time>
      </trkpt>
      <trkpt lat="43.713589673861861" lon="11.92918318323791">
        <ele>1074.4100000000001</ele>
        <time>2016-06-04T10:23:37Z</time>
      </trkpt>
      <trkpt lat="43.713577687740326" lon="11.929158121347427">
        <ele>1077.29</ele>
        <time>2016-06-04T10:23:50Z</time>
      </trkpt>
      <trkpt lat="43.71364532969892" lon="11.929075811058283">
        <ele>1078.26</ele>
        <time>2016-06-04T10:24:04Z</time>
      </trkpt>
      <trkpt lat="43.713671732693911" lon="11.929059466347098">
        <ele>1078.26</ele>
        <time>2016-06-04T10:24:26Z</time>
      </trkpt>
      <trkpt lat="43.713692771270871" lon="11.929094418883324">
        <ele>1078.74</ele>
        <time>2016-06-04T10:24:38Z</time>
      </trkpt>
      <trkpt lat="43.713710373267531" lon="11.929115373641253">
        <ele>1078.74</ele>
        <time>2016-06-04T10:24:57Z</time>
      </trkpt>
      <trkpt lat="43.71375429444015" lon="11.929145883768797">
        <ele>1078.74</ele>
        <time>2016-06-04T10:25:17Z</time>
      </trkpt>
      <trkpt lat="43.713700482621789" lon="11.929086372256279">
        <ele>1078.74</ele>
        <time>2016-06-04T10:25:33Z</time>
      </trkpt>
      <trkpt lat="43.713703416287899" lon="11.929081929847598">
        <ele>1079.22</ele>
        <time>2016-06-04T10:25:56Z</time>
      </trkpt>
      <trkpt lat="43.713656729087234" lon="11.929071787744761">
        <ele>1079.22</ele>
        <time>2016-06-04T10:26:16Z</time>
      </trkpt>
      <trkpt lat="43.713640216737986" lon="11.929058376699686">
        <ele>1079.7</ele>
        <time>2016-06-04T10:26:37Z</time>
      </trkpt>
      <trkpt lat="43.713613478466868" lon="11.928936671465635">
        <ele>1079.22</ele>
        <time>2016-06-04T10:26:50Z</time>
      </trkpt>
      <trkpt lat="43.713531754910946" lon="11.928874310106039">
        <ele>1078.74</ele>
        <time>2016-06-04T10:27:02Z</time>
      </trkpt>
      <trkpt lat="43.713489007204771" lon="11.92875855602324">
        <ele>1078.74</ele>
        <time>2016-06-04T10:27:14Z</time>
      </trkpt>
      <trkpt lat="43.713415749371052" lon="11.928741792216897">
        <ele>1078.74</ele>
        <time>2016-06-04T10:27:26Z</time>
      </trkpt>
      <trkpt lat="43.713348358869553" lon="11.928707761690021">
        <ele>1080.6600000000001</ele>
        <time>2016-06-04T10:27:41Z</time>
      </trkpt>
      <trkpt lat="43.71324953623116" lon="11.928688986226916">
        <ele>1081.6199999999999</ele>
        <time>2016-06-04T10:27:53Z</time>
      </trkpt>
      <trkpt lat="43.713113246485591" lon="11.928677586838603">
        <ele>1083.0599999999999</ele>
        <time>2016-06-04T10:28:07Z</time>
      </trkpt>
      <trkpt lat="43.713069409132004" lon="11.928709521889687">
        <ele>1085.47</ele>
        <time>2016-06-04T10:28:21Z</time>
      </trkpt>
      <trkpt lat="43.712930353358388" lon="11.928805997595191">
        <ele>1087.3900000000001</ele>
        <time>2016-06-04T10:28:38Z</time>
      </trkpt>
      <trkpt lat="43.712814766913652" lon="11.928850086405873">
        <ele>1088.8299999999999</ele>
        <time>2016-06-04T10:28:54Z</time>
      </trkpt>
      <trkpt lat="43.71273061260581" lon="11.92878395318985">
        <ele>1090.27</ele>
        <time>2016-06-04T10:29:07Z</time>
      </trkpt>
      <trkpt lat="43.712745783850551" lon="11.928685130551457">
        <ele>1091.71</ele>
        <time>2016-06-04T10:29:19Z</time>
      </trkpt>
      <trkpt lat="43.712641932070255" lon="11.928651854395866">
        <ele>1093.6400000000001</ele>
        <time>2016-06-04T10:29:35Z</time>
      </trkpt>
      <trkpt lat="43.712557274848223" lon="11.92857482470572">
        <ele>1092.6800000000001</ele>
        <time>2016-06-04T10:29:49Z</time>
      </trkpt>
      <trkpt lat="43.712445627897978" lon="11.92846242338419">
        <ele>1092.2</ele>
        <time>2016-06-04T10:30:03Z</time>
      </trkpt>
      <trkpt lat="43.712389720603824" lon="11.928360918536782">
        <ele>1092.6800000000001</ele>
        <time>2016-06-04T10:30:14Z</time>
      </trkpt>
      <trkpt lat="43.712300285696983" lon="11.928306519985199">
        <ele>1094.5999999999999</ele>
        <time>2016-06-04T10:30:27Z</time>
      </trkpt>
      <trkpt lat="43.712228368967772" lon="11.928265364840627">
        <ele>1097</ele>
        <time>2016-06-04T10:30:40Z</time>
      </trkpt>
      <trkpt lat="43.71208218857646" lon="11.928300401195884">
        <ele>1098.4400000000001</ele>
        <time>2016-06-04T10:30:58Z</time>
      </trkpt>
      <trkpt lat="43.711994346231222" lon="11.928389752283692">
        <ele>1099.4000000000001</ele>
        <time>2016-06-04T10:31:13Z</time>
      </trkpt>
      <trkpt lat="43.711908180266619" lon="11.928508523851633">
        <ele>1100.3699999999999</ele>
        <time>2016-06-04T10:31:29Z</time>
      </trkpt>
      <trkpt lat="43.711863001808524" lon="11.928642382845283">
        <ele>1101.3299999999999</ele>
        <time>2016-06-04T10:31:42Z</time>
      </trkpt>
      <trkpt lat="43.711864594370127" lon="11.928646992892027">
        <ele>1101.3299999999999</ele>
        <time>2016-06-04T10:32:01Z</time>
      </trkpt>
      <trkpt lat="43.711847746744752" lon="11.928529813885689">
        <ele>1102.77</ele>
        <time>2016-06-04T10:32:29Z</time>
      </trkpt>
      <trkpt lat="43.71179485693574" lon="11.928515899926424">
        <ele>1102.29</ele>
        <time>2016-06-04T10:32:45Z</time>
      </trkpt>
      <trkpt lat="43.71180416084826" lon="11.928401654586196">
        <ele>1104.6900000000001</ele>
        <time>2016-06-04T10:32:58Z</time>
      </trkpt>
      <trkpt lat="43.711708607152104" lon="11.928483294323087">
        <ele>1106.6099999999999</ele>
        <time>2016-06-04T10:33:12Z</time>
      </trkpt>
      <trkpt lat="43.711649095639586" lon="11.92845999263227">
        <ele>1108.0599999999999</ele>
        <time>2016-06-04T10:33:25Z</time>
      </trkpt>
      <trkpt lat="43.711559409275651" lon="11.928496202453971">
        <ele>1109.98</ele>
        <time>2016-06-04T10:33:39Z</time>
      </trkpt>
      <trkpt lat="43.711526803672314" lon="11.928395535796881">
        <ele>1112.3800000000001</ele>
        <time>2016-06-04T10:33:51Z</time>
      </trkpt>
      <trkpt lat="43.711469722911716" lon="11.928412299603224">
        <ele>1113.3399999999999</ele>
        <time>2016-06-04T10:34:02Z</time>
      </trkpt>
      <trkpt lat="43.711399901658297" lon="11.928365360945463">
        <ele>1113.8199999999999</ele>
        <time>2016-06-04T10:34:18Z</time>
      </trkpt>
      <trkpt lat="43.711326560005546" lon="11.928388914093375">
        <ele>1114.79</ele>
        <time>2016-06-04T10:34:33Z</time>
      </trkpt>
      <trkpt lat="43.711265875026584" lon="11.928390087559819">
        <ele>1115.27</ele>
        <time>2016-06-04T10:34:44Z</time>
      </trkpt>
      <trkpt lat="43.711167890578508" lon="11.928372401744127">
        <ele>1116.71</ele>
        <time>2016-06-04T10:34:58Z</time>
      </trkpt>
      <trkpt lat="43.71106387116015" lon="11.928455382585526">
        <ele>1117.6700000000001</ele>
        <time>2016-06-04T10:35:17Z</time>
      </trkpt>
      <trkpt lat="43.710946692153811" lon="11.928577087819576">
        <ele>1119.5899999999999</ele>
        <time>2016-06-04T10:35:32Z</time>
      </trkpt>
      <trkpt lat="43.710876619443297" lon="11.928642047569156">
        <ele>1120.0699999999999</ele>
        <time>2016-06-04T10:35:45Z</time>
      </trkpt>
      <trkpt lat="43.710817527025938" lon="11.928697368130088">
        <ele>1119.5899999999999</ele>
        <time>2016-06-04T10:35:56Z</time>
      </trkpt>
      <trkpt lat="43.710739323869348" lon="11.928733997046947">
        <ele>1118.1500000000001</ele>
        <time>2016-06-04T10:36:08Z</time>
      </trkpt>
      <trkpt lat="43.710641171783209" lon="11.928758304566145">
        <ele>1117.6700000000001</ele>
        <time>2016-06-04T10:36:20Z</time>
      </trkpt>
      <trkpt lat="43.710516784340143" lon="11.928769871592522">
        <ele>1117.6700000000001</ele>
        <time>2016-06-04T10:36:34Z</time>
      </trkpt>
      <trkpt lat="43.710317211225629" lon="11.928821755573153">
        <ele>1118.1500000000001</ele>
        <time>2016-06-04T10:36:50Z</time>
      </trkpt>
      <trkpt lat="43.710266416892409" lon="11.928765261545777">
        <ele>1117.6700000000001</ele>
        <time>2016-06-04T10:37:02Z</time>
      </trkpt>
      <trkpt lat="43.710168432444334" lon="11.928661074489355">
        <ele>1115.27</ele>
        <time>2016-06-04T10:37:13Z</time>
      </trkpt>
      <trkpt lat="43.710088301450014" lon="11.928604412823915">
        <ele>1116.23</ele>
        <time>2016-06-04T10:37:23Z</time>
      </trkpt>
      <trkpt lat="43.709961650893092" lon="11.928547834977508">
        <ele>1114.79</ele>
        <time>2016-06-04T10:37:37Z</time>
      </trkpt>
      <trkpt lat="43.709827372804284" lon="11.928475331515074">
        <ele>1112.3800000000001</ele>
        <time>2016-06-04T10:37:51Z</time>
      </trkpt>
      <trkpt lat="43.709681527689099" lon="11.928421519696712">
        <ele>1110.46</ele>
        <time>2016-06-04T10:38:04Z</time>
      </trkpt>
      <trkpt lat="43.709575664252043" lon="11.92835739813745">
        <ele>1108.54</ele>
        <time>2016-06-04T10:38:16Z</time>
      </trkpt>
      <trkpt lat="43.709506010636687" lon="11.928282799199224">
        <ele>1107.0999999999999</ele>
        <time>2016-06-04T10:38:26Z</time>
      </trkpt>
      <trkpt lat="43.709417413920164" lon="11.928306268528104">
        <ele>1105.6500000000001</ele>
        <time>2016-06-04T10:38:35Z</time>
      </trkpt>
      <trkpt lat="43.709267545491457" lon="11.928331246599555">
        <ele>1103.73</ele>
        <time>2016-06-04T10:38:47Z</time>
      </trkpt>
      <trkpt lat="43.709167549386621" lon="11.928358152508736">
        <ele>1102.29</ele>
        <time>2016-06-04T10:39:00Z</time>
      </trkpt>
      <trkpt lat="43.709041988477111" lon="11.928262682631612">
        <ele>1100.3699999999999</ele>
        <time>2016-06-04T10:39:13Z</time>
      </trkpt>
      <trkpt lat="43.708996307104826" lon="11.928245583549142">
        <ele>1100.3699999999999</ele>
        <time>2016-06-04T10:39:15Z</time>
      </trkpt>
      <trkpt lat="43.708775108680129" lon="11.928207781165838">
        <ele>1099.8900000000001</ele>
        <time>2016-06-04T10:39:28Z</time>
      </trkpt>
      <trkpt lat="43.708692630752921" lon="11.928210547193885">
        <ele>1100.3699999999999</ele>
        <time>2016-06-04T10:39:40Z</time>
      </trkpt>
      <trkpt lat="43.708599340170622" lon="11.928226556628942">
        <ele>1100.3699999999999</ele>
        <time>2016-06-04T10:39:53Z</time>
      </trkpt>
      <trkpt lat="43.708449890837073" lon="11.928214151412249">
        <ele>1098.4400000000001</ele>
        <time>2016-06-04T10:40:05Z</time>
      </trkpt>
      <trkpt lat="43.708344865590334" lon="11.928242733702064">
        <ele>1097</ele>
        <time>2016-06-04T10:40:18Z</time>
      </trkpt>
      <trkpt lat="43.708246294409037" lon="11.928328396752477">
        <ele>1097.48</ele>
        <time>2016-06-04T10:40:33Z</time>
      </trkpt>
      <trkpt lat="43.708182675763965" lon="11.928422776982188">
        <ele>1094.5999999999999</ele>
        <time>2016-06-04T10:40:46Z</time>
      </trkpt>
      <trkpt lat="43.708131881430745" lon="11.928548254072666">
        <ele>1093.6400000000001</ele>
        <time>2016-06-04T10:40:59Z</time>
      </trkpt>
      <trkpt lat="43.708059629425406" lon="11.928631151095033">
        <ele>1092.2</ele>
        <time>2016-06-04T10:41:09Z</time>
      </trkpt>
      <trkpt lat="43.707877658307552" lon="11.92866132594645">
        <ele>1090.27</ele>
        <time>2016-06-04T10:41:20Z</time>
      </trkpt>
      <trkpt lat="43.707767268642783" lon="11.928716562688351">
        <ele>1089.79</ele>
        <time>2016-06-04T10:41:31Z</time>
      </trkpt>
      <trkpt lat="43.707676073536277" lon="11.928775990381837">
        <ele>1087.8699999999999</ele>
        <time>2016-06-04T10:41:44Z</time>
      </trkpt>
      <trkpt lat="43.707683114334941" lon="11.928694266825914">
        <ele>1086.9100000000001</ele>
        <time>2016-06-04T10:41:58Z</time>
      </trkpt>
      <trkpt lat="43.70770406909287" lon="11.928710527718067">
        <ele>1086.9100000000001</ele>
        <time>2016-06-04T10:42:15Z</time>
      </trkpt>
      <trkpt lat="43.707670625299215" lon="11.928716311231256">
        <ele>1086.9100000000001</ele>
        <time>2016-06-04T10:42:37Z</time>
      </trkpt>
      <trkpt lat="43.707713540643454" lon="11.928608603775501">
        <ele>1086.9100000000001</ele>
        <time>2016-06-04T10:43:06Z</time>
      </trkpt>
      <trkpt lat="43.707699710503221" lon="11.928640706464648">
        <ele>1087.3900000000001</ele>
        <time>2016-06-04T10:43:26Z</time>
      </trkpt>
      <trkpt lat="43.707646653056145" lon="11.928681107237935">
        <ele>1088.3499999999999</ele>
        <time>2016-06-04T10:43:40Z</time>
      </trkpt>
      <trkpt lat="43.707668697461486" lon="11.928668869659305">
        <ele>1087.8699999999999</ele>
        <time>2016-06-04T10:43:55Z</time>
      </trkpt>
      <trkpt lat="43.707595439627767" lon="11.928818570449948">
        <ele>1085.95</ele>
        <time>2016-06-04T10:44:08Z</time>
      </trkpt>
      <trkpt lat="43.707553949207067" lon="11.928941365331411">
        <ele>1085.95</ele>
        <time>2016-06-04T10:44:18Z</time>
      </trkpt>
      <trkpt lat="43.70753207243979" lon="11.928914962336421">
        <ele>1087.3900000000001</ele>
        <time>2016-06-04T10:44:36Z</time>
      </trkpt>
      <trkpt lat="43.707465184852481" lon="11.928911944851279">
        <ele>1086.4300000000001</ele>
        <time>2016-06-04T10:44:53Z</time>
      </trkpt>
      <trkpt lat="43.707392010837793" lon="11.929005067795515">
        <ele>1086.4300000000001</ele>
        <time>2016-06-04T10:45:05Z</time>
      </trkpt>
      <trkpt lat="43.707316992804408" lon="11.929082768037915">
        <ele>1084.5</ele>
        <time>2016-06-04T10:45:18Z</time>
      </trkpt>
      <trkpt lat="43.707172740250826" lon="11.929141022264957">
        <ele>1081.1400000000001</ele>
        <time>2016-06-04T10:45:33Z</time>
      </trkpt>
      <trkpt lat="43.707091938704252" lon="11.929185530170798">
        <ele>1079.22</ele>
        <time>2016-06-04T10:45:42Z</time>
      </trkpt>
      <trkpt lat="43.706977525725961" lon="11.929248981177807">
        <ele>1076.8099999999999</ele>
        <time>2016-06-04T10:45:53Z</time>
      </trkpt>
      <trkpt lat="43.706901585683227" lon="11.929352162405849">
        <ele>1077.29</ele>
        <time>2016-06-04T10:46:05Z</time>
      </trkpt>
      <trkpt lat="43.706869315356016" lon="11.929448889568448">
        <ele>1077.29</ele>
        <time>2016-06-04T10:46:15Z</time>
      </trkpt>
      <trkpt lat="43.706830926239491" lon="11.929565062746406">
        <ele>1077.29</ele>
        <time>2016-06-04T10:46:25Z</time>
      </trkpt>
      <trkpt lat="43.706741658970714" lon="11.929645193740726">
        <ele>1077.78</ele>
        <time>2016-06-04T10:46:35Z</time>
      </trkpt>
      <trkpt lat="43.706618277356029" lon="11.929725911468267">
        <ele>1077.78</ele>
        <time>2016-06-04T10:46:48Z</time>
      </trkpt>
      <trkpt lat="43.706564465537667" lon="11.929770335555077">
        <ele>1077.29</ele>
        <time>2016-06-04T10:46:55Z</time>
      </trkpt>
      <trkpt lat="43.706481317058206" lon="11.92992297001183">
        <ele>1077.78</ele>
        <time>2016-06-04T10:47:09Z</time>
      </trkpt>
      <trkpt lat="43.706444688141346" lon="11.930051213130355">
        <ele>1079.22</ele>
        <time>2016-06-04T10:47:21Z</time>
      </trkpt>
      <trkpt lat="43.706466732546687" lon="11.93017409183085">
        <ele>1082.0999999999999</ele>
        <time>2016-06-04T10:47:36Z</time>
      </trkpt>
      <trkpt lat="43.706464469432831" lon="11.930315494537354">
        <ele>1084.02</ele>
        <time>2016-06-04T10:47:51Z</time>
      </trkpt>
      <trkpt lat="43.706418285146356" lon="11.930422782897949">
        <ele>1084.99</ele>
        <time>2016-06-04T10:48:02Z</time>
      </trkpt>
      <trkpt lat="43.706380482763052" lon="11.930555133149028">
        <ele>1086.4300000000001</ele>
        <time>2016-06-04T10:48:13Z</time>
      </trkpt>
      <trkpt lat="43.706330861896276" lon="11.930676503106952">
        <ele>1086.9100000000001</ele>
        <time>2016-06-04T10:48:23Z</time>
      </trkpt>
      <trkpt lat="43.706342596560717" lon="11.930759735405445">
        <ele>1088.3499999999999</ele>
        <time>2016-06-04T10:48:35Z</time>
      </trkpt>
      <trkpt lat="43.706278642639518" lon="11.930905999615788">
        <ele>1088.8299999999999</ele>
        <time>2016-06-04T10:48:50Z</time>
      </trkpt>
      <trkpt lat="43.706244444474578" lon="11.93097397685051">
        <ele>1089.79</ele>
        <time>2016-06-04T10:49:02Z</time>
      </trkpt>
      <trkpt lat="43.706218795850873" lon="11.931148823350668">
        <ele>1092.6800000000001</ele>
        <time>2016-06-04T10:49:20Z</time>
      </trkpt>
      <trkpt lat="43.706160541623831" lon="11.931304391473532">
        <ele>1094.5999999999999</ele>
        <time>2016-06-04T10:49:36Z</time>
      </trkpt>
      <trkpt lat="43.706117123365402" lon="11.931423749774694">
        <ele>1096.52</ele>
        <time>2016-06-04T10:49:51Z</time>
      </trkpt>
      <trkpt lat="43.706136653199792" lon="11.931476052850485">
        <ele>1097</ele>
        <time>2016-06-04T10:50:11Z</time>
      </trkpt>
      <trkpt lat="43.706097006797791" lon="11.931390222162008">
        <ele>1096.04</ele>
        <time>2016-06-04T10:50:30Z</time>
      </trkpt>
      <trkpt lat="43.706130953505635" lon="11.931381085887551">
        <ele>1096.52</ele>
        <time>2016-06-04T10:50:43Z</time>
      </trkpt>
      <trkpt lat="43.706080913543701" lon="11.931420145556331">
        <ele>1096.04</ele>
        <time>2016-06-04T10:50:59Z</time>
      </trkpt>
      <trkpt lat="43.706134473904967" lon="11.931389467790723">
        <ele>1096.52</ele>
        <time>2016-06-04T10:51:20Z</time>
      </trkpt>
      <trkpt lat="43.706167163327336" lon="11.931341523304582">
        <ele>1097.48</ele>
        <time>2016-06-04T10:51:35Z</time>
      </trkpt>
      <trkpt lat="43.70624209754169" lon="11.931298775598407">
        <ele>1099.4000000000001</ele>
        <time>2016-06-04T10:51:48Z</time>
      </trkpt>
      <trkpt lat="43.706289120018482" lon="11.931230127811432">
        <ele>1102.29</ele>
        <time>2016-06-04T10:52:01Z</time>
      </trkpt>
      <trkpt lat="43.706346368417144" lon="11.931102136150002">
        <ele>1104.21</ele>
        <time>2016-06-04T10:52:16Z</time>
      </trkpt>
      <trkpt lat="43.706348547711968" lon="11.931062405928969">
        <ele>1104.6900000000001</ele>
        <time>2016-06-04T10:52:29Z</time>
      </trkpt>
      <trkpt lat="43.706460865214467" lon="11.931067518889904">
        <ele>1107.0999999999999</ele>
        <time>2016-06-04T10:52:43Z</time>
      </trkpt>
      <trkpt lat="43.706518281251192" lon="11.930981101468205">
        <ele>1109.02</ele>
        <time>2016-06-04T10:52:54Z</time>
      </trkpt>
      <trkpt lat="43.706580642610788" lon="11.93091144785285">
        <ele>1110.46</ele>
        <time>2016-06-04T10:53:06Z</time>
      </trkpt>
      <trkpt lat="43.706659264862537" lon="11.930846655741334">
        <ele>1112.8599999999999</ele>
        <time>2016-06-04T10:53:20Z</time>
      </trkpt>
      <trkpt lat="43.706726990640163" lon="11.930804410949349">
        <ele>1114.79</ele>
        <time>2016-06-04T10:53:35Z</time>
      </trkpt>
      <trkpt lat="43.706770660355687" lon="11.930747330188751">
        <ele>1117.1900000000001</ele>
        <time>2016-06-04T10:53:50Z</time>
      </trkpt>
      <trkpt lat="43.706806786358356" lon="11.930696619674563">
        <ele>1118.1500000000001</ele>
        <time>2016-06-04T10:54:04Z</time>
      </trkpt>
      <trkpt lat="43.706834530457854" lon="11.930612130090594">
        <ele>1120.55</ele>
        <time>2016-06-04T10:54:19Z</time>
      </trkpt>
      <trkpt lat="43.706839811056852" lon="11.930596623569727">
        <ele>1121.52</ele>
        <time>2016-06-04T10:54:31Z</time>
      </trkpt>
      <trkpt lat="43.706818101927638" lon="11.930674994364381">
        <ele>1123.4400000000001</ele>
        <time>2016-06-04T10:54:44Z</time>
      </trkpt>
      <trkpt lat="43.706839308142662" lon="11.930771889165044">
        <ele>1124.8800000000001</ele>
        <time>2016-06-04T10:54:57Z</time>
      </trkpt>
      <trkpt lat="43.70678449049592" lon="11.930854618549347">
        <ele>1125.8399999999999</ele>
        <time>2016-06-04T10:55:11Z</time>
      </trkpt>
      <trkpt lat="43.70676931925118" lon="11.930811870843172">
        <ele>1125.8399999999999</ele>
        <time>2016-06-04T10:55:20Z</time>
      </trkpt>
      <trkpt lat="43.706837128847837" lon="11.930810948833823">
        <ele>1125.8399999999999</ele>
        <time>2016-06-04T10:55:34Z</time>
      </trkpt>
      <trkpt lat="43.706771498546004" lon="11.930768452584743">
        <ele>1125.8399999999999</ele>
        <time>2016-06-04T10:55:45Z</time>
      </trkpt>
      <trkpt lat="43.70692421682179" lon="11.930678514763713">
        <ele>1126.3199999999999</ele>
        <time>2016-06-04T10:55:59Z</time>
      </trkpt>
      <trkpt lat="43.706985237076879" lon="11.930758561939001">
        <ele>1126.3199999999999</ele>
        <time>2016-06-04T10:56:14Z</time>
      </trkpt>
      <trkpt lat="43.707008622586727" lon="11.930665355175734">
        <ele>1127.76</ele>
        <time>2016-06-04T10:56:24Z</time>
      </trkpt>
      <trkpt lat="43.706992780789733" lon="11.930631995201111">
        <ele>1128.73</ele>
        <time>2016-06-04T10:56:37Z</time>
      </trkpt>
      <trkpt lat="43.706990517675877" lon="11.930610705167055">
        <ele>1128.73</ele>
        <time>2016-06-04T10:56:45Z</time>
      </trkpt>
      <trkpt lat="43.706969730556011" lon="11.930594528093934">
        <ele>1129.21</ele>
        <time>2016-06-04T10:56:49Z</time>
      </trkpt>
      <trkpt lat="43.706949111074209" lon="11.930587068200111">
        <ele>1129.21</ele>
        <time>2016-06-04T10:56:51Z</time>
      </trkpt>
      <trkpt lat="43.706949362531304" lon="11.930517246946692">
        <ele>1129.21</ele>
        <time>2016-06-04T10:57:00Z</time>
      </trkpt>
      <trkpt lat="43.706915751099586" lon="11.930504003539681">
        <ele>1129.21</ele>
        <time>2016-06-04T10:57:09Z</time>
      </trkpt>
      <trkpt lat="43.706942070275545" lon="11.930512804538012">
        <ele>1129.21</ele>
        <time>2016-06-04T10:57:22Z</time>
      </trkpt>
      <trkpt lat="43.706921702250838" lon="11.930505428463221">
        <ele>1129.21</ele>
        <time>2016-06-04T10:57:34Z</time>
      </trkpt>
      <trkpt lat="43.706923210993409" lon="11.930453879758716">
        <ele>1129.21</ele>
        <time>2016-06-04T10:57:45Z</time>
      </trkpt>
      <trkpt lat="43.706919690594077" lon="11.930467877537012">
        <ele>1129.21</ele>
        <time>2016-06-04T10:57:52Z</time>
      </trkpt>
      <trkpt lat="43.706904016435146" lon="11.93045262247324">
        <ele>1129.21</ele>
        <time>2016-06-04T10:58:03Z</time>
      </trkpt>
      <trkpt lat="43.706927234306931" lon="11.930393278598785">
        <ele>1129.6900000000001</ele>
        <time>2016-06-04T10:58:13Z</time>
      </trkpt>
      <trkpt lat="43.706924635916948" lon="11.930383639410138">
        <ele>1129.6900000000001</ele>
        <time>2016-06-04T10:58:14Z</time>
      </trkpt>
      <trkpt lat="43.706931341439486" lon="11.930337874218822">
        <ele>1129.21</ele>
        <time>2016-06-04T10:58:24Z</time>
      </trkpt>
      <trkpt lat="43.706949949264526" lon="11.930315410718322">
        <ele>1129.21</ele>
        <time>2016-06-04T10:58:36Z</time>
      </trkpt>
      <trkpt lat="43.706943495199084" lon="11.930332509800792">
        <ele>1129.21</ele>
        <time>2016-06-04T10:58:52Z</time>
      </trkpt>
      <trkpt lat="43.706926815211773" lon="11.930328570306301">
        <ele>1129.21</ele>
        <time>2016-06-04T10:59:06Z</time>
      </trkpt>
      <trkpt lat="43.70692522265017" lon="11.930358409881592">
        <ele>1129.6900000000001</ele>
        <time>2016-06-04T10:59:29Z</time>
      </trkpt>
      <trkpt lat="43.706899574026465" lon="11.930329911410809">
        <ele>1129.6900000000001</ele>
        <time>2016-06-04T10:59:47Z</time>
      </trkpt>
      <trkpt lat="43.706915751099586" lon="11.93030409514904">
        <ele>1129.6900000000001</ele>
        <time>2016-06-04T11:00:15Z</time>
      </trkpt>
      <trkpt lat="43.70693695731461" lon="11.930333012714982">
        <ele>1129.6900000000001</ele>
        <time>2016-06-04T11:00:24Z</time>
      </trkpt>
      <trkpt lat="43.706916170194745" lon="11.9303182605654">
        <ele>1129.6900000000001</ele>
        <time>2016-06-04T11:00:41Z</time>
      </trkpt>
      <trkpt lat="43.706906363368034" lon="11.930372407659888">
        <ele>1129.6900000000001</ele>
        <time>2016-06-04T11:01:10Z</time>
      </trkpt>
      <trkpt lat="43.706917259842157" lon="11.930339802056551">
        <ele>1129.6900000000001</ele>
        <time>2016-06-04T11:01:45Z</time>
      </trkpt>
      <trkpt lat="43.706908794119954" lon="11.93033829331398">
        <ele>1130.1700000000001</ele>
        <time>2016-06-04T11:02:16Z</time>
      </trkpt>
      <trkpt lat="43.706904435530305" lon="11.930357320234179">
        <ele>1130.1700000000001</ele>
        <time>2016-06-04T11:02:58Z</time>
      </trkpt>
      <trkpt lat="43.706924049183726" lon="11.930341143161058">
        <ele>1130.1700000000001</ele>
        <time>2016-06-04T11:03:38Z</time>
      </trkpt>
      <trkpt lat="43.706902088597417" lon="11.930333180353045">
        <ele>1130.6500000000001</ele>
        <time>2016-06-04T11:04:14Z</time>
      </trkpt>
      <trkpt lat="43.706930754706264" lon="11.930329827591777">
        <ele>1130.6500000000001</ele>
        <time>2016-06-04T11:04:49Z</time>
      </trkpt>
      <trkpt lat="43.706918098032475" lon="11.930335946381092">
        <ele>1130.6500000000001</ele>
        <time>2016-06-04T11:05:21Z</time>
      </trkpt>
      <trkpt lat="43.70691399089992" lon="11.930316332727671">
        <ele>1130.1700000000001</ele>
        <time>2016-06-04T11:05:49Z</time>
      </trkpt>
      <trkpt lat="43.706913068890572" lon="11.930330749601126">
        <ele>1130.6500000000001</ele>
        <time>2016-06-04T11:06:09Z</time>
      </trkpt>
      <trkpt lat="43.706917343661189" lon="11.930338544771075">
        <ele>1130.1700000000001</ele>
        <time>2016-06-04T11:06:30Z</time>
      </trkpt>
      <trkpt lat="43.706925809383392" lon="11.930328318849206">
        <ele>1130.1700000000001</ele>
        <time>2016-06-04T11:06:51Z</time>
      </trkpt>
      <trkpt lat="43.706903178244829" lon="11.930288085713983">
        <ele>1130.1700000000001</ele>
        <time>2016-06-04T11:07:14Z</time>
      </trkpt>
      <trkpt lat="43.70690762065351" lon="11.930283894762397">
        <ele>1130.6500000000001</ele>
        <time>2016-06-04T11:07:49Z</time>
      </trkpt>
      <trkpt lat="43.706898735836148" lon="11.930305268615484">
        <ele>1130.6500000000001</ele>
        <time>2016-06-04T11:08:20Z</time>
      </trkpt>
      <trkpt lat="43.706900244578719" lon="11.930331839248538">
        <ele>1130.6500000000001</ele>
        <time>2016-06-04T11:08:34Z</time>
      </trkpt>
      <trkpt lat="43.706892700865865" lon="11.930337958037853">
        <ele>1132.0899999999999</ele>
        <time>2016-06-04T11:08:48Z</time>
      </trkpt>
      <trkpt lat="43.706926060840487" lon="11.930348770692945">
        <ele>1131.1300000000001</ele>
        <time>2016-06-04T11:09:00Z</time>
      </trkpt>
      <trkpt lat="43.706908710300922" lon="11.930339215323329">
        <ele>1130.6500000000001</ele>
        <time>2016-06-04T11:09:19Z</time>
      </trkpt>
      <trkpt lat="43.706933688372374" lon="11.930330581963062">
        <ele>1131.1300000000001</ele>
        <time>2016-06-04T11:09:35Z</time>
      </trkpt>
      <trkpt lat="43.706976603716612" lon="11.930354638025165">
        <ele>1130.6500000000001</ele>
        <time>2016-06-04T11:09:59Z</time>
      </trkpt>
      <trkpt lat="43.707008622586727" lon="11.930336533114314">
        <ele>1130.6500000000001</ele>
        <time>2016-06-04T11:10:07Z</time>
      </trkpt>
      <trkpt lat="43.707119096070528" lon="11.930326307192445">
        <ele>1130.6500000000001</ele>
        <time>2016-06-04T11:10:19Z</time>
      </trkpt>
      <trkpt lat="43.707186738029122" lon="11.930273752659559">
        <ele>1130.1700000000001</ele>
        <time>2016-06-04T11:10:31Z</time>
      </trkpt>
      <trkpt lat="43.707228228449821" lon="11.930242069065571">
        <ele>1130.1700000000001</ele>
        <time>2016-06-04T11:10:43Z</time>
      </trkpt>
      <trkpt lat="43.707263432443142" lon="11.930328905582428">
        <ele>1130.6500000000001</ele>
        <time>2016-06-04T11:10:56Z</time>
      </trkpt>
      <trkpt lat="43.707284973934293" lon="11.93025229498744">
        <ele>1131.1300000000001</ele>
        <time>2016-06-04T11:11:11Z</time>
      </trkpt>
      <trkpt lat="43.707304084673524" lon="11.930119441822171">
        <ele>1130.6500000000001</ele>
        <time>2016-06-04T11:11:28Z</time>
      </trkpt>
      <trkpt lat="43.707339372485876" lon="11.930023049935699">
        <ele>1130.6500000000001</ele>
        <time>2016-06-04T11:11:46Z</time>
      </trkpt>
      <trkpt lat="43.707346497103572" lon="11.929864631965756">
        <ele>1131.1300000000001</ele>
        <time>2016-06-04T11:12:07Z</time>
      </trkpt>
      <trkpt lat="43.707359824329615" lon="11.92978173494339">
        <ele>1131.1300000000001</ele>
        <time>2016-06-04T11:12:27Z</time>
      </trkpt>
      <trkpt lat="43.707353789359331" lon="11.92969816736877">
        <ele>1131.1300000000001</ele>
        <time>2016-06-04T11:12:46Z</time>
      </trkpt>
      <trkpt lat="43.707339623942971" lon="11.929617449641228">
        <ele>1131.1300000000001</ele>
        <time>2016-06-04T11:13:02Z</time>
      </trkpt>
      <trkpt lat="43.70734934695065" lon="11.929536312818527">
        <ele>1131.1300000000001</ele>
        <time>2016-06-04T11:13:19Z</time>
      </trkpt>
      <trkpt lat="43.707338282838464" lon="11.929454756900668">
        <ele>1131.6099999999999</ele>
        <time>2016-06-04T11:13:33Z</time>
      </trkpt>
      <trkpt lat="43.707350604236126" lon="11.929390383884311">
        <ele>1131.6099999999999</ele>
        <time>2016-06-04T11:13:50Z</time>
      </trkpt>
      <trkpt lat="43.70735814794898" lon="11.929258201271296">
        <ele>1130.6500000000001</ele>
        <time>2016-06-04T11:14:04Z</time>
      </trkpt>
      <trkpt lat="43.707450851798058" lon="11.929273959249258">
        <ele>1126.3199999999999</ele>
        <time>2016-06-04T11:16:45Z</time>
      </trkpt>
      <trkpt lat="43.707411121577024" lon="11.929331291466951">
        <ele>1125.8399999999999</ele>
        <time>2016-06-04T11:16:53Z</time>
      </trkpt>
      <trkpt lat="43.70743190869689" lon="11.929300026968122">
        <ele>1126.3199999999999</ele>
        <time>2016-06-04T11:17:01Z</time>
      </trkpt>
      <trkpt lat="43.707430399954319" lon="11.929297680035233">
        <ele>1125.8399999999999</ele>
        <time>2016-06-04T11:17:14Z</time>
      </trkpt>
      <trkpt lat="43.707405421882868" lon="11.92928921431303">
        <ele>1125.3599999999999</ele>
        <time>2016-06-04T11:17:33Z</time>
      </trkpt>
      <trkpt lat="43.707364853471518" lon="11.929314695298672">
        <ele>1124.4000000000001</ele>
        <time>2016-06-04T11:17:44Z</time>
      </trkpt>
      <trkpt lat="43.707372648641467" lon="11.929318634793162">
        <ele>1126.8</ele>
        <time>2016-06-04T11:17:56Z</time>
      </trkpt>
      <trkpt lat="43.707370804622769" lon="11.92933120764792">
        <ele>1128.73</ele>
        <time>2016-06-04T11:18:10Z</time>
      </trkpt>
      <trkpt lat="43.707351861521602" lon="11.929347468540072">
        <ele>1128.24</ele>
        <time>2016-06-04T11:18:23Z</time>
      </trkpt>
      <trkpt lat="43.707358650863171" lon="11.929281754419208">
        <ele>1125.8399999999999</ele>
        <time>2016-06-04T11:18:31Z</time>
      </trkpt>
      <trkpt lat="43.707413133233786" lon="11.929253591224551">
        <ele>1124.8800000000001</ele>
        <time>2016-06-04T11:18:42Z</time>
      </trkpt>
      <trkpt lat="43.707443559542298" lon="11.929262392222881">
        <ele>1126.8</ele>
        <time>2016-06-04T11:18:54Z</time>
      </trkpt>
      <trkpt lat="43.707440542057157" lon="11.929268762469292">
        <ele>1126.3199999999999</ele>
        <time>2016-06-04T11:18:55Z</time>
      </trkpt>
      <trkpt lat="43.707432998344302" lon="11.929255602881312">
        <ele>1126.3199999999999</ele>
        <time>2016-06-04T11:19:02Z</time>
      </trkpt>
      <trkpt lat="43.707374827936292" lon="11.929388791322708">
        <ele>1130.6500000000001</ele>
        <time>2016-06-04T11:21:43Z</time>
      </trkpt>
      <trkpt lat="43.70734247379005" lon="11.92957847379148">
        <ele>1130.1700000000001</ele>
        <time>2016-06-04T11:21:59Z</time>
      </trkpt>
      <trkpt lat="43.70738061144948" lon="11.929777879267931">
        <ele>1129.6900000000001</ele>
        <time>2016-06-04T11:22:20Z</time>
      </trkpt>
      <trkpt lat="43.707568533718586" lon="11.929821213707328">
        <ele>1130.1700000000001</ele>
        <time>2016-06-04T11:22:41Z</time>
      </trkpt>
      <trkpt lat="43.707505501806736" lon="11.92981006577611">
        <ele>1129.6900000000001</ele>
        <time>2016-06-04T11:23:01Z</time>
      </trkpt>
      <trkpt lat="43.707398883998394" lon="11.929817777127028">
        <ele>1129.6900000000001</ele>
        <time>2016-06-04T11:23:20Z</time>
      </trkpt>
      <trkpt lat="43.707314059138298" lon="11.92987603135407">
        <ele>1129.6900000000001</ele>
        <time>2016-06-04T11:23:37Z</time>
      </trkpt>
      <trkpt lat="43.707339623942971" lon="11.930000921711326">
        <ele>1129.6900000000001</ele>
        <time>2016-06-04T11:23:56Z</time>
      </trkpt>
      <trkpt lat="43.707294864580035" lon="11.930128326639533">
        <ele>1129.21</ele>
        <time>2016-06-04T11:24:12Z</time>
      </trkpt>
      <trkpt lat="43.707291511818767" lon="11.930141737684608">
        <ele>1128.73</ele>
        <time>2016-06-04T11:24:28Z</time>
      </trkpt>
      <trkpt lat="43.707239292562008" lon="11.930339969694614">
        <ele>1128.73</ele>
        <time>2016-06-04T11:24:44Z</time>
      </trkpt>
      <trkpt lat="43.707201322540641" lon="11.930422699078918">
        <ele>1130.6500000000001</ele>
        <time>2016-06-04T11:24:57Z</time>
      </trkpt>
      <trkpt lat="43.70717978104949" lon="11.930511798709631">
        <ele>1128.73</ele>
        <time>2016-06-04T11:25:07Z</time>
      </trkpt>
      <trkpt lat="43.707101829349995" lon="11.930052973330021">
        <ele>1129.21</ele>
        <time>2016-06-04T11:29:32Z</time>
      </trkpt>
      <trkpt lat="43.707187157124281" lon="11.930084237828851">
        <ele>1128.73</ele>
        <time>2016-06-04T11:29:41Z</time>
      </trkpt>
      <trkpt lat="43.707157904282212" lon="11.93004903383553">
        <ele>1128.24</ele>
        <time>2016-06-04T11:29:54Z</time>
      </trkpt>
      <trkpt lat="43.707131836563349" lon="11.930038724094629">
        <ele>1128.24</ele>
        <time>2016-06-04T11:30:11Z</time>
      </trkpt>
      <trkpt lat="43.707126472145319" lon="11.930060852319002">
        <ele>1127.76</ele>
        <time>2016-06-04T11:30:30Z</time>
      </trkpt>
      <trkpt lat="43.70711917988956" lon="11.92999622784555">
        <ele>1128.24</ele>
        <time>2016-06-04T11:30:54Z</time>
      </trkpt>
      <trkpt lat="43.70712211355567" lon="11.930064791813493">
        <ele>1128.24</ele>
        <time>2016-06-04T11:31:14Z</time>
      </trkpt>
      <trkpt lat="43.70711431838572" lon="11.929961275309324">
        <ele>1128.24</ele>
        <time>2016-06-04T11:31:33Z</time>
      </trkpt>
      <trkpt lat="43.707098895683885" lon="11.92993177101016">
        <ele>1129.21</ele>
        <time>2016-06-04T11:31:43Z</time>
      </trkpt>
      <trkpt lat="43.707165196537971" lon="11.930017517879605">
        <ele>1129.6900000000001</ele>
        <time>2016-06-04T11:32:01Z</time>
      </trkpt>
      <trkpt lat="43.707173829898238" lon="11.930091278627515">
        <ele>1129.6900000000001</ele>
        <time>2016-06-04T11:32:19Z</time>
      </trkpt>
      <trkpt lat="43.707166286185384" lon="11.930004693567753">
        <ele>1130.1700000000001</ele>
        <time>2016-06-04T11:32:33Z</time>
      </trkpt>
      <trkpt lat="43.707172740250826" lon="11.93008566275239">
        <ele>1130.1700000000001</ele>
        <time>2016-06-04T11:32:49Z</time>
      </trkpt>
      <trkpt lat="43.70723401196301" lon="11.930134445428848">
        <ele>1130.1700000000001</ele>
        <time>2016-06-04T11:33:07Z</time>
      </trkpt>
      <trkpt lat="43.707220517098904" lon="11.930079963058233">
        <ele>1130.6500000000001</ele>
        <time>2016-06-04T11:33:29Z</time>
      </trkpt>
      <trkpt lat="43.707227725535631" lon="11.930080046877265">
        <ele>1130.6500000000001</ele>
        <time>2016-06-04T11:33:43Z</time>
      </trkpt>
      <trkpt lat="43.707257146015763" lon="11.930346675217152">
        <ele>1131.1300000000001</ele>
        <time>2016-06-04T11:34:00Z</time>
      </trkpt>
      <trkpt lat="43.707288829609752" lon="11.930438373237848">
        <ele>1131.1300000000001</ele>
        <time>2016-06-04T11:34:18Z</time>
      </trkpt>
      <trkpt lat="43.707444313913584" lon="11.930508445948362">
        <ele>1132.0899999999999</ele>
        <time>2016-06-04T11:34:31Z</time>
      </trkpt>
      <trkpt lat="43.707489157095551" lon="11.930610872805119">
        <ele>1133.05</ele>
        <time>2016-06-04T11:34:42Z</time>
      </trkpt>
      <trkpt lat="43.707486893981695" lon="11.930678011849523">
        <ele>1133.05</ele>
        <time>2016-06-04T11:34:47Z</time>
      </trkpt>
      <trkpt lat="43.707488235086203" lon="11.930770967155695">
        <ele>1133.53</ele>
        <time>2016-06-04T11:34:54Z</time>
      </trkpt>
      <trkpt lat="43.70747147127986" lon="11.931010354310274">
        <ele>1133.53</ele>
        <time>2016-06-04T11:35:08Z</time>
      </trkpt>
      <trkpt lat="43.707435848191381" lon="11.931191487237811">
        <ele>1133.05</ele>
        <time>2016-06-04T11:35:22Z</time>
      </trkpt>
      <trkpt lat="43.707470213994384" lon="11.931234821677208">
        <ele>1132.5699999999999</ele>
        <time>2016-06-04T11:35:33Z</time>
      </trkpt>
      <trkpt lat="43.707509525120258" lon="11.931247813627124">
        <ele>1132.5699999999999</ele>
        <time>2016-06-04T11:35:37Z</time>
      </trkpt>
      <trkpt lat="43.707631733268499" lon="11.931282011792064">
        <ele>1132.0899999999999</ele>
        <time>2016-06-04T11:35:49Z</time>
      </trkpt>
      <trkpt lat="43.707705745473504" lon="11.931300032883883">
        <ele>1132.0899999999999</ele>
        <time>2016-06-04T11:36:03Z</time>
      </trkpt>
      <trkpt lat="43.707610527053475" lon="11.931275893002748">
        <ele>1131.6099999999999</ele>
        <time>2016-06-04T11:36:17Z</time>
      </trkpt>
      <trkpt lat="43.707577837631106" lon="11.93146750330925">
        <ele>1131.6099999999999</ele>
        <time>2016-06-04T11:36:41Z</time>
      </trkpt>
      <trkpt lat="43.707508016377687" lon="11.931064585223794">
        <ele>1132.0899999999999</ele>
        <time>2016-06-04T11:45:24Z</time>
      </trkpt>
      <trkpt lat="43.707653861492872" lon="11.931162150576711">
        <ele>1131.6099999999999</ele>
        <time>2016-06-04T11:45:27Z</time>
      </trkpt>
      <trkpt lat="43.707671882584691" lon="11.931334901601076">
        <ele>1131.1300000000001</ele>
        <time>2016-06-04T11:45:32Z</time>
      </trkpt>
      <trkpt lat="43.707792498171329" lon="11.931369099766016">
        <ele>1130.6500000000001</ele>
        <time>2016-06-04T11:45:45Z</time>
      </trkpt>
      <trkpt lat="43.707831976935267" lon="11.931478232145309">
        <ele>1130.1700000000001</ele>
        <time>2016-06-04T11:45:58Z</time>
      </trkpt>
      <trkpt lat="43.707754276692867" lon="11.931635895743966">
        <ele>1129.6900000000001</ele>
        <time>2016-06-04T11:46:11Z</time>
      </trkpt>
      <trkpt lat="43.707758132368326" lon="11.931785931810737">
        <ele>1129.21</ele>
        <time>2016-06-04T11:46:20Z</time>
      </trkpt>
      <trkpt lat="43.707708679139614" lon="11.93184083327651">
        <ele>1128.73</ele>
        <time>2016-06-04T11:46:33Z</time>
      </trkpt>
      <trkpt lat="43.707496114075184" lon="11.931972512975335">
        <ele>1128.24</ele>
        <time>2016-06-04T11:46:49Z</time>
      </trkpt>
      <trkpt lat="43.707371139898896" lon="11.932139312848449">
        <ele>1128.24</ele>
        <time>2016-06-04T11:46:54Z</time>
      </trkpt>
      <trkpt lat="43.707350771874189" lon="11.932076951488853">
        <ele>1127.76</ele>
        <time>2016-06-04T11:46:56Z</time>
      </trkpt>
      <trkpt lat="43.707405421882868" lon="11.932106036692858">
        <ele>1129.21</ele>
        <time>2016-06-04T11:47:09Z</time>
      </trkpt>
      <trkpt lat="43.707417156547308" lon="11.932128332555294">
        <ele>1128.24</ele>
        <time>2016-06-04T11:47:13Z</time>
      </trkpt>
      <trkpt lat="43.707369463518262" lon="11.932169068604708">
        <ele>1129.6900000000001</ele>
        <time>2016-06-04T11:47:23Z</time>
      </trkpt>
      <trkpt lat="43.707357896491885" lon="11.932171918451786">
        <ele>1129.6900000000001</ele>
        <time>2016-06-04T11:47:35Z</time>
      </trkpt>
      <trkpt lat="43.707356387749314" lon="11.93217501975596">
        <ele>1129.6900000000001</ele>
        <time>2016-06-04T11:47:42Z</time>
      </trkpt>
      <trkpt lat="43.70735177770257" lon="11.932184407487512">
        <ele>1130.1700000000001</ele>
        <time>2016-06-04T11:47:51Z</time>
      </trkpt>
      <trkpt lat="43.70735127478838" lon="11.932170493528247">
        <ele>1129.6900000000001</ele>
        <time>2016-06-04T11:48:09Z</time>
      </trkpt>
      <trkpt lat="43.707350101321936" lon="11.932144006714225">
        <ele>1129.6900000000001</ele>
        <time>2016-06-04T11:48:17Z</time>
      </trkpt>
      <trkpt lat="43.707375917583704" lon="11.932070078328252">
        <ele>1128.24</ele>
        <time>2016-06-04T11:48:28Z</time>
      </trkpt>
      <trkpt lat="43.7073312420398" lon="11.9321124907583">
        <ele>1127.76</ele>
        <time>2016-06-04T11:48:35Z</time>
      </trkpt>
      <trkpt lat="43.707373403012753" lon="11.931992713361979">
        <ele>1127.76</ele>
        <time>2016-06-04T11:48:45Z</time>
      </trkpt>
      <trkpt lat="43.707396034151316" lon="11.931929849088192">
        <ele>1126.8</ele>
        <time>2016-06-04T11:48:51Z</time>
      </trkpt>
      <trkpt lat="43.707417659461498" lon="11.931887520477176">
        <ele>1126.8</ele>
        <time>2016-06-04T11:49:01Z</time>
      </trkpt>
      <trkpt lat="43.707437440752983" lon="11.931887185201049">
        <ele>1128.24</ele>
        <time>2016-06-04T11:49:10Z</time>
      </trkpt>
      <trkpt lat="43.70742411352694" lon="11.931923311203718">
        <ele>1127.76</ele>
        <time>2016-06-04T11:51:11Z</time>
      </trkpt>
      <trkpt lat="43.707393016666174" lon="11.93195222876966">
        <ele>1126.8</ele>
        <time>2016-06-04T11:51:14Z</time>
      </trkpt>
      <trkpt lat="43.707366697490215" lon="11.932120705023408">
        <ele>1128.24</ele>
        <time>2016-06-04T11:51:28Z</time>
      </trkpt>
      <trkpt lat="43.707413719967008" lon="11.932125901803374">
        <ele>1128.24</ele>
        <time>2016-06-04T11:51:37Z</time>
      </trkpt>
      <trkpt lat="43.707382287830114" lon="11.932191280648112">
        <ele>1129.6900000000001</ele>
        <time>2016-06-04T11:51:47Z</time>
      </trkpt>
      <trkpt lat="43.707417659461498" lon="11.932268477976322">
        <ele>1130.1700000000001</ele>
        <time>2016-06-04T11:51:59Z</time>
      </trkpt>
      <trkpt lat="43.707432160153985" lon="11.932255737483501">
        <ele>1129.6900000000001</ele>
        <time>2016-06-04T11:52:15Z</time>
      </trkpt>
      <trkpt lat="43.70738404802978" lon="11.932229418307543">
        <ele>1129.6900000000001</ele>
        <time>2016-06-04T11:52:31Z</time>
      </trkpt>
      <trkpt lat="43.707398883998394" lon="11.932256491854787">
        <ele>1129.6900000000001</ele>
        <time>2016-06-04T11:52:39Z</time>
      </trkpt>
      <trkpt lat="43.70764640159905" lon="11.932452963665128">
        <ele>1129.21</ele>
        <time>2016-06-04T11:52:58Z</time>
      </trkpt>
      <trkpt lat="43.707597702741623" lon="11.932395212352276">
        <ele>1129.21</ele>
        <time>2016-06-04T11:53:15Z</time>
      </trkpt>
      <trkpt lat="43.707476919516921" lon="11.932392278686166">
        <ele>1129.6900000000001</ele>
        <time>2016-06-04T11:53:39Z</time>
      </trkpt>
      <trkpt lat="43.707430651411414" lon="11.932386076077819">
        <ele>1129.6900000000001</ele>
        <time>2016-06-04T11:53:46Z</time>
      </trkpt>
      <trkpt lat="43.707462837919593" lon="11.932411640882492">
        <ele>1130.1700000000001</ele>
        <time>2016-06-04T12:57:57Z</time>
      </trkpt>
      <trkpt lat="43.707341887056828" lon="11.932167811319232">
        <ele>1129.6900000000001</ele>
        <time>2016-06-04T12:58:08Z</time>
      </trkpt>
      <trkpt lat="43.707321519032121" lon="11.932230507954955">
        <ele>1129.6900000000001</ele>
        <time>2016-06-04T12:58:17Z</time>
      </trkpt>
      <trkpt lat="43.707299642264843" lon="11.932286163792014">
        <ele>1129.6900000000001</ele>
        <time>2016-06-04T12:58:28Z</time>
      </trkpt>
      <trkpt lat="43.707307185977697" lon="11.932282224297523">
        <ele>1130.1700000000001</ele>
        <time>2016-06-04T12:58:44Z</time>
      </trkpt>
      <trkpt lat="43.707302492111921" lon="11.932262778282166">
        <ele>1129.6900000000001</ele>
        <time>2016-06-04T12:58:59Z</time>
      </trkpt>
      <trkpt lat="43.707311125472188" lon="11.932243416085839">
        <ele>1129.6900000000001</ele>
        <time>2016-06-04T12:59:20Z</time>
      </trkpt>
      <trkpt lat="43.707313891500235" lon="11.932256827130914">
        <ele>1129.21</ele>
        <time>2016-06-04T12:59:38Z</time>
      </trkpt>
      <trkpt lat="43.707316154614091" lon="11.932304603978992">
        <ele>1129.6900000000001</ele>
        <time>2016-06-04T12:59:56Z</time>
      </trkpt>
      <trkpt lat="43.707346329465508" lon="11.932257330045104">
        <ele>1129.6900000000001</ele>
        <time>2016-06-04T13:00:03Z</time>
      </trkpt>
      <trkpt lat="43.707347419112921" lon="11.932262275367975">
        <ele>1129.6900000000001</ele>
        <time>2016-06-04T13:00:19Z</time>
      </trkpt>
      <trkpt lat="43.707307018339634" lon="11.932372748851776">
        <ele>1128.73</ele>
        <time>2016-06-04T13:00:35Z</time>
      </trkpt>
      <trkpt lat="43.707200484350324" lon="11.932547427713871">
        <ele>1128.24</ele>
        <time>2016-06-04T13:00:46Z</time>
      </trkpt>
      <trkpt lat="43.707173243165016" lon="11.932637449353933">
        <ele>1127.28</ele>
        <time>2016-06-04T13:00:57Z</time>
      </trkpt>
      <trkpt lat="43.707144996151328" lon="11.932694613933563">
        <ele>1127.28</ele>
        <time>2016-06-04T13:01:10Z</time>
      </trkpt>
      <trkpt lat="43.707144912332296" lon="11.932733925059438">
        <ele>1126.8</ele>
        <time>2016-06-04T13:01:28Z</time>
      </trkpt>
      <trkpt lat="43.707117419689894" lon="11.932738870382309">
        <ele>1126.8</ele>
        <time>2016-06-04T13:01:39Z</time>
      </trkpt>
      <trkpt lat="43.707103505730629" lon="11.932811792939901">
        <ele>1126.3199999999999</ele>
        <time>2016-06-04T13:01:49Z</time>
      </trkpt>
      <trkpt lat="43.70712555013597" lon="11.93280391395092">
        <ele>1126.3199999999999</ele>
        <time>2016-06-04T13:02:04Z</time>
      </trkpt>
      <trkpt lat="43.707109875977039" lon="11.932807182893157">
        <ele>1125.8399999999999</ele>
        <time>2016-06-04T13:02:24Z</time>
      </trkpt>
      <trkpt lat="43.707094369456172" lon="11.932941544800997">
        <ele>1125.8399999999999</ele>
        <time>2016-06-04T13:02:36Z</time>
      </trkpt>
      <trkpt lat="43.707084814086556" lon="11.932962499558926">
        <ele>1125.8399999999999</ele>
        <time>2016-06-04T13:02:39Z</time>
      </trkpt>
      <trkpt lat="43.707060674205422" lon="11.933169364929199">
        <ele>1124.8800000000001</ele>
        <time>2016-06-04T13:02:51Z</time>
      </trkpt>
      <trkpt lat="43.707073414698243" lon="11.933232313022017">
        <ele>1124.4000000000001</ele>
        <time>2016-06-04T13:02:55Z</time>
      </trkpt>
      <trkpt lat="43.707093195989728" lon="11.933312276378274">
        <ele>1123.9200000000001</ele>
        <time>2016-06-04T13:03:00Z</time>
      </trkpt>
      <trkpt lat="43.707190090790391" lon="11.933440184220672">
        <ele>1122.96</ele>
        <time>2016-06-04T13:03:11Z</time>
      </trkpt>
      <trkpt lat="43.70725211687386" lon="11.933559458702803">
        <ele>1122.48</ele>
        <time>2016-06-04T13:03:21Z</time>
      </trkpt>
      <trkpt lat="43.707272736355662" lon="11.9336096663028">
        <ele>1122</ele>
        <time>2016-06-04T13:03:26Z</time>
      </trkpt>
      <trkpt lat="43.707353370264173" lon="11.933708740398288">
        <ele>1121.52</ele>
        <time>2016-06-04T13:03:37Z</time>
      </trkpt>
      <trkpt lat="43.707363847643137" lon="11.933733383193612">
        <ele>1121.52</ele>
        <time>2016-06-04T13:03:39Z</time>
      </trkpt>
      <trkpt lat="43.7075418792665" lon="11.933848885819316">
        <ele>1121.03</ele>
        <time>2016-06-04T13:03:51Z</time>
      </trkpt>
      <trkpt lat="43.707660399377346" lon="11.934011410921812">
        <ele>1121.03</ele>
        <time>2016-06-04T13:04:02Z</time>
      </trkpt>
      <trkpt lat="43.707690155133605" lon="11.934123644605279">
        <ele>1121.03</ele>
        <time>2016-06-04T13:04:07Z</time>
      </trkpt>
      <trkpt lat="43.707827785983682" lon="11.934318104758859">
        <ele>1120.0699999999999</ele>
        <time>2016-06-04T13:04:18Z</time>
      </trkpt>
      <trkpt lat="43.707899786531925" lon="11.934444084763527">
        <ele>1119.1099999999999</ele>
        <time>2016-06-04T13:04:28Z</time>
      </trkpt>
      <trkpt lat="43.707994921132922" lon="11.934580961242318">
        <ele>1118.1500000000001</ele>
        <time>2016-06-04T13:04:38Z</time>
      </trkpt>
      <trkpt lat="43.708037249743938" lon="11.934688165783882">
        <ele>1117.6700000000001</ele>
        <time>2016-06-04T13:04:44Z</time>
      </trkpt>
      <trkpt lat="43.70806273072958" lon="11.934791766107082">
        <ele>1117.6700000000001</ele>
        <time>2016-06-04T13:04:49Z</time>
      </trkpt>
      <trkpt lat="43.708051163703203" lon="11.934880698099732">
        <ele>1117.1900000000001</ele>
        <time>2016-06-04T13:04:53Z</time>
      </trkpt>
      <trkpt lat="43.708013445138931" lon="11.935044229030609">
        <ele>1116.71</ele>
        <time>2016-06-04T13:05:02Z</time>
      </trkpt>
      <trkpt lat="43.707891404628754" lon="11.935215387493372">
        <ele>1117.6700000000001</ele>
        <time>2016-06-04T13:05:16Z</time>
      </trkpt>
      <trkpt lat="43.707826193422079" lon="11.935378666967154">
        <ele>1118.6300000000001</ele>
        <time>2016-06-04T13:05:28Z</time>
      </trkpt>
      <trkpt lat="43.707822170108557" lon="11.935391407459974">
        <ele>1118.6300000000001</ele>
        <time>2016-06-04T13:05:29Z</time>
      </trkpt>
      <trkpt lat="43.707783529534936" lon="11.935468772426248">
        <ele>1119.1099999999999</ele>
        <time>2016-06-04T13:05:35Z</time>
      </trkpt>
      <trkpt lat="43.707761652767658" lon="11.935511101037264">
        <ele>1119.5899999999999</ele>
        <time>2016-06-04T13:05:39Z</time>
      </trkpt>
      <trkpt lat="43.70767816901207" lon="11.935679242014885">
        <ele>1121.03</ele>
        <time>2016-06-04T13:05:52Z</time>
      </trkpt>
      <trkpt lat="43.707588734105229" lon="11.935831625014544">
        <ele>1122.48</ele>
        <time>2016-06-04T13:06:04Z</time>
      </trkpt>
      <trkpt lat="43.707528049126267" lon="11.936000185087323">
        <ele>1122.96</ele>
        <time>2016-06-04T13:06:16Z</time>
      </trkpt>
      <trkpt lat="43.707472393289208" lon="11.936081070452929">
        <ele>1122.96</ele>
        <time>2016-06-04T13:06:22Z</time>
      </trkpt>
      <trkpt lat="43.707433501258492" lon="11.936157429590821">
        <ele>1122</ele>
        <time>2016-06-04T13:06:33Z</time>
      </trkpt>
      <trkpt lat="43.707442553713918" lon="11.93612708710134">
        <ele>1122.96</ele>
        <time>2016-06-04T13:06:47Z</time>
      </trkpt>
      <trkpt lat="43.70741774328053" lon="11.936199842020869">
        <ele>1122</ele>
        <time>2016-06-04T13:07:01Z</time>
      </trkpt>
      <trkpt lat="43.707436183467507" lon="11.936224484816194">
        <ele>1121.52</ele>
        <time>2016-06-04T13:07:20Z</time>
      </trkpt>
      <trkpt lat="43.707430735230446" lon="11.936231190338731">
        <ele>1122</ele>
        <time>2016-06-04T13:07:21Z</time>
      </trkpt>
      <trkpt lat="43.707424029707909" lon="11.936254240572453">
        <ele>1122.96</ele>
        <time>2016-06-04T13:07:31Z</time>
      </trkpt>
      <trkpt lat="43.707409780472517" lon="11.936244769021869">
        <ele>1122.96</ele>
        <time>2016-06-04T13:07:49Z</time>
      </trkpt>
      <trkpt lat="43.707379689440131" lon="11.936223059892654">
        <ele>1122.48</ele>
        <time>2016-06-04T13:08:02Z</time>
      </trkpt>
      <trkpt lat="43.707399303093553" lon="11.93636697717011">
        <ele>1122.48</ele>
        <time>2016-06-04T13:08:08Z</time>
      </trkpt>
      <trkpt lat="43.707429058849812" lon="11.936405282467604">
        <ele>1122.48</ele>
        <time>2016-06-04T13:08:12Z</time>
      </trkpt>
      <trkpt lat="43.707488821819425" lon="11.936606615781784">
        <ele>1122.96</ele>
        <time>2016-06-04T13:08:25Z</time>
      </trkpt>
      <trkpt lat="43.707528049126267" lon="11.93674030713737">
        <ele>1122.48</ele>
        <time>2016-06-04T13:08:33Z</time>
      </trkpt>
      <trkpt lat="43.707556212320924" lon="11.936937868595123">
        <ele>1122.96</ele>
        <time>2016-06-04T13:08:45Z</time>
      </trkpt>
      <trkpt lat="43.7075609061867" lon="11.936956224963069">
        <ele>1122.96</ele>
        <time>2016-06-04T13:08:46Z</time>
      </trkpt>
      <trkpt lat="43.707579178735614" lon="11.937089245766401">
        <ele>1123.4400000000001</ele>
        <time>2016-06-04T13:08:54Z</time>
      </trkpt>
      <trkpt lat="43.707597367465496" lon="11.937152864411473">
        <ele>1122.96</ele>
        <time>2016-06-04T13:08:58Z</time>
      </trkpt>
      <trkpt lat="43.707644222304225" lon="11.937339445576072">
        <ele>1123.4400000000001</ele>
        <time>2016-06-04T13:09:10Z</time>
      </trkpt>
      <trkpt lat="43.707765424624085" lon="11.937535414472222">
        <ele>1122.96</ele>
        <time>2016-06-04T13:09:24Z</time>
      </trkpt>
      <trkpt lat="43.707867180928588" lon="11.937674889340997">
        <ele>1122.96</ele>
        <time>2016-06-04T13:09:35Z</time>
      </trkpt>
      <trkpt lat="43.707950161769986" lon="11.937826853245497">
        <ele>1122.96</ele>
        <time>2016-06-04T13:09:45Z</time>
      </trkpt>
      <trkpt lat="43.708062143996358" lon="11.938032461330295">
        <ele>1122</ele>
        <time>2016-06-04T13:09:57Z</time>
      </trkpt>
      <trkpt lat="43.708118973299861" lon="11.938171265646815">
        <ele>1121.03</ele>
        <time>2016-06-04T13:10:06Z</time>
      </trkpt>
      <trkpt lat="43.708226513117552" lon="11.938357092440128">
        <ele>1120.0699999999999</ele>
        <time>2016-06-04T13:10:19Z</time>
      </trkpt>
      <trkpt lat="43.708345619961619" lon="11.938504111021757">
        <ele>1118.6300000000001</ele>
        <time>2016-06-04T13:10:31Z</time>
      </trkpt>
      <trkpt lat="43.708416195586324" lon="11.938544260337949">
        <ele>1118.6300000000001</ele>
        <time>2016-06-04T13:10:38Z</time>
      </trkpt>
      <trkpt lat="43.708494147285819" lon="11.938657248392701">
        <ele>1118.6300000000001</ele>
        <time>2016-06-04T13:10:48Z</time>
      </trkpt>
      <trkpt lat="43.708516862243414" lon="11.938691362738609">
        <ele>1118.6300000000001</ele>
        <time>2016-06-04T13:10:51Z</time>
      </trkpt>
      <trkpt lat="43.708649966865778" lon="11.938803009688854">
        <ele>1118.6300000000001</ele>
        <time>2016-06-04T13:11:02Z</time>
      </trkpt>
      <trkpt lat="43.70873311534524" lon="11.938852043822408">
        <ele>1118.6300000000001</ele>
        <time>2016-06-04T13:11:07Z</time>
      </trkpt>
      <trkpt lat="43.70886605232954" lon="11.939015239477158">
        <ele>1119.5899999999999</ele>
        <time>2016-06-04T13:11:20Z</time>
      </trkpt>
      <trkpt lat="43.708898657932878" lon="11.939151864498854">
        <ele>1119.5899999999999</ele>
        <time>2016-06-04T13:11:28Z</time>
      </trkpt>
      <trkpt lat="43.708885498344898" lon="11.939256638288498">
        <ele>1119.5899999999999</ele>
        <time>2016-06-04T13:11:32Z</time>
      </trkpt>
      <trkpt lat="43.708899579942226" lon="11.939456211403012">
        <ele>1119.1099999999999</ele>
        <time>2016-06-04T13:11:44Z</time>
      </trkpt>
      <trkpt lat="43.70889195241034" lon="11.939509268850088">
        <ele>1118.6300000000001</ele>
        <time>2016-06-04T13:11:47Z</time>
      </trkpt>
      <trkpt lat="43.708906536921859" lon="11.939588142558932">
        <ele>1118.6300000000001</ele>
        <time>2016-06-04T13:11:51Z</time>
      </trkpt>
      <trkpt lat="43.708972251042724" lon="11.939705405384302">
        <ele>1117.6700000000001</ele>
        <time>2016-06-04T13:12:01Z</time>
      </trkpt>
      <trkpt lat="43.708997145295143" lon="11.939767263829708">
        <ele>1117.6700000000001</ele>
        <time>2016-06-04T13:12:05Z</time>
      </trkpt>
      <trkpt lat="43.709059339016676" lon="11.939979745075107">
        <ele>1117.1900000000001</ele>
        <time>2016-06-04T13:12:17Z</time>
      </trkpt>
      <trkpt lat="43.709143493324518" lon="11.9401182141155">
        <ele>1117.1900000000001</ele>
        <time>2016-06-04T13:12:27Z</time>
      </trkpt>
      <trkpt lat="43.709255056455731" lon="11.940199434757233">
        <ele>1116.71</ele>
        <time>2016-06-04T13:12:34Z</time>
      </trkpt>
      <trkpt lat="43.709360416978598" lon="11.940260119736195">
        <ele>1115.27</ele>
        <time>2016-06-04T13:12:44Z</time>
      </trkpt>
      <trkpt lat="43.709507519379258" lon="11.940402612090111">
        <ele>1114.3099999999999</ele>
        <time>2016-06-04T13:12:55Z</time>
      </trkpt>
      <trkpt lat="43.709560241550207" lon="11.940464973449707">
        <ele>1115.75</ele>
        <time>2016-06-04T13:13:00Z</time>
      </trkpt>
      <trkpt lat="43.709564516320825" lon="11.940506715327501">
        <ele>1115.75</ele>
        <time>2016-06-04T13:13:03Z</time>
      </trkpt>
      <trkpt lat="43.709575161337852" lon="11.940536387264729">
        <ele>1113.3399999999999</ele>
        <time>2016-06-04T13:13:05Z</time>
      </trkpt>
      <trkpt lat="43.709574155509472" lon="11.940551726147532">
        <ele>1109.98</ele>
        <time>2016-06-04T13:13:06Z</time>
      </trkpt>
      <trkpt lat="43.709577256813645" lon="11.940565221011639">
        <ele>1116.23</ele>
        <time>2016-06-04T13:13:07Z</time>
      </trkpt>
      <trkpt lat="43.709580190479755" lon="11.940579051151872">
        <ele>1112.8599999999999</ele>
        <time>2016-06-04T13:13:08Z</time>
      </trkpt>
      <trkpt lat="43.70966199785471" lon="11.940688351169229">
        <ele>1111.4200000000001</ele>
        <time>2016-06-04T13:13:19Z</time>
      </trkpt>
      <trkpt lat="43.709763418883085" lon="11.940713748335838">
        <ele>1109.98</ele>
        <time>2016-06-04T13:13:32Z</time>
      </trkpt>
      <trkpt lat="43.709773728623986" lon="11.940712826326489">
        <ele>1109.98</ele>
        <time>2016-06-04T13:13:33Z</time>
      </trkpt>
      <trkpt lat="43.709882274270058" lon="11.940752388909459">
        <ele>1107.5799999999999</ele>
        <time>2016-06-04T13:13:44Z</time>
      </trkpt>
      <trkpt lat="43.709934744983912" lon="11.940780719742179">
        <ele>1107.0999999999999</ele>
        <time>2016-06-04T13:13:48Z</time>
      </trkpt>
      <trkpt lat="43.7100147921592" lon="11.94083210080862">
        <ele>1106.1300000000001</ele>
        <time>2016-06-04T13:13:52Z</time>
      </trkpt>
      <trkpt lat="43.710131384432316" lon="11.940897479653358">
        <ele>1105.6500000000001</ele>
        <time>2016-06-04T13:13:57Z</time>
      </trkpt>
      <trkpt lat="43.710167845711112" lon="11.941004684194922">
        <ele>1104.21</ele>
        <time>2016-06-04T13:14:06Z</time>
      </trkpt>
      <trkpt lat="43.710229955613613" lon="11.941106859594584">
        <ele>1103.25</ele>
        <time>2016-06-04T13:14:15Z</time>
      </trkpt>
      <trkpt lat="43.710287204012275" lon="11.941174166277051">
        <ele>1102.77</ele>
        <time>2016-06-04T13:14:24Z</time>
      </trkpt>
      <trkpt lat="43.710328107699752" lon="11.941241221502423">
        <ele>1101.8099999999999</ele>
        <time>2016-06-04T13:14:34Z</time>
      </trkpt>
      <trkpt lat="43.71041645295918" lon="11.941341385245323">
        <ele>1101.3299999999999</ele>
        <time>2016-06-04T13:14:44Z</time>
      </trkpt>
      <trkpt lat="43.710509324446321" lon="11.941404500976205">
        <ele>1100.8499999999999</ele>
        <time>2016-06-04T13:14:52Z</time>
      </trkpt>
      <trkpt lat="43.710641926154494" lon="11.941504077985883">
        <ele>1100.8499999999999</ele>
        <time>2016-06-04T13:15:03Z</time>
      </trkpt>
      <trkpt lat="43.710738737136126" lon="11.941600805148482">
        <ele>1101.3299999999999</ele>
        <time>2016-06-04T13:15:11Z</time>
      </trkpt>
      <trkpt lat="43.710750136524439" lon="11.941611282527447">
        <ele>1101.3299999999999</ele>
        <time>2016-06-04T13:15:12Z</time>
      </trkpt>
      <trkpt lat="43.710856167599559" lon="11.9417380169034">
        <ele>1101.8099999999999</ele>
        <time>2016-06-04T13:15:23Z</time>
      </trkpt>
      <trkpt lat="43.710911320522428" lon="11.941827619448304">
        <ele>1103.25</ele>
        <time>2016-06-04T13:15:30Z</time>
      </trkpt>
      <trkpt lat="43.710997235029936" lon="11.941937087103724">
        <ele>1102.77</ele>
        <time>2016-06-04T13:15:40Z</time>
      </trkpt>
      <trkpt lat="43.711062865331769" lon="11.942025935277343">
        <ele>1103.25</ele>
        <time>2016-06-04T13:15:50Z</time>
      </trkpt>
      <trkpt lat="43.711116258054972" lon="11.942044543102384">
        <ele>1103.73</ele>
        <time>2016-06-04T13:15:59Z</time>
      </trkpt>
      <trkpt lat="43.711218684911728" lon="11.942049069330096">
        <ele>1105.1700000000001</ele>
        <time>2016-06-04T13:16:08Z</time>
      </trkpt>
      <trkpt lat="43.711276268586516" lon="11.942062564194202">
        <ele>1105.6500000000001</ele>
        <time>2016-06-04T13:16:17Z</time>
      </trkpt>
      <trkpt lat="43.711367966607213" lon="11.942075053229928">
        <ele>1108.0599999999999</ele>
        <time>2016-06-04T13:16:27Z</time>
      </trkpt>
      <trkpt lat="43.711413983255625" lon="11.942077064886689">
        <ele>1108.54</ele>
        <time>2016-06-04T13:16:33Z</time>
      </trkpt>
      <trkpt lat="43.711497718468308" lon="11.942073795944452">
        <ele>1110.46</ele>
        <time>2016-06-04T13:16:43Z</time>
      </trkpt>
      <trkpt lat="43.71155446395278" lon="11.942067006602883">
        <ele>1111.9000000000001</ele>
        <time>2016-06-04T13:16:56Z</time>
      </trkpt>
      <trkpt lat="43.711645156145096" lon="11.942122410982847">
        <ele>1114.3099999999999</ele>
        <time>2016-06-04T13:17:12Z</time>
      </trkpt>
      <trkpt lat="43.711724281311035" lon="11.942104389891028">
        <ele>1116.23</ele>
        <time>2016-06-04T13:17:26Z</time>
      </trkpt>
      <trkpt lat="43.711813297122717" lon="11.942125260829926">
        <ele>1117.6700000000001</ele>
        <time>2016-06-04T13:17:36Z</time>
      </trkpt>
      <trkpt lat="43.711876915767789" lon="11.942182425409555">
        <ele>1119.1099999999999</ele>
        <time>2016-06-04T13:17:50Z</time>
      </trkpt>
      <trkpt lat="43.711984707042575" lon="11.942206481471658">
        <ele>1117.1900000000001</ele>
        <time>2016-06-04T13:18:03Z</time>
      </trkpt>
      <trkpt lat="43.711997363716364" lon="11.942205894738436">
        <ele>1121.52</ele>
        <time>2016-06-04T13:18:04Z</time>
      </trkpt>
      <trkpt lat="43.712095515802503" lon="11.942236488685012">
        <ele>1122.48</ele>
        <time>2016-06-04T13:18:17Z</time>
      </trkpt>
      <trkpt lat="43.712198529392481" lon="11.942249229177833">
        <ele>1123.4400000000001</ele>
        <time>2016-06-04T13:18:25Z</time>
      </trkpt>
      <trkpt lat="43.712294837459922" lon="11.942249061539769">
        <ele>1124.4000000000001</ele>
        <time>2016-06-04T13:18:37Z</time>
      </trkpt>
      <trkpt lat="43.712322497740388" lon="11.942246882244945">
        <ele>1124.8800000000001</ele>
        <time>2016-06-04T13:18:40Z</time>
      </trkpt>
      <trkpt lat="43.712409250438213" lon="11.942276386544108">
        <ele>1125.8399999999999</ele>
        <time>2016-06-04T13:18:48Z</time>
      </trkpt>
      <trkpt lat="43.7124980147928" lon="11.942305890843272">
        <ele>1126.8</ele>
        <time>2016-06-04T13:18:58Z</time>
      </trkpt>
      <trkpt lat="43.712704544886947" lon="11.942329276353121">
        <ele>1127.76</ele>
        <time>2016-06-04T13:19:10Z</time>
      </trkpt>
      <trkpt lat="43.712799763306975" lon="11.942361798137426">
        <ele>1128.73</ele>
        <time>2016-06-04T13:19:23Z</time>
      </trkpt>
      <trkpt lat="43.712933957576752" lon="11.942389290779829">
        <ele>1130.1700000000001</ele>
        <time>2016-06-04T13:19:35Z</time>
      </trkpt>
      <trkpt lat="43.713053651154041" lon="11.942425835877657">
        <ele>1130.6500000000001</ele>
        <time>2016-06-04T13:19:46Z</time>
      </trkpt>
      <trkpt lat="43.713073180988431" lon="11.942424746230245">
        <ele>1130.6500000000001</ele>
        <time>2016-06-04T13:19:48Z</time>
      </trkpt>
      <trkpt lat="43.713136548176408" lon="11.942456513643265">
        <ele>1131.6099999999999</ele>
        <time>2016-06-04T13:19:55Z</time>
      </trkpt>
      <trkpt lat="43.713273508474231" lon="11.942522898316383">
        <ele>1132.5699999999999</ele>
        <time>2016-06-04T13:20:08Z</time>
      </trkpt>
      <trkpt lat="43.713390184566379" lon="11.942604957148433">
        <ele>1133.53</ele>
        <time>2016-06-04T13:20:19Z</time>
      </trkpt>
      <trkpt lat="43.713466208428144" lon="11.942659858614206">
        <ele>1134.01</ele>
        <time>2016-06-04T13:20:26Z</time>
      </trkpt>
      <trkpt lat="43.713525887578726" lon="11.942694056779146">
        <ele>1134.01</ele>
        <time>2016-06-04T13:20:34Z</time>
      </trkpt>
      <trkpt lat="43.713554386049509" lon="11.94272356107831">
        <ele>1134.01</ele>
        <time>2016-06-04T13:20:37Z</time>
      </trkpt>
      <trkpt lat="43.713689250871539" lon="11.942744683474302">
        <ele>1134.49</ele>
        <time>2016-06-04T13:20:49Z</time>
      </trkpt>
      <trkpt lat="43.713791677728295" lon="11.942791789770126">
        <ele>1135.45</ele>
        <time>2016-06-04T13:21:00Z</time>
      </trkpt>
      <trkpt lat="43.713924447074533" lon="11.942837554961443">
        <ele>1136.4200000000001</ele>
        <time>2016-06-04T13:21:14Z</time>
      </trkpt>
      <trkpt lat="43.714017905294895" lon="11.942889606580138">
        <ele>1137.8599999999999</ele>
        <time>2016-06-04T13:21:25Z</time>
      </trkpt>
      <trkpt lat="43.714097952470183" lon="11.942937802523375">
        <ele>1138.8199999999999</ele>
        <time>2016-06-04T13:21:35Z</time>
      </trkpt>
      <trkpt lat="43.714158469811082" lon="11.942921290174127">
        <ele>1139.78</ele>
        <time>2016-06-04T13:21:45Z</time>
      </trkpt>
      <trkpt lat="43.714207839220762" lon="11.942957583814859">
        <ele>1139.78</ele>
        <time>2016-06-04T13:22:05Z</time>
      </trkpt>
      <trkpt lat="43.714216137304902" lon="11.942948196083307">
        <ele>1139.78</ele>
        <time>2016-06-04T13:22:16Z</time>
      </trkpt>
      <trkpt lat="43.714216556400061" lon="11.942959930747747">
        <ele>1139.78</ele>
        <time>2016-06-04T13:22:31Z</time>
      </trkpt>
      <trkpt lat="43.714215299114585" lon="11.942965295165777">
        <ele>1140.26</ele>
        <time>2016-06-04T13:22:32Z</time>
      </trkpt>
      <trkpt lat="43.714231560006738" lon="11.943014496937394">
        <ele>1140.26</ele>
        <time>2016-06-04T13:22:42Z</time>
      </trkpt>
      <trkpt lat="43.714219992980361" lon="11.942908046767116">
        <ele>1140.26</ele>
        <time>2016-06-04T13:22:51Z</time>
      </trkpt>
      <trkpt lat="43.714184788987041" lon="11.942872004583478">
        <ele>1140.74</ele>
        <time>2016-06-04T13:22:59Z</time>
      </trkpt>
      <trkpt lat="43.714153105393052" lon="11.942712748423219">
        <ele>1140.74</ele>
        <time>2016-06-04T13:23:11Z</time>
      </trkpt>
      <trkpt lat="43.714110860601068" lon="11.942605208605528">
        <ele>1142.1800000000001</ele>
        <time>2016-06-04T13:23:21Z</time>
      </trkpt>
      <trkpt lat="43.71410708874464" lon="11.94251443259418">
        <ele>1143.1400000000001</ele>
        <time>2016-06-04T13:23:31Z</time>
      </trkpt>
      <trkpt lat="43.714102562516928" lon="11.942507391795516">
        <ele>1142.6600000000001</ele>
        <time>2016-06-04T13:23:32Z</time>
      </trkpt>
      <trkpt lat="43.714162744581699" lon="11.94238887168467">
        <ele>1142.6600000000001</ele>
        <time>2016-06-04T13:23:42Z</time>
      </trkpt>
      <trkpt lat="43.714170875027776" lon="11.942275548353791">
        <ele>1143.6300000000001</ele>
        <time>2016-06-04T13:23:51Z</time>
      </trkpt>
      <trkpt lat="43.714183364063501" lon="11.942194746807218">
        <ele>1143.6300000000001</ele>
        <time>2016-06-04T13:23:57Z</time>
      </trkpt>
      <trkpt lat="43.714173138141632" lon="11.942066922783852">
        <ele>1143.1400000000001</ele>
        <time>2016-06-04T13:24:06Z</time>
      </trkpt>
      <trkpt lat="43.714142208918929" lon="11.941909426823258">
        <ele>1143.1400000000001</ele>
        <time>2016-06-04T13:24:16Z</time>
      </trkpt>
      <trkpt lat="43.714181771501899" lon="11.941799875348806">
        <ele>1143.1400000000001</ele>
        <time>2016-06-04T13:24:25Z</time>
      </trkpt>
      <trkpt lat="43.714220328256488" lon="11.941746147349477">
        <ele>1143.1400000000001</ele>
        <time>2016-06-04T13:24:29Z</time>
      </trkpt>
      <trkpt lat="43.714312864467502" lon="11.941625783219934">
        <ele>1142.6600000000001</ele>
        <time>2016-06-04T13:24:40Z</time>
      </trkpt>
      <trkpt lat="43.714326526969671" lon="11.94157624617219">
        <ele>1142.6600000000001</ele>
        <time>2016-06-04T13:24:44Z</time>
      </trkpt>
      <trkpt lat="43.714406322687864" lon="11.941390922293067">
        <ele>1142.1800000000001</ele>
        <time>2016-06-04T13:24:56Z</time>
      </trkpt>
      <trkpt lat="43.714391402900219" lon="11.941314227879047">
        <ele>1142.6600000000001</ele>
        <time>2016-06-04T13:25:02Z</time>
      </trkpt>
      <trkpt lat="43.714396180585027" lon="11.941214483231306">
        <ele>1143.1400000000001</ele>
        <time>2016-06-04T13:25:08Z</time>
      </trkpt>
      <trkpt lat="43.714406406506896" lon="11.941050952300429">
        <ele>1143.6300000000001</ele>
        <time>2016-06-04T13:25:20Z</time>
      </trkpt>
      <trkpt lat="43.714387295767665" lon="11.940895467996597">
        <ele>1142.6600000000001</ele>
        <time>2016-06-04T13:25:31Z</time>
      </trkpt>
      <trkpt lat="43.714420069009066" lon="11.940673934295774">
        <ele>1141.7</ele>
        <time>2016-06-04T13:25:44Z</time>
      </trkpt>
      <trkpt lat="43.714450495317578" lon="11.940590953454375">
        <ele>1141.7</ele>
        <time>2016-06-04T13:25:50Z</time>
      </trkpt>
      <trkpt lat="43.714534649625421" lon="11.940373945981264">
        <ele>1140.74</ele>
        <time>2016-06-04T13:26:02Z</time>
      </trkpt>
      <trkpt lat="43.714526016265154" lon="11.940343184396625">
        <ele>1140.26</ele>
        <time>2016-06-04T13:26:04Z</time>
      </trkpt>
      <trkpt lat="43.714466588571668" lon="11.940311836078763">
        <ele>1140.26</ele>
        <time>2016-06-04T13:26:15Z</time>
      </trkpt>
      <trkpt lat="43.714417973533273" lon="11.94030093960464">
        <ele>1140.26</ele>
        <time>2016-06-04T13:26:20Z</time>
      </trkpt>
      <trkpt lat="43.714326610788703" lon="11.94022617302835">
        <ele>1139.78</ele>
        <time>2016-06-04T13:26:31Z</time>
      </trkpt>
      <trkpt lat="43.714271709322929" lon="11.940148556604981">
        <ele>1139.3</ele>
        <time>2016-06-04T13:26:40Z</time>
      </trkpt>
      <trkpt lat="43.714286210015416" lon="11.940073370933533">
        <ele>1138.3399999999999</ele>
        <time>2016-06-04T13:26:45Z</time>
      </trkpt>
      <trkpt lat="43.714270116761327" lon="11.93994470871985">
        <ele>1137.3800000000001</ele>
        <time>2016-06-04T13:26:57Z</time>
      </trkpt>
      <trkpt lat="43.714257208630443" lon="11.939891735091805">
        <ele>1136.9000000000001</ele>
        <time>2016-06-04T13:27:02Z</time>
      </trkpt>
      <trkpt lat="43.714190404862165" lon="11.939704902470112">
        <ele>1137.8599999999999</ele>
        <time>2016-06-04T13:27:10Z</time>
      </trkpt>
      <trkpt lat="43.714185375720263" lon="11.939641367644072">
        <ele>1138.8199999999999</ele>
        <time>2016-06-04T13:27:15Z</time>
      </trkpt>
      <trkpt lat="43.714188225567341" lon="11.939523266628385">
        <ele>1138.3399999999999</ele>
        <time>2016-06-04T13:27:24Z</time>
      </trkpt>
      <trkpt lat="43.714160230010748" lon="11.93949569016695">
        <ele>1138.3399999999999</ele>
        <time>2016-06-04T13:27:33Z</time>
      </trkpt>
      <trkpt lat="43.714084038510919" lon="11.939463503658772">
        <ele>1138.3399999999999</ele>
        <time>2016-06-04T13:27:50Z</time>
      </trkpt>
      <trkpt lat="43.714154111221433" lon="11.939369542524219">
        <ele>1136.9000000000001</ele>
        <time>2016-06-04T13:28:04Z</time>
      </trkpt>
      <trkpt lat="43.714187806472182" lon="11.939291507005692">
        <ele>1136.4200000000001</ele>
        <time>2016-06-04T13:28:15Z</time>
      </trkpt>
      <trkpt lat="43.714120499789715" lon="11.939182626083493">
        <ele>1136.4200000000001</ele>
        <time>2016-06-04T13:28:25Z</time>
      </trkpt>
      <trkpt lat="43.714165678247809" lon="11.939124707132578">
        <ele>1135.45</ele>
        <time>2016-06-04T13:28:32Z</time>
      </trkpt>
      <trkpt lat="43.714230470359325" lon="11.939104171469808">
        <ele>1134.49</ele>
        <time>2016-06-04T13:28:44Z</time>
      </trkpt>
      <trkpt lat="43.714258130639791" lon="11.939077265560627">
        <ele>1134.49</ele>
        <time>2016-06-04T13:28:59Z</time>
      </trkpt>
      <trkpt lat="43.714258717373013" lon="11.9390251301229">
        <ele>1134.01</ele>
        <time>2016-06-04T13:29:12Z</time>
      </trkpt>
      <trkpt lat="43.714388972148299" lon="11.938930163159966">
        <ele>1131.6099999999999</ele>
        <time>2016-06-04T13:29:24Z</time>
      </trkpt>
      <trkpt lat="43.714405903592706" lon="11.938916333019733">
        <ele>1131.6099999999999</ele>
        <time>2016-06-04T13:29:27Z</time>
      </trkpt>
      <trkpt lat="43.714431636035442" lon="11.938902251422405">
        <ele>1131.1300000000001</ele>
        <time>2016-06-04T13:29:28Z</time>
      </trkpt>
      <trkpt lat="43.714567087590694" lon="11.938840225338936">
        <ele>1130.6500000000001</ele>
        <time>2016-06-04T13:29:38Z</time>
      </trkpt>
      <trkpt lat="43.714612852782011" lon="11.938788341358304">
        <ele>1131.1300000000001</ele>
        <time>2016-06-04T13:29:43Z</time>
      </trkpt>
      <trkpt lat="43.714659288525581" lon="11.938604777678847">
        <ele>1131.1300000000001</ele>
        <time>2016-06-04T13:29:56Z</time>
      </trkpt>
      <trkpt lat="43.714654762297869" lon="11.938495310023427">
        <ele>1130.1700000000001</ele>
        <time>2016-06-04T13:30:03Z</time>
      </trkpt>
      <trkpt lat="43.714682338759303" lon="11.938434122130275">
        <ele>1129.21</ele>
        <time>2016-06-04T13:30:16Z</time>
      </trkpt>
      <trkpt lat="43.714588126167655" lon="11.938440492376685">
        <ele>1128.73</ele>
        <time>2016-06-04T13:30:32Z</time>
      </trkpt>
      <trkpt lat="43.714544121176004" lon="11.938423560932279">
        <ele>1128.24</ele>
        <time>2016-06-04T13:30:45Z</time>
      </trkpt>
      <trkpt lat="43.714300626888871" lon="11.938368072733283">
        <ele>1128.73</ele>
        <time>2016-06-04T13:31:08Z</time>
      </trkpt>
      <trkpt lat="43.714412860572338" lon="11.93830587901175">
        <ele>1128.24</ele>
        <time>2016-06-04T13:31:20Z</time>
      </trkpt>
      <trkpt lat="43.714525261893868" lon="11.938246618956327">
        <ele>1127.28</ele>
        <time>2016-06-04T13:31:29Z</time>
      </trkpt>
      <trkpt lat="43.714664317667484" lon="11.938124410808086">
        <ele>1126.8</ele>
        <time>2016-06-04T13:31:40Z</time>
      </trkpt>
      <trkpt lat="43.714624922722578" lon="11.938174618408084">
        <ele>1126.8</ele>
        <time>2016-06-04T13:31:54Z</time>
      </trkpt>
      <trkpt lat="43.714691223576665" lon="11.938198423013091">
        <ele>1126.8</ele>
        <time>2016-06-04T13:32:13Z</time>
      </trkpt>
      <trkpt lat="43.714692397043109" lon="11.938164392486215">
        <ele>1126.8</ele>
        <time>2016-06-04T13:32:26Z</time>
      </trkpt>
      <trkpt lat="43.714724918827415" lon="11.938203368335962">
        <ele>1126.8</ele>
        <time>2016-06-04T13:32:37Z</time>
      </trkpt>
      <trkpt lat="43.714730869978666" lon="11.938164979219437">
        <ele>1126.8</ele>
        <time>2016-06-04T13:32:50Z</time>
      </trkpt>
      <trkpt lat="43.714668424800038" lon="11.938013350591063">
        <ele>1126.8</ele>
        <time>2016-06-04T13:33:02Z</time>
      </trkpt>
      <trkpt lat="43.71462844312191" lon="11.938032628968358">
        <ele>1126.8</ele>
        <time>2016-06-04T13:33:13Z</time>
      </trkpt>
      <trkpt lat="43.714564740657806" lon="11.938055427744985">
        <ele>1127.28</ele>
        <time>2016-06-04T13:33:30Z</time>
      </trkpt>
      <trkpt lat="43.714588126167655" lon="11.938107311725616">
        <ele>1126.8</ele>
        <time>2016-06-04T13:33:41Z</time>
      </trkpt>
      <trkpt lat="43.714657109230757" lon="11.938111167401075">
        <ele>1126.8</ele>
        <time>2016-06-04T13:33:51Z</time>
      </trkpt>
      <trkpt lat="43.714658617973328" lon="11.938080992549658">
        <ele>1127.28</ele>
        <time>2016-06-04T13:34:06Z</time>
      </trkpt>
      <trkpt lat="43.714663228020072" lon="11.938092391937971">
        <ele>1127.28</ele>
        <time>2016-06-04T13:34:25Z</time>
      </trkpt>
      <trkpt lat="43.71475400403142" lon="11.938149221241474">
        <ele>1127.76</ele>
        <time>2016-06-04T13:34:39Z</time>
      </trkpt>
      <trkpt lat="43.714737240225077" lon="11.93817445077002">
        <ele>1127.76</ele>
        <time>2016-06-04T13:34:50Z</time>
      </trkpt>
      <trkpt lat="43.714793147519231" lon="11.938171768561006">
        <ele>1127.76</ele>
        <time>2016-06-04T13:35:10Z</time>
      </trkpt>
      <trkpt lat="43.71487814001739" lon="11.938143773004413">
        <ele>1126.8</ele>
        <time>2016-06-04T13:35:21Z</time>
      </trkpt>
      <trkpt lat="43.714947877451777" lon="11.938054254278541">
        <ele>1126.3199999999999</ele>
        <time>2016-06-04T13:35:27Z</time>
      </trkpt>
      <trkpt lat="43.715037647634745" lon="11.937982421368361">
        <ele>1125.3599999999999</ele>
        <time>2016-06-04T13:35:37Z</time>
      </trkpt>
      <trkpt lat="43.715075785294175" lon="11.937946965917945">
        <ele>1125.3599999999999</ele>
        <time>2016-06-04T13:35:48Z</time>
      </trkpt>
      <trkpt lat="43.715078802779317" lon="11.937946965917945">
        <ele>1125.3599999999999</ele>
        <time>2016-06-04T13:35:52Z</time>
      </trkpt>
      <trkpt lat="43.715098164975643" lon="11.937899691984057">
        <ele>1124.8800000000001</ele>
        <time>2016-06-04T13:36:06Z</time>
      </trkpt>
      <trkpt lat="43.715046783909202" lon="11.937898267060518">
        <ele>1124.8800000000001</ele>
        <time>2016-06-04T13:36:17Z</time>
      </trkpt>
      <trkpt lat="43.714960366487503" lon="11.937834396958351">
        <ele>1125.8399999999999</ele>
        <time>2016-06-04T13:36:27Z</time>
      </trkpt>
      <trkpt lat="43.714949805289507" lon="11.937762564048171">
        <ele>1124.8800000000001</ele>
        <time>2016-06-04T13:36:34Z</time>
      </trkpt>
      <trkpt lat="43.715022979304194" lon="11.937653683125973">
        <ele>1123.4400000000001</ele>
        <time>2016-06-04T13:36:44Z</time>
      </trkpt>
      <trkpt lat="43.715017950162292" lon="11.937629794701934">
        <ele>1123.4400000000001</ele>
        <time>2016-06-04T13:36:46Z</time>
      </trkpt>
      <trkpt lat="43.715030774474144" lon="11.937581263482571">
        <ele>1122.96</ele>
        <time>2016-06-04T13:36:48Z</time>
      </trkpt>
      <trkpt lat="43.715061116963625" lon="11.937404572963715">
        <ele>1122.48</ele>
        <time>2016-06-04T13:36:57Z</time>
      </trkpt>
      <trkpt lat="43.715060697868466" lon="11.937235342338681">
        <ele>1122</ele>
        <time>2016-06-04T13:37:08Z</time>
      </trkpt>
      <trkpt lat="43.715030187740922" lon="11.937114894390106">
        <ele>1122.48</ele>
        <time>2016-06-04T13:37:17Z</time>
      </trkpt>
      <trkpt lat="43.715000431984663" lon="11.936962343752384">
        <ele>1123.4400000000001</ele>
        <time>2016-06-04T13:37:28Z</time>
      </trkpt>
      <trkpt lat="43.714959025382996" lon="11.936914650723338">
        <ele>1123.9200000000001</ele>
        <time>2016-06-04T13:37:30Z</time>
      </trkpt>
      <trkpt lat="43.714952236041427" lon="11.936846924945712">
        <ele>1123.9200000000001</ele>
        <time>2016-06-04T13:37:45Z</time>
      </trkpt>
      <trkpt lat="43.714995738118887" lon="11.93676520138979">
        <ele>1123.4400000000001</ele>
        <time>2016-06-04T13:37:50Z</time>
      </trkpt>
      <trkpt lat="43.715046783909202" lon="11.93662840873003">
        <ele>1121.52</ele>
        <time>2016-06-04T13:38:00Z</time>
      </trkpt>
      <trkpt lat="43.715066900476813" lon="11.936559258028865">
        <ele>1120.0699999999999</ele>
        <time>2016-06-04T13:38:06Z</time>
      </trkpt>
      <trkpt lat="43.715071426704526" lon="11.936530508100986">
        <ele>1120.0699999999999</ele>
        <time>2016-06-04T13:38:08Z</time>
      </trkpt>
      <trkpt lat="43.715083161368966" lon="11.936372090131044">
        <ele>1119.5899999999999</ele>
        <time>2016-06-04T13:38:19Z</time>
      </trkpt>
      <trkpt lat="43.715086430311203" lon="11.936285085976124">
        <ele>1119.5899999999999</ele>
        <time>2016-06-04T13:38:24Z</time>
      </trkpt>
      <trkpt lat="43.715166645124555" lon="11.936129266396165">
        <ele>1119.1099999999999</ele>
        <time>2016-06-04T13:38:36Z</time>
      </trkpt>
      <trkpt lat="43.715149210765958" lon="11.936004208400846">
        <ele>1119.5899999999999</ele>
        <time>2016-06-04T13:38:47Z</time>
      </trkpt>
      <trkpt lat="43.715210985392332" lon="11.935878647491336">
        <ele>1117.6700000000001</ele>
        <time>2016-06-04T13:38:57Z</time>
      </trkpt>
      <trkpt lat="43.715238980948925" lon="11.935779405757785">
        <ele>1114.79</ele>
        <time>2016-06-04T13:39:08Z</time>
      </trkpt>
      <trkpt lat="43.715258343145251" lon="11.935734981670976">
        <ele>1112.8599999999999</ele>
        <time>2016-06-04T13:39:19Z</time>
      </trkpt>
      <trkpt lat="43.715290445834398" lon="11.935799438506365">
        <ele>1111.9000000000001</ele>
        <time>2016-06-04T13:39:30Z</time>
      </trkpt>
      <trkpt lat="43.715312406420708" lon="11.935803210362792">
        <ele>1111.9000000000001</ele>
        <time>2016-06-04T13:39:33Z</time>
      </trkpt>
      <trkpt lat="43.715429417788982" lon="11.935787620022893">
        <ele>1109.02</ele>
        <time>2016-06-04T13:39:42Z</time>
      </trkpt>
      <trkpt lat="43.715536119416356" lon="11.935829529538751">
        <ele>1107.0999999999999</ele>
        <time>2016-06-04T13:39:50Z</time>
      </trkpt>
      <trkpt lat="43.715679198503494" lon="11.935868924483657">
        <ele>1105.1700000000001</ele>
        <time>2016-06-04T13:40:00Z</time>
      </trkpt>
      <trkpt lat="43.715797131881118" lon="11.935851406306028">
        <ele>1102.77</ele>
        <time>2016-06-04T13:40:09Z</time>
      </trkpt>
      <trkpt lat="43.715806603431702" lon="11.935845538973808">
        <ele>1102.77</ele>
        <time>2016-06-04T13:40:10Z</time>
      </trkpt>
      <trkpt lat="43.71585882268846" lon="11.935815615579486">
        <ele>1101.8099999999999</ele>
        <time>2016-06-04T13:40:15Z</time>
      </trkpt>
      <trkpt lat="43.715968122705817" lon="11.935875797644258">
        <ele>1100.8499999999999</ele>
        <time>2016-06-04T13:40:21Z</time>
      </trkpt>
      <trkpt lat="43.716093096882105" lon="11.935910666361451">
        <ele>1097.48</ele>
        <time>2016-06-04T13:40:32Z</time>
      </trkpt>
      <trkpt lat="43.716218406334519" lon="11.935915108770132">
        <ele>1095.5599999999999</ele>
        <time>2016-06-04T13:40:44Z</time>
      </trkpt>
      <trkpt lat="43.716226285323501" lon="11.935860961675644">
        <ele>1094.5999999999999</ele>
        <time>2016-06-04T13:40:53Z</time>
      </trkpt>
      <trkpt lat="43.716263920068741" lon="11.935798265039921">
        <ele>1094.5999999999999</ele>
        <time>2016-06-04T13:41:00Z</time>
      </trkpt>
      <trkpt lat="43.716348577290773" lon="11.93567312322557">
        <ele>1093.1600000000001</ele>
        <time>2016-06-04T13:41:13Z</time>
      </trkpt>
      <trkpt lat="43.716331562027335" lon="11.93559106439352">
        <ele>1093.6400000000001</ele>
        <time>2016-06-04T13:41:23Z</time>
      </trkpt>
      <trkpt lat="43.716316893696785" lon="11.935455026105046">
        <ele>1094.5999999999999</ele>
        <time>2016-06-04T13:41:34Z</time>
      </trkpt>
      <trkpt lat="43.716303315013647" lon="11.935321670025587">
        <ele>1095.5599999999999</ele>
        <time>2016-06-04T13:41:45Z</time>
      </trkpt>
      <trkpt lat="43.716233409941196" lon="11.935112373903394">
        <ele>1095.5599999999999</ele>
        <time>2016-06-04T13:41:59Z</time>
      </trkpt>
      <trkpt lat="43.716266853734851" lon="11.93493090569973">
        <ele>1096.52</ele>
        <time>2016-06-04T13:42:10Z</time>
      </trkpt>
      <trkpt lat="43.716384451836348" lon="11.934817666187882">
        <ele>1095.5599999999999</ele>
        <time>2016-06-04T13:42:21Z</time>
      </trkpt>
      <trkpt lat="43.71641093865037" lon="11.934649776667356">
        <ele>1094.1199999999999</ele>
        <time>2016-06-04T13:42:31Z</time>
      </trkpt>
      <trkpt lat="43.71640507131815" lon="11.934589007869363">
        <ele>1094.1199999999999</ele>
        <time>2016-06-04T13:42:34Z</time>
      </trkpt>
      <trkpt lat="43.716366849839687" lon="11.934420699253678">
        <ele>1093.6400000000001</ele>
        <time>2016-06-04T13:42:44Z</time>
      </trkpt>
      <trkpt lat="43.71642024256289" lon="11.934351716190577">
        <ele>1092.2</ele>
        <time>2016-06-04T13:42:52Z</time>
      </trkpt>
      <trkpt lat="43.716404065489769" lon="11.934432769194245">
        <ele>1093.1600000000001</ele>
        <time>2016-06-04T13:43:06Z</time>
      </trkpt>
      <trkpt lat="43.716427199542522" lon="11.934441989287734">
        <ele>1093.1600000000001</ele>
        <time>2016-06-04T13:43:22Z</time>
      </trkpt>
      <trkpt lat="43.71647791005671" lon="11.934426901862025">
        <ele>1093.6400000000001</ele>
        <time>2016-06-04T13:43:41Z</time>
      </trkpt>
      <trkpt lat="43.716493081301451" lon="11.934449449181557">
        <ele>1093.6400000000001</ele>
        <time>2016-06-04T13:43:58Z</time>
      </trkpt>
      <trkpt lat="43.716536331921816" lon="11.934373676776886">
        <ele>1092.6800000000001</ele>
        <time>2016-06-04T13:44:10Z</time>
      </trkpt>
      <trkpt lat="43.716567512601614" lon="11.934248451143503">
        <ele>1091.23</ele>
        <time>2016-06-04T13:44:22Z</time>
      </trkpt>
      <trkpt lat="43.716584695503116" lon="11.934170499444008">
        <ele>1090.27</ele>
        <time>2016-06-04T13:44:28Z</time>
      </trkpt>
      <trkpt lat="43.716591149568558" lon="11.934153567999601">
        <ele>1090.27</ele>
        <time>2016-06-04T13:44:29Z</time>
      </trkpt>
      <trkpt lat="43.71660590171814" lon="11.934014763683081">
        <ele>1088.8299999999999</ele>
        <time>2016-06-04T13:44:40Z</time>
      </trkpt>
      <trkpt lat="43.716609673574567" lon="11.933843102306128">
        <ele>1087.3900000000001</ele>
        <time>2016-06-04T13:44:53Z</time>
      </trkpt>
      <trkpt lat="43.716592825949192" lon="11.933720055967569">
        <ele>1087.8699999999999</ele>
        <time>2016-06-04T13:45:05Z</time>
      </trkpt>
      <trkpt lat="43.716578157618642" lon="11.933613857254386">
        <ele>1088.3499999999999</ele>
        <time>2016-06-04T13:45:17Z</time>
      </trkpt>
      <trkpt lat="43.716603890061378" lon="11.933485697954893">
        <ele>1088.8299999999999</ele>
        <time>2016-06-04T13:45:27Z</time>
      </trkpt>
      <trkpt lat="43.716600202023983" lon="11.933344295248389">
        <ele>1089.3099999999999</ele>
        <time>2016-06-04T13:45:41Z</time>
      </trkpt>
      <trkpt lat="43.716611685231328" lon="11.933310516178608">
        <ele>1088.8299999999999</ele>
        <time>2016-06-04T13:45:52Z</time>
      </trkpt>
      <trkpt lat="43.71660883538425" lon="11.933326693251729">
        <ele>1088.8299999999999</ele>
        <time>2016-06-04T13:46:13Z</time>
      </trkpt>
      <trkpt lat="43.716583857312799" lon="11.933336919173598">
        <ele>1088.8299999999999</ele>
        <time>2016-06-04T13:46:32Z</time>
      </trkpt>
      <trkpt lat="43.716529877856374" lon="11.933339266106486">
        <ele>1088.8299999999999</ele>
        <time>2016-06-04T13:47:00Z</time>
      </trkpt>
      <trkpt lat="43.716556364670396" lon="11.933312695473433">
        <ele>1089.3099999999999</ele>
        <time>2016-06-04T13:47:13Z</time>
      </trkpt>
      <trkpt lat="43.716656109318137" lon="11.933285370469093">
        <ele>1089.3099999999999</ele>
        <time>2016-06-04T13:47:32Z</time>
      </trkpt>
      <trkpt lat="43.716675220057368" lon="11.933266092091799">
        <ele>1089.79</ele>
        <time>2016-06-04T13:47:47Z</time>
      </trkpt>
      <trkpt lat="43.716635406017303" lon="11.933218399062753">
        <ele>1089.79</ele>
        <time>2016-06-04T13:48:02Z</time>
      </trkpt>
      <trkpt lat="43.716613445430994" lon="11.933176489546895">
        <ele>1090.27</ele>
        <time>2016-06-04T13:48:14Z</time>
      </trkpt>
      <trkpt lat="43.716577235609293" lon="11.933113373816013">
        <ele>1091.23</ele>
        <time>2016-06-04T13:48:26Z</time>
      </trkpt>
      <trkpt lat="43.716517388820648" lon="11.933039529249072">
        <ele>1093.1600000000001</ele>
        <time>2016-06-04T13:48:39Z</time>
      </trkpt>
      <trkpt lat="43.716420410200953" lon="11.933040535077453">
        <ele>1094.5999999999999</ele>
        <time>2016-06-04T13:48:53Z</time>
      </trkpt>
      <trkpt lat="43.716325191780925" lon="11.932996110990644">
        <ele>1096.52</ele>
        <time>2016-06-04T13:49:06Z</time>
      </trkpt>
      <trkpt lat="43.716241288930178" lon="11.932991081848741">
        <ele>1098.4400000000001</ele>
        <time>2016-06-04T13:49:19Z</time>
      </trkpt>
      <trkpt lat="43.716129809617996" lon="11.932975659146905">
        <ele>1099.8900000000001</ele>
        <time>2016-06-04T13:49:32Z</time>
      </trkpt>
      <trkpt lat="43.716031406074762" lon="11.932976329699159">
        <ele>1101.3299999999999</ele>
        <time>2016-06-04T13:49:44Z</time>
      </trkpt>
      <trkpt lat="43.715942976996303" lon="11.9329275470227">
        <ele>1103.73</ele>
        <time>2016-06-04T13:49:57Z</time>
      </trkpt>
      <trkpt lat="43.71586955152452" lon="11.932844314724207">
        <ele>1105.6500000000001</ele>
        <time>2016-06-04T13:50:11Z</time>
      </trkpt>
      <trkpt lat="43.715788079425693" lon="11.932797795161605">
        <ele>1106.6099999999999</ele>
        <time>2016-06-04T13:50:22Z</time>
      </trkpt>
      <trkpt lat="43.715710295364261" lon="11.932739121839404">
        <ele>1108.54</ele>
        <time>2016-06-04T13:50:36Z</time>
      </trkpt>
      <trkpt lat="43.71560225263238" lon="11.932702912017703">
        <ele>1110.46</ele>
        <time>2016-06-04T13:50:50Z</time>
      </trkpt>
      <trkpt lat="43.71553972363472" lon="11.932638203725219">
        <ele>1111.4200000000001</ele>
        <time>2016-06-04T13:51:03Z</time>
      </trkpt>
      <trkpt lat="43.715486163273454" lon="11.932534100487828">
        <ele>1110.9400000000001</ele>
        <time>2016-06-04T13:51:13Z</time>
      </trkpt>
      <trkpt lat="43.715446181595325" lon="11.932424046099186">
        <ele>1110.46</ele>
        <time>2016-06-04T13:51:23Z</time>
      </trkpt>
      <trkpt lat="43.715370912104845" lon="11.932293958961964">
        <ele>1109.98</ele>
        <time>2016-06-04T13:51:35Z</time>
      </trkpt>
      <trkpt lat="43.715374600142241" lon="11.932280128821731">
        <ele>1109.98</ele>
        <time>2016-06-04T13:51:36Z</time>
      </trkpt>
      <trkpt lat="43.715355070307851" lon="11.932188011705875">
        <ele>1109.02</ele>
        <time>2016-06-04T13:51:48Z</time>
      </trkpt>
      <trkpt lat="43.715294133871794" lon="11.932143922895193">
        <ele>1109.98</ele>
        <time>2016-06-04T13:51:58Z</time>
      </trkpt>
      <trkpt lat="43.715217104181647" lon="11.932062450796366">
        <ele>1110.9400000000001</ele>
        <time>2016-06-04T13:52:11Z</time>
      </trkpt>
      <trkpt lat="43.715089950710535" lon="11.932022301480174">
        <ele>1112.8599999999999</ele>
        <time>2016-06-04T13:52:25Z</time>
      </trkpt>
      <trkpt lat="43.714988362044096" lon="11.932011656463146">
        <ele>1114.79</ele>
        <time>2016-06-04T13:52:38Z</time>
      </trkpt>
      <trkpt lat="43.714916445314884" lon="11.932040322571993">
        <ele>1116.23</ele>
        <time>2016-06-04T13:52:51Z</time>
      </trkpt>
      <trkpt lat="43.714857017621398" lon="11.931999670341611">
        <ele>1117.1900000000001</ele>
        <time>2016-06-04T13:53:02Z</time>
      </trkpt>
      <trkpt lat="43.714785519987345" lon="11.931925741955638">
        <ele>1118.1500000000001</ele>
        <time>2016-06-04T13:53:12Z</time>
      </trkpt>
      <trkpt lat="43.714767247438431" lon="11.93189992569387">
        <ele>1119.5899999999999</ele>
        <time>2016-06-04T13:53:17Z</time>
      </trkpt>
      <trkpt lat="43.714644452556968" lon="11.931835217401385">
        <ele>1118.6300000000001</ele>
        <time>2016-06-04T13:53:27Z</time>
      </trkpt>
      <trkpt lat="43.714585863053799" lon="11.931754164397717">
        <ele>1118.6300000000001</ele>
        <time>2016-06-04T13:53:38Z</time>
      </trkpt>
      <trkpt lat="43.714552838355303" lon="11.931657856330276">
        <ele>1119.1099999999999</ele>
        <time>2016-06-04T13:53:48Z</time>
      </trkpt>
      <trkpt lat="43.714534398168325" lon="11.931511340662837">
        <ele>1118.1500000000001</ele>
        <time>2016-06-04T13:54:01Z</time>
      </trkpt>
      <trkpt lat="43.714517885819077" lon="11.931372033432126">
        <ele>1118.6300000000001</ele>
        <time>2016-06-04T13:54:12Z</time>
      </trkpt>
      <trkpt lat="43.714512353762984" lon="11.931283185258508">
        <ele>1120.0699999999999</ele>
        <time>2016-06-04T13:54:25Z</time>
      </trkpt>
      <trkpt lat="43.714519562199712" lon="11.931206239387393">
        <ele>1119.5899999999999</ele>
        <time>2016-06-04T13:54:35Z</time>
      </trkpt>
      <trkpt lat="43.714570188894868" lon="11.931095095351338">
        <ele>1119.1099999999999</ele>
        <time>2016-06-04T13:54:46Z</time>
      </trkpt>
      <trkpt lat="43.71460597962141" lon="11.931045390665531">
        <ele>1118.6300000000001</ele>
        <time>2016-06-04T13:54:56Z</time>
      </trkpt>
      <trkpt lat="43.714667838066816" lon="11.931030135601759">
        <ele>1118.1500000000001</ele>
        <time>2016-06-04T13:55:06Z</time>
      </trkpt>
      <trkpt lat="43.714704047888517" lon="11.931015718728304">
        <ele>1118.1500000000001</ele>
        <time>2016-06-04T13:55:10Z</time>
      </trkpt>
      <trkpt lat="43.71479113586247" lon="11.931011779233813">
        <ele>1116.23</ele>
        <time>2016-06-04T13:55:20Z</time>
      </trkpt>
      <trkpt lat="43.714863639324903" lon="11.930996691808105">
        <ele>1114.3099999999999</ele>
        <time>2016-06-04T13:55:31Z</time>
      </trkpt>
      <trkpt lat="43.714926252141595" lon="11.930975569412112">
        <ele>1112.8599999999999</ele>
        <time>2016-06-04T13:55:42Z</time>
      </trkpt>
      <trkpt lat="43.714999426156282" lon="11.930990237742662">
        <ele>1111.4200000000001</ele>
        <time>2016-06-04T13:55:56Z</time>
      </trkpt>
      <trkpt lat="43.71502323076129" lon="11.931024016812444">
        <ele>1109.98</ele>
        <time>2016-06-04T13:56:06Z</time>
      </trkpt>
      <trkpt lat="43.715076204389334" lon="11.931043714284897">
        <ele>1108.54</ele>
        <time>2016-06-04T13:56:18Z</time>
      </trkpt>
      <trkpt lat="43.715125909075141" lon="11.931061986833811">
        <ele>1107.5799999999999</ele>
        <time>2016-06-04T13:56:29Z</time>
      </trkpt>
      <trkpt lat="43.715191371738911" lon="11.931113200262189">
        <ele>1106.1300000000001</ele>
        <time>2016-06-04T13:56:40Z</time>
      </trkpt>
      <trkpt lat="43.715272089466453" lon="11.931150667369366">
        <ele>1105.1700000000001</ele>
        <time>2016-06-04T13:56:53Z</time>
      </trkpt>
      <trkpt lat="43.715376611799002" lon="11.931191319599748">
        <ele>1103.25</ele>
        <time>2016-06-04T13:57:06Z</time>
      </trkpt>
      <trkpt lat="43.715466046705842" lon="11.931218225508928">
        <ele>1100.8499999999999</ele>
        <time>2016-06-04T13:57:17Z</time>
      </trkpt>
      <trkpt lat="43.715539388358593" lon="11.93131503649056">
        <ele>1099.4000000000001</ele>
        <time>2016-06-04T13:57:30Z</time>
      </trkpt>
      <trkpt lat="43.71560962870717" lon="11.931350827217102">
        <ele>1097.96</ele>
        <time>2016-06-04T13:57:42Z</time>
      </trkpt>
      <trkpt lat="43.715655226260424" lon="11.931438585743308">
        <ele>1097</ele>
        <time>2016-06-04T13:57:52Z</time>
      </trkpt>
      <trkpt lat="43.715719515457749" lon="11.931515783071518">
        <ele>1096.04</ele>
        <time>2016-06-04T13:58:01Z</time>
      </trkpt>
      <trkpt lat="43.715833844617009" lon="11.931608319282532">
        <ele>1095.0799999999999</ele>
        <time>2016-06-04T13:58:11Z</time>
      </trkpt>
      <trkpt lat="43.71592914685607" lon="11.931671351194382">
        <ele>1093.6400000000001</ele>
        <time>2016-06-04T13:58:22Z</time>
      </trkpt>
      <trkpt lat="43.716028137132525" lon="11.931732790544629">
        <ele>1092.2</ele>
        <time>2016-06-04T13:58:32Z</time>
      </trkpt>
      <trkpt lat="43.716101478785276" lon="11.931763384491205">
        <ele>1092.2</ele>
        <time>2016-06-04T13:58:42Z</time>
      </trkpt>
      <trkpt lat="43.716195859014988" lon="11.931842593476176">
        <ele>1091.71</ele>
        <time>2016-06-04T13:58:52Z</time>
      </trkpt>
      <trkpt lat="43.716294346377254" lon="11.931933620944619">
        <ele>1090.75</ele>
        <time>2016-06-04T13:59:04Z</time>
      </trkpt>
      <trkpt lat="43.716412447392941" lon="11.932011991739273">
        <ele>1089.3099999999999</ele>
        <time>2016-06-04T13:59:15Z</time>
      </trkpt>
      <trkpt lat="43.716547898948193" lon="11.932067479938269">
        <ele>1088.3499999999999</ele>
        <time>2016-06-04T13:59:27Z</time>
      </trkpt>
      <trkpt lat="43.71657220646739" lon="11.932101007550955">
        <ele>1088.3499999999999</ele>
        <time>2016-06-04T13:59:30Z</time>
      </trkpt>
      <trkpt lat="43.716572793200612" lon="11.932209553197026">
        <ele>1086.9100000000001</ele>
        <time>2016-06-04T13:59:39Z</time>
      </trkpt>
      <trkpt lat="43.716637082397938" lon="11.932276105508208">
        <ele>1085.95</ele>
        <time>2016-06-04T13:59:48Z</time>
      </trkpt>
      <trkpt lat="43.716693324968219" lon="11.932427734136581">
        <ele>1085.47</ele>
        <time>2016-06-04T14:00:00Z</time>
      </trkpt>
      <trkpt lat="43.716781670227647" lon="11.932513900101185">
        <ele>1084.5</ele>
        <time>2016-06-04T14:00:10Z</time>
      </trkpt>
      <trkpt lat="43.716910080984235" lon="11.932569891214371">
        <ele>1083.0599999999999</ele>
        <time>2016-06-04T14:00:22Z</time>
      </trkpt>
      <trkpt lat="43.717012424021959" lon="11.93264365196228">
        <ele>1082.0999999999999</ele>
        <time>2016-06-04T14:00:32Z</time>
      </trkpt>
      <trkpt lat="43.717104122042656" lon="11.932730656117201">
        <ele>1080.6600000000001</ele>
        <time>2016-06-04T14:00:44Z</time>
      </trkpt>
      <trkpt lat="43.717168159782887" lon="11.932858480140567">
        <ele>1079.7</ele>
        <time>2016-06-04T14:00:54Z</time>
      </trkpt>
      <trkpt lat="43.717170171439648" lon="11.932873902842402">
        <ele>1079.22</ele>
        <time>2016-06-04T14:00:55Z</time>
      </trkpt>
      <trkpt lat="43.717184588313103" lon="11.932902317494154">
        <ele>1079.22</ele>
        <time>2016-06-04T14:00:57Z</time>
      </trkpt>
      <trkpt lat="43.71729095466435" lon="11.932983621954918">
        <ele>1078.26</ele>
        <time>2016-06-04T14:01:07Z</time>
      </trkpt>
      <trkpt lat="43.717390196397901" lon="11.933046150952578">
        <ele>1077.78</ele>
        <time>2016-06-04T14:01:16Z</time>
      </trkpt>
      <trkpt lat="43.717443086206913" lon="11.933090910315514">
        <ele>1077.29</ele>
        <time>2016-06-04T14:01:27Z</time>
      </trkpt>
      <trkpt lat="43.717527827247977" lon="11.93307364359498">
        <ele>1075.3699999999999</ele>
        <time>2016-06-04T14:01:39Z</time>
      </trkpt>
      <trkpt lat="43.717615334317088" lon="11.933071715757251">
        <ele>1073.45</ele>
        <time>2016-06-04T14:01:51Z</time>
      </trkpt>
      <trkpt lat="43.717714156955481" lon="11.933047324419022">
        <ele>1072.49</ele>
        <time>2016-06-04T14:02:01Z</time>
      </trkpt>
      <trkpt lat="43.717748606577516" lon="11.932995524257421">
        <ele>1070.5699999999999</ele>
        <time>2016-06-04T14:02:11Z</time>
      </trkpt>
      <trkpt lat="43.717769477516413" lon="11.93291480652988">
        <ele>1068.6400000000001</ele>
        <time>2016-06-04T14:02:22Z</time>
      </trkpt>
      <trkpt lat="43.717844663187861" lon="11.932890163734555">
        <ele>1066.24</ele>
        <time>2016-06-04T14:02:34Z</time>
      </trkpt>
      <trkpt lat="43.717900486662984" lon="11.932917572557926">
        <ele>1064.8</ele>
        <time>2016-06-04T14:02:48Z</time>
      </trkpt>
      <trkpt lat="43.717957651242614" lon="11.932941460981965">
        <ele>1062.3900000000001</ele>
        <time>2016-06-04T14:02:59Z</time>
      </trkpt>
      <trkpt lat="43.718076087534428" lon="11.933012120425701">
        <ele>1060.95</ele>
        <time>2016-06-04T14:03:10Z</time>
      </trkpt>
      <trkpt lat="43.718163259327412" lon="11.933051431551576">
        <ele>1058.55</ele>
        <time>2016-06-04T14:03:20Z</time>
      </trkpt>
      <trkpt lat="43.718255711719394" lon="11.933024022728205">
        <ele>1057.5899999999999</ele>
        <time>2016-06-04T14:03:32Z</time>
      </trkpt>
      <trkpt lat="43.718295777216554" lon="11.932978676632047">
        <ele>1056.1500000000001</ele>
        <time>2016-06-04T14:03:38Z</time>
      </trkpt>
      <trkpt lat="43.718381691724062" lon="11.932924194261432">
        <ele>1054.7</ele>
        <time>2016-06-04T14:03:48Z</time>
      </trkpt>
      <trkpt lat="43.718512868508697" lon="11.9329793471843">
        <ele>1051.8199999999999</ele>
        <time>2016-06-04T14:04:02Z</time>
      </trkpt>
      <trkpt lat="43.718616552650928" lon="11.932993344962597">
        <ele>1050.3800000000001</ele>
        <time>2016-06-04T14:04:14Z</time>
      </trkpt>
      <trkpt lat="43.718697186559439" lon="11.932917069643736">
        <ele>1048.45</ele>
        <time>2016-06-04T14:04:25Z</time>
      </trkpt>
      <trkpt lat="43.718752004206181" lon="11.932871304452419">
        <ele>1046.53</ele>
        <time>2016-06-04T14:04:35Z</time>
      </trkpt>
      <trkpt lat="43.718782933428884" lon="11.932812631130219">
        <ele>1045.0899999999999</ele>
        <time>2016-06-04T14:04:45Z</time>
      </trkpt>
      <trkpt lat="43.718796344473958" lon="11.932757394388318">
        <ele>1043.6500000000001</ele>
        <time>2016-06-04T14:04:52Z</time>
      </trkpt>
      <trkpt lat="43.718816377222538" lon="11.932710455730557">
        <ele>1042.21</ele>
        <time>2016-06-04T14:04:59Z</time>
      </trkpt>
      <trkpt lat="43.718860130757093" lon="11.932619344443083">
        <ele>1040.28</ele>
        <time>2016-06-04T14:05:11Z</time>
      </trkpt>
      <trkpt lat="43.7188804987818" lon="11.932584894821048">
        <ele>1039.8</ele>
        <time>2016-06-04T14:05:15Z</time>
      </trkpt>
      <trkpt lat="43.718894748017192" lon="11.932450281456113">
        <ele>1038.3599999999999</ele>
        <time>2016-06-04T14:05:26Z</time>
      </trkpt>
      <trkpt lat="43.71889072470367" lon="11.932419268414378">
        <ele>1037.8800000000001</ele>
        <time>2016-06-04T14:05:28Z</time>
      </trkpt>
      <trkpt lat="43.718893490731716" lon="11.932399990037084">
        <ele>1037.8800000000001</ele>
        <time>2016-06-04T14:05:29Z</time>
      </trkpt>
      <trkpt lat="43.718916121870279" lon="11.932273339480162">
        <ele>1035.96</ele>
        <time>2016-06-04T14:05:39Z</time>
      </trkpt>
      <trkpt lat="43.71897672303021" lon="11.932244254276156">
        <ele>1034.04</ele>
        <time>2016-06-04T14:05:50Z</time>
      </trkpt>
      <trkpt lat="43.719056434929371" lon="11.932197315618396">
        <ele>1032.1099999999999</ele>
        <time>2016-06-04T14:06:02Z</time>
      </trkpt>
      <trkpt lat="43.71914871968329" lon="11.932160099968314">
        <ele>1031.1500000000001</ele>
        <time>2016-06-04T14:06:12Z</time>
      </trkpt>
      <trkpt lat="43.719205548986793" lon="11.932145347818732">
        <ele>1030.6700000000001</ele>
        <time>2016-06-04T14:06:22Z</time>
      </trkpt>
      <trkpt lat="43.719203285872936" lon="11.93214962258935">
        <ele>1030.6700000000001</ele>
        <time>2016-06-04T14:06:31Z</time>
      </trkpt>
      <trkpt lat="43.719192054122686" lon="11.932143336161971">
        <ele>1031.1500000000001</ele>
        <time>2016-06-04T14:06:45Z</time>
      </trkpt>
      <trkpt lat="43.719206219539046" lon="11.932130344212055">
        <ele>1031.1500000000001</ele>
        <time>2016-06-04T14:06:58Z</time>
      </trkpt>
      <trkpt lat="43.719237735494971" lon="11.93213596008718">
        <ele>1030.6700000000001</ele>
        <time>2016-06-04T14:07:06Z</time>
      </trkpt>
      <trkpt lat="43.719326248392463" lon="11.93219899199903">
        <ele>1030.6700000000001</ele>
        <time>2016-06-04T14:07:16Z</time>
      </trkpt>
      <trkpt lat="43.719417024403811" lon="11.932232938706875">
        <ele>1030.6700000000001</ele>
        <time>2016-06-04T14:07:27Z</time>
      </trkpt>
      <trkpt lat="43.719506878405809" lon="11.932213325053453">
        <ele>1030.1900000000001</ele>
        <time>2016-06-04T14:07:38Z</time>
      </trkpt>
      <trkpt lat="43.719513919204473" lon="11.932202931493521">
        <ele>1030.1900000000001</ele>
        <time>2016-06-04T14:07:39Z</time>
      </trkpt>
      <trkpt lat="43.719502435997128" lon="11.932180132716894">
        <ele>1030.1900000000001</ele>
        <time>2016-06-04T14:07:50Z</time>
      </trkpt>
      <trkpt lat="43.719530934467912" lon="11.932182060554624">
        <ele>1030.1900000000001</ele>
        <time>2016-06-04T14:08:00Z</time>
      </trkpt>
      <trkpt lat="43.719540657475591" lon="11.932214330881834">
        <ele>1030.1900000000001</ele>
        <time>2016-06-04T14:08:14Z</time>
      </trkpt>
      <trkpt lat="43.719603605568409" lon="11.932137552648783">
        <ele>1030.1900000000001</ele>
        <time>2016-06-04T14:08:23Z</time>
      </trkpt>
      <trkpt lat="43.719619698822498" lon="11.932134786620736">
        <ele>1029.71</ele>
        <time>2016-06-04T14:08:33Z</time>
      </trkpt>
      <trkpt lat="43.719655824825168" lon="11.932098660618067">
        <ele>1030.1900000000001</ele>
        <time>2016-06-04T14:08:42Z</time>
      </trkpt>
      <trkpt lat="43.719751127064228" lon="11.931997491046786">
        <ele>1029.71</ele>
        <time>2016-06-04T14:08:53Z</time>
      </trkpt>
      <trkpt lat="43.719874592497945" lon="11.93191853351891">
        <ele>1028.75</ele>
        <time>2016-06-04T14:09:05Z</time>
      </trkpt>
      <trkpt lat="43.719998644664884" lon="11.931945187970996">
        <ele>1027.79</ele>
        <time>2016-06-04T14:09:15Z</time>
      </trkpt>
      <trkpt lat="43.720032759010792" lon="11.93196882493794">
        <ele>1027.3099999999999</ele>
        <time>2016-06-04T14:09:18Z</time>
      </trkpt>
      <trkpt lat="43.720042230561376" lon="11.931981230154634">
        <ele>1026.8299999999999</ele>
        <time>2016-06-04T14:09:19Z</time>
      </trkpt>
      <trkpt lat="43.720138622447848" lon="11.932119866833091">
        <ele>1025.3800000000001</ele>
        <time>2016-06-04T14:09:31Z</time>
      </trkpt>
      <trkpt lat="43.720232332125306" lon="11.932212403044105">
        <ele>1023.9400000000001</ele>
        <time>2016-06-04T14:09:42Z</time>
      </trkpt>
      <trkpt lat="43.720256555825472" lon="11.932234698906541">
        <ele>1023.9400000000001</ele>
        <time>2016-06-04T14:09:45Z</time>
      </trkpt>
      <trkpt lat="43.720304081216455" lon="11.93225322291255">
        <ele>1023.46</ele>
        <time>2016-06-04T14:09:49Z</time>
      </trkpt>
      <trkpt lat="43.720469539985061" lon="11.932267807424068">
        <ele>1020.58</ele>
        <time>2016-06-04T14:10:02Z</time>
      </trkpt>
      <trkpt lat="43.720597783103585" lon="11.932203769683838">
        <ele>1018.65</ele>
        <time>2016-06-04T14:10:15Z</time>
      </trkpt>
      <trkpt lat="43.720628628507257" lon="11.932184072211385">
        <ele>1018.17</ele>
        <time>2016-06-04T14:10:18Z</time>
      </trkpt>
      <trkpt lat="43.720787549391389" lon="11.932094721123576">
        <ele>1016.25</ele>
        <time>2016-06-04T14:10:31Z</time>
      </trkpt>
      <trkpt lat="43.720910092815757" lon="11.93203185684979">
        <ele>1015.29</ele>
        <time>2016-06-04T14:10:42Z</time>
      </trkpt>
      <trkpt lat="43.721022326499224" lon="11.931969998404384">
        <ele>1013.85</ele>
        <time>2016-06-04T14:10:53Z</time>
      </trkpt>
      <trkpt lat="43.721097176894546" lon="11.931925993412733">
        <ele>1013.37</ele>
        <time>2016-06-04T14:10:58Z</time>
      </trkpt>
      <trkpt lat="43.721222653985023" lon="11.93184913136065">
        <ele>1012.41</ele>
        <time>2016-06-04T14:11:09Z</time>
      </trkpt>
      <trkpt lat="43.721388867124915" lon="11.931726839393377">
        <ele>1011.4400000000001</ele>
        <time>2016-06-04T14:11:23Z</time>
      </trkpt>
      <trkpt lat="43.721459358930588" lon="11.931589711457491">
        <ele>1010.48</ele>
        <time>2016-06-04T14:11:33Z</time>
      </trkpt>
      <trkpt lat="43.721463130787015" lon="11.931571355089545">
        <ele>1010.48</ele>
        <time>2016-06-04T14:11:34Z</time>
      </trkpt>
      <trkpt lat="43.721561282873154" lon="11.931417463347316">
        <ele>1009.04</ele>
        <time>2016-06-04T14:11:45Z</time>
      </trkpt>
      <trkpt lat="43.721569497138262" lon="11.931399945169687">
        <ele>1008.5599999999999</ele>
        <time>2016-06-04T14:11:46Z</time>
      </trkpt>
      <trkpt lat="43.721577376127243" lon="11.93138150498271">
        <ele>1008.5599999999999</ele>
        <time>2016-06-04T14:11:47Z</time>
      </trkpt>
      <trkpt lat="43.721583830192685" lon="11.931366333737969">
        <ele>1008.08</ele>
        <time>2016-06-04T14:11:48Z</time>
      </trkpt>
      <trkpt lat="43.721656920388341" lon="11.93115184083581">
        <ele>1006.64</ele>
        <time>2016-06-04T14:12:01Z</time>
      </trkpt>
      <trkpt lat="43.721747947856784" lon="11.930968863889575">
        <ele>1004.72</ele>
        <time>2016-06-04T14:12:13Z</time>
      </trkpt>
      <trkpt lat="43.721858588978648" lon="11.93079418502748">
        <ele>1002.3099999999999</ele>
        <time>2016-06-04T14:12:26Z</time>
      </trkpt>
      <trkpt lat="43.721893290057778" lon="11.930750515311956">
        <ele>1002.3099999999999</ele>
        <time>2016-06-04T14:12:30Z</time>
      </trkpt>
      <trkpt lat="43.721900749951601" lon="11.930737607181072">
        <ele>1002.3099999999999</ele>
        <time>2016-06-04T14:12:31Z</time>
      </trkpt>
      <trkpt lat="43.72202580794692" lon="11.930519007146358">
        <ele>1001.35</ele>
        <time>2016-06-04T14:12:46Z</time>
      </trkpt>
      <trkpt lat="43.722130246460438" lon="11.930352374911308">
        <ele>1000.87</ele>
        <time>2016-06-04T14:12:59Z</time>
      </trkpt>
      <trkpt lat="43.72219629585743" lon="11.930246679112315">
        <ele>1000.87</ele>
        <time>2016-06-04T14:13:07Z</time>
      </trkpt>
      <trkpt lat="43.722204426303506" lon="11.93023762665689">
        <ele>1000.39</ele>
        <time>2016-06-04T14:13:08Z</time>
      </trkpt>
      <trkpt lat="43.722212305292487" lon="11.930225053802133">
        <ele>1000.39</ele>
        <time>2016-06-04T14:13:09Z</time>
      </trkpt>
      <trkpt lat="43.722284976392984" lon="11.93012572824955">
        <ele>1001.35</ele>
        <time>2016-06-04T14:13:18Z</time>
      </trkpt>
      <trkpt lat="43.722377680242062" lon="11.930033946409822">
        <ele>1002.3099999999999</ele>
        <time>2016-06-04T14:13:30Z</time>
      </trkpt>
      <trkpt lat="43.722424451261759" lon="11.929980888962746">
        <ele>1002.3099999999999</ele>
        <time>2016-06-04T14:13:36Z</time>
      </trkpt>
      <trkpt lat="43.722450602799654" lon="11.929954318329692">
        <ele>1001.83</ele>
        <time>2016-06-04T14:13:39Z</time>
      </trkpt>
      <trkpt lat="43.722493769600987" lon="11.929900338873267">
        <ele>1001.35</ele>
        <time>2016-06-04T14:13:46Z</time>
      </trkpt>
      <trkpt lat="43.722514808177948" lon="11.929872846230865">
        <ele>1001.35</ele>
        <time>2016-06-04T14:13:49Z</time>
      </trkpt>
      <trkpt lat="43.722596447914839" lon="11.929717194288969">
        <ele>1000.87</ele>
        <time>2016-06-04T14:14:02Z</time>
      </trkpt>
      <trkpt lat="43.722665095701814" lon="11.929626418277621">
        <ele>1000.39</ele>
        <time>2016-06-04T14:14:11Z</time>
      </trkpt>
      <trkpt lat="43.722734414041042" lon="11.929510245099664">
        <ele>1000.39</ele>
        <time>2016-06-04T14:14:22Z</time>
      </trkpt>
      <trkpt lat="43.722802055999637" lon="11.929406644776464">
        <ele>999.90999999999997</ele>
        <time>2016-06-04T14:14:32Z</time>
      </trkpt>
      <trkpt lat="43.72287699021399" lon="11.929298434406519">
        <ele>999.90999999999997</ele>
        <time>2016-06-04T14:14:43Z</time>
      </trkpt>
      <trkpt lat="43.722892329096794" lon="11.929257865995169">
        <ele>1000.39</ele>
        <time>2016-06-04T14:14:46Z</time>
      </trkpt>
      <trkpt lat="43.722933316603303" lon="11.929149404168129">
        <ele>1000.87</ele>
        <time>2016-06-04T14:14:53Z</time>
      </trkpt>
      <trkpt lat="43.722957959398627" lon="11.929103136062622">
        <ele>1000.87</ele>
        <time>2016-06-04T14:14:57Z</time>
      </trkpt>
      <trkpt lat="43.723007161170244" lon="11.928963493555784">
        <ele>1000.87</ele>
        <time>2016-06-04T14:15:07Z</time>
      </trkpt>
      <trkpt lat="43.723030462861061" lon="11.928920662030578">
        <ele>1001.35</ele>
        <time>2016-06-04T14:15:19Z</time>
      </trkpt>
      <trkpt lat="43.723023170605302" lon="11.928910268470645">
        <ele>1000.87</ele>
        <time>2016-06-04T14:15:34Z</time>
      </trkpt>
      <trkpt lat="43.723027696833014" lon="11.928882608190179">
        <ele>1000.87</ele>
        <time>2016-06-04T14:15:36Z</time>
      </trkpt>
      <trkpt lat="43.723033145070076" lon="11.928865006193519">
        <ele>1000.87</ele>
        <time>2016-06-04T14:15:37Z</time>
      </trkpt>
      <trkpt lat="43.723040604963899" lon="11.9288469851017">
        <ele>1000.87</ele>
        <time>2016-06-04T14:15:38Z</time>
      </trkpt>
      <trkpt lat="43.72310564853251" lon="11.928691584616899">
        <ele>999.90999999999997</ele>
        <time>2016-06-04T14:15:48Z</time>
      </trkpt>
      <trkpt lat="43.723115287721157" lon="11.928675659000874">
        <ele>999.90999999999997</ele>
        <time>2016-06-04T14:15:49Z</time>
      </trkpt>
      <trkpt lat="43.723208326846361" lon="11.928506512194872">
        <ele>999.42999999999995</ele>
        <time>2016-06-04T14:16:01Z</time>
      </trkpt>
      <trkpt lat="43.723266748711467" lon="11.928354632109404">
        <ele>999.42999999999995</ele>
        <time>2016-06-04T14:16:12Z</time>
      </trkpt>
      <trkpt lat="43.723277812823653" lon="11.928276680409908">
        <ele>999.90999999999997</ele>
        <time>2016-06-04T14:16:17Z</time>
      </trkpt>
      <trkpt lat="43.723295917734504" lon="11.928110802546144">
        <ele>999.42999999999995</ele>
        <time>2016-06-04T14:16:27Z</time>
      </trkpt>
      <trkpt lat="43.723290218040347" lon="11.928091943264008">
        <ele>999.42999999999995</ele>
        <time>2016-06-04T14:16:28Z</time>
      </trkpt>
      <trkpt lat="43.723287787288427" lon="11.928077107295394">
        <ele>999.42999999999995</ele>
        <time>2016-06-04T14:16:29Z</time>
      </trkpt>
      <trkpt lat="43.72326004318893" lon="11.92791516892612">
        <ele>998.95000000000005</ele>
        <time>2016-06-04T14:16:40Z</time>
      </trkpt>
      <trkpt lat="43.723241770640016" lon="11.927838558331132">
        <ele>998.95000000000005</ele>
        <time>2016-06-04T14:16:45Z</time>
      </trkpt>
      <trkpt lat="43.723172452300787" lon="11.927696149796247">
        <ele>997.99000000000001</ele>
        <time>2016-06-04T14:16:57Z</time>
      </trkpt>
      <trkpt lat="43.72311981394887" lon="11.927490876987576">
        <ele>996.05999999999995</ele>
        <time>2016-06-04T14:17:09Z</time>
      </trkpt>
      <trkpt lat="43.723105899989605" lon="11.927230451256037">
        <ele>995.10000000000002</ele>
        <time>2016-06-04T14:17:23Z</time>
      </trkpt>
      <trkpt lat="43.723155604675412" lon="11.927038338035345">
        <ele>994.62</ele>
        <time>2016-06-04T14:17:35Z</time>
      </trkpt>
      <trkpt lat="43.723200196400285" lon="11.92686558701098">
        <ele>993.65999999999997</ele>
        <time>2016-06-04T14:17:46Z</time>
      </trkpt>
      <trkpt lat="43.723265826702118" lon="11.926673138514161">
        <ele>991.74000000000001</ele>
        <time>2016-06-04T14:17:59Z</time>
      </trkpt>
      <trkpt lat="43.72333874925971" lon="11.926514804363251">
        <ele>988.85000000000002</ele>
        <time>2016-06-04T14:18:11Z</time>
      </trkpt>
      <trkpt lat="43.72341888025403" lon="11.926360325887799">
        <ele>985.49000000000001</ele>
        <time>2016-06-04T14:18:23Z</time>
      </trkpt>
      <trkpt lat="43.723479565232992" lon="11.926258904859424">
        <ele>984.52999999999997</ele>
        <time>2016-06-04T14:18:31Z</time>
      </trkpt>
      <trkpt lat="43.723523654043674" lon="11.926115658134222">
        <ele>981.63999999999999</ele>
        <time>2016-06-04T14:18:42Z</time>
      </trkpt>
      <trkpt lat="43.723516780883074" lon="11.926086489111185">
        <ele>981.15999999999997</ele>
        <time>2016-06-04T14:18:45Z</time>
      </trkpt>
      <trkpt lat="43.723509404808283" lon="11.926076011732221">
        <ele>981.15999999999997</ele>
        <time>2016-06-04T14:18:46Z</time>
      </trkpt>
      <trkpt lat="43.723498843610287" lon="11.926068970933557">
        <ele>980.67999999999995</ele>
        <time>2016-06-04T14:18:47Z</time>
      </trkpt>
      <trkpt lat="43.72349071316421" lon="11.926062181591988">
        <ele>980.67999999999995</ele>
        <time>2016-06-04T14:18:48Z</time>
      </trkpt>
      <trkpt lat="43.723483756184578" lon="11.926054721698165">
        <ele>980.20000000000005</ele>
        <time>2016-06-04T14:18:49Z</time>
      </trkpt>
      <trkpt lat="43.72347604483366" lon="11.926047094166279">
        <ele>980.20000000000005</ele>
        <time>2016-06-04T14:18:50Z</time>
      </trkpt>
      <trkpt lat="43.723332798108459" lon="11.925953133031726">
        <ele>976.84000000000003</ele>
        <time>2016-06-04T14:19:03Z</time>
      </trkpt>
      <trkpt lat="43.723174715414643" lon="11.92593184299767">
        <ele>974.42999999999995</ele>
        <time>2016-06-04T14:19:16Z</time>
      </trkpt>
      <trkpt lat="43.723074467852712" lon="11.92583754658699">
        <ele>972.02999999999997</ele>
        <time>2016-06-04T14:19:27Z</time>
      </trkpt>
      <trkpt lat="43.723010094836354" lon="11.925746686756611">
        <ele>970.59000000000003</ele>
        <time>2016-06-04T14:19:37Z</time>
      </trkpt>
      <trkpt lat="43.723000790923834" lon="11.925718858838081">
        <ele>970.59000000000003</ele>
        <time>2016-06-04T14:19:50Z</time>
      </trkpt>
      <trkpt lat="43.722978914156556" lon="11.925715673714876">
        <ele>970.59000000000003</ele>
        <time>2016-06-04T14:19:57Z</time>
      </trkpt>
      <trkpt lat="43.722917726263404" lon="11.92569631151855">
        <ele>969.63</ele>
        <time>2016-06-04T14:20:07Z</time>
      </trkpt>
      <trkpt lat="43.722838684916496" lon="11.925694467499852">
        <ele>969.14999999999998</ele>
        <time>2016-06-04T14:20:18Z</time>
      </trkpt>
      <trkpt lat="43.722788980230689" lon="11.925728498026729">
        <ele>968.66999999999996</ele>
        <time>2016-06-04T14:20:28Z</time>
      </trkpt>
      <trkpt lat="43.722720583900809" lon="11.925739645957947">
        <ele>967.22000000000003</ele>
        <time>2016-06-04T14:20:35Z</time>
      </trkpt>
      <trkpt lat="43.72271329164505" lon="11.925729000940919">
        <ele>967.22000000000003</ele>
        <time>2016-06-04T14:20:36Z</time>
      </trkpt>
      <trkpt lat="43.722707089036703" lon="11.92571684718132">
        <ele>967.22000000000003</ele>
        <time>2016-06-04T14:20:37Z</time>
      </trkpt>
      <trkpt lat="43.722701724618673" lon="11.925702933222055">
        <ele>966.74000000000001</ele>
        <time>2016-06-04T14:20:38Z</time>
      </trkpt>
      <trkpt lat="43.722698036581278" lon="11.925689605996013">
        <ele>966.74000000000001</ele>
        <time>2016-06-04T14:20:39Z</time>
      </trkpt>
      <trkpt lat="43.722693175077438" lon="11.925676362589002">
        <ele>966.25999999999999</ele>
        <time>2016-06-04T14:20:40Z</time>
      </trkpt>
      <trkpt lat="43.722655372694135" lon="11.925552310422063">
        <ele>966.25999999999999</ele>
        <time>2016-06-04T14:20:51Z</time>
      </trkpt>
      <trkpt lat="43.722651097923517" lon="11.925507383421063">
        <ele>965.77999999999997</ele>
        <time>2016-06-04T14:20:56Z</time>
      </trkpt>
      <trkpt lat="43.722647158429027" lon="11.925465809181333">
        <ele>965.77999999999997</ele>
        <time>2016-06-04T14:20:59Z</time>
      </trkpt>
      <trkpt lat="43.722608601674438" lon="11.925354329869151">
        <ele>963.86000000000001</ele>
        <time>2016-06-04T14:21:10Z</time>
      </trkpt>
      <trkpt lat="43.72254909016192" lon="11.925249053165317">
        <ele>961.46000000000004</ele>
        <time>2016-06-04T14:21:22Z</time>
      </trkpt>
      <trkpt lat="43.722502989694476" lon="11.925151152536273">
        <ele>959.04999999999995</ele>
        <time>2016-06-04T14:21:32Z</time>
      </trkpt>
      <trkpt lat="43.722458481788635" lon="11.925015030428767">
        <ele>956.64999999999998</ele>
        <time>2016-06-04T14:21:43Z</time>
      </trkpt>
      <trkpt lat="43.722434677183628" lon="11.924806237220764">
        <ele>954.73000000000002</ele>
        <time>2016-06-04T14:21:56Z</time>
      </trkpt>
      <trkpt lat="43.722396204248071" lon="11.924645723775029">
        <ele>953.76999999999998</ele>
        <time>2016-06-04T14:22:07Z</time>
      </trkpt>
      <trkpt lat="43.722368460148573" lon="11.924477415159345">
        <ele>952.32000000000005</ele>
        <time>2016-06-04T14:22:18Z</time>
      </trkpt>
      <trkpt lat="43.722377680242062" lon="11.924436260014772">
        <ele>951.84000000000003</ele>
        <time>2016-06-04T14:22:21Z</time>
      </trkpt>
      <trkpt lat="43.722411207854748" lon="11.924287816509604">
        <ele>950.39999999999998</ele>
        <time>2016-06-04T14:22:31Z</time>
      </trkpt>
      <trkpt lat="43.722414560616016" lon="11.924269627779722">
        <ele>950.39999999999998</ele>
        <time>2016-06-04T14:22:32Z</time>
      </trkpt>
      <trkpt lat="43.722484214231372" lon="11.924064103513956">
        <ele>948.48000000000002</ele>
        <time>2016-06-04T14:22:45Z</time>
      </trkpt>
      <trkpt lat="43.722546575590968" lon="11.923890765756369">
        <ele>947.03999999999996</ele>
        <time>2016-06-04T14:22:56Z</time>
      </trkpt>
      <trkpt lat="43.722598040476441" lon="11.923782639205456">
        <ele>946.55999999999995</ele>
        <time>2016-06-04T14:23:05Z</time>
      </trkpt>
      <trkpt lat="43.722656546160579" lon="11.923668393865228">
        <ele>945.59000000000003</ele>
        <time>2016-06-04T14:23:13Z</time>
      </trkpt>
      <trkpt lat="43.722762996330857" lon="11.923566134646535">
        <ele>943.66999999999996</ele>
        <time>2016-06-04T14:23:25Z</time>
      </trkpt>
      <trkpt lat="43.722877325490117" lon="11.923496648669243">
        <ele>941.26999999999998</ele>
        <time>2016-06-04T14:23:36Z</time>
      </trkpt>
      <trkpt lat="43.722982686012983" lon="11.923433113843203">
        <ele>940.30999999999995</ele>
        <time>2016-06-04T14:23:47Z</time>
      </trkpt>
      <trkpt lat="43.72306901961565" lon="11.923364968970418">
        <ele>938.86000000000001</ele>
        <time>2016-06-04T14:23:55Z</time>
      </trkpt>
      <trkpt lat="43.72308662161231" lon="11.923357592895627">
        <ele>939.35000000000002</ele>
        <time>2016-06-04T14:23:56Z</time>
      </trkpt>
      <trkpt lat="43.723181420937181" lon="11.923290705308318">
        <ele>937.41999999999996</ele>
        <time>2016-06-04T14:24:08Z</time>
      </trkpt>
      <trkpt lat="43.723304634913802" lon="11.923222308978438">
        <ele>935.98000000000002</ele>
        <time>2016-06-04T14:24:21Z</time>
      </trkpt>
      <trkpt lat="43.723445115610957" lon="11.923130359500647">
        <ele>935.01999999999998</ele>
        <time>2016-06-04T14:24:34Z</time>
      </trkpt>
      <trkpt lat="43.723607137799263" lon="11.923010498285294">
        <ele>934.05999999999995</ele>
        <time>2016-06-04T14:24:45Z</time>
      </trkpt>
      <trkpt lat="43.723694644868374" lon="11.922928020358086">
        <ele>933.10000000000002</ele>
        <time>2016-06-04T14:24:53Z</time>
      </trkpt>
      <trkpt lat="43.723717359825969" lon="11.922713359817863">
        <ele>931.16999999999996</ele>
        <time>2016-06-04T14:25:06Z</time>
      </trkpt>
      <trkpt lat="43.723726831376553" lon="11.922544380649924">
        <ele>931.16999999999996</ele>
        <time>2016-06-04T14:25:19Z</time>
      </trkpt>
      <trkpt lat="43.723756754770875" lon="11.922394931316376">
        <ele>931.16999999999996</ele>
        <time>2016-06-04T14:25:31Z</time>
      </trkpt>
      <trkpt lat="43.723771339282393" lon="11.922300802543759">
        <ele>932.13999999999999</ele>
        <time>2016-06-04T14:25:41Z</time>
      </trkpt>
      <trkpt lat="43.72375457547605" lon="11.922236178070307">
        <ele>932.62</ele>
        <time>2016-06-04T14:25:58Z</time>
      </trkpt>
      <trkpt lat="43.723754826933146" lon="11.92221044562757">
        <ele>932.62</ele>
        <time>2016-06-04T14:26:16Z</time>
      </trkpt>
      <trkpt lat="43.723771590739489" lon="11.922128051519394">
        <ele>932.62</ele>
        <time>2016-06-04T14:26:31Z</time>
      </trkpt>
      <trkpt lat="43.723791623488069" lon="11.921982038766146">
        <ele>931.64999999999998</ele>
        <time>2016-06-04T14:26:43Z</time>
      </trkpt>
      <trkpt lat="43.723837221041322" lon="11.921860082075">
        <ele>930.69000000000005</ele>
        <time>2016-06-04T14:26:53Z</time>
      </trkpt>
      <trkpt lat="43.723901426419616" lon="11.921772407367826">
        <ele>929.25</ele>
        <time>2016-06-04T14:27:03Z</time>
      </trkpt>
      <trkpt lat="43.723992118611932" lon="11.92167442291975">
        <ele>927.33000000000004</ele>
        <time>2016-06-04T14:27:16Z</time>
      </trkpt>
      <trkpt lat="43.724080547690392" lon="11.921623460948467">
        <ele>925.88999999999999</ele>
        <time>2016-06-04T14:27:27Z</time>
      </trkpt>
      <trkpt lat="43.724175347015262" lon="11.921556740999222">
        <ele>924.45000000000005</ele>
        <time>2016-06-04T14:27:40Z</time>
      </trkpt>
      <trkpt lat="43.724230248481035" lon="11.921483902260661">
        <ele>923.48000000000002</ele>
        <time>2016-06-04T14:27:48Z</time>
      </trkpt>
      <trkpt lat="43.724261177703738" lon="11.921466384083033">
        <ele>923</ele>
        <time>2016-06-04T14:27:51Z</time>
      </trkpt>
      <trkpt lat="43.724345164373517" lon="11.921408213675022">
        <ele>922.03999999999996</ele>
        <time>2016-06-04T14:28:00Z</time>
      </trkpt>
      <trkpt lat="43.724417248740792" lon="11.921332105994225">
        <ele>919.63999999999999</ele>
        <time>2016-06-04T14:28:10Z</time>
      </trkpt>
      <trkpt lat="43.724504923447967" lon="11.921279886737466">
        <ele>917.24000000000001</ele>
        <time>2016-06-04T14:28:21Z</time>
      </trkpt>
      <trkpt lat="43.724576840177178" lon="11.921224985271692">
        <ele>913.38999999999999</ele>
        <time>2016-06-04T14:28:35Z</time>
      </trkpt>
      <trkpt lat="43.724636351689696" lon="11.921199923381209">
        <ele>910.50999999999999</ele>
        <time>2016-06-04T14:28:48Z</time>
      </trkpt>
      <trkpt lat="43.724692342802882" lon="11.921195480972528">
        <ele>908.58000000000004</ele>
        <time>2016-06-04T14:28:57Z</time>
      </trkpt>
      <trkpt lat="43.724764175713062" lon="11.921141166239977">
        <ele>906.17999999999995</ele>
        <time>2016-06-04T14:29:08Z</time>
      </trkpt>
      <trkpt lat="43.724828381091356" lon="11.921092132106423">
        <ele>902.82000000000005</ele>
        <time>2016-06-04T14:29:20Z</time>
      </trkpt>
      <trkpt lat="43.724875655025244" lon="11.921026334166527">
        <ele>900.88999999999999</ele>
        <time>2016-06-04T14:29:31Z</time>
      </trkpt>
      <trkpt lat="43.72491161338985" lon="11.920989872887731">
        <ele>899.45000000000005</ele>
        <time>2016-06-04T14:29:41Z</time>
      </trkpt>
      <trkpt lat="43.72496634721756" lon="11.920923991128802">
        <ele>896.57000000000005</ele>
        <time>2016-06-04T14:29:54Z</time>
      </trkpt>
      <trkpt lat="43.724999120458961" lon="11.920855091884732">
        <ele>895.12</ele>
        <time>2016-06-04T14:30:05Z</time>
      </trkpt>
      <trkpt lat="43.725008340552449" lon="11.92077680490911">
        <ele>894.15999999999997</ele>
        <time>2016-06-04T14:30:17Z</time>
      </trkpt>
      <trkpt lat="43.725003311410546" lon="11.920645125210285">
        <ele>892.72000000000003</ele>
        <time>2016-06-04T14:30:30Z</time>
      </trkpt>
      <trkpt lat="43.72502937912941" lon="11.920520989224315">
        <ele>891.27999999999997</ele>
        <time>2016-06-04T14:30:40Z</time>
      </trkpt>
      <trkpt lat="43.725068438798189" lon="11.920404983684421">
        <ele>888.88</ele>
        <time>2016-06-04T14:30:53Z</time>
      </trkpt>
      <trkpt lat="43.725106660276651" lon="11.920333737507463">
        <ele>886.95000000000005</ele>
        <time>2016-06-04T14:31:04Z</time>
      </trkpt>
      <trkpt lat="43.725139768794179" lon="11.920244805514812">
        <ele>885.02999999999997</ele>
        <time>2016-06-04T14:31:14Z</time>
      </trkpt>
      <trkpt lat="43.725165082141757" lon="11.920158052816987">
        <ele>883.59000000000003</ele>
        <time>2016-06-04T14:31:26Z</time>
      </trkpt>
      <trkpt lat="43.725199531763792" lon="11.92006484605372">
        <ele>882.14999999999998</ele>
        <time>2016-06-04T14:31:38Z</time>
      </trkpt>
      <trkpt lat="43.725227108225226" lon="11.920001143589616">
        <ele>881.19000000000005</ele>
        <time>2016-06-04T14:31:47Z</time>
      </trkpt>
      <trkpt lat="43.725248398259282" lon="11.919971974566579">
        <ele>880.22000000000003</ele>
        <time>2016-06-04T14:31:57Z</time>
      </trkpt>
      <trkpt lat="43.725291984155774" lon="11.919902237132192">
        <ele>878.29999999999995</ele>
        <time>2016-06-04T14:32:08Z</time>
      </trkpt>
      <trkpt lat="43.725332384929061" lon="11.919819423928857">
        <ele>877.34000000000003</ele>
        <time>2016-06-04T14:32:19Z</time>
      </trkpt>
      <trkpt lat="43.725310591980815" lon="11.91977608948946">
        <ele>875.89999999999998</ele>
        <time>2016-06-04T14:32:29Z</time>
      </trkpt>
      <trkpt lat="43.725326517596841" lon="11.919686403125525">
        <ele>873.98000000000002</ele>
        <time>2016-06-04T14:32:40Z</time>
      </trkpt>
      <trkpt lat="43.725326769053936" lon="11.919619599357247">
        <ele>873.00999999999999</ele>
        <time>2016-06-04T14:32:47Z</time>
      </trkpt>
      <trkpt lat="43.725324925035238" lon="11.919591268524528">
        <ele>873.00999999999999</ele>
        <time>2016-06-04T14:32:49Z</time>
      </trkpt>
      <trkpt lat="43.725317716598511" lon="11.919570146128535">
        <ele>872.52999999999997</ele>
        <time>2016-06-04T14:32:51Z</time>
      </trkpt>
      <trkpt lat="43.725312268361449" lon="11.919448524713516">
        <ele>871.57000000000005</ele>
        <time>2016-06-04T14:33:03Z</time>
      </trkpt>
      <trkpt lat="43.725344035774469" lon="11.919392617419362">
        <ele>870.61000000000001</ele>
        <time>2016-06-04T14:33:13Z</time>
      </trkpt>
      <trkpt lat="43.725389465689659" lon="11.919341068714857">
        <ele>869.16999999999996</ele>
        <time>2016-06-04T14:33:22Z</time>
      </trkpt>
      <trkpt lat="43.725420562550426" lon="11.91929773427546">
        <ele>868.21000000000004</ele>
        <time>2016-06-04T14:33:34Z</time>
      </trkpt>
      <trkpt lat="43.725447133183479" lon="11.919282898306847">
        <ele>866.76999999999998</ele>
        <time>2016-06-04T14:33:46Z</time>
      </trkpt>
      <trkpt lat="43.725486192852259" lon="11.919238641858101">
        <ele>865.32000000000005</ele>
        <time>2016-06-04T14:33:54Z</time>
      </trkpt>
      <trkpt lat="43.725539166480303" lon="11.919176112860441">
        <ele>864.36000000000001</ele>
        <time>2016-06-04T14:34:05Z</time>
      </trkpt>
      <trkpt lat="43.725577304139733" lon="11.919113164767623">
        <ele>863.88</ele>
        <time>2016-06-04T14:34:17Z</time>
      </trkpt>
      <trkpt lat="43.725579148158431" lon="11.919098496437073">
        <ele>863.88</ele>
        <time>2016-06-04T14:34:18Z</time>
      </trkpt>
      <trkpt lat="43.725643688812852" lon="11.918994225561619">
        <ele>863.39999999999998</ele>
        <time>2016-06-04T14:34:30Z</time>
      </trkpt>
      <trkpt lat="43.725662715733051" lon="11.918956758454442">
        <ele>863.39999999999998</ele>
        <time>2016-06-04T14:34:40Z</time>
      </trkpt>
      <trkpt lat="43.72571250423789" lon="11.918843016028404">
        <ele>863.39999999999998</ele>
        <time>2016-06-04T14:34:50Z</time>
      </trkpt>
      <trkpt lat="43.725803280249238" lon="11.918840585276484">
        <ele>862.91999999999996</ele>
        <time>2016-06-04T14:35:01Z</time>
      </trkpt>
      <trkpt lat="43.725867904722691" lon="11.918806303292513">
        <ele>861.96000000000004</ele>
        <time>2016-06-04T14:35:11Z</time>
      </trkpt>
      <trkpt lat="43.725913753733039" lon="11.918750395998359">
        <ele>861.96000000000004</ele>
        <time>2016-06-04T14:35:22Z</time>
      </trkpt>
      <trkpt lat="43.725940072908998" lon="11.918754251673818">
        <ele>861.96000000000004</ele>
        <time>2016-06-04T14:35:24Z</time>
      </trkpt>
      <trkpt lat="43.725980892777443" lon="11.918684178963304">
        <ele>861.96000000000004</ele>
        <time>2016-06-04T14:35:36Z</time>
      </trkpt>
      <trkpt lat="43.72602716088295" lon="11.91861167550087">
        <ele>861.48000000000002</ele>
        <time>2016-06-04T14:35:47Z</time>
      </trkpt>
      <trkpt lat="43.726085247471929" lon="11.918496675789356">
        <ele>860.03999999999996</ele>
        <time>2016-06-04T14:35:59Z</time>
      </trkpt>
      <trkpt lat="43.726132521405816" lon="11.918415958061814">
        <ele>859.08000000000004</ele>
        <time>2016-06-04T14:36:09Z</time>
      </trkpt>
      <trkpt lat="43.726173676550388" lon="11.918286876752973">
        <ele>858.11000000000001</ele>
        <time>2016-06-04T14:36:21Z</time>
      </trkpt>
      <trkpt lat="43.726228326559067" lon="11.918151928111911">
        <ele>857.14999999999998</ele>
        <time>2016-06-04T14:36:33Z</time>
      </trkpt>
      <trkpt lat="43.726307954639196" lon="11.918004658073187">
        <ele>854.26999999999998</ele>
        <time>2016-06-04T14:36:46Z</time>
      </trkpt>
      <trkpt lat="43.726374255493283" lon="11.917864931747317">
        <ele>852.83000000000004</ele>
        <time>2016-06-04T14:36:56Z</time>
      </trkpt>
      <trkpt lat="43.726411638781428" lon="11.917747166007757">
        <ele>851.38</ele>
        <time>2016-06-04T14:37:05Z</time>
      </trkpt>
      <trkpt lat="43.726425636559725" lon="11.917695114389062">
        <ele>850.89999999999998</ele>
        <time>2016-06-04T14:37:14Z</time>
      </trkpt>
      <trkpt lat="43.726451704278588" lon="11.917689330875874">
        <ele>850.41999999999996</ele>
        <time>2016-06-04T14:37:32Z</time>
      </trkpt>
      <trkpt lat="43.72651238925755" lon="11.9175636023283">
        <ele>849.46000000000004</ele>
        <time>2016-06-04T14:37:44Z</time>
      </trkpt>
      <trkpt lat="43.726582042872906" lon="11.91741012968123">
        <ele>847.53999999999996</ele>
        <time>2016-06-04T14:37:57Z</time>
      </trkpt>
      <trkpt lat="43.726604003459215" lon="11.917357156053185">
        <ele>846.58000000000004</ele>
        <time>2016-06-04T14:38:07Z</time>
      </trkpt>
      <trkpt lat="43.726646415889263" lon="11.917249029502273">
        <ele>845.62</ele>
        <time>2016-06-04T14:38:16Z</time>
      </trkpt>
      <trkpt lat="43.726669130846858" lon="11.917188512161374">
        <ele>845.13999999999999</ele>
        <time>2016-06-04T14:38:21Z</time>
      </trkpt>
      <trkpt lat="43.726671310141683" lon="11.917102262377739">
        <ele>844.17999999999995</ele>
        <time>2016-06-04T14:38:26Z</time>
      </trkpt>
      <trkpt lat="43.726655887439847" lon="11.916944514960051">
        <ele>842.73000000000002</ele>
        <time>2016-06-04T14:38:37Z</time>
      </trkpt>
      <trkpt lat="43.726652869954705" lon="11.916846362873912">
        <ele>842.25</ele>
        <time>2016-06-04T14:38:43Z</time>
      </trkpt>
      <trkpt lat="43.726689834147692" lon="11.916678138077259">
        <ele>842.25</ele>
        <time>2016-06-04T14:38:57Z</time>
      </trkpt>
      <trkpt lat="43.726819753646851" lon="11.916668582707644">
        <ele>841.28999999999996</ele>
        <time>2016-06-04T14:39:09Z</time>
      </trkpt>
      <trkpt lat="43.726953445002437" lon="11.916698673740029">
        <ele>838.40999999999997</ele>
        <time>2016-06-04T14:39:23Z</time>
      </trkpt>
      <trkpt lat="43.726974064484239" lon="11.916697416454554">
        <ele>837.92999999999995</ele>
        <time>2016-06-04T14:39:26Z</time>
      </trkpt>
      <trkpt lat="43.727114712819457" lon="11.916632037609816">
        <ele>835.51999999999998</ele>
        <time>2016-06-04T14:39:39Z</time>
      </trkpt>
      <trkpt lat="43.727243710309267" lon="11.916575962677598">
        <ele>833.60000000000002</ele>
        <time>2016-06-04T14:39:51Z</time>
      </trkpt>
      <trkpt lat="43.727278495207429" lon="11.91655945032835">
        <ele>833.12</ele>
        <time>2016-06-04T14:39:54Z</time>
      </trkpt>
      <trkpt lat="43.727398943156004" lon="11.916499435901642">
        <ele>832.15999999999997</ele>
        <time>2016-06-04T14:40:06Z</time>
      </trkpt>
      <trkpt lat="43.727505058050156" lon="11.916447803378105">
        <ele>831.20000000000005</ele>
        <time>2016-06-04T14:40:17Z</time>
      </trkpt>
      <trkpt lat="43.727628774940968" lon="11.916452581062913">
        <ele>830.72000000000003</ele>
        <time>2016-06-04T14:40:27Z</time>
      </trkpt>
      <trkpt lat="43.727768249809742" lon="11.916470266878605">
        <ele>829.75999999999999</ele>
        <time>2016-06-04T14:40:39Z</time>
      </trkpt>
      <trkpt lat="43.727887859568" lon="11.916469093412161">
        <ele>826.87</ele>
        <time>2016-06-04T14:40:51Z</time>
      </trkpt>
      <trkpt lat="43.728075278922915" lon="11.916447468101978">
        <ele>823.99000000000001</ele>
        <time>2016-06-04T14:41:06Z</time>
      </trkpt>
      <trkpt lat="43.728201594203711" lon="11.916425758972764">
        <ele>821.58000000000004</ele>
        <time>2016-06-04T14:41:19Z</time>
      </trkpt>
      <trkpt lat="43.728338973596692" lon="11.9164187181741">
        <ele>821.10000000000002</ele>
        <time>2016-06-04T14:41:30Z</time>
      </trkpt>
      <trkpt lat="43.728377278894186" lon="11.916412431746721">
        <ele>821.10000000000002</ele>
        <time>2016-06-04T14:41:34Z</time>
      </trkpt>
      <trkpt lat="43.7284698151052" lon="11.916323080658913">
        <ele>817.25999999999999</ele>
        <time>2016-06-04T14:41:44Z</time>
      </trkpt>
      <trkpt lat="43.728510467335582" lon="11.916146725416183">
        <ele>813.88999999999999</ele>
        <time>2016-06-04T14:41:56Z</time>
      </trkpt>
      <trkpt lat="43.728529242798686" lon="11.916042370721698">
        <ele>813.40999999999997</ele>
        <time>2016-06-04T14:42:12Z</time>
      </trkpt>
      <trkpt lat="43.728531841188669" lon="11.915948996320367">
        <ele>812.45000000000005</ele>
        <time>2016-06-04T14:42:28Z</time>
      </trkpt>
      <trkpt lat="43.728617923334241" lon="11.915815472602844">
        <ele>810.52999999999997</ele>
        <time>2016-06-04T14:42:41Z</time>
      </trkpt>
      <trkpt lat="43.728658491745591" lon="11.915745818987489">
        <ele>809.57000000000005</ele>
        <time>2016-06-04T14:42:52Z</time>
      </trkpt>
      <trkpt lat="43.72874247841537" lon="11.915629897266626">
        <ele>808.13</ele>
        <time>2016-06-04T14:43:04Z</time>
      </trkpt>
      <trkpt lat="43.728795954957604" lon="11.915483800694346">
        <ele>807.15999999999997</ele>
        <time>2016-06-04T14:43:16Z</time>
      </trkpt>
      <trkpt lat="43.728822944685817" lon="11.915337452664971">
        <ele>806.20000000000005</ele>
        <time>2016-06-04T14:43:29Z</time>
      </trkpt>
      <trkpt lat="43.728818586096168" lon="11.915316246449947">
        <ele>805.72000000000003</ele>
        <time>2016-06-04T14:43:31Z</time>
      </trkpt>
      <trkpt lat="43.728798218071461" lon="11.915168138220906">
        <ele>802.84000000000003</ele>
        <time>2016-06-04T14:43:42Z</time>
      </trkpt>
      <trkpt lat="43.728793440386653" lon="11.915125641971827">
        <ele>801.88</ele>
        <time>2016-06-04T14:43:45Z</time>
      </trkpt>
      <trkpt lat="43.728786148130894" lon="11.915068980306387">
        <ele>800.44000000000005</ele>
        <time>2016-06-04T14:43:50Z</time>
      </trkpt>
      <trkpt lat="43.728811796754599" lon="11.914925314486027">
        <ele>797.54999999999995</ele>
        <time>2016-06-04T14:44:02Z</time>
      </trkpt>
      <trkpt lat="43.728880528360605" lon="11.914940569549799">
        <ele>794.66999999999996</ele>
        <time>2016-06-04T14:44:14Z</time>
      </trkpt>
      <trkpt lat="43.728921348229051" lon="11.914987005293369">
        <ele>792.74000000000001</ele>
        <time>2016-06-04T14:44:20Z</time>
      </trkpt>
      <trkpt lat="43.729073563590646" lon="11.915038553997874">
        <ele>792.25999999999999</ele>
        <time>2016-06-04T14:44:34Z</time>
      </trkpt>
      <trkpt lat="43.729167273268104" lon="11.915067052468657">
        <ele>793.22000000000003</ele>
        <time>2016-06-04T14:44:44Z</time>
      </trkpt>
      <trkpt lat="43.729242039844394" lon="11.915094293653965">
        <ele>794.19000000000005</ele>
        <time>2016-06-04T14:44:53Z</time>
      </trkpt>
      <trkpt lat="43.729329546913505" lon="11.915186326950788">
        <ele>791.77999999999997</ele>
        <time>2016-06-04T14:45:05Z</time>
      </trkpt>
      <trkpt lat="43.729379586875439" lon="11.915273414924741">
        <ele>788.41999999999996</ele>
        <time>2016-06-04T14:45:15Z</time>
      </trkpt>
      <trkpt lat="43.729386711493134" lon="11.915305098518729">
        <ele>786.98000000000002</ele>
        <time>2016-06-04T14:45:18Z</time>
      </trkpt>
      <trkpt lat="43.729432476684451" lon="11.915401322767138">
        <ele>784.09000000000003</ele>
        <time>2016-06-04T14:45:28Z</time>
      </trkpt>
      <trkpt lat="43.729456113651395" lon="11.915491679683328">
        <ele>781.21000000000004</ele>
        <time>2016-06-04T14:45:39Z</time>
      </trkpt>
      <trkpt lat="43.729460891336203" lon="11.915511125698686">
        <ele>781.21000000000004</ele>
        <time>2016-06-04T14:45:49Z</time>
      </trkpt>
      <trkpt lat="43.729449324309826" lon="11.915533840656281">
        <ele>781.21000000000004</ele>
        <time>2016-06-04T14:46:04Z</time>
      </trkpt>
      <trkpt lat="43.729447815567255" lon="11.915539288893342">
        <ele>781.21000000000004</ele>
        <time>2016-06-04T14:46:17Z</time>
      </trkpt>
      <trkpt lat="43.729459634050727" lon="11.915632244199514">
        <ele>779.28999999999996</ele>
        <time>2016-06-04T14:46:30Z</time>
      </trkpt>
      <trkpt lat="43.729423172771931" lon="11.915778089314699">
        <ele>776.39999999999998</ele>
        <time>2016-06-04T14:46:42Z</time>
      </trkpt>
      <trkpt lat="43.729393584653735" lon="11.915879091247916">
        <ele>774.48000000000002</ele>
        <time>2016-06-04T14:46:52Z</time>
      </trkpt>
      <trkpt lat="43.729432057589293" lon="11.915913792327046">
        <ele>772.08000000000004</ele>
        <time>2016-06-04T14:47:01Z</time>
      </trkpt>
      <trkpt lat="43.729517301544547" lon="11.915877498686314">
        <ele>768.71000000000004</ele>
        <time>2016-06-04T14:47:11Z</time>
      </trkpt>
      <trkpt lat="43.729624422267079" lon="11.915852436795831">
        <ele>765.83000000000004</ele>
        <time>2016-06-04T14:47:25Z</time>
      </trkpt>
      <trkpt lat="43.729694159701467" lon="11.915798038244247">
        <ele>762.94000000000005</ele>
        <time>2016-06-04T14:47:35Z</time>
      </trkpt>
      <trkpt lat="43.729771776124835" lon="11.9157072622329">
        <ele>759.58000000000004</ele>
        <time>2016-06-04T14:47:45Z</time>
      </trkpt>
      <trkpt lat="43.729831371456385" lon="11.915602823719382">
        <ele>756.69000000000005</ele>
        <time>2016-06-04T14:47:55Z</time>
      </trkpt>
      <trkpt lat="43.729863557964563" lon="11.915481705218554">
        <ele>753.80999999999995</ele>
        <time>2016-06-04T14:48:07Z</time>
      </trkpt>
      <trkpt lat="43.72991569340229" lon="11.915371902287006">
        <ele>750.92999999999995</ele>
        <time>2016-06-04T14:48:18Z</time>
      </trkpt>
      <trkpt lat="43.729938827455044" lon="11.915262183174491">
        <ele>747.55999999999995</ele>
        <time>2016-06-04T14:48:31Z</time>
      </trkpt>
      <trkpt lat="43.72995818965137" lon="11.915121702477336">
        <ele>744.67999999999995</ele>
        <time>2016-06-04T14:48:44Z</time>
      </trkpt>
      <trkpt lat="43.729953244328499" lon="11.915096556767821">
        <ele>743.72000000000003</ele>
        <time>2016-06-04T14:48:46Z</time>
      </trkpt>
      <trkpt lat="43.729996494948864" lon="11.914923638105392">
        <ele>741.30999999999995</ele>
        <time>2016-06-04T14:48:57Z</time>
      </trkpt>
      <trkpt lat="43.730019126087427" lon="11.914817858487368">
        <ele>738.90999999999997</ele>
        <time>2016-06-04T14:49:07Z</time>
      </trkpt>
      <trkpt lat="43.730035638436675" lon="11.914645358920097">
        <ele>736.02999999999997</ele>
        <time>2016-06-04T14:49:19Z</time>
      </trkpt>
      <trkpt lat="43.730043182149529" lon="11.914540668949485">
        <ele>733.62</ele>
        <time>2016-06-04T14:49:29Z</time>
      </trkpt>
      <trkpt lat="43.730073776096106" lon="11.914449306204915">
        <ele>733.13999999999999</ele>
        <time>2016-06-04T14:49:41Z</time>
      </trkpt>
      <trkpt lat="43.730163965374231" lon="11.914498507976532">
        <ele>734.10000000000002</ele>
        <time>2016-06-04T14:49:52Z</time>
      </trkpt>
      <trkpt lat="43.730244431644678" lon="11.914631780236959">
        <ele>733.13999999999999</ele>
        <time>2016-06-04T14:50:04Z</time>
      </trkpt>
      <trkpt lat="43.730249041691422" lon="11.914641922339797">
        <ele>732.65999999999997</ele>
        <time>2016-06-04T14:50:05Z</time>
      </trkpt>
      <trkpt lat="43.73033981770277" lon="11.914716186001897">
        <ele>730.25999999999999</ele>
        <time>2016-06-04T14:50:16Z</time>
      </trkpt>
      <trkpt lat="43.730372171849012" lon="11.914754156023264">
        <ele>729.77999999999997</ele>
        <time>2016-06-04T14:50:20Z</time>
      </trkpt>
      <trkpt lat="43.73047711327672" lon="11.914871670305729">
        <ele>726.88999999999999</ele>
        <time>2016-06-04T14:50:32Z</time>
      </trkpt>
      <trkpt lat="43.730612564831972" lon="11.914876867085695">
        <ele>724.49000000000001</ele>
        <time>2016-06-04T14:50:45Z</time>
      </trkpt>
      <trkpt lat="43.730757404118776" lon="11.914944425225258">
        <ele>723.04999999999995</ele>
        <time>2016-06-04T14:50:57Z</time>
      </trkpt>
      <trkpt lat="43.73087047599256" lon="11.915027489885688">
        <ele>721.61000000000001</ele>
        <time>2016-06-04T14:51:08Z</time>
      </trkpt>
      <trkpt lat="43.730970723554492" lon="11.915071830153465">
        <ele>719.67999999999995</ele>
        <time>2016-06-04T14:51:18Z</time>
      </trkpt>
      <trkpt lat="43.731098547577858" lon="11.915133940055966">
        <ele>718.24000000000001</ele>
        <time>2016-06-04T14:51:29Z</time>
      </trkpt>
      <trkpt lat="43.731206841766834" lon="11.915206192061305">
        <ele>715.84000000000003</ele>
        <time>2016-06-04T14:51:40Z</time>
      </trkpt>
      <trkpt lat="43.731313543394208" lon="11.915256232023239">
        <ele>713.91999999999996</ele>
        <time>2016-06-04T14:51:51Z</time>
      </trkpt>
      <trkpt lat="43.731415215879679" lon="11.915301159024239">
        <ele>712.47000000000003</ele>
        <time>2016-06-04T14:52:00Z</time>
      </trkpt>
      <trkpt lat="43.73152962885797" lon="11.915406184270978">
        <ele>710.54999999999995</ele>
        <time>2016-06-04T14:52:11Z</time>
      </trkpt>
      <trkpt lat="43.731641862541437" lon="11.91546343266964">
        <ele>709.59000000000003</ele>
        <time>2016-06-04T14:52:23Z</time>
      </trkpt>
      <trkpt lat="43.731729788705707" lon="11.91551866941154">
        <ele>706.23000000000002</ele>
        <time>2016-06-04T14:52:36Z</time>
      </trkpt>
      <trkpt lat="43.73184378258884" lon="11.915502240881324">
        <ele>703.34000000000003</ele>
        <time>2016-06-04T14:52:48Z</time>
      </trkpt>
      <trkpt lat="43.731911424547434" lon="11.915454799309373">
        <ele>701.41999999999996</ele>
        <time>2016-06-04T14:53:00Z</time>
      </trkpt>
      <trkpt lat="43.731990130618215" lon="11.915404759347439">
        <ele>699.01999999999998</ele>
        <time>2016-06-04T14:53:12Z</time>
      </trkpt>
      <trkpt lat="43.732074620202184" lon="11.915361676365137">
        <ele>696.61000000000001</ele>
        <time>2016-06-04T14:53:24Z</time>
      </trkpt>
      <trkpt lat="43.732153410091996" lon="11.915299734100699">
        <ele>693.73000000000002</ele>
        <time>2016-06-04T14:53:37Z</time>
      </trkpt>
      <trkpt lat="43.732236390933394" lon="11.915268804877996">
        <ele>691.33000000000004</ele>
        <time>2016-06-04T14:53:50Z</time>
      </trkpt>
      <trkpt lat="43.732335045933723" lon="11.915383469313383">
        <ele>690.36000000000001</ele>
        <time>2016-06-04T14:54:01Z</time>
      </trkpt>
      <trkpt lat="43.732420960441232" lon="11.915434263646603">
        <ele>689.88</ele>
        <time>2016-06-04T14:54:12Z</time>
      </trkpt>
      <trkpt lat="43.732462869957089" lon="11.915468797087669">
        <ele>689.39999999999998</ele>
        <time>2016-06-04T14:54:24Z</time>
      </trkpt>
      <trkpt lat="43.732465552166104" lon="11.915494361892343">
        <ele>689.39999999999998</ele>
        <time>2016-06-04T14:54:40Z</time>
      </trkpt>
      <trkpt lat="43.732507713139057" lon="11.915473826229572">
        <ele>689.39999999999998</ele>
        <time>2016-06-04T14:55:02Z</time>
      </trkpt>
      <trkpt lat="43.732495559379458" lon="11.915480615571141">
        <ele>688.91999999999996</ele>
        <time>2016-06-04T14:55:25Z</time>
      </trkpt>
      <trkpt lat="43.732499917969108" lon="11.915476592257619">
        <ele>687.48000000000002</ele>
        <time>2016-06-04T14:55:29Z</time>
      </trkpt>
      <trkpt lat="43.732511652633548" lon="11.915506096556783">
        <ele>689.39999999999998</ele>
        <time>2016-06-04T14:55:52Z</time>
      </trkpt>
      <trkpt lat="43.732478795573115" lon="11.915477681905031">
        <ele>689.88</ele>
        <time>2016-06-04T14:56:17Z</time>
      </trkpt>
      <trkpt lat="43.732464630156755" lon="11.915474077686667">
        <ele>689.88</ele>
        <time>2016-06-04T14:56:39Z</time>
      </trkpt>
      <trkpt lat="43.732515843585134" lon="11.915521016344428">
        <ele>689.88</ele>
        <time>2016-06-04T14:57:00Z</time>
      </trkpt>
      <trkpt lat="43.732551047578454" lon="11.915663843974471">
        <ele>689.39999999999998</ele>
        <time>2016-06-04T14:57:13Z</time>
      </trkpt>
      <trkpt lat="43.732587341219187" lon="11.915794182568789">
        <ele>688.44000000000005</ele>
        <time>2016-06-04T14:57:26Z</time>
      </trkpt>
      <trkpt lat="43.732596226036549" lon="11.915899878367782">
        <ele>687.96000000000004</ele>
        <time>2016-06-04T14:57:34Z</time>
      </trkpt>
      <trkpt lat="43.732690270990133" lon="11.9159403629601">
        <ele>686.03999999999996</ele>
        <time>2016-06-04T14:57:47Z</time>
      </trkpt>
      <trkpt lat="43.732791105285287" lon="11.915927622467279">
        <ele>683.63</ele>
        <time>2016-06-04T14:57:58Z</time>
      </trkpt>
      <trkpt lat="43.732874002307653" lon="11.915939776226878">
        <ele>681.23000000000002</ele>
        <time>2016-06-04T14:58:09Z</time>
      </trkpt>
      <trkpt lat="43.732958659529686" lon="11.915977327153087">
        <ele>677.87</ele>
        <time>2016-06-04T14:58:21Z</time>
      </trkpt>
      <trkpt lat="43.733073407784104" lon="11.916032815352082">
        <ele>675.46000000000004</ele>
        <time>2016-06-04T14:58:36Z</time>
      </trkpt>
      <trkpt lat="43.733086064457893" lon="11.916044801473618">
        <ele>671.13999999999999</ele>
        <time>2016-06-04T14:58:40Z</time>
      </trkpt>
      <trkpt lat="43.733087992295623" lon="11.916048070415854">
        <ele>676.41999999999996</ele>
        <time>2016-06-04T14:58:41Z</time>
      </trkpt>
      <trkpt lat="43.733091847971082" lon="11.916051674634218">
        <ele>676.41999999999996</ele>
        <time>2016-06-04T14:58:42Z</time>
      </trkpt>
      <trkpt lat="43.733139457181096" lon="11.916063828393817">
        <ele>672.10000000000002</ele>
        <time>2016-06-04T14:58:49Z</time>
      </trkpt>
      <trkpt lat="43.733141804113984" lon="11.916065588593483">
        <ele>672.10000000000002</ele>
        <time>2016-06-04T14:58:50Z</time>
      </trkpt>
      <trkpt lat="43.733213217929006" lon="11.916093919426203">
        <ele>669.22000000000003</ele>
        <time>2016-06-04T14:59:05Z</time>
      </trkpt>
      <trkpt lat="43.733314722776413" lon="11.916085286065936">
        <ele>667.28999999999996</ele>
        <time>2016-06-04T14:59:18Z</time>
      </trkpt>
      <trkpt lat="43.733372557908297" lon="11.916058212518692">
        <ele>665.37</ele>
        <time>2016-06-04T14:59:28Z</time>
      </trkpt>
      <trkpt lat="43.733433913439512" lon="11.916038012132049">
        <ele>663.92999999999995</ele>
        <time>2016-06-04T14:59:38Z</time>
      </trkpt>
      <trkpt lat="43.733511865139008" lon="11.916090315207839">
        <ele>662.00999999999999</ele>
        <time>2016-06-04T14:59:50Z</time>
      </trkpt>
      <trkpt lat="43.733519827947021" lon="11.916099451482296">
        <ele>662.49000000000001</ele>
        <time>2016-06-04T14:59:51Z</time>
      </trkpt>
      <trkpt lat="43.73356182128191" lon="11.91614119336009">
        <ele>661.51999999999998</ele>
        <time>2016-06-04T14:59:57Z</time>
      </trkpt>
      <trkpt lat="43.733587889000773" lon="11.9161665905267">
        <ele>661.03999999999996</ele>
        <time>2016-06-04T15:00:00Z</time>
      </trkpt>
      <trkpt lat="43.733672127127647" lon="11.91629215143621">
        <ele>660.55999999999995</ele>
        <time>2016-06-04T15:00:12Z</time>
      </trkpt>
      <trkpt lat="43.733787545934319" lon="11.916372869163752">
        <ele>657.67999999999995</ele>
        <time>2016-06-04T15:00:25Z</time>
      </trkpt>
      <trkpt lat="43.733884776011109" lon="11.916449647396803">
        <ele>656.24000000000001</ele>
        <time>2016-06-04T15:00:36Z</time>
      </trkpt>
      <trkpt lat="43.733975635841489" lon="11.916534304618835">
        <ele>654.30999999999995</ele>
        <time>2016-06-04T15:00:48Z</time>
      </trkpt>
      <trkpt lat="43.734090384095907" lon="11.916615776717663">
        <ele>651.90999999999997</ele>
        <time>2016-06-04T15:01:00Z</time>
      </trkpt>
      <trkpt lat="43.734224746003747" lon="11.916711749508977">
        <ele>650.95000000000005</ele>
        <time>2016-06-04T15:01:14Z</time>
      </trkpt>
      <trkpt lat="43.734339494258165" lon="11.91678375005722">
        <ele>649.02999999999997</ele>
        <time>2016-06-04T15:01:27Z</time>
      </trkpt>
      <trkpt lat="43.734417445957661" lon="11.916877124458551">
        <ele>648.54999999999995</ele>
        <time>2016-06-04T15:01:36Z</time>
      </trkpt>
      <trkpt lat="43.734510652720928" lon="11.917007630690932">
        <ele>647.10000000000002</ele>
        <time>2016-06-04T15:01:48Z</time>
      </trkpt>
      <trkpt lat="43.734581060707569" lon="11.917140316218138">
        <ele>645.17999999999995</ele>
        <time>2016-06-04T15:02:00Z</time>
      </trkpt>
      <trkpt lat="43.734595058485866" lon="11.917192535474896">
        <ele>644.70000000000005</ele>
        <time>2016-06-04T15:02:04Z</time>
      </trkpt>
      <trkpt lat="43.734574858099222" lon="11.917359251528978">
        <ele>644.22000000000003</ele>
        <time>2016-06-04T15:02:15Z</time>
      </trkpt>
      <trkpt lat="43.734590113162994" lon="11.917573995888233">
        <ele>642.77999999999997</ele>
        <time>2016-06-04T15:02:29Z</time>
      </trkpt>
      <trkpt lat="43.734608888626099" lon="11.917785052210093">
        <ele>641.34000000000003</ele>
        <time>2016-06-04T15:02:43Z</time>
      </trkpt>
      <trkpt lat="43.734624143689871" lon="11.917896699160337">
        <ele>640.38</ele>
        <time>2016-06-04T15:02:53Z</time>
      </trkpt>
      <trkpt lat="43.734672842547297" lon="11.917966939508915">
        <ele>640.38</ele>
        <time>2016-06-04T15:03:01Z</time>
      </trkpt>
      <trkpt lat="43.734791362658143" lon="11.917876666411757">
        <ele>638.45000000000005</ele>
        <time>2016-06-04T15:03:14Z</time>
      </trkpt>
      <trkpt lat="43.73483813367784" lon="11.917841210961342">
        <ele>638.45000000000005</ele>
        <time>2016-06-04T15:03:25Z</time>
      </trkpt>
      <trkpt lat="43.734872750937939" lon="11.917822016403079">
        <ele>637.97000000000003</ele>
        <time>2016-06-04T15:03:44Z</time>
      </trkpt>
      <trkpt lat="43.734897142276168" lon="11.917801396921277">
        <ele>637.49000000000001</ele>
        <time>2016-06-04T15:03:48Z</time>
      </trkpt>
      <trkpt lat="43.734962269663811" lon="11.917673656716943">
        <ele>634.13</ele>
        <time>2016-06-04T15:04:00Z</time>
      </trkpt>
      <trkpt lat="43.735065702348948" lon="11.91752890124917">
        <ele>631.72000000000003</ele>
        <time>2016-06-04T15:04:14Z</time>
      </trkpt>
      <trkpt lat="43.735187826678157" lon="11.917454972863197">
        <ele>629.79999999999995</ele>
        <time>2016-06-04T15:04:27Z</time>
      </trkpt>
      <trkpt lat="43.735230658203363" lon="11.917433179914951">
        <ele>629.32000000000005</ele>
        <time>2016-06-04T15:04:38Z</time>
      </trkpt>
      <trkpt lat="43.735287571325898" lon="11.917373081669211">
        <ele>627.88</ele>
        <time>2016-06-04T15:04:50Z</time>
      </trkpt>
      <trkpt lat="43.735360577702522" lon="11.917281802743673">
        <ele>626.44000000000005</ele>
        <time>2016-06-04T15:05:01Z</time>
      </trkpt>
      <trkpt lat="43.735417909920216" lon="11.917148865759373">
        <ele>625.96000000000004</ele>
        <time>2016-06-04T15:05:14Z</time>
      </trkpt>
      <trkpt lat="43.735477589070797" lon="11.916982904076576">
        <ele>625.96000000000004</ele>
        <time>2016-06-04T15:05:28Z</time>
      </trkpt>
      <trkpt lat="43.73553492128849" lon="11.916816858574748">
        <ele>623.07000000000005</ele>
        <time>2016-06-04T15:05:42Z</time>
      </trkpt>
      <trkpt lat="43.735540620982647" lon="11.916795652359724">
        <ele>622.59000000000003</ele>
        <time>2016-06-04T15:05:44Z</time>
      </trkpt>
      <trkpt lat="43.735611280426383" lon="11.916644694283605">
        <ele>620.66999999999996</ele>
        <time>2016-06-04T15:05:56Z</time>
      </trkpt>
      <trkpt lat="43.735688226297498" lon="11.916641509160399">
        <ele>620.66999999999996</ele>
        <time>2016-06-04T15:06:06Z</time>
      </trkpt>
      <trkpt lat="43.735726196318865" lon="11.91664787940681">
        <ele>620.66999999999996</ele>
        <time>2016-06-04T15:06:11Z</time>
      </trkpt>
      <trkpt lat="43.735777912661433" lon="11.916732955724001">
        <ele>620.19000000000005</ele>
        <time>2016-06-04T15:06:18Z</time>
      </trkpt>
      <trkpt lat="43.735796771943569" lon="11.916755922138691">
        <ele>620.19000000000005</ele>
        <time>2016-06-04T15:06:21Z</time>
      </trkpt>
      <trkpt lat="43.735897438600659" lon="11.916845189407468">
        <ele>620.66999999999996</ele>
        <time>2016-06-04T15:06:33Z</time>
      </trkpt>
      <trkpt lat="43.735938342288136" lon="11.916873855516315">
        <ele>620.66999999999996</ele>
        <time>2016-06-04T15:06:37Z</time>
      </trkpt>
      <trkpt lat="43.736077481880784" lon="11.916985502466559">
        <ele>621.63</ele>
        <time>2016-06-04T15:06:50Z</time>
      </trkpt>
      <trkpt lat="43.736187368631363" lon="11.917031770572066">
        <ele>622.11000000000001</ele>
        <time>2016-06-04T15:07:02Z</time>
      </trkpt>
      <trkpt lat="43.736257692798972" lon="11.917091617360711">
        <ele>622.59000000000003</ele>
        <time>2016-06-04T15:07:13Z</time>
      </trkpt>
      <trkpt lat="43.736332040280104" lon="11.917134700343013">
        <ele>620.19000000000005</ele>
        <time>2016-06-04T15:07:24Z</time>
      </trkpt>
      <trkpt lat="43.736469084396958" lon="11.917189937084913">
        <ele>617.77999999999997</ele>
        <time>2016-06-04T15:07:36Z</time>
      </trkpt>
      <trkpt lat="43.736567823216319" lon="11.917186081409454">
        <ele>617.77999999999997</ele>
        <time>2016-06-04T15:07:48Z</time>
      </trkpt>
      <trkpt lat="43.736681314185262" lon="11.917202342301607">
        <ele>617.29999999999995</ele>
        <time>2016-06-04T15:08:02Z</time>
      </trkpt>
      <trkpt lat="43.736803354695439" lon="11.917232852429152">
        <ele>617.29999999999995</ele>
        <time>2016-06-04T15:08:13Z</time>
      </trkpt>
      <trkpt lat="43.736901422962546" lon="11.917173424735665">
        <ele>617.77999999999997</ele>
        <time>2016-06-04T15:08:25Z</time>
      </trkpt>
      <trkpt lat="43.736963029950857" lon="11.917169988155365">
        <ele>617.29999999999995</ele>
        <time>2016-06-04T15:08:35Z</time>
      </trkpt>
      <trkpt lat="43.737133350223303" lon="11.917135454714298">
        <ele>616.82000000000005</ele>
        <time>2016-06-04T15:08:50Z</time>
      </trkpt>
      <trkpt lat="43.737219935283065" lon="11.91708616912365">
        <ele>615.86000000000001</ele>
        <time>2016-06-04T15:09:02Z</time>
      </trkpt>
      <trkpt lat="43.737228233367205" lon="11.917050546035171">
        <ele>615.86000000000001</ele>
        <time>2016-06-04T15:09:10Z</time>
      </trkpt>
      <trkpt lat="43.737230580300093" lon="11.91693521104753">
        <ele>614.89999999999998</ele>
        <time>2016-06-04T15:09:21Z</time>
      </trkpt>
      <trkpt lat="43.73724608682096" lon="11.916796239092946">
        <ele>612.98000000000002</ele>
        <time>2016-06-04T15:09:32Z</time>
      </trkpt>
      <trkpt lat="43.737258743494749" lon="11.916665649041533">
        <ele>611.53999999999996</ele>
        <time>2016-06-04T15:09:43Z</time>
      </trkpt>
      <trkpt lat="43.737247260287404" lon="11.916647627949715">
        <ele>611.53999999999996</ele>
        <time>2016-06-04T15:09:54Z</time>
      </trkpt>
      <trkpt lat="43.737257653847337" lon="11.916672019287944">
        <ele>611.05999999999995</ele>
        <time>2016-06-04T15:10:03Z</time>
      </trkpt>
      <trkpt lat="43.737264191731811" lon="11.91665324382484">
        <ele>610.57000000000005</ele>
        <time>2016-06-04T15:10:11Z</time>
      </trkpt>
      <trkpt lat="43.737269220873713" lon="11.916662380099297">
        <ele>610.09000000000003</ele>
        <time>2016-06-04T15:10:43Z</time>
      </trkpt>
      <trkpt lat="43.737271567806602" lon="11.916669923812151">
        <ele>610.09000000000003</ele>
        <time>2016-06-04T15:11:09Z</time>
      </trkpt>
      <trkpt lat="43.737275926396251" lon="11.916643269360065">
        <ele>610.57000000000005</ele>
        <time>2016-06-04T15:11:42Z</time>
      </trkpt>
      <trkpt lat="43.737284392118454" lon="11.916654584929347">
        <ele>610.57000000000005</ele>
        <time>2016-06-04T15:12:12Z</time>
      </trkpt>
      <trkpt lat="43.737268298864365" lon="11.916633546352386">
        <ele>610.57000000000005</ele>
        <time>2016-06-04T15:12:47Z</time>
      </trkpt>
      <trkpt lat="43.737267041578889" lon="11.916664894670248">
        <ele>610.57000000000005</ele>
        <time>2016-06-04T15:13:11Z</time>
      </trkpt>
      <trkpt lat="43.737258492037654" lon="11.916682412847877">
        <ele>611.05999999999995</ele>
        <time>2016-06-04T15:13:19Z</time>
      </trkpt>
      <trkpt lat="43.737260587513447" lon="11.916680401191115">
        <ele>611.05999999999995</ele>
        <time>2016-06-04T15:13:30Z</time>
      </trkpt>
      <trkpt lat="43.737262934446335" lon="11.916652405634522">
        <ele>611.05999999999995</ele>
        <time>2016-06-04T15:13:45Z</time>
      </trkpt>
      <trkpt lat="43.737275004386902" lon="11.916632372885942">
        <ele>611.05999999999995</ele>
        <time>2016-06-04T15:13:52Z</time>
      </trkpt>
      <trkpt lat="43.737308280542493" lon="11.91647638566792">
        <ele>609.13</ele>
        <time>2016-06-04T15:14:04Z</time>
      </trkpt>
      <trkpt lat="43.737321859225631" lon="11.916457358747721">
        <ele>609.13</ele>
        <time>2016-06-04T15:14:06Z</time>
      </trkpt>
      <trkpt lat="43.737403247505426" lon="11.916247643530369">
        <ele>608.64999999999998</ele>
        <time>2016-06-04T15:14:25Z</time>
      </trkpt>
      <trkpt lat="43.737503159791231" lon="11.916238339617848">
        <ele>608.64999999999998</ele>
        <time>2016-06-04T15:14:36Z</time>
      </trkpt>
      <trkpt lat="43.7375133857131" lon="11.916242195293307">
        <ele>608.64999999999998</ele>
        <time>2016-06-04T15:14:37Z</time>
      </trkpt>
      <trkpt lat="43.737658644095063" lon="11.916306903585792">
        <ele>608.64999999999998</ele>
        <time>2016-06-04T15:14:51Z</time>
      </trkpt>
      <trkpt lat="43.737782444804907" lon="11.916390554979444">
        <ele>607.69000000000005</ele>
        <time>2016-06-04T15:15:04Z</time>
      </trkpt>
      <trkpt lat="43.737921165302396" lon="11.916495496407151">
        <ele>606.73000000000002</ele>
        <time>2016-06-04T15:15:17Z</time>
      </trkpt>
      <trkpt lat="43.738058377057314" lon="11.916595492511988">
        <ele>605.76999999999998</ele>
        <time>2016-06-04T15:15:30Z</time>
      </trkpt>
      <trkpt lat="43.738178070634604" lon="11.916655171662569">
        <ele>604.80999999999995</ele>
        <time>2016-06-04T15:15:40Z</time>
      </trkpt>
      <trkpt lat="43.738340260460973" lon="11.916694734245539">
        <ele>602.88</ele>
        <time>2016-06-04T15:15:55Z</time>
      </trkpt>
      <trkpt lat="43.738483842462301" lon="11.916737481951714">
        <ele>600.96000000000004</ele>
        <time>2016-06-04T15:16:07Z</time>
      </trkpt>
      <trkpt lat="43.738651312887669" lon="11.916772434487939">
        <ele>599.03999999999996</ele>
        <time>2016-06-04T15:16:21Z</time>
      </trkpt>
      <trkpt lat="43.738801432773471" lon="11.916796322911978">
        <ele>597.60000000000002</ele>
        <time>2016-06-04T15:16:33Z</time>
      </trkpt>
      <trkpt lat="43.73894258402288" lon="11.916881985962391">
        <ele>596.14999999999998</ele>
        <time>2016-06-04T15:16:46Z</time>
      </trkpt>
      <trkpt lat="43.738992121070623" lon="11.916925320401788">
        <ele>595.66999999999996</ele>
        <time>2016-06-04T15:16:51Z</time>
      </trkpt>
      <trkpt lat="43.739023553207517" lon="11.916975695639849">
        <ele>595.19000000000005</ele>
        <time>2016-06-04T15:16:55Z</time>
      </trkpt>
      <trkpt lat="43.739088764414191" lon="11.917116092517972">
        <ele>592.78999999999996</ele>
        <time>2016-06-04T15:17:08Z</time>
      </trkpt>
      <trkpt lat="43.739171493798494" lon="11.917233187705278">
        <ele>591.35000000000002</ele>
        <time>2016-06-04T15:17:19Z</time>
      </trkpt>
      <trkpt lat="43.739253971725702" lon="11.917349612340331">
        <ele>590.38999999999999</ele>
        <time>2016-06-04T15:17:30Z</time>
      </trkpt>
      <trkpt lat="43.739361008629203" lon="11.917400322854519">
        <ele>589.42999999999995</ele>
        <time>2016-06-04T15:17:40Z</time>
      </trkpt>
      <trkpt lat="43.739519342780113" lon="11.917293453589082">
        <ele>587.5</ele>
        <time>2016-06-04T15:17:56Z</time>
      </trkpt>
      <trkpt lat="43.739623362198472" lon="11.917140651494265">
        <ele>585.58000000000004</ele>
        <time>2016-06-04T15:18:09Z</time>
      </trkpt>
      <trkpt lat="43.739732075482607" lon="11.91701291128993">
        <ele>583.65999999999997</ele>
        <time>2016-06-04T15:18:21Z</time>
      </trkpt>
      <trkpt lat="43.739839531481266" lon="11.916886596009135">
        <ele>582.22000000000003</ele>
        <time>2016-06-04T15:18:33Z</time>
      </trkpt>
      <trkpt lat="43.74000926502049" lon="11.916844435036182">
        <ele>580.76999999999998</ele>
        <time>2016-06-04T15:18:47Z</time>
      </trkpt>
      <trkpt lat="43.74018763191998" lon="11.916868155822158">
        <ele>579.80999999999995</ele>
        <time>2016-06-04T15:19:02Z</time>
      </trkpt>
      <trkpt lat="43.740378487855196" lon="11.916920961812139">
        <ele>577.40999999999997</ele>
        <time>2016-06-04T15:19:17Z</time>
      </trkpt>
      <trkpt lat="43.740541934967041" lon="11.91694694571197">
        <ele>575.97000000000003</ele>
        <time>2016-06-04T15:19:30Z</time>
      </trkpt>
      <trkpt lat="43.740701107308269" lon="11.917028836905956">
        <ele>574.03999999999996</ele>
        <time>2016-06-04T15:19:45Z</time>
      </trkpt>
      <trkpt lat="43.740706639364362" lon="11.917123720049858">
        <ele>573.55999999999995</ele>
        <time>2016-06-04T15:19:51Z</time>
      </trkpt>
      <trkpt lat="43.740642936900258" lon="11.917235953733325">
        <ele>572.60000000000002</ele>
        <time>2016-06-04T15:19:59Z</time>
      </trkpt>
      <trkpt lat="43.740506730973721" lon="11.917222542688251">
        <ele>572.12</ele>
        <time>2016-06-04T15:20:10Z</time>
      </trkpt>
      <trkpt lat="43.740367172285914" lon="11.917128749191761">
        <ele>572.12</ele>
        <time>2016-06-04T15:20:22Z</time>
      </trkpt>
      <trkpt lat="43.74018813483417" lon="11.917085330933332">
        <ele>571.63999999999999</ele>
        <time>2016-06-04T15:20:36Z</time>
      </trkpt>
      <trkpt lat="43.739983951672912" lon="11.917152050882578">
        <ele>571.15999999999997</ele>
        <time>2016-06-04T15:20:52Z</time>
      </trkpt>
      <trkpt lat="43.739849841222167" lon="11.917286915704608">
        <ele>570.20000000000005</ele>
        <time>2016-06-04T15:21:06Z</time>
      </trkpt>
      <trkpt lat="43.739774990826845" lon="11.917505515739322">
        <ele>568.75999999999999</ele>
        <time>2016-06-04T15:21:20Z</time>
      </trkpt>
      <trkpt lat="43.739714808762074" lon="11.917728809639812">
        <ele>567.32000000000005</ele>
        <time>2016-06-04T15:21:34Z</time>
      </trkpt>
      <trkpt lat="43.739600228145719" lon="11.917936345562339">
        <ele>566.35000000000002</ele>
        <time>2016-06-04T15:21:49Z</time>
      </trkpt>
      <trkpt lat="43.739482713863254" lon="11.918064588680863">
        <ele>564.90999999999997</ele>
        <time>2016-06-04T15:22:01Z</time>
      </trkpt>
      <trkpt lat="43.739351872354746" lon="11.918195346370339">
        <ele>563.95000000000005</ele>
        <time>2016-06-04T15:22:14Z</time>
      </trkpt>
      <trkpt lat="43.739210804924369" lon="11.918327864259481">
        <ele>562.50999999999999</ele>
        <time>2016-06-04T15:22:27Z</time>
      </trkpt>
      <trkpt lat="43.739104773849249" lon="11.918416796252131">
        <ele>561.54999999999995</ele>
        <time>2016-06-04T15:22:37Z</time>
      </trkpt>
      <trkpt lat="43.739030510187149" lon="11.918542189523578">
        <ele>560.59000000000003</ele>
        <time>2016-06-04T15:22:48Z</time>
      </trkpt>
      <trkpt lat="43.739021206274629" lon="11.918628104031086">
        <ele>560.11000000000001</ele>
        <time>2016-06-04T15:22:53Z</time>
      </trkpt>
      <trkpt lat="43.739056913182139" lon="11.918748803436756">
        <ele>559.13999999999999</ele>
        <time>2016-06-04T15:23:00Z</time>
      </trkpt>
      <trkpt lat="43.739211307838559" lon="11.91876950673759">
        <ele>557.22000000000003</ele>
        <time>2016-06-04T15:23:13Z</time>
      </trkpt>
      <trkpt lat="43.739264868199825" lon="11.918743858113885">
        <ele>556.25999999999999</ele>
        <time>2016-06-04T15:23:17Z</time>
      </trkpt>
      <trkpt lat="43.739420520141721" lon="11.918652495369315">
        <ele>554.34000000000003</ele>
        <time>2016-06-04T15:23:32Z</time>
      </trkpt>
      <trkpt lat="43.73954800888896" lon="11.918559959158301">
        <ele>552.40999999999997</ele>
        <time>2016-06-04T15:23:44Z</time>
      </trkpt>
      <trkpt lat="43.739701313897967" lon="11.918490137904882">
        <ele>550.97000000000003</ele>
        <time>2016-06-04T15:23:57Z</time>
      </trkpt>
      <trkpt lat="43.739855038002133" lon="11.918412521481514">
        <ele>549.52999999999997</ele>
        <time>2016-06-04T15:24:10Z</time>
      </trkpt>
      <trkpt lat="43.74003860168159" lon="11.918344208970666">
        <ele>548.09000000000003</ele>
        <time>2016-06-04T15:24:25Z</time>
      </trkpt>
      <trkpt lat="43.740132562816143" lon="11.918327277526259">
        <ele>547.61000000000001</ele>
        <time>2016-06-04T15:24:33Z</time>
      </trkpt>
      <trkpt lat="43.740219231694937" lon="11.918320404365659">
        <ele>546.16999999999996</ele>
        <time>2016-06-04T15:24:40Z</time>
      </trkpt>
      <trkpt lat="43.740374715998769" lon="11.9182940851897">
        <ele>544.72000000000003</ele>
        <time>2016-06-04T15:24:53Z</time>
      </trkpt>
      <trkpt lat="43.740554340183735" lon="11.918283607810736">
        <ele>543.75999999999999</ele>
        <time>2016-06-04T15:25:07Z</time>
      </trkpt>
      <trkpt lat="43.740677889436483" lon="11.918246643617749">
        <ele>541.84000000000003</ele>
        <time>2016-06-04T15:25:17Z</time>
      </trkpt>
      <trkpt lat="43.740840330719948" lon="11.918204734101892">
        <ele>540.39999999999998</ele>
        <time>2016-06-04T15:25:30Z</time>
      </trkpt>
      <trkpt lat="43.741019451990724" lon="11.91817095503211">
        <ele>538.96000000000004</ele>
        <time>2016-06-04T15:25:44Z</time>
      </trkpt>
      <trkpt lat="43.741154819726944" lon="11.918149413540959">
        <ele>537.99000000000001</ele>
        <time>2016-06-04T15:25:55Z</time>
      </trkpt>
      <trkpt lat="43.741291360929608" lon="11.918144719675183">
        <ele>537.50999999999999</ele>
        <time>2016-06-04T15:26:06Z</time>
      </trkpt>
      <trkpt lat="43.741424130275846" lon="11.918117646127939">
        <ele>537.02999999999997</ele>
        <time>2016-06-04T15:26:17Z</time>
      </trkpt>
      <trkpt lat="43.741599228233099" lon="11.918107001110911">
        <ele>536.54999999999995</ele>
        <time>2016-06-04T15:26:31Z</time>
      </trkpt>
      <trkpt lat="43.741649519652128" lon="11.918114544823766">
        <ele>536.54999999999995</ele>
        <time>2016-06-04T15:26:35Z</time>
      </trkpt>
      <trkpt lat="43.741698386147618" lon="11.918119238689542">
        <ele>536.07000000000005</ele>
        <time>2016-06-04T15:26:39Z</time>
      </trkpt>
      <trkpt lat="43.741825539618731" lon="11.918139941990376">
        <ele>535.59000000000003</ele>
        <time>2016-06-04T15:26:49Z</time>
      </trkpt>
      <trkpt lat="43.741953698918223" lon="11.918171290308237">
        <ele>535.59000000000003</ele>
        <time>2016-06-04T15:26:59Z</time>
      </trkpt>
      <trkpt lat="43.742000134661794" lon="11.918186293914914">
        <ele>535.11000000000001</ele>
        <time>2016-06-04T15:27:03Z</time>
      </trkpt>
      <trkpt lat="43.742191325873137" lon="11.918226862326264">
        <ele>534.63</ele>
        <time>2016-06-04T15:27:18Z</time>
      </trkpt>
      <trkpt lat="43.742332980036736" lon="11.9181455578655">
        <ele>533.19000000000005</ele>
        <time>2016-06-04T15:27:31Z</time>
      </trkpt>
      <trkpt lat="43.742342283949256" lon="11.918128877878189">
        <ele>533.19000000000005</ele>
        <time>2016-06-04T15:27:33Z</time>
      </trkpt>
      <trkpt lat="43.742376230657101" lon="11.918035754933953">
        <ele>533.66999999999996</ele>
        <time>2016-06-04T15:27:39Z</time>
      </trkpt>
      <trkpt lat="43.742442699149251" lon="11.917818831279874">
        <ele>531.26999999999998</ele>
        <time>2016-06-04T15:27:53Z</time>
      </trkpt>
      <trkpt lat="43.742510844022036" lon="11.917596543207765">
        <ele>532.71000000000004</ele>
        <time>2016-06-04T15:28:08Z</time>
      </trkpt>
      <trkpt lat="43.742563230916858" lon="11.917442064732313">
        <ele>533.66999999999996</ele>
        <time>2016-06-04T15:28:20Z</time>
      </trkpt>
      <trkpt lat="43.742648977786303" lon="11.917261350899935">
        <ele>534.14999999999998</ele>
        <time>2016-06-04T15:28:33Z</time>
      </trkpt>
      <trkpt lat="43.742707315832376" lon="11.917188260704279">
        <ele>534.63</ele>
        <time>2016-06-04T15:28:40Z</time>
      </trkpt>
      <trkpt lat="43.742744699120522" lon="11.917174011468887">
        <ele>535.11000000000001</ele>
        <time>2016-06-04T15:28:43Z</time>
      </trkpt>
      <trkpt lat="43.742761630564928" lon="11.917166048660874">
        <ele>535.59000000000003</ele>
        <time>2016-06-04T15:28:45Z</time>
      </trkpt>
      <trkpt lat="43.742799013853073" lon="11.917157331481576">
        <ele>536.07000000000005</ele>
        <time>2016-06-04T15:28:49Z</time>
      </trkpt>
      <trkpt lat="43.742882329970598" lon="11.917214663699269">
        <ele>537.02999999999997</ele>
        <time>2016-06-04T15:28:58Z</time>
      </trkpt>
      <trkpt lat="43.74293178319931" lon="11.917286664247513">
        <ele>537.99000000000001</ele>
        <time>2016-06-04T15:29:04Z</time>
      </trkpt>
      <trkpt lat="43.743023313581944" lon="11.917422031983733">
        <ele>538.96000000000004</ele>
        <time>2016-06-04T15:29:17Z</time>
      </trkpt>
      <trkpt lat="43.743090620264411" lon="11.917540971189737">
        <ele>539.91999999999996</ele>
        <time>2016-06-04T15:29:27Z</time>
      </trkpt>
      <trkpt lat="43.743178294971585" lon="11.917656557634473">
        <ele>540.88</ele>
        <time>2016-06-04T15:29:39Z</time>
      </trkpt>
      <trkpt lat="43.743269154801965" lon="11.917779771611094">
        <ele>541.84000000000003</ele>
        <time>2016-06-04T15:29:51Z</time>
      </trkpt>
      <trkpt lat="43.743364373221993" lon="11.917899968102574">
        <ele>542.79999999999995</ele>
        <time>2016-06-04T15:30:02Z</time>
      </trkpt>
      <trkpt lat="43.74344089999795" lon="11.918008429929614">
        <ele>543.75999999999999</ele>
        <time>2016-06-04T15:30:12Z</time>
      </trkpt>
      <trkpt lat="43.743458250537515" lon="11.918027624487877">
        <ele>543.75999999999999</ele>
        <time>2016-06-04T15:30:14Z</time>
      </trkpt>
      <trkpt lat="43.743552546948195" lon="11.918139439076185">
        <ele>545.20000000000005</ele>
        <time>2016-06-04T15:30:27Z</time>
      </trkpt>
      <trkpt lat="43.743638126179576" lon="11.918226527050138">
        <ele>546.16999999999996</ele>
        <time>2016-06-04T15:30:38Z</time>
      </trkpt>
      <trkpt lat="43.743728650733829" lon="11.918295677751303">
        <ele>547.13</ele>
        <time>2016-06-04T15:30:49Z</time>
      </trkpt>
      <trkpt lat="43.743828479200602" lon="11.918373629450798">
        <ele>548.57000000000005</ele>
        <time>2016-06-04T15:31:00Z</time>
      </trkpt>
      <trkpt lat="43.743855468928814" lon="11.918413694947958">
        <ele>549.52999999999997</ele>
        <time>2016-06-04T15:31:12Z</time>
      </trkpt>
      <trkpt lat="43.743836106732488" lon="11.918425261974335">
        <ele>548.09000000000003</ele>
        <time>2016-06-04T15:31:21Z</time>
      </trkpt>
      <trkpt lat="43.743840800598264" lon="11.918424088507891">
        <ele>548.09000000000003</ele>
        <time>2016-06-04T15:31:44Z</time>
      </trkpt>
      <trkpt lat="43.743825629353523" lon="11.91842257976532">
        <ele>548.09000000000003</ele>
        <time>2016-06-04T15:32:04Z</time>
      </trkpt>
      <trkpt lat="43.743853289633989" lon="11.918410258367658">
        <ele>549.04999999999995</ele>
        <time>2016-06-04T15:32:23Z</time>
      </trkpt>
      <trkpt lat="43.743870640173554" lon="11.918435404077172">
        <ele>549.04999999999995</ele>
        <time>2016-06-04T15:32:39Z</time>
      </trkpt>
      <trkpt lat="43.743860917165875" lon="11.918431296944618">
        <ele>549.04999999999995</ele>
        <time>2016-06-04T15:32:55Z</time>
      </trkpt>
      <trkpt lat="43.743868544697762" lon="11.918435990810394">
        <ele>549.04999999999995</ele>
        <time>2016-06-04T15:33:15Z</time>
      </trkpt>
      <trkpt lat="43.743874244391918" lon="11.918448563665152">
        <ele>548.57000000000005</ele>
        <time>2016-06-04T15:33:35Z</time>
      </trkpt>
      <trkpt lat="43.743860917165875" lon="11.918472284451127">
        <ele>549.52999999999997</ele>
        <time>2016-06-04T15:34:03Z</time>
      </trkpt>
      <trkpt lat="43.743842393159866" lon="11.918466249480844">
        <ele>549.52999999999997</ele>
        <time>2016-06-04T15:34:33Z</time>
      </trkpt>
      <trkpt lat="43.743868377059698" lon="11.918468428775668">
        <ele>550.00999999999999</ele>
        <time>2016-06-04T15:34:47Z</time>
      </trkpt>
      <trkpt lat="43.743905173614621" lon="11.918524587526917">
        <ele>550.49000000000001</ele>
        <time>2016-06-04T15:34:54Z</time>
      </trkpt>
      <trkpt lat="43.743952196091413" lon="11.918604550883174">
        <ele>550.49000000000001</ele>
        <time>2016-06-04T15:35:02Z</time>
      </trkpt>
      <trkpt lat="43.74401749111712" lon="11.918779984116554">
        <ele>550.00999999999999</ele>
        <time>2016-06-04T15:35:15Z</time>
      </trkpt>
      <trkpt lat="43.744099466130137" lon="11.919022724032402">
        <ele>550.00999999999999</ele>
        <time>2016-06-04T15:35:30Z</time>
      </trkpt>
      <trkpt lat="43.744136346504092" lon="11.919203018769622">
        <ele>549.52999999999997</ele>
        <time>2016-06-04T15:35:41Z</time>
      </trkpt>
      <trkpt lat="43.744191247969866" lon="11.919428911060095">
        <ele>550.49000000000001</ele>
        <time>2016-06-04T15:35:55Z</time>
      </trkpt>
      <trkpt lat="43.744204910472035" lon="11.91949755884707">
        <ele>550.49000000000001</ele>
        <time>2016-06-04T15:36:05Z</time>
      </trkpt>
      <trkpt lat="43.74424665234983" lon="11.919648684561253">
        <ele>550.97000000000003</ele>
        <time>2016-06-04T15:36:14Z</time>
      </trkpt>
      <trkpt lat="43.744315970689058" lon="11.919888742268085">
        <ele>551.45000000000005</ele>
        <time>2016-06-04T15:36:29Z</time>
      </trkpt>
      <trkpt lat="43.744393670931458" lon="11.920084459707141">
        <ele>551.92999999999995</ele>
        <time>2016-06-04T15:36:42Z</time>
      </trkpt>
      <trkpt lat="43.744452595710754" lon="11.920142127200961">
        <ele>551.92999999999995</ele>
        <time>2016-06-04T15:36:48Z</time>
      </trkpt>
      <trkpt lat="43.74456575140357" lon="11.920257126912475">
        <ele>553.38</ele>
        <time>2016-06-04T15:37:01Z</time>
      </trkpt>
      <trkpt lat="43.744649486616254" lon="11.920401714742184">
        <ele>553.86000000000001</ele>
        <time>2016-06-04T15:37:13Z</time>
      </trkpt>
      <trkpt lat="43.744663652032614" lon="11.920423842966557">
        <ele>553.86000000000001</ele>
        <time>2016-06-04T15:37:15Z</time>
      </trkpt>
      <trkpt lat="43.744750823825598" lon="11.920659290626645">
        <ele>553.86000000000001</ele>
        <time>2016-06-04T15:37:31Z</time>
      </trkpt>
      <trkpt lat="43.744804551824927" lon="11.920858528465033">
        <ele>553.86000000000001</ele>
        <time>2016-06-04T15:37:45Z</time>
      </trkpt>
      <trkpt lat="43.744897171854973" lon="11.921068076044321">
        <ele>553.86000000000001</ele>
        <time>2016-06-04T15:38:00Z</time>
      </trkpt>
      <trkpt lat="43.745008818805218" lon="11.921250717714429">
        <ele>554.34000000000003</ele>
        <time>2016-06-04T15:38:13Z</time>
      </trkpt>
      <trkpt lat="43.745104875415564" lon="11.921414500102401">
        <ele>554.34000000000003</ele>
        <time>2016-06-04T15:38:26Z</time>
      </trkpt>
      <trkpt lat="43.745210571214557" lon="11.921595465391874">
        <ele>554.34000000000003</ele>
        <time>2016-06-04T15:38:38Z</time>
      </trkpt>
      <trkpt lat="43.745299503207207" lon="11.921780621632934">
        <ele>554.34000000000003</ele>
        <time>2016-06-04T15:38:51Z</time>
      </trkpt>
      <trkpt lat="43.745369156822562" lon="11.92196661606431">
        <ele>554.82000000000005</ele>
        <time>2016-06-04T15:39:03Z</time>
      </trkpt>
      <trkpt lat="43.745488850399852" lon="11.922214888036251">
        <ele>553.86000000000001</ele>
        <time>2016-06-04T15:39:19Z</time>
      </trkpt>
      <trkpt lat="43.745596138760448" lon="11.922408426180482">
        <ele>553.86000000000001</ele>
        <time>2016-06-04T15:39:32Z</time>
      </trkpt>
      <trkpt lat="43.745627822354436" lon="11.922455448657274">
        <ele>553.38</ele>
        <time>2016-06-04T15:39:36Z</time>
      </trkpt>
      <trkpt lat="43.74566319398582" lon="11.922515127807856">
        <ele>553.38</ele>
        <time>2016-06-04T15:39:40Z</time>
      </trkpt>
      <trkpt lat="43.745795292779803" lon="11.922692405059934">
        <ele>552.89999999999998</ele>
        <time>2016-06-04T15:39:54Z</time>
      </trkpt>
      <trkpt lat="43.74597298912704" lon="11.922863814979792">
        <ele>552.40999999999997</ele>
        <time>2016-06-04T15:40:10Z</time>
      </trkpt>
      <trkpt lat="43.746112380176783" lon="11.922984346747398">
        <ele>551.92999999999995</ele>
        <time>2016-06-04T15:40:22Z</time>
      </trkpt>
      <trkpt lat="43.74623978510499" lon="11.923132035881281">
        <ele>551.45000000000005</ele>
        <time>2016-06-04T15:40:35Z</time>
      </trkpt>
      <trkpt lat="43.746369117870927" lon="11.923263380303979">
        <ele>551.45000000000005</ele>
        <time>2016-06-04T15:40:48Z</time>
      </trkpt>
      <trkpt lat="43.746446734294295" lon="11.923303864896297">
        <ele>551.45000000000005</ele>
        <time>2016-06-04T15:40:55Z</time>
      </trkpt>
      <trkpt lat="43.746468862518668" lon="11.923314845189452">
        <ele>551.45000000000005</ele>
        <time>2016-06-04T15:40:57Z</time>
      </trkpt>
      <trkpt lat="43.746645553037524" lon="11.923311911523342">
        <ele>551.45000000000005</ele>
        <time>2016-06-04T15:41:11Z</time>
      </trkpt>
      <trkpt lat="43.746790224686265" lon="11.923289112746716">
        <ele>551.45000000000005</ele>
        <time>2016-06-04T15:41:23Z</time>
      </trkpt>
      <trkpt lat="43.746897680684924" lon="11.923269666731358">
        <ele>551.45000000000005</ele>
        <time>2016-06-04T15:41:31Z</time>
      </trkpt>
      <trkpt lat="43.747015278786421" lon="11.92333621904254">
        <ele>551.45000000000005</ele>
        <time>2016-06-04T15:41:41Z</time>
      </trkpt>
      <trkpt lat="43.747073113918304" lon="11.923529673367739">
        <ele>550.97000000000003</ele>
        <time>2016-06-04T15:41:52Z</time>
      </trkpt>
      <trkpt lat="43.747106976807117" lon="11.923690354451537">
        <ele>550.49000000000001</ele>
        <time>2016-06-04T15:42:04Z</time>
      </trkpt>
      <trkpt lat="43.747058864682913" lon="11.92392798140645">
        <ele>548.57000000000005</ele>
        <time>2016-06-04T15:42:17Z</time>
      </trkpt>
      <trkpt lat="43.74696440063417" lon="11.92395681515336">
        <ele>548.09000000000003</ele>
        <time>2016-06-04T15:42:25Z</time>
      </trkpt>
      <trkpt lat="43.746917378157377" lon="11.923893447965384">
        <ele>548.09000000000003</ele>
        <time>2016-06-04T15:42:35Z</time>
      </trkpt>
      <trkpt lat="43.746914695948362" lon="11.923915995284915">
        <ele>547.13</ele>
        <time>2016-06-04T15:42:49Z</time>
      </trkpt>
      <trkpt lat="43.746912097558379" lon="11.923881461843848">
        <ele>546.64999999999998</ele>
        <time>2016-06-04T15:43:10Z</time>
      </trkpt>
      <trkpt lat="43.746922826394439" lon="11.92391037940979">
        <ele>547.13</ele>
        <time>2016-06-04T15:43:41Z</time>
      </trkpt>
      <trkpt lat="43.746945289894938" lon="11.923913145437837">
        <ele>547.13</ele>
        <time>2016-06-04T15:44:11Z</time>
      </trkpt>
      <trkpt lat="43.74694436788559" lon="11.923910714685917">
        <ele>547.13</ele>
        <time>2016-06-04T15:44:34Z</time>
      </trkpt>
      <trkpt lat="43.746925089508295" lon="11.923897219821811">
        <ele>547.13</ele>
        <time>2016-06-04T15:44:55Z</time>
      </trkpt>
      <trkpt lat="43.746913438662887" lon="11.923923790454865">
        <ele>546.64999999999998</ele>
        <time>2016-06-04T15:45:23Z</time>
      </trkpt>
      <trkpt lat="43.746950905770063" lon="11.923920521512628">
        <ele>547.13</ele>
        <time>2016-06-04T15:45:47Z</time>
      </trkpt>
      <trkpt lat="43.746949816122651" lon="11.923917252570391">
        <ele>546.64999999999998</ele>
        <time>2016-06-04T15:46:20Z</time>
      </trkpt>
      <trkpt lat="43.746931292116642" lon="11.923913480713964">
        <ele>547.13</ele>
        <time>2016-06-04T15:46:51Z</time>
      </trkpt>
      <trkpt lat="43.746922155842185" lon="11.923913145437837">
        <ele>547.13</ele>
        <time>2016-06-04T15:47:28Z</time>
      </trkpt>
      <trkpt lat="43.746909750625491" lon="11.923917755484581">
        <ele>546.64999999999998</ele>
        <time>2016-06-04T15:48:03Z</time>
      </trkpt>
      <trkpt lat="43.746911427006125" lon="11.923914151266217">
        <ele>546.64999999999998</ele>
        <time>2016-06-04T15:48:38Z</time>
      </trkpt>
      <trkpt lat="43.746933471411467" lon="11.923918006941676">
        <ele>547.13</ele>
        <time>2016-06-04T15:49:09Z</time>
      </trkpt>
      <trkpt lat="43.746938332915306" lon="11.923903003334999">
        <ele>547.13</ele>
        <time>2016-06-04T15:49:38Z</time>
      </trkpt>
      <trkpt lat="43.746939757838845" lon="11.923915660008788">
        <ele>546.64999999999998</ele>
        <time>2016-06-04T15:50:16Z</time>
      </trkpt>
      <trkpt lat="43.746916959062219" lon="11.923905853182077">
        <ele>546.64999999999998</ele>
        <time>2016-06-04T15:50:50Z</time>
      </trkpt>
      <trkpt lat="43.74691997654736" lon="11.923928400501609">
        <ele>546.64999999999998</ele>
        <time>2016-06-04T15:51:25Z</time>
      </trkpt>
      <trkpt lat="43.746943445876241" lon="11.923930747434497">
        <ele>547.13</ele>
        <time>2016-06-04T15:51:47Z</time>
      </trkpt>
      <trkpt lat="43.746938249096274" lon="11.923919096589088">
        <ele>547.13</ele>
        <time>2016-06-04T15:52:23Z</time>
      </trkpt>
      <trkpt lat="43.746939171105623" lon="11.923936111852527">
        <ele>546.64999999999998</ele>
        <time>2016-06-04T15:52:46Z</time>
      </trkpt>
      <trkpt lat="43.746925257146358" lon="11.923921192064881">
        <ele>546.64999999999998</ele>
        <time>2016-06-04T15:53:07Z</time>
      </trkpt>
      <trkpt lat="43.746899105608463" lon="11.923898560926318">
        <ele>546.64999999999998</ele>
        <time>2016-06-04T15:53:37Z</time>
      </trkpt>
      <trkpt lat="43.746936991810799" lon="11.923926724120975">
        <ele>546.64999999999998</ele>
        <time>2016-06-04T15:54:15Z</time>
      </trkpt>
      <trkpt lat="43.746937410905957" lon="11.92394114099443">
        <ele>546.64999999999998</ele>
        <time>2016-06-04T15:54:52Z</time>
      </trkpt>
      <trkpt lat="43.74692433513701" lon="11.923917252570391">
        <ele>546.16999999999996</ele>
        <time>2016-06-04T15:55:30Z</time>
      </trkpt>
      <trkpt lat="43.746920311823487" lon="11.923931837081909">
        <ele>546.16999999999996</ele>
        <time>2016-06-04T15:56:02Z</time>
      </trkpt>
      <trkpt lat="43.746905643492937" lon="11.923923538997769">
        <ele>546.16999999999996</ele>
        <time>2016-06-04T15:56:31Z</time>
      </trkpt>
      <trkpt lat="43.746917629614472" lon="11.923912139609456">
        <ele>545.69000000000005</ele>
        <time>2016-06-04T15:57:09Z</time>
      </trkpt>
      <trkpt lat="43.746921652927995" lon="11.923927562311292">
        <ele>545.69000000000005</ele>
        <time>2016-06-04T15:57:45Z</time>
      </trkpt>
      <trkpt lat="43.746905140578747" lon="11.92391968332231">
        <ele>545.20000000000005</ele>
        <time>2016-06-04T15:58:20Z</time>
      </trkpt>
      <trkpt lat="43.746928358450532" lon="11.923935189843178">
        <ele>545.69000000000005</ele>
        <time>2016-06-04T15:58:58Z</time>
      </trkpt>
      <trkpt lat="43.746917629614472" lon="11.923909373581409">
        <ele>545.69000000000005</ele>
        <time>2016-06-04T15:59:32Z</time>
      </trkpt>
      <trkpt lat="43.746941685676575" lon="11.923932339996099">
        <ele>545.20000000000005</ele>
        <time>2016-06-04T16:00:08Z</time>
      </trkpt>
      <trkpt lat="43.746937578544021" lon="11.923932926729321">
        <ele>545.20000000000005</ele>
        <time>2016-06-04T16:00:41Z</time>
      </trkpt>
      <trkpt lat="43.746926179155707" lon="11.9239167496562">
        <ele>545.20000000000005</ele>
        <time>2016-06-04T16:01:13Z</time>
      </trkpt>
      <trkpt lat="43.746925760060549" lon="11.923934854567051">
        <ele>545.20000000000005</ele>
        <time>2016-06-04T16:01:46Z</time>
      </trkpt>
      <trkpt lat="43.74693313613534" lon="11.923934016376734">
        <ele>545.20000000000005</ele>
        <time>2016-06-04T16:02:13Z</time>
      </trkpt>
      <trkpt lat="43.746929531916976" lon="11.923948852345347">
        <ele>544.72000000000003</ele>
        <time>2016-06-04T16:02:40Z</time>
      </trkpt>
      <trkpt lat="43.746927604079247" lon="11.923926891759038">
        <ele>544.72000000000003</ele>
        <time>2016-06-04T16:03:07Z</time>
      </trkpt>
      <trkpt lat="43.746914779767394" lon="11.923897806555033">
        <ele>544.72000000000003</ele>
        <time>2016-06-04T16:03:34Z</time>
      </trkpt>
      <trkpt lat="43.746905392035842" lon="11.923909373581409">
        <ele>544.72000000000003</ele>
        <time>2016-06-04T16:04:01Z</time>
      </trkpt>
      <trkpt lat="43.746908912435174" lon="11.923932926729321">
        <ele>544.72000000000003</ele>
        <time>2016-06-04T16:04:26Z</time>
      </trkpt>
      <trkpt lat="43.746915031224489" lon="11.923915157094598">
        <ele>544.72000000000003</ele>
        <time>2016-06-04T16:04:56Z</time>
      </trkpt>
      <trkpt lat="43.746937830001116" lon="11.923933764919639">
        <ele>544.72000000000003</ele>
        <time>2016-06-04T16:05:32Z</time>
      </trkpt>
      <trkpt lat="43.746933806687593" lon="11.923937201499939">
        <ele>544.72000000000003</ele>
        <time>2016-06-04T16:06:14Z</time>
      </trkpt>
      <trkpt lat="43.746929448097944" lon="11.923926053568721">
        <ele>544.72000000000003</ele>
        <time>2016-06-04T16:06:44Z</time>
      </trkpt>
      <trkpt lat="43.746928526088595" lon="11.923923790454865">
        <ele>544.24000000000001</ele>
        <time>2016-06-04T16:07:27Z</time>
      </trkpt>
      <trkpt lat="43.746910504996777" lon="11.923930579796433">
        <ele>544.24000000000001</ele>
        <time>2016-06-04T16:07:57Z</time>
      </trkpt>
      <trkpt lat="43.746902206912637" lon="11.923914067447186">
        <ele>544.24000000000001</ele>
        <time>2016-06-04T16:08:24Z</time>
      </trkpt>
      <trkpt lat="43.746910421177745" lon="11.923911971971393">
        <ele>544.24000000000001</ele>
        <time>2016-06-04T16:08:47Z</time>
      </trkpt>
      <trkpt lat="43.74690480530262" lon="11.923914989456534">
        <ele>544.24000000000001</ele>
        <time>2016-06-04T16:09:15Z</time>
      </trkpt>
      <trkpt lat="43.746919892728329" lon="11.923917336389422">
        <ele>544.24000000000001</ele>
        <time>2016-06-04T16:09:40Z</time>
      </trkpt>
      <trkpt lat="43.746901452541351" lon="11.923911552876234">
        <ele>544.24000000000001</ele>
        <time>2016-06-04T16:10:14Z</time>
      </trkpt>
      <trkpt lat="43.746918551623821" lon="11.923923371359706">
        <ele>544.24000000000001</ele>
        <time>2016-06-04T16:10:49Z</time>
      </trkpt>
      <trkpt lat="43.746914276853204" lon="11.923917587846518">
        <ele>544.24000000000001</ele>
        <time>2016-06-04T16:11:27Z</time>
      </trkpt>
      <trkpt lat="43.746909080073237" lon="11.923920353874564">
        <ele>544.24000000000001</ele>
        <time>2016-06-04T16:11:59Z</time>
      </trkpt>
      <trkpt lat="43.746907403692603" lon="11.923923622816801">
        <ele>544.24000000000001</ele>
        <time>2016-06-04T16:12:26Z</time>
      </trkpt>
      <trkpt lat="43.746906816959381" lon="11.923910714685917">
        <ele>544.24000000000001</ele>
        <time>2016-06-04T16:12:56Z</time>
      </trkpt>
      <trkpt lat="43.746925592422485" lon="11.923924963921309">
        <ele>544.24000000000001</ele>
        <time>2016-06-04T16:13:21Z</time>
      </trkpt>
      <trkpt lat="43.746928861364722" lon="11.923928484320641">
        <ele>544.24000000000001</ele>
        <time>2016-06-04T16:13:42Z</time>
      </trkpt>
      <trkpt lat="43.746920060366392" lon="11.92392697557807">
        <ele>544.72000000000003</ele>
        <time>2016-06-04T16:14:12Z</time>
      </trkpt>
      <trkpt lat="43.746927101165056" lon="11.923941392451525">
        <ele>544.72000000000003</ele>
        <time>2016-06-04T16:14:38Z</time>
      </trkpt>
      <trkpt lat="43.746918886899948" lon="11.923924712464213">
        <ele>544.24000000000001</ele>
        <time>2016-06-04T16:15:04Z</time>
      </trkpt>
      <trkpt lat="43.746925508603454" lon="11.923946002498269">
        <ele>544.24000000000001</ele>
        <time>2016-06-04T16:15:34Z</time>
      </trkpt>
      <trkpt lat="43.746915701776743" lon="11.923913983628154">
        <ele>544.24000000000001</ele>
        <time>2016-06-04T16:15:59Z</time>
      </trkpt>
      <trkpt lat="43.746919557452202" lon="11.923915408551693">
        <ele>544.24000000000001</ele>
        <time>2016-06-04T16:16:27Z</time>
      </trkpt>
      <trkpt lat="43.746912600472569" lon="11.923918928951025">
        <ele>544.24000000000001</ele>
        <time>2016-06-04T16:17:00Z</time>
      </trkpt>
      <trkpt lat="43.746899189427495" lon="11.923900153487921">
        <ele>545.20000000000005</ele>
        <time>2016-06-04T16:17:15Z</time>
      </trkpt>
      <trkpt lat="43.746913773939013" lon="11.923904176801443">
        <ele>544.72000000000003</ele>
        <time>2016-06-04T16:17:27Z</time>
      </trkpt>
      <trkpt lat="43.746915198862553" lon="11.923925802111626">
        <ele>544.24000000000001</ele>
        <time>2016-06-04T16:17:44Z</time>
      </trkpt>
      <trkpt lat="43.746908158063889" lon="11.923934435471892">
        <ele>543.75999999999999</ele>
        <time>2016-06-04T16:17:59Z</time>
      </trkpt>
      <trkpt lat="43.746900949627161" lon="11.923927646130323">
        <ele>545.20000000000005</ele>
        <time>2016-06-04T16:18:03Z</time>
      </trkpt>
      <trkpt lat="43.746913438662887" lon="11.923942649737">
        <ele>545.20000000000005</ele>
        <time>2016-06-04T16:18:12Z</time>
      </trkpt>
      <trkpt lat="43.746908912435174" lon="11.92392697557807">
        <ele>545.69000000000005</ele>
        <time>2016-06-04T16:18:22Z</time>
      </trkpt>
      <trkpt lat="43.746891897171736" lon="11.923891017213464">
        <ele>545.69000000000005</ele>
        <time>2016-06-04T16:18:36Z</time>
      </trkpt>
      <trkpt lat="43.746925760060549" lon="11.923942314460874">
        <ele>545.20000000000005</ele>
        <time>2016-06-04T16:18:49Z</time>
      </trkpt>
      <trkpt lat="43.746954845264554" lon="11.923944158479571">
        <ele>545.69000000000005</ele>
        <time>2016-06-04T16:18:52Z</time>
      </trkpt>
      <trkpt lat="43.747026678174734" lon="11.923974836245179">
        <ele>545.69000000000005</ele>
        <time>2016-06-04T16:18:59Z</time>
      </trkpt>
      <trkpt lat="43.747088452801108" lon="11.92382438108325">
        <ele>546.64999999999998</ele>
        <time>2016-06-04T16:19:14Z</time>
      </trkpt>
      <trkpt lat="43.747098008170724" lon="11.923670405521989">
        <ele>547.61000000000001</ele>
        <time>2016-06-04T16:19:25Z</time>
      </trkpt>
      <trkpt lat="43.747079065069556" lon="11.923484914004803">
        <ele>548.57000000000005</ele>
        <time>2016-06-04T16:19:37Z</time>
      </trkpt>
      <trkpt lat="43.747059535235167" lon="11.923392796888947">
        <ele>548.57000000000005</ele>
        <time>2016-06-04T16:19:44Z</time>
      </trkpt>
      <trkpt lat="43.747044950723648" lon="11.923260195180774">
        <ele>548.57000000000005</ele>
        <time>2016-06-04T16:19:57Z</time>
      </trkpt>
      <trkpt lat="43.74706506729126" lon="11.923176543787122">
        <ele>549.52999999999997</ele>
        <time>2016-06-04T16:20:09Z</time>
      </trkpt>
      <trkpt lat="43.74710219912231" lon="11.923108734190464">
        <ele>552.40999999999997</ele>
        <time>2016-06-04T16:20:25Z</time>
      </trkpt>
      <trkpt lat="43.747131787240505" lon="11.923049306496978">
        <ele>554.82000000000005</ele>
        <time>2016-06-04T16:20:38Z</time>
      </trkpt>
      <trkpt lat="43.747173026204109" lon="11.923007564619184">
        <ele>557.70000000000005</ele>
        <time>2016-06-04T16:20:53Z</time>
      </trkpt>
      <trkpt lat="43.747169673442841" lon="11.922945203259587">
        <ele>560.11000000000001</ele>
        <time>2016-06-04T16:21:07Z</time>
      </trkpt>
      <trkpt lat="43.747101360931993" lon="11.922990968450904">
        <ele>559.62</ele>
        <time>2016-06-04T16:21:19Z</time>
      </trkpt>
      <trkpt lat="43.747050566598773" lon="11.922959368675947">
        <ele>561.54999999999995</ele>
        <time>2016-06-04T16:21:32Z</time>
      </trkpt>
      <trkpt lat="43.746975045651197" lon="11.922922907397151">
        <ele>562.50999999999999</ele>
        <time>2016-06-04T16:21:44Z</time>
      </trkpt>
      <trkpt lat="43.746968507766724" lon="11.922917794436216">
        <ele>564.42999999999995</ele>
        <time>2016-06-04T16:21:46Z</time>
      </trkpt>
      <trkpt lat="43.746890891343355" lon="11.922879992052913">
        <ele>566.35000000000002</ele>
        <time>2016-06-04T16:21:59Z</time>
      </trkpt>
      <trkpt lat="43.746835989877582" lon="11.92287789657712">
        <ele>568.75999999999999</ele>
        <time>2016-06-04T16:22:10Z</time>
      </trkpt>
      <trkpt lat="43.746761223301291" lon="11.922880746424198">
        <ele>571.15999999999997</ele>
        <time>2016-06-04T16:22:22Z</time>
      </trkpt>
      <trkpt lat="43.746749656274915" lon="11.922904215753078">
        <ele>571.63999999999999</ele>
        <time>2016-06-04T16:22:37Z</time>
      </trkpt>
      <trkpt lat="43.746725935488939" lon="11.922918213531375">
        <ele>571.63999999999999</ele>
        <time>2016-06-04T16:22:47Z</time>
      </trkpt>
      <trkpt lat="43.746684696525335" lon="11.922899773344398">
        <ele>572.12</ele>
        <time>2016-06-04T16:23:05Z</time>
      </trkpt>
      <trkpt lat="43.746624598279595" lon="11.922857277095318">
        <ele>574.03999999999996</ele>
        <time>2016-06-04T16:23:16Z</time>
      </trkpt>
      <trkpt lat="43.746540443971753" lon="11.922818049788475">
        <ele>575.49000000000001</ele>
        <time>2016-06-04T16:23:26Z</time>
      </trkpt>
      <trkpt lat="43.74648948200047" lon="11.922752670943737">
        <ele>577.40999999999997</ele>
        <time>2016-06-04T16:23:36Z</time>
      </trkpt>
      <trkpt lat="43.746450925245881" lon="11.92270246334374">
        <ele>578.37</ele>
        <time>2016-06-04T16:23:49Z</time>
      </trkpt>
      <trkpt lat="43.746430557221174" lon="11.922634737566113">
        <ele>580.76999999999998</ele>
        <time>2016-06-04T16:24:00Z</time>
      </trkpt>
      <trkpt lat="43.74644597992301" lon="11.922577237710357">
        <ele>583.17999999999995</ele>
        <time>2016-06-04T16:24:11Z</time>
      </trkpt>
      <trkpt lat="43.746465342119336" lon="11.922512110322714">
        <ele>585.10000000000002</ele>
        <time>2016-06-04T16:24:22Z</time>
      </trkpt>
      <trkpt lat="43.746505491435528" lon="11.922446060925722">
        <ele>587.5</ele>
        <time>2016-06-04T16:24:34Z</time>
      </trkpt>
      <trkpt lat="43.746538599953055" lon="11.922390153631568">
        <ele>588.95000000000005</ele>
        <time>2016-06-04T16:24:44Z</time>
      </trkpt>
      <trkpt lat="43.74660431407392" lon="11.922317398712039">
        <ele>591.35000000000002</ele>
        <time>2016-06-04T16:24:57Z</time>
      </trkpt>
      <trkpt lat="43.746647229418159" lon="11.922260234132409">
        <ele>593.26999999999998</ele>
        <time>2016-06-04T16:25:06Z</time>
      </trkpt>
      <trkpt lat="43.746626609936357" lon="11.922238105908036">
        <ele>595.19000000000005</ele>
        <time>2016-06-04T16:25:17Z</time>
      </trkpt>
      <trkpt lat="43.746555363759398" lon="11.922248248010874">
        <ele>597.12</ele>
        <time>2016-06-04T16:25:28Z</time>
      </trkpt>
      <trkpt lat="43.746489062905312" lon="11.922223186120391">
        <ele>598.55999999999995</ele>
        <time>2016-06-04T16:25:38Z</time>
      </trkpt>
      <trkpt lat="43.746435167267919" lon="11.922164931893349">
        <ele>600.48000000000002</ele>
        <time>2016-06-04T16:25:49Z</time>
      </trkpt>
      <trkpt lat="43.746459642425179" lon="11.922095948830247">
        <ele>601.91999999999996</ele>
        <time>2016-06-04T16:25:57Z</time>
      </trkpt>
      <trkpt lat="43.746485877782106" lon="11.922074658796191">
        <ele>601.91999999999996</ele>
        <time>2016-06-04T16:26:00Z</time>
      </trkpt>
      <trkpt lat="43.746563494205475" lon="11.922013470903039">
        <ele>603.36000000000001</ele>
        <time>2016-06-04T16:26:13Z</time>
      </trkpt>
      <trkpt lat="43.746618898585439" lon="11.921942643821239">
        <ele>605.28999999999996</ele>
        <time>2016-06-04T16:26:24Z</time>
      </trkpt>
      <trkpt lat="43.746676063165069" lon="11.92187475040555">
        <ele>607.69000000000005</ele>
        <time>2016-06-04T16:26:38Z</time>
      </trkpt>
      <trkpt lat="43.746706824749708" lon="11.921827392652631">
        <ele>609.13</ele>
        <time>2016-06-04T16:26:50Z</time>
      </trkpt>
      <trkpt lat="43.746751332655549" lon="11.921757319942117">
        <ele>611.05999999999995</ele>
        <time>2016-06-04T16:27:01Z</time>
      </trkpt>
      <trkpt lat="43.74679047614336" lon="11.921692192554474">
        <ele>612.01999999999998</ele>
        <time>2016-06-04T16:27:12Z</time>
      </trkpt>
      <trkpt lat="43.746771700680256" lon="11.92163972184062">
        <ele>612.01999999999998</ele>
        <time>2016-06-04T16:27:33Z</time>
      </trkpt>
      <trkpt lat="43.746777148917317" lon="11.921618431806564">
        <ele>612.01999999999998</ele>
        <time>2016-06-04T16:27:47Z</time>
      </trkpt>
      <trkpt lat="43.746815789490938" lon="11.921578198671341">
        <ele>612.98000000000002</ele>
        <time>2016-06-04T16:28:00Z</time>
      </trkpt>
      <trkpt lat="43.746848395094275" lon="11.921558333560824">
        <ele>613.46000000000004</ele>
        <time>2016-06-04T16:28:12Z</time>
      </trkpt>
      <trkpt lat="43.746856609359384" lon="11.921514663845301">
        <ele>613.94000000000005</ele>
        <time>2016-06-04T16:28:36Z</time>
      </trkpt>
      <trkpt lat="43.746917461976409" lon="11.921429000794888">
        <ele>615.86000000000001</ele>
        <time>2016-06-04T16:28:50Z</time>
      </trkpt>
      <trkpt lat="43.746947133913636" lon="11.921332608908415">
        <ele>617.77999999999997</ele>
        <time>2016-06-04T16:29:02Z</time>
      </trkpt>
      <trkpt lat="43.746957527473569" lon="11.921249041333795">
        <ele>619.71000000000004</ele>
        <time>2016-06-04T16:29:12Z</time>
      </trkpt>
      <trkpt lat="43.746967418119311" lon="11.921147117391229">
        <ele>621.14999999999998</ele>
        <time>2016-06-04T16:29:23Z</time>
      </trkpt>
      <trkpt lat="43.746998431161046" lon="11.921029267832637">
        <ele>623.07000000000005</ele>
        <time>2016-06-04T16:29:34Z</time>
      </trkpt>
      <trkpt lat="43.747004214674234" lon="11.921011749655008">
        <ele>623.54999999999995</ele>
        <time>2016-06-04T16:29:37Z</time>
      </trkpt>
      <trkpt lat="43.747034054249525" lon="11.920910160988569">
        <ele>625.47000000000003</ele>
        <time>2016-06-04T16:29:49Z</time>
      </trkpt>
      <trkpt lat="43.747074203565717" lon="11.920804549008608">
        <ele>628.84000000000003</ele>
        <time>2016-06-04T16:30:03Z</time>
      </trkpt>
      <trkpt lat="43.747089877724648" lon="11.920759622007608">
        <ele>629.79999999999995</ele>
        <time>2016-06-04T16:30:08Z</time>
      </trkpt>
      <trkpt lat="43.747077137231827" lon="11.920657362788916">
        <ele>633.16999999999996</ele>
        <time>2016-06-04T16:30:18Z</time>
      </trkpt>
      <trkpt lat="43.747075041756034" lon="11.920580333098769">
        <ele>634.61000000000001</ele>
        <time>2016-06-04T16:30:30Z</time>
      </trkpt>
      <trkpt lat="43.747051320970058" lon="11.920512858778238">
        <ele>636.52999999999997</ele>
        <time>2016-06-04T16:30:42Z</time>
      </trkpt>
      <trkpt lat="43.747049812227488" lon="11.92045334726572">
        <ele>637.97000000000003</ele>
        <time>2016-06-04T16:30:51Z</time>
      </trkpt>
      <trkpt lat="43.747065402567387" lon="11.92042937502265">
        <ele>637.49000000000001</ele>
        <time>2016-06-04T16:31:01Z</time>
      </trkpt>
      <trkpt lat="43.74707437120378" lon="11.920364918187261">
        <ele>638.45000000000005</ele>
        <time>2016-06-04T16:31:15Z</time>
      </trkpt>
      <trkpt lat="43.747079903259873" lon="11.920320158824325">
        <ele>638.45000000000005</ele>
        <time>2016-06-04T16:31:20Z</time>
      </trkpt>
      <trkpt lat="43.747133882716298" lon="11.920234831050038">
        <ele>638.92999999999995</ele>
        <time>2016-06-04T16:31:32Z</time>
      </trkpt>
      <trkpt lat="43.747173193842173" lon="11.920141624286771">
        <ele>641.82000000000005</ele>
        <time>2016-06-04T16:31:42Z</time>
      </trkpt>
      <trkpt lat="43.747200183570385" lon="11.920079011470079">
        <ele>643.25999999999999</ele>
        <time>2016-06-04T16:31:49Z</time>
      </trkpt>
      <trkpt lat="43.747230023145676" lon="11.919958982616663">
        <ele>644.70000000000005</ele>
        <time>2016-06-04T16:31:59Z</time>
      </trkpt>
      <trkpt lat="43.74726003035903" lon="11.919887904077768">
        <ele>646.62</ele>
        <time>2016-06-04T16:32:07Z</time>
      </trkpt>
      <trkpt lat="43.747295821085572" lon="11.919769551604986">
        <ele>648.07000000000005</ele>
        <time>2016-06-04T16:32:18Z</time>
      </trkpt>
      <trkpt lat="43.747331025078893" lon="11.919677769765258">
        <ele>649.99000000000001</ele>
        <time>2016-06-04T16:32:28Z</time>
      </trkpt>
      <trkpt lat="43.747343430295587" lon="11.919582551345229">
        <ele>650.95000000000005</ele>
        <time>2016-06-04T16:32:36Z</time>
      </trkpt>
      <trkpt lat="43.747344519942999" lon="11.919509880244732">
        <ele>652.38999999999999</ele>
        <time>2016-06-04T16:32:43Z</time>
      </trkpt>
      <trkpt lat="43.747343933209777" lon="11.919473586603999">
        <ele>652.87</ele>
        <time>2016-06-04T16:32:46Z</time>
      </trkpt>
      <trkpt lat="43.747342592105269" lon="11.919312905520201">
        <ele>655.27999999999997</ele>
        <time>2016-06-04T16:32:59Z</time>
      </trkpt>
      <trkpt lat="43.747349381446838" lon="11.919226823374629">
        <ele>656.24000000000001</ele>
        <time>2016-06-04T16:33:06Z</time>
      </trkpt>
      <trkpt lat="43.747369749471545" lon="11.919099586084485">
        <ele>658.15999999999997</ele>
        <time>2016-06-04T16:33:17Z</time>
      </trkpt>
      <trkpt lat="43.747373018413782" lon="11.919086677953601">
        <ele>658.15999999999997</ele>
        <time>2016-06-04T16:33:18Z</time>
      </trkpt>
      <trkpt lat="43.747388105839491" lon="11.919065304100513">
        <ele>658.63999999999999</ele>
        <time>2016-06-04T16:33:20Z</time>
      </trkpt>
      <trkpt lat="43.747426327317953" lon="11.918956758454442">
        <ele>659.60000000000002</ele>
        <time>2016-06-04T16:33:29Z</time>
      </trkpt>
      <trkpt lat="43.747446946799755" lon="11.918892050161958">
        <ele>660.08000000000004</ele>
        <time>2016-06-04T16:33:34Z</time>
      </trkpt>
      <trkpt lat="43.747455161064863" lon="11.918868497014046">
        <ele>660.55999999999995</ele>
        <time>2016-06-04T16:33:36Z</time>
      </trkpt>
      <trkpt lat="43.747505536302924" lon="11.918749054893851">
        <ele>661.51999999999998</ele>
        <time>2016-06-04T16:33:46Z</time>
      </trkpt>
      <trkpt lat="43.747550128027797" lon="11.918626092374325">
        <ele>662.49000000000001</ele>
        <time>2016-06-04T16:33:56Z</time>
      </trkpt>
      <trkpt lat="43.747607376426458" lon="11.918540932238102">
        <ele>663.92999999999995</ele>
        <time>2016-06-04T16:34:06Z</time>
      </trkpt>
      <trkpt lat="43.747652135789394" lon="11.918511763215065">
        <ele>664.88999999999999</ele>
        <time>2016-06-04T16:34:11Z</time>
      </trkpt>
      <trkpt lat="43.747723465785384" lon="11.918443283066154">
        <ele>668.25</ele>
        <time>2016-06-04T16:34:21Z</time>
      </trkpt>
      <trkpt lat="43.747747773304582" lon="11.918397098779678">
        <ele>668.25</ele>
        <time>2016-06-04T16:34:27Z</time>
      </trkpt>
      <trkpt lat="43.7477882578969" lon="11.91834487952292">
        <ele>668.73000000000002</ele>
        <time>2016-06-04T16:34:33Z</time>
      </trkpt>
      <trkpt lat="43.747816504910588" lon="11.918298527598381">
        <ele>670.17999999999995</ele>
        <time>2016-06-04T16:34:39Z</time>
      </trkpt>
      <trkpt lat="43.747834777459502" lon="11.918266676366329">
        <ele>670.65999999999997</ele>
        <time>2016-06-04T16:34:42Z</time>
      </trkpt>
      <trkpt lat="43.74790258705616" lon="11.918144300580025">
        <ele>672.10000000000002</ele>
        <time>2016-06-04T16:34:53Z</time>
      </trkpt>
      <trkpt lat="43.747926307842135" lon="11.918103899806738">
        <ele>673.05999999999995</ele>
        <time>2016-06-04T16:34:57Z</time>
      </trkpt>
      <trkpt lat="43.74793728813529" lon="11.918082777410746">
        <ele>673.05999999999995</ele>
        <time>2016-06-04T16:34:59Z</time>
      </trkpt>
      <trkpt lat="43.747961679473519" lon="11.918063247576356">
        <ele>673.53999999999996</ele>
        <time>2016-06-04T16:35:02Z</time>
      </trkpt>
      <trkpt lat="43.748033763840795" lon="11.917950008064508">
        <ele>674.98000000000002</ele>
        <time>2016-06-04T16:35:13Z</time>
      </trkpt>
      <trkpt lat="43.748119426891208" lon="11.917878426611423">
        <ele>676.41999999999996</ele>
        <time>2016-06-04T16:35:24Z</time>
      </trkpt>
      <trkpt lat="43.748201401904225" lon="11.917834337800741">
        <ele>677.87</ele>
        <time>2016-06-04T16:35:35Z</time>
      </trkpt>
      <trkpt lat="43.748281197622418" lon="11.917767366394401">
        <ele>679.78999999999996</ele>
        <time>2016-06-04T16:35:45Z</time>
      </trkpt>
      <trkpt lat="43.748347666114569" lon="11.917687654495239">
        <ele>680.75</ele>
        <time>2016-06-04T16:35:55Z</time>
      </trkpt>
      <trkpt lat="43.748426958918571" lon="11.917628226801753">
        <ele>682.66999999999996</ele>
        <time>2016-06-04T16:36:06Z</time>
      </trkpt>
      <trkpt lat="43.748499127104878" lon="11.917568296194077">
        <ele>684.60000000000002</ele>
        <time>2016-06-04T16:36:16Z</time>
      </trkpt>
      <trkpt lat="43.748511532321572" lon="11.917554382234812">
        <ele>685.08000000000004</ele>
        <time>2016-06-04T16:36:18Z</time>
      </trkpt>
      <trkpt lat="43.748559560626745" lon="11.917487327009439">
        <ele>686.51999999999998</ele>
        <time>2016-06-04T16:36:27Z</time>
      </trkpt>
      <trkpt lat="43.748642541468143" lon="11.91745463758707">
        <ele>687.96000000000004</ele>
        <time>2016-06-04T16:36:37Z</time>
      </trkpt>
      <trkpt lat="43.748734407126904" lon="11.917462181299925">
        <ele>689.88</ele>
        <time>2016-06-04T16:36:49Z</time>
      </trkpt>
      <trkpt lat="43.74884563498199" lon="11.917537031695247">
        <ele>691.33000000000004</ele>
        <time>2016-06-04T16:36:59Z</time>
      </trkpt>
      <trkpt lat="43.748933309689164" lon="11.917557399719954">
        <ele>693.25</ele>
        <time>2016-06-04T16:37:10Z</time>
      </trkpt>
      <trkpt lat="43.749038334935904" lon="11.917524207383394">
        <ele>694.69000000000005</ele>
        <time>2016-06-04T16:37:22Z</time>
      </trkpt>
      <trkpt lat="43.749093990772963" lon="11.917490931227803">
        <ele>695.64999999999998</ele>
        <time>2016-06-04T16:37:29Z</time>
      </trkpt>
      <trkpt lat="43.749191556125879" lon="11.917421780526638">
        <ele>697.09000000000003</ele>
        <time>2016-06-04T16:37:42Z</time>
      </trkpt>
      <trkpt lat="43.749250145629048" lon="11.917323544621468">
        <ele>698.04999999999995</ele>
        <time>2016-06-04T16:37:51Z</time>
      </trkpt>
      <trkpt lat="43.74925559386611" lon="11.917195217683911">
        <ele>697.09000000000003</ele>
        <time>2016-06-04T16:38:01Z</time>
      </trkpt>
      <trkpt lat="43.749241679906845" lon="11.917133694514632">
        <ele>699.5</ele>
        <time>2016-06-04T16:38:06Z</time>
      </trkpt>
      <trkpt lat="43.749158028513193" lon="11.917018024250865">
        <ele>699.5</ele>
        <time>2016-06-04T16:38:18Z</time>
      </trkpt>
      <trkpt lat="43.749064318835735" lon="11.916923560202122">
        <ele>701.89999999999998</ele>
        <time>2016-06-04T16:38:31Z</time>
      </trkpt>
      <trkpt lat="43.749059792608023" lon="11.916914591565728">
        <ele>701.89999999999998</ele>
        <time>2016-06-04T16:38:32Z</time>
      </trkpt>
      <trkpt lat="43.749018805101514" lon="11.916770003736019">
        <ele>703.34000000000003</ele>
        <time>2016-06-04T16:38:44Z</time>
      </trkpt>
      <trkpt lat="43.749074963852763" lon="11.916626337915659">
        <ele>705.25999999999999</ele>
        <time>2016-06-04T16:38:57Z</time>
      </trkpt>
      <trkpt lat="43.749102624133229" lon="11.916551990434527">
        <ele>705.75</ele>
        <time>2016-06-04T16:39:03Z</time>
      </trkpt>
      <trkpt lat="43.749125003814697" lon="11.916530365124345">
        <ele>706.23000000000002</ele>
        <time>2016-06-04T16:39:06Z</time>
      </trkpt>
      <trkpt lat="43.749225670471787" lon="11.916466830298305">
        <ele>708.14999999999998</ele>
        <time>2016-06-04T16:39:19Z</time>
      </trkpt>
      <trkpt lat="43.749264059588313" lon="11.916373707354069">
        <ele>710.07000000000005</ele>
        <time>2016-06-04T16:39:28Z</time>
      </trkpt>
      <trkpt lat="43.749266993254423" lon="11.916364822536707">
        <ele>710.07000000000005</ele>
        <time>2016-06-04T16:39:29Z</time>
      </trkpt>
      <trkpt lat="43.749273447319865" lon="11.916305897757411">
        <ele>710.54999999999995</ele>
        <time>2016-06-04T16:39:34Z</time>
      </trkpt>
      <trkpt lat="43.749274201691151" lon="11.916265496984124">
        <ele>711.02999999999997</ele>
        <time>2016-06-04T16:39:37Z</time>
      </trkpt>
      <trkpt lat="43.749280655756593" lon="11.916232723742723">
        <ele>711.50999999999999</ele>
        <time>2016-06-04T16:39:40Z</time>
      </trkpt>
      <trkpt lat="43.749316614121199" lon="11.916068606078625">
        <ele>712.47000000000003</ele>
        <time>2016-06-04T16:39:52Z</time>
      </trkpt>
      <trkpt lat="43.749333461746573" lon="11.915977327153087">
        <ele>712.95000000000005</ele>
        <time>2016-06-04T16:40:00Z</time>
      </trkpt>
      <trkpt lat="43.749363552778959" lon="11.915983278304338">
        <ele>713.91999999999996</ele>
        <time>2016-06-04T16:40:10Z</time>
      </trkpt>
      <trkpt lat="43.749379813671112" lon="11.915949666872621">
        <ele>713.91999999999996</ele>
        <time>2016-06-04T16:40:24Z</time>
      </trkpt>
      <trkpt lat="43.749403199180961" lon="11.915891245007515">
        <ele>714.39999999999998</ele>
        <time>2016-06-04T16:40:34Z</time>
      </trkpt>
      <trkpt lat="43.749458352103829" lon="11.915777502581477">
        <ele>715.84000000000003</ele>
        <time>2016-06-04T16:40:47Z</time>
      </trkpt>
      <trkpt lat="43.749487102031708" lon="11.915654456242919">
        <ele>717.27999999999997</ele>
        <time>2016-06-04T16:41:00Z</time>
      </trkpt>
      <trkpt lat="43.749529849737883" lon="11.915523866191506">
        <ele>719.20000000000005</ele>
        <time>2016-06-04T16:41:12Z</time>
      </trkpt>
      <trkpt lat="43.749567987397313" lon="11.915440801531076">
        <ele>720.64999999999998</ele>
        <time>2016-06-04T16:41:21Z</time>
      </trkpt>
      <trkpt lat="43.749592127278447" lon="11.915318090468645">
        <ele>721.61000000000001</ele>
        <time>2016-06-04T16:41:32Z</time>
      </trkpt>
      <trkpt lat="43.749615345150232" lon="11.915195714682341">
        <ele>722.57000000000005</ele>
        <time>2016-06-04T16:41:42Z</time>
      </trkpt>
      <trkpt lat="43.749629510566592" lon="11.915019694715738">
        <ele>723.04999999999995</ele>
        <time>2016-06-04T16:41:53Z</time>
      </trkpt>
      <trkpt lat="43.749665888026357" lon="11.914909053593874">
        <ele>722.57000000000005</ele>
        <time>2016-06-04T16:42:02Z</time>
      </trkpt>
      <trkpt lat="43.749709641560912" lon="11.91482188180089">
        <ele>722.09000000000003</ele>
        <time>2016-06-04T16:42:09Z</time>
      </trkpt>
      <trkpt lat="43.749747863039374" lon="11.914757257327437">
        <ele>721.61000000000001</ele>
        <time>2016-06-04T16:42:14Z</time>
      </trkpt>
      <trkpt lat="43.749755658209324" lon="11.914730099961162">
        <ele>721.61000000000001</ele>
        <time>2016-06-04T16:42:16Z</time>
      </trkpt>
      <trkpt lat="43.749820617958903" lon="11.914599174633622">
        <ele>721.13</ele>
        <time>2016-06-04T16:42:29Z</time>
      </trkpt>
      <trkpt lat="43.749842410907149" lon="11.914472691714764">
        <ele>720.64999999999998</ele>
        <time>2016-06-04T16:42:41Z</time>
      </trkpt>
      <trkpt lat="43.749854480847716" lon="11.914272112771869">
        <ele>719.67999999999995</ele>
        <time>2016-06-04T16:42:54Z</time>
      </trkpt>
      <trkpt lat="43.749845763668418" lon="11.914046220481396">
        <ele>718.72000000000003</ele>
        <time>2016-06-04T16:43:09Z</time>
      </trkpt>
      <trkpt lat="43.749888930469751" lon="11.913830637931824">
        <ele>717.75999999999999</ele>
        <time>2016-06-04T16:43:23Z</time>
      </trkpt>
      <trkpt lat="43.749914243817329" lon="11.913706585764885">
        <ele>716.32000000000005</ele>
        <time>2016-06-04T16:43:31Z</time>
      </trkpt>
      <trkpt lat="43.749964032322168" lon="11.913500474765897">
        <ele>715.36000000000001</ele>
        <time>2016-06-04T16:43:44Z</time>
      </trkpt>
      <trkpt lat="43.750017005950212" lon="11.913323616608977">
        <ele>714.39999999999998</ele>
        <time>2016-06-04T16:43:56Z</time>
      </trkpt>
      <trkpt lat="43.750013653188944" lon="11.913293609395623">
        <ele>714.39999999999998</ele>
        <time>2016-06-04T16:43:58Z</time>
      </trkpt>
      <trkpt lat="43.75001784414053" lon="11.913083726540208">
        <ele>714.39999999999998</ele>
        <time>2016-06-04T16:44:11Z</time>
      </trkpt>
      <trkpt lat="43.750019352883101" lon="11.9130305852741">
        <ele>714.39999999999998</ele>
        <time>2016-06-04T16:44:15Z</time>
      </trkpt>
      <trkpt lat="43.749961601570249" lon="11.912850541993976">
        <ele>714.88</ele>
        <time>2016-06-04T16:44:29Z</time>
      </trkpt>
      <trkpt lat="43.749928660690784" lon="11.912700841203332">
        <ele>716.32000000000005</ele>
        <time>2016-06-04T16:44:41Z</time>
      </trkpt>
      <trkpt lat="43.749921284615993" lon="11.912520211189985">
        <ele>716.79999999999995</ele>
        <time>2016-06-04T16:44:52Z</time>
      </trkpt>
      <trkpt lat="43.749927571043372" lon="11.912492550909519">
        <ele>717.27999999999997</ele>
        <time>2016-06-04T16:44:54Z</time>
      </trkpt>
      <trkpt lat="43.749938383698463" lon="11.912452317774296">
        <ele>717.75999999999999</ele>
        <time>2016-06-04T16:44:57Z</time>
      </trkpt>
      <trkpt lat="43.749959254637361" lon="11.912257354706526">
        <ele>716.79999999999995</ele>
        <time>2016-06-04T16:45:09Z</time>
      </trkpt>
      <trkpt lat="43.750007785856724" lon="11.912079993635416">
        <ele>716.32000000000005</ele>
        <time>2016-06-04T16:45:20Z</time>
      </trkpt>
      <trkpt lat="43.750104764476418" lon="11.911946637555957">
        <ele>716.32000000000005</ele>
        <time>2016-06-04T16:45:31Z</time>
      </trkpt>
      <trkpt lat="43.750122534111142" lon="11.911906823515892">
        <ele>716.79999999999995</ele>
        <time>2016-06-04T16:45:34Z</time>
      </trkpt>
      <trkpt lat="43.750127647072077" lon="11.911793081089854">
        <ele>717.27999999999997</ele>
        <time>2016-06-04T16:45:42Z</time>
      </trkpt>
      <trkpt lat="43.750072997063398" lon="11.911621587350965">
        <ele>718.72000000000003</ele>
        <time>2016-06-04T16:45:56Z</time>
      </trkpt>
      <trkpt lat="43.750012731179595" lon="11.911515640094876">
        <ele>720.64999999999998</ele>
        <time>2016-06-04T16:46:08Z</time>
      </trkpt>
      <trkpt lat="43.749989597126842" lon="11.911451769992709">
        <ele>721.61000000000001</ele>
        <time>2016-06-04T16:46:14Z</time>
      </trkpt>
      <trkpt lat="43.749945675954223" lon="11.911316653713584">
        <ele>723.04999999999995</ele>
        <time>2016-06-04T16:46:26Z</time>
      </trkpt>
      <trkpt lat="43.749941065907478" lon="11.911308690905571">
        <ele>722.57000000000005</ele>
        <time>2016-06-04T16:46:27Z</time>
      </trkpt>
      <trkpt lat="43.749864287674427" lon="11.911182207986712">
        <ele>724.00999999999999</ele>
        <time>2016-06-04T16:46:38Z</time>
      </trkpt>
      <trkpt lat="43.749816007912159" lon="11.911075925454497">
        <ele>724.97000000000003</ele>
        <time>2016-06-04T16:46:47Z</time>
      </trkpt>
      <trkpt lat="43.749724812805653" lon="11.910984814167023">
        <ele>725.92999999999995</ele>
        <time>2016-06-04T16:46:59Z</time>
      </trkpt>
      <trkpt lat="43.749639904126525" lon="11.910920105874538">
        <ele>728.34000000000003</ele>
        <time>2016-06-04T16:47:10Z</time>
      </trkpt>
      <trkpt lat="43.749573351815343" lon="11.910853050649166">
        <ele>729.77999999999997</ele>
        <time>2016-06-04T16:47:20Z</time>
      </trkpt>
      <trkpt lat="43.749554743990302" lon="11.910824468359351">
        <ele>729.77999999999997</ele>
        <time>2016-06-04T16:47:23Z</time>
      </trkpt>
      <trkpt lat="43.749536639079452" lon="11.910731261596084">
        <ele>729.77999999999997</ele>
        <time>2016-06-04T16:47:34Z</time>
      </trkpt>
      <trkpt lat="43.749479055404663" lon="11.910625817254186">
        <ele>729.77999999999997</ele>
        <time>2016-06-04T16:47:42Z</time>
      </trkpt>
      <trkpt lat="43.749437732622027" lon="11.910429680719972">
        <ele>728.34000000000003</ele>
        <time>2016-06-04T16:47:55Z</time>
      </trkpt>
      <trkpt lat="43.749350477010012" lon="11.910286517813802">
        <ele>727.86000000000001</ele>
        <time>2016-06-04T16:48:07Z</time>
      </trkpt>
      <trkpt lat="43.749315021559596" lon="11.910205129534006">
        <ele>727.37</ele>
        <time>2016-06-04T16:48:16Z</time>
      </trkpt>
      <trkpt lat="43.749254923313856" lon="11.910144193097949">
        <ele>727.37</ele>
        <time>2016-06-04T16:48:24Z</time>
      </trkpt>
      <trkpt lat="43.749156435951591" lon="11.910041347146034">
        <ele>727.86000000000001</ele>
        <time>2016-06-04T16:48:35Z</time>
      </trkpt>
      <trkpt lat="43.749082172289491" lon="11.909941015765071">
        <ele>729.29999999999995</ele>
        <time>2016-06-04T16:48:46Z</time>
      </trkpt>
      <trkpt lat="43.749034311622381" lon="11.909880582243204">
        <ele>730.25999999999999</ele>
        <time>2016-06-04T16:48:54Z</time>
      </trkpt>
      <trkpt lat="43.748963149264455" lon="11.909765666350722">
        <ele>731.70000000000005</ele>
        <time>2016-06-04T16:49:05Z</time>
      </trkpt>
      <trkpt lat="43.748898105695844" lon="11.909647900611162">
        <ele>733.62</ele>
        <time>2016-06-04T16:49:17Z</time>
      </trkpt>
      <trkpt lat="43.748855106532574" lon="11.90957204438746">
        <ele>735.07000000000005</ele>
        <time>2016-06-04T16:49:25Z</time>
      </trkpt>
      <trkpt lat="43.748859046027064" lon="11.909505911171436">
        <ele>735.07000000000005</ele>
        <time>2016-06-04T16:49:28Z</time>
      </trkpt>
      <trkpt lat="43.748867930844426" lon="11.909457379952073">
        <ele>735.54999999999995</ele>
        <time>2016-06-04T16:49:31Z</time>
      </trkpt>
      <trkpt lat="43.748926520347595" lon="11.909324023872614">
        <ele>734.10000000000002</ele>
        <time>2016-06-04T16:49:41Z</time>
      </trkpt>
      <trkpt lat="43.749022828415036" lon="11.909209610894322">
        <ele>732.65999999999997</ele>
        <time>2016-06-04T16:49:52Z</time>
      </trkpt>
      <trkpt lat="43.749082256108522" lon="11.909152194857597">
        <ele>732.17999999999995</ele>
        <time>2016-06-04T16:49:58Z</time>
      </trkpt>
      <trkpt lat="43.7491300329566" lon="11.909081535413861">
        <ele>732.65999999999997</ele>
        <time>2016-06-04T16:50:04Z</time>
      </trkpt>
      <trkpt lat="43.749183425679803" lon="11.909046834334731">
        <ele>732.65999999999997</ele>
        <time>2016-06-04T16:50:09Z</time>
      </trkpt>
      <trkpt lat="43.749273363500834" lon="11.908997129648924">
        <ele>732.17999999999995</ele>
        <time>2016-06-04T16:50:17Z</time>
      </trkpt>
      <trkpt lat="43.749325666576624" lon="11.908934516832232">
        <ele>731.70000000000005</ele>
        <time>2016-06-04T16:50:23Z</time>
      </trkpt>
      <trkpt lat="43.749339748173952" lon="11.908907108008862">
        <ele>731.22000000000003</ele>
        <time>2016-06-04T16:50:25Z</time>
      </trkpt>
      <trkpt lat="43.749426500871778" lon="11.908839801326394">
        <ele>730.74000000000001</ele>
        <time>2016-06-04T16:50:34Z</time>
      </trkpt>
      <trkpt lat="43.749448293820024" lon="11.908812811598182">
        <ele>730.25999999999999</ele>
        <time>2016-06-04T16:50:37Z</time>
      </trkpt>
      <trkpt lat="43.749472936615348" lon="11.908803507685661">
        <ele>730.74000000000001</ele>
        <time>2016-06-04T16:50:39Z</time>
      </trkpt>
      <trkpt lat="43.7495306879282" lon="11.908823540434241">
        <ele>730.74000000000001</ele>
        <time>2016-06-04T16:50:44Z</time>
      </trkpt>
      <trkpt lat="43.749631270766258" lon="11.908766208216548">
        <ele>731.70000000000005</ele>
        <time>2016-06-04T16:50:53Z</time>
      </trkpt>
      <trkpt lat="43.749652225524187" lon="11.908736787736416">
        <ele>732.17999999999995</ele>
        <time>2016-06-04T16:50:56Z</time>
      </trkpt>
      <trkpt lat="43.749721543863416" lon="11.9086011685431">
        <ele>733.13999999999999</ele>
        <time>2016-06-04T16:51:07Z</time>
      </trkpt>
      <trkpt lat="43.749777534976602" lon="11.908532017841935">
        <ele>733.13999999999999</ele>
        <time>2016-06-04T16:51:14Z</time>
      </trkpt>
      <trkpt lat="43.749851211905479" lon="11.908454988151789">
        <ele>732.17999999999995</ele>
        <time>2016-06-04T16:51:24Z</time>
      </trkpt>
      <trkpt lat="43.749945759773254" lon="11.908392207697034">
        <ele>731.70000000000005</ele>
        <time>2016-06-04T16:51:33Z</time>
      </trkpt>
      <trkpt lat="43.750050198286772" lon="11.908305790275335">
        <ele>730.74000000000001</ele>
        <time>2016-06-04T16:51:44Z</time>
      </trkpt>
      <trkpt lat="43.750122701749206" lon="11.908209146931767">
        <ele>729.77999999999997</ele>
        <time>2016-06-04T16:51:53Z</time>
      </trkpt>
      <trkpt lat="43.750172071158886" lon="11.908136643469334">
        <ele>728.82000000000005</ele>
        <time>2016-06-04T16:51:59Z</time>
      </trkpt>
      <trkpt lat="43.75022504478693" lon="11.90797763876617">
        <ele>727.86000000000001</ele>
        <time>2016-06-04T16:52:10Z</time>
      </trkpt>
      <trkpt lat="43.750184727832675" lon="11.907799020409584">
        <ele>728.34000000000003</ele>
        <time>2016-06-04T16:52:21Z</time>
      </trkpt>
      <trkpt lat="43.750190427526832" lon="11.907568434253335">
        <ele>728.82000000000005</ele>
        <time>2016-06-04T16:52:35Z</time>
      </trkpt>
      <trkpt lat="43.750185985118151" lon="11.907477155327797">
        <ele>728.82000000000005</ele>
        <time>2016-06-04T16:52:46Z</time>
      </trkpt>
      <trkpt lat="43.750178692862391" lon="11.907472880557179">
        <ele>728.82000000000005</ele>
        <time>2016-06-04T16:52:57Z</time>
      </trkpt>
      <trkpt lat="43.750175507739186" lon="11.907384116202593">
        <ele>728.82000000000005</ele>
        <time>2016-06-04T16:53:13Z</time>
      </trkpt>
      <trkpt lat="43.750162264332175" lon="11.907340195029974">
        <ele>729.29999999999995</ele>
        <time>2016-06-04T16:53:16Z</time>
      </trkpt>
      <trkpt lat="43.750098310410976" lon="11.907182615250349">
        <ele>731.70000000000005</ele>
        <time>2016-06-04T16:53:28Z</time>
      </trkpt>
      <trkpt lat="43.750071488320827" lon="11.907052109017968">
        <ele>733.62</ele>
        <time>2016-06-04T16:53:40Z</time>
      </trkpt>
      <trkpt lat="43.750071488320827" lon="11.906941132619977">
        <ele>735.07000000000005</ele>
        <time>2016-06-04T16:53:49Z</time>
      </trkpt>
      <trkpt lat="43.75007551163435" lon="11.906881034374237">
        <ele>736.02999999999997</ele>
        <time>2016-06-04T16:53:54Z</time>
      </trkpt>
      <trkpt lat="43.750087497755885" lon="11.906763939186931">
        <ele>737.47000000000003</ele>
        <time>2016-06-04T16:54:05Z</time>
      </trkpt>
      <trkpt lat="43.750092526897788" lon="11.906685652211308">
        <ele>738.42999999999995</ele>
        <time>2016-06-04T16:54:12Z</time>
      </trkpt>
      <trkpt lat="43.750092023983598" lon="11.906660003587604">
        <ele>738.90999999999997</ele>
        <time>2016-06-04T16:54:14Z</time>
      </trkpt>
      <trkpt lat="43.750091940164566" lon="11.90650200471282">
        <ele>739.87</ele>
        <time>2016-06-04T16:54:25Z</time>
      </trkpt>
      <trkpt lat="43.750086156651378" lon="11.906411563977599">
        <ele>741.78999999999996</ele>
        <time>2016-06-04T16:54:33Z</time>
      </trkpt>
      <trkpt lat="43.750076349824667" lon="11.906378036364913">
        <ele>740.83000000000004</ele>
        <time>2016-06-04T16:54:36Z</time>
      </trkpt>
      <trkpt lat="43.75004768371582" lon="11.906283404678106">
        <ele>741.78999999999996</ele>
        <time>2016-06-04T16:54:44Z</time>
      </trkpt>
      <trkpt lat="43.749994290992618" lon="11.906177289783955">
        <ele>742.27999999999997</ele>
        <time>2016-06-04T16:54:53Z</time>
      </trkpt>
      <trkpt lat="43.749908125028014" lon="11.906035048887134">
        <ele>743.24000000000001</ele>
        <time>2016-06-04T16:55:05Z</time>
      </trkpt>
      <trkpt lat="43.749831598252058" lon="11.905887862667441">
        <ele>742.27999999999997</ele>
        <time>2016-06-04T16:55:16Z</time>
      </trkpt>
      <trkpt lat="43.749782061204314" lon="11.905769677832723">
        <ele>743.72000000000003</ele>
        <time>2016-06-04T16:55:26Z</time>
      </trkpt>
      <trkpt lat="43.749778540804982" lon="11.905666328966618">
        <ele>744.67999999999995</ele>
        <time>2016-06-04T16:55:35Z</time>
      </trkpt>
      <trkpt lat="43.749858168885112" lon="11.905551161617041">
        <ele>746.12</ele>
        <time>2016-06-04T16:55:47Z</time>
      </trkpt>
      <trkpt lat="43.749951040372252" lon="11.905548311769962">
        <ele>748.03999999999996</ele>
        <time>2016-06-04T16:55:59Z</time>
      </trkpt>
      <trkpt lat="43.749988675117493" lon="11.9056136906147">
        <ele>749</ele>
        <time>2016-06-04T16:56:10Z</time>
      </trkpt>
      <trkpt lat="43.749997727572918" lon="11.905605895444751">
        <ele>748.03999999999996</ele>
        <time>2016-06-04T16:56:28Z</time>
      </trkpt>
      <trkpt lat="43.750001331791282" lon="11.905582007020712">
        <ele>748.51999999999998</ele>
        <time>2016-06-05T07:29:53Z</time>
      </trkpt>
      <trkpt lat="43.749998230487108" lon="11.905585527420044">
        <ele>748.51999999999998</ele>
        <time>2016-06-05T07:29:54Z</time>
      </trkpt>
      <trkpt lat="43.749978030100465" lon="11.905618887394667">
        <ele>748.03999999999996</ele>
        <time>2016-06-05T07:30:10Z</time>
      </trkpt>
      <trkpt lat="43.749969732016325" lon="11.905594998970628">
        <ele>748.51999999999998</ele>
        <time>2016-06-05T07:30:24Z</time>
      </trkpt>
      <trkpt lat="43.749993033707142" lon="11.905646799132228">
        <ele>748.51999999999998</ele>
        <time>2016-06-05T07:30:34Z</time>
      </trkpt>
      <trkpt lat="43.750029662624002" lon="11.905708238482475">
        <ele>749</ele>
        <time>2016-06-05T07:30:39Z</time>
      </trkpt>
      <trkpt lat="43.750047348439693" lon="11.90573925152421">
        <ele>749.49000000000001</ele>
        <time>2016-06-05T07:30:42Z</time>
      </trkpt>
      <trkpt lat="43.750127982348204" lon="11.905779903754592">
        <ele>749.97000000000003</ele>
        <time>2016-06-05T07:30:53Z</time>
      </trkpt>
      <trkpt lat="43.750143991783261" lon="11.905764397233725">
        <ele>750.45000000000005</ele>
        <time>2016-06-05T07:31:06Z</time>
      </trkpt>
      <trkpt lat="43.750173496082425" lon="11.905802367255092">
        <ele>750.45000000000005</ele>
        <time>2016-06-05T07:31:18Z</time>
      </trkpt>
      <trkpt lat="43.750183219090104" lon="11.905858609825373">
        <ele>750.92999999999995</ele>
        <time>2016-06-05T07:31:26Z</time>
      </trkpt>
      <trkpt lat="43.750208364799619" lon="11.905932286754251">
        <ele>751.88999999999999</ele>
        <time>2016-06-05T07:31:36Z</time>
      </trkpt>
      <trkpt lat="43.750248597934842" lon="11.90602071583271">
        <ele>752.85000000000002</ele>
        <time>2016-06-05T07:31:46Z</time>
      </trkpt>
      <trkpt lat="43.750282628461719" lon="11.906059188768268">
        <ele>753.33000000000004</ele>
        <time>2016-06-05T07:31:58Z</time>
      </trkpt>
      <trkpt lat="43.750309618189931" lon="11.906139571219683">
        <ele>754.28999999999996</ele>
        <time>2016-06-05T07:32:10Z</time>
      </trkpt>
      <trkpt lat="43.750376086682081" lon="11.906172595918179">
        <ele>756.21000000000004</ele>
        <time>2016-06-05T07:32:20Z</time>
      </trkpt>
      <trkpt lat="43.750441214069724" lon="11.906167650595307">
        <ele>757.65999999999997</ele>
        <time>2016-06-05T07:32:30Z</time>
      </trkpt>
      <trkpt lat="43.750514052808285" lon="11.906177457422018">
        <ele>759.58000000000004</ele>
        <time>2016-06-05T07:32:43Z</time>
      </trkpt>
      <trkpt lat="43.750597117468715" lon="11.9061922095716">
        <ele>761.01999999999998</ele>
        <time>2016-06-05T07:32:55Z</time>
      </trkpt>
      <trkpt lat="43.750650258734822" lon="11.906196987256408">
        <ele>762.94000000000005</ele>
        <time>2016-06-05T07:33:05Z</time>
      </trkpt>
      <trkpt lat="43.750721672549844" lon="11.906157927587628">
        <ele>764.38999999999999</ele>
        <time>2016-06-05T07:33:15Z</time>
      </trkpt>
      <trkpt lat="43.750791577622294" lon="11.906148875132203">
        <ele>765.83000000000004</ele>
        <time>2016-06-05T07:33:25Z</time>
      </trkpt>
      <trkpt lat="43.750821584835649" lon="11.90614921040833">
        <ele>766.78999999999996</ele>
        <time>2016-06-05T07:33:37Z</time>
      </trkpt>
      <trkpt lat="43.750892831012607" lon="11.906144684180617">
        <ele>769.19000000000005</ele>
        <time>2016-06-05T07:33:50Z</time>
      </trkpt>
      <trkpt lat="43.750953013077378" lon="11.906145941466093">
        <ele>770.63</ele>
        <time>2016-06-05T07:34:00Z</time>
      </trkpt>
      <trkpt lat="43.750957874581218" lon="11.906144851818681">
        <ele>771.11000000000001</ele>
        <time>2016-06-05T07:34:01Z</time>
      </trkpt>
      <trkpt lat="43.751038257032633" lon="11.906127920374274">
        <ele>773.03999999999996</ele>
        <time>2016-06-05T07:34:11Z</time>
      </trkpt>
      <trkpt lat="43.751049656420946" lon="11.906123394146562">
        <ele>773.03999999999996</ele>
        <time>2016-06-05T07:34:13Z</time>
      </trkpt>
      <trkpt lat="43.751090811565518" lon="11.906105792149901">
        <ele>773.51999999999998</ele>
        <time>2016-06-05T07:34:24Z</time>
      </trkpt>
      <trkpt lat="43.751111682504416" lon="11.906113671138883">
        <ele>774</ele>
        <time>2016-06-05T07:34:35Z</time>
      </trkpt>
      <trkpt lat="43.751150071620941" lon="11.906096991151571">
        <ele>774.96000000000004</ele>
        <time>2016-06-05T07:34:41Z</time>
      </trkpt>
      <trkpt lat="43.751203715801239" lon="11.905999425798655">
        <ele>776.39999999999998</ele>
        <time>2016-06-05T07:34:52Z</time>
      </trkpt>
      <trkpt lat="43.751219473779202" lon="11.905958186835051">
        <ele>776.88</ele>
        <time>2016-06-05T07:35:04Z</time>
      </trkpt>
      <trkpt lat="43.751230034977198" lon="11.905890796333551">
        <ele>777.36000000000001</ele>
        <time>2016-06-05T07:35:09Z</time>
      </trkpt>
      <trkpt lat="43.751243529841304" lon="11.905848467722535">
        <ele>777.84000000000003</ele>
        <time>2016-06-05T07:35:12Z</time>
      </trkpt>
      <trkpt lat="43.751265993341804" lon="11.905797757208347">
        <ele>778.32000000000005</ele>
        <time>2016-06-05T07:35:16Z</time>
      </trkpt>
      <trkpt lat="43.75130002386868" lon="11.905730785802007">
        <ele>778.80999999999995</ele>
        <time>2016-06-05T07:35:25Z</time>
      </trkpt>
      <trkpt lat="43.751317206770182" lon="11.905690971761942">
        <ele>779.28999999999996</ele>
        <time>2016-06-05T07:35:34Z</time>
      </trkpt>
      <trkpt lat="43.751387195661664" lon="11.90560245886445">
        <ele>780.25</ele>
        <time>2016-06-05T07:35:44Z</time>
      </trkpt>
      <trkpt lat="43.751462046056986" lon="11.905530206859112">
        <ele>781.69000000000005</ele>
        <time>2016-06-05T07:35:53Z</time>
      </trkpt>
      <trkpt lat="43.751521473750472" lon="11.90551889128983">
        <ele>783.13</ele>
        <time>2016-06-05T07:36:03Z</time>
      </trkpt>
      <trkpt lat="43.751589618623257" lon="11.905494248494506">
        <ele>784.57000000000005</ele>
        <time>2016-06-05T07:36:13Z</time>
      </trkpt>
      <trkpt lat="43.75161518342793" lon="11.905471198260784">
        <ele>785.04999999999995</ele>
        <time>2016-06-05T07:36:17Z</time>
      </trkpt>
      <trkpt lat="43.751696823164821" lon="11.90547195263207">
        <ele>786.01999999999998</ele>
        <time>2016-06-05T07:36:30Z</time>
      </trkpt>
      <trkpt lat="43.751727668568492" lon="11.905463403090835">
        <ele>786.5</ele>
        <time>2016-06-05T07:36:40Z</time>
      </trkpt>
      <trkpt lat="43.751778546720743" lon="11.905462313443422">
        <ele>787.46000000000004</ele>
        <time>2016-06-05T07:36:51Z</time>
      </trkpt>
      <trkpt lat="43.75184727832675" lon="11.905490309000015">
        <ele>788.89999999999998</ele>
        <time>2016-06-05T07:37:01Z</time>
      </trkpt>
      <trkpt lat="43.751895474269986" lon="11.905530458316207">
        <ele>790.34000000000003</ele>
        <time>2016-06-05T07:37:13Z</time>
      </trkpt>
      <trkpt lat="43.751941323280334" lon="11.905577480792999">
        <ele>792.74000000000001</ele>
        <time>2016-06-05T07:37:25Z</time>
      </trkpt>
      <trkpt lat="43.751995889469981" lon="11.905602794140577">
        <ele>794.19000000000005</ele>
        <time>2016-06-05T07:37:34Z</time>
      </trkpt>
      <trkpt lat="43.752051126211882" lon="11.905615283176303">
        <ele>795.14999999999998</ele>
        <time>2016-06-05T07:37:45Z</time>
      </trkpt>
      <trkpt lat="43.752071242779493" lon="11.905614361166954">
        <ele>796.11000000000001</ele>
        <time>2016-06-05T07:37:53Z</time>
      </trkpt>
      <trkpt lat="43.752131089568138" lon="11.90558678470552">
        <ele>797.07000000000005</ele>
        <time>2016-06-05T07:38:06Z</time>
      </trkpt>
      <trkpt lat="43.752194875851274" lon="11.905542612075806">
        <ele>799.47000000000003</ele>
        <time>2016-06-05T07:38:17Z</time>
      </trkpt>
      <trkpt lat="43.752262350171804" lon="11.905466923490167">
        <ele>800.91999999999996</ele>
        <time>2016-06-05T07:38:30Z</time>
      </trkpt>
      <trkpt lat="43.752312054857612" lon="11.905433898791671">
        <ele>802.36000000000001</ele>
        <time>2016-06-05T07:38:39Z</time>
      </trkpt>
      <trkpt lat="43.752381624653935" lon="11.905400706455112">
        <ele>804.27999999999997</ele>
        <time>2016-06-05T07:38:52Z</time>
      </trkpt>
      <trkpt lat="43.752438789233565" lon="11.905382601544261">
        <ele>805.72000000000003</ele>
        <time>2016-06-05T07:39:02Z</time>
      </trkpt>
      <trkpt lat="43.7524698022753" lon="11.905373129993677">
        <ele>806.20000000000005</ele>
        <time>2016-06-05T07:39:14Z</time>
      </trkpt>
      <trkpt lat="43.752534175291657" lon="11.905382433906198">
        <ele>808.13</ele>
        <time>2016-06-05T07:39:25Z</time>
      </trkpt>
      <trkpt lat="43.75260416418314" lon="11.905422918498516">
        <ele>810.52999999999997</ele>
        <time>2016-06-05T07:39:38Z</time>
      </trkpt>
      <trkpt lat="43.752666776999831" lon="11.905468599870801">
        <ele>812.45000000000005</ele>
        <time>2016-06-05T07:39:50Z</time>
      </trkpt>
      <trkpt lat="43.752722013741732" lon="11.905519394204021">
        <ele>813.88999999999999</ele>
        <time>2016-06-05T07:40:02Z</time>
      </trkpt>
      <trkpt lat="43.752779848873615" lon="11.905558202415705">
        <ele>815.34000000000003</ele>
        <time>2016-06-05T07:40:13Z</time>
      </trkpt>
      <trkpt lat="43.75285972841084" lon="11.905562812462449">
        <ele>816.77999999999997</ele>
        <time>2016-06-05T07:40:25Z</time>
      </trkpt>
      <trkpt lat="43.752888394519687" lon="11.905569769442081">
        <ele>817.25999999999999</ele>
        <time>2016-06-05T07:40:29Z</time>
      </trkpt>
      <trkpt lat="43.752980343997478" lon="11.905592735856771">
        <ele>818.70000000000005</ele>
        <time>2016-06-05T07:40:41Z</time>
      </trkpt>
      <trkpt lat="43.753004902973771" lon="11.905604973435402">
        <ele>819.17999999999995</ele>
        <time>2016-06-05T07:40:45Z</time>
      </trkpt>
      <trkpt lat="43.753045722842216" lon="11.90562441945076">
        <ele>819.17999999999995</ele>
        <time>2016-06-05T07:40:55Z</time>
      </trkpt>
      <trkpt lat="43.753078831359744" lon="11.905640764161944">
        <ele>819.17999999999995</ele>
        <time>2016-06-05T07:41:06Z</time>
      </trkpt>
      <trkpt lat="43.753126189112663" lon="11.905575804412365">
        <ele>819.17999999999995</ele>
        <time>2016-06-05T07:41:13Z</time>
      </trkpt>
      <trkpt lat="43.753237584605813" lon="11.905491566285491">
        <ele>819.17999999999995</ele>
        <time>2016-06-05T07:41:24Z</time>
      </trkpt>
      <trkpt lat="43.753330372273922" lon="11.905471198260784">
        <ele>819.65999999999997</ele>
        <time>2016-06-05T07:41:34Z</time>
      </trkpt>
      <trkpt lat="43.753404468297958" lon="11.90544705837965">
        <ele>820.62</ele>
        <time>2016-06-05T07:41:42Z</time>
      </trkpt>
      <trkpt lat="43.753413017839193" lon="11.905420487746596">
        <ele>820.62</ele>
        <time>2016-06-05T07:41:51Z</time>
      </trkpt>
      <trkpt lat="43.753474624827504" lon="11.905407328158617">
        <ele>821.10000000000002</ele>
        <time>2016-06-05T07:42:05Z</time>
      </trkpt>
      <trkpt lat="43.753557270392776" lon="11.90538109280169">
        <ele>822.54999999999995</ele>
        <time>2016-06-05T07:42:16Z</time>
      </trkpt>
      <trkpt lat="43.753567915409803" lon="11.905341111123562">
        <ele>822.54999999999995</ele>
        <time>2016-06-05T07:42:32Z</time>
      </trkpt>
      <trkpt lat="43.753686351701617" lon="11.905352510511875">
        <ele>823.50999999999999</ele>
        <time>2016-06-05T07:42:42Z</time>
      </trkpt>
      <trkpt lat="43.753773691132665" lon="11.905394336208701">
        <ele>824.95000000000005</ele>
        <time>2016-06-05T07:42:53Z</time>
      </trkpt>
      <trkpt lat="43.7538150139153" lon="11.905392743647099">
        <ele>825.42999999999995</ele>
        <time>2016-06-05T07:43:06Z</time>
      </trkpt>
      <trkpt lat="43.753846948966384" lon="11.90539232455194">
        <ele>825.90999999999997</ele>
        <time>2016-06-05T07:43:11Z</time>
      </trkpt>
      <trkpt lat="43.753893887624145" lon="11.905394252389669">
        <ele>826.38999999999999</ele>
        <time>2016-06-05T07:43:17Z</time>
      </trkpt>
      <trkpt lat="43.75398650765419" lon="11.905419481918216">
        <ele>827.35000000000002</ele>
        <time>2016-06-05T07:43:29Z</time>
      </trkpt>
      <trkpt lat="43.754078038036823" lon="11.905433395877481">
        <ele>827.83000000000004</ele>
        <time>2016-06-05T07:43:41Z</time>
      </trkpt>
      <trkpt lat="43.754134951159358" lon="11.905507240444422">
        <ele>828.78999999999996</ele>
        <time>2016-06-05T07:43:52Z</time>
      </trkpt>
      <trkpt lat="43.75419027172029" lon="11.905576307326555">
        <ele>830.24000000000001</ele>
        <time>2016-06-05T07:44:02Z</time>
      </trkpt>
      <trkpt lat="43.754267720505595" lon="11.905600447207689">
        <ele>831.20000000000005</ele>
        <time>2016-06-05T07:44:13Z</time>
      </trkpt>
      <trkpt lat="43.754382049664855" lon="11.905636237934232">
        <ele>831.67999999999995</ele>
        <time>2016-06-05T07:44:24Z</time>
      </trkpt>
      <trkpt lat="43.754404177889228" lon="11.90564738586545">
        <ele>831.67999999999995</ele>
        <time>2016-06-05T07:44:26Z</time>
      </trkpt>
      <trkpt lat="43.754502078518271" lon="11.905702538788319">
        <ele>832.63999999999999</ele>
        <time>2016-06-05T07:44:37Z</time>
      </trkpt>
      <trkpt lat="43.754581790417433" lon="11.905703376978636">
        <ele>834.08000000000004</ele>
        <time>2016-06-05T07:44:47Z</time>
      </trkpt>
      <trkpt lat="43.754654880613089" lon="11.905699437484145">
        <ele>835.03999999999996</ele>
        <time>2016-06-05T07:44:57Z</time>
      </trkpt>
      <trkpt lat="43.754752948880196" lon="11.905703712254763">
        <ele>835.03999999999996</ele>
        <time>2016-06-05T07:45:09Z</time>
      </trkpt>
      <trkpt lat="43.754802318289876" lon="11.905850479379296">
        <ele>836</ele>
        <time>2016-06-05T07:45:21Z</time>
      </trkpt>
      <trkpt lat="43.754852190613747" lon="11.905926670879126">
        <ele>836.96000000000004</ele>
        <time>2016-06-05T07:45:31Z</time>
      </trkpt>
      <trkpt lat="43.754902482032776" lon="11.905965395271778">
        <ele>837.45000000000005</ele>
        <time>2016-06-05T07:45:38Z</time>
      </trkpt>
      <trkpt lat="43.754996275529265" lon="11.905995989218354">
        <ele>836.96000000000004</ele>
        <time>2016-06-05T07:45:51Z</time>
      </trkpt>
      <trkpt lat="43.755091242492199" lon="11.906016524881124">
        <ele>836.48000000000002</ele>
        <time>2016-06-05T07:46:02Z</time>
      </trkpt>
      <trkpt lat="43.755114628002048" lon="11.906122975051403">
        <ele>836.96000000000004</ele>
        <time>2016-06-05T07:46:12Z</time>
      </trkpt>
      <trkpt lat="43.755152178928256" lon="11.906216181814671">
        <ele>839.37</ele>
        <time>2016-06-05T07:46:24Z</time>
      </trkpt>
      <trkpt lat="43.755196100100875" lon="11.906338389962912">
        <ele>840.80999999999995</ele>
        <time>2016-06-05T07:46:36Z</time>
      </trkpt>
      <trkpt lat="43.755230298265815" lon="11.906456742435694">
        <ele>842.25</ele>
        <time>2016-06-05T07:46:48Z</time>
      </trkpt>
      <trkpt lat="43.755256198346615" lon="11.906577190384269">
        <ele>843.21000000000004</ele>
        <time>2016-06-05T07:47:00Z</time>
      </trkpt>
      <trkpt lat="43.75531654804945" lon="11.906640725210309">
        <ele>844.65999999999997</ele>
        <time>2016-06-05T07:47:11Z</time>
      </trkpt>
      <trkpt lat="43.75538201071322" lon="11.906611640006304">
        <ele>846.58000000000004</ele>
        <time>2016-06-05T07:47:22Z</time>
      </trkpt>
      <trkpt lat="43.755446719005704" lon="11.906540393829346">
        <ele>848.98000000000002</ele>
        <time>2016-06-05T07:47:35Z</time>
      </trkpt>
      <trkpt lat="43.755487035959959" lon="11.906488845124841">
        <ele>850.41999999999996</ele>
        <time>2016-06-05T07:47:47Z</time>
      </trkpt>
      <trkpt lat="43.755574207752943" lon="11.906479625031352">
        <ele>852.83000000000004</ele>
        <time>2016-06-05T07:47:59Z</time>
      </trkpt>
      <trkpt lat="43.75557160936296" lon="11.906557995826006">
        <ele>853.30999999999995</ele>
        <time>2016-06-05T07:48:07Z</time>
      </trkpt>
      <trkpt lat="43.755602957680821" lon="11.906640473753214">
        <ele>855.23000000000002</ele>
        <time>2016-06-05T07:48:20Z</time>
      </trkpt>
      <trkpt lat="43.755651907995343" lon="11.906676180660725">
        <ele>857.14999999999998</ele>
        <time>2016-06-05T07:48:31Z</time>
      </trkpt>
      <trkpt lat="43.755744528025389" lon="11.906712055206299">
        <ele>858.11000000000001</ele>
        <time>2016-06-05T07:48:44Z</time>
      </trkpt>
      <trkpt lat="43.755845027044415" lon="11.906762346625328">
        <ele>858.11000000000001</ele>
        <time>2016-06-05T07:48:57Z</time>
      </trkpt>
      <trkpt lat="43.755954746156931" lon="11.906802076846361">
        <ele>859.08000000000004</ele>
        <time>2016-06-05T07:49:10Z</time>
      </trkpt>
      <trkpt lat="43.756044851616025" lon="11.906845662742853">
        <ele>861</ele>
        <time>2016-06-05T07:49:21Z</time>
      </trkpt>
      <trkpt lat="43.756162449717522" lon="11.906879022717476">
        <ele>861.48000000000002</ele>
        <time>2016-06-05T07:49:34Z</time>
      </trkpt>
      <trkpt lat="43.756222715601325" lon="11.906970553100109">
        <ele>863.39999999999998</ele>
        <time>2016-06-05T07:49:46Z</time>
      </trkpt>
      <trkpt lat="43.756304774433374" lon="11.907032495364547">
        <ele>866.28999999999996</ele>
        <time>2016-06-05T07:49:58Z</time>
      </trkpt>
      <trkpt lat="43.756373170763254" lon="11.907035764306784">
        <ele>866.76999999999998</ele>
        <time>2016-06-05T07:50:09Z</time>
      </trkpt>
      <trkpt lat="43.756358586251736" lon="11.907058479264379">
        <ele>866.76999999999998</ele>
        <time>2016-06-05T07:50:24Z</time>
      </trkpt>
      <trkpt lat="43.756355401128531" lon="11.907050013542175">
        <ele>865.79999999999995</ele>
        <time>2016-06-05T07:50:36Z</time>
      </trkpt>
      <trkpt lat="43.756335787475109" lon="11.907050013542175">
        <ele>865.79999999999995</ele>
        <time>2016-06-05T07:51:05Z</time>
      </trkpt>
      <trkpt lat="43.756368644535542" lon="11.907042888924479">
        <ele>866.28999999999996</ele>
        <time>2016-06-05T07:51:22Z</time>
      </trkpt>
      <trkpt lat="43.756362525746226" lon="11.907056299969554">
        <ele>866.28999999999996</ele>
        <time>2016-06-05T07:51:44Z</time>
      </trkpt>
      <trkpt lat="43.756364453583956" lon="11.907064514234662">
        <ele>866.28999999999996</ele>
        <time>2016-06-05T07:52:10Z</time>
      </trkpt>
      <trkpt lat="43.756356658414006" lon="11.907076332718134">
        <ele>866.28999999999996</ele>
        <time>2016-06-05T07:52:31Z</time>
      </trkpt>
      <trkpt lat="43.756362525746226" lon="11.907063759863377">
        <ele>866.28999999999996</ele>
        <time>2016-06-05T07:52:52Z</time>
      </trkpt>
      <trkpt lat="43.756356406956911" lon="11.907041883096099">
        <ele>866.76999999999998</ele>
        <time>2016-06-05T07:53:04Z</time>
      </trkpt>
      <trkpt lat="43.756354227662086" lon="11.907042386010289">
        <ele>866.76999999999998</ele>
        <time>2016-06-05T07:53:17Z</time>
      </trkpt>
      <trkpt lat="43.756353557109833" lon="11.907075494527817">
        <ele>867.73000000000002</ele>
        <time>2016-06-05T07:53:26Z</time>
      </trkpt>
      <trkpt lat="43.756336206570268" lon="11.907064933329821">
        <ele>868.21000000000004</ele>
        <time>2016-06-05T07:53:42Z</time>
      </trkpt>
      <trkpt lat="43.756359843537211" lon="11.906964601948857">
        <ele>868.21000000000004</ele>
        <time>2016-06-05T07:53:51Z</time>
      </trkpt>
      <trkpt lat="43.756375014781952" lon="11.906840046867728">
        <ele>870.13</ele>
        <time>2016-06-05T07:54:02Z</time>
      </trkpt>
      <trkpt lat="43.756411895155907" lon="11.906750109046698">
        <ele>871.57000000000005</ele>
        <time>2016-06-05T07:54:11Z</time>
      </trkpt>
      <trkpt lat="43.756387922912836" lon="11.906652711331844">
        <ele>873.00999999999999</ele>
        <time>2016-06-05T07:54:22Z</time>
      </trkpt>
      <trkpt lat="43.756358250975609" lon="11.9065963011235">
        <ele>874.46000000000004</ele>
        <time>2016-06-05T07:54:31Z</time>
      </trkpt>
      <trkpt lat="43.756351126357913" lon="11.906556487083435">
        <ele>875.41999999999996</ele>
        <time>2016-06-05T07:54:44Z</time>
      </trkpt>
      <trkpt lat="43.756387503817677" lon="11.906529497355223">
        <ele>875.89999999999998</ele>
        <time>2016-06-05T07:54:57Z</time>
      </trkpt>
      <trkpt lat="43.756322041153908" lon="11.906556319445372">
        <ele>875.41999999999996</ele>
        <time>2016-06-05T07:55:10Z</time>
      </trkpt>
      <trkpt lat="43.756247777491808" lon="11.906484151259065">
        <ele>876.86000000000001</ele>
        <time>2016-06-05T07:55:20Z</time>
      </trkpt>
      <trkpt lat="43.756215004250407" lon="11.90640184096992">
        <ele>878.29999999999995</ele>
        <time>2016-06-05T07:55:29Z</time>
      </trkpt>
      <trkpt lat="43.756228918209672" lon="11.906312238425016">
        <ele>880.22000000000003</ele>
        <time>2016-06-05T07:55:39Z</time>
      </trkpt>
      <trkpt lat="43.756312401965261" lon="11.906240740790963">
        <ele>879.74000000000001</ele>
        <time>2016-06-05T07:55:50Z</time>
      </trkpt>
      <trkpt lat="43.75632799230516" lon="11.906222468242049">
        <ele>881.66999999999996</ele>
        <time>2016-06-05T07:55:53Z</time>
      </trkpt>
      <trkpt lat="43.756387252360582" lon="11.906119957566261">
        <ele>883.59000000000003</ele>
        <time>2016-06-05T07:56:06Z</time>
      </trkpt>
      <trkpt lat="43.756428407505155" lon="11.906050471588969">
        <ele>885.50999999999999</ele>
        <time>2016-06-05T07:56:20Z</time>
      </trkpt>
      <trkpt lat="43.756492445245385" lon="11.906007137149572">
        <ele>887.90999999999997</ele>
        <time>2016-06-05T07:56:31Z</time>
      </trkpt>
      <trkpt lat="43.756511053070426" lon="11.905958605930209">
        <ele>888.88</ele>
        <time>2016-06-05T07:56:39Z</time>
      </trkpt>
      <trkpt lat="43.756526056677103" lon="11.905849138274789">
        <ele>890.32000000000005</ele>
        <time>2016-06-05T07:56:50Z</time>
      </trkpt>
      <trkpt lat="43.756532846018672" lon="11.905796835198998">
        <ele>890.79999999999995</ele>
        <time>2016-06-05T07:56:56Z</time>
      </trkpt>
      <trkpt lat="43.75653812661767" lon="11.905769091099501">
        <ele>890.79999999999995</ele>
        <time>2016-06-05T07:56:58Z</time>
      </trkpt>
      <trkpt lat="43.756612474098802" lon="11.905669178813696">
        <ele>891.75999999999999</ele>
        <time>2016-06-05T07:57:09Z</time>
      </trkpt>
      <trkpt lat="43.756671650335193" lon="11.905567087233067">
        <ele>893.20000000000005</ele>
        <time>2016-06-05T07:57:22Z</time>
      </trkpt>
      <trkpt lat="43.75675949268043" lon="11.905500702559948">
        <ele>894.63999999999999</ele>
        <time>2016-06-05T07:57:33Z</time>
      </trkpt>
      <trkpt lat="43.756832918152213" lon="11.905477400869131">
        <ele>895.61000000000001</ele>
        <time>2016-06-05T07:57:43Z</time>
      </trkpt>
      <trkpt lat="43.756903829053044" lon="11.905452087521553">
        <ele>897.04999999999995</ele>
        <time>2016-06-05T07:57:54Z</time>
      </trkpt>
      <trkpt lat="43.756948169320822" lon="11.905345721170306">
        <ele>898.97000000000003</ele>
        <time>2016-06-05T07:58:07Z</time>
      </trkpt>
      <trkpt lat="43.756960909813643" lon="11.905253017321229">
        <ele>900.40999999999997</ele>
        <time>2016-06-05T07:58:18Z</time>
      </trkpt>
      <trkpt lat="43.756927466019988" lon="11.905140280723572">
        <ele>902.82000000000005</ele>
        <time>2016-06-05T07:58:32Z</time>
      </trkpt>
      <trkpt lat="43.756897039711475" lon="11.9050317350775">
        <ele>904.25999999999999</ele>
        <time>2016-06-05T07:58:43Z</time>
      </trkpt>
      <trkpt lat="43.756853705272079" lon="11.90495889633894">
        <ele>905.70000000000005</ele>
        <time>2016-06-05T07:58:53Z</time>
      </trkpt>
      <trkpt lat="43.756823614239693" lon="11.904859989881516">
        <ele>907.62</ele>
        <time>2016-06-05T07:59:05Z</time>
      </trkpt>
      <trkpt lat="43.756812885403633" lon="11.90474976785481">
        <ele>909.53999999999996</ele>
        <time>2016-06-05T07:59:18Z</time>
      </trkpt>
      <trkpt lat="43.756829649209976" lon="11.904715402051806">
        <ele>910.02999999999997</ele>
        <time>2016-06-05T07:59:31Z</time>
      </trkpt>
      <trkpt lat="43.756809365004301" lon="11.904712719842792">
        <ele>910.02999999999997</ele>
        <time>2016-06-05T07:59:50Z</time>
      </trkpt>
      <trkpt lat="43.756795367226005" lon="11.904640216380358">
        <ele>910.99000000000001</ele>
        <time>2016-06-05T08:00:05Z</time>
      </trkpt>
      <trkpt lat="43.756767706945539" lon="11.904549524188042">
        <ele>912.42999999999995</ele>
        <time>2016-06-05T08:00:15Z</time>
      </trkpt>
      <trkpt lat="43.756749015301466" lon="11.904438799247146">
        <ele>913.87</ele>
        <time>2016-06-05T08:00:26Z</time>
      </trkpt>
      <trkpt lat="43.756718840450048" lon="11.90436671487987">
        <ele>915.30999999999995</ele>
        <time>2016-06-05T08:00:35Z</time>
      </trkpt>
      <trkpt lat="43.756695035845041" lon="11.904279459267855">
        <ele>916.75</ele>
        <time>2016-06-05T08:00:46Z</time>
      </trkpt>
      <trkpt lat="43.756679696962237" lon="11.904225731268525">
        <ele>918.20000000000005</ele>
        <time>2016-06-05T08:00:56Z</time>
      </trkpt>
      <trkpt lat="43.756636027246714" lon="11.904140152037144">
        <ele>920.12</ele>
        <time>2016-06-05T08:01:08Z</time>
      </trkpt>
      <trkpt lat="43.756571151316166" lon="11.904075108468533">
        <ele>922.03999999999996</ele>
        <time>2016-06-05T08:01:19Z</time>
      </trkpt>
      <trkpt lat="43.756513232365251" lon="11.904024565592408">
        <ele>922.51999999999998</ele>
        <time>2016-06-05T08:01:27Z</time>
      </trkpt>
      <trkpt lat="43.756427736952901" lon="11.903913589194417">
        <ele>923.96000000000004</ele>
        <time>2016-06-05T08:01:40Z</time>
      </trkpt>
      <trkpt lat="43.756360094994307" lon="11.903813928365707">
        <ele>925.40999999999997</ele>
        <time>2016-06-05T08:01:51Z</time>
      </trkpt>
      <trkpt lat="43.756347522139549" lon="11.903793895617127">
        <ele>925.40999999999997</ele>
        <time>2016-06-05T08:01:53Z</time>
      </trkpt>
      <trkpt lat="43.756261691451073" lon="11.903691049665213">
        <ele>924.45000000000005</ele>
        <time>2016-06-05T08:02:05Z</time>
      </trkpt>
      <trkpt lat="43.756179297342896" lon="11.903676716610789">
        <ele>923.96000000000004</ele>
        <time>2016-06-05T08:02:17Z</time>
      </trkpt>
      <trkpt lat="43.756109140813351" lon="11.903530703857541">
        <ele>924.92999999999995</ele>
        <time>2016-06-05T08:02:28Z</time>
      </trkpt>
      <trkpt lat="43.756052060052752" lon="11.903378320857882">
        <ele>925.88999999999999</ele>
        <time>2016-06-05T08:02:40Z</time>
      </trkpt>
      <trkpt lat="43.75603680498898" lon="11.90322820097208">
        <ele>927.33000000000004</ele>
        <time>2016-06-05T08:02:51Z</time>
      </trkpt>
      <trkpt lat="43.75597863458097" lon="11.903082439675927">
        <ele>928.76999999999998</ele>
        <time>2016-06-05T08:03:03Z</time>
      </trkpt>
      <trkpt lat="43.755897916853428" lon="11.902997530996799">
        <ele>929.25</ele>
        <time>2016-06-05T08:03:14Z</time>
      </trkpt>
      <trkpt lat="43.755863383412361" lon="11.902850847691298">
        <ele>930.21000000000004</ele>
        <time>2016-06-05T08:03:26Z</time>
      </trkpt>
      <trkpt lat="43.755835220217705" lon="11.902664434164762">
        <ele>931.64999999999998</ele>
        <time>2016-06-05T08:03:40Z</time>
      </trkpt>
      <trkpt lat="43.755826503038406" lon="11.902527054771781">
        <ele>932.13999999999999</ele>
        <time>2016-06-05T08:03:52Z</time>
      </trkpt>
      <trkpt lat="43.755827927961946" lon="11.9023965485394">
        <ele>935.5</ele>
        <time>2016-06-05T08:04:04Z</time>
      </trkpt>
      <trkpt lat="43.755774619057775" lon="11.90224408172071">
        <ele>935.5</ele>
        <time>2016-06-05T08:04:17Z</time>
      </trkpt>
      <trkpt lat="43.755737068131566" lon="11.90213905647397">
        <ele>935.5</ele>
        <time>2016-06-05T08:04:26Z</time>
      </trkpt>
      <trkpt lat="43.755688453093171" lon="11.902001509442925">
        <ele>933.58000000000004</ele>
        <time>2016-06-05T08:04:38Z</time>
      </trkpt>
      <trkpt lat="43.755585690960288" lon="11.901853568851948">
        <ele>932.13999999999999</ele>
        <time>2016-06-05T08:04:52Z</time>
      </trkpt>
      <trkpt lat="43.755548475310206" lon="11.901777377352118">
        <ele>931.64999999999998</ele>
        <time>2016-06-05T08:04:58Z</time>
      </trkpt>
      <trkpt lat="43.755449820309877" lon="11.901656510308385">
        <ele>931.64999999999998</ele>
        <time>2016-06-05T08:05:12Z</time>
      </trkpt>
      <trkpt lat="43.755338760092854" lon="11.90165089443326">
        <ele>932.13999999999999</ele>
        <time>2016-06-05T08:05:23Z</time>
      </trkpt>
      <trkpt lat="43.755212360993028" lon="11.901644608005881">
        <ele>931.64999999999998</ele>
        <time>2016-06-05T08:05:34Z</time>
      </trkpt>
      <trkpt lat="43.755083531141281" lon="11.901576379314065">
        <ele>930.69000000000005</ele>
        <time>2016-06-05T08:05:46Z</time>
      </trkpt>
      <trkpt lat="43.755021672695875" lon="11.901472276076674">
        <ele>932.13999999999999</ele>
        <time>2016-06-05T08:05:57Z</time>
      </trkpt>
      <trkpt lat="43.755052937194705" lon="11.901442687958479">
        <ele>933.10000000000002</ele>
        <time>2016-06-05T08:06:01Z</time>
      </trkpt>
      <trkpt lat="43.75510691665113" lon="11.901347218081355">
        <ele>934.05999999999995</ele>
        <time>2016-06-05T08:06:12Z</time>
      </trkpt>
      <trkpt lat="43.755191657692194" lon="11.901297178119421">
        <ele>935.5</ele>
        <time>2016-06-05T08:06:24Z</time>
      </trkpt>
      <trkpt lat="43.755284110084176" lon="11.901234397664666">
        <ele>937.41999999999996</ele>
        <time>2016-06-05T08:06:36Z</time>
      </trkpt>
      <trkpt lat="43.75536784529686" lon="11.901194415986538">
        <ele>939.35000000000002</ele>
        <time>2016-06-05T08:06:47Z</time>
      </trkpt>
      <trkpt lat="43.755448395386338" lon="11.901165163144469">
        <ele>940.78999999999996</ele>
        <time>2016-06-05T08:06:57Z</time>
      </trkpt>
      <trkpt lat="43.755525341257453" lon="11.901144962757826">
        <ele>942.71000000000004</ele>
        <time>2016-06-05T08:07:10Z</time>
      </trkpt>
      <trkpt lat="43.755590552464128" lon="11.901104310527444">
        <ele>944.63</ele>
        <time>2016-06-05T08:07:22Z</time>
      </trkpt>
      <trkpt lat="43.755657942965627" lon="11.901076482608914">
        <ele>946.07000000000005</ele>
        <time>2016-06-05T08:07:34Z</time>
      </trkpt>
      <trkpt lat="43.755737571045756" lon="11.901050163432956">
        <ele>948</ele>
        <time>2016-06-05T08:07:47Z</time>
      </trkpt>
      <trkpt lat="43.755842763930559" lon="11.901079416275024">
        <ele>949.91999999999996</ele>
        <time>2016-06-05T08:08:01Z</time>
      </trkpt>
      <trkpt lat="43.755915351212025" lon="11.901014540344477">
        <ele>951.36000000000001</ele>
        <time>2016-06-05T08:08:13Z</time>
      </trkpt>
      <trkpt lat="43.755996823310852" lon="11.900965087115765">
        <ele>952.32000000000005</ele>
        <time>2016-06-05T08:08:24Z</time>
      </trkpt>
      <trkpt lat="43.756045857444406" lon="11.900904905050993">
        <ele>953.27999999999997</ele>
        <time>2016-06-05T08:08:35Z</time>
      </trkpt>
      <trkpt lat="43.756102854385972" lon="11.9007957726717">
        <ele>954.25</ele>
        <time>2016-06-05T08:08:47Z</time>
      </trkpt>
      <trkpt lat="43.75619706697762" lon="11.900692926719785">
        <ele>955.21000000000004</ele>
        <time>2016-06-05T08:09:01Z</time>
      </trkpt>
      <trkpt lat="43.756275102496147" lon="11.900620674714446">
        <ele>955.69000000000005</ele>
        <time>2016-06-05T08:09:11Z</time>
      </trkpt>
      <trkpt lat="43.756344504654408" lon="11.900590835139155">
        <ele>956.16999999999996</ele>
        <time>2016-06-05T08:09:19Z</time>
      </trkpt>
      <trkpt lat="43.756448440253735" lon="11.900514727458358">
        <ele>956.64999999999998</ele>
        <time>2016-06-05T08:09:31Z</time>
      </trkpt>
      <trkpt lat="43.756470484659076" lon="11.90047575160861">
        <ele>956.64999999999998</ele>
        <time>2016-06-05T08:09:35Z</time>
      </trkpt>
      <trkpt lat="43.756509963423014" lon="11.900396207347512">
        <ele>956.64999999999998</ele>
        <time>2016-06-05T08:09:42Z</time>
      </trkpt>
      <trkpt lat="43.756613563746214" lon="11.900275256484747">
        <ele>956.64999999999998</ele>
        <time>2016-06-05T08:09:55Z</time>
      </trkpt>
      <trkpt lat="43.756687995046377" lon="11.900148103013635">
        <ele>957.61000000000001</ele>
        <time>2016-06-05T08:10:07Z</time>
      </trkpt>
      <trkpt lat="43.756772484630346" lon="11.900010975077748">
        <ele>956.16999999999996</ele>
        <time>2016-06-05T08:10:19Z</time>
      </trkpt>
      <trkpt lat="43.756857393309474" lon="11.899897819384933">
        <ele>956.16999999999996</ele>
        <time>2016-06-05T08:10:30Z</time>
      </trkpt>
      <trkpt lat="43.756942972540855" lon="11.899774270132184">
        <ele>956.16999999999996</ele>
        <time>2016-06-05T08:10:42Z</time>
      </trkpt>
      <trkpt lat="43.757018325850368" lon="11.899666646495461">
        <ele>956.16999999999996</ele>
        <time>2016-06-05T08:10:52Z</time>
      </trkpt>
      <trkpt lat="43.757103653624654" lon="11.899529434740543">
        <ele>956.64999999999998</ele>
        <time>2016-06-05T08:11:05Z</time>
      </trkpt>
      <trkpt lat="43.75716651789844" lon="11.899361209943891">
        <ele>956.64999999999998</ele>
        <time>2016-06-05T08:11:18Z</time>
      </trkpt>
      <trkpt lat="43.75723784789443" lon="11.899247718974948">
        <ele>956.64999999999998</ele>
        <time>2016-06-05T08:11:29Z</time>
      </trkpt>
      <trkpt lat="43.757299287244678" lon="11.899140430614352">
        <ele>957.13</ele>
        <time>2016-06-05T08:11:39Z</time>
      </trkpt>
      <trkpt lat="43.757356451824307" lon="11.899027191102505">
        <ele>958.09000000000003</ele>
        <time>2016-06-05T08:11:49Z</time>
      </trkpt>
      <trkpt lat="43.757433565333486" lon="11.898889727890491">
        <ele>960.00999999999999</ele>
        <time>2016-06-05T08:12:03Z</time>
      </trkpt>
      <trkpt lat="43.757504727691412" lon="11.898771459236741">
        <ele>960.98000000000002</ele>
        <time>2016-06-05T08:12:15Z</time>
      </trkpt>
      <trkpt lat="43.75756474211812" lon="11.898645563051105">
        <ele>963.38</ele>
        <time>2016-06-05T08:12:29Z</time>
      </trkpt>
      <trkpt lat="43.757612770423293" lon="11.898542381823063">
        <ele>965.29999999999995</ele>
        <time>2016-06-05T08:12:42Z</time>
      </trkpt>
      <trkpt lat="43.757650824263692" lon="11.89846065826714">
        <ele>967.22000000000003</ele>
        <time>2016-06-05T08:12:54Z</time>
      </trkpt>
      <trkpt lat="43.757676053792238" lon="11.898348424583673">
        <ele>968.17999999999995</ele>
        <time>2016-06-05T08:13:06Z</time>
      </trkpt>
      <trkpt lat="43.757749395444989" lon="11.898281704634428">
        <ele>970.11000000000001</ele>
        <time>2016-06-05T08:13:18Z</time>
      </trkpt>
      <trkpt lat="43.757830699905753" lon="11.898217415437102">
        <ele>971.54999999999995</ele>
        <time>2016-06-05T08:13:30Z</time>
      </trkpt>
      <trkpt lat="43.757870346307755" lon="11.898176092654467">
        <ele>972.50999999999999</ele>
        <time>2016-06-05T08:13:37Z</time>
      </trkpt>
      <trkpt lat="43.757946453988552" lon="11.898092022165656">
        <ele>972.99000000000001</ele>
        <time>2016-06-05T08:13:48Z</time>
      </trkpt>
      <trkpt lat="43.758014850318432" lon="11.898012896999717">
        <ele>973.47000000000003</ele>
        <time>2016-06-05T08:14:01Z</time>
      </trkpt>
      <trkpt lat="43.758046701550484" lon="11.897971406579018">
        <ele>973.47000000000003</ele>
        <time>2016-06-05T08:14:11Z</time>
      </trkpt>
      <trkpt lat="43.758127670735121" lon="11.897850288078189">
        <ele>974.42999999999995</ele>
        <time>2016-06-05T08:14:24Z</time>
      </trkpt>
      <trkpt lat="43.758190786466002" lon="11.897741155698895">
        <ele>975.38999999999999</ele>
        <time>2016-06-05T08:14:35Z</time>
      </trkpt>
      <trkpt lat="43.758242921903729" lon="11.897644260898232">
        <ele>977.32000000000005</ele>
        <time>2016-06-05T08:14:45Z</time>
      </trkpt>
      <trkpt lat="43.758279047906399" lon="11.897567650303245">
        <ele>978.27999999999997</ele>
        <time>2016-06-05T08:14:54Z</time>
      </trkpt>
      <trkpt lat="43.758340738713741" lon="11.897472767159343">
        <ele>979.72000000000003</ele>
        <time>2016-06-05T08:15:05Z</time>
      </trkpt>
      <trkpt lat="43.758363956585526" lon="11.897457344457507">
        <ele>979.72000000000003</ele>
        <time>2016-06-05T08:15:08Z</time>
      </trkpt>
      <trkpt lat="43.758424893021584" lon="11.897344691678882">
        <ele>979.24000000000001</ele>
        <time>2016-06-05T08:15:17Z</time>
      </trkpt>
      <trkpt lat="43.758487086743116" lon="11.897187111899257">
        <ele>979.24000000000001</ele>
        <time>2016-06-05T08:15:30Z</time>
      </trkpt>
      <trkpt lat="43.758528996258974" lon="11.897068172693253">
        <ele>979.72000000000003</ele>
        <time>2016-06-05T08:15:40Z</time>
      </trkpt>
      <trkpt lat="43.758581383153796" lon="11.896935487166047">
        <ele>980.67999999999995</ele>
        <time>2016-06-05T08:15:51Z</time>
      </trkpt>
      <trkpt lat="43.758645001798868" lon="11.896782852709293">
        <ele>981.15999999999997</ele>
        <time>2016-06-05T08:16:04Z</time>
      </trkpt>
      <trkpt lat="43.758713062852621" lon="11.896632816642523">
        <ele>980.20000000000005</ele>
        <time>2016-06-05T08:16:16Z</time>
      </trkpt>
      <trkpt lat="43.758741058409214" lon="11.896586799994111">
        <ele>980.20000000000005</ele>
        <time>2016-06-05T08:16:20Z</time>
      </trkpt>
      <trkpt lat="43.758797636255622" lon="11.896293517202139">
        <ele>979.24000000000001</ele>
        <time>2016-06-05T08:16:39Z</time>
      </trkpt>
      <trkpt lat="43.75881465151906" lon="11.896222941577435">
        <ele>979.24000000000001</ele>
        <time>2016-06-05T08:16:44Z</time>
      </trkpt>
      <trkpt lat="43.758833594620228" lon="11.896186228841543">
        <ele>979.24000000000001</ele>
        <time>2016-06-05T08:16:47Z</time>
      </trkpt>
      <trkpt lat="43.758855555206537" lon="11.896190838888288">
        <ele>978.75999999999999</ele>
        <time>2016-06-05T08:16:49Z</time>
      </trkpt>
      <trkpt lat="43.758980529382825" lon="11.896249428391457">
        <ele>979.24000000000001</ele>
        <time>2016-06-05T08:17:02Z</time>
      </trkpt>
      <trkpt lat="43.759080357849598" lon="11.896233838051558">
        <ele>978.75999999999999</ele>
        <time>2016-06-05T08:17:15Z</time>
      </trkpt>
      <trkpt lat="43.759091338142753" lon="11.896213972941041">
        <ele>978.75999999999999</ele>
        <time>2016-06-05T08:17:26Z</time>
      </trkpt>
      <trkpt lat="43.759124195203185" lon="11.896185055375099">
        <ele>978.75999999999999</ele>
        <time>2016-06-05T08:17:33Z</time>
      </trkpt>
      <trkpt lat="43.759200973436236" lon="11.896121688187122">
        <ele>977.32000000000005</ele>
        <time>2016-06-05T08:17:44Z</time>
      </trkpt>
      <trkpt lat="43.759282864630222" lon="11.896106600761414">
        <ele>977.32000000000005</ele>
        <time>2016-06-05T08:17:53Z</time>
      </trkpt>
      <trkpt lat="43.759391745552421" lon="11.896188408136368">
        <ele>976.84000000000003</ele>
        <time>2016-06-05T08:18:05Z</time>
      </trkpt>
      <trkpt lat="43.759397529065609" lon="11.896200142800808">
        <ele>976.84000000000003</ele>
        <time>2016-06-05T08:18:07Z</time>
      </trkpt>
      <trkpt lat="43.759503643959761" lon="11.896363003179431">
        <ele>976.84000000000003</ele>
        <time>2016-06-05T08:18:21Z</time>
      </trkpt>
      <trkpt lat="43.759581763297319" lon="11.896549500524998">
        <ele>976.36000000000001</ele>
        <time>2016-06-05T08:18:34Z</time>
      </trkpt>
      <trkpt lat="43.759701373055577" lon="11.896716635674238">
        <ele>974.90999999999997</ele>
        <time>2016-06-05T08:18:50Z</time>
      </trkpt>
      <trkpt lat="43.759803716093302" lon="11.896840520203114">
        <ele>973.47000000000003</ele>
        <time>2016-06-05T08:19:02Z</time>
      </trkpt>
      <trkpt lat="43.759876135736704" lon="11.896948730573058">
        <ele>972.99000000000001</ele>
        <time>2016-06-05T08:19:12Z</time>
      </trkpt>
      <trkpt lat="43.759934222325683" lon="11.89699474722147">
        <ele>972.50999999999999</ele>
        <time>2016-06-05T08:19:19Z</time>
      </trkpt>
      <trkpt lat="43.759998930618167" lon="11.896998854354024">
        <ele>972.02999999999997</ele>
        <time>2016-06-05T08:19:25Z</time>
      </trkpt>
      <trkpt lat="43.760086353868246" lon="11.897025592625141">
        <ele>970.59000000000003</ele>
        <time>2016-06-05T08:19:36Z</time>
      </trkpt>
      <trkpt lat="43.760188529267907" lon="11.897067753598094">
        <ele>969.63</ele>
        <time>2016-06-05T08:19:46Z</time>
      </trkpt>
      <trkpt lat="43.760253572836518" lon="11.89708610996604">
        <ele>969.14999999999998</ele>
        <time>2016-06-05T08:19:58Z</time>
      </trkpt>
      <trkpt lat="43.760289698839188" lon="11.897062556818128">
        <ele>969.14999999999998</ele>
        <time>2016-06-05T08:20:06Z</time>
      </trkpt>
      <trkpt lat="43.760373098775744" lon="11.896946551278234">
        <ele>968.17999999999995</ele>
        <time>2016-06-05T08:20:15Z</time>
      </trkpt>
      <trkpt lat="43.760392712429166" lon="11.896890308707952">
        <ele>967.70000000000005</ele>
        <time>2016-06-05T08:20:19Z</time>
      </trkpt>
      <trkpt lat="43.760446356609464" lon="11.896735746413469">
        <ele>966.25999999999999</ele>
        <time>2016-06-05T08:20:30Z</time>
      </trkpt>
      <trkpt lat="43.760451469570398" lon="11.896717976778746">
        <ele>966.25999999999999</ele>
        <time>2016-06-05T08:20:31Z</time>
      </trkpt>
      <trkpt lat="43.760521877557039" lon="11.896524941548705">
        <ele>964.82000000000005</ele>
        <time>2016-06-05T08:20:44Z</time>
      </trkpt>
      <trkpt lat="43.760564709082246" lon="11.896389238536358">
        <ele>964.34000000000003</ele>
        <time>2016-06-05T08:20:55Z</time>
      </trkpt>
      <trkpt lat="43.760637044906616" lon="11.896208692342043">
        <ele>963.38</ele>
        <time>2016-06-05T08:21:08Z</time>
      </trkpt>
      <trkpt lat="43.760751122608781" lon="11.896076425909996">
        <ele>962.41999999999996</ele>
        <time>2016-06-05T08:21:21Z</time>
      </trkpt>
      <trkpt lat="43.760804934427142" lon="11.895945752039552">
        <ele>961.94000000000005</ele>
        <time>2016-06-05T08:21:31Z</time>
      </trkpt>
      <trkpt lat="43.760878695175052" lon="11.895862855017185">
        <ele>960.49000000000001</ele>
        <time>2016-06-05T08:21:40Z</time>
      </trkpt>
      <trkpt lat="43.760985983535647" lon="11.89577853307128">
        <ele>959.04999999999995</ele>
        <time>2016-06-05T08:21:52Z</time>
      </trkpt>
      <trkpt lat="43.761106096208096" lon="11.895696306601167">
        <ele>956.64999999999998</ele>
        <time>2016-06-05T08:22:04Z</time>
      </trkpt>
      <trkpt lat="43.761255545541644" lon="11.895674513652921">
        <ele>954.25</ele>
        <time>2016-06-05T08:22:17Z</time>
      </trkpt>
      <trkpt lat="43.761396277695894" lon="11.895660683512688">
        <ele>951.84000000000003</ele>
        <time>2016-06-05T08:22:29Z</time>
      </trkpt>
      <trkpt lat="43.761487891897559" lon="11.895754560828209">
        <ele>950.88</ele>
        <time>2016-06-05T08:22:38Z</time>
      </trkpt>
      <trkpt lat="43.761545224115252" lon="11.89592219889164">
        <ele>949.44000000000005</ele>
        <time>2016-06-05T08:22:49Z</time>
      </trkpt>
      <trkpt lat="43.761632228270173" lon="11.896110540255904">
        <ele>948</ele>
        <time>2016-06-05T08:23:02Z</time>
      </trkpt>
      <trkpt lat="43.761716466397047" lon="11.896279435604811">
        <ele>947.51999999999998</ele>
        <time>2016-06-05T08:23:15Z</time>
      </trkpt>
      <trkpt lat="43.761824760586023" lon="11.896397788077593">
        <ele>947.03999999999996</ele>
        <time>2016-06-05T08:23:28Z</time>
      </trkpt>
      <trkpt lat="43.761805733665824" lon="11.896460736170411">
        <ele>946.55999999999995</ele>
        <time>2016-06-05T08:23:41Z</time>
      </trkpt>
      <trkpt lat="43.76182409003377" lon="11.896457299590111">
        <ele>947.03999999999996</ele>
        <time>2016-06-05T08:24:02Z</time>
      </trkpt>
      <trkpt lat="43.761845212429762" lon="11.896444642916322">
        <ele>947.03999999999996</ele>
        <time>2016-06-05T08:24:05Z</time>
      </trkpt>
      <trkpt lat="43.76199315302074" lon="11.896371385082603">
        <ele>945.11000000000001</ele>
        <time>2016-06-05T08:24:19Z</time>
      </trkpt>
      <trkpt lat="43.762123910710216" lon="11.896363338455558">
        <ele>943.66999999999996</ele>
        <time>2016-06-05T08:24:30Z</time>
      </trkpt>
      <trkpt lat="43.762273611500859" lon="11.89636149443686">
        <ele>941.75</ele>
        <time>2016-06-05T08:24:43Z</time>
      </trkpt>
      <trkpt lat="43.762419037520885" lon="11.896299971267581">
        <ele>940.30999999999995</ele>
        <time>2016-06-05T08:24:58Z</time>
      </trkpt>
      <trkpt lat="43.762541161850095" lon="11.896335259079933">
        <ele>938.38</ele>
        <time>2016-06-05T08:25:09Z</time>
      </trkpt>
      <trkpt lat="43.762593800202012" lon="11.896372810006142">
        <ele>937.89999999999998</ele>
        <time>2016-06-05T08:25:13Z</time>
      </trkpt>
      <trkpt lat="43.762687593698502" lon="11.896482026204467">
        <ele>935.5</ele>
        <time>2016-06-05T08:25:25Z</time>
      </trkpt>
      <trkpt lat="43.762803180143237" lon="11.896545812487602">
        <ele>933.58000000000004</ele>
        <time>2016-06-05T08:25:37Z</time>
      </trkpt>
      <trkpt lat="43.762898230925202" lon="11.896586213260889">
        <ele>931.64999999999998</ele>
        <time>2016-06-05T08:25:48Z</time>
      </trkpt>
      <trkpt lat="43.762987749651074" lon="11.896653352305293">
        <ele>929.25</ele>
        <time>2016-06-05T08:25:59Z</time>
      </trkpt>
      <trkpt lat="43.763049524277449" lon="11.896789306774735">
        <ele>926.85000000000002</ele>
        <time>2016-06-05T08:26:12Z</time>
      </trkpt>
      <trkpt lat="43.763108868151903" lon="11.897011678665876">
        <ele>925.40999999999997</ele>
        <time>2016-06-05T08:26:23Z</time>
      </trkpt>
      <trkpt lat="43.763110544532537" lon="11.897279983386397">
        <ele>922.03999999999996</ele>
        <time>2016-06-05T08:26:38Z</time>
      </trkpt>
      <trkpt lat="43.763109622523189" lon="11.897298758849502">
        <ele>922.03999999999996</ele>
        <time>2016-06-05T08:26:39Z</time>
      </trkpt>
      <trkpt lat="43.763031838461757" lon="11.897515347227454">
        <ele>920.60000000000002</ele>
        <time>2016-06-05T08:26:54Z</time>
      </trkpt>
      <trkpt lat="43.762890519574285" lon="11.897625988349319">
        <ele>918.20000000000005</ele>
        <time>2016-06-05T08:27:08Z</time>
      </trkpt>
      <trkpt lat="43.762792116031051" lon="11.897748531773686">
        <ele>916.26999999999998</ele>
        <time>2016-06-05T08:27:20Z</time>
      </trkpt>
      <trkpt lat="43.76266504637897" lon="11.897925389930606">
        <ele>913.87</ele>
        <time>2016-06-05T08:27:35Z</time>
      </trkpt>
      <trkpt lat="43.762556919828057" lon="11.898055812343955">
        <ele>911.95000000000005</ele>
        <time>2016-06-05T08:27:47Z</time>
      </trkpt>
      <trkpt lat="43.76253948546946" lon="11.898080622777343">
        <ele>911.95000000000005</ele>
        <time>2016-06-05T08:27:49Z</time>
      </trkpt>
      <trkpt lat="43.762540742754936" lon="11.89828715287149">
        <ele>909.53999999999996</ele>
        <time>2016-06-05T08:28:03Z</time>
      </trkpt>
      <trkpt lat="43.762598745524883" lon="11.898433417081833">
        <ele>907.62</ele>
        <time>2016-06-05T08:28:14Z</time>
      </trkpt>
      <trkpt lat="43.762680804356933" lon="11.898627290502191">
        <ele>906.17999999999995</ele>
        <time>2016-06-05T08:28:29Z</time>
      </trkpt>
      <trkpt lat="43.762686839327216" lon="11.898640114814043">
        <ele>906.17999999999995</ele>
        <time>2016-06-05T08:28:30Z</time>
      </trkpt>
      <trkpt lat="43.76277887262404" lon="11.898837592452765">
        <ele>904.74000000000001</ele>
        <time>2016-06-05T08:28:44Z</time>
      </trkpt>
      <trkpt lat="43.762866798788309" lon="11.899068262428045">
        <ele>903.77999999999997</ele>
        <time>2016-06-05T08:29:00Z</time>
      </trkpt>
      <trkpt lat="43.762985151261091" lon="11.899230871349573">
        <ele>903.29999999999995</ele>
        <time>2016-06-05T08:29:14Z</time>
      </trkpt>
      <trkpt lat="43.763161841779947" lon="11.899280995130539">
        <ele>901.85000000000002</ele>
        <time>2016-06-05T08:29:30Z</time>
      </trkpt>
      <trkpt lat="43.76330173574388" lon="11.899367580190301">
        <ele>901.37</ele>
        <time>2016-06-05T08:29:44Z</time>
      </trkpt>
      <trkpt lat="43.763329144567251" lon="11.899405885487795">
        <ele>901.37</ele>
        <time>2016-06-05T08:29:47Z</time>
      </trkpt>
      <trkpt lat="43.763366192579269" lon="11.899594562128186">
        <ele>900.40999999999997</ele>
        <time>2016-06-05T08:29:59Z</time>
      </trkpt>
      <trkpt lat="43.763364683836699" lon="11.899803187698126">
        <ele>899.92999999999995</ele>
        <time>2016-06-05T08:30:12Z</time>
      </trkpt>
      <trkpt lat="43.763359989970922" lon="11.900000832974911">
        <ele>898.97000000000003</ele>
        <time>2016-06-05T08:30:24Z</time>
      </trkpt>
      <trkpt lat="43.763353787362576" lon="11.900127734988928">
        <ele>898.00999999999999</ele>
        <time>2016-06-05T08:30:31Z</time>
      </trkpt>
      <trkpt lat="43.763460824266076" lon="11.900312388315797">
        <ele>896.57000000000005</ele>
        <time>2016-06-05T08:30:46Z</time>
      </trkpt>
      <trkpt lat="43.76359443180263" lon="11.900455132126808">
        <ele>894.63999999999999</ele>
        <time>2016-06-05T08:31:01Z</time>
      </trkpt>
      <trkpt lat="43.763736840337515" lon="11.900601899251342">
        <ele>893.20000000000005</ele>
        <time>2016-06-05T08:31:16Z</time>
      </trkpt>
      <trkpt lat="43.763863490894437" lon="11.900646239519119">
        <ele>891.27999999999997</ele>
        <time>2016-06-05T08:31:28Z</time>
      </trkpt>
      <trkpt lat="43.763921409845352" lon="11.900669708848">
        <ele>890.79999999999995</ele>
        <time>2016-06-05T08:31:33Z</time>
      </trkpt>
      <trkpt lat="43.764094328507781" lon="11.900699296966195">
        <ele>887.90999999999997</ele>
        <time>2016-06-05T08:31:49Z</time>
      </trkpt>
      <trkpt lat="43.764227600768209" lon="11.900741374120116">
        <ele>885.99000000000001</ele>
        <time>2016-06-05T08:32:01Z</time>
      </trkpt>
      <trkpt lat="43.764381241053343" lon="11.900840448215604">
        <ele>884.07000000000005</ele>
        <time>2016-06-05T08:32:15Z</time>
      </trkpt>
      <trkpt lat="43.764511998742819" lon="11.901046559214592">
        <ele>881.66999999999996</ele>
        <time>2016-06-05T08:32:31Z</time>
      </trkpt>
      <trkpt lat="43.764624819159508" lon="11.901165414601564">
        <ele>880.22000000000003</ele>
        <time>2016-06-05T08:32:42Z</time>
      </trkpt>
      <trkpt lat="43.764788433909416" lon="11.901223585009575">
        <ele>879.25999999999999</ele>
        <time>2016-06-05T08:32:57Z</time>
      </trkpt>
      <trkpt lat="43.764917347580194" lon="11.901220735162497">
        <ele>878.77999999999997</ele>
        <time>2016-06-05T08:33:09Z</time>
      </trkpt>
      <trkpt lat="43.764940146356821" lon="11.901225009933114">
        <ele>878.77999999999997</ele>
        <time>2016-06-05T08:33:11Z</time>
      </trkpt>
      <trkpt lat="43.765051960945129" lon="11.901325006037951">
        <ele>877.82000000000005</ele>
        <time>2016-06-05T08:33:23Z</time>
      </trkpt>
      <trkpt lat="43.765156315639615" lon="11.901527512818575">
        <ele>876.86000000000001</ele>
        <time>2016-06-05T08:33:38Z</time>
      </trkpt>
      <trkpt lat="43.765243655070662" lon="11.90167679451406">
        <ele>876.86000000000001</ele>
        <time>2016-06-05T08:33:49Z</time>
      </trkpt>
      <trkpt lat="43.765263520181179" lon="11.901739407330751">
        <ele>876.86000000000001</ele>
        <time>2016-06-05T08:33:53Z</time>
      </trkpt>
      <trkpt lat="43.765294114127755" lon="11.90192112699151">
        <ele>876.38</ele>
        <time>2016-06-05T08:34:04Z</time>
      </trkpt>
      <trkpt lat="43.765320517122746" lon="11.902067558839917">
        <ele>876.38</ele>
        <time>2016-06-05T08:34:13Z</time>
      </trkpt>
      <trkpt lat="43.765363348647952" lon="11.902214996516705">
        <ele>875.89999999999998</ele>
        <time>2016-06-05T08:34:23Z</time>
      </trkpt>
      <trkpt lat="43.765378436073661" lon="11.902309879660606">
        <ele>875.41999999999996</ele>
        <time>2016-06-05T08:34:34Z</time>
      </trkpt>
      <trkpt lat="43.765367455780506" lon="11.902315830811858">
        <ele>875.41999999999996</ele>
        <time>2016-06-05T08:34:46Z</time>
      </trkpt>
      <trkpt lat="43.765394194051623" lon="11.902365786954761">
        <ele>875.89999999999998</ele>
        <time>2016-06-05T08:34:59Z</time>
      </trkpt>
      <trkpt lat="43.765427973121405" lon="11.90253434702754">
        <ele>877.34000000000003</ele>
        <time>2016-06-05T08:35:11Z</time>
      </trkpt>
      <trkpt lat="43.765479605644941" lon="11.902750432491302">
        <ele>878.29999999999995</ele>
        <time>2016-06-05T08:35:26Z</time>
      </trkpt>
      <trkpt lat="43.765592090785503" lon="11.902938019484282">
        <ele>878.29999999999995</ele>
        <time>2016-06-05T08:35:43Z</time>
      </trkpt>
      <trkpt lat="43.765593348070979" lon="11.902962997555733">
        <ele>877.82000000000005</ele>
        <time>2016-06-05T08:35:53Z</time>
      </trkpt>
      <trkpt lat="43.765602568164468" lon="11.902987975627184">
        <ele>877.82000000000005</ele>
        <time>2016-06-05T08:36:04Z</time>
      </trkpt>
      <trkpt lat="43.765617655590177" lon="11.903008595108986">
        <ele>878.29999999999995</ele>
        <time>2016-06-05T08:36:17Z</time>
      </trkpt>
      <trkpt lat="43.765666354447603" lon="11.903076991438866">
        <ele>878.77999999999997</ele>
        <time>2016-06-05T08:36:29Z</time>
      </trkpt>
      <trkpt lat="43.765703737735748" lon="11.903176736086607">
        <ele>879.74000000000001</ele>
        <time>2016-06-05T08:36:38Z</time>
      </trkpt>
      <trkpt lat="43.765642130747437" lon="11.903199031949043">
        <ele>881.19000000000005</ele>
        <time>2016-06-05T08:36:48Z</time>
      </trkpt>
      <trkpt lat="43.76558261923492" lon="11.903215292841196">
        <ele>882.63</ele>
        <time>2016-06-05T08:36:58Z</time>
      </trkpt>
      <trkpt lat="43.765527633950114" lon="11.9032047316432">
        <ele>882.63</ele>
        <time>2016-06-05T08:37:09Z</time>
      </trkpt>
      <trkpt lat="43.765538781881332" lon="11.903206659480929">
        <ele>882.63</ele>
        <time>2016-06-05T08:37:23Z</time>
      </trkpt>
      <trkpt lat="43.765533333644271" lon="11.903212945908308">
        <ele>882.63</ele>
        <time>2016-06-05T08:37:36Z</time>
      </trkpt>
      <trkpt lat="43.76553718931973" lon="11.903190147131681">
        <ele>883.11000000000001</ele>
        <time>2016-06-05T08:38:01Z</time>
      </trkpt>
      <trkpt lat="43.765579182654619" lon="11.903205905109644">
        <ele>883.11000000000001</ele>
        <time>2016-06-05T08:38:19Z</time>
      </trkpt>
      <trkpt lat="43.76559829339385" lon="11.903208587318659">
        <ele>883.11000000000001</ele>
        <time>2016-06-05T08:38:38Z</time>
      </trkpt>
      <trkpt lat="43.765592677518725" lon="11.903186542913318">
        <ele>883.11000000000001</ele>
        <time>2016-06-05T08:38:59Z</time>
      </trkpt>
      <trkpt lat="43.765591671690345" lon="11.9032012950629">
        <ele>883.59000000000003</ele>
        <time>2016-06-05T08:39:26Z</time>
      </trkpt>
      <trkpt lat="43.765599466860294" lon="11.903194924816489">
        <ele>883.59000000000003</ele>
        <time>2016-06-05T08:39:48Z</time>
      </trkpt>
      <trkpt lat="43.765587480738759" lon="11.903173718601465">
        <ele>883.59000000000003</ele>
        <time>2016-06-05T08:40:12Z</time>
      </trkpt>
      <trkpt lat="43.765586139634252" lon="11.90317690372467">
        <ele>883.59000000000003</ele>
        <time>2016-06-05T08:40:37Z</time>
      </trkpt>
      <trkpt lat="43.76558312214911" lon="11.903174640610814">
        <ele>883.59000000000003</ele>
        <time>2016-06-05T08:40:58Z</time>
      </trkpt>
      <trkpt lat="43.765581864863634" lon="11.903159469366074">
        <ele>884.07000000000005</ele>
        <time>2016-06-05T08:41:19Z</time>
      </trkpt>
      <trkpt lat="43.76558312214911" lon="11.903162403032184">
        <ele>884.07000000000005</ele>
        <time>2016-06-05T08:41:45Z</time>
      </trkpt>
      <trkpt lat="43.765584798529744" lon="11.903122924268246">
        <ele>884.07000000000005</ele>
        <time>2016-06-05T08:42:04Z</time>
      </trkpt>
      <trkpt lat="43.765574740245938" lon="11.903125941753387">
        <ele>884.07000000000005</ele>
        <time>2016-06-05T08:42:23Z</time>
      </trkpt>
      <trkpt lat="43.765599550679326" lon="11.90311579965055">
        <ele>884.07000000000005</ele>
        <time>2016-06-05T08:42:46Z</time>
      </trkpt>
      <trkpt lat="43.765588570386171" lon="11.903185956180096">
        <ele>884.54999999999995</ele>
        <time>2016-06-05T08:43:07Z</time>
      </trkpt>
      <trkpt lat="43.765566442161798" lon="11.903172126039863">
        <ele>884.54999999999995</ele>
        <time>2016-06-05T08:43:26Z</time>
      </trkpt>
      <trkpt lat="43.765569711104035" lon="11.903177909553051">
        <ele>884.54999999999995</ele>
        <time>2016-06-05T08:43:45Z</time>
      </trkpt>
      <trkpt lat="43.765576919540763" lon="11.903178915381432">
        <ele>884.54999999999995</ele>
        <time>2016-06-05T08:44:14Z</time>
      </trkpt>
      <trkpt lat="43.765579853206873" lon="11.903142454102635">
        <ele>884.54999999999995</ele>
        <time>2016-06-05T08:44:38Z</time>
      </trkpt>
      <trkpt lat="43.765555210411549" lon="11.903145555406809">
        <ele>884.54999999999995</ele>
        <time>2016-06-05T08:44:57Z</time>
      </trkpt>
      <trkpt lat="43.765589743852615" lon="11.90314119681716">
        <ele>884.54999999999995</ele>
        <time>2016-06-05T08:45:16Z</time>
      </trkpt>
      <trkpt lat="43.76569552347064" lon="11.903140107169747">
        <ele>883.11000000000001</ele>
        <time>2016-06-05T08:45:28Z</time>
      </trkpt>
      <trkpt lat="43.765731733292341" lon="11.90313340164721">
        <ele>881.66999999999996</ele>
        <time>2016-06-05T08:45:34Z</time>
      </trkpt>
      <trkpt lat="43.765848660841584" lon="11.903070956468582">
        <ele>882.14999999999998</ele>
        <time>2016-06-05T08:45:49Z</time>
      </trkpt>
      <trkpt lat="43.765922002494335" lon="11.903005577623844">
        <ele>882.14999999999998</ele>
        <time>2016-06-05T08:46:02Z</time>
      </trkpt>
      <trkpt lat="43.765918230637908" lon="11.902986550703645">
        <ele>884.54999999999995</ele>
        <time>2016-06-05T08:46:04Z</time>
      </trkpt>
      <trkpt lat="43.76588948071003" lon="11.902926787734032">
        <ele>885.50999999999999</ele>
        <time>2016-06-05T08:46:10Z</time>
      </trkpt>
      <trkpt lat="43.765828376635909" lon="11.902818325906992">
        <ele>886.47000000000003</ele>
        <time>2016-06-05T08:46:20Z</time>
      </trkpt>
      <trkpt lat="43.76582745462656" lon="11.90279234200716">
        <ele>886.47000000000003</ele>
        <time>2016-06-05T08:46:22Z</time>
      </trkpt>
      <trkpt lat="43.765906747430563" lon="11.902650855481625">
        <ele>887.90999999999997</ele>
        <time>2016-06-05T08:46:34Z</time>
      </trkpt>
      <trkpt lat="43.765985537320375" lon="11.902584554627538">
        <ele>888.88</ele>
        <time>2016-06-05T08:46:44Z</time>
      </trkpt>
      <trkpt lat="43.765992661938071" lon="11.902581872418523">
        <ele>889.36000000000001</ele>
        <time>2016-06-05T08:46:53Z</time>
      </trkpt>
      <trkpt lat="43.766045887023211" lon="11.902571311220527">
        <ele>889.84000000000003</ele>
        <time>2016-06-05T08:47:01Z</time>
      </trkpt>
      <trkpt lat="43.766057454049587" lon="11.902582626789808">
        <ele>889.84000000000003</ele>
        <time>2016-06-05T08:47:12Z</time>
      </trkpt>
      <trkpt lat="43.766026441007853" lon="11.902584638446569">
        <ele>889.84000000000003</ele>
        <time>2016-06-05T08:47:19Z</time>
      </trkpt>
      <trkpt lat="43.765985537320375" lon="11.902564857155085">
        <ele>889.36000000000001</ele>
        <time>2016-06-05T08:47:24Z</time>
      </trkpt>
      <trkpt lat="43.765979669988155" lon="11.902433093637228">
        <ele>890.79999999999995</ele>
        <time>2016-06-05T08:47:35Z</time>
      </trkpt>
      <trkpt lat="43.76597011461854" lon="11.902371821925044">
        <ele>892.72000000000003</ele>
        <time>2016-06-05T08:47:42Z</time>
      </trkpt>
      <trkpt lat="43.765950836241245" lon="11.902273669838905">
        <ele>894.15999999999997</ele>
        <time>2016-06-05T08:47:52Z</time>
      </trkpt>
      <trkpt lat="43.765924433246255" lon="11.902170907706022">
        <ele>896.57000000000005</ele>
        <time>2016-06-05T08:48:03Z</time>
      </trkpt>
      <trkpt lat="43.765926277264953" lon="11.902061020955443">
        <ele>898.49000000000001</ele>
        <time>2016-06-05T08:48:15Z</time>
      </trkpt>
      <trkpt lat="43.765953350812197" lon="11.901940489187837">
        <ele>899.92999999999995</ele>
        <time>2016-06-05T08:48:27Z</time>
      </trkpt>
      <trkpt lat="43.765980508178473" lon="11.901828674599528">
        <ele>901.85000000000002</ele>
        <time>2016-06-05T08:48:38Z</time>
      </trkpt>
      <trkpt lat="43.766009593382478" lon="11.901741754263639">
        <ele>903.29999999999995</ele>
        <time>2016-06-05T08:48:47Z</time>
      </trkpt>
      <trkpt lat="43.766034655272961" lon="11.901627508923411">
        <ele>904.74000000000001</ele>
        <time>2016-06-05T08:48:59Z</time>
      </trkpt>
      <trkpt lat="43.766053263098001" lon="11.901510832831264">
        <ele>906.17999999999995</ele>
        <time>2016-06-05T08:49:09Z</time>
      </trkpt>
      <trkpt lat="43.766048485413194" lon="11.901393150910735">
        <ele>907.13999999999999</ele>
        <time>2016-06-05T08:49:19Z</time>
      </trkpt>
      <trkpt lat="43.766050077974796" lon="11.901281084865332">
        <ele>908.58000000000004</ele>
        <time>2016-06-05T08:49:29Z</time>
      </trkpt>
      <trkpt lat="43.766080504283309" lon="11.901158960536122">
        <ele>910.02999999999997</ele>
        <time>2016-06-05T08:49:40Z</time>
      </trkpt>
      <trkpt lat="43.766085198149085" lon="11.901147980242968">
        <ele>910.02999999999997</ele>
        <time>2016-06-05T08:49:41Z</time>
      </trkpt>
      <trkpt lat="43.766141440719366" lon="11.901023173704743">
        <ele>911.47000000000003</ele>
        <time>2016-06-05T08:49:52Z</time>
      </trkpt>
      <trkpt lat="43.766181590035558" lon="11.900966512039304">
        <ele>912.42999999999995</ele>
        <time>2016-06-05T08:49:59Z</time>
      </trkpt>
      <trkpt lat="43.766250405460596" lon="11.900880681350827">
        <ele>913.38999999999999</ele>
        <time>2016-06-05T08:50:09Z</time>
      </trkpt>
      <trkpt lat="43.766322741284966" lon="11.900786049664021">
        <ele>914.83000000000004</ele>
        <time>2016-06-05T08:50:20Z</time>
      </trkpt>
      <trkpt lat="43.7663659080863" lon="11.900704745203257">
        <ele>916.26999999999998</ele>
        <time>2016-06-05T08:50:30Z</time>
      </trkpt>
      <trkpt lat="43.766425922513008" lon="11.900630984455347">
        <ele>917.24000000000001</ele>
        <time>2016-06-05T08:50:40Z</time>
      </trkpt>
      <trkpt lat="43.76648660749197" lon="11.900534592568874">
        <ele>918.67999999999995</ele>
        <time>2016-06-05T08:50:50Z</time>
      </trkpt>
      <trkpt lat="43.766541844233871" lon="11.900417665019631">
        <ele>919.63999999999999</ele>
        <time>2016-06-05T08:51:01Z</time>
      </trkpt>
      <trkpt lat="43.766563218086958" lon="11.900355303660035">
        <ele>920.12</ele>
        <time>2016-06-05T08:51:07Z</time>
      </trkpt>
      <trkpt lat="43.76660387031734" lon="11.900230245664716">
        <ele>921.55999999999995</ele>
        <time>2016-06-05T08:51:19Z</time>
      </trkpt>
      <trkpt lat="43.76664686948061" lon="11.900102170184255">
        <ele>922.51999999999998</ele>
        <time>2016-06-05T08:51:31Z</time>
      </trkpt>
      <trkpt lat="43.766683330759406" lon="11.899957498535514">
        <ele>924.45000000000005</ele>
        <time>2016-06-05T08:51:45Z</time>
      </trkpt>
      <trkpt lat="43.766713002696633" lon="11.89982489682734">
        <ele>925.88999999999999</ele>
        <time>2016-06-05T08:51:59Z</time>
      </trkpt>
      <trkpt lat="43.766693472862244" lon="11.899736216291785">
        <ele>926.85000000000002</ele>
        <time>2016-06-05T08:52:11Z</time>
      </trkpt>
      <trkpt lat="43.766675535589457" lon="11.899655414745212">
        <ele>928.28999999999996</ele>
        <time>2016-06-05T08:52:22Z</time>
      </trkpt>
      <trkpt lat="43.76664980314672" lon="11.89959766343236">
        <ele>929.73000000000002</ele>
        <time>2016-06-05T08:52:33Z</time>
      </trkpt>
      <trkpt lat="43.766598170623183" lon="11.899514682590961">
        <ele>930.21000000000004</ele>
        <time>2016-06-05T08:52:44Z</time>
      </trkpt>
      <trkpt lat="43.766542682424188" lon="11.899420218542218">
        <ele>932.13999999999999</ele>
        <time>2016-06-05T08:52:56Z</time>
      </trkpt>
      <trkpt lat="43.766497587785125" lon="11.899322988465428">
        <ele>933.58000000000004</ele>
        <time>2016-06-05T08:53:08Z</time>
      </trkpt>
      <trkpt lat="43.766462970525026" lon="11.899213772267103">
        <ele>935.01999999999998</ele>
        <time>2016-06-05T08:53:21Z</time>
      </trkpt>
      <trkpt lat="43.766436735168099" lon="11.899122912436724">
        <ele>936.94000000000005</ele>
        <time>2016-06-05T08:53:33Z</time>
      </trkpt>
      <trkpt lat="43.766446458175778" lon="11.898992070928216">
        <ele>938.86000000000001</ele>
        <time>2016-06-05T08:53:47Z</time>
      </trkpt>
      <trkpt lat="43.766516782343388" lon="11.898968098685145">
        <ele>940.78999999999996</ele>
        <time>2016-06-05T08:53:58Z</time>
      </trkpt>
      <trkpt lat="43.76657503657043" lon="11.899018054828048">
        <ele>942.71000000000004</ele>
        <time>2016-06-05T08:54:09Z</time>
      </trkpt>
      <trkpt lat="43.766621304675937" lon="11.898999363183975">
        <ele>944.14999999999998</ele>
        <time>2016-06-05T08:54:21Z</time>
      </trkpt>
      <trkpt lat="43.766684252768755" lon="11.898925183340907">
        <ele>946.07000000000005</ele>
        <time>2016-06-05T08:54:33Z</time>
      </trkpt>
      <trkpt lat="43.766729598864913" lon="11.898868521675467">
        <ele>947.03999999999996</ele>
        <time>2016-06-05T08:54:45Z</time>
      </trkpt>
      <trkpt lat="43.766754744574428" lon="11.898800292983651">
        <ele>948.96000000000004</ele>
        <time>2016-06-05T08:54:56Z</time>
      </trkpt>
      <trkpt lat="43.766781566664577" lon="11.898733992129564">
        <ele>950.39999999999998</ele>
        <time>2016-06-05T08:55:06Z</time>
      </trkpt>
      <trkpt lat="43.766809813678265" lon="11.898660063743591">
        <ele>951.84000000000003</ele>
        <time>2016-06-05T08:55:17Z</time>
      </trkpt>
      <trkpt lat="43.766857758164406" lon="11.898611281067133">
        <ele>954.25</ele>
        <time>2016-06-05T08:55:30Z</time>
      </trkpt>
      <trkpt lat="43.766871839761734" lon="11.898562246933579">
        <ele>955.69000000000005</ele>
        <time>2016-06-05T08:55:41Z</time>
      </trkpt>
      <trkpt lat="43.766912324354053" lon="11.898489994928241">
        <ele>957.61000000000001</ele>
        <time>2016-06-05T08:55:51Z</time>
      </trkpt>
      <trkpt lat="43.766951719298959" lon="11.898445570841432">
        <ele>959.52999999999997</ele>
        <time>2016-06-05T08:56:02Z</time>
      </trkpt>
      <trkpt lat="43.767008716240525" lon="11.898329230025411">
        <ele>960.98000000000002</ele>
        <time>2016-06-05T08:56:16Z</time>
      </trkpt>
      <trkpt lat="43.767068395391107" lon="11.898267958313227">
        <ele>962.89999999999998</ele>
        <time>2016-06-05T08:56:29Z</time>
      </trkpt>
      <trkpt lat="43.76710569486022" lon="11.898200064897537">
        <ele>964.34000000000003</ele>
        <time>2016-06-05T08:56:41Z</time>
      </trkpt>
      <trkpt lat="43.767181970179081" lon="11.898178271949291">
        <ele>965.77999999999997</ele>
        <time>2016-06-05T08:56:52Z</time>
      </trkpt>
      <trkpt lat="43.767261430621147" lon="11.898172656074166">
        <ele>966.25999999999999</ele>
        <time>2016-06-05T08:57:03Z</time>
      </trkpt>
      <trkpt lat="43.767334269359708" lon="11.89810736104846">
        <ele>966.74000000000001</ele>
        <time>2016-06-05T08:57:13Z</time>
      </trkpt>
      <trkpt lat="43.767341393977404" lon="11.898101577535272">
        <ele>966.74000000000001</ele>
        <time>2016-06-05T08:57:14Z</time>
      </trkpt>
      <trkpt lat="43.767406437546015" lon="11.898013735190034">
        <ele>968.17999999999995</ele>
        <time>2016-06-05T08:57:25Z</time>
      </trkpt>
      <trkpt lat="43.767454717308283" lon="11.897907787933946">
        <ele>969.63</ele>
        <time>2016-06-05T08:57:36Z</time>
      </trkpt>
      <trkpt lat="43.767488412559032" lon="11.89784056507051">
        <ele>969.63</ele>
        <time>2016-06-05T08:57:49Z</time>
      </trkpt>
      <trkpt lat="43.767500733956695" lon="11.897685583680868">
        <ele>971.07000000000005</ele>
        <time>2016-06-05T08:58:02Z</time>
      </trkpt>
      <trkpt lat="43.76748338341713" lon="11.897575277835131">
        <ele>971.07000000000005</ele>
        <time>2016-06-05T08:58:11Z</time>
      </trkpt>
      <trkpt lat="43.767453795298934" lon="11.897451058030128">
        <ele>971.07000000000005</ele>
        <time>2016-06-05T08:58:22Z</time>
      </trkpt>
      <trkpt lat="43.767423704266548" lon="11.897285683080554">
        <ele>972.02999999999997</ele>
        <time>2016-06-05T08:58:36Z</time>
      </trkpt>
      <trkpt lat="43.767390176653862" lon="11.897162552922964">
        <ele>972.50999999999999</ele>
        <time>2016-06-05T08:58:47Z</time>
      </trkpt>
      <trkpt lat="43.767342818900943" lon="11.897028107196093">
        <ele>974.42999999999995</ele>
        <time>2016-06-05T08:59:01Z</time>
      </trkpt>
      <trkpt lat="43.767333766445518" lon="11.896889973431826">
        <ele>975.88</ele>
        <time>2016-06-05T08:59:14Z</time>
      </trkpt>
      <trkpt lat="43.767306273803115" lon="11.89679928123951">
        <ele>976.84000000000003</ele>
        <time>2016-06-05T08:59:24Z</time>
      </trkpt>
      <trkpt lat="43.767236368730664" lon="11.896712779998779">
        <ele>978.27999999999997</ele>
        <time>2016-06-05T08:59:36Z</time>
      </trkpt>
      <trkpt lat="43.767211055383086" lon="11.896614460274577">
        <ele>979.24000000000001</ele>
        <time>2016-06-05T08:59:47Z</time>
      </trkpt>
      <trkpt lat="43.767246259376407" lon="11.89649635925889">
        <ele>980.20000000000005</ele>
        <time>2016-06-05T08:59:59Z</time>
      </trkpt>
      <trkpt lat="43.76728406175971" lon="11.896385718137026">
        <ele>981.15999999999997</ele>
        <time>2016-06-05T09:00:09Z</time>
      </trkpt>
      <trkpt lat="43.767303759232163" lon="11.896245991811156">
        <ele>982.12</ele>
        <time>2016-06-05T09:00:20Z</time>
      </trkpt>
      <trkpt lat="43.767340807244182" lon="11.896142894402146">
        <ele>983.09000000000003</ele>
        <time>2016-06-05T09:00:32Z</time>
      </trkpt>
      <trkpt lat="43.767338963225484" lon="11.896120011806488">
        <ele>983.57000000000005</ele>
        <time>2016-06-05T09:00:44Z</time>
      </trkpt>
      <trkpt lat="43.767355978488922" lon="11.896038623526692">
        <ele>984.52999999999997</ele>
        <time>2016-06-05T09:01:00Z</time>
      </trkpt>
      <trkpt lat="43.767345501109958" lon="11.895957570523024">
        <ele>985.49000000000001</ele>
        <time>2016-06-05T09:01:09Z</time>
      </trkpt>
      <trkpt lat="43.767362264916301" lon="11.895939968526363">
        <ele>986.45000000000005</ele>
        <time>2016-06-05T09:01:21Z</time>
      </trkpt>
      <trkpt lat="43.767367210239172" lon="11.895952206104994">
        <ele>986.45000000000005</ele>
        <time>2016-06-05T09:01:34Z</time>
      </trkpt>
      <trkpt lat="43.767355810850859" lon="11.895964443683624">
        <ele>986.45000000000005</ele>
        <time>2016-06-05T09:01:57Z</time>
      </trkpt>
      <trkpt lat="43.767373915761709" lon="11.895993864163756">
        <ele>986.45000000000005</ele>
        <time>2016-06-05T09:02:12Z</time>
      </trkpt>
      <trkpt lat="43.767365114763379" lon="11.895948266610503">
        <ele>986.92999999999995</ele>
        <time>2016-06-05T09:02:26Z</time>
      </trkpt>
      <trkpt lat="43.767404425889254" lon="11.89585086889565">
        <ele>989.33000000000004</ele>
        <time>2016-06-05T09:02:37Z</time>
      </trkpt>
      <trkpt lat="43.767438288778067" lon="11.895716087892652">
        <ele>988.85000000000002</ele>
        <time>2016-06-05T09:02:49Z</time>
      </trkpt>
      <trkpt lat="43.767514061182737" lon="11.895691277459264">
        <ele>990.77999999999997</ele>
        <time>2016-06-05T09:03:01Z</time>
      </trkpt>
      <trkpt lat="43.767558485269547" lon="11.895621959120035">
        <ele>993.17999999999995</ele>
        <time>2016-06-05T09:03:13Z</time>
      </trkpt>
      <trkpt lat="43.767599305137992" lon="11.895519951358438">
        <ele>994.13999999999999</ele>
        <time>2016-06-05T09:03:24Z</time>
      </trkpt>
      <trkpt lat="43.767578853294253" lon="11.895443927496672">
        <ele>995.10000000000002</ele>
        <time>2016-06-05T09:03:34Z</time>
      </trkpt>
      <trkpt lat="43.767566615715623" lon="11.89536664634943">
        <ele>995.10000000000002</ele>
        <time>2016-06-05T09:03:44Z</time>
      </trkpt>
      <trkpt lat="43.767567537724972" lon="11.895250389352441">
        <ele>996.53999999999996</ele>
        <time>2016-06-05T09:03:56Z</time>
      </trkpt>
      <trkpt lat="43.767570974305272" lon="11.895151482895017">
        <ele>998.47000000000003</ele>
        <time>2016-06-05T09:04:10Z</time>
      </trkpt>
      <trkpt lat="43.767610285431147" lon="11.895020976662636">
        <ele>1000.87</ele>
        <time>2016-06-05T09:04:25Z</time>
      </trkpt>
      <trkpt lat="43.767664013430476" lon="11.894910586997867">
        <ele>1004.23</ele>
        <time>2016-06-05T09:04:38Z</time>
      </trkpt>
      <trkpt lat="43.767650853842497" lon="11.894815536215901">
        <ele>1003.75</ele>
        <time>2016-06-05T09:04:47Z</time>
      </trkpt>
      <trkpt lat="43.767626294866204" lon="11.894777063280344">
        <ele>1004.23</ele>
        <time>2016-06-05T09:04:59Z</time>
      </trkpt>
      <trkpt lat="43.767614057287574" lon="11.894771615043283">
        <ele>1004.72</ele>
        <time>2016-06-05T09:05:09Z</time>
      </trkpt>
      <trkpt lat="43.767613302916288" lon="11.894667847082019">
        <ele>1005.6799999999999</ele>
        <time>2016-06-05T09:05:21Z</time>
      </trkpt>
      <trkpt lat="43.767597209662199" lon="11.894612861797214">
        <ele>1006.16</ele>
        <time>2016-06-05T09:05:33Z</time>
      </trkpt>
      <trkpt lat="43.767593186348677" lon="11.894610011950135">
        <ele>1006.16</ele>
        <time>2016-06-05T09:05:47Z</time>
      </trkpt>
      <trkpt lat="43.767587319016457" lon="11.894575394690037">
        <ele>1005.6799999999999</ele>
        <time>2016-06-05T09:06:05Z</time>
      </trkpt>
      <trkpt lat="43.767582792788744" lon="11.89445779658854">
        <ele>1005.2</ele>
        <time>2016-06-05T09:06:17Z</time>
      </trkpt>
      <trkpt lat="43.767617912963033" lon="11.894317734986544">
        <ele>1005.6799999999999</ele>
        <time>2016-06-05T09:06:28Z</time>
      </trkpt>
      <trkpt lat="43.767656134441495" lon="11.894187815487385">
        <ele>1007.12</ele>
        <time>2016-06-05T09:06:40Z</time>
      </trkpt>
      <trkpt lat="43.767721764743328" lon="11.89409133978188">
        <ele>1008.08</ele>
        <time>2016-06-05T09:06:51Z</time>
      </trkpt>
      <trkpt lat="43.76775998622179" lon="11.893990505486727">
        <ele>1010</ele>
        <time>2016-06-05T09:07:02Z</time>
      </trkpt>
      <trkpt lat="43.76777121797204" lon="11.893931077793241">
        <ele>1010.48</ele>
        <time>2016-06-05T09:07:16Z</time>
      </trkpt>
      <trkpt lat="43.767769793048501" lon="11.893934682011604">
        <ele>1010.48</ele>
        <time>2016-06-05T09:07:29Z</time>
      </trkpt>
      <trkpt lat="43.767730314284563" lon="11.893883803859353">
        <ele>1011.4400000000001</ele>
        <time>2016-06-05T09:07:37Z</time>
      </trkpt>
      <trkpt lat="43.767791418358684" lon="11.893924959003925">
        <ele>1011.4400000000001</ele>
        <time>2016-06-05T09:07:48Z</time>
      </trkpt>
      <trkpt lat="43.76786014996469" lon="11.893877517431974">
        <ele>1012.89</ele>
        <time>2016-06-05T09:08:00Z</time>
      </trkpt>
      <trkpt lat="43.767853947356343" lon="11.893861927092075">
        <ele>1012.89</ele>
        <time>2016-06-05T09:08:14Z</time>
      </trkpt>
      <trkpt lat="43.767908765003085" lon="11.893863268196583">
        <ele>1013.37</ele>
        <time>2016-06-05T09:08:22Z</time>
      </trkpt>
      <trkpt lat="43.767999960109591" lon="11.893857987597585">
        <ele>1014.8099999999999</ele>
        <time>2016-06-05T09:08:34Z</time>
      </trkpt>
      <trkpt lat="43.768043797463179" lon="11.893800655379891">
        <ele>1014.8099999999999</ele>
        <time>2016-06-05T09:08:44Z</time>
      </trkpt>
      <trkpt lat="43.768100291490555" lon="11.893803756684065">
        <ele>1014.8099999999999</ele>
        <time>2016-06-05T09:08:58Z</time>
      </trkpt>
      <trkpt lat="43.768197018653154" lon="11.893786825239658">
        <ele>1016.25</ele>
        <time>2016-06-05T09:09:09Z</time>
      </trkpt>
      <trkpt lat="43.768262229859829" lon="11.893801828846335">
        <ele>1016.73</ele>
        <time>2016-06-05T09:09:18Z</time>
      </trkpt>
      <trkpt lat="43.768271701410413" lon="11.893793866038322">
        <ele>1016.73</ele>
        <time>2016-06-05T09:09:19Z</time>
      </trkpt>
      <trkpt lat="43.768402375280857" lon="11.893736869096756">
        <ele>1017.21</ele>
        <time>2016-06-05T09:09:33Z</time>
      </trkpt>
      <trkpt lat="43.768517961725593" lon="11.893681716173887">
        <ele>1018.17</ele>
        <time>2016-06-05T09:09:46Z</time>
      </trkpt>
      <trkpt lat="43.768526259809732" lon="11.893676603212953">
        <ele>1018.17</ele>
        <time>2016-06-05T09:09:47Z</time>
      </trkpt>
      <trkpt lat="43.768646791577339" lon="11.893614996224642">
        <ele>1020.1</ele>
        <time>2016-06-05T09:10:00Z</time>
      </trkpt>
      <trkpt lat="43.768753074109554" lon="11.89357241615653">
        <ele>1021.54</ele>
        <time>2016-06-05T09:10:12Z</time>
      </trkpt>
      <trkpt lat="43.76883446238935" lon="11.893536373972893">
        <ele>1023.46</ele>
        <time>2016-06-05T09:10:24Z</time>
      </trkpt>
      <trkpt lat="43.768930435180664" lon="11.89349228516221">
        <ele>1023.9400000000001</ele>
        <time>2016-06-05T09:10:36Z</time>
      </trkpt>
      <trkpt lat="43.76905188895762" lon="11.893455740064383">
        <ele>1025.8599999999999</ele>
        <time>2016-06-05T09:10:51Z</time>
      </trkpt>
      <trkpt lat="43.769135791808367" lon="11.89339161850512">
        <ele>1025.8599999999999</ele>
        <time>2016-06-05T09:11:04Z</time>
      </trkpt>
      <trkpt lat="43.769211815670133" lon="11.893323808908463">
        <ele>1029.71</ele>
        <time>2016-06-05T09:11:17Z</time>
      </trkpt>
      <trkpt lat="43.76920678652823" lon="11.893323138356209">
        <ele>1029.71</ele>
        <time>2016-06-05T09:11:18Z</time>
      </trkpt>
      <trkpt lat="43.76925908960402" lon="11.893270751461387">
        <ele>1030.1900000000001</ele>
        <time>2016-06-05T09:11:34Z</time>
      </trkpt>
      <trkpt lat="43.769337292760611" lon="11.893230099231005">
        <ele>1030.6700000000001</ele>
        <time>2016-06-05T09:11:47Z</time>
      </trkpt>
      <trkpt lat="43.769415244460106" lon="11.893153069540858">
        <ele>1031.1500000000001</ele>
        <time>2016-06-05T09:11:58Z</time>
      </trkpt>
      <trkpt lat="43.769499901682138" lon="11.893097078427672">
        <ele>1030.6700000000001</ele>
        <time>2016-06-05T09:12:08Z</time>
      </trkpt>
      <trkpt lat="43.769590761512518" lon="11.893062377348542">
        <ele>1030.1900000000001</ele>
        <time>2016-06-05T09:12:20Z</time>
      </trkpt>
      <trkpt lat="43.769736438989639" lon="11.892990963533521">
        <ele>1028.75</ele>
        <time>2016-06-05T09:12:34Z</time>
      </trkpt>
      <trkpt lat="43.769849929958582" lon="11.892935307696462">
        <ele>1027.79</ele>
        <time>2016-06-05T09:12:48Z</time>
      </trkpt>
      <trkpt lat="43.769928887486458" lon="11.892823241651058">
        <ele>1027.3099999999999</ele>
        <time>2016-06-05T09:13:00Z</time>
      </trkpt>
      <trkpt lat="43.770045647397637" lon="11.892741266638041">
        <ele>1027.79</ele>
        <time>2016-06-05T09:13:12Z</time>
      </trkpt>
      <trkpt lat="43.770135920494795" lon="11.892661051824689">
        <ele>1028.75</ele>
        <time>2016-06-05T09:13:23Z</time>
      </trkpt>
      <trkpt lat="43.770208926871419" lon="11.892563821747899">
        <ele>1030.1900000000001</ele>
        <time>2016-06-05T09:13:34Z</time>
      </trkpt>
      <trkpt lat="43.770272377878428" lon="11.892457623034716">
        <ele>1030.1900000000001</ele>
        <time>2016-06-05T09:13:45Z</time>
      </trkpt>
      <trkpt lat="43.770308000966907" lon="11.892360812053084">
        <ele>1030.6700000000001</ele>
        <time>2016-06-05T09:13:55Z</time>
      </trkpt>
      <trkpt lat="43.770349994301796" lon="11.892227875068784">
        <ele>1031.6300000000001</ele>
        <time>2016-06-05T09:14:06Z</time>
      </trkpt>
      <trkpt lat="43.770376816391945" lon="11.89209183678031">
        <ele>1033.0699999999999</ele>
        <time>2016-06-05T09:14:18Z</time>
      </trkpt>
      <trkpt lat="43.770375978201628" lon="11.891969628632069">
        <ele>1035</ele>
        <time>2016-06-05T09:14:30Z</time>
      </trkpt>
      <trkpt lat="43.770421072840691" lon="11.891873069107533">
        <ele>1036.9200000000001</ele>
        <time>2016-06-05T09:14:44Z</time>
      </trkpt>
      <trkpt lat="43.770437920466065" lon="11.891802158206701">
        <ele>1038.3599999999999</ele>
        <time>2016-06-05T09:14:55Z</time>
      </trkpt>
      <trkpt lat="43.77044009976089" lon="11.891722278669477">
        <ele>1040.76</ele>
        <time>2016-06-05T09:15:08Z</time>
      </trkpt>
      <trkpt lat="43.770474214106798" lon="11.891636615619063">
        <ele>1043.1700000000001</ele>
        <time>2016-06-05T09:15:21Z</time>
      </trkpt>
      <trkpt lat="43.770510256290436" lon="11.891535362228751">
        <ele>1045.0899999999999</ele>
        <time>2016-06-05T09:15:36Z</time>
      </trkpt>
      <trkpt lat="43.77053246833384" lon="11.891494793817401">
        <ele>1046.53</ele>
        <time>2016-06-05T09:15:49Z</time>
      </trkpt>
      <trkpt lat="43.770561888813972" lon="11.891464032232761">
        <ele>1049.4200000000001</ele>
        <time>2016-06-05T09:16:04Z</time>
      </trkpt>
      <trkpt lat="43.770559374243021" lon="11.891372753307223">
        <ele>1050.3800000000001</ele>
        <time>2016-06-05T09:16:14Z</time>
      </trkpt>
      <trkpt lat="43.770623244345188" lon="11.891291700303555">
        <ele>1052.78</ele>
        <time>2016-06-05T09:16:26Z</time>
      </trkpt>
      <trkpt lat="43.77066976390779" lon="11.891220454126596">
        <ele>1054.22</ele>
        <time>2016-06-05T09:16:40Z</time>
      </trkpt>
      <trkpt lat="43.770703207701445" lon="11.891150968149304">
        <ele>1055.1800000000001</ele>
        <time>2016-06-05T09:16:48Z</time>
      </trkpt>
      <trkpt lat="43.770761797204614" lon="11.891086427494884">
        <ele>1056.1500000000001</ele>
        <time>2016-06-05T09:16:59Z</time>
      </trkpt>
      <trkpt lat="43.770826170220971" lon="11.890993639826775">
        <ele>1058.0699999999999</ele>
        <time>2016-06-05T09:17:12Z</time>
      </trkpt>
      <trkpt lat="43.770916275680065" lon="11.890955250710249">
        <ele>1059.03</ele>
        <time>2016-06-05T09:17:24Z</time>
      </trkpt>
      <trkpt lat="43.771010655909777" lon="11.890976205468178">
        <ele>1060.47</ele>
        <time>2016-06-05T09:17:36Z</time>
      </trkpt>
      <trkpt lat="43.77109338529408" lon="11.891015097498894">
        <ele>1062.3900000000001</ele>
        <time>2016-06-05T09:17:47Z</time>
      </trkpt>
      <trkpt lat="43.77117401920259" lon="11.89104669727385">
        <ele>1063.3599999999999</ele>
        <time>2016-06-05T09:17:57Z</time>
      </trkpt>
      <trkpt lat="43.771278373897076" lon="11.891084834933281">
        <ele>1064.3199999999999</ele>
        <time>2016-06-05T09:18:09Z</time>
      </trkpt>
      <trkpt lat="43.771394714713097" lon="11.891151973977685">
        <ele>1063.8399999999999</ele>
        <time>2016-06-05T09:18:20Z</time>
      </trkpt>
      <trkpt lat="43.771521365270019" lon="11.891117440536618">
        <ele>1063.3599999999999</ele>
        <time>2016-06-05T09:18:34Z</time>
      </trkpt>
      <trkpt lat="43.771557994186878" lon="11.891087684780359">
        <ele>1062.8699999999999</ele>
        <time>2016-06-05T09:18:39Z</time>
      </trkpt>
      <trkpt lat="43.771662600338459" lon="11.890999339520931">
        <ele>1061.9100000000001</ele>
        <time>2016-06-05T09:18:50Z</time>
      </trkpt>
      <trkpt lat="43.771764691919088" lon="11.890931529924273">
        <ele>1061.4300000000001</ele>
        <time>2016-06-05T09:19:02Z</time>
      </trkpt>
      <trkpt lat="43.771852282807231" lon="11.890875287353992">
        <ele>1061.9100000000001</ele>
        <time>2016-06-05T09:19:14Z</time>
      </trkpt>
      <trkpt lat="43.771945154294372" lon="11.890773195773363">
        <ele>1062.8699999999999</ele>
        <time>2016-06-05T09:19:25Z</time>
      </trkpt>
      <trkpt lat="43.772007850930095" lon="11.890657190233469">
        <ele>1063.3599999999999</ele>
        <time>2016-06-05T09:19:36Z</time>
      </trkpt>
      <trkpt lat="43.772069457918406" lon="11.890569012612104">
        <ele>1063.8399999999999</ele>
        <time>2016-06-05T09:19:46Z</time>
      </trkpt>
      <trkpt lat="43.772147661074996" lon="11.890475889667869">
        <ele>1065.76</ele>
        <time>2016-06-05T09:19:59Z</time>
      </trkpt>
      <trkpt lat="43.772229636088014" lon="11.890374552458525">
        <ele>1068.1600000000001</ele>
        <time>2016-06-05T09:20:12Z</time>
      </trkpt>
      <trkpt lat="43.772312114015222" lon="11.89032350666821">
        <ele>1069.1199999999999</ele>
        <time>2016-06-05T09:20:24Z</time>
      </trkpt>
      <trkpt lat="43.772403560578823" lon="11.890228288248181">
        <ele>1070.5699999999999</ele>
        <time>2016-06-05T09:20:36Z</time>
      </trkpt>
      <trkpt lat="43.772493582218885" lon="11.890181601047516">
        <ele>1071.05</ele>
        <time>2016-06-05T09:20:46Z</time>
      </trkpt>
      <trkpt lat="43.772565918043256" lon="11.890074647963047">
        <ele>1072.01</ele>
        <time>2016-06-05T09:20:58Z</time>
      </trkpt>
      <trkpt lat="43.772583268582821" lon="11.890060650184751">
        <ele>1071.53</ele>
        <time>2016-06-05T09:21:09Z</time>
      </trkpt>
      <trkpt lat="43.772606234997511" lon="11.890093926340342">
        <ele>1072.01</ele>
        <time>2016-06-05T09:21:30Z</time>
      </trkpt>
      <trkpt lat="43.772583687677979" lon="11.890111109241843">
        <ele>1071.53</ele>
        <time>2016-06-05T09:21:55Z</time>
      </trkpt>
      <trkpt lat="43.772565331310034" lon="11.890053525567055">
        <ele>1072.01</ele>
        <time>2016-06-05T09:22:13Z</time>
      </trkpt>
      <trkpt lat="43.772603133693337" lon="11.890088142827153">
        <ele>1072.49</ele>
        <time>2016-06-05T09:22:38Z</time>
      </trkpt>
      <trkpt lat="43.772605312988162" lon="11.890063164755702">
        <ele>1072.01</ele>
        <time>2016-06-05T09:23:00Z</time>
      </trkpt>
      <trkpt lat="43.772552758455276" lon="11.890027122572064">
        <ele>1072.01</ele>
        <time>2016-06-05T09:23:25Z</time>
      </trkpt>
      <trkpt lat="43.772527948021889" lon="11.89003718085587">
        <ele>1072.01</ele>
        <time>2016-06-05T09:23:48Z</time>
      </trkpt>
      <trkpt lat="43.772610342130065" lon="11.890000803396106">
        <ele>1072.49</ele>
        <time>2016-06-05T09:24:16Z</time>
      </trkpt>
      <trkpt lat="43.772624591365457" lon="11.889946907758713">
        <ele>1073.9300000000001</ele>
        <time>2016-06-05T09:24:28Z</time>
      </trkpt>
      <trkpt lat="43.772676978260279" lon="11.889855545014143">
        <ele>1075.8499999999999</ele>
        <time>2016-06-05T09:24:42Z</time>
      </trkpt>
      <trkpt lat="43.772751074284315" lon="11.889798464253545">
        <ele>1077.29</ele>
        <time>2016-06-05T09:24:53Z</time>
      </trkpt>
      <trkpt lat="43.77282215282321" lon="11.889780443161726">
        <ele>1079.22</ele>
        <time>2016-06-05T09:25:05Z</time>
      </trkpt>
      <trkpt lat="43.772869342938066" lon="11.889732917770743">
        <ele>1080.6600000000001</ele>
        <time>2016-06-05T09:25:17Z</time>
      </trkpt>
      <trkpt lat="43.772923154756427" lon="11.889702659100294">
        <ele>1082.5799999999999</ele>
        <time>2016-06-05T09:25:28Z</time>
      </trkpt>
      <trkpt lat="43.772967327386141" lon="11.889660749584436">
        <ele>1084.02</ele>
        <time>2016-06-05T09:25:39Z</time>
      </trkpt>
      <trkpt lat="43.773009153082967" lon="11.889558658003807">
        <ele>1085.95</ele>
        <time>2016-06-05T09:25:54Z</time>
      </trkpt>
      <trkpt lat="43.773026252165437" lon="11.889490932226181">
        <ele>1087.3900000000001</ele>
        <time>2016-06-05T09:26:04Z</time>
      </trkpt>
      <trkpt lat="43.773054163902998" lon="11.889397306367755">
        <ele>1089.3099999999999</ele>
        <time>2016-06-05T09:26:18Z</time>
      </trkpt>
      <trkpt lat="43.773084757849574" lon="11.889294544234872">
        <ele>1091.23</ele>
        <time>2016-06-05T09:26:31Z</time>
      </trkpt>
      <trkpt lat="43.773111244663596" lon="11.889156410470605">
        <ele>1093.1600000000001</ele>
        <time>2016-06-05T09:26:45Z</time>
      </trkpt>
      <trkpt lat="43.773169917985797" lon="11.889029508456588">
        <ele>1094.1199999999999</ele>
        <time>2016-06-05T09:26:58Z</time>
      </trkpt>
      <trkpt lat="43.773158267140388" lon="11.889034453779459">
        <ele>1094.1199999999999</ele>
        <time>2016-06-05T09:27:11Z</time>
      </trkpt>
      <trkpt lat="43.773168995976448" lon="11.889015175402164">
        <ele>1094.1199999999999</ele>
        <time>2016-06-05T09:27:25Z</time>
      </trkpt>
      <trkpt lat="43.77324384637177" lon="11.888977624475956">
        <ele>1095.0799999999999</ele>
        <time>2016-06-05T09:27:37Z</time>
      </trkpt>
      <trkpt lat="43.773272847756743" lon="11.888966141268611">
        <ele>1095.5599999999999</ele>
        <time>2016-06-05T09:27:41Z</time>
      </trkpt>
      <trkpt lat="43.773321378976107" lon="11.888931607827544">
        <ele>1096.04</ele>
        <time>2016-06-05T09:27:48Z</time>
      </trkpt>
      <trkpt lat="43.773383405059576" lon="11.888892631977797">
        <ele>1096.52</ele>
        <time>2016-06-05T09:27:55Z</time>
      </trkpt>
      <trkpt lat="43.773397235199809" lon="11.888874107971787">
        <ele>1097</ele>
        <time>2016-06-05T09:27:57Z</time>
      </trkpt>
      <trkpt lat="43.773485915735364" lon="11.888790875673294">
        <ele>1097.48</ele>
        <time>2016-06-05T09:28:08Z</time>
      </trkpt>
      <trkpt lat="43.773565543815494" lon="11.888804035261273">
        <ele>1098.9200000000001</ele>
        <time>2016-06-05T09:28:17Z</time>
      </trkpt>
      <trkpt lat="43.773662857711315" lon="11.888798754662275">
        <ele>1097</ele>
        <time>2016-06-05T09:28:27Z</time>
      </trkpt>
      <trkpt lat="43.773790514096618" lon="11.888773022219539">
        <ele>1095.0799999999999</ele>
        <time>2016-06-05T09:28:40Z</time>
      </trkpt>
      <trkpt lat="43.773899562656879" lon="11.888753492385149">
        <ele>1094.5999999999999</ele>
        <time>2016-06-05T09:28:51Z</time>
      </trkpt>
      <trkpt lat="43.773998636752367" lon="11.888675540685654">
        <ele>1094.1199999999999</ele>
        <time>2016-06-05T09:29:02Z</time>
      </trkpt>
      <trkpt lat="43.774101566523314" lon="11.888628518208861">
        <ele>1093.6400000000001</ele>
        <time>2016-06-05T09:29:14Z</time>
      </trkpt>
      <trkpt lat="43.774167951196432" lon="11.888606054708362">
        <ele>1094.1199999999999</ele>
        <time>2016-06-05T09:29:24Z</time>
      </trkpt>
      <trkpt lat="43.774287309497595" lon="11.888515781611204">
        <ele>1094.5999999999999</ele>
        <time>2016-06-05T09:29:36Z</time>
      </trkpt>
      <trkpt lat="43.774311197921634" lon="11.888457946479321">
        <ele>1094.1199999999999</ele>
        <time>2016-06-05T09:29:48Z</time>
      </trkpt>
      <trkpt lat="43.774356041103601" lon="11.888431124389172">
        <ele>1094.1199999999999</ele>
        <time>2016-06-05T09:29:59Z</time>
      </trkpt>
      <trkpt lat="43.774453857913613" lon="11.888333056122065">
        <ele>1093.6400000000001</ele>
        <time>2016-06-05T09:30:11Z</time>
      </trkpt>
      <trkpt lat="43.77455972135067" lon="11.888241693377495">
        <ele>1093.6400000000001</ele>
        <time>2016-06-05T09:30:24Z</time>
      </trkpt>
      <trkpt lat="43.774681175127625" lon="11.888164412230253">
        <ele>1094.5999999999999</ele>
        <time>2016-06-05T09:30:36Z</time>
      </trkpt>
      <trkpt lat="43.774759629741311" lon="11.888097943738103">
        <ele>1096.04</ele>
        <time>2016-06-05T09:30:47Z</time>
      </trkpt>
      <trkpt lat="43.77483724616468" lon="11.888035079464316">
        <ele>1097</ele>
        <time>2016-06-05T09:30:58Z</time>
      </trkpt>
      <trkpt lat="43.774904469028115" lon="11.887986799702048">
        <ele>1097.96</ele>
        <time>2016-06-05T09:31:06Z</time>
      </trkpt>
      <trkpt lat="43.774982420727611" lon="11.887906165793538">
        <ele>1099.8900000000001</ele>
        <time>2016-06-05T09:31:17Z</time>
      </trkpt>
      <trkpt lat="43.775021145120263" lon="11.887807762250304">
        <ele>1101.8099999999999</ele>
        <time>2016-06-05T09:31:27Z</time>
      </trkpt>
      <trkpt lat="43.775065401569009" lon="11.887712040916085">
        <ele>1102.77</ele>
        <time>2016-06-05T09:31:38Z</time>
      </trkpt>
      <trkpt lat="43.775097923353314" lon="11.887684883549809">
        <ele>1103.73</ele>
        <time>2016-06-05T09:31:49Z</time>
      </trkpt>
      <trkpt lat="43.775160536170006" lon="11.887667616829276">
        <ele>1105.1700000000001</ele>
        <time>2016-06-05T09:32:04Z</time>
      </trkpt>
      <trkpt lat="43.775236560031772" lon="11.887645907700062">
        <ele>1107.0999999999999</ele>
        <time>2016-06-05T09:32:15Z</time>
      </trkpt>
      <trkpt lat="43.775290120393038" lon="11.887640291824937">
        <ele>1108.54</ele>
        <time>2016-06-05T09:32:25Z</time>
      </trkpt>
      <trkpt lat="43.77535373903811" lon="11.887639369815588">
        <ele>1110.46</ele>
        <time>2016-06-05T09:32:36Z</time>
      </trkpt>
      <trkpt lat="43.775421800091863" lon="11.887601315975189">
        <ele>1112.3800000000001</ele>
        <time>2016-06-05T09:32:48Z</time>
      </trkpt>
      <trkpt lat="43.775469660758972" lon="11.887512467801571">
        <ele>1113.8199999999999</ele>
        <time>2016-06-05T09:32:59Z</time>
      </trkpt>
      <trkpt lat="43.775521544739604" lon="11.887436527758837">
        <ele>1115.27</ele>
        <time>2016-06-05T09:33:11Z</time>
      </trkpt>
      <trkpt lat="43.775586923584342" lon="11.887383637949824">
        <ele>1117.1900000000001</ele>
        <time>2016-06-05T09:33:23Z</time>
      </trkpt>
      <trkpt lat="43.775643333792686" lon="11.887322869151831">
        <ele>1119.1099999999999</ele>
        <time>2016-06-05T09:33:35Z</time>
      </trkpt>
      <trkpt lat="43.775682896375656" lon="11.887264531105757">
        <ele>1121.03</ele>
        <time>2016-06-05T09:33:49Z</time>
      </trkpt>
      <trkpt lat="43.775741066783667" lon="11.887181801721454">
        <ele>1123.4400000000001</ele>
        <time>2016-06-05T09:34:01Z</time>
      </trkpt>
      <trkpt lat="43.775796890258789" lon="11.887162607163191">
        <ele>1125.3599999999999</ele>
        <time>2016-06-05T09:34:13Z</time>
      </trkpt>
      <trkpt lat="43.7758619338274" lon="11.88714056275785">
        <ele>1125.8399999999999</ele>
        <time>2016-06-05T09:34:27Z</time>
      </trkpt>
      <trkpt lat="43.775966120883822" lon="11.887142239138484">
        <ele>1125.3599999999999</ele>
        <time>2016-06-05T09:34:39Z</time>
      </trkpt>
      <trkpt lat="43.776072654873133" lon="11.887117009609938">
        <ele>1125.3599999999999</ele>
        <time>2016-06-05T09:34:50Z</time>
      </trkpt>
      <trkpt lat="43.776181535795331" lon="11.887083230540156">
        <ele>1126.3199999999999</ele>
        <time>2016-06-05T09:35:02Z</time>
      </trkpt>
      <trkpt lat="43.776296367868781" lon="11.887082559987903">
        <ele>1126.3199999999999</ele>
        <time>2016-06-05T09:35:14Z</time>
      </trkpt>
      <trkpt lat="43.77632905729115" lon="11.887086499482393">
        <ele>1126.8</ele>
        <time>2016-06-05T09:35:18Z</time>
      </trkpt>
      <trkpt lat="43.776428131386638" lon="11.887138215824962">
        <ele>1123.9200000000001</ele>
        <time>2016-06-05T09:35:30Z</time>
      </trkpt>
      <trkpt lat="43.776485547423363" lon="11.887148106470704">
        <ele>1123.4400000000001</ele>
        <time>2016-06-05T09:35:35Z</time>
      </trkpt>
      <trkpt lat="43.776587806642056" lon="11.887155566364527">
        <ele>1123.4400000000001</ele>
        <time>2016-06-05T09:35:46Z</time>
      </trkpt>
      <trkpt lat="43.776686964556575" lon="11.887111058458686">
        <ele>1123.4400000000001</ele>
        <time>2016-06-05T09:35:56Z</time>
      </trkpt>
      <trkpt lat="43.776783356443048" lon="11.887068478390574">
        <ele>1124.8800000000001</ele>
        <time>2016-06-05T09:36:06Z</time>
      </trkpt>
      <trkpt lat="43.776915036141872" lon="11.887066550552845">
        <ele>1124.4000000000001</ele>
        <time>2016-06-05T09:36:17Z</time>
      </trkpt>
      <trkpt lat="43.777019223198295" lon="11.887153387069702">
        <ele>1123.4400000000001</ele>
        <time>2016-06-05T09:36:28Z</time>
      </trkpt>
      <trkpt lat="43.77703120931983" lon="11.887158500030637">
        <ele>1123.4400000000001</ele>
        <time>2016-06-05T09:36:29Z</time>
      </trkpt>
      <trkpt lat="43.777189962565899" lon="11.887257741764188">
        <ele>1121.52</ele>
        <time>2016-06-05T09:36:43Z</time>
      </trkpt>
      <trkpt lat="43.777293562889099" lon="11.887327898293734">
        <ele>1121.03</ele>
        <time>2016-06-05T09:36:53Z</time>
      </trkpt>
      <trkpt lat="43.777403365820646" lon="11.887426385655999">
        <ele>1120.0699999999999</ele>
        <time>2016-06-05T09:37:05Z</time>
      </trkpt>
      <trkpt lat="43.777467990294099" lon="11.887467037886381">
        <ele>1120.0699999999999</ele>
        <time>2016-06-05T09:37:12Z</time>
      </trkpt>
      <trkpt lat="43.777502188459039" lon="11.887461841106415">
        <ele>1118.1500000000001</ele>
        <time>2016-06-05T09:37:15Z</time>
      </trkpt>
      <trkpt lat="43.777639819309115" lon="11.887437282130122">
        <ele>1118.1500000000001</ele>
        <time>2016-06-05T09:37:27Z</time>
      </trkpt>
      <trkpt lat="43.777765044942498" lon="11.887368215247989">
        <ele>1117.6700000000001</ele>
        <time>2016-06-05T09:37:40Z</time>
      </trkpt>
      <trkpt lat="43.777868812903762" lon="11.887385817244649">
        <ele>1115.75</ele>
        <time>2016-06-05T09:37:52Z</time>
      </trkpt>
      <trkpt lat="43.777957828715444" lon="11.887354971840978">
        <ele>1114.3099999999999</ele>
        <time>2016-06-05T09:38:03Z</time>
      </trkpt>
      <trkpt lat="43.778069224208593" lon="11.887285988777876">
        <ele>1113.8199999999999</ele>
        <time>2016-06-05T09:38:15Z</time>
      </trkpt>
      <trkpt lat="43.778192438185215" lon="11.887237876653671">
        <ele>1113.8199999999999</ele>
        <time>2016-06-05T09:38:27Z</time>
      </trkpt>
      <trkpt lat="43.778288578614593" lon="11.887292107567191">
        <ele>1112.3800000000001</ele>
        <time>2016-06-05T09:38:38Z</time>
      </trkpt>
      <trkpt lat="43.778355633839965" lon="11.887273918837309">
        <ele>1109.98</ele>
        <time>2016-06-05T09:38:49Z</time>
      </trkpt>
      <trkpt lat="43.77842671237886" lon="11.887256652116776">
        <ele>1107.5799999999999</ele>
        <time>2016-06-05T09:38:59Z</time>
      </trkpt>
      <trkpt lat="43.778484966605902" lon="11.887249108403921">
        <ele>1105.1700000000001</ele>
        <time>2016-06-05T09:39:11Z</time>
      </trkpt>
      <trkpt lat="43.778568617999554" lon="11.88727936707437">
        <ele>1102.77</ele>
        <time>2016-06-05T09:39:23Z</time>
      </trkpt>
      <trkpt lat="43.778665009886026" lon="11.887330245226622">
        <ele>1100.3699999999999</ele>
        <time>2016-06-05T09:39:35Z</time>
      </trkpt>
      <trkpt lat="43.778728628531098" lon="11.887361593544483">
        <ele>1098.4400000000001</ele>
        <time>2016-06-05T09:39:45Z</time>
      </trkpt>
      <trkpt lat="43.778825188055634" lon="11.887333178892732">
        <ele>1096.04</ele>
        <time>2016-06-05T09:39:57Z</time>
      </trkpt>
      <trkpt lat="43.778902972117066" lon="11.887306943535805">
        <ele>1094.1199999999999</ele>
        <time>2016-06-05T09:40:08Z</time>
      </trkpt>
      <trkpt lat="43.7789202388376" lon="11.887298561632633">
        <ele>1093.6400000000001</ele>
        <time>2016-06-05T09:40:10Z</time>
      </trkpt>
      <trkpt lat="43.779025683179498" lon="11.887282552197576">
        <ele>1093.1600000000001</ele>
        <time>2016-06-05T09:40:22Z</time>
      </trkpt>
      <trkpt lat="43.779119811952114" lon="11.887232763692737">
        <ele>1092.6800000000001</ele>
        <time>2016-06-05T09:40:33Z</time>
      </trkpt>
      <trkpt lat="43.779202541336417" lon="11.88717182725668">
        <ele>1092.2</ele>
        <time>2016-06-05T09:40:42Z</time>
      </trkpt>
      <trkpt lat="43.779291557148099" lon="11.887093624100089">
        <ele>1092.2</ele>
        <time>2016-06-05T09:40:52Z</time>
      </trkpt>
      <trkpt lat="43.779382836073637" lon="11.887010978534818">
        <ele>1092.2</ele>
        <time>2016-06-05T09:41:02Z</time>
      </trkpt>
      <trkpt lat="43.779406556859612" lon="11.886996729299426">
        <ele>1092.2</ele>
        <time>2016-06-05T09:41:04Z</time>
      </trkpt>
      <trkpt lat="43.779509905725718" lon="11.886948784813285">
        <ele>1092.6800000000001</ele>
        <time>2016-06-05T09:41:13Z</time>
      </trkpt>
      <trkpt lat="43.779610069468617" lon="11.886913916096091">
        <ele>1092.2</ele>
        <time>2016-06-05T09:41:22Z</time>
      </trkpt>
      <trkpt lat="43.779710149392486" lon="11.886875443160534">
        <ele>1089.79</ele>
        <time>2016-06-05T09:41:33Z</time>
      </trkpt>
      <trkpt lat="43.779812660068274" lon="11.886870330199599">
        <ele>1088.3499999999999</ele>
        <time>2016-06-05T09:41:43Z</time>
      </trkpt>
      <trkpt lat="43.779965545982122" lon="11.886838143691421">
        <ele>1087.8699999999999</ele>
        <time>2016-06-05T09:41:54Z</time>
      </trkpt>
      <trkpt lat="43.780090352520347" lon="11.886737393215299">
        <ele>1089.79</ele>
        <time>2016-06-05T09:42:08Z</time>
      </trkpt>
      <trkpt lat="43.780184146016836" lon="11.886685341596603">
        <ele>1091.23</ele>
        <time>2016-06-05T09:42:21Z</time>
      </trkpt>
      <trkpt lat="43.780257487669587" lon="11.886650808155537">
        <ele>1092.2</ele>
        <time>2016-06-05T09:42:29Z</time>
      </trkpt>
      <trkpt lat="43.780382461845875" lon="11.886631613597274">
        <ele>1092.6800000000001</ele>
        <time>2016-06-05T09:42:40Z</time>
      </trkpt>
      <trkpt lat="43.780457060784101" lon="11.886649550870061">
        <ele>1094.1199999999999</ele>
        <time>2016-06-05T09:42:50Z</time>
      </trkpt>
      <trkpt lat="43.780567115172744" lon="11.886666817590594">
        <ele>1095.0799999999999</ele>
        <time>2016-06-05T09:43:01Z</time>
      </trkpt>
      <trkpt lat="43.78066711127758" lon="11.886658351868391">
        <ele>1096.52</ele>
        <time>2016-06-05T09:43:13Z</time>
      </trkpt>
      <trkpt lat="43.780747829005122" lon="11.886656507849693">
        <ele>1098.4400000000001</ele>
        <time>2016-06-05T09:43:24Z</time>
      </trkpt>
      <trkpt lat="43.780814465135336" lon="11.886637229472399">
        <ele>1100.3699999999999</ele>
        <time>2016-06-05T09:43:36Z</time>
      </trkpt>
      <trkpt lat="43.780891411006451" lon="11.88663580454886">
        <ele>1102.77</ele>
        <time>2016-06-05T09:43:49Z</time>
      </trkpt>
      <trkpt lat="43.780977828428149" lon="11.886641420423985">
        <ele>1104.6900000000001</ele>
        <time>2016-06-05T09:44:02Z</time>
      </trkpt>
      <trkpt lat="43.78103650175035" lon="11.886652316898108">
        <ele>1106.1300000000001</ele>
        <time>2016-06-05T09:44:12Z</time>
      </trkpt>
      <trkpt lat="43.781105652451515" lon="11.886644857004285">
        <ele>1107.0999999999999</ele>
        <time>2016-06-05T09:44:22Z</time>
      </trkpt>
      <trkpt lat="43.781160470098257" lon="11.88664460554719">
        <ele>1108.54</ele>
        <time>2016-06-05T09:44:33Z</time>
      </trkpt>
      <trkpt lat="43.781240014359355" lon="11.886672098189592">
        <ele>1108.0599999999999</ele>
        <time>2016-06-05T09:44:45Z</time>
      </trkpt>
      <trkpt lat="43.781310589984059" lon="11.886649550870061">
        <ele>1108.54</ele>
        <time>2016-06-05T09:45:03Z</time>
      </trkpt>
      <trkpt lat="43.781309332698584" lon="11.886627841740847">
        <ele>1108.0599999999999</ele>
        <time>2016-06-05T09:45:15Z</time>
      </trkpt>
      <trkpt lat="43.781304052099586" lon="11.88662800937891">
        <ele>1107.0999999999999</ele>
        <time>2016-06-05T09:45:39Z</time>
      </trkpt>
      <trkpt lat="43.781247474253178" lon="11.886618789285421">
        <ele>1107.5799999999999</ele>
        <time>2016-06-05T09:46:07Z</time>
      </trkpt>
      <trkpt lat="43.781247977167368" lon="11.886617951095104">
        <ele>1108.0599999999999</ele>
        <time>2016-06-05T09:46:33Z</time>
      </trkpt>
      <trkpt lat="43.781277481466532" lon="11.886627841740847">
        <ele>1108.54</ele>
        <time>2016-06-05T09:46:42Z</time>
      </trkpt>
      <trkpt lat="43.781304387375712" lon="11.886659609153867">
        <ele>1109.02</ele>
        <time>2016-06-05T09:46:58Z</time>
      </trkpt>
      <trkpt lat="43.78131989389658" lon="11.886716019362211">
        <ele>1108.54</ele>
        <time>2016-06-05T09:47:12Z</time>
      </trkpt>
      <trkpt lat="43.781388625502586" lon="11.886819368228316">
        <ele>1106.1300000000001</ele>
        <time>2016-06-05T09:47:25Z</time>
      </trkpt>
      <trkpt lat="43.781441347673535" lon="11.886915676295757">
        <ele>1103.25</ele>
        <time>2016-06-05T09:47:36Z</time>
      </trkpt>
      <trkpt lat="43.781495159491897" lon="11.886999662965536">
        <ele>1101.3299999999999</ele>
        <time>2016-06-05T09:47:46Z</time>
      </trkpt>
      <trkpt lat="43.781558191403747" lon="11.887133773416281">
        <ele>1098.9200000000001</ele>
        <time>2016-06-05T09:47:58Z</time>
      </trkpt>
      <trkpt lat="43.781625833362341" lon="11.887177107855678">
        <ele>1097.96</ele>
        <time>2016-06-05T09:48:10Z</time>
      </trkpt>
      <trkpt lat="43.781691379845142" lon="11.88720753416419">
        <ele>1094.5999999999999</ele>
        <time>2016-06-05T09:48:24Z</time>
      </trkpt>
      <trkpt lat="43.781728763133287" lon="11.887244833633304">
        <ele>1093.6400000000001</ele>
        <time>2016-06-05T09:48:32Z</time>
      </trkpt>
      <trkpt lat="43.781859520822763" lon="11.88731599599123">
        <ele>1092.2</ele>
        <time>2016-06-05T09:48:44Z</time>
      </trkpt>
      <trkpt lat="43.781962282955647" lon="11.887379698455334">
        <ele>1092.2</ele>
        <time>2016-06-05T09:48:54Z</time>
      </trkpt>
      <trkpt lat="43.781987009570003" lon="11.887393612414598">
        <ele>1091.23</ele>
        <time>2016-06-05T09:48:56Z</time>
      </trkpt>
      <trkpt lat="43.782077198848128" lon="11.88749922439456">
        <ele>1089.3099999999999</ele>
        <time>2016-06-05T09:49:07Z</time>
      </trkpt>
      <trkpt lat="43.782155066728592" lon="11.88763216137886">
        <ele>1088.3499999999999</ele>
        <time>2016-06-05T09:49:20Z</time>
      </trkpt>
      <trkpt lat="43.782184068113565" lon="11.887766104191542">
        <ele>1087.8699999999999</ele>
        <time>2016-06-05T09:49:32Z</time>
      </trkpt>
      <trkpt lat="43.78220284357667" lon="11.887883031740785">
        <ele>1086.9100000000001</ele>
        <time>2016-06-05T09:49:43Z</time>
      </trkpt>
      <trkpt lat="43.782248273491859" lon="11.887981100007892">
        <ele>1084.99</ele>
        <time>2016-06-05T09:49:52Z</time>
      </trkpt>
      <trkpt lat="43.782270234078169" lon="11.888057040050626">
        <ele>1083.54</ele>
        <time>2016-06-05T09:50:00Z</time>
      </trkpt>
      <trkpt lat="43.782274341210723" lon="11.888118982315063">
        <ele>1083.0599999999999</ele>
        <time>2016-06-05T09:50:05Z</time>
      </trkpt>
      <trkpt lat="43.782287165522575" lon="11.888263737782836">
        <ele>1080.6600000000001</ele>
        <time>2016-06-05T09:50:15Z</time>
      </trkpt>
      <trkpt lat="43.782299319282174" lon="11.888402290642262">
        <ele>1078.26</ele>
        <time>2016-06-05T09:50:26Z</time>
      </trkpt>
      <trkpt lat="43.782327650114894" lon="11.88848334364593">
        <ele>1077.29</ele>
        <time>2016-06-05T09:50:35Z</time>
      </trkpt>
      <trkpt lat="43.782367296516895" lon="11.888542519882321">
        <ele>1075.8499999999999</ele>
        <time>2016-06-05T09:50:44Z</time>
      </trkpt>
      <trkpt lat="43.782425718382001" lon="11.888646204024553">
        <ele>1073.45</ele>
        <time>2016-06-05T09:50:54Z</time>
      </trkpt>
      <trkpt lat="43.782490426674485" lon="11.888681491836905">
        <ele>1072.01</ele>
        <time>2016-06-05T09:51:03Z</time>
      </trkpt>
      <trkpt lat="43.782537197694182" lon="11.888721138238907">
        <ele>1070.5699999999999</ele>
        <time>2016-06-05T09:51:13Z</time>
      </trkpt>
      <trkpt lat="43.782618585973978" lon="11.888785762712359">
        <ele>1070.0799999999999</ele>
        <time>2016-06-05T09:51:25Z</time>
      </trkpt>
      <trkpt lat="43.782625626772642" lon="11.888794312253594">
        <ele>1068.6400000000001</ele>
        <time>2016-06-05T09:51:26Z</time>
      </trkpt>
      <trkpt lat="43.78273299895227" lon="11.888862540945411">
        <ele>1065.76</ele>
        <time>2016-06-05T09:51:37Z</time>
      </trkpt>
      <trkpt lat="43.782807346433401" lon="11.888916436582804">
        <ele>1064.8</ele>
        <time>2016-06-05T09:51:46Z</time>
      </trkpt>
      <trkpt lat="43.782887477427721" lon="11.888912916183472">
        <ele>1063.3599999999999</ele>
        <time>2016-06-05T09:51:59Z</time>
      </trkpt>
      <trkpt lat="43.782864678651094" lon="11.888925489038229">
        <ele>1062.8699999999999</ele>
        <time>2016-06-05T09:52:19Z</time>
      </trkpt>
      <trkpt lat="43.782870043069124" lon="11.888907216489315">
        <ele>1062.3900000000001</ele>
        <time>2016-06-05T09:52:34Z</time>
      </trkpt>
      <trkpt lat="43.782878676429391" lon="11.888811411336064">
        <ele>1061.9100000000001</ele>
        <time>2016-06-05T09:52:44Z</time>
      </trkpt>
      <trkpt lat="43.782877922058105" lon="11.888801101595163">
        <ele>1061.4300000000001</ele>
        <time>2016-06-05T09:52:45Z</time>
      </trkpt>
      <trkpt lat="43.782872809097171" lon="11.888605719432235">
        <ele>1060.47</ele>
        <time>2016-06-05T09:53:00Z</time>
      </trkpt>
      <trkpt lat="43.782868031412363" lon="11.888566156849265">
        <ele>1059.99</ele>
        <time>2016-06-05T09:53:10Z</time>
      </trkpt>
      <trkpt lat="43.782877419143915" lon="11.888499269261956">
        <ele>1059.03</ele>
        <time>2016-06-05T09:53:20Z</time>
      </trkpt>
      <trkpt lat="43.782861158251762" lon="11.888310173526406">
        <ele>1058.0699999999999</ele>
        <time>2016-06-05T09:53:32Z</time>
      </trkpt>
      <trkpt lat="43.782905079424381" lon="11.888179834932089">
        <ele>1058.0699999999999</ele>
        <time>2016-06-05T09:53:42Z</time>
      </trkpt>
      <trkpt lat="43.782966937869787" lon="11.888083694502711">
        <ele>1059.51</ele>
        <time>2016-06-05T09:53:55Z</time>
      </trkpt>
      <trkpt lat="43.783000884577632" lon="11.888012867420912">
        <ele>1059.03</ele>
        <time>2016-06-05T09:54:07Z</time>
      </trkpt>
      <trkpt lat="43.783046901226044" lon="11.88790331594646">
        <ele>1059.99</ele>
        <time>2016-06-05T09:54:19Z</time>
      </trkpt>
      <trkpt lat="43.783076070249081" lon="11.88776358962059">
        <ele>1059.99</ele>
        <time>2016-06-05T09:54:31Z</time>
      </trkpt>
      <trkpt lat="43.783066431060433" lon="11.887698797509074">
        <ele>1059.99</ele>
        <time>2016-06-05T09:54:43Z</time>
      </trkpt>
      <trkpt lat="43.783062743023038" lon="11.88749922439456">
        <ele>1058.55</ele>
        <time>2016-06-05T09:54:55Z</time>
      </trkpt>
      <trkpt lat="43.783040447160602" lon="11.887417668476701">
        <ele>1058.55</ele>
        <time>2016-06-05T09:55:00Z</time>
      </trkpt>
      <trkpt lat="43.782985294237733" lon="11.887227650731802">
        <ele>1057.5899999999999</ele>
        <time>2016-06-05T09:55:15Z</time>
      </trkpt>
      <trkpt lat="43.782910779118538" lon="11.887126732617617">
        <ele>1056.6300000000001</ele>
        <time>2016-06-05T09:55:28Z</time>
      </trkpt>
      <trkpt lat="43.782837688922882" lon="11.887047523632646">
        <ele>1056.1500000000001</ele>
        <time>2016-06-05T09:55:38Z</time>
      </trkpt>
      <trkpt lat="43.78274280577898" lon="11.886985749006271">
        <ele>1055.1800000000001</ele>
        <time>2016-06-05T09:55:49Z</time>
      </trkpt>
      <trkpt lat="43.782685557380319" lon="11.886897990480065">
        <ele>1054.22</ele>
        <time>2016-06-05T09:56:00Z</time>
      </trkpt>
      <trkpt lat="43.782666949555278" lon="11.88682783395052">
        <ele>1054.22</ele>
        <time>2016-06-05T09:56:12Z</time>
      </trkpt>
      <trkpt lat="43.782680192962289" lon="11.88673940487206">
        <ele>1054.22</ele>
        <time>2016-06-05T09:56:24Z</time>
      </trkpt>
      <trkpt lat="43.782823774963617" lon="11.886729178950191">
        <ele>1052.3</ele>
        <time>2016-06-05T09:56:38Z</time>
      </trkpt>
      <trkpt lat="43.782885214313865" lon="11.886746026575565">
        <ele>1049.9000000000001</ele>
        <time>2016-06-05T09:56:49Z</time>
      </trkpt>
      <trkpt lat="43.782934499904513" lon="11.88674820587039">
        <ele>1048.45</ele>
        <time>2016-06-05T09:56:59Z</time>
      </trkpt>
      <trkpt lat="43.782984875142574" lon="11.886767568066716">
        <ele>1047.49</ele>
        <time>2016-06-05T09:57:09Z</time>
      </trkpt>
      <trkpt lat="43.783074058592319" lon="11.886744266375899">
        <ele>1046.53</ele>
        <time>2016-06-05T09:57:20Z</time>
      </trkpt>
      <trkpt lat="43.783184112980962" lon="11.886678133159876">
        <ele>1046.05</ele>
        <time>2016-06-05T09:57:31Z</time>
      </trkpt>
      <trkpt lat="43.783302549272776" lon="11.886665979400277">
        <ele>1045.0899999999999</ele>
        <time>2016-06-05T09:57:44Z</time>
      </trkpt>
      <trkpt lat="43.783386452123523" lon="11.886633038520813">
        <ele>1044.6099999999999</ele>
        <time>2016-06-05T09:57:54Z</time>
      </trkpt>
      <trkpt lat="43.783416962251067" lon="11.886586518958211">
        <ele>1044.1300000000001</ele>
        <time>2016-06-05T09:58:06Z</time>
      </trkpt>
      <trkpt lat="43.783445795997977" lon="11.886499766260386">
        <ele>1043.6500000000001</ele>
        <time>2016-06-05T09:58:14Z</time>
      </trkpt>
      <trkpt lat="43.783464236184955" lon="11.886392729356885">
        <ele>1042.21</ele>
        <time>2016-06-05T09:58:25Z</time>
      </trkpt>
      <trkpt lat="43.783520227298141" lon="11.886287955567241">
        <ele>1041.73</ele>
        <time>2016-06-05T09:58:36Z</time>
      </trkpt>
      <trkpt lat="43.783595245331526" lon="11.886239927262068">
        <ele>1040.76</ele>
        <time>2016-06-05T09:58:49Z</time>
      </trkpt>
      <trkpt lat="43.783704964444041" lon="11.886174883693457">
        <ele>1039.3199999999999</ele>
        <time>2016-06-05T09:59:00Z</time>
      </trkpt>
      <trkpt lat="43.783804122358561" lon="11.886159293353558">
        <ele>1037.8800000000001</ele>
        <time>2016-06-05T09:59:10Z</time>
      </trkpt>
      <trkpt lat="43.783903531730175" lon="11.886122329160571">
        <ele>1037.8800000000001</ele>
        <time>2016-06-05T09:59:23Z</time>
      </trkpt>
      <trkpt lat="43.784009562805295" lon="11.886132806539536">
        <ele>1037.8800000000001</ele>
        <time>2016-06-05T09:59:34Z</time>
      </trkpt>
      <trkpt lat="43.784069996327162" lon="11.886044209823012">
        <ele>1038.3599999999999</ele>
        <time>2016-06-05T09:59:46Z</time>
      </trkpt>
      <trkpt lat="43.784128585830331" lon="11.88596785068512">
        <ele>1037.4000000000001</ele>
        <time>2016-06-05T09:59:57Z</time>
      </trkpt>
      <trkpt lat="43.78417644649744" lon="11.885898197069764">
        <ele>1036.9200000000001</ele>
        <time>2016-06-05T10:00:06Z</time>
      </trkpt>
      <trkpt lat="43.784221960231662" lon="11.885804738849401">
        <ele>1036.4400000000001</ele>
        <time>2016-06-05T10:00:13Z</time>
      </trkpt>
      <trkpt lat="43.784237382933497" lon="11.885771127417684">
        <ele>1036.4400000000001</ele>
        <time>2016-06-05T10:00:16Z</time>
      </trkpt>
      <trkpt lat="43.784313071519136" lon="11.885685548186302">
        <ele>1035.96</ele>
        <time>2016-06-05T10:00:27Z</time>
      </trkpt>
      <trkpt lat="43.784397896379232" lon="11.885656295344234">
        <ele>1035.48</ele>
        <time>2016-06-05T10:00:38Z</time>
      </trkpt>
      <trkpt lat="43.784453049302101" lon="11.885680854320526">
        <ele>1035</ele>
        <time>2016-06-05T10:00:49Z</time>
      </trkpt>
      <trkpt lat="43.784488504752517" lon="11.885693930089474">
        <ele>1034.04</ele>
        <time>2016-06-05T10:00:55Z</time>
      </trkpt>
      <trkpt lat="43.78456243313849" lon="11.88564975745976">
        <ele>1033.0699999999999</ele>
        <time>2016-06-05T10:01:03Z</time>
      </trkpt>
      <trkpt lat="43.784642061218619" lon="11.885585887357593">
        <ele>1033.0699999999999</ele>
        <time>2016-06-05T10:01:16Z</time>
      </trkpt>
      <trkpt lat="43.784684976562858" lon="11.885551856830716">
        <ele>1033.0699999999999</ele>
        <time>2016-06-05T10:01:31Z</time>
      </trkpt>
      <trkpt lat="43.784755971282721" lon="11.885517742484808">
        <ele>1032.1099999999999</ele>
        <time>2016-06-05T10:01:41Z</time>
      </trkpt>
      <trkpt lat="43.784804837778211" lon="11.885590581223369">
        <ele>1029.71</ele>
        <time>2016-06-05T10:01:52Z</time>
      </trkpt>
      <trkpt lat="43.784822188317776" lon="11.885652104392648">
        <ele>1028.27</ele>
        <time>2016-06-05T10:01:59Z</time>
      </trkpt>
      <trkpt lat="43.784833252429962" lon="11.885797865688801">
        <ele>1026.3399999999999</ele>
        <time>2016-06-05T10:02:11Z</time>
      </trkpt>
      <trkpt lat="43.784905755892396" lon="11.885804068297148">
        <ele>1024.9000000000001</ele>
        <time>2016-06-05T10:02:24Z</time>
      </trkpt>
      <trkpt lat="43.784938277676702" lon="11.885749250650406">
        <ele>1022.5</ele>
        <time>2016-06-05T10:02:36Z</time>
      </trkpt>
      <trkpt lat="43.784987395629287" lon="11.885663000866771">
        <ele>1020.1</ele>
        <time>2016-06-05T10:02:49Z</time>
      </trkpt>
      <trkpt lat="43.78501882776618" lon="11.88555059954524">
        <ele>1019.13</ele>
        <time>2016-06-05T10:03:02Z</time>
      </trkpt>
      <trkpt lat="43.785061072558165" lon="11.885440712794662">
        <ele>1017.21</ele>
        <time>2016-06-05T10:03:13Z</time>
      </trkpt>
      <trkpt lat="43.785123853012919" lon="11.885335352271795">
        <ele>1013.85</ele>
        <time>2016-06-05T10:03:25Z</time>
      </trkpt>
      <trkpt lat="43.785179257392883" lon="11.885277181863785">
        <ele>1011.4400000000001</ele>
        <time>2016-06-05T10:03:39Z</time>
      </trkpt>
      <trkpt lat="43.785246480256319" lon="11.885367957875133">
        <ele>1008.5599999999999</ele>
        <time>2016-06-05T10:03:50Z</time>
      </trkpt>
      <trkpt lat="43.785343458876014" lon="11.885402575135231">
        <ele>1005.6799999999999</ele>
        <time>2016-06-05T10:04:01Z</time>
      </trkpt>
      <trkpt lat="43.785406155511737" lon="11.885344153270125">
        <ele>1003.27</ele>
        <time>2016-06-05T10:04:12Z</time>
      </trkpt>
      <trkpt lat="43.785489220172167" lon="11.885319259017706">
        <ele>999.90999999999997</ele>
        <time>2016-06-05T10:04:24Z</time>
      </trkpt>
      <trkpt lat="43.78553138114512" lon="11.885265614837408">
        <ele>997.99000000000001</ele>
        <time>2016-06-05T10:04:37Z</time>
      </trkpt>
      <trkpt lat="43.785549234598875" lon="11.885259579867125">
        <ele>995.58000000000004</ele>
        <time>2016-06-05T10:04:47Z</time>
      </trkpt>
      <trkpt lat="43.785545714199543" lon="11.885299561545253">
        <ele>995.10000000000002</ele>
        <time>2016-06-05T10:05:01Z</time>
      </trkpt>
      <trkpt lat="43.785540852695704" lon="11.885244995355606">
        <ele>994.62</ele>
        <time>2016-06-05T10:05:18Z</time>
      </trkpt>
      <trkpt lat="43.785586953163147" lon="11.885146591812372">
        <ele>993.17999999999995</ele>
        <time>2016-06-05T10:05:35Z</time>
      </trkpt>
      <trkpt lat="43.785700025036931" lon="11.885125301778316">
        <ele>990.77999999999997</ele>
        <time>2016-06-05T10:05:46Z</time>
      </trkpt>
      <trkpt lat="43.785748472437263" lon="11.885044919326901">
        <ele>987.40999999999997</ele>
        <time>2016-06-05T10:05:58Z</time>
      </trkpt>
      <trkpt lat="43.785733133554459" lon="11.884928494691849">
        <ele>984.52999999999997</ele>
        <time>2016-06-05T10:06:10Z</time>
      </trkpt>
      <trkpt lat="43.78575911745429" lon="11.88482447527349">
        <ele>983.57000000000005</ele>
        <time>2016-06-05T10:06:19Z</time>
      </trkpt>
      <trkpt lat="43.785822317004204" lon="11.884708050638437">
        <ele>981.63999999999999</ele>
        <time>2016-06-05T10:06:31Z</time>
      </trkpt>
      <trkpt lat="43.785846037790179" lon="11.884544771164656">
        <ele>978.75999999999999</ele>
        <time>2016-06-05T10:06:44Z</time>
      </trkpt>
      <trkpt lat="43.785954583436251" lon="11.884405883029103">
        <ele>975.88</ele>
        <time>2016-06-05T10:06:57Z</time>
      </trkpt>
      <trkpt lat="43.786004288122058" lon="11.884370008483529">
        <ele>972.50999999999999</ele>
        <time>2016-06-05T10:07:06Z</time>
      </trkpt>
      <trkpt lat="43.786045778542757" lon="11.884272526949644">
        <ele>970.11000000000001</ele>
        <time>2016-06-05T10:07:16Z</time>
      </trkpt>
      <trkpt lat="43.786018956452608" lon="11.884229695424438">
        <ele>968.66999999999996</ele>
        <time>2016-06-05T10:07:27Z</time>
      </trkpt>
      <trkpt lat="43.786020549014211" lon="11.884201364591718">
        <ele>968.17999999999995</ele>
        <time>2016-06-05T10:07:38Z</time>
      </trkpt>
      <trkpt lat="43.786011077463627" lon="11.884129447862506">
        <ele>966.25999999999999</ele>
        <time>2016-06-05T10:07:51Z</time>
      </trkpt>
      <trkpt lat="43.785989535972476" lon="11.884094327688217">
        <ele>966.25999999999999</ele>
        <time>2016-06-05T10:08:05Z</time>
      </trkpt>
      <trkpt lat="43.786059776321054" lon="11.88412718474865">
        <ele>964.82000000000005</ele>
        <time>2016-06-05T10:08:17Z</time>
      </trkpt>
      <trkpt lat="43.786009987816215" lon="11.884114863350987">
        <ele>963.86000000000001</ele>
        <time>2016-06-05T10:08:28Z</time>
      </trkpt>
      <trkpt lat="43.785971095785499" lon="11.884061470627785">
        <ele>963.38</ele>
        <time>2016-06-05T10:08:42Z</time>
      </trkpt>
      <trkpt lat="43.785959193482995" lon="11.884018890559673">
        <ele>962.41999999999996</ele>
        <time>2016-06-05T10:08:55Z</time>
      </trkpt>
      <trkpt lat="43.785975789651275" lon="11.883808672428131">
        <ele>959.52999999999997</ele>
        <time>2016-06-05T10:09:07Z</time>
      </trkpt>
      <trkpt lat="43.786070588976145" lon="11.883793417364359">
        <ele>956.16999999999996</ele>
        <time>2016-06-05T10:09:18Z</time>
      </trkpt>
      <trkpt lat="43.786169327795506" lon="11.883736085146666">
        <ele>953.27999999999997</ele>
        <time>2016-06-05T10:09:28Z</time>
      </trkpt>
      <trkpt lat="43.786142924800515" lon="11.883614463731647">
        <ele>950.88</ele>
        <time>2016-06-05T10:09:40Z</time>
      </trkpt>
      <trkpt lat="43.786107720807195" lon="11.883607171475887">
        <ele>950.88</ele>
        <time>2016-06-05T10:09:54Z</time>
      </trkpt>
      <trkpt lat="43.786093220114708" lon="11.883535087108612">
        <ele>948.96000000000004</ele>
        <time>2016-06-05T10:10:06Z</time>
      </trkpt>
      <trkpt lat="43.786144768819213" lon="11.883493848145008">
        <ele>947.51999999999998</ele>
        <time>2016-06-05T10:10:16Z</time>
      </trkpt>
      <trkpt lat="43.786218697205186" lon="11.883538775146008">
        <ele>944.63</ele>
        <time>2016-06-05T10:10:29Z</time>
      </trkpt>
      <trkpt lat="43.786305785179138" lon="11.88354380428791">
        <ele>942.71000000000004</ele>
        <time>2016-06-05T10:10:40Z</time>
      </trkpt>
      <trkpt lat="43.786340905353427" lon="11.883536847308278">
        <ele>941.26999999999998</ele>
        <time>2016-06-05T10:10:45Z</time>
      </trkpt>
      <trkpt lat="43.786430424079299" lon="11.883516060188413">
        <ele>939.35000000000002</ele>
        <time>2016-06-05T10:10:55Z</time>
      </trkpt>
      <trkpt lat="43.786502508446574" lon="11.883511617779732">
        <ele>936.94000000000005</ele>
        <time>2016-06-05T10:11:06Z</time>
      </trkpt>
      <trkpt lat="43.786617927253246" lon="11.883535841479897">
        <ele>934.53999999999996</ele>
        <time>2016-06-05T10:11:17Z</time>
      </trkpt>
      <trkpt lat="43.786722030490637" lon="11.883588898926973">
        <ele>931.16999999999996</ele>
        <time>2016-06-05T10:11:29Z</time>
      </trkpt>
      <trkpt lat="43.786742398515344" lon="11.883644135668874">
        <ele>931.64999999999998</ele>
        <time>2016-06-05T10:11:33Z</time>
      </trkpt>
      <trkpt lat="43.786776680499315" lon="11.88377489335835">
        <ele>929.73000000000002</ele>
        <time>2016-06-05T10:11:44Z</time>
      </trkpt>
      <trkpt lat="43.786808028817177" lon="11.883881846442819">
        <ele>928.28999999999996</ele>
        <time>2016-06-05T10:11:55Z</time>
      </trkpt>
      <trkpt lat="43.786800568923354" lon="11.883994499221444">
        <ele>927.33000000000004</ele>
        <time>2016-06-05T10:12:05Z</time>
      </trkpt>
      <trkpt lat="43.78681305795908" lon="11.884063063189387">
        <ele>927.33000000000004</ele>
        <time>2016-06-05T10:12:16Z</time>
      </trkpt>
      <trkpt lat="43.786836108192801" lon="11.884147636592388">
        <ele>927.33000000000004</ele>
        <time>2016-06-05T10:12:26Z</time>
      </trkpt>
      <trkpt lat="43.786920849233866" lon="11.884103799238801">
        <ele>927.80999999999995</ele>
        <time>2016-06-05T10:12:32Z</time>
      </trkpt>
      <trkpt lat="43.786936523392797" lon="11.884079240262508">
        <ele>927.80999999999995</ele>
        <time>2016-06-05T10:12:34Z</time>
      </trkpt>
      <trkpt lat="43.787015732377768" lon="11.883970191702247">
        <ele>926.85000000000002</ele>
        <time>2016-06-05T10:12:46Z</time>
      </trkpt>
      <trkpt lat="43.787061916664243" lon="11.883874051272869">
        <ele>926.85000000000002</ele>
        <time>2016-06-05T10:12:58Z</time>
      </trkpt>
      <trkpt lat="43.787090415135026" lon="11.883831135928631">
        <ele>926.37</ele>
        <time>2016-06-05T10:13:04Z</time>
      </trkpt>
      <trkpt lat="43.787125032395124" lon="11.883659223094583">
        <ele>926.85000000000002</ele>
        <time>2016-06-05T10:13:18Z</time>
      </trkpt>
      <trkpt lat="43.787134168669581" lon="11.883453782647848">
        <ele>924.45000000000005</ele>
        <time>2016-06-05T10:13:31Z</time>
      </trkpt>
      <trkpt lat="43.787134336307645" lon="11.883315229788423">
        <ele>921.55999999999995</ele>
        <time>2016-06-05T10:13:44Z</time>
      </trkpt>
      <trkpt lat="43.787157805636525" lon="11.883153207600117">
        <ele>919.15999999999997</ele>
        <time>2016-06-05T10:13:57Z</time>
      </trkpt>
      <trkpt lat="43.787186471745372" lon="11.883082883432508">
        <ele>917.72000000000003</ele>
        <time>2016-06-05T10:14:07Z</time>
      </trkpt>
      <trkpt lat="43.78725285641849" lon="11.88305614516139">
        <ele>915.30999999999995</ele>
        <time>2016-06-05T10:14:16Z</time>
      </trkpt>
      <trkpt lat="43.787332568317652" lon="11.883080871775746">
        <ele>913.38999999999999</ele>
        <time>2016-06-05T10:14:27Z</time>
      </trkpt>
      <trkpt lat="43.787353355437517" lon="11.882962100207806">
        <ele>911.95000000000005</ele>
        <time>2016-06-05T10:14:38Z</time>
      </trkpt>
      <trkpt lat="43.787389313802123" lon="11.882837461307645">
        <ele>910.02999999999997</ele>
        <time>2016-06-05T10:14:48Z</time>
      </trkpt>
      <trkpt lat="43.787485035136342" lon="11.882809549570084">
        <ele>908.10000000000002</ele>
        <time>2016-06-05T10:14:58Z</time>
      </trkpt>
      <trkpt lat="43.787530213594437" lon="11.882814997807145">
        <ele>908.10000000000002</ele>
        <time>2016-06-05T10:15:01Z</time>
      </trkpt>
      <trkpt lat="43.787693828344345" lon="11.88278884626925">
        <ele>906.65999999999997</ele>
        <time>2016-06-05T10:15:15Z</time>
      </trkpt>
      <trkpt lat="43.787791645154357" lon="11.882771411910653">
        <ele>905.70000000000005</ele>
        <time>2016-06-05T10:15:26Z</time>
      </trkpt>
      <trkpt lat="43.787922402843833" lon="11.88277954235673">
        <ele>905.70000000000005</ele>
        <time>2016-06-05T10:15:38Z</time>
      </trkpt>
      <trkpt lat="43.788032960146666" lon="11.882822206243873">
        <ele>906.17999999999995</ele>
        <time>2016-06-05T10:15:49Z</time>
      </trkpt>
      <trkpt lat="43.788150642067194" lon="11.88285137526691">
        <ele>904.74000000000001</ele>
        <time>2016-06-05T10:16:01Z</time>
      </trkpt>
      <trkpt lat="43.78815583884716" lon="11.882830169051886">
        <ele>904.74000000000001</ele>
        <time>2016-06-05T10:16:03Z</time>
      </trkpt>
      <trkpt lat="43.788182325661182" lon="11.882764790207148">
        <ele>903.77999999999997</ele>
        <time>2016-06-05T10:16:09Z</time>
      </trkpt>
      <trkpt lat="43.78819489851594" lon="11.882736375555396">
        <ele>903.77999999999997</ele>
        <time>2016-06-05T10:16:11Z</time>
      </trkpt>
      <trkpt lat="43.788274778053164" lon="11.882563540711999">
        <ele>901.85000000000002</ele>
        <time>2016-06-05T10:16:23Z</time>
      </trkpt>
      <trkpt lat="43.788372175768018" lon="11.882464047521353">
        <ele>899.45000000000005</ele>
        <time>2016-06-05T10:16:35Z</time>
      </trkpt>
      <trkpt lat="43.788552386686206" lon="11.882429430261254">
        <ele>898.97000000000003</ele>
        <time>2016-06-05T10:16:47Z</time>
      </trkpt>
      <trkpt lat="43.788655484095216" lon="11.882425490766764">
        <ele>897.52999999999997</ele>
        <time>2016-06-05T10:17:00Z</time>
      </trkpt>
      <trkpt lat="43.788663279265165" lon="11.882320381700993">
        <ele>897.52999999999997</ele>
        <time>2016-06-05T10:17:09Z</time>
      </trkpt>
      <trkpt lat="43.788693370297551" lon="11.88217612914741">
        <ele>897.04999999999995</ele>
        <time>2016-06-05T10:17:19Z</time>
      </trkpt>
      <trkpt lat="43.788734022527933" lon="11.882122065871954">
        <ele>897.04999999999995</ele>
        <time>2016-06-05T10:17:24Z</time>
      </trkpt>
      <trkpt lat="43.788782637566328" lon="11.881934981793165">
        <ele>894.63999999999999</ele>
        <time>2016-06-05T10:17:37Z</time>
      </trkpt>
      <trkpt lat="43.788773836567998" lon="11.881912518292665">
        <ele>893.67999999999995</ele>
        <time>2016-06-05T10:17:39Z</time>
      </trkpt>
      <trkpt lat="43.788796635344625" lon="11.881800536066294">
        <ele>890.32000000000005</ele>
        <time>2016-06-05T10:17:47Z</time>
      </trkpt>
      <trkpt lat="43.788850614801049" lon="11.881678998470306">
        <ele>887.90999999999997</ele>
        <time>2016-06-05T10:17:58Z</time>
      </trkpt>
      <trkpt lat="43.788859583437443" lon="11.881571458652616">
        <ele>885.50999999999999</ele>
        <time>2016-06-05T10:18:08Z</time>
      </trkpt>
      <trkpt lat="43.788908869028091" lon="11.881494009867311">
        <ele>882.63</ele>
        <time>2016-06-05T10:18:19Z</time>
      </trkpt>
      <trkpt lat="43.788935272023082" lon="11.881403652951121">
        <ele>879.74000000000001</ele>
        <time>2016-06-05T10:18:30Z</time>
      </trkpt>
      <trkpt lat="43.788983384147286" lon="11.881316816434264">
        <ele>877.82000000000005</ele>
        <time>2016-06-05T10:18:39Z</time>
      </trkpt>
      <trkpt lat="43.789018671959639" lon="11.881171390414238">
        <ele>875.41999999999996</ele>
        <time>2016-06-05T10:18:52Z</time>
      </trkpt>
      <trkpt lat="43.789059156551957" lon="11.881052115932107">
        <ele>873.5</ele>
        <time>2016-06-05T10:19:03Z</time>
      </trkpt>
      <trkpt lat="43.789082122966647" lon="11.881058905273676">
        <ele>873.00999999999999</ele>
        <time>2016-06-05T10:19:13Z</time>
      </trkpt>
      <trkpt lat="43.789050942286849" lon="11.881046583876014">
        <ele>872.04999999999995</ele>
        <time>2016-06-05T10:19:27Z</time>
      </trkpt>
      <trkpt lat="43.789064437150955" lon="11.881022779271007">
        <ele>872.52999999999997</ele>
        <time>2016-06-05T10:19:37Z</time>
      </trkpt>
      <trkpt lat="43.789095534011722" lon="11.880915155634284">
        <ele>869.64999999999998</ele>
        <time>2016-06-05T10:19:46Z</time>
      </trkpt>
      <trkpt lat="43.789100479334593" lon="11.880787583068013">
        <ele>868.21000000000004</ele>
        <time>2016-06-05T10:19:56Z</time>
      </trkpt>
      <trkpt lat="43.789094276726246" lon="11.880659842863679">
        <ele>865.32000000000005</ele>
        <time>2016-06-05T10:20:07Z</time>
      </trkpt>
      <trkpt lat="43.789061419665813" lon="11.880590775981545">
        <ele>865.79999999999995</ele>
        <time>2016-06-05T10:20:19Z</time>
      </trkpt>
      <trkpt lat="43.789054714143276" lon="11.880582142621279">
        <ele>865.79999999999995</ele>
        <time>2016-06-05T10:20:20Z</time>
      </trkpt>
      <trkpt lat="43.789013726636767" lon="11.880539143458009">
        <ele>865.79999999999995</ele>
        <time>2016-06-05T10:20:25Z</time>
      </trkpt>
      <trkpt lat="43.789000147953629" lon="11.880503939464688">
        <ele>862.44000000000005</ele>
        <time>2016-06-05T10:20:28Z</time>
      </trkpt>
      <trkpt lat="43.788955137133598" lon="11.880362033843994">
        <ele>860.03999999999996</ele>
        <time>2016-06-05T10:20:40Z</time>
      </trkpt>
      <trkpt lat="43.788952622562647" lon="11.880236389115453">
        <ele>857.63</ele>
        <time>2016-06-05T10:20:50Z</time>
      </trkpt>
      <trkpt lat="43.788916748017073" lon="11.880126753821969">
        <ele>855.23000000000002</ele>
        <time>2016-06-05T10:21:02Z</time>
      </trkpt>
      <trkpt lat="43.788876011967659" lon="11.879960875958204">
        <ele>853.30999999999995</ele>
        <time>2016-06-05T10:21:16Z</time>
      </trkpt>
      <trkpt lat="43.788901576772332" lon="11.879854761064053">
        <ele>851.38</ele>
        <time>2016-06-05T10:21:28Z</time>
      </trkpt>
      <trkpt lat="43.788931583985686" lon="11.879796423017979">
        <ele>850.41999999999996</ele>
        <time>2016-06-05T10:21:38Z</time>
      </trkpt>
      <trkpt lat="43.788882130756974" lon="11.879752753302455">
        <ele>848.01999999999998</ele>
        <time>2016-06-05T10:21:50Z</time>
      </trkpt>
      <trkpt lat="43.788882549852133" lon="11.879657618701458">
        <ele>845.13999999999999</ele>
        <time>2016-06-05T10:22:01Z</time>
      </trkpt>
      <trkpt lat="43.788886573165655" lon="11.879581762477756">
        <ele>843.69000000000005</ele>
        <time>2016-06-05T10:22:11Z</time>
      </trkpt>
      <trkpt lat="43.788970811292529" lon="11.879674717783928">
        <ele>842.73000000000002</ele>
        <time>2016-06-05T10:22:21Z</time>
      </trkpt>
      <trkpt lat="43.789048846811056" lon="11.879753759130836">
        <ele>841.76999999999998</ele>
        <time>2016-06-05T10:22:33Z</time>
      </trkpt>
      <trkpt lat="43.789117829874158" lon="11.879859622567892">
        <ele>840.33000000000004</ele>
        <time>2016-06-05T10:22:44Z</time>
      </trkpt>
      <trkpt lat="43.789178933948278" lon="11.879945620894432">
        <ele>838.88999999999999</ele>
        <time>2016-06-05T10:22:53Z</time>
      </trkpt>
      <trkpt lat="43.789223022758961" lon="11.880060536786914">
        <ele>838.40999999999997</ele>
        <time>2016-06-05T10:23:04Z</time>
      </trkpt>
      <trkpt lat="43.789274403825402" lon="11.880084173753858">
        <ele>836.48000000000002</ele>
        <time>2016-06-05T10:23:16Z</time>
      </trkpt>
      <trkpt lat="43.789340201765299" lon="11.880092220380902">
        <ele>834.55999999999995</ele>
        <time>2016-06-05T10:23:26Z</time>
      </trkpt>
      <trkpt lat="43.78943407908082" lon="11.880042599514127">
        <ele>832.15999999999997</ele>
        <time>2016-06-05T10:23:37Z</time>
      </trkpt>
      <trkpt lat="43.789477497339249" lon="11.880068834871054">
        <ele>831.20000000000005</ele>
        <time>2016-06-05T10:23:42Z</time>
      </trkpt>
      <trkpt lat="43.78954648040235" lon="11.880163215100765">
        <ele>830.24000000000001</ele>
        <time>2016-06-05T10:23:51Z</time>
      </trkpt>
      <trkpt lat="43.789611775428057" lon="11.88025189563632">
        <ele>829.26999999999998</ele>
        <time>2016-06-05T10:24:03Z</time>
      </trkpt>
      <trkpt lat="43.789621330797672" lon="11.88028316013515">
        <ele>828.30999999999995</ele>
        <time>2016-06-05T10:24:06Z</time>
      </trkpt>
      <trkpt lat="43.789660977199674" lon="11.880413163453341">
        <ele>827.35000000000002</ele>
        <time>2016-06-05T10:24:16Z</time>
      </trkpt>
      <trkpt lat="43.789679585024714" lon="11.88056755810976">
        <ele>827.35000000000002</ele>
        <time>2016-06-05T10:24:27Z</time>
      </trkpt>
      <trkpt lat="43.789693666622043" lon="11.880771573632956">
        <ele>826.87</ele>
        <time>2016-06-05T10:24:40Z</time>
      </trkpt>
      <trkpt lat="43.789656786248088" lon="11.880894703790545">
        <ele>825.90999999999997</ele>
        <time>2016-06-05T10:24:50Z</time>
      </trkpt>
      <trkpt lat="43.78964664414525" lon="11.881049098446965">
        <ele>824.95000000000005</ele>
        <time>2016-06-05T10:25:02Z</time>
      </trkpt>
      <trkpt lat="43.789675226435065" lon="11.881166277453303">
        <ele>823.50999999999999</ele>
        <time>2016-06-05T10:25:14Z</time>
      </trkpt>
      <trkpt lat="43.789700120687485" lon="11.881267614662647">
        <ele>821.58000000000004</ele>
        <time>2016-06-05T10:25:25Z</time>
      </trkpt>
      <trkpt lat="43.789745466783643" lon="11.881409101188183">
        <ele>819.65999999999997</ele>
        <time>2016-06-05T10:25:37Z</time>
      </trkpt>
      <trkpt lat="43.789822496473789" lon="11.881425864994526">
        <ele>818.22000000000003</ele>
        <time>2016-06-05T10:25:48Z</time>
      </trkpt>
      <trkpt lat="43.789822245016694" lon="11.881423685699701">
        <ele>818.70000000000005</ele>
        <time>2016-06-05T10:26:00Z</time>
      </trkpt>
      <trkpt lat="43.789871279150248" lon="11.8814358394593">
        <ele>818.22000000000003</ele>
        <time>2016-06-05T10:26:09Z</time>
      </trkpt>
      <trkpt lat="43.789828782901168" lon="11.881424440070987">
        <ele>818.22000000000003</ele>
        <time>2016-06-05T10:26:28Z</time>
      </trkpt>
      <trkpt lat="43.789850156754255" lon="11.88140700571239">
        <ele>818.22000000000003</ele>
        <time>2016-06-05T10:26:38Z</time>
      </trkpt>
      <trkpt lat="43.789962558075786" lon="11.88147540204227">
        <ele>816.77999999999997</ele>
        <time>2016-06-05T10:26:49Z</time>
      </trkpt>
      <trkpt lat="43.79005559720099" lon="11.881519239395857">
        <ele>816.29999999999995</ele>
        <time>2016-06-05T10:26:59Z</time>
      </trkpt>
      <trkpt lat="43.790169423446059" lon="11.881553269922733">
        <ele>815.82000000000005</ele>
        <time>2016-06-05T10:27:11Z</time>
      </trkpt>
      <trkpt lat="43.790236478671432" lon="11.881527956575155">
        <ele>815.82000000000005</ele>
        <time>2016-06-05T10:27:21Z</time>
      </trkpt>
      <trkpt lat="43.790223821997643" lon="11.881471462547779">
        <ele>815.82000000000005</ele>
        <time>2016-06-05T10:27:42Z</time>
      </trkpt>
      <trkpt lat="43.790223235264421" lon="11.88147540204227">
        <ele>815.82000000000005</ele>
        <time>2016-06-05T10:28:06Z</time>
      </trkpt>
      <trkpt lat="43.790227342396975" lon="11.881493339315057">
        <ele>815.82000000000005</ele>
        <time>2016-06-05T10:28:28Z</time>
      </trkpt>
      <trkpt lat="43.79023052752018" lon="11.881461655721068">
        <ele>816.29999999999995</ele>
        <time>2016-06-05T10:28:50Z</time>
      </trkpt>
      <trkpt lat="43.790248045697808" lon="11.881503649055958">
        <ele>815.82000000000005</ele>
        <time>2016-06-05T10:29:04Z</time>
      </trkpt>
      <trkpt lat="43.790272604674101" lon="11.88153843395412">
        <ele>815.82000000000005</ele>
        <time>2016-06-05T10:29:20Z</time>
      </trkpt>
      <trkpt lat="43.790294397622347" lon="11.881512198597193">
        <ele>815.82000000000005</ele>
        <time>2016-06-05T10:29:31Z</time>
      </trkpt>
      <trkpt lat="43.790392801165581" lon="11.88154237344861">
        <ele>815.34000000000003</ele>
        <time>2016-06-05T10:29:43Z</time>
      </trkpt>
      <trkpt lat="43.790515176951885" lon="11.881554443389177">
        <ele>812.92999999999995</ele>
        <time>2016-06-05T10:29:55Z</time>
      </trkpt>
      <trkpt lat="43.790628332644701" lon="11.881543714553118">
        <ele>811.49000000000001</ele>
        <time>2016-06-05T10:30:07Z</time>
      </trkpt>
      <trkpt lat="43.790653813630342" lon="11.881490657106042">
        <ele>810.52999999999997</ele>
        <time>2016-06-05T10:30:14Z</time>
      </trkpt>
      <trkpt lat="43.790716426447034" lon="11.881414381787181">
        <ele>808.61000000000001</ele>
        <time>2016-06-05T10:30:23Z</time>
      </trkpt>
      <trkpt lat="43.79072648473084" lon="11.881419159471989">
        <ele>808.61000000000001</ele>
        <time>2016-06-05T10:30:24Z</time>
      </trkpt>
      <trkpt lat="43.790769819170237" lon="11.881536170840263">
        <ele>806.67999999999995</ele>
        <time>2016-06-05T10:30:35Z</time>
      </trkpt>
      <trkpt lat="43.790796138346195" lon="11.881691152229905">
        <ele>804.75999999999999</ele>
        <time>2016-06-05T10:30:49Z</time>
      </trkpt>
      <trkpt lat="43.790817093104124" lon="11.881829369813204">
        <ele>802.36000000000001</ele>
        <time>2016-06-05T10:31:02Z</time>
      </trkpt>
      <trkpt lat="43.790835784748197" lon="11.88191955909133">
        <ele>800.91999999999996</ele>
        <time>2016-06-05T10:31:11Z</time>
      </trkpt>
      <trkpt lat="43.790873922407627" lon="11.88205006532371">
        <ele>799.47000000000003</ele>
        <time>2016-06-05T10:31:22Z</time>
      </trkpt>
      <trkpt lat="43.790935697034001" lon="11.882167579606175">
        <ele>798.02999999999997</ele>
        <time>2016-06-05T10:31:33Z</time>
      </trkpt>
      <trkpt lat="43.790968218818307" lon="11.882340246811509">
        <ele>796.59000000000003</ele>
        <time>2016-06-05T10:31:46Z</time>
      </trkpt>
      <trkpt lat="43.790972828865051" lon="11.882382910698652">
        <ele>796.11000000000001</ele>
        <time>2016-06-05T10:31:49Z</time>
      </trkpt>
      <trkpt lat="43.790977103635669" lon="11.882467400282621">
        <ele>795.63</ele>
        <time>2016-06-05T10:31:55Z</time>
      </trkpt>
      <trkpt lat="43.791019348427653" lon="11.882543424144387">
        <ele>794.66999999999996</ele>
        <time>2016-06-05T10:32:01Z</time>
      </trkpt>
      <trkpt lat="43.79104214720428" lon="11.882541328668594">
        <ele>794.66999999999996</ele>
        <time>2016-06-05T10:32:03Z</time>
      </trkpt>
      <trkpt lat="43.79109051078558" lon="11.882512411102653">
        <ele>794.19000000000005</ele>
        <time>2016-06-05T10:32:07Z</time>
      </trkpt>
      <trkpt lat="43.791089085862041" lon="11.882323902100325">
        <ele>791.77999999999997</ele>
        <time>2016-06-05T10:32:20Z</time>
      </trkpt>
      <trkpt lat="43.7910773511976" lon="11.882117539644241">
        <ele>788.89999999999998</ele>
        <time>2016-06-05T10:32:34Z</time>
      </trkpt>
      <trkpt lat="43.791140466928482" lon="11.881916457787156">
        <ele>786.98000000000002</ele>
        <time>2016-06-05T10:32:47Z</time>
      </trkpt>
      <trkpt lat="43.791239289566875" lon="11.881890473887324">
        <ele>786.5</ele>
        <time>2016-06-05T10:32:58Z</time>
      </trkpt>
      <trkpt lat="43.791267788037658" lon="11.881904555484653">
        <ele>786.5</ele>
        <time>2016-06-05T10:33:01Z</time>
      </trkpt>
      <trkpt lat="43.791429810225964" lon="11.882001534104347">
        <ele>786.01999999999998</ele>
        <time>2016-06-05T10:33:16Z</time>
      </trkpt>
      <trkpt lat="43.791531231254339" lon="11.882105302065611">
        <ele>786.01999999999998</ele>
        <time>2016-06-05T10:33:28Z</time>
      </trkpt>
      <trkpt lat="43.791622845456004" lon="11.882301103323698">
        <ele>786.01999999999998</ele>
        <time>2016-06-05T10:33:43Z</time>
      </trkpt>
      <trkpt lat="43.791693756356835" lon="11.882387101650238">
        <ele>786.98000000000002</ele>
        <time>2016-06-05T10:33:53Z</time>
      </trkpt>
      <trkpt lat="43.791703647002578" lon="11.882389029487967">
        <ele>786.98000000000002</ele>
        <time>2016-06-05T10:33:54Z</time>
      </trkpt>
      <trkpt lat="43.791761314496398" lon="11.882389616221189">
        <ele>787.46000000000004</ele>
        <time>2016-06-05T10:34:00Z</time>
      </trkpt>
      <trkpt lat="43.791776318103075" lon="11.882376372814178">
        <ele>787.46000000000004</ele>
        <time>2016-06-05T10:34:02Z</time>
      </trkpt>
      <trkpt lat="43.791770869866014" lon="11.882258523255587">
        <ele>787.46000000000004</ele>
        <time>2016-06-05T10:34:11Z</time>
      </trkpt>
      <trkpt lat="43.791713286191225" lon="11.882045455276966">
        <ele>788.41999999999996</ele>
        <time>2016-06-05T10:34:28Z</time>
      </trkpt>
      <trkpt lat="43.791639190167189" lon="11.881830962374806">
        <ele>789.38</ele>
        <time>2016-06-05T10:34:44Z</time>
      </trkpt>
      <trkpt lat="43.791592167690396" lon="11.881666341796517">
        <ele>789.38</ele>
        <time>2016-06-05T10:34:57Z</time>
      </trkpt>
      <trkpt lat="43.791569955646992" lon="11.88157900236547">
        <ele>789.38</ele>
        <time>2016-06-05T10:35:04Z</time>
      </trkpt>
      <trkpt lat="43.791570039466023" lon="11.881547905504704">
        <ele>789.38</ele>
        <time>2016-06-05T10:35:06Z</time>
      </trkpt>
      <trkpt lat="43.791562160477042" lon="11.881429636850953">
        <ele>789.86000000000001</ele>
        <time>2016-06-05T10:35:15Z</time>
      </trkpt>
      <trkpt lat="43.791564255952835" lon="11.88137766905129">
        <ele>790.34000000000003</ele>
        <time>2016-06-05T10:35:19Z</time>
      </trkpt>
      <trkpt lat="43.791630808264017" lon="11.881243558600545">
        <ele>790.82000000000005</ele>
        <time>2016-06-05T10:35:31Z</time>
      </trkpt>
      <trkpt lat="43.791690235957503" lon="11.88114557415247">
        <ele>792.74000000000001</ele>
        <time>2016-06-05T10:35:42Z</time>
      </trkpt>
      <trkpt lat="43.791740024462342" lon="11.881022192537785">
        <ele>794.19000000000005</ele>
        <time>2016-06-05T10:35:53Z</time>
      </trkpt>
      <trkpt lat="43.791771540418267" lon="11.880869222804904">
        <ele>795.14999999999998</ele>
        <time>2016-06-05T10:36:05Z</time>
      </trkpt>
      <trkpt lat="43.791781011968851" lon="11.880843825638294">
        <ele>796.11000000000001</ele>
        <time>2016-06-05T10:36:07Z</time>
      </trkpt>
      <trkpt lat="43.791815042495728" lon="11.88071851618588">
        <ele>797.07000000000005</ele>
        <time>2016-06-05T10:36:17Z</time>
      </trkpt>
      <trkpt lat="43.79177070222795" lon="11.880603432655334">
        <ele>798.50999999999999</ele>
        <time>2016-06-05T10:36:30Z</time>
      </trkpt>
      <trkpt lat="43.791756872087717" lon="11.880465717986226">
        <ele>798.99000000000001</ele>
        <time>2016-06-05T10:36:40Z</time>
      </trkpt>
      <trkpt lat="43.791813030838966" lon="11.880282238125801">
        <ele>799.95000000000005</ele>
        <time>2016-06-05T10:36:53Z</time>
      </trkpt>
      <trkpt lat="43.791899280622602" lon="11.88016782514751">
        <ele>801.39999999999998</ele>
        <time>2016-06-05T10:37:04Z</time>
      </trkpt>
      <trkpt lat="43.791976226493716" lon="11.880062632262707">
        <ele>802.36000000000001</ele>
        <time>2016-06-05T10:37:15Z</time>
      </trkpt>
      <trkpt lat="43.792033810168505" lon="11.87997579574585">
        <ele>804.27999999999997</ele>
        <time>2016-06-05T10:37:25Z</time>
      </trkpt>
      <trkpt lat="43.792084520682693" lon="11.879919469356537">
        <ele>805.24000000000001</ele>
        <time>2016-06-05T10:37:31Z</time>
      </trkpt>
      <trkpt lat="43.792103128507733" lon="11.879906980320811">
        <ele>805.72000000000003</ele>
        <time>2016-06-05T10:37:33Z</time>
      </trkpt>
      <trkpt lat="43.792186360806227" lon="11.879837494343519">
        <ele>808.61000000000001</ele>
        <time>2016-06-05T10:37:44Z</time>
      </trkpt>
      <trkpt lat="43.792294403538108" lon="11.879824502393603">
        <ele>810.04999999999995</ele>
        <time>2016-06-05T10:37:55Z</time>
      </trkpt>
      <trkpt lat="43.792407559230924" lon="11.87983363866806">
        <ele>810.04999999999995</ele>
        <time>2016-06-05T10:38:07Z</time>
      </trkpt>
      <trkpt lat="43.792563211172819" lon="11.879800530150533">
        <ele>810.52999999999997</ele>
        <time>2016-06-05T10:38:19Z</time>
      </trkpt>
      <trkpt lat="43.792657759040594" lon="11.879741018638015">
        <ele>812.92999999999995</ele>
        <time>2016-06-05T10:38:30Z</time>
      </trkpt>
      <trkpt lat="43.792675361037254" lon="11.879712184891105">
        <ele>812.92999999999995</ele>
        <time>2016-06-05T10:38:33Z</time>
      </trkpt>
      <trkpt lat="43.792697824537754" lon="11.879666587337852">
        <ele>813.88999999999999</ele>
        <time>2016-06-05T10:38:37Z</time>
      </trkpt>
      <trkpt lat="43.792749876156449" lon="11.879512025043368">
        <ele>816.29999999999995</ele>
        <time>2016-06-05T10:38:49Z</time>
      </trkpt>
      <trkpt lat="43.792773177847266" lon="11.879419572651386">
        <ele>816.77999999999997</ele>
        <time>2016-06-05T10:38:55Z</time>
      </trkpt>
      <trkpt lat="43.792821709066629" lon="11.879242211580276">
        <ele>818.70000000000005</ele>
        <time>2016-06-05T10:39:07Z</time>
      </trkpt>
      <trkpt lat="43.792851800099015" lon="11.879069125279784">
        <ele>819.65999999999997</ele>
        <time>2016-06-05T10:39:19Z</time>
      </trkpt>
      <trkpt lat="43.792880717664957" lon="11.878908360376954">
        <ele>820.62</ele>
        <time>2016-06-05T10:39:30Z</time>
      </trkpt>
      <trkpt lat="43.792912233620882" lon="11.878715408965945">
        <ele>820.13999999999999</ele>
        <time>2016-06-05T10:39:42Z</time>
      </trkpt>
      <trkpt lat="43.792966715991497" lon="11.878554727882147">
        <ele>820.13999999999999</ele>
        <time>2016-06-05T10:39:54Z</time>
      </trkpt>
      <trkpt lat="43.793016755953431" lon="11.878529498353601">
        <ele>820.62</ele>
        <time>2016-06-05T10:40:01Z</time>
      </trkpt>
      <trkpt lat="43.793025640770793" lon="11.878515500575304">
        <ele>821.58000000000004</ele>
        <time>2016-06-05T10:40:03Z</time>
      </trkpt>
      <trkpt lat="43.793065790086985" lon="11.878500999882817">
        <ele>821.58000000000004</ele>
        <time>2016-06-05T10:40:07Z</time>
      </trkpt>
      <trkpt lat="43.793193195015192" lon="11.87839605845511">
        <ele>823.50999999999999</ele>
        <time>2016-06-05T10:40:21Z</time>
      </trkpt>
      <trkpt lat="43.793329484760761" lon="11.878308299928904">
        <ele>824.95000000000005</ele>
        <time>2016-06-05T10:40:34Z</time>
      </trkpt>
      <trkpt lat="43.793453704565763" lon="11.878253482282162">
        <ele>825.90999999999997</ele>
        <time>2016-06-05T10:40:46Z</time>
      </trkpt>
      <trkpt lat="43.793537858873606" lon="11.878188354894519">
        <ele>827.35000000000002</ele>
        <time>2016-06-05T10:40:55Z</time>
      </trkpt>
      <trkpt lat="43.793622516095638" lon="11.878132615238428">
        <ele>828.30999999999995</ele>
        <time>2016-06-05T10:41:04Z</time>
      </trkpt>
      <trkpt lat="43.793726451694965" lon="11.878100512549281">
        <ele>830.24000000000001</ele>
        <time>2016-06-05T10:41:15Z</time>
      </trkpt>
      <trkpt lat="43.793848743662238" lon="11.878040581941605">
        <ele>831.67999999999995</ele>
        <time>2016-06-05T10:41:28Z</time>
      </trkpt>
      <trkpt lat="43.793960055336356" lon="11.877993308007717">
        <ele>833.12</ele>
        <time>2016-06-05T10:41:39Z</time>
      </trkpt>
      <trkpt lat="43.794061811640859" lon="11.877956092357635">
        <ele>834.55999999999995</ele>
        <time>2016-06-05T10:41:50Z</time>
      </trkpt>
      <trkpt lat="43.794191898778081" lon="11.877868752926588">
        <ele>836</ele>
        <time>2016-06-05T10:42:03Z</time>
      </trkpt>
      <trkpt lat="43.794294241815805" lon="11.877803290262818">
        <ele>836.96000000000004</ele>
        <time>2016-06-05T10:42:14Z</time>
      </trkpt>
      <trkpt lat="43.794368756935" lon="11.877774288877845">
        <ele>837.92999999999995</ele>
        <time>2016-06-05T10:42:22Z</time>
      </trkpt>
      <trkpt lat="43.794432124122977" lon="11.877730870619416">
        <ele>838.40999999999997</ele>
        <time>2016-06-05T10:42:33Z</time>
      </trkpt>
      <trkpt lat="43.794431034475565" lon="11.877730116248131">
        <ele>838.88999999999999</ele>
        <time>2016-06-05T10:42:34Z</time>
      </trkpt>
      <trkpt lat="43.794435728341341" lon="11.877705976366997">
        <ele>838.88999999999999</ele>
        <time>2016-06-05T10:42:36Z</time>
      </trkpt>
      <trkpt lat="43.794463891535997" lon="11.877612182870507">
        <ele>839.85000000000002</ele>
        <time>2016-06-05T10:42:44Z</time>
      </trkpt>
      <trkpt lat="43.79451971501112" lon="11.877513024955988">
        <ele>838.88999999999999</ele>
        <time>2016-06-05T10:42:54Z</time>
      </trkpt>
      <trkpt lat="43.794542094692588" lon="11.877483604475856">
        <ele>839.85000000000002</ele>
        <time>2016-06-05T10:42:57Z</time>
      </trkpt>
      <trkpt lat="43.794591799378395" lon="11.877352260053158">
        <ele>841.28999999999996</ele>
        <time>2016-06-05T10:43:09Z</time>
      </trkpt>
      <trkpt lat="43.794561289250851" lon="11.877297442406416">
        <ele>841.28999999999996</ele>
        <time>2016-06-05T10:43:13Z</time>
      </trkpt>
      <trkpt lat="43.7945622112602" lon="11.877166265621781">
        <ele>841.76999999999998</ele>
        <time>2016-06-05T10:43:23Z</time>
      </trkpt>
      <trkpt lat="43.794554835185409" lon="11.87702595256269">
        <ele>842.25</ele>
        <time>2016-06-05T10:43:33Z</time>
      </trkpt>
      <trkpt lat="43.794559529051185" lon="11.876992592588067">
        <ele>842.73000000000002</ele>
        <time>2016-06-05T10:43:38Z</time>
      </trkpt>
      <trkpt lat="43.794703865423799" lon="11.876889495179057">
        <ele>844.17999999999995</ele>
        <time>2016-06-05T10:43:50Z</time>
      </trkpt>
      <trkpt lat="43.794783744961023" lon="11.876799138262868">
        <ele>842.73000000000002</ele>
        <time>2016-06-05T10:44:01Z</time>
      </trkpt>
      <trkpt lat="43.794878628104925" lon="11.876674080267549">
        <ele>841.28999999999996</ele>
        <time>2016-06-05T10:44:13Z</time>
      </trkpt>
      <trkpt lat="43.794882399961352" lon="11.876693274825811">
        <ele>840.80999999999995</ele>
        <time>2016-06-05T10:44:16Z</time>
      </trkpt>
      <trkpt lat="43.794925315305591" lon="11.876720599830151">
        <ele>839.85000000000002</ele>
        <time>2016-06-05T10:44:20Z</time>
      </trkpt>
      <trkpt lat="43.795015253126621" lon="11.876920843496919">
        <ele>839.85000000000002</ele>
        <time>2016-06-05T10:44:34Z</time>
      </trkpt>
      <trkpt lat="43.795057497918606" lon="11.877079429104924">
        <ele>838.88999999999999</ele>
        <time>2016-06-05T10:44:45Z</time>
      </trkpt>
      <trkpt lat="43.795069567859173" lon="11.877103988081217">
        <ele>839.37</ele>
        <time>2016-06-05T10:44:57Z</time>
      </trkpt>
      <trkpt lat="43.795062946155667" lon="11.87708999030292">
        <ele>837.92999999999995</ele>
        <time>2016-06-05T10:45:09Z</time>
      </trkpt>
      <trkpt lat="43.795056408271194" lon="11.87707532197237">
        <ele>837.92999999999995</ele>
        <time>2016-06-05T10:45:34Z</time>
      </trkpt>
      <trkpt lat="43.795060096308589" lon="11.877081608399749">
        <ele>837.45000000000005</ele>
        <time>2016-06-05T10:46:00Z</time>
      </trkpt>
      <trkpt lat="43.795056492090225" lon="11.877050846815109">
        <ele>837.92999999999995</ele>
        <time>2016-06-05T10:46:32Z</time>
      </trkpt>
      <trkpt lat="43.795052049681544" lon="11.877044811844826">
        <ele>837.92999999999995</ele>
        <time>2016-06-05T10:47:03Z</time>
      </trkpt>
      <trkpt lat="43.795069232583046" lon="11.877097534015775">
        <ele>838.40999999999997</ele>
        <time>2016-06-05T10:47:26Z</time>
      </trkpt>
      <trkpt lat="43.795072333887219" lon="11.877100132405758">
        <ele>839.37</ele>
        <time>2016-06-05T10:47:52Z</time>
      </trkpt>
      <trkpt lat="43.795111225917935" lon="11.877061575651169">
        <ele>837.45000000000005</ele>
        <time>2016-06-05T10:48:19Z</time>
      </trkpt>
      <trkpt lat="43.795063029974699" lon="11.877056714147329">
        <ele>837.45000000000005</ele>
        <time>2016-06-05T10:48:43Z</time>
      </trkpt>
      <trkpt lat="43.795086834579706" lon="11.877045063301921">
        <ele>837.92999999999995</ele>
        <time>2016-06-05T10:49:05Z</time>
      </trkpt>
      <trkpt lat="43.795051295310259" lon="11.876998376101255">
        <ele>837.92999999999995</ele>
        <time>2016-06-05T10:49:32Z</time>
      </trkpt>
      <trkpt lat="43.795057917013764" lon="11.876983288675547">
        <ele>838.40999999999997</ele>
        <time>2016-06-05T10:49:59Z</time>
      </trkpt>
      <trkpt lat="43.795099658891559" lon="11.877042464911938">
        <ele>838.40999999999997</ele>
        <time>2016-06-05T10:50:26Z</time>
      </trkpt>
      <trkpt lat="43.795119943097234" lon="11.877015894278884">
        <ele>838.40999999999997</ele>
        <time>2016-06-05T10:50:51Z</time>
      </trkpt>
      <trkpt lat="43.795121032744646" lon="11.877002734690905">
        <ele>838.88999999999999</ele>
        <time>2016-06-05T10:51:14Z</time>
      </trkpt>
      <trkpt lat="43.795113572850823" lon="11.87697809189558">
        <ele>838.88999999999999</ele>
        <time>2016-06-05T10:51:34Z</time>
      </trkpt>
      <trkpt lat="43.795125056058168" lon="11.876988150179386">
        <ele>839.37</ele>
        <time>2016-06-05T10:52:04Z</time>
      </trkpt>
      <trkpt lat="43.795128660276532" lon="11.876991167664528">
        <ele>839.37</ele>
        <time>2016-06-05T10:52:30Z</time>
      </trkpt>
      <trkpt lat="43.795131091028452" lon="11.876989407464862">
        <ele>839.85000000000002</ele>
        <time>2016-06-05T10:52:51Z</time>
      </trkpt>
      <trkpt lat="43.795126564800739" lon="11.87700348906219">
        <ele>839.85000000000002</ele>
        <time>2016-06-05T10:53:11Z</time>
      </trkpt>
      <trkpt lat="43.795132096856833" lon="11.877007596194744">
        <ele>840.33000000000004</ele>
        <time>2016-06-05T10:53:34Z</time>
      </trkpt>
      <trkpt lat="43.795128827914596" lon="11.876994017511606">
        <ele>839.85000000000002</ele>
        <time>2016-06-05T10:53:59Z</time>
      </trkpt>
      <trkpt lat="43.795130252838135" lon="11.877026287838817">
        <ele>840.33000000000004</ele>
        <time>2016-06-05T10:54:25Z</time>
      </trkpt>
      <trkpt lat="43.795149866491556" lon="11.877022432163358">
        <ele>839.85000000000002</ele>
        <time>2016-06-05T10:54:49Z</time>
      </trkpt>
      <trkpt lat="43.795160427689552" lon="11.876964764669538">
        <ele>840.33000000000004</ele>
        <time>2016-06-05T10:55:14Z</time>
      </trkpt>
      <trkpt lat="43.795161517336965" lon="11.876997957006097">
        <ele>841.28999999999996</ele>
        <time>2016-06-05T10:55:44Z</time>
      </trkpt>
    </trkseg>
  </trk>

</gpx>